<?xml version="1.0" encoding="UTF-8" standalone="no" ?>
<gpx xmlns="http://www.topografix.com/GPX/1/1" xmlns:xsi="http://www.w3.org/2001/XMLSchema-instance" xsi:schemaLocation="http://www.topografix.com/GPX/1/1 http://www.topografix.com/GPX/1/1/gpx.xsd" version="1.1" creator="VisuGPX - https://www.visugpx.com">
  <metadata>
    <name>A/R dom SGMO en passant par la cx Rampaux</name>
  </metadata>
  <trk>
    <name><![CDATA[2023 06 29 A/R dom SGMO en passant par la cx Rampaux]]></name>
    <trkseg>
      <trkpt lat="45.83321" lon="4.70954">
        <ele>362.74133</ele>
        <time>2023-06-29T14:12:02.444Z</time>
      </trkpt>
      <trkpt lat="45.83321" lon="4.70957">
        <ele>364.30035</ele>
        <time>2023-06-29T14:12:13.000Z</time>
      </trkpt>
      <trkpt lat="45.83319" lon="4.70962">
        <ele>364.82898</ele>
        <time>2023-06-29T14:12:15.000Z</time>
      </trkpt>
      <trkpt lat="45.83318" lon="4.70965">
        <ele>365.08887</ele>
        <time>2023-06-29T14:12:16.000Z</time>
      </trkpt>
      <trkpt lat="45.83318" lon="4.70968">
        <ele>365.22021</ele>
        <time>2023-06-29T14:12:17.000Z</time>
      </trkpt>
      <trkpt lat="45.83317" lon="4.7097">
        <ele>365.27646</ele>
        <time>2023-06-29T14:12:18.000Z</time>
      </trkpt>
      <trkpt lat="45.83315" lon="4.70973">
        <ele>365.30099</ele>
        <time>2023-06-29T14:12:19.000Z</time>
      </trkpt>
      <trkpt lat="45.83314" lon="4.70976">
        <ele>365.31705</ele>
        <time>2023-06-29T14:12:20.000Z</time>
      </trkpt>
      <trkpt lat="45.83313" lon="4.7098">
        <ele>365.29773</ele>
        <time>2023-06-29T14:12:21.000Z</time>
      </trkpt>
      <trkpt lat="45.83312" lon="4.70984">
        <ele>365.23291</ele>
        <time>2023-06-29T14:12:22.000Z</time>
      </trkpt>
      <trkpt lat="45.83311" lon="4.70988">
        <ele>365.16818</ele>
        <time>2023-06-29T14:12:23.000Z</time>
      </trkpt>
      <trkpt lat="45.83311" lon="4.70993">
        <ele>365.10971</ele>
        <time>2023-06-29T14:12:24.000Z</time>
      </trkpt>
      <trkpt lat="45.83312" lon="4.70998">
        <ele>365.07272</ele>
        <time>2023-06-29T14:12:25.000Z</time>
      </trkpt>
      <trkpt lat="45.83315" lon="4.71001">
        <ele>364.9324</ele>
        <time>2023-06-29T14:12:26.000Z</time>
      </trkpt>
      <trkpt lat="45.83319" lon="4.71002">
        <ele>364.84695</ele>
        <time>2023-06-29T14:12:27.000Z</time>
      </trkpt>
      <trkpt lat="45.83322" lon="4.71001">
        <ele>364.78271</ele>
        <time>2023-06-29T14:12:28.000Z</time>
      </trkpt>
      <trkpt lat="45.83326" lon="4.71001">
        <ele>364.71738</ele>
        <time>2023-06-29T14:12:29.000Z</time>
      </trkpt>
      <trkpt lat="45.83329" lon="4.71001">
        <ele>364.69449</ele>
        <time>2023-06-29T14:12:30.000Z</time>
      </trkpt>
      <trkpt lat="45.83332" lon="4.71001">
        <ele>364.67651</ele>
        <time>2023-06-29T14:12:31.000Z</time>
      </trkpt>
      <trkpt lat="45.83336" lon="4.71">
        <ele>364.6452</ele>
        <time>2023-06-29T14:12:32.000Z</time>
      </trkpt>
      <trkpt lat="45.83339" lon="4.71">
        <ele>364.71027</ele>
        <time>2023-06-29T14:12:33.000Z</time>
      </trkpt>
      <trkpt lat="45.83343" lon="4.71">
        <ele>364.62158</ele>
        <time>2023-06-29T14:12:34.000Z</time>
      </trkpt>
      <trkpt lat="45.83346" lon="4.71">
        <ele>364.56403</ele>
        <time>2023-06-29T14:12:35.000Z</time>
      </trkpt>
      <trkpt lat="45.83349" lon="4.71">
        <ele>364.50302</ele>
        <time>2023-06-29T14:12:36.000Z</time>
      </trkpt>
      <trkpt lat="45.83353" lon="4.70999">
        <ele>364.42081</ele>
        <time>2023-06-29T14:12:37.000Z</time>
      </trkpt>
      <trkpt lat="45.83357" lon="4.70998">
        <ele>364.36154</ele>
        <time>2023-06-29T14:12:38.000Z</time>
      </trkpt>
      <trkpt lat="45.83361" lon="4.70997">
        <ele>364.29004</ele>
        <time>2023-06-29T14:12:39.000Z</time>
      </trkpt>
      <trkpt lat="45.83366" lon="4.70997">
        <ele>364.21021</ele>
        <time>2023-06-29T14:12:40.000Z</time>
      </trkpt>
      <trkpt lat="45.8337" lon="4.70995">
        <ele>364.15399</ele>
        <time>2023-06-29T14:12:41.000Z</time>
      </trkpt>
      <trkpt lat="45.83375" lon="4.70995">
        <ele>364.19141</ele>
        <time>2023-06-29T14:12:42.000Z</time>
      </trkpt>
      <trkpt lat="45.83379" lon="4.70994">
        <ele>364.2113</ele>
        <time>2023-06-29T14:12:43.000Z</time>
      </trkpt>
      <trkpt lat="45.83383" lon="4.70993">
        <ele>364.29959</ele>
        <time>2023-06-29T14:12:44.000Z</time>
      </trkpt>
      <trkpt lat="45.83387" lon="4.70993">
        <ele>364.37756</ele>
        <time>2023-06-29T14:12:45.000Z</time>
      </trkpt>
      <trkpt lat="45.83391" lon="4.70993">
        <ele>364.3876</ele>
        <time>2023-06-29T14:12:46.000Z</time>
      </trkpt>
      <trkpt lat="45.83395" lon="4.70992">
        <ele>364.39664</ele>
        <time>2023-06-29T14:12:47.000Z</time>
      </trkpt>
      <trkpt lat="45.83399" lon="4.7099">
        <ele>364.43161</ele>
        <time>2023-06-29T14:12:48.000Z</time>
      </trkpt>
      <trkpt lat="45.83403" lon="4.7099">
        <ele>364.38336</ele>
        <time>2023-06-29T14:12:49.000Z</time>
      </trkpt>
      <trkpt lat="45.83407" lon="4.7099">
        <ele>364.29266</ele>
        <time>2023-06-29T14:12:50.000Z</time>
      </trkpt>
      <trkpt lat="45.83411" lon="4.70989">
        <ele>364.19089</ele>
        <time>2023-06-29T14:12:51.000Z</time>
      </trkpt>
      <trkpt lat="45.83416" lon="4.70988">
        <ele>364.10745</ele>
        <time>2023-06-29T14:12:52.000Z</time>
      </trkpt>
      <trkpt lat="45.83421" lon="4.70989">
        <ele>364.00317</ele>
        <time>2023-06-29T14:12:53.000Z</time>
      </trkpt>
      <trkpt lat="45.83427" lon="4.70989">
        <ele>363.87775</ele>
        <time>2023-06-29T14:12:54.000Z</time>
      </trkpt>
      <trkpt lat="45.83433" lon="4.70989">
        <ele>363.69058</ele>
        <time>2023-06-29T14:12:55.000Z</time>
      </trkpt>
      <trkpt lat="45.83439" lon="4.70989">
        <ele>363.5036</ele>
        <time>2023-06-29T14:12:56.000Z</time>
      </trkpt>
      <trkpt lat="45.83445" lon="4.7099">
        <ele>363.31821</ele>
        <time>2023-06-29T14:12:57.000Z</time>
      </trkpt>
      <trkpt lat="45.83451" lon="4.70989">
        <ele>363.07578</ele>
        <time>2023-06-29T14:12:58.000Z</time>
      </trkpt>
      <trkpt lat="45.83458" lon="4.70989">
        <ele>362.8244</ele>
        <time>2023-06-29T14:12:59.000Z</time>
      </trkpt>
      <trkpt lat="45.83465" lon="4.7099">
        <ele>362.5643</ele>
        <time>2023-06-29T14:13:00.000Z</time>
      </trkpt>
      <trkpt lat="45.83471" lon="4.7099">
        <ele>362.36914</ele>
        <time>2023-06-29T14:13:01.000Z</time>
      </trkpt>
      <trkpt lat="45.83478" lon="4.70989">
        <ele>362.10376</ele>
        <time>2023-06-29T14:13:02.000Z</time>
      </trkpt>
      <trkpt lat="45.83484" lon="4.70989">
        <ele>361.86166</ele>
        <time>2023-06-29T14:13:03.000Z</time>
      </trkpt>
      <trkpt lat="45.83492" lon="4.70988">
        <ele>361.57477</ele>
        <time>2023-06-29T14:13:04.000Z</time>
      </trkpt>
      <trkpt lat="45.83498" lon="4.70988">
        <ele>361.27252</ele>
        <time>2023-06-29T14:13:05.000Z</time>
      </trkpt>
      <trkpt lat="45.83506" lon="4.70989">
        <ele>361.10278</ele>
        <time>2023-06-29T14:13:06.000Z</time>
      </trkpt>
      <trkpt lat="45.83513" lon="4.70992">
        <ele>360.91727</ele>
        <time>2023-06-29T14:13:07.000Z</time>
      </trkpt>
      <trkpt lat="45.83519" lon="4.70998">
        <ele>360.7218</ele>
        <time>2023-06-29T14:13:08.000Z</time>
      </trkpt>
      <trkpt lat="45.83524" lon="4.71004">
        <ele>360.25378</ele>
        <time>2023-06-29T14:13:09.000Z</time>
      </trkpt>
      <trkpt lat="45.8353" lon="4.71009">
        <ele>359.7789</ele>
        <time>2023-06-29T14:13:10.000Z</time>
      </trkpt>
      <trkpt lat="45.83536" lon="4.71013">
        <ele>359.33746</ele>
        <time>2023-06-29T14:13:11.000Z</time>
      </trkpt>
      <trkpt lat="45.83542" lon="4.71017">
        <ele>358.86206</ele>
        <time>2023-06-29T14:13:12.000Z</time>
      </trkpt>
      <trkpt lat="45.83547" lon="4.71022">
        <ele>358.38647</ele>
        <time>2023-06-29T14:13:13.000Z</time>
      </trkpt>
      <trkpt lat="45.83552" lon="4.71026">
        <ele>357.92685</ele>
        <time>2023-06-29T14:13:14.000Z</time>
      </trkpt>
      <trkpt lat="45.83557" lon="4.71031">
        <ele>357.4754</ele>
        <time>2023-06-29T14:13:15.000Z</time>
      </trkpt>
      <trkpt lat="45.83562" lon="4.71035">
        <ele>357.02658</ele>
        <time>2023-06-29T14:13:16.000Z</time>
      </trkpt>
      <trkpt lat="45.83568" lon="4.71038">
        <ele>356.58414</ele>
        <time>2023-06-29T14:13:17.000Z</time>
      </trkpt>
      <trkpt lat="45.83574" lon="4.71041">
        <ele>356.20102</ele>
        <time>2023-06-29T14:13:18.000Z</time>
      </trkpt>
      <trkpt lat="45.8358" lon="4.71044">
        <ele>355.85394</ele>
        <time>2023-06-29T14:13:19.000Z</time>
      </trkpt>
      <trkpt lat="45.83586" lon="4.71048">
        <ele>355.76169</ele>
        <time>2023-06-29T14:13:20.000Z</time>
      </trkpt>
      <trkpt lat="45.83593" lon="4.71052">
        <ele>355.58694</ele>
        <time>2023-06-29T14:13:21.000Z</time>
      </trkpt>
      <trkpt lat="45.83599" lon="4.71056">
        <ele>355.41968</ele>
        <time>2023-06-29T14:13:22.000Z</time>
      </trkpt>
      <trkpt lat="45.83604" lon="4.71061">
        <ele>355.24857</ele>
        <time>2023-06-29T14:13:23.000Z</time>
      </trkpt>
      <trkpt lat="45.8361" lon="4.71065">
        <ele>355.06754</ele>
        <time>2023-06-29T14:13:24.000Z</time>
      </trkpt>
      <trkpt lat="45.83616" lon="4.7107">
        <ele>354.89029</ele>
        <time>2023-06-29T14:13:25.000Z</time>
      </trkpt>
      <trkpt lat="45.83621" lon="4.71075">
        <ele>354.69485</ele>
        <time>2023-06-29T14:13:26.000Z</time>
      </trkpt>
      <trkpt lat="45.83626" lon="4.7108">
        <ele>354.47314</ele>
        <time>2023-06-29T14:13:27.000Z</time>
      </trkpt>
      <trkpt lat="45.83632" lon="4.71085">
        <ele>354.19644</ele>
        <time>2023-06-29T14:13:28.000Z</time>
      </trkpt>
      <trkpt lat="45.83637" lon="4.71089">
        <ele>354.28189</ele>
        <time>2023-06-29T14:13:29.000Z</time>
      </trkpt>
      <trkpt lat="45.83641" lon="4.71095">
        <ele>354.41446</ele>
        <time>2023-06-29T14:13:30.000Z</time>
      </trkpt>
      <trkpt lat="45.83646" lon="4.71101">
        <ele>354.52631</ele>
        <time>2023-06-29T14:13:31.000Z</time>
      </trkpt>
      <trkpt lat="45.83652" lon="4.71106">
        <ele>354.6608</ele>
        <time>2023-06-29T14:13:32.000Z</time>
      </trkpt>
      <trkpt lat="45.83658" lon="4.7111">
        <ele>354.77765</ele>
        <time>2023-06-29T14:13:33.000Z</time>
      </trkpt>
      <trkpt lat="45.83665" lon="4.71116">
        <ele>354.89911</ele>
        <time>2023-06-29T14:13:34.000Z</time>
      </trkpt>
      <trkpt lat="45.83671" lon="4.71121">
        <ele>355.01514</ele>
        <time>2023-06-29T14:13:35.000Z</time>
      </trkpt>
      <trkpt lat="45.83677" lon="4.71126">
        <ele>355.11957</ele>
        <time>2023-06-29T14:13:36.000Z</time>
      </trkpt>
      <trkpt lat="45.83683" lon="4.71133">
        <ele>355.26468</ele>
        <time>2023-06-29T14:13:37.000Z</time>
      </trkpt>
      <trkpt lat="45.8369" lon="4.71139">
        <ele>355.36398</ele>
        <time>2023-06-29T14:13:38.000Z</time>
      </trkpt>
      <trkpt lat="45.83695" lon="4.71144">
        <ele>355.42291</ele>
        <time>2023-06-29T14:13:39.000Z</time>
      </trkpt>
      <trkpt lat="45.83699" lon="4.7115">
        <ele>355.21655</ele>
        <time>2023-06-29T14:13:40.000Z</time>
      </trkpt>
      <trkpt lat="45.83699" lon="4.71157">
        <ele>355.00659</ele>
        <time>2023-06-29T14:13:41.000Z</time>
      </trkpt>
      <trkpt lat="45.83698" lon="4.71164">
        <ele>354.93048</ele>
        <time>2023-06-29T14:13:42.000Z</time>
      </trkpt>
      <trkpt lat="45.83696" lon="4.7117">
        <ele>354.66608</ele>
        <time>2023-06-29T14:13:43.000Z</time>
      </trkpt>
      <trkpt lat="45.83694" lon="4.71176">
        <ele>354.38031</ele>
        <time>2023-06-29T14:13:44.000Z</time>
      </trkpt>
      <trkpt lat="45.83692" lon="4.71182">
        <ele>354.0968</ele>
        <time>2023-06-29T14:13:45.000Z</time>
      </trkpt>
      <trkpt lat="45.8369" lon="4.71189">
        <ele>353.84561</ele>
        <time>2023-06-29T14:13:46.000Z</time>
      </trkpt>
      <trkpt lat="45.83687" lon="4.71195">
        <ele>353.61996</ele>
        <time>2023-06-29T14:13:47.000Z</time>
      </trkpt>
      <trkpt lat="45.83685" lon="4.71202">
        <ele>353.41983</ele>
        <time>2023-06-29T14:13:48.000Z</time>
      </trkpt>
      <trkpt lat="45.83684" lon="4.71209">
        <ele>353.2305</ele>
        <time>2023-06-29T14:13:49.000Z</time>
      </trkpt>
      <trkpt lat="45.83682" lon="4.71216">
        <ele>353.19009</ele>
        <time>2023-06-29T14:13:50.000Z</time>
      </trkpt>
      <trkpt lat="45.83681" lon="4.71223">
        <ele>352.98328</ele>
        <time>2023-06-29T14:13:51.000Z</time>
      </trkpt>
      <trkpt lat="45.83679" lon="4.7123">
        <ele>352.92523</ele>
        <time>2023-06-29T14:13:52.000Z</time>
      </trkpt>
      <trkpt lat="45.83677" lon="4.71237">
        <ele>352.892</ele>
        <time>2023-06-29T14:13:53.000Z</time>
      </trkpt>
      <trkpt lat="45.83675" lon="4.71245">
        <ele>352.86758</ele>
        <time>2023-06-29T14:13:54.000Z</time>
      </trkpt>
      <trkpt lat="45.83673" lon="4.71251">
        <ele>352.8743</ele>
        <time>2023-06-29T14:13:55.000Z</time>
      </trkpt>
      <trkpt lat="45.83673" lon="4.71259">
        <ele>352.88327</ele>
        <time>2023-06-29T14:13:56.000Z</time>
      </trkpt>
      <trkpt lat="45.83672" lon="4.71265">
        <ele>352.84927</ele>
        <time>2023-06-29T14:13:57.000Z</time>
      </trkpt>
      <trkpt lat="45.8367" lon="4.71272">
        <ele>352.82697</ele>
        <time>2023-06-29T14:13:58.000Z</time>
      </trkpt>
      <trkpt lat="45.8367" lon="4.71279">
        <ele>352.82541</ele>
        <time>2023-06-29T14:13:59.000Z</time>
      </trkpt>
      <trkpt lat="45.83668" lon="4.71286">
        <ele>352.83978</ele>
        <time>2023-06-29T14:14:00.000Z</time>
      </trkpt>
      <trkpt lat="45.83667" lon="4.71294">
        <ele>352.82355</ele>
        <time>2023-06-29T14:14:01.000Z</time>
      </trkpt>
      <trkpt lat="45.83666" lon="4.713">
        <ele>352.66721</ele>
        <time>2023-06-29T14:14:02.000Z</time>
      </trkpt>
      <trkpt lat="45.83664" lon="4.71307">
        <ele>352.79514</ele>
        <time>2023-06-29T14:14:03.000Z</time>
      </trkpt>
      <trkpt lat="45.83662" lon="4.71314">
        <ele>352.93625</ele>
        <time>2023-06-29T14:14:04.000Z</time>
      </trkpt>
      <trkpt lat="45.8366" lon="4.71321">
        <ele>352.82526</ele>
        <time>2023-06-29T14:14:05.000Z</time>
      </trkpt>
      <trkpt lat="45.83659" lon="4.71328">
        <ele>352.74561</ele>
        <time>2023-06-29T14:14:06.000Z</time>
      </trkpt>
      <trkpt lat="45.83657" lon="4.71335">
        <ele>352.67163</ele>
        <time>2023-06-29T14:14:07.000Z</time>
      </trkpt>
      <trkpt lat="45.83655" lon="4.71341">
        <ele>352.59015</ele>
        <time>2023-06-29T14:14:08.000Z</time>
      </trkpt>
      <trkpt lat="45.83653" lon="4.71348">
        <ele>352.48694</ele>
        <time>2023-06-29T14:14:09.000Z</time>
      </trkpt>
      <trkpt lat="45.83653" lon="4.71355">
        <ele>352.20294</ele>
        <time>2023-06-29T14:14:10.000Z</time>
      </trkpt>
      <trkpt lat="45.83652" lon="4.71362">
        <ele>352.09247</ele>
        <time>2023-06-29T14:14:11.000Z</time>
      </trkpt>
      <trkpt lat="45.8365" lon="4.7137">
        <ele>351.88132</ele>
        <time>2023-06-29T14:14:12.000Z</time>
      </trkpt>
      <trkpt lat="45.83649" lon="4.71376">
        <ele>351.70844</ele>
        <time>2023-06-29T14:14:13.000Z</time>
      </trkpt>
      <trkpt lat="45.83646" lon="4.71383">
        <ele>351.52655</ele>
        <time>2023-06-29T14:14:14.000Z</time>
      </trkpt>
      <trkpt lat="45.83645" lon="4.71391">
        <ele>351.34406</ele>
        <time>2023-06-29T14:14:15.000Z</time>
      </trkpt>
      <trkpt lat="45.83643" lon="4.71398">
        <ele>351.16318</ele>
        <time>2023-06-29T14:14:16.000Z</time>
      </trkpt>
      <trkpt lat="45.83641" lon="4.71406">
        <ele>351.01459</ele>
        <time>2023-06-29T14:14:17.000Z</time>
      </trkpt>
      <trkpt lat="45.83639" lon="4.71414">
        <ele>350.89252</ele>
        <time>2023-06-29T14:14:18.000Z</time>
      </trkpt>
      <trkpt lat="45.83638" lon="4.71422">
        <ele>350.77469</ele>
        <time>2023-06-29T14:14:19.000Z</time>
      </trkpt>
      <trkpt lat="45.83636" lon="4.71429">
        <ele>350.65338</ele>
        <time>2023-06-29T14:14:20.000Z</time>
      </trkpt>
      <trkpt lat="45.83634" lon="4.71437">
        <ele>350.55865</ele>
        <time>2023-06-29T14:14:21.000Z</time>
      </trkpt>
      <trkpt lat="45.83632" lon="4.71445">
        <ele>350.46985</ele>
        <time>2023-06-29T14:14:22.000Z</time>
      </trkpt>
      <trkpt lat="45.8363" lon="4.71453">
        <ele>350.30316</ele>
        <time>2023-06-29T14:14:23.000Z</time>
      </trkpt>
      <trkpt lat="45.83627" lon="4.71461">
        <ele>350.12335</ele>
        <time>2023-06-29T14:14:24.000Z</time>
      </trkpt>
      <trkpt lat="45.83623" lon="4.71468">
        <ele>350.19507</ele>
        <time>2023-06-29T14:14:25.000Z</time>
      </trkpt>
      <trkpt lat="45.8362" lon="4.71475">
        <ele>350.237</ele>
        <time>2023-06-29T14:14:26.000Z</time>
      </trkpt>
      <trkpt lat="45.83617" lon="4.71481">
        <ele>350.38385</ele>
        <time>2023-06-29T14:14:27.000Z</time>
      </trkpt>
      <trkpt lat="45.83613" lon="4.71487">
        <ele>350.62396</ele>
        <time>2023-06-29T14:14:28.000Z</time>
      </trkpt>
      <trkpt lat="45.83609" lon="4.71492">
        <ele>350.88074</ele>
        <time>2023-06-29T14:14:29.000Z</time>
      </trkpt>
      <trkpt lat="45.83609" lon="4.71497">
        <ele>350.89569</ele>
        <time>2023-06-29T14:14:30.000Z</time>
      </trkpt>
      <trkpt lat="45.83608" lon="4.71501">
        <ele>350.95889</ele>
        <time>2023-06-29T14:14:31.000Z</time>
      </trkpt>
      <trkpt lat="45.83613" lon="4.71509">
        <ele>351.01569</ele>
        <time>2023-06-29T14:14:32.000Z</time>
      </trkpt>
      <trkpt lat="45.83615" lon="4.71516">
        <ele>351.05136</ele>
        <time>2023-06-29T14:14:33.000Z</time>
      </trkpt>
      <trkpt lat="45.83619" lon="4.71522">
        <ele>351.0661</ele>
        <time>2023-06-29T14:14:34.000Z</time>
      </trkpt>
      <trkpt lat="45.83621" lon="4.7153">
        <ele>351.19696</ele>
        <time>2023-06-29T14:14:35.000Z</time>
      </trkpt>
      <trkpt lat="45.83624" lon="4.71538">
        <ele>351.40823</ele>
        <time>2023-06-29T14:14:36.000Z</time>
      </trkpt>
      <trkpt lat="45.83623" lon="4.71545">
        <ele>351.5929</ele>
        <time>2023-06-29T14:14:37.000Z</time>
      </trkpt>
      <trkpt lat="45.83622" lon="4.71553">
        <ele>351.4942</ele>
        <time>2023-06-29T14:14:38.000Z</time>
      </trkpt>
      <trkpt lat="45.83622" lon="4.71558">
        <ele>351.40811</ele>
        <time>2023-06-29T14:14:39.000Z</time>
      </trkpt>
      <trkpt lat="45.8362" lon="4.71566">
        <ele>351.25702</ele>
        <time>2023-06-29T14:14:40.000Z</time>
      </trkpt>
      <trkpt lat="45.8362" lon="4.71572">
        <ele>351.07196</ele>
        <time>2023-06-29T14:14:41.000Z</time>
      </trkpt>
      <trkpt lat="45.83619" lon="4.71578">
        <ele>350.85492</ele>
        <time>2023-06-29T14:14:42.000Z</time>
      </trkpt>
      <trkpt lat="45.8362" lon="4.71583">
        <ele>350.59671</ele>
        <time>2023-06-29T14:14:43.000Z</time>
      </trkpt>
      <trkpt lat="45.8362" lon="4.71586">
        <ele>350.31833</ele>
        <time>2023-06-29T14:14:44.000Z</time>
      </trkpt>
      <trkpt lat="45.83621" lon="4.71589">
        <ele>350.01648</ele>
        <time>2023-06-29T14:14:45.000Z</time>
      </trkpt>
      <trkpt lat="45.83622" lon="4.71592">
        <ele>349.69174</ele>
        <time>2023-06-29T14:14:46.000Z</time>
      </trkpt>
      <trkpt lat="45.83623" lon="4.71596">
        <ele>349.21277</ele>
        <time>2023-06-29T14:14:47.000Z</time>
      </trkpt>
      <trkpt lat="45.83624" lon="4.71602">
        <ele>348.646</ele>
        <time>2023-06-29T14:14:48.000Z</time>
      </trkpt>
      <trkpt lat="45.83624" lon="4.71609">
        <ele>348.04254</ele>
        <time>2023-06-29T14:14:49.000Z</time>
      </trkpt>
      <trkpt lat="45.83626" lon="4.71616">
        <ele>347.61414</ele>
        <time>2023-06-29T14:14:50.000Z</time>
      </trkpt>
      <trkpt lat="45.83627" lon="4.71623">
        <ele>347.07208</ele>
        <time>2023-06-29T14:14:51.000Z</time>
      </trkpt>
      <trkpt lat="45.8363" lon="4.71629">
        <ele>346.48404</ele>
        <time>2023-06-29T14:14:52.000Z</time>
      </trkpt>
      <trkpt lat="45.83633" lon="4.71636">
        <ele>345.86453</ele>
        <time>2023-06-29T14:14:53.000Z</time>
      </trkpt>
      <trkpt lat="45.83637" lon="4.7164">
        <ele>345.22736</ele>
        <time>2023-06-29T14:14:54.000Z</time>
      </trkpt>
      <trkpt lat="45.83641" lon="4.71645">
        <ele>344.44226</ele>
        <time>2023-06-29T14:14:55.000Z</time>
      </trkpt>
      <trkpt lat="45.83646" lon="4.71649">
        <ele>343.55029</ele>
        <time>2023-06-29T14:14:56.000Z</time>
      </trkpt>
      <trkpt lat="45.83653" lon="4.71652">
        <ele>342.83466</ele>
        <time>2023-06-29T14:14:57.000Z</time>
      </trkpt>
      <trkpt lat="45.8366" lon="4.71653">
        <ele>342.50922</ele>
        <time>2023-06-29T14:14:58.000Z</time>
      </trkpt>
      <trkpt lat="45.83666" lon="4.71654">
        <ele>342.16434</ele>
        <time>2023-06-29T14:14:59.000Z</time>
      </trkpt>
      <trkpt lat="45.83673" lon="4.71655">
        <ele>341.43155</ele>
        <time>2023-06-29T14:15:00.000Z</time>
      </trkpt>
      <trkpt lat="45.83679" lon="4.71653">
        <ele>340.81201</ele>
        <time>2023-06-29T14:15:01.000Z</time>
      </trkpt>
      <trkpt lat="45.83685" lon="4.71652">
        <ele>340.21674</ele>
        <time>2023-06-29T14:15:02.000Z</time>
      </trkpt>
      <trkpt lat="45.83693" lon="4.71651">
        <ele>339.62238</ele>
        <time>2023-06-29T14:15:03.000Z</time>
      </trkpt>
      <trkpt lat="45.83696" lon="4.71651">
        <ele>338.95734</ele>
        <time>2023-06-29T14:15:04.000Z</time>
      </trkpt>
      <trkpt lat="45.83701" lon="4.71652">
        <ele>338.3353</ele>
        <time>2023-06-29T14:15:05.000Z</time>
      </trkpt>
      <trkpt lat="45.83705" lon="4.71656">
        <ele>337.70474</ele>
        <time>2023-06-29T14:15:06.000Z</time>
      </trkpt>
      <trkpt lat="45.83707" lon="4.71662">
        <ele>337.09003</ele>
        <time>2023-06-29T14:15:07.000Z</time>
      </trkpt>
      <trkpt lat="45.8371" lon="4.71668">
        <ele>336.85162</ele>
        <time>2023-06-29T14:15:08.000Z</time>
      </trkpt>
      <trkpt lat="45.83713" lon="4.71674">
        <ele>336.24701</ele>
        <time>2023-06-29T14:15:09.000Z</time>
      </trkpt>
      <trkpt lat="45.83717" lon="4.71681">
        <ele>335.71555</ele>
        <time>2023-06-29T14:15:10.000Z</time>
      </trkpt>
      <trkpt lat="45.83721" lon="4.71688">
        <ele>335.25189</ele>
        <time>2023-06-29T14:15:11.000Z</time>
      </trkpt>
      <trkpt lat="45.83724" lon="4.71691">
        <ele>334.78436</ele>
        <time>2023-06-29T14:15:12.000Z</time>
      </trkpt>
      <trkpt lat="45.83729" lon="4.71692">
        <ele>334.36972</ele>
        <time>2023-06-29T14:15:13.000Z</time>
      </trkpt>
      <trkpt lat="45.83735" lon="4.71693">
        <ele>333.9523</ele>
        <time>2023-06-29T14:15:14.000Z</time>
      </trkpt>
      <trkpt lat="45.83738" lon="4.71693">
        <ele>333.65973</ele>
        <time>2023-06-29T14:15:15.000Z</time>
      </trkpt>
      <trkpt lat="45.83742" lon="4.71694">
        <ele>333.00897</ele>
        <time>2023-06-29T14:15:16.000Z</time>
      </trkpt>
      <trkpt lat="45.83745" lon="4.71696">
        <ele>332.26984</ele>
        <time>2023-06-29T14:15:17.000Z</time>
      </trkpt>
      <trkpt lat="45.83748" lon="4.71697">
        <ele>331.43646</ele>
        <time>2023-06-29T14:15:18.000Z</time>
      </trkpt>
      <trkpt lat="45.83751" lon="4.71696">
        <ele>330.61182</ele>
        <time>2023-06-29T14:15:19.000Z</time>
      </trkpt>
      <trkpt lat="45.83754" lon="4.71696">
        <ele>330.28302</ele>
        <time>2023-06-29T14:15:20.000Z</time>
      </trkpt>
      <trkpt lat="45.83756" lon="4.71695">
        <ele>329.88348</ele>
        <time>2023-06-29T14:15:21.000Z</time>
      </trkpt>
      <trkpt lat="45.83758" lon="4.71695">
        <ele>329.49622</ele>
        <time>2023-06-29T14:15:22.000Z</time>
      </trkpt>
      <trkpt lat="45.83761" lon="4.71696">
        <ele>329.16931</ele>
        <time>2023-06-29T14:15:23.000Z</time>
      </trkpt>
      <trkpt lat="45.83763" lon="4.71695">
        <ele>328.95041</ele>
        <time>2023-06-29T14:15:24.000Z</time>
      </trkpt>
      <trkpt lat="45.83766" lon="4.71695">
        <ele>328.76859</ele>
        <time>2023-06-29T14:15:25.000Z</time>
      </trkpt>
      <trkpt lat="45.83768" lon="4.71696">
        <ele>328.58844</ele>
        <time>2023-06-29T14:15:26.000Z</time>
      </trkpt>
      <trkpt lat="45.83771" lon="4.71696">
        <ele>328.42126</ele>
        <time>2023-06-29T14:15:27.000Z</time>
      </trkpt>
      <trkpt lat="45.83774" lon="4.71697">
        <ele>328.05573</ele>
        <time>2023-06-29T14:15:28.000Z</time>
      </trkpt>
      <trkpt lat="45.83777" lon="4.71697">
        <ele>328.24045</ele>
        <time>2023-06-29T14:15:29.000Z</time>
      </trkpt>
      <trkpt lat="45.8378" lon="4.71698">
        <ele>328.10562</ele>
        <time>2023-06-29T14:15:30.000Z</time>
      </trkpt>
      <trkpt lat="45.83783" lon="4.71699">
        <ele>328.0191</ele>
        <time>2023-06-29T14:15:31.000Z</time>
      </trkpt>
      <trkpt lat="45.83785" lon="4.71699">
        <ele>327.99005</ele>
        <time>2023-06-29T14:15:32.000Z</time>
      </trkpt>
      <trkpt lat="45.83787" lon="4.717">
        <ele>327.90915</ele>
        <time>2023-06-29T14:15:33.000Z</time>
      </trkpt>
      <trkpt lat="45.8379" lon="4.71701">
        <ele>327.92007</ele>
        <time>2023-06-29T14:15:34.000Z</time>
      </trkpt>
      <trkpt lat="45.83793" lon="4.71702">
        <ele>327.86505</ele>
        <time>2023-06-29T14:15:35.000Z</time>
      </trkpt>
      <trkpt lat="45.83795" lon="4.71702">
        <ele>328.24985</ele>
        <time>2023-06-29T14:15:36.000Z</time>
      </trkpt>
      <trkpt lat="45.83798" lon="4.71704">
        <ele>328.5015</ele>
        <time>2023-06-29T14:15:37.000Z</time>
      </trkpt>
      <trkpt lat="45.83801" lon="4.71705">
        <ele>328.75305</ele>
        <time>2023-06-29T14:15:38.000Z</time>
      </trkpt>
      <trkpt lat="45.83804" lon="4.71706">
        <ele>328.96906</ele>
        <time>2023-06-29T14:15:39.000Z</time>
      </trkpt>
      <trkpt lat="45.83807" lon="4.71707">
        <ele>329.17572</ele>
        <time>2023-06-29T14:15:40.000Z</time>
      </trkpt>
      <trkpt lat="45.83811" lon="4.71708">
        <ele>329.43683</ele>
        <time>2023-06-29T14:15:41.000Z</time>
      </trkpt>
      <trkpt lat="45.83813" lon="4.7171">
        <ele>330.15341</ele>
        <time>2023-06-29T14:15:42.000Z</time>
      </trkpt>
      <trkpt lat="45.83816" lon="4.71711">
        <ele>330.55081</ele>
        <time>2023-06-29T14:15:43.000Z</time>
      </trkpt>
      <trkpt lat="45.83819" lon="4.71713">
        <ele>330.93506</ele>
        <time>2023-06-29T14:15:44.000Z</time>
      </trkpt>
      <trkpt lat="45.83822" lon="4.71714">
        <ele>331.27753</ele>
        <time>2023-06-29T14:15:45.000Z</time>
      </trkpt>
      <trkpt lat="45.83825" lon="4.71715">
        <ele>331.59274</ele>
        <time>2023-06-29T14:15:46.000Z</time>
      </trkpt>
      <trkpt lat="45.83828" lon="4.71716">
        <ele>331.93756</ele>
        <time>2023-06-29T14:15:47.000Z</time>
      </trkpt>
      <trkpt lat="45.83831" lon="4.71717">
        <ele>332.12637</ele>
        <time>2023-06-29T14:15:48.000Z</time>
      </trkpt>
      <trkpt lat="45.83834" lon="4.71718">
        <ele>332.17938</ele>
        <time>2023-06-29T14:15:49.000Z</time>
      </trkpt>
      <trkpt lat="45.83838" lon="4.7172">
        <ele>332.56677</ele>
        <time>2023-06-29T14:15:50.000Z</time>
      </trkpt>
      <trkpt lat="45.83842" lon="4.7172">
        <ele>332.89761</ele>
        <time>2023-06-29T14:15:51.000Z</time>
      </trkpt>
      <trkpt lat="45.83845" lon="4.71721">
        <ele>333.22186</ele>
        <time>2023-06-29T14:15:52.000Z</time>
      </trkpt>
      <trkpt lat="45.83849" lon="4.71722">
        <ele>333.79651</ele>
        <time>2023-06-29T14:15:53.000Z</time>
      </trkpt>
      <trkpt lat="45.83852" lon="4.71723">
        <ele>334.33099</ele>
        <time>2023-06-29T14:15:54.000Z</time>
      </trkpt>
      <trkpt lat="45.83856" lon="4.71724">
        <ele>334.99841</ele>
        <time>2023-06-29T14:15:55.000Z</time>
      </trkpt>
      <trkpt lat="45.83859" lon="4.71726">
        <ele>335.20166</ele>
        <time>2023-06-29T14:15:56.000Z</time>
      </trkpt>
      <trkpt lat="45.83863" lon="4.71727">
        <ele>335.5502</ele>
        <time>2023-06-29T14:15:57.000Z</time>
      </trkpt>
      <trkpt lat="45.83866" lon="4.71727">
        <ele>335.86334</ele>
        <time>2023-06-29T14:15:58.000Z</time>
      </trkpt>
      <trkpt lat="45.83869" lon="4.71728">
        <ele>336.2099</ele>
        <time>2023-06-29T14:15:59.000Z</time>
      </trkpt>
      <trkpt lat="45.83872" lon="4.71728">
        <ele>336.5441</ele>
        <time>2023-06-29T14:16:00.000Z</time>
      </trkpt>
      <trkpt lat="45.83876" lon="4.7173">
        <ele>336.79169</ele>
        <time>2023-06-29T14:16:01.000Z</time>
      </trkpt>
      <trkpt lat="45.8388" lon="4.71731">
        <ele>336.60895</ele>
        <time>2023-06-29T14:16:02.000Z</time>
      </trkpt>
      <trkpt lat="45.83884" lon="4.71733">
        <ele>336.93491</ele>
        <time>2023-06-29T14:16:03.000Z</time>
      </trkpt>
      <trkpt lat="45.83887" lon="4.71735">
        <ele>337.28284</ele>
        <time>2023-06-29T14:16:04.000Z</time>
      </trkpt>
      <trkpt lat="45.8389" lon="4.71736">
        <ele>337.64651</ele>
        <time>2023-06-29T14:16:05.000Z</time>
      </trkpt>
      <trkpt lat="45.83893" lon="4.71738">
        <ele>338.09726</ele>
        <time>2023-06-29T14:16:06.000Z</time>
      </trkpt>
      <trkpt lat="45.83896" lon="4.71739">
        <ele>338.52222</ele>
        <time>2023-06-29T14:16:07.000Z</time>
      </trkpt>
      <trkpt lat="45.83899" lon="4.71741">
        <ele>338.90552</ele>
        <time>2023-06-29T14:16:08.000Z</time>
      </trkpt>
      <trkpt lat="45.83902" lon="4.71743">
        <ele>339.41144</ele>
        <time>2023-06-29T14:16:09.000Z</time>
      </trkpt>
      <trkpt lat="45.83905" lon="4.71745">
        <ele>339.53116</ele>
        <time>2023-06-29T14:16:10.000Z</time>
      </trkpt>
      <trkpt lat="45.83908" lon="4.71746">
        <ele>339.70563</ele>
        <time>2023-06-29T14:16:11.000Z</time>
      </trkpt>
      <trkpt lat="45.83911" lon="4.71747">
        <ele>339.9068</ele>
        <time>2023-06-29T14:16:12.000Z</time>
      </trkpt>
      <trkpt lat="45.83914" lon="4.71749">
        <ele>339.90167</ele>
        <time>2023-06-29T14:16:13.000Z</time>
      </trkpt>
      <trkpt lat="45.83918" lon="4.7175">
        <ele>339.90619</ele>
        <time>2023-06-29T14:16:14.000Z</time>
      </trkpt>
      <trkpt lat="45.83921" lon="4.71751">
        <ele>339.73724</ele>
        <time>2023-06-29T14:16:15.000Z</time>
      </trkpt>
      <trkpt lat="45.83925" lon="4.71752">
        <ele>340.00507</ele>
        <time>2023-06-29T14:16:16.000Z</time>
      </trkpt>
      <trkpt lat="45.83929" lon="4.71754">
        <ele>340.16534</ele>
        <time>2023-06-29T14:16:17.000Z</time>
      </trkpt>
      <trkpt lat="45.83932" lon="4.71756">
        <ele>340.32529</ele>
        <time>2023-06-29T14:16:18.000Z</time>
      </trkpt>
      <trkpt lat="45.83936" lon="4.71758">
        <ele>340.54169</ele>
        <time>2023-06-29T14:16:19.000Z</time>
      </trkpt>
      <trkpt lat="45.8394" lon="4.7176">
        <ele>340.74884</ele>
        <time>2023-06-29T14:16:20.000Z</time>
      </trkpt>
      <trkpt lat="45.83943" lon="4.71763">
        <ele>340.99658</ele>
        <time>2023-06-29T14:16:21.000Z</time>
      </trkpt>
      <trkpt lat="45.83946" lon="4.71767">
        <ele>341.20038</ele>
        <time>2023-06-29T14:16:22.000Z</time>
      </trkpt>
      <trkpt lat="45.83948" lon="4.71771">
        <ele>341.15961</ele>
        <time>2023-06-29T14:16:23.000Z</time>
      </trkpt>
      <trkpt lat="45.8395" lon="4.71776">
        <ele>341.09012</ele>
        <time>2023-06-29T14:16:24.000Z</time>
      </trkpt>
      <trkpt lat="45.83951" lon="4.7178">
        <ele>341.00555</ele>
        <time>2023-06-29T14:16:25.000Z</time>
      </trkpt>
      <trkpt lat="45.83952" lon="4.71785">
        <ele>341.06506</ele>
        <time>2023-06-29T14:16:26.000Z</time>
      </trkpt>
      <trkpt lat="45.83953" lon="4.7179">
        <ele>341.12372</ele>
        <time>2023-06-29T14:16:27.000Z</time>
      </trkpt>
      <trkpt lat="45.83953" lon="4.71795">
        <ele>341.18097</ele>
        <time>2023-06-29T14:16:28.000Z</time>
      </trkpt>
      <trkpt lat="45.83954" lon="4.718">
        <ele>341.10815</ele>
        <time>2023-06-29T14:16:29.000Z</time>
      </trkpt>
      <trkpt lat="45.83955" lon="4.71804">
        <ele>341.5246</ele>
        <time>2023-06-29T14:16:30.000Z</time>
      </trkpt>
      <trkpt lat="45.83955" lon="4.71809">
        <ele>341.52197</ele>
        <time>2023-06-29T14:16:31.000Z</time>
      </trkpt>
      <trkpt lat="45.83957" lon="4.71815">
        <ele>341.5329</ele>
        <time>2023-06-29T14:16:32.000Z</time>
      </trkpt>
      <trkpt lat="45.8396" lon="4.7182">
        <ele>341.51913</ele>
        <time>2023-06-29T14:16:33.000Z</time>
      </trkpt>
      <trkpt lat="45.83963" lon="4.71825">
        <ele>341.50165</ele>
        <time>2023-06-29T14:16:34.000Z</time>
      </trkpt>
      <trkpt lat="45.83966" lon="4.71829">
        <ele>341.49969</ele>
        <time>2023-06-29T14:16:35.000Z</time>
      </trkpt>
      <trkpt lat="45.8397" lon="4.71833">
        <ele>341.48776</ele>
        <time>2023-06-29T14:16:36.000Z</time>
      </trkpt>
      <trkpt lat="45.83973" lon="4.71837">
        <ele>341.50293</ele>
        <time>2023-06-29T14:16:37.000Z</time>
      </trkpt>
      <trkpt lat="45.83977" lon="4.71842">
        <ele>341.55963</ele>
        <time>2023-06-29T14:16:38.000Z</time>
      </trkpt>
      <trkpt lat="45.83979" lon="4.71847">
        <ele>341.7298</ele>
        <time>2023-06-29T14:16:39.000Z</time>
      </trkpt>
      <trkpt lat="45.83982" lon="4.71851">
        <ele>341.91006</ele>
        <time>2023-06-29T14:16:40.000Z</time>
      </trkpt>
      <trkpt lat="45.83985" lon="4.71856">
        <ele>342.09552</ele>
        <time>2023-06-29T14:16:41.000Z</time>
      </trkpt>
      <trkpt lat="45.83987" lon="4.71861">
        <ele>342.30246</ele>
        <time>2023-06-29T14:16:42.000Z</time>
      </trkpt>
      <trkpt lat="45.8399" lon="4.71865">
        <ele>342.50958</ele>
        <time>2023-06-29T14:16:43.000Z</time>
      </trkpt>
      <trkpt lat="45.83992" lon="4.71868">
        <ele>342.73392</ele>
        <time>2023-06-29T14:16:44.000Z</time>
      </trkpt>
      <trkpt lat="45.83995" lon="4.71873">
        <ele>342.92664</ele>
        <time>2023-06-29T14:16:45.000Z</time>
      </trkpt>
      <trkpt lat="45.83999" lon="4.71877">
        <ele>343.08051</ele>
        <time>2023-06-29T14:16:46.000Z</time>
      </trkpt>
      <trkpt lat="45.84002" lon="4.71881">
        <ele>342.85355</ele>
        <time>2023-06-29T14:16:47.000Z</time>
      </trkpt>
      <trkpt lat="45.84005" lon="4.71886">
        <ele>342.70847</ele>
        <time>2023-06-29T14:16:48.000Z</time>
      </trkpt>
      <trkpt lat="45.84007" lon="4.7189">
        <ele>342.54523</ele>
        <time>2023-06-29T14:16:49.000Z</time>
      </trkpt>
      <trkpt lat="45.84007" lon="4.71898">
        <ele>342.27356</ele>
        <time>2023-06-29T14:16:50.000Z</time>
      </trkpt>
      <trkpt lat="45.84008" lon="4.71906">
        <ele>342.32596</ele>
        <time>2023-06-29T14:16:51.000Z</time>
      </trkpt>
      <trkpt lat="45.84008" lon="4.71913">
        <ele>342.3031</ele>
        <time>2023-06-29T14:16:52.000Z</time>
      </trkpt>
      <trkpt lat="45.84008" lon="4.7192">
        <ele>342.29782</ele>
        <time>2023-06-29T14:16:53.000Z</time>
      </trkpt>
      <trkpt lat="45.84009" lon="4.7193">
        <ele>342.50366</ele>
        <time>2023-06-29T14:16:54.000Z</time>
      </trkpt>
      <trkpt lat="45.84009" lon="4.7194">
        <ele>342.76456</ele>
        <time>2023-06-29T14:16:55.000Z</time>
      </trkpt>
      <trkpt lat="45.8401" lon="4.71949">
        <ele>342.99847</ele>
        <time>2023-06-29T14:16:56.000Z</time>
      </trkpt>
      <trkpt lat="45.84011" lon="4.7196">
        <ele>343.25958</ele>
        <time>2023-06-29T14:16:57.000Z</time>
      </trkpt>
      <trkpt lat="45.84012" lon="4.71971">
        <ele>343.04254</ele>
        <time>2023-06-29T14:16:58.000Z</time>
      </trkpt>
      <trkpt lat="45.84013" lon="4.71982">
        <ele>342.70621</ele>
        <time>2023-06-29T14:16:59.000Z</time>
      </trkpt>
      <trkpt lat="45.84013" lon="4.71993">
        <ele>342.33624</ele>
        <time>2023-06-29T14:17:00.000Z</time>
      </trkpt>
      <trkpt lat="45.84014" lon="4.72004">
        <ele>341.92319</ele>
        <time>2023-06-29T14:17:01.000Z</time>
      </trkpt>
      <trkpt lat="45.84013" lon="4.72015">
        <ele>341.46338</ele>
        <time>2023-06-29T14:17:02.000Z</time>
      </trkpt>
      <trkpt lat="45.84013" lon="4.72027">
        <ele>341.03082</ele>
        <time>2023-06-29T14:17:03.000Z</time>
      </trkpt>
      <trkpt lat="45.84014" lon="4.72037">
        <ele>340.54645</ele>
        <time>2023-06-29T14:17:04.000Z</time>
      </trkpt>
      <trkpt lat="45.84015" lon="4.72049">
        <ele>340.12225</ele>
        <time>2023-06-29T14:17:05.000Z</time>
      </trkpt>
      <trkpt lat="45.84016" lon="4.7206">
        <ele>339.54352</ele>
        <time>2023-06-29T14:17:06.000Z</time>
      </trkpt>
      <trkpt lat="45.84017" lon="4.7207">
        <ele>339.30902</ele>
        <time>2023-06-29T14:17:07.000Z</time>
      </trkpt>
      <trkpt lat="45.84018" lon="4.7208">
        <ele>339.01093</ele>
        <time>2023-06-29T14:17:08.000Z</time>
      </trkpt>
      <trkpt lat="45.84019" lon="4.72089">
        <ele>338.94284</ele>
        <time>2023-06-29T14:17:09.000Z</time>
      </trkpt>
      <trkpt lat="45.84021" lon="4.72099">
        <ele>337.98343</ele>
        <time>2023-06-29T14:17:10.000Z</time>
      </trkpt>
      <trkpt lat="45.84021" lon="4.72109">
        <ele>337.06833</ele>
        <time>2023-06-29T14:17:11.000Z</time>
      </trkpt>
      <trkpt lat="45.84022" lon="4.72118">
        <ele>336.1575</ele>
        <time>2023-06-29T14:17:12.000Z</time>
      </trkpt>
      <trkpt lat="45.84022" lon="4.72127">
        <ele>335.25482</ele>
        <time>2023-06-29T14:17:13.000Z</time>
      </trkpt>
      <trkpt lat="45.84023" lon="4.72136">
        <ele>334.13165</ele>
        <time>2023-06-29T14:17:14.000Z</time>
      </trkpt>
      <trkpt lat="45.84023" lon="4.72143">
        <ele>332.98087</ele>
        <time>2023-06-29T14:17:15.000Z</time>
      </trkpt>
      <trkpt lat="45.84023" lon="4.72151">
        <ele>331.87146</ele>
        <time>2023-06-29T14:17:16.000Z</time>
      </trkpt>
      <trkpt lat="45.84021" lon="4.72157">
        <ele>330.737</ele>
        <time>2023-06-29T14:17:17.000Z</time>
      </trkpt>
      <trkpt lat="45.84019" lon="4.72163">
        <ele>330.05106</ele>
        <time>2023-06-29T14:17:18.000Z</time>
      </trkpt>
      <trkpt lat="45.84014" lon="4.72166">
        <ele>329.31866</ele>
        <time>2023-06-29T14:17:19.000Z</time>
      </trkpt>
      <trkpt lat="45.84008" lon="4.72167">
        <ele>328.60278</ele>
        <time>2023-06-29T14:17:20.000Z</time>
      </trkpt>
      <trkpt lat="45.84003" lon="4.72168">
        <ele>327.9097</ele>
        <time>2023-06-29T14:17:21.000Z</time>
      </trkpt>
      <trkpt lat="45.83998" lon="4.72168">
        <ele>327.25888</ele>
        <time>2023-06-29T14:17:22.000Z</time>
      </trkpt>
      <trkpt lat="45.83993" lon="4.72168">
        <ele>327.48218</ele>
        <time>2023-06-29T14:17:23.000Z</time>
      </trkpt>
      <trkpt lat="45.83989" lon="4.72168">
        <ele>327.77185</ele>
        <time>2023-06-29T14:17:24.000Z</time>
      </trkpt>
      <trkpt lat="45.83983" lon="4.72167">
        <ele>328.01202</ele>
        <time>2023-06-29T14:17:25.000Z</time>
      </trkpt>
      <trkpt lat="45.83978" lon="4.72165">
        <ele>328.26297</ele>
        <time>2023-06-29T14:17:26.000Z</time>
      </trkpt>
      <trkpt lat="45.83973" lon="4.72163">
        <ele>328.5444</ele>
        <time>2023-06-29T14:17:27.000Z</time>
      </trkpt>
      <trkpt lat="45.83968" lon="4.72162">
        <ele>328.83273</ele>
        <time>2023-06-29T14:17:28.000Z</time>
      </trkpt>
      <trkpt lat="45.83963" lon="4.72162">
        <ele>329.06152</ele>
        <time>2023-06-29T14:17:29.000Z</time>
      </trkpt>
      <trkpt lat="45.83959" lon="4.72162">
        <ele>329.70807</ele>
        <time>2023-06-29T14:17:30.000Z</time>
      </trkpt>
      <trkpt lat="45.83954" lon="4.72161">
        <ele>330.43365</ele>
        <time>2023-06-29T14:17:31.000Z</time>
      </trkpt>
      <trkpt lat="45.8395" lon="4.72161">
        <ele>331.16986</ele>
        <time>2023-06-29T14:17:32.000Z</time>
      </trkpt>
      <trkpt lat="45.83946" lon="4.72161">
        <ele>331.90567</ele>
        <time>2023-06-29T14:17:33.000Z</time>
      </trkpt>
      <trkpt lat="45.83943" lon="4.7216">
        <ele>332.6373</ele>
        <time>2023-06-29T14:17:34.000Z</time>
      </trkpt>
      <trkpt lat="45.83941" lon="4.72158">
        <ele>333.35782</ele>
        <time>2023-06-29T14:17:35.000Z</time>
      </trkpt>
      <trkpt lat="45.83938" lon="4.72158">
        <ele>334.06577</ele>
        <time>2023-06-29T14:17:36.000Z</time>
      </trkpt>
      <trkpt lat="45.83935" lon="4.72159">
        <ele>334.76254</ele>
        <time>2023-06-29T14:17:37.000Z</time>
      </trkpt>
      <trkpt lat="45.83934" lon="4.72162">
        <ele>335.66913</ele>
        <time>2023-06-29T14:17:38.000Z</time>
      </trkpt>
      <trkpt lat="45.83935" lon="4.72165">
        <ele>336.65842</ele>
        <time>2023-06-29T14:17:39.000Z</time>
      </trkpt>
      <trkpt lat="45.83937" lon="4.72168">
        <ele>337.71356</ele>
        <time>2023-06-29T14:17:40.000Z</time>
      </trkpt>
      <trkpt lat="45.8394" lon="4.72172">
        <ele>338.37778</ele>
        <time>2023-06-29T14:17:41.000Z</time>
      </trkpt>
      <trkpt lat="45.83943" lon="4.72175">
        <ele>339.11243</ele>
        <time>2023-06-29T14:17:42.000Z</time>
      </trkpt>
      <trkpt lat="45.83946" lon="4.72179">
        <ele>338.94781</ele>
        <time>2023-06-29T14:17:43.000Z</time>
      </trkpt>
      <trkpt lat="45.83949" lon="4.72183">
        <ele>338.75266</ele>
        <time>2023-06-29T14:17:44.000Z</time>
      </trkpt>
      <trkpt lat="45.83952" lon="4.72188">
        <ele>338.56345</ele>
        <time>2023-06-29T14:17:45.000Z</time>
      </trkpt>
      <trkpt lat="45.83954" lon="4.72193">
        <ele>338.37759</ele>
        <time>2023-06-29T14:17:46.000Z</time>
      </trkpt>
      <trkpt lat="45.83957" lon="4.72199">
        <ele>338.15625</ele>
        <time>2023-06-29T14:17:47.000Z</time>
      </trkpt>
      <trkpt lat="45.8396" lon="4.72204">
        <ele>337.94894</ele>
        <time>2023-06-29T14:17:48.000Z</time>
      </trkpt>
      <trkpt lat="45.83963" lon="4.7221">
        <ele>337.61145</ele>
        <time>2023-06-29T14:17:49.000Z</time>
      </trkpt>
      <trkpt lat="45.83965" lon="4.72215">
        <ele>337.71155</ele>
        <time>2023-06-29T14:17:50.000Z</time>
      </trkpt>
      <trkpt lat="45.83968" lon="4.7222">
        <ele>337.73044</ele>
        <time>2023-06-29T14:17:51.000Z</time>
      </trkpt>
      <trkpt lat="45.83971" lon="4.72226">
        <ele>337.72784</ele>
        <time>2023-06-29T14:17:52.000Z</time>
      </trkpt>
      <trkpt lat="45.83974" lon="4.72231">
        <ele>337.69806</ele>
        <time>2023-06-29T14:17:53.000Z</time>
      </trkpt>
      <trkpt lat="45.83976" lon="4.72237">
        <ele>337.65433</ele>
        <time>2023-06-29T14:17:54.000Z</time>
      </trkpt>
      <trkpt lat="45.83979" lon="4.72243">
        <ele>337.57819</ele>
        <time>2023-06-29T14:17:55.000Z</time>
      </trkpt>
      <trkpt lat="45.83982" lon="4.72248">
        <ele>337.00909</ele>
        <time>2023-06-29T14:17:56.000Z</time>
      </trkpt>
      <trkpt lat="45.83985" lon="4.72254">
        <ele>336.50046</ele>
        <time>2023-06-29T14:17:57.000Z</time>
      </trkpt>
      <trkpt lat="45.83988" lon="4.72261">
        <ele>335.78305</ele>
        <time>2023-06-29T14:17:58.000Z</time>
      </trkpt>
      <trkpt lat="45.83991" lon="4.72266">
        <ele>334.82996</ele>
        <time>2023-06-29T14:17:59.000Z</time>
      </trkpt>
      <trkpt lat="45.83994" lon="4.72272">
        <ele>333.81625</ele>
        <time>2023-06-29T14:18:00.000Z</time>
      </trkpt>
      <trkpt lat="45.83997" lon="4.72278">
        <ele>333.08612</ele>
        <time>2023-06-29T14:18:01.000Z</time>
      </trkpt>
      <trkpt lat="45.84" lon="4.72283">
        <ele>332.29083</ele>
        <time>2023-06-29T14:18:02.000Z</time>
      </trkpt>
      <trkpt lat="45.84004" lon="4.72289">
        <ele>331.5119</ele>
        <time>2023-06-29T14:18:03.000Z</time>
      </trkpt>
      <trkpt lat="45.84007" lon="4.72294">
        <ele>331.30896</ele>
        <time>2023-06-29T14:18:04.000Z</time>
      </trkpt>
      <trkpt lat="45.8401" lon="4.72299">
        <ele>331.08362</ele>
        <time>2023-06-29T14:18:05.000Z</time>
      </trkpt>
      <trkpt lat="45.84012" lon="4.72306">
        <ele>330.43518</ele>
        <time>2023-06-29T14:18:06.000Z</time>
      </trkpt>
      <trkpt lat="45.84013" lon="4.72314">
        <ele>330.25998</ele>
        <time>2023-06-29T14:18:07.000Z</time>
      </trkpt>
      <trkpt lat="45.84009" lon="4.7232">
        <ele>330.08597</ele>
        <time>2023-06-29T14:18:08.000Z</time>
      </trkpt>
      <trkpt lat="45.84005" lon="4.72326">
        <ele>329.88614</ele>
        <time>2023-06-29T14:18:09.000Z</time>
      </trkpt>
      <trkpt lat="45.84001" lon="4.72331">
        <ele>329.67865</ele>
        <time>2023-06-29T14:18:10.000Z</time>
      </trkpt>
      <trkpt lat="45.83995" lon="4.72336">
        <ele>329.44693</ele>
        <time>2023-06-29T14:18:11.000Z</time>
      </trkpt>
      <trkpt lat="45.8399" lon="4.72342">
        <ele>329.21234</ele>
        <time>2023-06-29T14:18:12.000Z</time>
      </trkpt>
      <trkpt lat="45.83985" lon="4.72348">
        <ele>328.96994</ele>
        <time>2023-06-29T14:18:13.000Z</time>
      </trkpt>
      <trkpt lat="45.8398" lon="4.72352">
        <ele>328.74017</ele>
        <time>2023-06-29T14:18:14.000Z</time>
      </trkpt>
      <trkpt lat="45.83974" lon="4.72357">
        <ele>328.51532</ele>
        <time>2023-06-29T14:18:15.000Z</time>
      </trkpt>
      <trkpt lat="45.83969" lon="4.72362">
        <ele>328.92691</ele>
        <time>2023-06-29T14:18:16.000Z</time>
      </trkpt>
      <trkpt lat="45.83964" lon="4.72368">
        <ele>329.43085</ele>
        <time>2023-06-29T14:18:17.000Z</time>
      </trkpt>
      <trkpt lat="45.83957" lon="4.72372">
        <ele>329.52084</ele>
        <time>2023-06-29T14:18:18.000Z</time>
      </trkpt>
      <trkpt lat="45.83953" lon="4.72375">
        <ele>329.74741</ele>
        <time>2023-06-29T14:18:19.000Z</time>
      </trkpt>
      <trkpt lat="45.83945" lon="4.72379">
        <ele>329.98041</ele>
        <time>2023-06-29T14:18:20.000Z</time>
      </trkpt>
      <trkpt lat="45.83938" lon="4.72384">
        <ele>330.32336</ele>
        <time>2023-06-29T14:18:21.000Z</time>
      </trkpt>
      <trkpt lat="45.83931" lon="4.72388">
        <ele>330.61832</ele>
        <time>2023-06-29T14:18:22.000Z</time>
      </trkpt>
      <trkpt lat="45.83924" lon="4.72391">
        <ele>331.10101</ele>
        <time>2023-06-29T14:18:23.000Z</time>
      </trkpt>
      <trkpt lat="45.83916" lon="4.72394">
        <ele>331.01135</ele>
        <time>2023-06-29T14:18:24.000Z</time>
      </trkpt>
      <trkpt lat="45.83907" lon="4.72399">
        <ele>331.07352</ele>
        <time>2023-06-29T14:18:25.000Z</time>
      </trkpt>
      <trkpt lat="45.83898" lon="4.72405">
        <ele>331.08441</ele>
        <time>2023-06-29T14:18:26.000Z</time>
      </trkpt>
      <trkpt lat="45.8389" lon="4.72408">
        <ele>330.73608</ele>
        <time>2023-06-29T14:18:27.000Z</time>
      </trkpt>
      <trkpt lat="45.83881" lon="4.72412">
        <ele>330.3609</ele>
        <time>2023-06-29T14:18:28.000Z</time>
      </trkpt>
      <trkpt lat="45.83872" lon="4.72416">
        <ele>329.97134</ele>
        <time>2023-06-29T14:18:29.000Z</time>
      </trkpt>
      <trkpt lat="45.83864" lon="4.7242">
        <ele>329.63135</ele>
        <time>2023-06-29T14:18:30.000Z</time>
      </trkpt>
      <trkpt lat="45.83857" lon="4.72426">
        <ele>329.36761</ele>
        <time>2023-06-29T14:18:31.000Z</time>
      </trkpt>
      <trkpt lat="45.83851" lon="4.72434">
        <ele>329.13928</ele>
        <time>2023-06-29T14:18:32.000Z</time>
      </trkpt>
      <trkpt lat="45.83846" lon="4.72442">
        <ele>328.9053</ele>
        <time>2023-06-29T14:18:33.000Z</time>
      </trkpt>
      <trkpt lat="45.83843" lon="4.72448">
        <ele>328.65796</ele>
        <time>2023-06-29T14:18:34.000Z</time>
      </trkpt>
      <trkpt lat="45.83841" lon="4.72454">
        <ele>328.33658</ele>
        <time>2023-06-29T14:18:35.000Z</time>
      </trkpt>
      <trkpt lat="45.83841" lon="4.72465">
        <ele>327.85846</ele>
        <time>2023-06-29T14:18:36.000Z</time>
      </trkpt>
      <trkpt lat="45.8384" lon="4.72475">
        <ele>327.20779</ele>
        <time>2023-06-29T14:18:37.000Z</time>
      </trkpt>
      <trkpt lat="45.83841" lon="4.72484">
        <ele>326.93082</ele>
        <time>2023-06-29T14:18:38.000Z</time>
      </trkpt>
      <trkpt lat="45.83842" lon="4.72493">
        <ele>326.67496</ele>
        <time>2023-06-29T14:18:39.000Z</time>
      </trkpt>
      <trkpt lat="45.83843" lon="4.72502">
        <ele>326.40359</ele>
        <time>2023-06-29T14:18:40.000Z</time>
      </trkpt>
      <trkpt lat="45.83843" lon="4.72512">
        <ele>326.11716</ele>
        <time>2023-06-29T14:18:41.000Z</time>
      </trkpt>
      <trkpt lat="45.83842" lon="4.72523">
        <ele>325.87933</ele>
        <time>2023-06-29T14:18:42.000Z</time>
      </trkpt>
      <trkpt lat="45.83843" lon="4.72533">
        <ele>325.71762</ele>
        <time>2023-06-29T14:18:43.000Z</time>
      </trkpt>
      <trkpt lat="45.83842" lon="4.72541">
        <ele>325.74033</ele>
        <time>2023-06-29T14:18:44.000Z</time>
      </trkpt>
      <trkpt lat="45.8384" lon="4.7255">
        <ele>325.12097</ele>
        <time>2023-06-29T14:18:45.000Z</time>
      </trkpt>
      <trkpt lat="45.83837" lon="4.72558">
        <ele>324.53632</ele>
        <time>2023-06-29T14:18:46.000Z</time>
      </trkpt>
      <trkpt lat="45.83835" lon="4.72565">
        <ele>323.84259</ele>
        <time>2023-06-29T14:18:47.000Z</time>
      </trkpt>
      <trkpt lat="45.83833" lon="4.7257">
        <ele>323.17285</ele>
        <time>2023-06-29T14:18:48.000Z</time>
      </trkpt>
      <trkpt lat="45.83832" lon="4.72578">
        <ele>322.47687</ele>
        <time>2023-06-29T14:18:49.000Z</time>
      </trkpt>
      <trkpt lat="45.8383" lon="4.72585">
        <ele>321.78165</ele>
        <time>2023-06-29T14:18:50.000Z</time>
      </trkpt>
      <trkpt lat="45.83828" lon="4.7259">
        <ele>321.01593</ele>
        <time>2023-06-29T14:18:51.000Z</time>
      </trkpt>
      <trkpt lat="45.83826" lon="4.72594">
        <ele>320.23114</ele>
        <time>2023-06-29T14:18:52.000Z</time>
      </trkpt>
      <trkpt lat="45.83823" lon="4.72599">
        <ele>319.47668</ele>
        <time>2023-06-29T14:18:53.000Z</time>
      </trkpt>
      <trkpt lat="45.8382" lon="4.72605">
        <ele>318.69986</ele>
        <time>2023-06-29T14:18:54.000Z</time>
      </trkpt>
      <trkpt lat="45.83815" lon="4.72608">
        <ele>318.0509</ele>
        <time>2023-06-29T14:18:55.000Z</time>
      </trkpt>
      <trkpt lat="45.83812" lon="4.72611">
        <ele>317.40207</ele>
        <time>2023-06-29T14:18:56.000Z</time>
      </trkpt>
      <trkpt lat="45.83808" lon="4.72613">
        <ele>316.7879</ele>
        <time>2023-06-29T14:18:57.000Z</time>
      </trkpt>
      <trkpt lat="45.83803" lon="4.72615">
        <ele>316.19489</ele>
        <time>2023-06-29T14:18:58.000Z</time>
      </trkpt>
      <trkpt lat="45.838" lon="4.72616">
        <ele>315.55478</ele>
        <time>2023-06-29T14:18:59.000Z</time>
      </trkpt>
      <trkpt lat="45.83794" lon="4.72619">
        <ele>314.95563</ele>
        <time>2023-06-29T14:19:00.000Z</time>
      </trkpt>
      <trkpt lat="45.8379" lon="4.72621">
        <ele>314.39981</ele>
        <time>2023-06-29T14:19:01.000Z</time>
      </trkpt>
      <trkpt lat="45.83785" lon="4.72622">
        <ele>313.85968</ele>
        <time>2023-06-29T14:19:02.000Z</time>
      </trkpt>
      <trkpt lat="45.83781" lon="4.72624">
        <ele>313.1156</ele>
        <time>2023-06-29T14:19:03.000Z</time>
      </trkpt>
      <trkpt lat="45.83776" lon="4.72626">
        <ele>312.22992</ele>
        <time>2023-06-29T14:19:04.000Z</time>
      </trkpt>
      <trkpt lat="45.83772" lon="4.72628">
        <ele>311.78409</ele>
        <time>2023-06-29T14:19:05.000Z</time>
      </trkpt>
      <trkpt lat="45.83767" lon="4.72629">
        <ele>312.34454</ele>
        <time>2023-06-29T14:19:06.000Z</time>
      </trkpt>
      <trkpt lat="45.83763" lon="4.7263">
        <ele>312.9155</ele>
        <time>2023-06-29T14:19:07.000Z</time>
      </trkpt>
      <trkpt lat="45.83759" lon="4.72632">
        <ele>313.47894</ele>
        <time>2023-06-29T14:19:08.000Z</time>
      </trkpt>
      <trkpt lat="45.83754" lon="4.72632">
        <ele>314.0296</ele>
        <time>2023-06-29T14:19:09.000Z</time>
      </trkpt>
      <trkpt lat="45.8375" lon="4.72633">
        <ele>314.55713</ele>
        <time>2023-06-29T14:19:10.000Z</time>
      </trkpt>
      <trkpt lat="45.83745" lon="4.72633">
        <ele>315.06314</ele>
        <time>2023-06-29T14:19:11.000Z</time>
      </trkpt>
      <trkpt lat="45.8374" lon="4.72635">
        <ele>315.59805</ele>
        <time>2023-06-29T14:19:12.000Z</time>
      </trkpt>
      <trkpt lat="45.83736" lon="4.72636">
        <ele>316.15668</ele>
        <time>2023-06-29T14:19:13.000Z</time>
      </trkpt>
      <trkpt lat="45.83733" lon="4.72637">
        <ele>316.77841</ele>
        <time>2023-06-29T14:19:14.000Z</time>
      </trkpt>
      <trkpt lat="45.83731" lon="4.72638">
        <ele>317.35565</ele>
        <time>2023-06-29T14:19:15.000Z</time>
      </trkpt>
      <trkpt lat="45.83727" lon="4.72639">
        <ele>317.98264</ele>
        <time>2023-06-29T14:19:16.000Z</time>
      </trkpt>
      <trkpt lat="45.83724" lon="4.7264">
        <ele>318.62878</ele>
        <time>2023-06-29T14:19:17.000Z</time>
      </trkpt>
      <trkpt lat="45.8372" lon="4.72643">
        <ele>319.26703</ele>
        <time>2023-06-29T14:19:18.000Z</time>
      </trkpt>
      <trkpt lat="45.83717" lon="4.72645">
        <ele>319.96158</ele>
        <time>2023-06-29T14:19:19.000Z</time>
      </trkpt>
      <trkpt lat="45.83713" lon="4.72647">
        <ele>320.65329</ele>
        <time>2023-06-29T14:19:20.000Z</time>
      </trkpt>
      <trkpt lat="45.8371" lon="4.72648">
        <ele>321.33075</ele>
        <time>2023-06-29T14:19:21.000Z</time>
      </trkpt>
      <trkpt lat="45.83707" lon="4.72648">
        <ele>321.99393</ele>
        <time>2023-06-29T14:19:22.000Z</time>
      </trkpt>
      <trkpt lat="45.83704" lon="4.72649">
        <ele>322.59027</ele>
        <time>2023-06-29T14:19:23.000Z</time>
      </trkpt>
      <trkpt lat="45.83699" lon="4.7265">
        <ele>323.12195</ele>
        <time>2023-06-29T14:19:24.000Z</time>
      </trkpt>
      <trkpt lat="45.83695" lon="4.72652">
        <ele>323.74374</ele>
        <time>2023-06-29T14:19:25.000Z</time>
      </trkpt>
      <trkpt lat="45.83691" lon="4.72654">
        <ele>323.84933</ele>
        <time>2023-06-29T14:19:26.000Z</time>
      </trkpt>
      <trkpt lat="45.83687" lon="4.72656">
        <ele>323.96945</ele>
        <time>2023-06-29T14:19:27.000Z</time>
      </trkpt>
      <trkpt lat="45.83684" lon="4.72657">
        <ele>324.27457</ele>
        <time>2023-06-29T14:19:28.000Z</time>
      </trkpt>
      <trkpt lat="45.8368" lon="4.72658">
        <ele>324.63596</ele>
        <time>2023-06-29T14:19:29.000Z</time>
      </trkpt>
      <trkpt lat="45.83676" lon="4.72658">
        <ele>325.00885</ele>
        <time>2023-06-29T14:19:30.000Z</time>
      </trkpt>
      <trkpt lat="45.83673" lon="4.72659">
        <ele>325.367</ele>
        <time>2023-06-29T14:19:31.000Z</time>
      </trkpt>
      <trkpt lat="45.8367" lon="4.7266">
        <ele>325.72412</ele>
        <time>2023-06-29T14:19:32.000Z</time>
      </trkpt>
      <trkpt lat="45.83667" lon="4.72661">
        <ele>326.04388</ele>
        <time>2023-06-29T14:19:33.000Z</time>
      </trkpt>
      <trkpt lat="45.83664" lon="4.72662">
        <ele>326.461</ele>
        <time>2023-06-29T14:19:34.000Z</time>
      </trkpt>
      <trkpt lat="45.8366" lon="4.72664">
        <ele>326.46515</ele>
        <time>2023-06-29T14:19:35.000Z</time>
      </trkpt>
      <trkpt lat="45.83656" lon="4.72665">
        <ele>326.48376</ele>
        <time>2023-06-29T14:19:36.000Z</time>
      </trkpt>
      <trkpt lat="45.83653" lon="4.72667">
        <ele>326.50592</ele>
        <time>2023-06-29T14:19:37.000Z</time>
      </trkpt>
      <trkpt lat="45.83649" lon="4.72669">
        <ele>326.55145</ele>
        <time>2023-06-29T14:19:38.000Z</time>
      </trkpt>
      <trkpt lat="45.83646" lon="4.72671">
        <ele>326.60114</ele>
        <time>2023-06-29T14:19:39.000Z</time>
      </trkpt>
      <trkpt lat="45.83643" lon="4.72672">
        <ele>326.63919</ele>
        <time>2023-06-29T14:19:40.000Z</time>
      </trkpt>
      <trkpt lat="45.8364" lon="4.72674">
        <ele>326.14929</ele>
        <time>2023-06-29T14:19:41.000Z</time>
      </trkpt>
      <trkpt lat="45.83637" lon="4.72676">
        <ele>325.65128</ele>
        <time>2023-06-29T14:19:42.000Z</time>
      </trkpt>
      <trkpt lat="45.83634" lon="4.72678">
        <ele>325.20056</ele>
        <time>2023-06-29T14:19:43.000Z</time>
      </trkpt>
      <trkpt lat="45.83631" lon="4.72682">
        <ele>324.8244</ele>
        <time>2023-06-29T14:19:44.000Z</time>
      </trkpt>
      <trkpt lat="45.83629" lon="4.72685">
        <ele>324.4426</ele>
        <time>2023-06-29T14:19:45.000Z</time>
      </trkpt>
      <trkpt lat="45.83626" lon="4.72689">
        <ele>324.01297</ele>
        <time>2023-06-29T14:19:46.000Z</time>
      </trkpt>
      <trkpt lat="45.83624" lon="4.72693">
        <ele>323.6098</ele>
        <time>2023-06-29T14:19:47.000Z</time>
      </trkpt>
      <trkpt lat="45.83621" lon="4.72696">
        <ele>323.00742</ele>
        <time>2023-06-29T14:19:48.000Z</time>
      </trkpt>
      <trkpt lat="45.83619" lon="4.72698">
        <ele>322.39069</ele>
        <time>2023-06-29T14:19:49.000Z</time>
      </trkpt>
      <trkpt lat="45.83616" lon="4.72701">
        <ele>321.79712</ele>
        <time>2023-06-29T14:19:50.000Z</time>
      </trkpt>
      <trkpt lat="45.83613" lon="4.72703">
        <ele>321.23898</ele>
        <time>2023-06-29T14:19:51.000Z</time>
      </trkpt>
      <trkpt lat="45.8361" lon="4.72705">
        <ele>320.66257</ele>
        <time>2023-06-29T14:19:52.000Z</time>
      </trkpt>
      <trkpt lat="45.83607" lon="4.72707">
        <ele>320.12845</ele>
        <time>2023-06-29T14:19:53.000Z</time>
      </trkpt>
      <trkpt lat="45.83605" lon="4.72708">
        <ele>319.47772</ele>
        <time>2023-06-29T14:19:54.000Z</time>
      </trkpt>
      <trkpt lat="45.83602" lon="4.72709">
        <ele>319.20493</ele>
        <time>2023-06-29T14:19:55.000Z</time>
      </trkpt>
      <trkpt lat="45.83599" lon="4.72711">
        <ele>318.92981</ele>
        <time>2023-06-29T14:19:56.000Z</time>
      </trkpt>
      <trkpt lat="45.83596" lon="4.72714">
        <ele>318.63809</ele>
        <time>2023-06-29T14:19:57.000Z</time>
      </trkpt>
      <trkpt lat="45.83593" lon="4.72716">
        <ele>318.33646</ele>
        <time>2023-06-29T14:19:58.000Z</time>
      </trkpt>
      <trkpt lat="45.8359" lon="4.72718">
        <ele>318.01349</ele>
        <time>2023-06-29T14:19:59.000Z</time>
      </trkpt>
      <trkpt lat="45.83587" lon="4.7272">
        <ele>317.69373</ele>
        <time>2023-06-29T14:20:00.000Z</time>
      </trkpt>
      <trkpt lat="45.83584" lon="4.72722">
        <ele>317.91458</ele>
        <time>2023-06-29T14:20:01.000Z</time>
      </trkpt>
      <trkpt lat="45.83581" lon="4.72724">
        <ele>318.10162</ele>
        <time>2023-06-29T14:20:02.000Z</time>
      </trkpt>
      <trkpt lat="45.83577" lon="4.72726">
        <ele>318.24802</ele>
        <time>2023-06-29T14:20:03.000Z</time>
      </trkpt>
      <trkpt lat="45.83575" lon="4.72728">
        <ele>318.34738</ele>
        <time>2023-06-29T14:20:04.000Z</time>
      </trkpt>
      <trkpt lat="45.83572" lon="4.72729">
        <ele>318.46161</ele>
        <time>2023-06-29T14:20:05.000Z</time>
      </trkpt>
      <trkpt lat="45.83569" lon="4.72731">
        <ele>318.59955</ele>
        <time>2023-06-29T14:20:06.000Z</time>
      </trkpt>
      <trkpt lat="45.83566" lon="4.72733">
        <ele>318.72067</ele>
        <time>2023-06-29T14:20:07.000Z</time>
      </trkpt>
      <trkpt lat="45.83563" lon="4.72735">
        <ele>318.80643</ele>
        <time>2023-06-29T14:20:08.000Z</time>
      </trkpt>
      <trkpt lat="45.8356" lon="4.72737">
        <ele>319.46469</ele>
        <time>2023-06-29T14:20:09.000Z</time>
      </trkpt>
      <trkpt lat="45.83556" lon="4.72739">
        <ele>320.1076</ele>
        <time>2023-06-29T14:20:10.000Z</time>
      </trkpt>
      <trkpt lat="45.83553" lon="4.72741">
        <ele>320.76703</ele>
        <time>2023-06-29T14:20:11.000Z</time>
      </trkpt>
      <trkpt lat="45.8355" lon="4.72742">
        <ele>321.37704</ele>
        <time>2023-06-29T14:20:12.000Z</time>
      </trkpt>
      <trkpt lat="45.83547" lon="4.72743">
        <ele>321.97348</ele>
        <time>2023-06-29T14:20:13.000Z</time>
      </trkpt>
      <trkpt lat="45.83543" lon="4.72745">
        <ele>322.59454</ele>
        <time>2023-06-29T14:20:14.000Z</time>
      </trkpt>
      <trkpt lat="45.83539" lon="4.72746">
        <ele>323.2551</ele>
        <time>2023-06-29T14:20:15.000Z</time>
      </trkpt>
      <trkpt lat="45.83536" lon="4.72746">
        <ele>323.87402</ele>
        <time>2023-06-29T14:20:16.000Z</time>
      </trkpt>
      <trkpt lat="45.83532" lon="4.72747">
        <ele>324.4975</ele>
        <time>2023-06-29T14:20:17.000Z</time>
      </trkpt>
      <trkpt lat="45.83528" lon="4.72747">
        <ele>325.13773</ele>
        <time>2023-06-29T14:20:18.000Z</time>
      </trkpt>
      <trkpt lat="45.83524" lon="4.72748">
        <ele>325.78705</ele>
        <time>2023-06-29T14:20:19.000Z</time>
      </trkpt>
      <trkpt lat="45.83521" lon="4.72748">
        <ele>326.43076</ele>
        <time>2023-06-29T14:20:20.000Z</time>
      </trkpt>
      <trkpt lat="45.83517" lon="4.72749">
        <ele>327.05795</ele>
        <time>2023-06-29T14:20:21.000Z</time>
      </trkpt>
      <trkpt lat="45.83513" lon="4.7275">
        <ele>327.66736</ele>
        <time>2023-06-29T14:20:22.000Z</time>
      </trkpt>
      <trkpt lat="45.8351" lon="4.72751">
        <ele>328.27686</ele>
        <time>2023-06-29T14:20:23.000Z</time>
      </trkpt>
      <trkpt lat="45.83506" lon="4.72753">
        <ele>329.0658</ele>
        <time>2023-06-29T14:20:24.000Z</time>
      </trkpt>
      <trkpt lat="45.83503" lon="4.72755">
        <ele>330.0036</ele>
        <time>2023-06-29T14:20:25.000Z</time>
      </trkpt>
      <trkpt lat="45.83499" lon="4.72756">
        <ele>330.90823</ele>
        <time>2023-06-29T14:20:26.000Z</time>
      </trkpt>
      <trkpt lat="45.83496" lon="4.72757">
        <ele>331.46881</ele>
        <time>2023-06-29T14:20:27.000Z</time>
      </trkpt>
      <trkpt lat="45.83492" lon="4.72759">
        <ele>332.08234</ele>
        <time>2023-06-29T14:20:28.000Z</time>
      </trkpt>
      <trkpt lat="45.83489" lon="4.7276">
        <ele>332.11798</ele>
        <time>2023-06-29T14:20:29.000Z</time>
      </trkpt>
      <trkpt lat="45.83486" lon="4.72762">
        <ele>332.14642</ele>
        <time>2023-06-29T14:20:30.000Z</time>
      </trkpt>
      <trkpt lat="45.83482" lon="4.72763">
        <ele>332.1268</ele>
        <time>2023-06-29T14:20:31.000Z</time>
      </trkpt>
      <trkpt lat="45.83479" lon="4.72764">
        <ele>332.14386</ele>
        <time>2023-06-29T14:20:32.000Z</time>
      </trkpt>
      <trkpt lat="45.83476" lon="4.72765">
        <ele>332.17532</ele>
        <time>2023-06-29T14:20:33.000Z</time>
      </trkpt>
      <trkpt lat="45.83472" lon="4.72765">
        <ele>332.15823</ele>
        <time>2023-06-29T14:20:34.000Z</time>
      </trkpt>
      <trkpt lat="45.83469" lon="4.72766">
        <ele>332.17978</ele>
        <time>2023-06-29T14:20:35.000Z</time>
      </trkpt>
      <trkpt lat="45.83465" lon="4.72767">
        <ele>332.18304</ele>
        <time>2023-06-29T14:20:36.000Z</time>
      </trkpt>
      <trkpt lat="45.83462" lon="4.72767">
        <ele>332.18436</ele>
        <time>2023-06-29T14:20:37.000Z</time>
      </trkpt>
      <trkpt lat="45.83457" lon="4.72769">
        <ele>332.16559</ele>
        <time>2023-06-29T14:20:38.000Z</time>
      </trkpt>
      <trkpt lat="45.83453" lon="4.72771">
        <ele>332.1235</ele>
        <time>2023-06-29T14:20:39.000Z</time>
      </trkpt>
      <trkpt lat="45.83449" lon="4.72772">
        <ele>332.08749</ele>
        <time>2023-06-29T14:20:40.000Z</time>
      </trkpt>
      <trkpt lat="45.83445" lon="4.72773">
        <ele>332.04889</ele>
        <time>2023-06-29T14:20:41.000Z</time>
      </trkpt>
      <trkpt lat="45.83441" lon="4.72774">
        <ele>332.08932</ele>
        <time>2023-06-29T14:20:42.000Z</time>
      </trkpt>
      <trkpt lat="45.83437" lon="4.72777">
        <ele>332.08624</ele>
        <time>2023-06-29T14:20:43.000Z</time>
      </trkpt>
      <trkpt lat="45.83434" lon="4.72782">
        <ele>332.03278</ele>
        <time>2023-06-29T14:20:44.000Z</time>
      </trkpt>
      <trkpt lat="45.83433" lon="4.72788">
        <ele>331.90683</ele>
        <time>2023-06-29T14:20:45.000Z</time>
      </trkpt>
      <trkpt lat="45.83432" lon="4.72794">
        <ele>331.86078</ele>
        <time>2023-06-29T14:20:46.000Z</time>
      </trkpt>
      <trkpt lat="45.83435" lon="4.72807">
        <ele>332.20181</ele>
        <time>2023-06-29T14:20:47.000Z</time>
      </trkpt>
      <trkpt lat="45.83436" lon="4.72815">
        <ele>332.60471</ele>
        <time>2023-06-29T14:20:48.000Z</time>
      </trkpt>
      <trkpt lat="45.83436" lon="4.72822">
        <ele>332.99249</ele>
        <time>2023-06-29T14:20:49.000Z</time>
      </trkpt>
      <trkpt lat="45.83436" lon="4.72828">
        <ele>333.43256</ele>
        <time>2023-06-29T14:20:50.000Z</time>
      </trkpt>
      <trkpt lat="45.83436" lon="4.72835">
        <ele>334.02216</ele>
        <time>2023-06-29T14:20:51.000Z</time>
      </trkpt>
      <trkpt lat="45.83435" lon="4.72841">
        <ele>334.47821</ele>
        <time>2023-06-29T14:20:52.000Z</time>
      </trkpt>
      <trkpt lat="45.83434" lon="4.72847">
        <ele>334.82431</ele>
        <time>2023-06-29T14:20:53.000Z</time>
      </trkpt>
      <trkpt lat="45.83435" lon="4.72854">
        <ele>335.18295</ele>
        <time>2023-06-29T14:20:54.000Z</time>
      </trkpt>
      <trkpt lat="45.83435" lon="4.7286">
        <ele>335.58942</ele>
        <time>2023-06-29T14:20:55.000Z</time>
      </trkpt>
      <trkpt lat="45.83438" lon="4.72867">
        <ele>335.52557</ele>
        <time>2023-06-29T14:20:56.000Z</time>
      </trkpt>
      <trkpt lat="45.8344" lon="4.72874">
        <ele>335.52707</ele>
        <time>2023-06-29T14:20:57.000Z</time>
      </trkpt>
      <trkpt lat="45.83441" lon="4.7288">
        <ele>335.43628</ele>
        <time>2023-06-29T14:20:58.000Z</time>
      </trkpt>
      <trkpt lat="45.83443" lon="4.72887">
        <ele>335.40375</ele>
        <time>2023-06-29T14:20:59.000Z</time>
      </trkpt>
      <trkpt lat="45.83443" lon="4.72893">
        <ele>335.41824</ele>
        <time>2023-06-29T14:21:00.000Z</time>
      </trkpt>
      <trkpt lat="45.83444" lon="4.729">
        <ele>335.33264</ele>
        <time>2023-06-29T14:21:01.000Z</time>
      </trkpt>
      <trkpt lat="45.83446" lon="4.72905">
        <ele>335.23328</ele>
        <time>2023-06-29T14:21:02.000Z</time>
      </trkpt>
      <trkpt lat="45.83447" lon="4.72911">
        <ele>335.16562</ele>
        <time>2023-06-29T14:21:03.000Z</time>
      </trkpt>
      <trkpt lat="45.83448" lon="4.72917">
        <ele>335.03241</ele>
        <time>2023-06-29T14:21:04.000Z</time>
      </trkpt>
      <trkpt lat="45.83449" lon="4.72921">
        <ele>334.82327</ele>
        <time>2023-06-29T14:21:05.000Z</time>
      </trkpt>
      <trkpt lat="45.83451" lon="4.72926">
        <ele>334.54266</ele>
        <time>2023-06-29T14:21:06.000Z</time>
      </trkpt>
      <trkpt lat="45.83453" lon="4.72931">
        <ele>334.2298</ele>
        <time>2023-06-29T14:21:07.000Z</time>
      </trkpt>
      <trkpt lat="45.83454" lon="4.72935">
        <ele>333.87323</ele>
        <time>2023-06-29T14:21:08.000Z</time>
      </trkpt>
      <trkpt lat="45.83456" lon="4.7294">
        <ele>333.55096</ele>
        <time>2023-06-29T14:21:09.000Z</time>
      </trkpt>
      <trkpt lat="45.83458" lon="4.72945">
        <ele>333.17221</ele>
        <time>2023-06-29T14:21:10.000Z</time>
      </trkpt>
      <trkpt lat="45.8346" lon="4.7295">
        <ele>332.70374</ele>
        <time>2023-06-29T14:21:11.000Z</time>
      </trkpt>
      <trkpt lat="45.83461" lon="4.72955">
        <ele>332.34528</ele>
        <time>2023-06-29T14:21:12.000Z</time>
      </trkpt>
      <trkpt lat="45.83462" lon="4.72959">
        <ele>332.07742</ele>
        <time>2023-06-29T14:21:13.000Z</time>
      </trkpt>
      <trkpt lat="45.83463" lon="4.72964">
        <ele>331.84833</ele>
        <time>2023-06-29T14:21:14.000Z</time>
      </trkpt>
      <trkpt lat="45.83464" lon="4.72968">
        <ele>331.48422</ele>
        <time>2023-06-29T14:21:15.000Z</time>
      </trkpt>
      <trkpt lat="45.83466" lon="4.72971">
        <ele>331.57941</ele>
        <time>2023-06-29T14:21:16.000Z</time>
      </trkpt>
      <trkpt lat="45.83467" lon="4.72974">
        <ele>331.61194</ele>
        <time>2023-06-29T14:21:17.000Z</time>
      </trkpt>
      <trkpt lat="45.83468" lon="4.72978">
        <ele>331.78781</ele>
        <time>2023-06-29T14:21:18.000Z</time>
      </trkpt>
      <trkpt lat="45.8347" lon="4.72983">
        <ele>331.95978</ele>
        <time>2023-06-29T14:21:19.000Z</time>
      </trkpt>
      <trkpt lat="45.83471" lon="4.72987">
        <ele>332.19299</ele>
        <time>2023-06-29T14:21:20.000Z</time>
      </trkpt>
      <trkpt lat="45.83472" lon="4.72992">
        <ele>332.5379</ele>
        <time>2023-06-29T14:21:21.000Z</time>
      </trkpt>
      <trkpt lat="45.83474" lon="4.72997">
        <ele>332.91653</ele>
        <time>2023-06-29T14:21:22.000Z</time>
      </trkpt>
      <trkpt lat="45.83475" lon="4.73002">
        <ele>333.33954</ele>
        <time>2023-06-29T14:21:23.000Z</time>
      </trkpt>
      <trkpt lat="45.83477" lon="4.73006">
        <ele>333.85602</ele>
        <time>2023-06-29T14:21:24.000Z</time>
      </trkpt>
      <trkpt lat="45.83478" lon="4.73011">
        <ele>334.4765</ele>
        <time>2023-06-29T14:21:25.000Z</time>
      </trkpt>
      <trkpt lat="45.83481" lon="4.73015">
        <ele>335.10934</ele>
        <time>2023-06-29T14:21:26.000Z</time>
      </trkpt>
      <trkpt lat="45.83483" lon="4.73019">
        <ele>335.76825</ele>
        <time>2023-06-29T14:21:27.000Z</time>
      </trkpt>
      <trkpt lat="45.83484" lon="4.73022">
        <ele>336.10059</ele>
        <time>2023-06-29T14:21:28.000Z</time>
      </trkpt>
      <trkpt lat="45.83486" lon="4.73026">
        <ele>336.11563</ele>
        <time>2023-06-29T14:21:29.000Z</time>
      </trkpt>
      <trkpt lat="45.83489" lon="4.73031">
        <ele>336.20428</ele>
        <time>2023-06-29T14:21:30.000Z</time>
      </trkpt>
      <trkpt lat="45.83491" lon="4.73034">
        <ele>336.11819</ele>
        <time>2023-06-29T14:21:31.000Z</time>
      </trkpt>
      <trkpt lat="45.83493" lon="4.73037">
        <ele>336.05768</ele>
        <time>2023-06-29T14:21:32.000Z</time>
      </trkpt>
      <trkpt lat="45.83496" lon="4.73041">
        <ele>336.02515</ele>
        <time>2023-06-29T14:21:33.000Z</time>
      </trkpt>
      <trkpt lat="45.83499" lon="4.73044">
        <ele>335.97</ele>
        <time>2023-06-29T14:21:34.000Z</time>
      </trkpt>
      <trkpt lat="45.83503" lon="4.73047">
        <ele>335.97458</ele>
        <time>2023-06-29T14:21:35.000Z</time>
      </trkpt>
      <trkpt lat="45.83506" lon="4.7305">
        <ele>336.00491</ele>
        <time>2023-06-29T14:21:36.000Z</time>
      </trkpt>
      <trkpt lat="45.83509" lon="4.73053">
        <ele>336.03265</ele>
        <time>2023-06-29T14:21:37.000Z</time>
      </trkpt>
      <trkpt lat="45.83512" lon="4.73056">
        <ele>336.0368</ele>
        <time>2023-06-29T14:21:38.000Z</time>
      </trkpt>
      <trkpt lat="45.83515" lon="4.73059">
        <ele>336.00861</ele>
        <time>2023-06-29T14:21:39.000Z</time>
      </trkpt>
      <trkpt lat="45.83518" lon="4.73062">
        <ele>335.8772</ele>
        <time>2023-06-29T14:21:40.000Z</time>
      </trkpt>
      <trkpt lat="45.83521" lon="4.73064">
        <ele>335.73755</ele>
        <time>2023-06-29T14:21:41.000Z</time>
      </trkpt>
      <trkpt lat="45.83524" lon="4.73065">
        <ele>335.48541</ele>
        <time>2023-06-29T14:21:42.000Z</time>
      </trkpt>
      <trkpt lat="45.83527" lon="4.73066">
        <ele>335.23026</ele>
        <time>2023-06-29T14:21:43.000Z</time>
      </trkpt>
      <trkpt lat="45.83531" lon="4.73067">
        <ele>334.81897</ele>
        <time>2023-06-29T14:21:44.000Z</time>
      </trkpt>
      <trkpt lat="45.83535" lon="4.73068">
        <ele>334.27594</ele>
        <time>2023-06-29T14:21:45.000Z</time>
      </trkpt>
      <trkpt lat="45.83539" lon="4.73068">
        <ele>334.26782</ele>
        <time>2023-06-29T14:21:46.000Z</time>
      </trkpt>
      <trkpt lat="45.83542" lon="4.73068">
        <ele>334.12634</ele>
        <time>2023-06-29T14:21:47.000Z</time>
      </trkpt>
      <trkpt lat="45.83546" lon="4.73067">
        <ele>334.31491</ele>
        <time>2023-06-29T14:21:48.000Z</time>
      </trkpt>
      <trkpt lat="45.83549" lon="4.73066">
        <ele>334.80988</ele>
        <time>2023-06-29T14:21:49.000Z</time>
      </trkpt>
      <trkpt lat="45.83551" lon="4.73066">
        <ele>335.21677</ele>
        <time>2023-06-29T14:21:50.000Z</time>
      </trkpt>
      <trkpt lat="45.83555" lon="4.73065">
        <ele>335.81543</ele>
        <time>2023-06-29T14:21:51.000Z</time>
      </trkpt>
      <trkpt lat="45.83559" lon="4.73063">
        <ele>336.41901</ele>
        <time>2023-06-29T14:21:52.000Z</time>
      </trkpt>
      <trkpt lat="45.83562" lon="4.73062">
        <ele>337.01205</ele>
        <time>2023-06-29T14:21:53.000Z</time>
      </trkpt>
      <trkpt lat="45.83565" lon="4.73061">
        <ele>337.61111</ele>
        <time>2023-06-29T14:21:54.000Z</time>
      </trkpt>
      <trkpt lat="45.83569" lon="4.73061">
        <ele>338.16495</ele>
        <time>2023-06-29T14:21:55.000Z</time>
      </trkpt>
      <trkpt lat="45.83572" lon="4.7306">
        <ele>338.69843</ele>
        <time>2023-06-29T14:21:56.000Z</time>
      </trkpt>
      <trkpt lat="45.83576" lon="4.7306">
        <ele>339.19214</ele>
        <time>2023-06-29T14:21:57.000Z</time>
      </trkpt>
      <trkpt lat="45.8358" lon="4.73059">
        <ele>339.68671</ele>
        <time>2023-06-29T14:21:58.000Z</time>
      </trkpt>
      <trkpt lat="45.83584" lon="4.73059">
        <ele>340.16513</ele>
        <time>2023-06-29T14:21:59.000Z</time>
      </trkpt>
      <trkpt lat="45.83588" lon="4.73059">
        <ele>340.57855</ele>
        <time>2023-06-29T14:22:00.000Z</time>
      </trkpt>
      <trkpt lat="45.83592" lon="4.73058">
        <ele>341.03299</ele>
        <time>2023-06-29T14:22:01.000Z</time>
      </trkpt>
      <trkpt lat="45.83596" lon="4.73057">
        <ele>341.5426</ele>
        <time>2023-06-29T14:22:02.000Z</time>
      </trkpt>
      <trkpt lat="45.83599" lon="4.73055">
        <ele>342.17099</ele>
        <time>2023-06-29T14:22:03.000Z</time>
      </trkpt>
      <trkpt lat="45.83604" lon="4.73053">
        <ele>342.87823</ele>
        <time>2023-06-29T14:22:04.000Z</time>
      </trkpt>
      <trkpt lat="45.8361" lon="4.73048">
        <ele>343.58719</ele>
        <time>2023-06-29T14:22:05.000Z</time>
      </trkpt>
      <trkpt lat="45.83616" lon="4.73044">
        <ele>343.79404</ele>
        <time>2023-06-29T14:22:06.000Z</time>
      </trkpt>
      <trkpt lat="45.83621" lon="4.73042">
        <ele>344.08755</ele>
        <time>2023-06-29T14:22:07.000Z</time>
      </trkpt>
      <trkpt lat="45.83625" lon="4.73039">
        <ele>344.06436</ele>
        <time>2023-06-29T14:22:08.000Z</time>
      </trkpt>
      <trkpt lat="45.8363" lon="4.73036">
        <ele>344.11823</ele>
        <time>2023-06-29T14:22:09.000Z</time>
      </trkpt>
      <trkpt lat="45.83635" lon="4.73033">
        <ele>344.0918</ele>
        <time>2023-06-29T14:22:10.000Z</time>
      </trkpt>
      <trkpt lat="45.8364" lon="4.73029">
        <ele>344.10504</ele>
        <time>2023-06-29T14:22:11.000Z</time>
      </trkpt>
      <trkpt lat="45.83646" lon="4.73025">
        <ele>344.10361</ele>
        <time>2023-06-29T14:22:12.000Z</time>
      </trkpt>
      <trkpt lat="45.83653" lon="4.73022">
        <ele>344.05582</ele>
        <time>2023-06-29T14:22:13.000Z</time>
      </trkpt>
      <trkpt lat="45.83662" lon="4.73021">
        <ele>344.06689</ele>
        <time>2023-06-29T14:22:14.000Z</time>
      </trkpt>
      <trkpt lat="45.83669" lon="4.73018">
        <ele>344.10733</ele>
        <time>2023-06-29T14:22:15.000Z</time>
      </trkpt>
      <trkpt lat="45.83679" lon="4.73018">
        <ele>344.1275</ele>
        <time>2023-06-29T14:22:16.000Z</time>
      </trkpt>
      <trkpt lat="45.83688" lon="4.73017">
        <ele>344.15546</ele>
        <time>2023-06-29T14:22:17.000Z</time>
      </trkpt>
      <trkpt lat="45.83698" lon="4.73017">
        <ele>344.1983</ele>
        <time>2023-06-29T14:22:18.000Z</time>
      </trkpt>
      <trkpt lat="45.83707" lon="4.73019">
        <ele>343.96771</ele>
        <time>2023-06-29T14:22:19.000Z</time>
      </trkpt>
      <trkpt lat="45.83716" lon="4.73017">
        <ele>343.76498</ele>
        <time>2023-06-29T14:22:20.000Z</time>
      </trkpt>
      <trkpt lat="45.83726" lon="4.73015">
        <ele>343.57721</ele>
        <time>2023-06-29T14:22:21.000Z</time>
      </trkpt>
      <trkpt lat="45.83733" lon="4.73015">
        <ele>343.40448</ele>
        <time>2023-06-29T14:22:22.000Z</time>
      </trkpt>
      <trkpt lat="45.83741" lon="4.73017">
        <ele>343.05206</ele>
        <time>2023-06-29T14:22:23.000Z</time>
      </trkpt>
      <trkpt lat="45.83746" lon="4.73023">
        <ele>342.59836</ele>
        <time>2023-06-29T14:22:24.000Z</time>
      </trkpt>
      <trkpt lat="45.83748" lon="4.73032">
        <ele>342.20337</ele>
        <time>2023-06-29T14:22:25.000Z</time>
      </trkpt>
      <trkpt lat="45.83746" lon="4.73037">
        <ele>341.70096</ele>
        <time>2023-06-29T14:22:26.000Z</time>
      </trkpt>
      <trkpt lat="45.83749" lon="4.73044">
        <ele>341.245</ele>
        <time>2023-06-29T14:22:27.000Z</time>
      </trkpt>
      <trkpt lat="45.83749" lon="4.73051">
        <ele>341.07562</ele>
        <time>2023-06-29T14:22:28.000Z</time>
      </trkpt>
      <trkpt lat="45.8375" lon="4.73061">
        <ele>340.79578</ele>
        <time>2023-06-29T14:22:29.000Z</time>
      </trkpt>
      <trkpt lat="45.8375" lon="4.73067">
        <ele>340.6694</ele>
        <time>2023-06-29T14:22:30.000Z</time>
      </trkpt>
      <trkpt lat="45.83749" lon="4.73072">
        <ele>340.48663</ele>
        <time>2023-06-29T14:22:31.000Z</time>
      </trkpt>
      <trkpt lat="45.83753" lon="4.73079">
        <ele>340.33926</ele>
        <time>2023-06-29T14:22:32.000Z</time>
      </trkpt>
      <trkpt lat="45.83755" lon="4.73087">
        <ele>340.16229</ele>
        <time>2023-06-29T14:22:33.000Z</time>
      </trkpt>
      <trkpt lat="45.83756" lon="4.73094">
        <ele>339.85129</ele>
        <time>2023-06-29T14:22:34.000Z</time>
      </trkpt>
      <trkpt lat="45.83759" lon="4.731">
        <ele>339.53619</ele>
        <time>2023-06-29T14:22:35.000Z</time>
      </trkpt>
      <trkpt lat="45.8376" lon="4.73104">
        <ele>339.2442</ele>
        <time>2023-06-29T14:22:36.000Z</time>
      </trkpt>
      <trkpt lat="45.83762" lon="4.7311">
        <ele>338.89087</ele>
        <time>2023-06-29T14:22:37.000Z</time>
      </trkpt>
      <trkpt lat="45.83764" lon="4.73115">
        <ele>338.50232</ele>
        <time>2023-06-29T14:22:38.000Z</time>
      </trkpt>
      <trkpt lat="45.83765" lon="4.73119">
        <ele>338.40375</ele>
        <time>2023-06-29T14:22:39.000Z</time>
      </trkpt>
      <trkpt lat="45.83768" lon="4.73123">
        <ele>338.37244</ele>
        <time>2023-06-29T14:22:40.000Z</time>
      </trkpt>
      <trkpt lat="45.83769" lon="4.73127">
        <ele>338.30075</ele>
        <time>2023-06-29T14:22:41.000Z</time>
      </trkpt>
      <trkpt lat="45.83771" lon="4.73132">
        <ele>338.19638</ele>
        <time>2023-06-29T14:22:42.000Z</time>
      </trkpt>
      <trkpt lat="45.83773" lon="4.73136">
        <ele>338.16821</ele>
        <time>2023-06-29T14:22:43.000Z</time>
      </trkpt>
      <trkpt lat="45.83774" lon="4.73139">
        <ele>338.19202</ele>
        <time>2023-06-29T14:22:44.000Z</time>
      </trkpt>
      <trkpt lat="45.83776" lon="4.73143">
        <ele>338.19736</ele>
        <time>2023-06-29T14:22:45.000Z</time>
      </trkpt>
      <trkpt lat="45.83777" lon="4.73147">
        <ele>338.26297</ele>
        <time>2023-06-29T14:22:46.000Z</time>
      </trkpt>
      <trkpt lat="45.83778" lon="4.73151">
        <ele>338.30533</ele>
        <time>2023-06-29T14:22:47.000Z</time>
      </trkpt>
      <trkpt lat="45.83779" lon="4.73154">
        <ele>338.36111</ele>
        <time>2023-06-29T14:22:48.000Z</time>
      </trkpt>
      <trkpt lat="45.8378" lon="4.73157">
        <ele>338.45319</ele>
        <time>2023-06-29T14:22:49.000Z</time>
      </trkpt>
      <trkpt lat="45.83781" lon="4.7316">
        <ele>338.49854</ele>
        <time>2023-06-29T14:22:50.000Z</time>
      </trkpt>
      <trkpt lat="45.83781" lon="4.73164">
        <ele>338.53867</ele>
        <time>2023-06-29T14:22:51.000Z</time>
      </trkpt>
      <trkpt lat="45.83782" lon="4.73168">
        <ele>338.56671</ele>
        <time>2023-06-29T14:22:52.000Z</time>
      </trkpt>
      <trkpt lat="45.83783" lon="4.73172">
        <ele>338.65298</ele>
        <time>2023-06-29T14:22:53.000Z</time>
      </trkpt>
      <trkpt lat="45.83783" lon="4.73176">
        <ele>338.78775</ele>
        <time>2023-06-29T14:22:54.000Z</time>
      </trkpt>
      <trkpt lat="45.83784" lon="4.73179">
        <ele>338.93643</ele>
        <time>2023-06-29T14:22:55.000Z</time>
      </trkpt>
      <trkpt lat="45.83786" lon="4.7318">
        <ele>339.09546</ele>
        <time>2023-06-29T14:22:56.000Z</time>
      </trkpt>
      <trkpt lat="45.83788" lon="4.73179">
        <ele>339.43954</ele>
        <time>2023-06-29T14:22:57.000Z</time>
      </trkpt>
      <trkpt lat="45.8379" lon="4.73177">
        <ele>339.77338</ele>
        <time>2023-06-29T14:22:58.000Z</time>
      </trkpt>
      <trkpt lat="45.83792" lon="4.73175">
        <ele>340.0686</ele>
        <time>2023-06-29T14:22:59.000Z</time>
      </trkpt>
      <trkpt lat="45.83795" lon="4.73173">
        <ele>340.31882</ele>
        <time>2023-06-29T14:23:00.000Z</time>
      </trkpt>
      <trkpt lat="45.83797" lon="4.73171">
        <ele>340.54843</ele>
        <time>2023-06-29T14:23:01.000Z</time>
      </trkpt>
      <trkpt lat="45.83799" lon="4.73168">
        <ele>340.86737</ele>
        <time>2023-06-29T14:23:02.000Z</time>
      </trkpt>
      <trkpt lat="45.83802" lon="4.73165">
        <ele>340.91434</ele>
        <time>2023-06-29T14:23:03.000Z</time>
      </trkpt>
      <trkpt lat="45.83804" lon="4.73163">
        <ele>340.97235</ele>
        <time>2023-06-29T14:23:04.000Z</time>
      </trkpt>
      <trkpt lat="45.83806" lon="4.7316">
        <ele>340.98932</ele>
        <time>2023-06-29T14:23:05.000Z</time>
      </trkpt>
      <trkpt lat="45.83809" lon="4.73158">
        <ele>341.02545</ele>
        <time>2023-06-29T14:23:06.000Z</time>
      </trkpt>
      <trkpt lat="45.83811" lon="4.73156">
        <ele>341.03607</ele>
        <time>2023-06-29T14:23:07.000Z</time>
      </trkpt>
      <trkpt lat="45.83813" lon="4.73154">
        <ele>341.05405</ele>
        <time>2023-06-29T14:23:08.000Z</time>
      </trkpt>
      <trkpt lat="45.83816" lon="4.73151">
        <ele>341.07419</ele>
        <time>2023-06-29T14:23:09.000Z</time>
      </trkpt>
      <trkpt lat="45.83818" lon="4.73149">
        <ele>341.07242</ele>
        <time>2023-06-29T14:23:10.000Z</time>
      </trkpt>
      <trkpt lat="45.8382" lon="4.73147">
        <ele>341.06061</ele>
        <time>2023-06-29T14:23:11.000Z</time>
      </trkpt>
      <trkpt lat="45.83823" lon="4.73145">
        <ele>341.03552</ele>
        <time>2023-06-29T14:23:12.000Z</time>
      </trkpt>
      <trkpt lat="45.83825" lon="4.73143">
        <ele>341.13312</ele>
        <time>2023-06-29T14:23:13.000Z</time>
      </trkpt>
      <trkpt lat="45.83828" lon="4.73142">
        <ele>341.25143</ele>
        <time>2023-06-29T14:23:14.000Z</time>
      </trkpt>
      <trkpt lat="45.83831" lon="4.7314">
        <ele>341.38153</ele>
        <time>2023-06-29T14:23:15.000Z</time>
      </trkpt>
      <trkpt lat="45.83834" lon="4.73139">
        <ele>341.52176</ele>
        <time>2023-06-29T14:23:16.000Z</time>
      </trkpt>
      <trkpt lat="45.83837" lon="4.73138">
        <ele>341.5556</ele>
        <time>2023-06-29T14:23:17.000Z</time>
      </trkpt>
      <trkpt lat="45.83839" lon="4.73136">
        <ele>341.63031</ele>
        <time>2023-06-29T14:23:18.000Z</time>
      </trkpt>
      <trkpt lat="45.83841" lon="4.73135">
        <ele>341.71005</ele>
        <time>2023-06-29T14:23:19.000Z</time>
      </trkpt>
      <trkpt lat="45.83843" lon="4.73133">
        <ele>341.76804</ele>
        <time>2023-06-29T14:23:20.000Z</time>
      </trkpt>
      <trkpt lat="45.83846" lon="4.73131">
        <ele>341.82675</ele>
        <time>2023-06-29T14:23:21.000Z</time>
      </trkpt>
      <trkpt lat="45.83849" lon="4.73129">
        <ele>341.84698</ele>
        <time>2023-06-29T14:23:22.000Z</time>
      </trkpt>
      <trkpt lat="45.83852" lon="4.73127">
        <ele>342.17383</ele>
        <time>2023-06-29T14:23:23.000Z</time>
      </trkpt>
      <trkpt lat="45.83855" lon="4.73125">
        <ele>342.49371</ele>
        <time>2023-06-29T14:23:24.000Z</time>
      </trkpt>
      <trkpt lat="45.83857" lon="4.73124">
        <ele>342.85004</ele>
        <time>2023-06-29T14:23:25.000Z</time>
      </trkpt>
      <trkpt lat="45.83859" lon="4.73123">
        <ele>342.95782</ele>
        <time>2023-06-29T14:23:26.000Z</time>
      </trkpt>
      <trkpt lat="45.83862" lon="4.73122">
        <ele>343.11203</ele>
        <time>2023-06-29T14:23:27.000Z</time>
      </trkpt>
      <trkpt lat="45.83865" lon="4.7312">
        <ele>343.22855</ele>
        <time>2023-06-29T14:23:28.000Z</time>
      </trkpt>
      <trkpt lat="45.83868" lon="4.73118">
        <ele>343.35818</ele>
        <time>2023-06-29T14:23:29.000Z</time>
      </trkpt>
      <trkpt lat="45.83871" lon="4.73116">
        <ele>343.49979</ele>
        <time>2023-06-29T14:23:30.000Z</time>
      </trkpt>
      <trkpt lat="45.83874" lon="4.73114">
        <ele>343.64005</ele>
        <time>2023-06-29T14:23:31.000Z</time>
      </trkpt>
      <trkpt lat="45.83878" lon="4.73112">
        <ele>343.76196</ele>
        <time>2023-06-29T14:23:32.000Z</time>
      </trkpt>
      <trkpt lat="45.83881" lon="4.7311">
        <ele>343.74261</ele>
        <time>2023-06-29T14:23:33.000Z</time>
      </trkpt>
      <trkpt lat="45.83884" lon="4.73109">
        <ele>343.70923</ele>
        <time>2023-06-29T14:23:34.000Z</time>
      </trkpt>
      <trkpt lat="45.83888" lon="4.73108">
        <ele>343.64575</ele>
        <time>2023-06-29T14:23:35.000Z</time>
      </trkpt>
      <trkpt lat="45.83892" lon="4.73108">
        <ele>343.57864</ele>
        <time>2023-06-29T14:23:36.000Z</time>
      </trkpt>
      <trkpt lat="45.83896" lon="4.73107">
        <ele>343.46964</ele>
        <time>2023-06-29T14:23:37.000Z</time>
      </trkpt>
      <trkpt lat="45.839" lon="4.73107">
        <ele>343.43744</ele>
        <time>2023-06-29T14:23:38.000Z</time>
      </trkpt>
      <trkpt lat="45.83903" lon="4.73107">
        <ele>343.4162</ele>
        <time>2023-06-29T14:23:39.000Z</time>
      </trkpt>
      <trkpt lat="45.83908" lon="4.73106">
        <ele>343.45572</ele>
        <time>2023-06-29T14:23:40.000Z</time>
      </trkpt>
      <trkpt lat="45.83912" lon="4.73105">
        <ele>343.52899</ele>
        <time>2023-06-29T14:23:41.000Z</time>
      </trkpt>
      <trkpt lat="45.83916" lon="4.73104">
        <ele>343.32233</ele>
        <time>2023-06-29T14:23:42.000Z</time>
      </trkpt>
      <trkpt lat="45.8392" lon="4.73103">
        <ele>343.09082</ele>
        <time>2023-06-29T14:23:43.000Z</time>
      </trkpt>
      <trkpt lat="45.83925" lon="4.73102">
        <ele>342.84906</ele>
        <time>2023-06-29T14:23:44.000Z</time>
      </trkpt>
      <trkpt lat="45.8393" lon="4.73101">
        <ele>342.57193</ele>
        <time>2023-06-29T14:23:45.000Z</time>
      </trkpt>
      <trkpt lat="45.83935" lon="4.731">
        <ele>342.51883</ele>
        <time>2023-06-29T14:23:46.000Z</time>
      </trkpt>
      <trkpt lat="45.8394" lon="4.73099">
        <ele>342.42725</ele>
        <time>2023-06-29T14:23:47.000Z</time>
      </trkpt>
      <trkpt lat="45.83946" lon="4.73098">
        <ele>342.35394</ele>
        <time>2023-06-29T14:23:48.000Z</time>
      </trkpt>
      <trkpt lat="45.83951" lon="4.73097">
        <ele>342.2674</ele>
        <time>2023-06-29T14:23:49.000Z</time>
      </trkpt>
      <trkpt lat="45.83956" lon="4.73096">
        <ele>342.26523</ele>
        <time>2023-06-29T14:23:50.000Z</time>
      </trkpt>
      <trkpt lat="45.83961" lon="4.73095">
        <ele>342.25522</ele>
        <time>2023-06-29T14:23:51.000Z</time>
      </trkpt>
      <trkpt lat="45.83967" lon="4.73093">
        <ele>342.25528</ele>
        <time>2023-06-29T14:23:52.000Z</time>
      </trkpt>
      <trkpt lat="45.83972" lon="4.7309">
        <ele>342.27505</ele>
        <time>2023-06-29T14:23:53.000Z</time>
      </trkpt>
      <trkpt lat="45.83976" lon="4.73088">
        <ele>342.26117</ele>
        <time>2023-06-29T14:23:54.000Z</time>
      </trkpt>
      <trkpt lat="45.83981" lon="4.73087">
        <ele>342.25299</ele>
        <time>2023-06-29T14:23:55.000Z</time>
      </trkpt>
      <trkpt lat="45.83986" lon="4.73087">
        <ele>342.21701</ele>
        <time>2023-06-29T14:23:56.000Z</time>
      </trkpt>
      <trkpt lat="45.83989" lon="4.73089">
        <ele>342.29532</ele>
        <time>2023-06-29T14:23:57.000Z</time>
      </trkpt>
      <trkpt lat="45.83992" lon="4.73095">
        <ele>342.2594</ele>
        <time>2023-06-29T14:23:58.000Z</time>
      </trkpt>
      <trkpt lat="45.83994" lon="4.73103">
        <ele>342.31735</ele>
        <time>2023-06-29T14:23:59.000Z</time>
      </trkpt>
      <trkpt lat="45.83996" lon="4.7311">
        <ele>342.33658</ele>
        <time>2023-06-29T14:24:00.000Z</time>
      </trkpt>
      <trkpt lat="45.83997" lon="4.73118">
        <ele>342.00043</ele>
        <time>2023-06-29T14:24:01.000Z</time>
      </trkpt>
      <trkpt lat="45.83998" lon="4.73127">
        <ele>341.41974</ele>
        <time>2023-06-29T14:24:02.000Z</time>
      </trkpt>
      <trkpt lat="45.83999" lon="4.73134">
        <ele>340.78467</ele>
        <time>2023-06-29T14:24:03.000Z</time>
      </trkpt>
      <trkpt lat="45.83999" lon="4.73143">
        <ele>340.09573</ele>
        <time>2023-06-29T14:24:04.000Z</time>
      </trkpt>
      <trkpt lat="45.84" lon="4.73149">
        <ele>339.40131</ele>
        <time>2023-06-29T14:24:05.000Z</time>
      </trkpt>
      <trkpt lat="45.84" lon="4.73159">
        <ele>338.64783</ele>
        <time>2023-06-29T14:24:06.000Z</time>
      </trkpt>
      <trkpt lat="45.84" lon="4.73168">
        <ele>338.5043</ele>
        <time>2023-06-29T14:24:07.000Z</time>
      </trkpt>
      <trkpt lat="45.84" lon="4.73178">
        <ele>338.36023</ele>
        <time>2023-06-29T14:24:08.000Z</time>
      </trkpt>
      <trkpt lat="45.84001" lon="4.73187">
        <ele>338.19168</ele>
        <time>2023-06-29T14:24:09.000Z</time>
      </trkpt>
      <trkpt lat="45.84002" lon="4.73197">
        <ele>337.92755</ele>
        <time>2023-06-29T14:24:10.000Z</time>
      </trkpt>
      <trkpt lat="45.84003" lon="4.73206">
        <ele>337.68951</ele>
        <time>2023-06-29T14:24:11.000Z</time>
      </trkpt>
      <trkpt lat="45.84004" lon="4.73214">
        <ele>337.38245</ele>
        <time>2023-06-29T14:24:12.000Z</time>
      </trkpt>
      <trkpt lat="45.84004" lon="4.73224">
        <ele>337.21954</ele>
        <time>2023-06-29T14:24:13.000Z</time>
      </trkpt>
      <trkpt lat="45.84005" lon="4.73232">
        <ele>337.11212</ele>
        <time>2023-06-29T14:24:14.000Z</time>
      </trkpt>
      <trkpt lat="45.84007" lon="4.73241">
        <ele>337.00354</ele>
        <time>2023-06-29T14:24:15.000Z</time>
      </trkpt>
      <trkpt lat="45.84012" lon="4.73247">
        <ele>336.92279</ele>
        <time>2023-06-29T14:24:16.000Z</time>
      </trkpt>
      <trkpt lat="45.84015" lon="4.73253">
        <ele>336.73682</ele>
        <time>2023-06-29T14:24:17.000Z</time>
      </trkpt>
      <trkpt lat="45.84019" lon="4.73258">
        <ele>336.55106</ele>
        <time>2023-06-29T14:24:18.000Z</time>
      </trkpt>
      <trkpt lat="45.84024" lon="4.73263">
        <ele>336.30753</ele>
        <time>2023-06-29T14:24:19.000Z</time>
      </trkpt>
      <trkpt lat="45.84029" lon="4.73268">
        <ele>336.06271</ele>
        <time>2023-06-29T14:24:20.000Z</time>
      </trkpt>
      <trkpt lat="45.84034" lon="4.73273">
        <ele>336.13379</ele>
        <time>2023-06-29T14:24:21.000Z</time>
      </trkpt>
      <trkpt lat="45.84039" lon="4.73278">
        <ele>336.7291</ele>
        <time>2023-06-29T14:24:22.000Z</time>
      </trkpt>
      <trkpt lat="45.84043" lon="4.73283">
        <ele>337.33112</ele>
        <time>2023-06-29T14:24:23.000Z</time>
      </trkpt>
      <trkpt lat="45.84047" lon="4.73287">
        <ele>337.99677</ele>
        <time>2023-06-29T14:24:24.000Z</time>
      </trkpt>
      <trkpt lat="45.84052" lon="4.73291">
        <ele>338.67825</ele>
        <time>2023-06-29T14:24:25.000Z</time>
      </trkpt>
      <trkpt lat="45.84056" lon="4.73296">
        <ele>339.42932</ele>
        <time>2023-06-29T14:24:26.000Z</time>
      </trkpt>
      <trkpt lat="45.8406" lon="4.73299">
        <ele>339.58994</ele>
        <time>2023-06-29T14:24:27.000Z</time>
      </trkpt>
      <trkpt lat="45.84064" lon="4.73304">
        <ele>339.75168</ele>
        <time>2023-06-29T14:24:28.000Z</time>
      </trkpt>
      <trkpt lat="45.84068" lon="4.73307">
        <ele>339.93982</ele>
        <time>2023-06-29T14:24:29.000Z</time>
      </trkpt>
      <trkpt lat="45.84072" lon="4.73312">
        <ele>340.12158</ele>
        <time>2023-06-29T14:24:30.000Z</time>
      </trkpt>
      <trkpt lat="45.84076" lon="4.73315">
        <ele>340.29401</ele>
        <time>2023-06-29T14:24:31.000Z</time>
      </trkpt>
      <trkpt lat="45.8408" lon="4.73318">
        <ele>340.53241</ele>
        <time>2023-06-29T14:24:32.000Z</time>
      </trkpt>
      <trkpt lat="45.84084" lon="4.73321">
        <ele>340.60168</ele>
        <time>2023-06-29T14:24:33.000Z</time>
      </trkpt>
      <trkpt lat="45.84088" lon="4.73324">
        <ele>340.64532</ele>
        <time>2023-06-29T14:24:34.000Z</time>
      </trkpt>
      <trkpt lat="45.84093" lon="4.73327">
        <ele>340.68375</ele>
        <time>2023-06-29T14:24:35.000Z</time>
      </trkpt>
      <trkpt lat="45.84097" lon="4.73329">
        <ele>340.70502</ele>
        <time>2023-06-29T14:24:36.000Z</time>
      </trkpt>
      <trkpt lat="45.84102" lon="4.73333">
        <ele>340.75449</ele>
        <time>2023-06-29T14:24:37.000Z</time>
      </trkpt>
      <trkpt lat="45.84106" lon="4.73336">
        <ele>340.8154</ele>
        <time>2023-06-29T14:24:38.000Z</time>
      </trkpt>
      <trkpt lat="45.84111" lon="4.73339">
        <ele>340.86118</ele>
        <time>2023-06-29T14:24:39.000Z</time>
      </trkpt>
      <trkpt lat="45.84115" lon="4.73342">
        <ele>340.89807</ele>
        <time>2023-06-29T14:24:40.000Z</time>
      </trkpt>
      <trkpt lat="45.84119" lon="4.73344">
        <ele>340.94672</ele>
        <time>2023-06-29T14:24:41.000Z</time>
      </trkpt>
      <trkpt lat="45.84124" lon="4.73347">
        <ele>340.95538</ele>
        <time>2023-06-29T14:24:42.000Z</time>
      </trkpt>
      <trkpt lat="45.84128" lon="4.7335">
        <ele>340.96173</ele>
        <time>2023-06-29T14:24:43.000Z</time>
      </trkpt>
      <trkpt lat="45.84133" lon="4.73353">
        <ele>340.92633</ele>
        <time>2023-06-29T14:24:44.000Z</time>
      </trkpt>
      <trkpt lat="45.84138" lon="4.73356">
        <ele>340.88651</ele>
        <time>2023-06-29T14:24:45.000Z</time>
      </trkpt>
      <trkpt lat="45.84142" lon="4.73359">
        <ele>340.84232</ele>
        <time>2023-06-29T14:24:46.000Z</time>
      </trkpt>
      <trkpt lat="45.84147" lon="4.73363">
        <ele>340.77609</ele>
        <time>2023-06-29T14:24:47.000Z</time>
      </trkpt>
      <trkpt lat="45.84151" lon="4.73366">
        <ele>340.70074</ele>
        <time>2023-06-29T14:24:48.000Z</time>
      </trkpt>
      <trkpt lat="45.84156" lon="4.7337">
        <ele>339.90085</ele>
        <time>2023-06-29T14:24:49.000Z</time>
      </trkpt>
      <trkpt lat="45.84161" lon="4.73374">
        <ele>339.09509</ele>
        <time>2023-06-29T14:24:50.000Z</time>
      </trkpt>
      <trkpt lat="45.84166" lon="4.73378">
        <ele>338.32471</ele>
        <time>2023-06-29T14:24:51.000Z</time>
      </trkpt>
      <trkpt lat="45.84171" lon="4.73381">
        <ele>337.50705</ele>
        <time>2023-06-29T14:24:52.000Z</time>
      </trkpt>
      <trkpt lat="45.84174" lon="4.73387">
        <ele>336.68048</ele>
        <time>2023-06-29T14:24:53.000Z</time>
      </trkpt>
      <trkpt lat="45.84174" lon="4.73395">
        <ele>335.82352</ele>
        <time>2023-06-29T14:24:54.000Z</time>
      </trkpt>
      <trkpt lat="45.84171" lon="4.73401">
        <ele>334.9628</ele>
        <time>2023-06-29T14:24:55.000Z</time>
      </trkpt>
      <trkpt lat="45.84167" lon="4.73407">
        <ele>334.12518</ele>
        <time>2023-06-29T14:24:56.000Z</time>
      </trkpt>
      <trkpt lat="45.84163" lon="4.73412">
        <ele>333.31134</ele>
        <time>2023-06-29T14:24:57.000Z</time>
      </trkpt>
      <trkpt lat="45.84156" lon="4.73416">
        <ele>332.47137</ele>
        <time>2023-06-29T14:24:58.000Z</time>
      </trkpt>
      <trkpt lat="45.8415" lon="4.73422">
        <ele>331.6102</ele>
        <time>2023-06-29T14:24:59.000Z</time>
      </trkpt>
      <trkpt lat="45.84143" lon="4.73428">
        <ele>330.73468</ele>
        <time>2023-06-29T14:25:00.000Z</time>
      </trkpt>
      <trkpt lat="45.84137" lon="4.73434">
        <ele>329.81995</ele>
        <time>2023-06-29T14:25:01.000Z</time>
      </trkpt>
      <trkpt lat="45.84131" lon="4.73441">
        <ele>329.40735</ele>
        <time>2023-06-29T14:25:02.000Z</time>
      </trkpt>
      <trkpt lat="45.84124" lon="4.73449">
        <ele>328.96521</ele>
        <time>2023-06-29T14:25:03.000Z</time>
      </trkpt>
      <trkpt lat="45.84117" lon="4.73456">
        <ele>328.52655</ele>
        <time>2023-06-29T14:25:04.000Z</time>
      </trkpt>
      <trkpt lat="45.84111" lon="4.73464">
        <ele>328.0806</ele>
        <time>2023-06-29T14:25:05.000Z</time>
      </trkpt>
      <trkpt lat="45.84105" lon="4.73473">
        <ele>327.59454</ele>
        <time>2023-06-29T14:25:06.000Z</time>
      </trkpt>
      <trkpt lat="45.841" lon="4.7348">
        <ele>327.13242</ele>
        <time>2023-06-29T14:25:07.000Z</time>
      </trkpt>
      <trkpt lat="45.84096" lon="4.73487">
        <ele>326.65314</ele>
        <time>2023-06-29T14:25:08.000Z</time>
      </trkpt>
      <trkpt lat="45.84092" lon="4.73493">
        <ele>326.90698</ele>
        <time>2023-06-29T14:25:09.000Z</time>
      </trkpt>
      <trkpt lat="45.84088" lon="4.73499">
        <ele>327.16302</ele>
        <time>2023-06-29T14:25:10.000Z</time>
      </trkpt>
      <trkpt lat="45.84084" lon="4.73505">
        <ele>327.36823</ele>
        <time>2023-06-29T14:25:11.000Z</time>
      </trkpt>
      <trkpt lat="45.8408" lon="4.73511">
        <ele>327.63586</ele>
        <time>2023-06-29T14:25:12.000Z</time>
      </trkpt>
      <trkpt lat="45.84075" lon="4.73516">
        <ele>327.93097</ele>
        <time>2023-06-29T14:25:13.000Z</time>
      </trkpt>
      <trkpt lat="45.84071" lon="4.73522">
        <ele>328.27509</ele>
        <time>2023-06-29T14:25:14.000Z</time>
      </trkpt>
      <trkpt lat="45.84066" lon="4.73526">
        <ele>328.63464</ele>
        <time>2023-06-29T14:25:15.000Z</time>
      </trkpt>
      <trkpt lat="45.84062" lon="4.73531">
        <ele>328.99265</ele>
        <time>2023-06-29T14:25:16.000Z</time>
      </trkpt>
      <trkpt lat="45.84057" lon="4.73535">
        <ele>329.34079</ele>
        <time>2023-06-29T14:25:17.000Z</time>
      </trkpt>
      <trkpt lat="45.84053" lon="4.73538">
        <ele>329.73685</ele>
        <time>2023-06-29T14:25:18.000Z</time>
      </trkpt>
      <trkpt lat="45.84049" lon="4.73541">
        <ele>330.14609</ele>
        <time>2023-06-29T14:25:19.000Z</time>
      </trkpt>
      <trkpt lat="45.84045" lon="4.73544">
        <ele>330.58957</ele>
        <time>2023-06-29T14:25:20.000Z</time>
      </trkpt>
      <trkpt lat="45.84041" lon="4.73547">
        <ele>331.08624</ele>
        <time>2023-06-29T14:25:21.000Z</time>
      </trkpt>
      <trkpt lat="45.84037" lon="4.7355">
        <ele>331.10873</ele>
        <time>2023-06-29T14:25:22.000Z</time>
      </trkpt>
      <trkpt lat="45.84035" lon="4.73555">
        <ele>331.17624</ele>
        <time>2023-06-29T14:25:23.000Z</time>
      </trkpt>
      <trkpt lat="45.84033" lon="4.73558">
        <ele>331.39694</ele>
        <time>2023-06-29T14:25:24.000Z</time>
      </trkpt>
      <trkpt lat="45.84031" lon="4.73563">
        <ele>331.62289</ele>
        <time>2023-06-29T14:25:25.000Z</time>
      </trkpt>
      <trkpt lat="45.84028" lon="4.73569">
        <ele>331.88464</ele>
        <time>2023-06-29T14:25:26.000Z</time>
      </trkpt>
      <trkpt lat="45.84026" lon="4.73573">
        <ele>332.14182</ele>
        <time>2023-06-29T14:25:27.000Z</time>
      </trkpt>
      <trkpt lat="45.84023" lon="4.73579">
        <ele>332.44302</ele>
        <time>2023-06-29T14:25:28.000Z</time>
      </trkpt>
      <trkpt lat="45.84021" lon="4.73583">
        <ele>332.74323</ele>
        <time>2023-06-29T14:25:29.000Z</time>
      </trkpt>
      <trkpt lat="45.84021" lon="4.73589">
        <ele>333.05066</ele>
        <time>2023-06-29T14:25:30.000Z</time>
      </trkpt>
      <trkpt lat="45.84021" lon="4.73595">
        <ele>333.3775</ele>
        <time>2023-06-29T14:25:31.000Z</time>
      </trkpt>
      <trkpt lat="45.8402" lon="4.736">
        <ele>333.70261</ele>
        <time>2023-06-29T14:25:32.000Z</time>
      </trkpt>
      <trkpt lat="45.84018" lon="4.73606">
        <ele>334.01135</ele>
        <time>2023-06-29T14:25:33.000Z</time>
      </trkpt>
      <trkpt lat="45.84015" lon="4.73612">
        <ele>334.29938</ele>
        <time>2023-06-29T14:25:34.000Z</time>
      </trkpt>
      <trkpt lat="45.84012" lon="4.73617">
        <ele>334.55804</ele>
        <time>2023-06-29T14:25:35.000Z</time>
      </trkpt>
      <trkpt lat="45.84008" lon="4.73622">
        <ele>334.79401</ele>
        <time>2023-06-29T14:25:36.000Z</time>
      </trkpt>
      <trkpt lat="45.84003" lon="4.73626">
        <ele>335.02139</ele>
        <time>2023-06-29T14:25:37.000Z</time>
      </trkpt>
      <trkpt lat="45.83998" lon="4.73628">
        <ele>335.22083</ele>
        <time>2023-06-29T14:25:38.000Z</time>
      </trkpt>
      <trkpt lat="45.83992" lon="4.73631">
        <ele>335.41992</ele>
        <time>2023-06-29T14:25:39.000Z</time>
      </trkpt>
      <trkpt lat="45.83987" lon="4.73631">
        <ele>335.59753</ele>
        <time>2023-06-29T14:25:40.000Z</time>
      </trkpt>
      <trkpt lat="45.83982" lon="4.73631">
        <ele>335.74496</ele>
        <time>2023-06-29T14:25:41.000Z</time>
      </trkpt>
      <trkpt lat="45.83977" lon="4.73632">
        <ele>335.84927</ele>
        <time>2023-06-29T14:25:42.000Z</time>
      </trkpt>
      <trkpt lat="45.83972" lon="4.73634">
        <ele>335.92694</ele>
        <time>2023-06-29T14:25:43.000Z</time>
      </trkpt>
      <trkpt lat="45.83968" lon="4.73639">
        <ele>335.84723</ele>
        <time>2023-06-29T14:25:44.000Z</time>
      </trkpt>
      <trkpt lat="45.83964" lon="4.73644">
        <ele>335.86752</ele>
        <time>2023-06-29T14:25:45.000Z</time>
      </trkpt>
      <trkpt lat="45.83959" lon="4.73651">
        <ele>335.51172</ele>
        <time>2023-06-29T14:25:46.000Z</time>
      </trkpt>
      <trkpt lat="45.83956" lon="4.73659">
        <ele>335.21887</ele>
        <time>2023-06-29T14:25:47.000Z</time>
      </trkpt>
      <trkpt lat="45.83954" lon="4.73668">
        <ele>334.9097</ele>
        <time>2023-06-29T14:25:48.000Z</time>
      </trkpt>
      <trkpt lat="45.83956" lon="4.73677">
        <ele>334.58844</ele>
        <time>2023-06-29T14:25:49.000Z</time>
      </trkpt>
      <trkpt lat="45.83957" lon="4.73687">
        <ele>334.29175</ele>
        <time>2023-06-29T14:25:50.000Z</time>
      </trkpt>
      <trkpt lat="45.83955" lon="4.73695">
        <ele>333.97076</ele>
        <time>2023-06-29T14:25:51.000Z</time>
      </trkpt>
      <trkpt lat="45.83952" lon="4.73704">
        <ele>333.64203</ele>
        <time>2023-06-29T14:25:52.000Z</time>
      </trkpt>
      <trkpt lat="45.83949" lon="4.73712">
        <ele>333.3161</ele>
        <time>2023-06-29T14:25:53.000Z</time>
      </trkpt>
      <trkpt lat="45.83945" lon="4.7372">
        <ele>332.98837</ele>
        <time>2023-06-29T14:25:54.000Z</time>
      </trkpt>
      <trkpt lat="45.83941" lon="4.73728">
        <ele>332.6474</ele>
        <time>2023-06-29T14:25:55.000Z</time>
      </trkpt>
      <trkpt lat="45.83937" lon="4.73737">
        <ele>332.2793</ele>
        <time>2023-06-29T14:25:56.000Z</time>
      </trkpt>
      <trkpt lat="45.83934" lon="4.73747">
        <ele>331.89139</ele>
        <time>2023-06-29T14:25:57.000Z</time>
      </trkpt>
      <trkpt lat="45.83933" lon="4.73757">
        <ele>331.52667</ele>
        <time>2023-06-29T14:25:58.000Z</time>
      </trkpt>
      <trkpt lat="45.83933" lon="4.73769">
        <ele>331.1319</ele>
        <time>2023-06-29T14:25:59.000Z</time>
      </trkpt>
      <trkpt lat="45.83934" lon="4.7378">
        <ele>330.72766</ele>
        <time>2023-06-29T14:26:00.000Z</time>
      </trkpt>
      <trkpt lat="45.83937" lon="4.7379">
        <ele>330.33115</ele>
        <time>2023-06-29T14:26:01.000Z</time>
      </trkpt>
      <trkpt lat="45.83942" lon="4.738">
        <ele>329.95306</ele>
        <time>2023-06-29T14:26:02.000Z</time>
      </trkpt>
      <trkpt lat="45.83948" lon="4.73808">
        <ele>329.56097</ele>
        <time>2023-06-29T14:26:03.000Z</time>
      </trkpt>
      <trkpt lat="45.83955" lon="4.73815">
        <ele>329.16385</ele>
        <time>2023-06-29T14:26:04.000Z</time>
      </trkpt>
      <trkpt lat="45.83962" lon="4.73822">
        <ele>328.66107</ele>
        <time>2023-06-29T14:26:05.000Z</time>
      </trkpt>
      <trkpt lat="45.8397" lon="4.7383">
        <ele>328.52356</ele>
        <time>2023-06-29T14:26:06.000Z</time>
      </trkpt>
      <trkpt lat="45.83977" lon="4.73838">
        <ele>328.30167</ele>
        <time>2023-06-29T14:26:07.000Z</time>
      </trkpt>
      <trkpt lat="45.83985" lon="4.73846">
        <ele>328.04303</ele>
        <time>2023-06-29T14:26:08.000Z</time>
      </trkpt>
      <trkpt lat="45.83994" lon="4.73848">
        <ele>327.81284</ele>
        <time>2023-06-29T14:26:09.000Z</time>
      </trkpt>
      <trkpt lat="45.84001" lon="4.73849">
        <ele>327.78281</ele>
        <time>2023-06-29T14:26:10.000Z</time>
      </trkpt>
      <trkpt lat="45.8401" lon="4.7385">
        <ele>327.77325</ele>
        <time>2023-06-29T14:26:11.000Z</time>
      </trkpt>
      <trkpt lat="45.84018" lon="4.73849">
        <ele>327.74722</ele>
        <time>2023-06-29T14:26:12.000Z</time>
      </trkpt>
      <trkpt lat="45.84026" lon="4.73847">
        <ele>327.7641</ele>
        <time>2023-06-29T14:26:13.000Z</time>
      </trkpt>
      <trkpt lat="45.84034" lon="4.73846">
        <ele>327.82233</ele>
        <time>2023-06-29T14:26:14.000Z</time>
      </trkpt>
      <trkpt lat="45.84042" lon="4.73843">
        <ele>327.88837</ele>
        <time>2023-06-29T14:26:15.000Z</time>
      </trkpt>
      <trkpt lat="45.8405" lon="4.73839">
        <ele>327.97031</ele>
        <time>2023-06-29T14:26:16.000Z</time>
      </trkpt>
      <trkpt lat="45.84058" lon="4.73836">
        <ele>328.0683</ele>
        <time>2023-06-29T14:26:17.000Z</time>
      </trkpt>
      <trkpt lat="45.84066" lon="4.73833">
        <ele>328.18573</ele>
        <time>2023-06-29T14:26:18.000Z</time>
      </trkpt>
      <trkpt lat="45.84074" lon="4.73831">
        <ele>327.78931</ele>
        <time>2023-06-29T14:26:19.000Z</time>
      </trkpt>
      <trkpt lat="45.84082" lon="4.73828">
        <ele>327.40891</ele>
        <time>2023-06-29T14:26:20.000Z</time>
      </trkpt>
      <trkpt lat="45.84089" lon="4.73824">
        <ele>326.72568</ele>
        <time>2023-06-29T14:26:21.000Z</time>
      </trkpt>
      <trkpt lat="45.84096" lon="4.73822">
        <ele>326.04446</ele>
        <time>2023-06-29T14:26:22.000Z</time>
      </trkpt>
      <trkpt lat="45.84104" lon="4.7382">
        <ele>325.38629</ele>
        <time>2023-06-29T14:26:23.000Z</time>
      </trkpt>
      <trkpt lat="45.84109" lon="4.73818">
        <ele>324.71222</ele>
        <time>2023-06-29T14:26:24.000Z</time>
      </trkpt>
      <trkpt lat="45.84116" lon="4.73817">
        <ele>324.06476</ele>
        <time>2023-06-29T14:26:25.000Z</time>
      </trkpt>
      <trkpt lat="45.84123" lon="4.73817">
        <ele>323.43463</ele>
        <time>2023-06-29T14:26:26.000Z</time>
      </trkpt>
      <trkpt lat="45.84128" lon="4.73817">
        <ele>322.80002</ele>
        <time>2023-06-29T14:26:27.000Z</time>
      </trkpt>
      <trkpt lat="45.84133" lon="4.73817">
        <ele>322.18018</ele>
        <time>2023-06-29T14:26:28.000Z</time>
      </trkpt>
      <trkpt lat="45.84139" lon="4.73818">
        <ele>321.56039</ele>
        <time>2023-06-29T14:26:29.000Z</time>
      </trkpt>
      <trkpt lat="45.84144" lon="4.73819">
        <ele>320.73792</ele>
        <time>2023-06-29T14:26:30.000Z</time>
      </trkpt>
      <trkpt lat="45.84149" lon="4.7382">
        <ele>319.89908</ele>
        <time>2023-06-29T14:26:31.000Z</time>
      </trkpt>
      <trkpt lat="45.84154" lon="4.73822">
        <ele>319.06952</ele>
        <time>2023-06-29T14:26:32.000Z</time>
      </trkpt>
      <trkpt lat="45.84158" lon="4.73824">
        <ele>318.20349</ele>
        <time>2023-06-29T14:26:33.000Z</time>
      </trkpt>
      <trkpt lat="45.84162" lon="4.73825">
        <ele>317.31885</ele>
        <time>2023-06-29T14:26:34.000Z</time>
      </trkpt>
      <trkpt lat="45.84165" lon="4.73826">
        <ele>316.44733</ele>
        <time>2023-06-29T14:26:35.000Z</time>
      </trkpt>
      <trkpt lat="45.84168" lon="4.73829">
        <ele>315.60931</ele>
        <time>2023-06-29T14:26:36.000Z</time>
      </trkpt>
      <trkpt lat="45.8417" lon="4.73832">
        <ele>314.80829</ele>
        <time>2023-06-29T14:26:37.000Z</time>
      </trkpt>
      <trkpt lat="45.84169" lon="4.73834">
        <ele>314.12814</ele>
        <time>2023-06-29T14:26:38.000Z</time>
      </trkpt>
      <trkpt lat="45.84168" lon="4.73838">
        <ele>314.01007</ele>
        <time>2023-06-29T14:26:39.000Z</time>
      </trkpt>
      <trkpt lat="45.84166" lon="4.73841">
        <ele>313.87482</ele>
        <time>2023-06-29T14:26:40.000Z</time>
      </trkpt>
      <trkpt lat="45.84163" lon="4.73844">
        <ele>314.04611</ele>
        <time>2023-06-29T14:26:41.000Z</time>
      </trkpt>
      <trkpt lat="45.84162" lon="4.73847">
        <ele>314.2323</ele>
        <time>2023-06-29T14:26:42.000Z</time>
      </trkpt>
      <trkpt lat="45.84161" lon="4.73851">
        <ele>314.41803</ele>
        <time>2023-06-29T14:26:43.000Z</time>
      </trkpt>
      <trkpt lat="45.8416" lon="4.73855">
        <ele>314.67584</ele>
        <time>2023-06-29T14:26:44.000Z</time>
      </trkpt>
      <trkpt lat="45.84158" lon="4.73859">
        <ele>314.92484</ele>
        <time>2023-06-29T14:26:45.000Z</time>
      </trkpt>
      <trkpt lat="45.84156" lon="4.73863">
        <ele>315.22455</ele>
        <time>2023-06-29T14:26:46.000Z</time>
      </trkpt>
      <trkpt lat="45.84153" lon="4.73866">
        <ele>315.49591</ele>
        <time>2023-06-29T14:26:47.000Z</time>
      </trkpt>
      <trkpt lat="45.8415" lon="4.73868">
        <ele>315.80328</ele>
        <time>2023-06-29T14:26:48.000Z</time>
      </trkpt>
      <trkpt lat="45.84148" lon="4.73871">
        <ele>316.10446</ele>
        <time>2023-06-29T14:26:49.000Z</time>
      </trkpt>
      <trkpt lat="45.84145" lon="4.73874">
        <ele>316.42691</ele>
        <time>2023-06-29T14:26:50.000Z</time>
      </trkpt>
      <trkpt lat="45.84142" lon="4.73878">
        <ele>316.73715</ele>
        <time>2023-06-29T14:26:51.000Z</time>
      </trkpt>
      <trkpt lat="45.84139" lon="4.73882">
        <ele>317.05484</ele>
        <time>2023-06-29T14:26:52.000Z</time>
      </trkpt>
      <trkpt lat="45.84136" lon="4.73886">
        <ele>317.38092</ele>
        <time>2023-06-29T14:26:53.000Z</time>
      </trkpt>
      <trkpt lat="45.84133" lon="4.73889">
        <ele>317.71564</ele>
        <time>2023-06-29T14:26:54.000Z</time>
      </trkpt>
      <trkpt lat="45.8413" lon="4.73892">
        <ele>318.0972</ele>
        <time>2023-06-29T14:26:55.000Z</time>
      </trkpt>
      <trkpt lat="45.84127" lon="4.73896">
        <ele>318.47153</ele>
        <time>2023-06-29T14:26:56.000Z</time>
      </trkpt>
      <trkpt lat="45.84125" lon="4.73899">
        <ele>318.82544</ele>
        <time>2023-06-29T14:26:57.000Z</time>
      </trkpt>
      <trkpt lat="45.84122" lon="4.73903">
        <ele>318.9823</ele>
        <time>2023-06-29T14:26:58.000Z</time>
      </trkpt>
      <trkpt lat="45.8412" lon="4.73906">
        <ele>319.14487</ele>
        <time>2023-06-29T14:26:59.000Z</time>
      </trkpt>
      <trkpt lat="45.84118" lon="4.7391">
        <ele>319.32355</ele>
        <time>2023-06-29T14:27:00.000Z</time>
      </trkpt>
      <trkpt lat="45.84116" lon="4.73914">
        <ele>319.4873</ele>
        <time>2023-06-29T14:27:01.000Z</time>
      </trkpt>
      <trkpt lat="45.84114" lon="4.73918">
        <ele>319.62747</ele>
        <time>2023-06-29T14:27:02.000Z</time>
      </trkpt>
      <trkpt lat="45.84112" lon="4.73922">
        <ele>319.81317</ele>
        <time>2023-06-29T14:27:03.000Z</time>
      </trkpt>
      <trkpt lat="45.8411" lon="4.73925">
        <ele>319.978</ele>
        <time>2023-06-29T14:27:04.000Z</time>
      </trkpt>
      <trkpt lat="45.84107" lon="4.73928">
        <ele>320.1326</ele>
        <time>2023-06-29T14:27:05.000Z</time>
      </trkpt>
      <trkpt lat="45.84104" lon="4.73931">
        <ele>320.25067</ele>
        <time>2023-06-29T14:27:06.000Z</time>
      </trkpt>
      <trkpt lat="45.84101" lon="4.73935">
        <ele>320.4202</ele>
        <time>2023-06-29T14:27:07.000Z</time>
      </trkpt>
      <trkpt lat="45.84099" lon="4.73938">
        <ele>320.5545</ele>
        <time>2023-06-29T14:27:08.000Z</time>
      </trkpt>
      <trkpt lat="45.84098" lon="4.73942">
        <ele>320.6051</ele>
        <time>2023-06-29T14:27:09.000Z</time>
      </trkpt>
      <trkpt lat="45.84096" lon="4.73945">
        <ele>320.61621</ele>
        <time>2023-06-29T14:27:10.000Z</time>
      </trkpt>
      <trkpt lat="45.84093" lon="4.73949">
        <ele>320.67975</ele>
        <time>2023-06-29T14:27:11.000Z</time>
      </trkpt>
      <trkpt lat="45.8409" lon="4.73952">
        <ele>320.76035</ele>
        <time>2023-06-29T14:27:12.000Z</time>
      </trkpt>
      <trkpt lat="45.84087" lon="4.73955">
        <ele>320.7952</ele>
        <time>2023-06-29T14:27:13.000Z</time>
      </trkpt>
      <trkpt lat="45.84084" lon="4.73958">
        <ele>320.81122</ele>
        <time>2023-06-29T14:27:14.000Z</time>
      </trkpt>
      <trkpt lat="45.84081" lon="4.73962">
        <ele>320.79877</ele>
        <time>2023-06-29T14:27:15.000Z</time>
      </trkpt>
      <trkpt lat="45.84078" lon="4.73966">
        <ele>320.78198</ele>
        <time>2023-06-29T14:27:16.000Z</time>
      </trkpt>
      <trkpt lat="45.84076" lon="4.73971">
        <ele>320.74731</ele>
        <time>2023-06-29T14:27:17.000Z</time>
      </trkpt>
      <trkpt lat="45.84073" lon="4.73975">
        <ele>320.77716</ele>
        <time>2023-06-29T14:27:18.000Z</time>
      </trkpt>
      <trkpt lat="45.84071" lon="4.73979">
        <ele>320.76434</ele>
        <time>2023-06-29T14:27:19.000Z</time>
      </trkpt>
      <trkpt lat="45.84068" lon="4.73984">
        <ele>320.76581</ele>
        <time>2023-06-29T14:27:20.000Z</time>
      </trkpt>
      <trkpt lat="45.84066" lon="4.73988">
        <ele>320.8009</ele>
        <time>2023-06-29T14:27:21.000Z</time>
      </trkpt>
      <trkpt lat="45.84063" lon="4.73992">
        <ele>320.87323</ele>
        <time>2023-06-29T14:27:22.000Z</time>
      </trkpt>
      <trkpt lat="45.8406" lon="4.73996">
        <ele>320.85675</ele>
        <time>2023-06-29T14:27:23.000Z</time>
      </trkpt>
      <trkpt lat="45.84058" lon="4.74">
        <ele>320.82434</ele>
        <time>2023-06-29T14:27:24.000Z</time>
      </trkpt>
      <trkpt lat="45.84055" lon="4.74004">
        <ele>320.81473</ele>
        <time>2023-06-29T14:27:25.000Z</time>
      </trkpt>
      <trkpt lat="45.84053" lon="4.74009">
        <ele>321.43274</ele>
        <time>2023-06-29T14:27:26.000Z</time>
      </trkpt>
      <trkpt lat="45.84051" lon="4.74013">
        <ele>322.16522</ele>
        <time>2023-06-29T14:27:27.000Z</time>
      </trkpt>
      <trkpt lat="45.84048" lon="4.74018">
        <ele>322.91989</ele>
        <time>2023-06-29T14:27:28.000Z</time>
      </trkpt>
      <trkpt lat="45.84046" lon="4.74023">
        <ele>323.35785</ele>
        <time>2023-06-29T14:27:29.000Z</time>
      </trkpt>
      <trkpt lat="45.84044" lon="4.74028">
        <ele>323.84888</ele>
        <time>2023-06-29T14:27:30.000Z</time>
      </trkpt>
      <trkpt lat="45.84041" lon="4.74035">
        <ele>324.32611</ele>
        <time>2023-06-29T14:27:31.000Z</time>
      </trkpt>
      <trkpt lat="45.84038" lon="4.74039">
        <ele>324.79877</ele>
        <time>2023-06-29T14:27:32.000Z</time>
      </trkpt>
      <trkpt lat="45.84037" lon="4.74046">
        <ele>325.28091</ele>
        <time>2023-06-29T14:27:33.000Z</time>
      </trkpt>
      <trkpt lat="45.84035" lon="4.74052">
        <ele>325.74457</ele>
        <time>2023-06-29T14:27:34.000Z</time>
      </trkpt>
      <trkpt lat="45.84033" lon="4.74058">
        <ele>326.1853</ele>
        <time>2023-06-29T14:27:35.000Z</time>
      </trkpt>
      <trkpt lat="45.84031" lon="4.74064">
        <ele>326.61954</ele>
        <time>2023-06-29T14:27:36.000Z</time>
      </trkpt>
      <trkpt lat="45.84028" lon="4.74067">
        <ele>327.08649</ele>
        <time>2023-06-29T14:27:37.000Z</time>
      </trkpt>
      <trkpt lat="45.84027" lon="4.74074">
        <ele>327.60748</ele>
        <time>2023-06-29T14:27:38.000Z</time>
      </trkpt>
      <trkpt lat="45.84025" lon="4.7408">
        <ele>328.13422</ele>
        <time>2023-06-29T14:27:39.000Z</time>
      </trkpt>
      <trkpt lat="45.84023" lon="4.74086">
        <ele>328.63812</ele>
        <time>2023-06-29T14:27:40.000Z</time>
      </trkpt>
      <trkpt lat="45.84021" lon="4.74092">
        <ele>329.08914</ele>
        <time>2023-06-29T14:27:41.000Z</time>
      </trkpt>
      <trkpt lat="45.84019" lon="4.74096">
        <ele>329.62384</ele>
        <time>2023-06-29T14:27:42.000Z</time>
      </trkpt>
      <trkpt lat="45.84016" lon="4.74101">
        <ele>330.21667</ele>
        <time>2023-06-29T14:27:43.000Z</time>
      </trkpt>
      <trkpt lat="45.84013" lon="4.74105">
        <ele>331.02582</ele>
        <time>2023-06-29T14:27:44.000Z</time>
      </trkpt>
      <trkpt lat="45.84006" lon="4.74109">
        <ele>331.98227</ele>
        <time>2023-06-29T14:27:45.000Z</time>
      </trkpt>
      <trkpt lat="45.84003" lon="4.74115">
        <ele>332.28033</ele>
        <time>2023-06-29T14:27:46.000Z</time>
      </trkpt>
      <trkpt lat="45.83999" lon="4.74118">
        <ele>332.05121</ele>
        <time>2023-06-29T14:27:47.000Z</time>
      </trkpt>
      <trkpt lat="45.83996" lon="4.74122">
        <ele>331.87579</ele>
        <time>2023-06-29T14:27:48.000Z</time>
      </trkpt>
      <trkpt lat="45.83995" lon="4.74127">
        <ele>332.09479</ele>
        <time>2023-06-29T14:27:49.000Z</time>
      </trkpt>
      <trkpt lat="45.83993" lon="4.74131">
        <ele>332.2171</ele>
        <time>2023-06-29T14:27:50.000Z</time>
      </trkpt>
      <trkpt lat="45.83992" lon="4.74136">
        <ele>332.16974</ele>
        <time>2023-06-29T14:27:51.000Z</time>
      </trkpt>
      <trkpt lat="45.8399" lon="4.7414">
        <ele>332.0372</ele>
        <time>2023-06-29T14:27:52.000Z</time>
      </trkpt>
      <trkpt lat="45.83988" lon="4.74145">
        <ele>331.94366</ele>
        <time>2023-06-29T14:27:53.000Z</time>
      </trkpt>
      <trkpt lat="45.83988" lon="4.74151">
        <ele>331.87985</ele>
        <time>2023-06-29T14:27:54.000Z</time>
      </trkpt>
      <trkpt lat="45.83986" lon="4.74154">
        <ele>331.89578</ele>
        <time>2023-06-29T14:27:55.000Z</time>
      </trkpt>
      <trkpt lat="45.83984" lon="4.74157">
        <ele>331.98087</ele>
        <time>2023-06-29T14:27:56.000Z</time>
      </trkpt>
      <trkpt lat="45.83983" lon="4.74161">
        <ele>332.04974</ele>
        <time>2023-06-29T14:27:57.000Z</time>
      </trkpt>
      <trkpt lat="45.83981" lon="4.7417">
        <ele>331.98236</ele>
        <time>2023-06-29T14:27:58.000Z</time>
      </trkpt>
      <trkpt lat="45.83981" lon="4.74175">
        <ele>331.93283</ele>
        <time>2023-06-29T14:27:59.000Z</time>
      </trkpt>
      <trkpt lat="45.83979" lon="4.7418">
        <ele>331.90265</ele>
        <time>2023-06-29T14:28:00.000Z</time>
      </trkpt>
      <trkpt lat="45.83978" lon="4.74185">
        <ele>331.96524</ele>
        <time>2023-06-29T14:28:01.000Z</time>
      </trkpt>
      <trkpt lat="45.83977" lon="4.74191">
        <ele>331.99301</ele>
        <time>2023-06-29T14:28:02.000Z</time>
      </trkpt>
      <trkpt lat="45.83975" lon="4.74195">
        <ele>331.89886</ele>
        <time>2023-06-29T14:28:03.000Z</time>
      </trkpt>
      <trkpt lat="45.83973" lon="4.74199">
        <ele>331.51443</ele>
        <time>2023-06-29T14:28:04.000Z</time>
      </trkpt>
      <trkpt lat="45.8397" lon="4.74202">
        <ele>330.99445</ele>
        <time>2023-06-29T14:28:05.000Z</time>
      </trkpt>
      <trkpt lat="45.83968" lon="4.74207">
        <ele>330.59335</ele>
        <time>2023-06-29T14:28:06.000Z</time>
      </trkpt>
      <trkpt lat="45.83967" lon="4.74215">
        <ele>330.59488</ele>
        <time>2023-06-29T14:28:07.000Z</time>
      </trkpt>
      <trkpt lat="45.83965" lon="4.74222">
        <ele>330.52695</ele>
        <time>2023-06-29T14:28:08.000Z</time>
      </trkpt>
      <trkpt lat="45.83963" lon="4.74228">
        <ele>330.35004</ele>
        <time>2023-06-29T14:28:09.000Z</time>
      </trkpt>
      <trkpt lat="45.83961" lon="4.74234">
        <ele>330.28632</ele>
        <time>2023-06-29T14:28:10.000Z</time>
      </trkpt>
      <trkpt lat="45.83959" lon="4.74238">
        <ele>330.49026</ele>
        <time>2023-06-29T14:28:11.000Z</time>
      </trkpt>
      <trkpt lat="45.8396" lon="4.74244">
        <ele>330.77032</ele>
        <time>2023-06-29T14:28:12.000Z</time>
      </trkpt>
      <trkpt lat="45.8396" lon="4.74249">
        <ele>331.10199</ele>
        <time>2023-06-29T14:28:13.000Z</time>
      </trkpt>
      <trkpt lat="45.8396" lon="4.74255">
        <ele>331.40125</ele>
        <time>2023-06-29T14:28:14.000Z</time>
      </trkpt>
      <trkpt lat="45.8396" lon="4.7426">
        <ele>331.63666</ele>
        <time>2023-06-29T14:28:15.000Z</time>
      </trkpt>
      <trkpt lat="45.8396" lon="4.74265">
        <ele>331.84082</ele>
        <time>2023-06-29T14:28:16.000Z</time>
      </trkpt>
      <trkpt lat="45.83961" lon="4.74269">
        <ele>331.72327</ele>
        <time>2023-06-29T14:28:17.000Z</time>
      </trkpt>
      <trkpt lat="45.83961" lon="4.74273">
        <ele>331.70343</ele>
        <time>2023-06-29T14:28:18.000Z</time>
      </trkpt>
      <trkpt lat="45.83961" lon="4.74277">
        <ele>331.6597</ele>
        <time>2023-06-29T14:28:19.000Z</time>
      </trkpt>
      <trkpt lat="45.83962" lon="4.7428">
        <ele>331.78046</ele>
        <time>2023-06-29T14:28:20.000Z</time>
      </trkpt>
      <trkpt lat="45.83962" lon="4.74283">
        <ele>331.92587</ele>
        <time>2023-06-29T14:28:21.000Z</time>
      </trkpt>
      <trkpt lat="45.83961" lon="4.74286">
        <ele>331.92432</ele>
        <time>2023-06-29T14:28:22.000Z</time>
      </trkpt>
      <trkpt lat="45.83958" lon="4.74289">
        <ele>332.02509</ele>
        <time>2023-06-29T14:28:23.000Z</time>
      </trkpt>
      <trkpt lat="45.83955" lon="4.7429">
        <ele>332.20651</ele>
        <time>2023-06-29T14:28:24.000Z</time>
      </trkpt>
      <trkpt lat="45.83952" lon="4.74293">
        <ele>332.22528</ele>
        <time>2023-06-29T14:28:25.000Z</time>
      </trkpt>
      <trkpt lat="45.83949" lon="4.74298">
        <ele>332.1778</ele>
        <time>2023-06-29T14:28:26.000Z</time>
      </trkpt>
      <trkpt lat="45.83948" lon="4.74303">
        <ele>332.07635</ele>
        <time>2023-06-29T14:28:27.000Z</time>
      </trkpt>
      <trkpt lat="45.83947" lon="4.74309">
        <ele>331.99289</ele>
        <time>2023-06-29T14:28:28.000Z</time>
      </trkpt>
      <trkpt lat="45.83946" lon="4.74314">
        <ele>331.92203</ele>
        <time>2023-06-29T14:28:29.000Z</time>
      </trkpt>
      <trkpt lat="45.83945" lon="4.7432">
        <ele>331.71002</ele>
        <time>2023-06-29T14:28:30.000Z</time>
      </trkpt>
      <trkpt lat="45.83945" lon="4.74326">
        <ele>331.37946</ele>
        <time>2023-06-29T14:28:31.000Z</time>
      </trkpt>
      <trkpt lat="45.83945" lon="4.74332">
        <ele>331.08261</ele>
        <time>2023-06-29T14:28:32.000Z</time>
      </trkpt>
      <trkpt lat="45.83946" lon="4.74337">
        <ele>330.71649</ele>
        <time>2023-06-29T14:28:33.000Z</time>
      </trkpt>
      <trkpt lat="45.83946" lon="4.74342">
        <ele>330.38638</ele>
        <time>2023-06-29T14:28:34.000Z</time>
      </trkpt>
      <trkpt lat="45.83946" lon="4.74347">
        <ele>330.07715</ele>
        <time>2023-06-29T14:28:35.000Z</time>
      </trkpt>
      <trkpt lat="45.83947" lon="4.74352">
        <ele>329.73566</ele>
        <time>2023-06-29T14:28:36.000Z</time>
      </trkpt>
      <trkpt lat="45.83948" lon="4.74357">
        <ele>329.69443</ele>
        <time>2023-06-29T14:28:37.000Z</time>
      </trkpt>
      <trkpt lat="45.83948" lon="4.74361">
        <ele>329.67169</ele>
        <time>2023-06-29T14:28:38.000Z</time>
      </trkpt>
      <trkpt lat="45.83948" lon="4.74365">
        <ele>329.67844</ele>
        <time>2023-06-29T14:28:39.000Z</time>
      </trkpt>
      <trkpt lat="45.83948" lon="4.74369">
        <ele>329.52676</ele>
        <time>2023-06-29T14:28:40.000Z</time>
      </trkpt>
      <trkpt lat="45.83947" lon="4.74373">
        <ele>329.30585</ele>
        <time>2023-06-29T14:28:41.000Z</time>
      </trkpt>
      <trkpt lat="45.83947" lon="4.74376">
        <ele>329.15195</ele>
        <time>2023-06-29T14:28:42.000Z</time>
      </trkpt>
      <trkpt lat="45.83946" lon="4.74379">
        <ele>328.97357</ele>
        <time>2023-06-29T14:28:43.000Z</time>
      </trkpt>
      <trkpt lat="45.83946" lon="4.74382">
        <ele>328.78723</ele>
        <time>2023-06-29T14:28:44.000Z</time>
      </trkpt>
      <trkpt lat="45.83945" lon="4.74386">
        <ele>328.74603</ele>
        <time>2023-06-29T14:28:45.000Z</time>
      </trkpt>
      <trkpt lat="45.83944" lon="4.74391">
        <ele>328.68942</ele>
        <time>2023-06-29T14:28:46.000Z</time>
      </trkpt>
      <trkpt lat="45.83943" lon="4.74396">
        <ele>328.71582</ele>
        <time>2023-06-29T14:28:47.000Z</time>
      </trkpt>
      <trkpt lat="45.83942" lon="4.744">
        <ele>328.74579</ele>
        <time>2023-06-29T14:28:48.000Z</time>
      </trkpt>
      <trkpt lat="45.8394" lon="4.74404">
        <ele>328.84039</ele>
        <time>2023-06-29T14:28:49.000Z</time>
      </trkpt>
      <trkpt lat="45.83939" lon="4.7441">
        <ele>329.01068</ele>
        <time>2023-06-29T14:28:50.000Z</time>
      </trkpt>
      <trkpt lat="45.83937" lon="4.74415">
        <ele>329.18567</ele>
        <time>2023-06-29T14:28:51.000Z</time>
      </trkpt>
      <trkpt lat="45.83936" lon="4.7442">
        <ele>329.31125</ele>
        <time>2023-06-29T14:28:52.000Z</time>
      </trkpt>
      <trkpt lat="45.83934" lon="4.74425">
        <ele>329.42032</ele>
        <time>2023-06-29T14:28:53.000Z</time>
      </trkpt>
      <trkpt lat="45.83932" lon="4.7443">
        <ele>329.51749</ele>
        <time>2023-06-29T14:28:54.000Z</time>
      </trkpt>
      <trkpt lat="45.8393" lon="4.74435">
        <ele>329.61115</ele>
        <time>2023-06-29T14:28:55.000Z</time>
      </trkpt>
      <trkpt lat="45.83928" lon="4.74439">
        <ele>329.70648</ele>
        <time>2023-06-29T14:28:56.000Z</time>
      </trkpt>
      <trkpt lat="45.83926" lon="4.74444">
        <ele>329.79486</ele>
        <time>2023-06-29T14:28:57.000Z</time>
      </trkpt>
      <trkpt lat="45.83924" lon="4.74449">
        <ele>329.83987</ele>
        <time>2023-06-29T14:28:58.000Z</time>
      </trkpt>
      <trkpt lat="45.83922" lon="4.74454">
        <ele>329.88144</ele>
        <time>2023-06-29T14:28:59.000Z</time>
      </trkpt>
      <trkpt lat="45.8392" lon="4.74459">
        <ele>329.88135</ele>
        <time>2023-06-29T14:29:00.000Z</time>
      </trkpt>
      <trkpt lat="45.83917" lon="4.74463">
        <ele>329.88162</ele>
        <time>2023-06-29T14:29:01.000Z</time>
      </trkpt>
      <trkpt lat="45.83915" lon="4.74468">
        <ele>329.89056</ele>
        <time>2023-06-29T14:29:02.000Z</time>
      </trkpt>
      <trkpt lat="45.83912" lon="4.74473">
        <ele>329.94141</ele>
        <time>2023-06-29T14:29:03.000Z</time>
      </trkpt>
      <trkpt lat="45.8391" lon="4.74477">
        <ele>330.15561</ele>
        <time>2023-06-29T14:29:04.000Z</time>
      </trkpt>
      <trkpt lat="45.83908" lon="4.74482">
        <ele>330.48785</ele>
        <time>2023-06-29T14:29:05.000Z</time>
      </trkpt>
      <trkpt lat="45.83906" lon="4.74487">
        <ele>330.8205</ele>
        <time>2023-06-29T14:29:06.000Z</time>
      </trkpt>
      <trkpt lat="45.83904" lon="4.74492">
        <ele>330.77713</ele>
        <time>2023-06-29T14:29:07.000Z</time>
      </trkpt>
      <trkpt lat="45.83902" lon="4.74498">
        <ele>330.78458</ele>
        <time>2023-06-29T14:29:08.000Z</time>
      </trkpt>
      <trkpt lat="45.83901" lon="4.74503">
        <ele>330.81763</ele>
        <time>2023-06-29T14:29:09.000Z</time>
      </trkpt>
      <trkpt lat="45.83899" lon="4.74508">
        <ele>330.86652</ele>
        <time>2023-06-29T14:29:10.000Z</time>
      </trkpt>
      <trkpt lat="45.83898" lon="4.74514">
        <ele>330.91956</ele>
        <time>2023-06-29T14:29:11.000Z</time>
      </trkpt>
      <trkpt lat="45.83898" lon="4.74519">
        <ele>331.12488</ele>
        <time>2023-06-29T14:29:12.000Z</time>
      </trkpt>
      <trkpt lat="45.83898" lon="4.74524">
        <ele>331.47855</ele>
        <time>2023-06-29T14:29:13.000Z</time>
      </trkpt>
      <trkpt lat="45.83898" lon="4.74529">
        <ele>331.83316</ele>
        <time>2023-06-29T14:29:14.000Z</time>
      </trkpt>
      <trkpt lat="45.83898" lon="4.74534">
        <ele>332.18613</ele>
        <time>2023-06-29T14:29:15.000Z</time>
      </trkpt>
      <trkpt lat="45.83899" lon="4.74539">
        <ele>332.17191</ele>
        <time>2023-06-29T14:29:16.000Z</time>
      </trkpt>
      <trkpt lat="45.839" lon="4.74545">
        <ele>332.21277</ele>
        <time>2023-06-29T14:29:17.000Z</time>
      </trkpt>
      <trkpt lat="45.83902" lon="4.74551">
        <ele>332.24216</ele>
        <time>2023-06-29T14:29:18.000Z</time>
      </trkpt>
      <trkpt lat="45.83905" lon="4.74557">
        <ele>332.25931</ele>
        <time>2023-06-29T14:29:19.000Z</time>
      </trkpt>
      <trkpt lat="45.83906" lon="4.74563">
        <ele>332.29813</ele>
        <time>2023-06-29T14:29:20.000Z</time>
      </trkpt>
      <trkpt lat="45.83908" lon="4.7457">
        <ele>332.31747</ele>
        <time>2023-06-29T14:29:21.000Z</time>
      </trkpt>
      <trkpt lat="45.83909" lon="4.74577">
        <ele>332.31546</ele>
        <time>2023-06-29T14:29:22.000Z</time>
      </trkpt>
      <trkpt lat="45.83911" lon="4.74584">
        <ele>332.29773</ele>
        <time>2023-06-29T14:29:23.000Z</time>
      </trkpt>
      <trkpt lat="45.83911" lon="4.74592">
        <ele>332.13739</ele>
        <time>2023-06-29T14:29:24.000Z</time>
      </trkpt>
      <trkpt lat="45.83909" lon="4.74599">
        <ele>331.85516</ele>
        <time>2023-06-29T14:29:25.000Z</time>
      </trkpt>
      <trkpt lat="45.83907" lon="4.74606">
        <ele>331.55026</ele>
        <time>2023-06-29T14:29:26.000Z</time>
      </trkpt>
      <trkpt lat="45.83905" lon="4.74613">
        <ele>331.58115</ele>
        <time>2023-06-29T14:29:27.000Z</time>
      </trkpt>
      <trkpt lat="45.83903" lon="4.7462">
        <ele>331.58414</ele>
        <time>2023-06-29T14:29:28.000Z</time>
      </trkpt>
      <trkpt lat="45.839" lon="4.74626">
        <ele>331.75409</ele>
        <time>2023-06-29T14:29:29.000Z</time>
      </trkpt>
      <trkpt lat="45.83897" lon="4.74633">
        <ele>331.91074</ele>
        <time>2023-06-29T14:29:30.000Z</time>
      </trkpt>
      <trkpt lat="45.83895" lon="4.74638">
        <ele>332.12463</ele>
        <time>2023-06-29T14:29:31.000Z</time>
      </trkpt>
      <trkpt lat="45.83893" lon="4.74643">
        <ele>331.84369</ele>
        <time>2023-06-29T14:29:32.000Z</time>
      </trkpt>
      <trkpt lat="45.83889" lon="4.74646">
        <ele>331.52713</ele>
        <time>2023-06-29T14:29:33.000Z</time>
      </trkpt>
      <trkpt lat="45.83887" lon="4.7465">
        <ele>331.22992</ele>
        <time>2023-06-29T14:29:34.000Z</time>
      </trkpt>
      <trkpt lat="45.83885" lon="4.74654">
        <ele>330.948</ele>
        <time>2023-06-29T14:29:35.000Z</time>
      </trkpt>
      <trkpt lat="45.83879" lon="4.74655">
        <ele>331.14633</ele>
        <time>2023-06-29T14:29:36.000Z</time>
      </trkpt>
      <trkpt lat="45.83876" lon="4.74657">
        <ele>331.29547</ele>
        <time>2023-06-29T14:29:37.000Z</time>
      </trkpt>
      <trkpt lat="45.83874" lon="4.74663">
        <ele>331.52264</ele>
        <time>2023-06-29T14:29:38.000Z</time>
      </trkpt>
      <trkpt lat="45.83871" lon="4.74668">
        <ele>331.78433</ele>
        <time>2023-06-29T14:29:39.000Z</time>
      </trkpt>
      <trkpt lat="45.83869" lon="4.74674">
        <ele>332.06622</ele>
        <time>2023-06-29T14:29:40.000Z</time>
      </trkpt>
      <trkpt lat="45.83867" lon="4.74678">
        <ele>332.35822</ele>
        <time>2023-06-29T14:29:41.000Z</time>
      </trkpt>
      <trkpt lat="45.83865" lon="4.74682">
        <ele>332.67163</ele>
        <time>2023-06-29T14:29:42.000Z</time>
      </trkpt>
      <trkpt lat="45.83863" lon="4.74687">
        <ele>333.09869</ele>
        <time>2023-06-29T14:29:43.000Z</time>
      </trkpt>
      <trkpt lat="45.83861" lon="4.74691">
        <ele>333.80609</ele>
        <time>2023-06-29T14:29:44.000Z</time>
      </trkpt>
      <trkpt lat="45.83859" lon="4.74694">
        <ele>334.67523</ele>
        <time>2023-06-29T14:29:45.000Z</time>
      </trkpt>
      <trkpt lat="45.83857" lon="4.74698">
        <ele>335.64691</ele>
        <time>2023-06-29T14:29:46.000Z</time>
      </trkpt>
      <trkpt lat="45.83855" lon="4.74702">
        <ele>336.30023</ele>
        <time>2023-06-29T14:29:47.000Z</time>
      </trkpt>
      <trkpt lat="45.83853" lon="4.74705">
        <ele>337.06705</ele>
        <time>2023-06-29T14:29:48.000Z</time>
      </trkpt>
      <trkpt lat="45.83851" lon="4.74707">
        <ele>337.68735</ele>
        <time>2023-06-29T14:29:49.000Z</time>
      </trkpt>
      <trkpt lat="45.83848" lon="4.74709">
        <ele>338.35236</ele>
        <time>2023-06-29T14:29:50.000Z</time>
      </trkpt>
      <trkpt lat="45.83845" lon="4.74709">
        <ele>338.99481</ele>
        <time>2023-06-29T14:29:51.000Z</time>
      </trkpt>
      <trkpt lat="45.83841" lon="4.74709">
        <ele>340.01144</ele>
        <time>2023-06-29T14:29:52.000Z</time>
      </trkpt>
      <trkpt lat="45.83836" lon="4.74711">
        <ele>340.87433</ele>
        <time>2023-06-29T14:29:53.000Z</time>
      </trkpt>
      <trkpt lat="45.83832" lon="4.74713">
        <ele>341.65289</ele>
        <time>2023-06-29T14:29:54.000Z</time>
      </trkpt>
      <trkpt lat="45.83828" lon="4.74716">
        <ele>342.42947</ele>
        <time>2023-06-29T14:29:55.000Z</time>
      </trkpt>
      <trkpt lat="45.83825" lon="4.74719">
        <ele>343.13055</ele>
        <time>2023-06-29T14:29:56.000Z</time>
      </trkpt>
      <trkpt lat="45.83822" lon="4.74722">
        <ele>343.85898</ele>
        <time>2023-06-29T14:29:57.000Z</time>
      </trkpt>
      <trkpt lat="45.83819" lon="4.74725">
        <ele>344.43793</ele>
        <time>2023-06-29T14:29:58.000Z</time>
      </trkpt>
      <trkpt lat="45.83816" lon="4.74728">
        <ele>345.20441</ele>
        <time>2023-06-29T14:29:59.000Z</time>
      </trkpt>
      <trkpt lat="45.83812" lon="4.74731">
        <ele>345.91373</ele>
        <time>2023-06-29T14:30:00.000Z</time>
      </trkpt>
      <trkpt lat="45.83809" lon="4.74735">
        <ele>346.72534</ele>
        <time>2023-06-29T14:30:01.000Z</time>
      </trkpt>
      <trkpt lat="45.83805" lon="4.74739">
        <ele>347.24036</ele>
        <time>2023-06-29T14:30:02.000Z</time>
      </trkpt>
      <trkpt lat="45.83801" lon="4.74743">
        <ele>346.4693</ele>
        <time>2023-06-29T14:30:03.000Z</time>
      </trkpt>
      <trkpt lat="45.83798" lon="4.74747">
        <ele>345.4039</ele>
        <time>2023-06-29T14:30:04.000Z</time>
      </trkpt>
      <trkpt lat="45.83794" lon="4.74751">
        <ele>344.18372</ele>
        <time>2023-06-29T14:30:05.000Z</time>
      </trkpt>
      <trkpt lat="45.83791" lon="4.74756">
        <ele>342.87909</ele>
        <time>2023-06-29T14:30:06.000Z</time>
      </trkpt>
      <trkpt lat="45.83789" lon="4.74761">
        <ele>341.8996</ele>
        <time>2023-06-29T14:30:07.000Z</time>
      </trkpt>
      <trkpt lat="45.83786" lon="4.74766">
        <ele>340.78394</ele>
        <time>2023-06-29T14:30:08.000Z</time>
      </trkpt>
      <trkpt lat="45.83784" lon="4.74771">
        <ele>339.64069</ele>
        <time>2023-06-29T14:30:09.000Z</time>
      </trkpt>
      <trkpt lat="45.83781" lon="4.74777">
        <ele>338.48615</ele>
        <time>2023-06-29T14:30:10.000Z</time>
      </trkpt>
      <trkpt lat="45.83778" lon="4.74782">
        <ele>337.27197</ele>
        <time>2023-06-29T14:30:11.000Z</time>
      </trkpt>
      <trkpt lat="45.83776" lon="4.74786">
        <ele>336.06866</ele>
        <time>2023-06-29T14:30:12.000Z</time>
      </trkpt>
      <trkpt lat="45.83774" lon="4.74789">
        <ele>334.92047</ele>
        <time>2023-06-29T14:30:13.000Z</time>
      </trkpt>
      <trkpt lat="45.83771" lon="4.74793">
        <ele>333.83432</ele>
        <time>2023-06-29T14:30:14.000Z</time>
      </trkpt>
      <trkpt lat="45.83768" lon="4.74798">
        <ele>332.70789</ele>
        <time>2023-06-29T14:30:15.000Z</time>
      </trkpt>
      <trkpt lat="45.83765" lon="4.74802">
        <ele>331.55518</ele>
        <time>2023-06-29T14:30:16.000Z</time>
      </trkpt>
      <trkpt lat="45.83762" lon="4.74807">
        <ele>330.34641</ele>
        <time>2023-06-29T14:30:17.000Z</time>
      </trkpt>
      <trkpt lat="45.83759" lon="4.74811">
        <ele>329.19763</ele>
        <time>2023-06-29T14:30:18.000Z</time>
      </trkpt>
      <trkpt lat="45.83756" lon="4.74816">
        <ele>327.86926</ele>
        <time>2023-06-29T14:30:19.000Z</time>
      </trkpt>
      <trkpt lat="45.83753" lon="4.7482">
        <ele>326.58344</ele>
        <time>2023-06-29T14:30:20.000Z</time>
      </trkpt>
      <trkpt lat="45.8375" lon="4.74823">
        <ele>325.19272</ele>
        <time>2023-06-29T14:30:21.000Z</time>
      </trkpt>
      <trkpt lat="45.83746" lon="4.74825">
        <ele>324.10748</ele>
        <time>2023-06-29T14:30:22.000Z</time>
      </trkpt>
      <trkpt lat="45.83742" lon="4.74828">
        <ele>324.21906</ele>
        <time>2023-06-29T14:30:23.000Z</time>
      </trkpt>
      <trkpt lat="45.83737" lon="4.74831">
        <ele>324.31381</ele>
        <time>2023-06-29T14:30:24.000Z</time>
      </trkpt>
      <trkpt lat="45.83733" lon="4.74833">
        <ele>324.4201</ele>
        <time>2023-06-29T14:30:25.000Z</time>
      </trkpt>
      <trkpt lat="45.83728" lon="4.74835">
        <ele>324.51254</ele>
        <time>2023-06-29T14:30:26.000Z</time>
      </trkpt>
      <trkpt lat="45.83725" lon="4.74837">
        <ele>324.59222</ele>
        <time>2023-06-29T14:30:27.000Z</time>
      </trkpt>
      <trkpt lat="45.83718" lon="4.74845">
        <ele>324.66089</ele>
        <time>2023-06-29T14:30:28.000Z</time>
      </trkpt>
      <trkpt lat="45.83715" lon="4.74848">
        <ele>324.72552</ele>
        <time>2023-06-29T14:30:29.000Z</time>
      </trkpt>
      <trkpt lat="45.83712" lon="4.74852">
        <ele>324.72708</ele>
        <time>2023-06-29T14:30:30.000Z</time>
      </trkpt>
      <trkpt lat="45.83707" lon="4.74855">
        <ele>324.75848</ele>
        <time>2023-06-29T14:30:31.000Z</time>
      </trkpt>
      <trkpt lat="45.83702" lon="4.74858">
        <ele>324.80777</ele>
        <time>2023-06-29T14:30:32.000Z</time>
      </trkpt>
      <trkpt lat="45.83698" lon="4.74861">
        <ele>324.86224</ele>
        <time>2023-06-29T14:30:33.000Z</time>
      </trkpt>
      <trkpt lat="45.83694" lon="4.74864">
        <ele>324.90973</ele>
        <time>2023-06-29T14:30:34.000Z</time>
      </trkpt>
      <trkpt lat="45.83692" lon="4.74868">
        <ele>324.9422</ele>
        <time>2023-06-29T14:30:35.000Z</time>
      </trkpt>
      <trkpt lat="45.83689" lon="4.74872">
        <ele>324.94586</ele>
        <time>2023-06-29T14:30:36.000Z</time>
      </trkpt>
      <trkpt lat="45.83685" lon="4.74874">
        <ele>324.98288</ele>
        <time>2023-06-29T14:30:37.000Z</time>
      </trkpt>
      <trkpt lat="45.83682" lon="4.74876">
        <ele>325.03995</ele>
        <time>2023-06-29T14:30:38.000Z</time>
      </trkpt>
      <trkpt lat="45.83678" lon="4.7488">
        <ele>325.06393</ele>
        <time>2023-06-29T14:30:39.000Z</time>
      </trkpt>
      <trkpt lat="45.83676" lon="4.74884">
        <ele>325.10739</ele>
        <time>2023-06-29T14:30:40.000Z</time>
      </trkpt>
      <trkpt lat="45.83674" lon="4.74888">
        <ele>325.16864</ele>
        <time>2023-06-29T14:30:41.000Z</time>
      </trkpt>
      <trkpt lat="45.83671" lon="4.74893">
        <ele>325.2536</ele>
        <time>2023-06-29T14:30:42.000Z</time>
      </trkpt>
      <trkpt lat="45.83669" lon="4.74898">
        <ele>325.34561</ele>
        <time>2023-06-29T14:30:43.000Z</time>
      </trkpt>
      <trkpt lat="45.83667" lon="4.74903">
        <ele>325.46481</ele>
        <time>2023-06-29T14:30:44.000Z</time>
      </trkpt>
      <trkpt lat="45.83664" lon="4.74908">
        <ele>325.5762</ele>
        <time>2023-06-29T14:30:45.000Z</time>
      </trkpt>
      <trkpt lat="45.83662" lon="4.74913">
        <ele>325.67856</ele>
        <time>2023-06-29T14:30:46.000Z</time>
      </trkpt>
      <trkpt lat="45.83659" lon="4.74917">
        <ele>325.82391</ele>
        <time>2023-06-29T14:30:47.000Z</time>
      </trkpt>
      <trkpt lat="45.83657" lon="4.74921">
        <ele>325.97675</ele>
        <time>2023-06-29T14:30:48.000Z</time>
      </trkpt>
      <trkpt lat="45.83656" lon="4.74927">
        <ele>326.15424</ele>
        <time>2023-06-29T14:30:49.000Z</time>
      </trkpt>
      <trkpt lat="45.83654" lon="4.74932">
        <ele>326.37762</ele>
        <time>2023-06-29T14:30:50.000Z</time>
      </trkpt>
      <trkpt lat="45.83653" lon="4.74938">
        <ele>326.57047</ele>
        <time>2023-06-29T14:30:51.000Z</time>
      </trkpt>
      <trkpt lat="45.83651" lon="4.74943">
        <ele>326.72723</ele>
        <time>2023-06-29T14:30:52.000Z</time>
      </trkpt>
      <trkpt lat="45.8365" lon="4.74949">
        <ele>326.85107</ele>
        <time>2023-06-29T14:30:53.000Z</time>
      </trkpt>
      <trkpt lat="45.83649" lon="4.74954">
        <ele>326.96017</ele>
        <time>2023-06-29T14:30:54.000Z</time>
      </trkpt>
      <trkpt lat="45.83647" lon="4.7496">
        <ele>327.12662</ele>
        <time>2023-06-29T14:30:55.000Z</time>
      </trkpt>
      <trkpt lat="45.83646" lon="4.74969">
        <ele>327.33453</ele>
        <time>2023-06-29T14:30:56.000Z</time>
      </trkpt>
      <trkpt lat="45.83644" lon="4.74977">
        <ele>327.51447</ele>
        <time>2023-06-29T14:30:57.000Z</time>
      </trkpt>
      <trkpt lat="45.83639" lon="4.74981">
        <ele>327.66754</ele>
        <time>2023-06-29T14:30:58.000Z</time>
      </trkpt>
      <trkpt lat="45.83637" lon="4.74989">
        <ele>327.84647</ele>
        <time>2023-06-29T14:30:59.000Z</time>
      </trkpt>
      <trkpt lat="45.83637" lon="4.74995">
        <ele>327.94806</ele>
        <time>2023-06-29T14:31:00.000Z</time>
      </trkpt>
      <trkpt lat="45.83636" lon="4.75003">
        <ele>328.04089</ele>
        <time>2023-06-29T14:31:01.000Z</time>
      </trkpt>
      <trkpt lat="45.83636" lon="4.75011">
        <ele>328.08203</ele>
        <time>2023-06-29T14:31:02.000Z</time>
      </trkpt>
      <trkpt lat="45.83632" lon="4.75016">
        <ele>328.05551</ele>
        <time>2023-06-29T14:31:03.000Z</time>
      </trkpt>
      <trkpt lat="45.83631" lon="4.75023">
        <ele>328.68243</ele>
        <time>2023-06-29T14:31:04.000Z</time>
      </trkpt>
      <trkpt lat="45.83628" lon="4.75028">
        <ele>329.27869</ele>
        <time>2023-06-29T14:31:05.000Z</time>
      </trkpt>
      <trkpt lat="45.83628" lon="4.75035">
        <ele>329.97626</ele>
        <time>2023-06-29T14:31:06.000Z</time>
      </trkpt>
      <trkpt lat="45.83625" lon="4.7504">
        <ele>330.39139</ele>
        <time>2023-06-29T14:31:07.000Z</time>
      </trkpt>
      <trkpt lat="45.83621" lon="4.75045">
        <ele>330.8714</ele>
        <time>2023-06-29T14:31:08.000Z</time>
      </trkpt>
      <trkpt lat="45.83617" lon="4.7505">
        <ele>331.34784</ele>
        <time>2023-06-29T14:31:09.000Z</time>
      </trkpt>
      <trkpt lat="45.83614" lon="4.75056">
        <ele>331.84784</ele>
        <time>2023-06-29T14:31:10.000Z</time>
      </trkpt>
      <trkpt lat="45.83611" lon="4.75061">
        <ele>332.40829</ele>
        <time>2023-06-29T14:31:11.000Z</time>
      </trkpt>
      <trkpt lat="45.83609" lon="4.75066">
        <ele>332.99088</ele>
        <time>2023-06-29T14:31:12.000Z</time>
      </trkpt>
      <trkpt lat="45.83607" lon="4.75071">
        <ele>333.73102</ele>
        <time>2023-06-29T14:31:13.000Z</time>
      </trkpt>
      <trkpt lat="45.83605" lon="4.75076">
        <ele>334.50037</ele>
        <time>2023-06-29T14:31:14.000Z</time>
      </trkpt>
      <trkpt lat="45.83603" lon="4.75081">
        <ele>335.27853</ele>
        <time>2023-06-29T14:31:15.000Z</time>
      </trkpt>
      <trkpt lat="45.83601" lon="4.75087">
        <ele>336.05032</ele>
        <time>2023-06-29T14:31:16.000Z</time>
      </trkpt>
      <trkpt lat="45.83599" lon="4.75092">
        <ele>336.88815</ele>
        <time>2023-06-29T14:31:17.000Z</time>
      </trkpt>
      <trkpt lat="45.83597" lon="4.75097">
        <ele>337.75449</ele>
        <time>2023-06-29T14:31:18.000Z</time>
      </trkpt>
      <trkpt lat="45.83594" lon="4.75101">
        <ele>337.92032</ele>
        <time>2023-06-29T14:31:19.000Z</time>
      </trkpt>
      <trkpt lat="45.83592" lon="4.75105">
        <ele>338.14563</ele>
        <time>2023-06-29T14:31:20.000Z</time>
      </trkpt>
      <trkpt lat="45.8359" lon="4.75109">
        <ele>338.51392</ele>
        <time>2023-06-29T14:31:21.000Z</time>
      </trkpt>
      <trkpt lat="45.83588" lon="4.75113">
        <ele>338.9057</ele>
        <time>2023-06-29T14:31:22.000Z</time>
      </trkpt>
      <trkpt lat="45.83587" lon="4.75117">
        <ele>339.32767</ele>
        <time>2023-06-29T14:31:23.000Z</time>
      </trkpt>
      <trkpt lat="45.83585" lon="4.7512">
        <ele>339.08072</ele>
        <time>2023-06-29T14:31:24.000Z</time>
      </trkpt>
      <trkpt lat="45.83583" lon="4.75124">
        <ele>338.86957</ele>
        <time>2023-06-29T14:31:25.000Z</time>
      </trkpt>
      <trkpt lat="45.8358" lon="4.75128">
        <ele>338.5661</ele>
        <time>2023-06-29T14:31:26.000Z</time>
      </trkpt>
      <trkpt lat="45.83577" lon="4.75131">
        <ele>338.51288</ele>
        <time>2023-06-29T14:31:27.000Z</time>
      </trkpt>
      <trkpt lat="45.83574" lon="4.75134">
        <ele>338.3877</ele>
        <time>2023-06-29T14:31:28.000Z</time>
      </trkpt>
      <trkpt lat="45.83571" lon="4.75137">
        <ele>338.2641</ele>
        <time>2023-06-29T14:31:29.000Z</time>
      </trkpt>
      <trkpt lat="45.83568" lon="4.7514">
        <ele>338.08514</ele>
        <time>2023-06-29T14:31:30.000Z</time>
      </trkpt>
      <trkpt lat="45.83565" lon="4.75143">
        <ele>337.79663</ele>
        <time>2023-06-29T14:31:31.000Z</time>
      </trkpt>
      <trkpt lat="45.83562" lon="4.75146">
        <ele>337.47333</ele>
        <time>2023-06-29T14:31:32.000Z</time>
      </trkpt>
      <trkpt lat="45.83559" lon="4.75149">
        <ele>337.01361</ele>
        <time>2023-06-29T14:31:33.000Z</time>
      </trkpt>
      <trkpt lat="45.83557" lon="4.75151">
        <ele>336.56192</ele>
        <time>2023-06-29T14:31:34.000Z</time>
      </trkpt>
      <trkpt lat="45.83554" lon="4.75154">
        <ele>336.03427</ele>
        <time>2023-06-29T14:31:35.000Z</time>
      </trkpt>
      <trkpt lat="45.83552" lon="4.75156">
        <ele>335.41095</ele>
        <time>2023-06-29T14:31:36.000Z</time>
      </trkpt>
      <trkpt lat="45.83549" lon="4.75158">
        <ele>334.85556</ele>
        <time>2023-06-29T14:31:37.000Z</time>
      </trkpt>
      <trkpt lat="45.83546" lon="4.7516">
        <ele>334.26724</ele>
        <time>2023-06-29T14:31:38.000Z</time>
      </trkpt>
      <trkpt lat="45.83543" lon="4.75162">
        <ele>334.36734</ele>
        <time>2023-06-29T14:31:39.000Z</time>
      </trkpt>
      <trkpt lat="45.83539" lon="4.75165">
        <ele>334.40979</ele>
        <time>2023-06-29T14:31:40.000Z</time>
      </trkpt>
      <trkpt lat="45.83535" lon="4.75168">
        <ele>334.87695</ele>
        <time>2023-06-29T14:31:41.000Z</time>
      </trkpt>
      <trkpt lat="45.83529" lon="4.75173">
        <ele>335.29755</ele>
        <time>2023-06-29T14:31:42.000Z</time>
      </trkpt>
      <trkpt lat="45.83523" lon="4.75179">
        <ele>335.85794</ele>
        <time>2023-06-29T14:31:43.000Z</time>
      </trkpt>
      <trkpt lat="45.8352" lon="4.75186">
        <ele>336.43182</ele>
        <time>2023-06-29T14:31:44.000Z</time>
      </trkpt>
      <trkpt lat="45.83517" lon="4.7519">
        <ele>337.05017</ele>
        <time>2023-06-29T14:31:45.000Z</time>
      </trkpt>
      <trkpt lat="45.83514" lon="4.75191">
        <ele>337.49213</ele>
        <time>2023-06-29T14:31:46.000Z</time>
      </trkpt>
      <trkpt lat="45.83512" lon="4.75193">
        <ele>338.01242</ele>
        <time>2023-06-29T14:31:47.000Z</time>
      </trkpt>
      <trkpt lat="45.83507" lon="4.75193">
        <ele>338.58646</ele>
        <time>2023-06-29T14:31:48.000Z</time>
      </trkpt>
      <trkpt lat="45.83505" lon="4.75195">
        <ele>339.17731</ele>
        <time>2023-06-29T14:31:49.000Z</time>
      </trkpt>
      <trkpt lat="45.835" lon="4.75194">
        <ele>339.75925</ele>
        <time>2023-06-29T14:31:50.000Z</time>
      </trkpt>
      <trkpt lat="45.83497" lon="4.75196">
        <ele>340.44583</ele>
        <time>2023-06-29T14:31:51.000Z</time>
      </trkpt>
      <trkpt lat="45.83494" lon="4.75196">
        <ele>341.14807</ele>
        <time>2023-06-29T14:31:52.000Z</time>
      </trkpt>
      <trkpt lat="45.83489" lon="4.75197">
        <ele>341.01883</ele>
        <time>2023-06-29T14:31:53.000Z</time>
      </trkpt>
      <trkpt lat="45.83485" lon="4.752">
        <ele>340.87003</ele>
        <time>2023-06-29T14:31:54.000Z</time>
      </trkpt>
      <trkpt lat="45.83482" lon="4.75201">
        <ele>340.75104</ele>
        <time>2023-06-29T14:31:55.000Z</time>
      </trkpt>
      <trkpt lat="45.8348" lon="4.75203">
        <ele>340.71106</ele>
        <time>2023-06-29T14:31:56.000Z</time>
      </trkpt>
      <trkpt lat="45.83477" lon="4.75205">
        <ele>340.60596</ele>
        <time>2023-06-29T14:31:57.000Z</time>
      </trkpt>
      <trkpt lat="45.83473" lon="4.75207">
        <ele>340.57953</ele>
        <time>2023-06-29T14:31:58.000Z</time>
      </trkpt>
      <trkpt lat="45.8347" lon="4.7521">
        <ele>340.54074</ele>
        <time>2023-06-29T14:31:59.000Z</time>
      </trkpt>
      <trkpt lat="45.83468" lon="4.75212">
        <ele>340.55222</ele>
        <time>2023-06-29T14:32:00.000Z</time>
      </trkpt>
      <trkpt lat="45.83466" lon="4.75214">
        <ele>339.89883</ele>
        <time>2023-06-29T14:32:01.000Z</time>
      </trkpt>
      <trkpt lat="45.83464" lon="4.75217">
        <ele>339.25424</ele>
        <time>2023-06-29T14:32:02.000Z</time>
      </trkpt>
      <trkpt lat="45.83461" lon="4.75219">
        <ele>338.38477</ele>
        <time>2023-06-29T14:32:03.000Z</time>
      </trkpt>
      <trkpt lat="45.83458" lon="4.75221">
        <ele>337.48572</ele>
        <time>2023-06-29T14:32:04.000Z</time>
      </trkpt>
      <trkpt lat="45.83455" lon="4.75222">
        <ele>336.52548</ele>
        <time>2023-06-29T14:32:05.000Z</time>
      </trkpt>
      <trkpt lat="45.83452" lon="4.75224">
        <ele>335.74481</ele>
        <time>2023-06-29T14:32:06.000Z</time>
      </trkpt>
      <trkpt lat="45.8345" lon="4.75226">
        <ele>334.93048</ele>
        <time>2023-06-29T14:32:07.000Z</time>
      </trkpt>
      <trkpt lat="45.83447" lon="4.75227">
        <ele>333.97144</ele>
        <time>2023-06-29T14:32:08.000Z</time>
      </trkpt>
      <trkpt lat="45.83444" lon="4.7523">
        <ele>332.97198</ele>
        <time>2023-06-29T14:32:09.000Z</time>
      </trkpt>
      <trkpt lat="45.8344" lon="4.75232">
        <ele>332.00104</ele>
        <time>2023-06-29T14:32:10.000Z</time>
      </trkpt>
      <trkpt lat="45.83435" lon="4.75235">
        <ele>331.02115</ele>
        <time>2023-06-29T14:32:11.000Z</time>
      </trkpt>
      <trkpt lat="45.83429" lon="4.7524">
        <ele>330.02106</ele>
        <time>2023-06-29T14:32:12.000Z</time>
      </trkpt>
      <trkpt lat="45.83426" lon="4.75246">
        <ele>329.91089</ele>
        <time>2023-06-29T14:32:13.000Z</time>
      </trkpt>
      <trkpt lat="45.83422" lon="4.75252">
        <ele>329.78061</ele>
        <time>2023-06-29T14:32:14.000Z</time>
      </trkpt>
      <trkpt lat="45.83419" lon="4.75261">
        <ele>329.61035</ele>
        <time>2023-06-29T14:32:15.000Z</time>
      </trkpt>
      <trkpt lat="45.83418" lon="4.75272">
        <ele>329.5621</ele>
        <time>2023-06-29T14:32:16.000Z</time>
      </trkpt>
      <trkpt lat="45.83416" lon="4.7528">
        <ele>329.44232</ele>
        <time>2023-06-29T14:32:17.000Z</time>
      </trkpt>
      <trkpt lat="45.83413" lon="4.75286">
        <ele>329.25589</ele>
        <time>2023-06-29T14:32:18.000Z</time>
      </trkpt>
      <trkpt lat="45.83409" lon="4.75289">
        <ele>329.08044</ele>
        <time>2023-06-29T14:32:19.000Z</time>
      </trkpt>
      <trkpt lat="45.83404" lon="4.75291">
        <ele>328.91165</ele>
        <time>2023-06-29T14:32:20.000Z</time>
      </trkpt>
      <trkpt lat="45.834" lon="4.75291">
        <ele>328.83124</ele>
        <time>2023-06-29T14:32:21.000Z</time>
      </trkpt>
      <trkpt lat="45.83397" lon="4.75294">
        <ele>328.76675</ele>
        <time>2023-06-29T14:32:22.000Z</time>
      </trkpt>
      <trkpt lat="45.8339" lon="4.75295">
        <ele>328.76663</ele>
        <time>2023-06-29T14:32:23.000Z</time>
      </trkpt>
      <trkpt lat="45.83385" lon="4.753">
        <ele>328.81631</ele>
        <time>2023-06-29T14:32:24.000Z</time>
      </trkpt>
      <trkpt lat="45.83381" lon="4.75303">
        <ele>328.86871</ele>
        <time>2023-06-29T14:32:25.000Z</time>
      </trkpt>
      <trkpt lat="45.83376" lon="4.75304">
        <ele>328.94342</ele>
        <time>2023-06-29T14:32:26.000Z</time>
      </trkpt>
      <trkpt lat="45.8337" lon="4.75304">
        <ele>328.99667</ele>
        <time>2023-06-29T14:32:27.000Z</time>
      </trkpt>
      <trkpt lat="45.83366" lon="4.75304">
        <ele>329.16013</ele>
        <time>2023-06-29T14:32:28.000Z</time>
      </trkpt>
      <trkpt lat="45.83362" lon="4.75302">
        <ele>329.27014</ele>
        <time>2023-06-29T14:32:29.000Z</time>
      </trkpt>
      <trkpt lat="45.83357" lon="4.753">
        <ele>329.36905</ele>
        <time>2023-06-29T14:32:30.000Z</time>
      </trkpt>
      <trkpt lat="45.83353" lon="4.75299">
        <ele>329.42667</ele>
        <time>2023-06-29T14:32:31.000Z</time>
      </trkpt>
      <trkpt lat="45.83349" lon="4.753">
        <ele>329.47803</ele>
        <time>2023-06-29T14:32:32.000Z</time>
      </trkpt>
      <trkpt lat="45.83344" lon="4.75301">
        <ele>329.43237</ele>
        <time>2023-06-29T14:32:33.000Z</time>
      </trkpt>
      <trkpt lat="45.8334" lon="4.75301">
        <ele>329.41058</ele>
        <time>2023-06-29T14:32:34.000Z</time>
      </trkpt>
      <trkpt lat="45.83337" lon="4.75306">
        <ele>329.42697</ele>
        <time>2023-06-29T14:32:35.000Z</time>
      </trkpt>
      <trkpt lat="45.83332" lon="4.75311">
        <ele>329.35977</ele>
        <time>2023-06-29T14:32:36.000Z</time>
      </trkpt>
      <trkpt lat="45.83328" lon="4.75315">
        <ele>329.36105</ele>
        <time>2023-06-29T14:32:37.000Z</time>
      </trkpt>
      <trkpt lat="45.83326" lon="4.75318">
        <ele>329.35425</ele>
        <time>2023-06-29T14:32:38.000Z</time>
      </trkpt>
      <trkpt lat="45.83322" lon="4.75318">
        <ele>329.29626</ele>
        <time>2023-06-29T14:32:39.000Z</time>
      </trkpt>
      <trkpt lat="45.83318" lon="4.7532">
        <ele>329.19489</ele>
        <time>2023-06-29T14:32:40.000Z</time>
      </trkpt>
      <trkpt lat="45.83314" lon="4.75324">
        <ele>329.06161</ele>
        <time>2023-06-29T14:32:41.000Z</time>
      </trkpt>
      <trkpt lat="45.83309" lon="4.75325">
        <ele>328.93176</ele>
        <time>2023-06-29T14:32:42.000Z</time>
      </trkpt>
      <trkpt lat="45.83304" lon="4.75327">
        <ele>328.81802</ele>
        <time>2023-06-29T14:32:43.000Z</time>
      </trkpt>
      <trkpt lat="45.83299" lon="4.7533">
        <ele>328.75504</ele>
        <time>2023-06-29T14:32:44.000Z</time>
      </trkpt>
      <trkpt lat="45.83297" lon="4.75331">
        <ele>328.65866</ele>
        <time>2023-06-29T14:32:45.000Z</time>
      </trkpt>
      <trkpt lat="45.83293" lon="4.75337">
        <ele>328.56342</ele>
        <time>2023-06-29T14:32:46.000Z</time>
      </trkpt>
      <trkpt lat="45.83288" lon="4.75338">
        <ele>328.44681</ele>
        <time>2023-06-29T14:32:47.000Z</time>
      </trkpt>
      <trkpt lat="45.83285" lon="4.75341">
        <ele>328.36139</ele>
        <time>2023-06-29T14:32:48.000Z</time>
      </trkpt>
      <trkpt lat="45.83281" lon="4.75343">
        <ele>328.32446</ele>
        <time>2023-06-29T14:32:49.000Z</time>
      </trkpt>
      <trkpt lat="45.83277" lon="4.75344">
        <ele>328.25089</ele>
        <time>2023-06-29T14:32:50.000Z</time>
      </trkpt>
      <trkpt lat="45.83274" lon="4.75345">
        <ele>328.15436</ele>
        <time>2023-06-29T14:32:51.000Z</time>
      </trkpt>
      <trkpt lat="45.8327" lon="4.75347">
        <ele>328.10101</ele>
        <time>2023-06-29T14:32:52.000Z</time>
      </trkpt>
      <trkpt lat="45.83266" lon="4.75348">
        <ele>328.07617</ele>
        <time>2023-06-29T14:32:53.000Z</time>
      </trkpt>
      <trkpt lat="45.83263" lon="4.75349">
        <ele>328.05655</ele>
        <time>2023-06-29T14:32:54.000Z</time>
      </trkpt>
      <trkpt lat="45.83259" lon="4.7535">
        <ele>328.05173</ele>
        <time>2023-06-29T14:32:55.000Z</time>
      </trkpt>
      <trkpt lat="45.83254" lon="4.75351">
        <ele>328.12799</ele>
        <time>2023-06-29T14:32:56.000Z</time>
      </trkpt>
      <trkpt lat="45.8325" lon="4.75352">
        <ele>328.13107</ele>
        <time>2023-06-29T14:32:57.000Z</time>
      </trkpt>
      <trkpt lat="45.83246" lon="4.75353">
        <ele>328.18005</ele>
        <time>2023-06-29T14:32:58.000Z</time>
      </trkpt>
      <trkpt lat="45.83242" lon="4.75355">
        <ele>328.26538</ele>
        <time>2023-06-29T14:32:59.000Z</time>
      </trkpt>
      <trkpt lat="45.83239" lon="4.75356">
        <ele>328.38818</ele>
        <time>2023-06-29T14:33:00.000Z</time>
      </trkpt>
      <trkpt lat="45.83236" lon="4.75357">
        <ele>328.57562</ele>
        <time>2023-06-29T14:33:01.000Z</time>
      </trkpt>
      <trkpt lat="45.83234" lon="4.75359">
        <ele>328.71335</ele>
        <time>2023-06-29T14:33:02.000Z</time>
      </trkpt>
      <trkpt lat="45.83232" lon="4.7536">
        <ele>328.83679</ele>
        <time>2023-06-29T14:33:03.000Z</time>
      </trkpt>
      <trkpt lat="45.8323" lon="4.75361">
        <ele>328.86078</ele>
        <time>2023-06-29T14:33:04.000Z</time>
      </trkpt>
      <trkpt lat="45.83227" lon="4.75363">
        <ele>328.92004</ele>
        <time>2023-06-29T14:33:05.000Z</time>
      </trkpt>
      <trkpt lat="45.83224" lon="4.75366">
        <ele>328.95404</ele>
        <time>2023-06-29T14:33:06.000Z</time>
      </trkpt>
      <trkpt lat="45.83221" lon="4.75368">
        <ele>329.02432</ele>
        <time>2023-06-29T14:33:07.000Z</time>
      </trkpt>
      <trkpt lat="45.83218" lon="4.7537">
        <ele>329.04822</ele>
        <time>2023-06-29T14:33:08.000Z</time>
      </trkpt>
      <trkpt lat="45.83215" lon="4.75373">
        <ele>329.07001</ele>
        <time>2023-06-29T14:33:09.000Z</time>
      </trkpt>
      <trkpt lat="45.83212" lon="4.75375">
        <ele>329.15939</ele>
        <time>2023-06-29T14:33:10.000Z</time>
      </trkpt>
      <trkpt lat="45.83209" lon="4.75377">
        <ele>329.32333</ele>
        <time>2023-06-29T14:33:11.000Z</time>
      </trkpt>
      <trkpt lat="45.83207" lon="4.7538">
        <ele>329.36017</ele>
        <time>2023-06-29T14:33:12.000Z</time>
      </trkpt>
      <trkpt lat="45.83206" lon="4.75384">
        <ele>329.33902</ele>
        <time>2023-06-29T14:33:13.000Z</time>
      </trkpt>
      <trkpt lat="45.83203" lon="4.75388">
        <ele>329.41718</ele>
        <time>2023-06-29T14:33:14.000Z</time>
      </trkpt>
      <trkpt lat="45.832" lon="4.75391">
        <ele>329.47906</ele>
        <time>2023-06-29T14:33:15.000Z</time>
      </trkpt>
      <trkpt lat="45.83197" lon="4.75393">
        <ele>329.32452</ele>
        <time>2023-06-29T14:33:16.000Z</time>
      </trkpt>
      <trkpt lat="45.83195" lon="4.75396">
        <ele>329.30545</ele>
        <time>2023-06-29T14:33:17.000Z</time>
      </trkpt>
      <trkpt lat="45.83192" lon="4.75398">
        <ele>329.26038</ele>
        <time>2023-06-29T14:33:18.000Z</time>
      </trkpt>
      <trkpt lat="45.8319" lon="4.754">
        <ele>329.21863</ele>
        <time>2023-06-29T14:33:19.000Z</time>
      </trkpt>
      <trkpt lat="45.83188" lon="4.75402">
        <ele>329.1778</ele>
        <time>2023-06-29T14:33:20.000Z</time>
      </trkpt>
      <trkpt lat="45.83186" lon="4.75404">
        <ele>329.10287</ele>
        <time>2023-06-29T14:33:21.000Z</time>
      </trkpt>
      <trkpt lat="45.83184" lon="4.75406">
        <ele>330.84308</ele>
        <time>2023-06-29T14:33:22.000Z</time>
      </trkpt>
      <trkpt lat="45.83181" lon="4.75409">
        <ele>330.94183</ele>
        <time>2023-06-29T14:33:23.000Z</time>
      </trkpt>
      <trkpt lat="45.83178" lon="4.75411">
        <ele>331.05688</ele>
        <time>2023-06-29T14:33:24.000Z</time>
      </trkpt>
      <trkpt lat="45.83176" lon="4.75413">
        <ele>331.16519</ele>
        <time>2023-06-29T14:33:25.000Z</time>
      </trkpt>
      <trkpt lat="45.83174" lon="4.75415">
        <ele>331.27341</ele>
        <time>2023-06-29T14:33:26.000Z</time>
      </trkpt>
      <trkpt lat="45.83171" lon="4.75416">
        <ele>331.35974</ele>
        <time>2023-06-29T14:33:27.000Z</time>
      </trkpt>
      <trkpt lat="45.83168" lon="4.75418">
        <ele>333.11893</ele>
        <time>2023-06-29T14:33:28.000Z</time>
      </trkpt>
      <trkpt lat="45.83165" lon="4.7542">
        <ele>333.3071</ele>
        <time>2023-06-29T14:33:29.000Z</time>
      </trkpt>
      <trkpt lat="45.83162" lon="4.75422">
        <ele>334.88519</ele>
        <time>2023-06-29T14:33:30.000Z</time>
      </trkpt>
      <trkpt lat="45.83159" lon="4.75423">
        <ele>335.09586</ele>
        <time>2023-06-29T14:33:31.000Z</time>
      </trkpt>
      <trkpt lat="45.83156" lon="4.75425">
        <ele>335.41205</ele>
        <time>2023-06-29T14:33:32.000Z</time>
      </trkpt>
      <trkpt lat="45.83152" lon="4.75426">
        <ele>335.82346</ele>
        <time>2023-06-29T14:33:33.000Z</time>
      </trkpt>
      <trkpt lat="45.83149" lon="4.75428">
        <ele>336.14365</ele>
        <time>2023-06-29T14:33:34.000Z</time>
      </trkpt>
      <trkpt lat="45.83146" lon="4.75429">
        <ele>336.49338</ele>
        <time>2023-06-29T14:33:35.000Z</time>
      </trkpt>
      <trkpt lat="45.83143" lon="4.75431">
        <ele>338.61456</ele>
        <time>2023-06-29T14:33:36.000Z</time>
      </trkpt>
      <trkpt lat="45.8314" lon="4.75433">
        <ele>339.07907</ele>
        <time>2023-06-29T14:33:37.000Z</time>
      </trkpt>
      <trkpt lat="45.83137" lon="4.75436">
        <ele>339.56775</ele>
        <time>2023-06-29T14:33:38.000Z</time>
      </trkpt>
      <trkpt lat="45.83134" lon="4.7544">
        <ele>340.08313</ele>
        <time>2023-06-29T14:33:39.000Z</time>
      </trkpt>
      <trkpt lat="45.83132" lon="4.75443">
        <ele>340.62634</ele>
        <time>2023-06-29T14:33:40.000Z</time>
      </trkpt>
      <trkpt lat="45.8313" lon="4.75446">
        <ele>341.19879</ele>
        <time>2023-06-29T14:33:41.000Z</time>
      </trkpt>
      <trkpt lat="45.83128" lon="4.7545">
        <ele>341.53882</ele>
        <time>2023-06-29T14:33:42.000Z</time>
      </trkpt>
      <trkpt lat="45.83127" lon="4.75454">
        <ele>343.52728</ele>
        <time>2023-06-29T14:33:43.000Z</time>
      </trkpt>
      <trkpt lat="45.83125" lon="4.75459">
        <ele>345.49512</ele>
        <time>2023-06-29T14:33:44.000Z</time>
      </trkpt>
      <trkpt lat="45.83125" lon="4.75463">
        <ele>347.46307</ele>
        <time>2023-06-29T14:33:45.000Z</time>
      </trkpt>
      <trkpt lat="45.83125" lon="4.75467">
        <ele>349.42413</ele>
        <time>2023-06-29T14:33:46.000Z</time>
      </trkpt>
      <trkpt lat="45.83125" lon="4.75472">
        <ele>351.36826</ele>
        <time>2023-06-29T14:33:47.000Z</time>
      </trkpt>
      <trkpt lat="45.83125" lon="4.75476">
        <ele>351.6279</ele>
        <time>2023-06-29T14:33:48.000Z</time>
      </trkpt>
      <trkpt lat="45.83125" lon="4.7548">
        <ele>353.46091</ele>
        <time>2023-06-29T14:33:49.000Z</time>
      </trkpt>
      <trkpt lat="45.83125" lon="4.75485">
        <ele>353.72687</ele>
        <time>2023-06-29T14:33:50.000Z</time>
      </trkpt>
      <trkpt lat="45.83125" lon="4.7549">
        <ele>355.40271</ele>
        <time>2023-06-29T14:33:51.000Z</time>
      </trkpt>
      <trkpt lat="45.83126" lon="4.75494">
        <ele>357.04816</ele>
        <time>2023-06-29T14:33:52.000Z</time>
      </trkpt>
      <trkpt lat="45.83126" lon="4.75498">
        <ele>358.73145</ele>
        <time>2023-06-29T14:33:53.000Z</time>
      </trkpt>
      <trkpt lat="45.83127" lon="4.75502">
        <ele>360.41278</ele>
        <time>2023-06-29T14:33:54.000Z</time>
      </trkpt>
      <trkpt lat="45.83129" lon="4.7551">
        <ele>361.91046</ele>
        <time>2023-06-29T14:33:55.000Z</time>
      </trkpt>
      <trkpt lat="45.83131" lon="4.75514">
        <ele>361.7045</ele>
        <time>2023-06-29T14:33:56.000Z</time>
      </trkpt>
      <trkpt lat="45.83132" lon="4.75518">
        <ele>363.4032</ele>
        <time>2023-06-29T14:33:57.000Z</time>
      </trkpt>
      <trkpt lat="45.83133" lon="4.75521">
        <ele>365.06866</ele>
        <time>2023-06-29T14:33:58.000Z</time>
      </trkpt>
      <trkpt lat="45.83135" lon="4.75525">
        <ele>366.75513</ele>
        <time>2023-06-29T14:33:59.000Z</time>
      </trkpt>
      <trkpt lat="45.83137" lon="4.75527">
        <ele>368.50604</ele>
        <time>2023-06-29T14:34:00.000Z</time>
      </trkpt>
      <trkpt lat="45.83139" lon="4.75529">
        <ele>370.21207</ele>
        <time>2023-06-29T14:34:01.000Z</time>
      </trkpt>
      <trkpt lat="45.8314" lon="4.75532">
        <ele>370.41113</ele>
        <time>2023-06-29T14:34:02.000Z</time>
      </trkpt>
      <trkpt lat="45.83142" lon="4.75535">
        <ele>370.49689</ele>
        <time>2023-06-29T14:34:03.000Z</time>
      </trkpt>
      <trkpt lat="45.83144" lon="4.75538">
        <ele>370.66364</ele>
        <time>2023-06-29T14:34:04.000Z</time>
      </trkpt>
      <trkpt lat="45.83146" lon="4.75542">
        <ele>370.84808</ele>
        <time>2023-06-29T14:34:06.000Z</time>
      </trkpt>
      <trkpt lat="45.83147" lon="4.75544">
        <ele>371.08643</ele>
        <time>2023-06-29T14:34:07.000Z</time>
      </trkpt>
      <trkpt lat="45.83149" lon="4.75547">
        <ele>371.32446</ele>
        <time>2023-06-29T14:34:08.000Z</time>
      </trkpt>
      <trkpt lat="45.83151" lon="4.7555">
        <ele>371.60587</ele>
        <time>2023-06-29T14:34:09.000Z</time>
      </trkpt>
      <trkpt lat="45.83152" lon="4.75553">
        <ele>371.92715</ele>
        <time>2023-06-29T14:34:10.000Z</time>
      </trkpt>
      <trkpt lat="45.83153" lon="4.75556">
        <ele>372.39008</ele>
        <time>2023-06-29T14:34:11.000Z</time>
      </trkpt>
      <trkpt lat="45.83153" lon="4.7556">
        <ele>372.74738</ele>
        <time>2023-06-29T14:34:12.000Z</time>
      </trkpt>
      <trkpt lat="45.83154" lon="4.75564">
        <ele>373.10919</ele>
        <time>2023-06-29T14:34:13.000Z</time>
      </trkpt>
      <trkpt lat="45.83154" lon="4.75568">
        <ele>373.40042</ele>
        <time>2023-06-29T14:34:14.000Z</time>
      </trkpt>
      <trkpt lat="45.83154" lon="4.75572">
        <ele>373.67758</ele>
        <time>2023-06-29T14:34:15.000Z</time>
      </trkpt>
      <trkpt lat="45.83155" lon="4.75576">
        <ele>374.13312</ele>
        <time>2023-06-29T14:34:16.000Z</time>
      </trkpt>
      <trkpt lat="45.83156" lon="4.7558">
        <ele>374.61099</ele>
        <time>2023-06-29T14:34:17.000Z</time>
      </trkpt>
      <trkpt lat="45.83157" lon="4.75585">
        <ele>374.75223</ele>
        <time>2023-06-29T14:34:18.000Z</time>
      </trkpt>
      <trkpt lat="45.83158" lon="4.75589">
        <ele>374.80173</ele>
        <time>2023-06-29T14:34:19.000Z</time>
      </trkpt>
      <trkpt lat="45.83159" lon="4.75593">
        <ele>374.79263</ele>
        <time>2023-06-29T14:34:20.000Z</time>
      </trkpt>
      <trkpt lat="45.8316" lon="4.75597">
        <ele>374.73038</ele>
        <time>2023-06-29T14:34:21.000Z</time>
      </trkpt>
      <trkpt lat="45.83161" lon="4.75601">
        <ele>374.69452</ele>
        <time>2023-06-29T14:34:22.000Z</time>
      </trkpt>
      <trkpt lat="45.83161" lon="4.75605">
        <ele>374.6373</ele>
        <time>2023-06-29T14:34:23.000Z</time>
      </trkpt>
      <trkpt lat="45.83162" lon="4.75609">
        <ele>374.70505</ele>
        <time>2023-06-29T14:34:24.000Z</time>
      </trkpt>
      <trkpt lat="45.83162" lon="4.75613">
        <ele>374.76508</ele>
        <time>2023-06-29T14:34:25.000Z</time>
      </trkpt>
      <trkpt lat="45.83163" lon="4.75617">
        <ele>374.81509</ele>
        <time>2023-06-29T14:34:26.000Z</time>
      </trkpt>
      <trkpt lat="45.83162" lon="4.75621">
        <ele>374.80862</ele>
        <time>2023-06-29T14:34:27.000Z</time>
      </trkpt>
      <trkpt lat="45.83162" lon="4.75624">
        <ele>374.78</ele>
        <time>2023-06-29T14:34:28.000Z</time>
      </trkpt>
      <trkpt lat="45.83162" lon="4.75629">
        <ele>374.73953</ele>
        <time>2023-06-29T14:34:29.000Z</time>
      </trkpt>
      <trkpt lat="45.83161" lon="4.75633">
        <ele>374.67352</ele>
        <time>2023-06-29T14:34:30.000Z</time>
      </trkpt>
      <trkpt lat="45.83162" lon="4.75636">
        <ele>374.65054</ele>
        <time>2023-06-29T14:34:31.000Z</time>
      </trkpt>
      <trkpt lat="45.83162" lon="4.7564">
        <ele>374.65479</ele>
        <time>2023-06-29T14:34:32.000Z</time>
      </trkpt>
      <trkpt lat="45.83162" lon="4.75644">
        <ele>374.6731</ele>
        <time>2023-06-29T14:34:33.000Z</time>
      </trkpt>
      <trkpt lat="45.83163" lon="4.75648">
        <ele>374.74112</ele>
        <time>2023-06-29T14:34:34.000Z</time>
      </trkpt>
      <trkpt lat="45.83163" lon="4.75652">
        <ele>374.81424</ele>
        <time>2023-06-29T14:34:35.000Z</time>
      </trkpt>
      <trkpt lat="45.83164" lon="4.75656">
        <ele>374.86728</ele>
        <time>2023-06-29T14:34:36.000Z</time>
      </trkpt>
      <trkpt lat="45.83165" lon="4.75659">
        <ele>374.9249</ele>
        <time>2023-06-29T14:34:37.000Z</time>
      </trkpt>
      <trkpt lat="45.83166" lon="4.75662">
        <ele>374.99545</ele>
        <time>2023-06-29T14:34:38.000Z</time>
      </trkpt>
      <trkpt lat="45.83168" lon="4.75666">
        <ele>375.1752</ele>
        <time>2023-06-29T14:34:39.000Z</time>
      </trkpt>
      <trkpt lat="45.83171" lon="4.75669">
        <ele>375.38651</ele>
        <time>2023-06-29T14:34:40.000Z</time>
      </trkpt>
      <trkpt lat="45.83173" lon="4.75673">
        <ele>375.58447</ele>
        <time>2023-06-29T14:34:41.000Z</time>
      </trkpt>
      <trkpt lat="45.83175" lon="4.75677">
        <ele>375.74197</ele>
        <time>2023-06-29T14:34:42.000Z</time>
      </trkpt>
      <trkpt lat="45.83177" lon="4.75681">
        <ele>375.90402</ele>
        <time>2023-06-29T14:34:43.000Z</time>
      </trkpt>
      <trkpt lat="45.83179" lon="4.75684">
        <ele>376.08704</ele>
        <time>2023-06-29T14:34:44.000Z</time>
      </trkpt>
      <trkpt lat="45.83181" lon="4.75687">
        <ele>376.23428</ele>
        <time>2023-06-29T14:34:45.000Z</time>
      </trkpt>
      <trkpt lat="45.83183" lon="4.75691">
        <ele>376.37231</ele>
        <time>2023-06-29T14:34:46.000Z</time>
      </trkpt>
      <trkpt lat="45.83185" lon="4.75694">
        <ele>376.48834</ele>
        <time>2023-06-29T14:34:47.000Z</time>
      </trkpt>
      <trkpt lat="45.83187" lon="4.75698">
        <ele>376.64105</ele>
        <time>2023-06-29T14:34:48.000Z</time>
      </trkpt>
      <trkpt lat="45.83189" lon="4.75702">
        <ele>376.81894</ele>
        <time>2023-06-29T14:34:49.000Z</time>
      </trkpt>
      <trkpt lat="45.83191" lon="4.75706">
        <ele>377.02338</ele>
        <time>2023-06-29T14:34:50.000Z</time>
      </trkpt>
      <trkpt lat="45.83193" lon="4.7571">
        <ele>377.1944</ele>
        <time>2023-06-29T14:34:51.000Z</time>
      </trkpt>
      <trkpt lat="45.83195" lon="4.75714">
        <ele>377.38336</ele>
        <time>2023-06-29T14:34:52.000Z</time>
      </trkpt>
      <trkpt lat="45.83197" lon="4.75718">
        <ele>377.56998</ele>
        <time>2023-06-29T14:34:53.000Z</time>
      </trkpt>
      <trkpt lat="45.832" lon="4.75723">
        <ele>377.72635</ele>
        <time>2023-06-29T14:34:54.000Z</time>
      </trkpt>
      <trkpt lat="45.83202" lon="4.75728">
        <ele>377.85785</ele>
        <time>2023-06-29T14:34:55.000Z</time>
      </trkpt>
      <trkpt lat="45.83203" lon="4.75732">
        <ele>377.9986</ele>
        <time>2023-06-29T14:34:56.000Z</time>
      </trkpt>
      <trkpt lat="45.83205" lon="4.75737">
        <ele>378.18024</ele>
        <time>2023-06-29T14:34:57.000Z</time>
      </trkpt>
      <trkpt lat="45.83207" lon="4.75741">
        <ele>378.35538</ele>
        <time>2023-06-29T14:34:58.000Z</time>
      </trkpt>
      <trkpt lat="45.83209" lon="4.75745">
        <ele>378.55078</ele>
        <time>2023-06-29T14:34:59.000Z</time>
      </trkpt>
      <trkpt lat="45.83211" lon="4.75749">
        <ele>378.73477</ele>
        <time>2023-06-29T14:35:00.000Z</time>
      </trkpt>
      <trkpt lat="45.83213" lon="4.75753">
        <ele>378.9003</ele>
        <time>2023-06-29T14:35:01.000Z</time>
      </trkpt>
      <trkpt lat="45.83215" lon="4.75757">
        <ele>379.164</ele>
        <time>2023-06-29T14:35:02.000Z</time>
      </trkpt>
      <trkpt lat="45.83217" lon="4.75762">
        <ele>379.46024</ele>
        <time>2023-06-29T14:35:03.000Z</time>
      </trkpt>
      <trkpt lat="45.83219" lon="4.75766">
        <ele>379.73077</ele>
        <time>2023-06-29T14:35:04.000Z</time>
      </trkpt>
      <trkpt lat="45.8322" lon="4.7577">
        <ele>379.96942</ele>
        <time>2023-06-29T14:35:05.000Z</time>
      </trkpt>
      <trkpt lat="45.83222" lon="4.75774">
        <ele>380.20309</ele>
        <time>2023-06-29T14:35:06.000Z</time>
      </trkpt>
      <trkpt lat="45.83224" lon="4.75778">
        <ele>380.50201</ele>
        <time>2023-06-29T14:35:07.000Z</time>
      </trkpt>
      <trkpt lat="45.83225" lon="4.75782">
        <ele>380.81958</ele>
        <time>2023-06-29T14:35:08.000Z</time>
      </trkpt>
      <trkpt lat="45.83227" lon="4.75786">
        <ele>381.08893</ele>
        <time>2023-06-29T14:35:09.000Z</time>
      </trkpt>
      <trkpt lat="45.83229" lon="4.7579">
        <ele>381.32098</ele>
        <time>2023-06-29T14:35:10.000Z</time>
      </trkpt>
      <trkpt lat="45.83231" lon="4.75794">
        <ele>381.56625</ele>
        <time>2023-06-29T14:35:11.000Z</time>
      </trkpt>
      <trkpt lat="45.83233" lon="4.75799">
        <ele>381.77414</ele>
        <time>2023-06-29T14:35:12.000Z</time>
      </trkpt>
      <trkpt lat="45.83234" lon="4.75803">
        <ele>381.98077</ele>
        <time>2023-06-29T14:35:13.000Z</time>
      </trkpt>
      <trkpt lat="45.83236" lon="4.75808">
        <ele>382.11032</ele>
        <time>2023-06-29T14:35:14.000Z</time>
      </trkpt>
      <trkpt lat="45.83237" lon="4.75812">
        <ele>382.31161</ele>
        <time>2023-06-29T14:35:15.000Z</time>
      </trkpt>
      <trkpt lat="45.83239" lon="4.75817">
        <ele>382.50317</ele>
        <time>2023-06-29T14:35:16.000Z</time>
      </trkpt>
      <trkpt lat="45.8324" lon="4.75821">
        <ele>382.65372</ele>
        <time>2023-06-29T14:35:17.000Z</time>
      </trkpt>
      <trkpt lat="45.83241" lon="4.75824">
        <ele>382.8172</ele>
        <time>2023-06-29T14:35:18.000Z</time>
      </trkpt>
      <trkpt lat="45.83242" lon="4.75828">
        <ele>382.96207</ele>
        <time>2023-06-29T14:35:19.000Z</time>
      </trkpt>
      <trkpt lat="45.83242" lon="4.75831">
        <ele>383.11469</ele>
        <time>2023-06-29T14:35:20.000Z</time>
      </trkpt>
      <trkpt lat="45.83243" lon="4.75835">
        <ele>383.24063</ele>
        <time>2023-06-29T14:35:21.000Z</time>
      </trkpt>
      <trkpt lat="45.83244" lon="4.75839">
        <ele>383.29831</ele>
        <time>2023-06-29T14:35:22.000Z</time>
      </trkpt>
      <trkpt lat="45.83245" lon="4.75843">
        <ele>383.33441</ele>
        <time>2023-06-29T14:35:23.000Z</time>
      </trkpt>
      <trkpt lat="45.83246" lon="4.75847">
        <ele>383.38336</ele>
        <time>2023-06-29T14:35:24.000Z</time>
      </trkpt>
      <trkpt lat="45.83247" lon="4.75851">
        <ele>383.44641</ele>
        <time>2023-06-29T14:35:25.000Z</time>
      </trkpt>
      <trkpt lat="45.83246" lon="4.75856">
        <ele>383.51849</ele>
        <time>2023-06-29T14:35:26.000Z</time>
      </trkpt>
      <trkpt lat="45.83246" lon="4.7586">
        <ele>383.69354</ele>
        <time>2023-06-29T14:35:27.000Z</time>
      </trkpt>
      <trkpt lat="45.83245" lon="4.75864">
        <ele>383.59943</ele>
        <time>2023-06-29T14:35:28.000Z</time>
      </trkpt>
      <trkpt lat="45.83245" lon="4.75868">
        <ele>383.64523</ele>
        <time>2023-06-29T14:35:29.000Z</time>
      </trkpt>
      <trkpt lat="45.83245" lon="4.75873">
        <ele>383.71173</ele>
        <time>2023-06-29T14:35:30.000Z</time>
      </trkpt>
      <trkpt lat="45.83245" lon="4.75877">
        <ele>383.75647</ele>
        <time>2023-06-29T14:35:31.000Z</time>
      </trkpt>
      <trkpt lat="45.83246" lon="4.75881">
        <ele>383.80359</ele>
        <time>2023-06-29T14:35:32.000Z</time>
      </trkpt>
      <trkpt lat="45.83245" lon="4.75885">
        <ele>383.80612</ele>
        <time>2023-06-29T14:35:33.000Z</time>
      </trkpt>
      <trkpt lat="45.83245" lon="4.7589">
        <ele>383.84076</ele>
        <time>2023-06-29T14:35:34.000Z</time>
      </trkpt>
      <trkpt lat="45.83245" lon="4.75895">
        <ele>383.93781</ele>
        <time>2023-06-29T14:35:35.000Z</time>
      </trkpt>
      <trkpt lat="45.83246" lon="4.75899">
        <ele>384.0289</ele>
        <time>2023-06-29T14:35:36.000Z</time>
      </trkpt>
      <trkpt lat="45.83246" lon="4.75903">
        <ele>384.1145</ele>
        <time>2023-06-29T14:35:37.000Z</time>
      </trkpt>
      <trkpt lat="45.83246" lon="4.75908">
        <ele>384.17072</ele>
        <time>2023-06-29T14:35:38.000Z</time>
      </trkpt>
      <trkpt lat="45.83247" lon="4.75913">
        <ele>384.20813</ele>
        <time>2023-06-29T14:35:39.000Z</time>
      </trkpt>
      <trkpt lat="45.83248" lon="4.75918">
        <ele>384.22028</ele>
        <time>2023-06-29T14:35:40.000Z</time>
      </trkpt>
      <trkpt lat="45.83249" lon="4.75923">
        <ele>384.2554</ele>
        <time>2023-06-29T14:35:41.000Z</time>
      </trkpt>
      <trkpt lat="45.8325" lon="4.75928">
        <ele>384.28635</ele>
        <time>2023-06-29T14:35:42.000Z</time>
      </trkpt>
      <trkpt lat="45.83252" lon="4.75933">
        <ele>384.30869</ele>
        <time>2023-06-29T14:35:43.000Z</time>
      </trkpt>
      <trkpt lat="45.83253" lon="4.75938">
        <ele>384.34631</ele>
        <time>2023-06-29T14:35:44.000Z</time>
      </trkpt>
      <trkpt lat="45.83254" lon="4.75944">
        <ele>384.47516</ele>
        <time>2023-06-29T14:35:45.000Z</time>
      </trkpt>
      <trkpt lat="45.83256" lon="4.75949">
        <ele>384.58835</ele>
        <time>2023-06-29T14:35:46.000Z</time>
      </trkpt>
      <trkpt lat="45.83258" lon="4.75954">
        <ele>384.58652</ele>
        <time>2023-06-29T14:35:47.000Z</time>
      </trkpt>
      <trkpt lat="45.8326" lon="4.75959">
        <ele>384.83591</ele>
        <time>2023-06-29T14:35:48.000Z</time>
      </trkpt>
      <trkpt lat="45.83261" lon="4.75964">
        <ele>384.96564</ele>
        <time>2023-06-29T14:35:49.000Z</time>
      </trkpt>
      <trkpt lat="45.83263" lon="4.75969">
        <ele>385.08099</ele>
        <time>2023-06-29T14:35:50.000Z</time>
      </trkpt>
      <trkpt lat="45.83264" lon="4.75974">
        <ele>385.20856</ele>
        <time>2023-06-29T14:35:51.000Z</time>
      </trkpt>
      <trkpt lat="45.83266" lon="4.75979">
        <ele>385.32422</ele>
        <time>2023-06-29T14:35:52.000Z</time>
      </trkpt>
      <trkpt lat="45.83267" lon="4.75984">
        <ele>385.49622</ele>
        <time>2023-06-29T14:35:53.000Z</time>
      </trkpt>
      <trkpt lat="45.83269" lon="4.75989">
        <ele>385.69962</ele>
        <time>2023-06-29T14:35:54.000Z</time>
      </trkpt>
      <trkpt lat="45.8327" lon="4.75994">
        <ele>385.85782</ele>
        <time>2023-06-29T14:35:55.000Z</time>
      </trkpt>
      <trkpt lat="45.83271" lon="4.75999">
        <ele>386.02362</ele>
        <time>2023-06-29T14:35:56.000Z</time>
      </trkpt>
      <trkpt lat="45.83273" lon="4.76004">
        <ele>386.19232</ele>
        <time>2023-06-29T14:35:57.000Z</time>
      </trkpt>
      <trkpt lat="45.83275" lon="4.76009">
        <ele>386.34448</ele>
        <time>2023-06-29T14:35:58.000Z</time>
      </trkpt>
      <trkpt lat="45.83277" lon="4.76015">
        <ele>386.51318</ele>
        <time>2023-06-29T14:35:59.000Z</time>
      </trkpt>
      <trkpt lat="45.83279" lon="4.7602">
        <ele>386.69052</ele>
        <time>2023-06-29T14:36:00.000Z</time>
      </trkpt>
      <trkpt lat="45.8328" lon="4.76025">
        <ele>386.87735</ele>
        <time>2023-06-29T14:36:01.000Z</time>
      </trkpt>
      <trkpt lat="45.83282" lon="4.7603">
        <ele>387.07959</ele>
        <time>2023-06-29T14:36:02.000Z</time>
      </trkpt>
      <trkpt lat="45.83284" lon="4.76035">
        <ele>387.29099</ele>
        <time>2023-06-29T14:36:03.000Z</time>
      </trkpt>
      <trkpt lat="45.83285" lon="4.7604">
        <ele>387.5061</ele>
        <time>2023-06-29T14:36:04.000Z</time>
      </trkpt>
      <trkpt lat="45.83286" lon="4.76045">
        <ele>387.6225</ele>
        <time>2023-06-29T14:36:05.000Z</time>
      </trkpt>
      <trkpt lat="45.83287" lon="4.76051">
        <ele>387.7529</ele>
        <time>2023-06-29T14:36:06.000Z</time>
      </trkpt>
      <trkpt lat="45.83287" lon="4.76056">
        <ele>387.91431</ele>
        <time>2023-06-29T14:36:07.000Z</time>
      </trkpt>
      <trkpt lat="45.83286" lon="4.76062">
        <ele>388.06802</ele>
        <time>2023-06-29T14:36:08.000Z</time>
      </trkpt>
      <trkpt lat="45.83286" lon="4.76068">
        <ele>388.20868</ele>
        <time>2023-06-29T14:36:09.000Z</time>
      </trkpt>
      <trkpt lat="45.83285" lon="4.76073">
        <ele>388.36102</ele>
        <time>2023-06-29T14:36:10.000Z</time>
      </trkpt>
      <trkpt lat="45.83283" lon="4.76078">
        <ele>388.52185</ele>
        <time>2023-06-29T14:36:11.000Z</time>
      </trkpt>
      <trkpt lat="45.83281" lon="4.76083">
        <ele>388.71985</ele>
        <time>2023-06-29T14:36:12.000Z</time>
      </trkpt>
      <trkpt lat="45.83279" lon="4.76088">
        <ele>388.90292</ele>
        <time>2023-06-29T14:36:13.000Z</time>
      </trkpt>
      <trkpt lat="45.83277" lon="4.76093">
        <ele>389.08594</ele>
        <time>2023-06-29T14:36:14.000Z</time>
      </trkpt>
      <trkpt lat="45.83275" lon="4.76097">
        <ele>389.20712</ele>
        <time>2023-06-29T14:36:15.000Z</time>
      </trkpt>
      <trkpt lat="45.83274" lon="4.76102">
        <ele>389.33496</ele>
        <time>2023-06-29T14:36:16.000Z</time>
      </trkpt>
      <trkpt lat="45.83272" lon="4.76106">
        <ele>389.46863</ele>
        <time>2023-06-29T14:36:17.000Z</time>
      </trkpt>
      <trkpt lat="45.8327" lon="4.76111">
        <ele>389.58951</ele>
        <time>2023-06-29T14:36:18.000Z</time>
      </trkpt>
      <trkpt lat="45.83269" lon="4.76115">
        <ele>389.69098</ele>
        <time>2023-06-29T14:36:19.000Z</time>
      </trkpt>
      <trkpt lat="45.83268" lon="4.7612">
        <ele>389.86331</ele>
        <time>2023-06-29T14:36:20.000Z</time>
      </trkpt>
      <trkpt lat="45.83267" lon="4.76125">
        <ele>390.01007</ele>
        <time>2023-06-29T14:36:21.000Z</time>
      </trkpt>
      <trkpt lat="45.83266" lon="4.7613">
        <ele>390.05673</ele>
        <time>2023-06-29T14:36:22.000Z</time>
      </trkpt>
      <trkpt lat="45.83266" lon="4.76135">
        <ele>390.0943</ele>
        <time>2023-06-29T14:36:23.000Z</time>
      </trkpt>
      <trkpt lat="45.83266" lon="4.76141">
        <ele>390.10339</ele>
        <time>2023-06-29T14:36:24.000Z</time>
      </trkpt>
      <trkpt lat="45.83266" lon="4.76146">
        <ele>390.11768</ele>
        <time>2023-06-29T14:36:25.000Z</time>
      </trkpt>
      <trkpt lat="45.83267" lon="4.76151">
        <ele>390.14243</ele>
        <time>2023-06-29T14:36:26.000Z</time>
      </trkpt>
      <trkpt lat="45.83267" lon="4.76156">
        <ele>390.12198</ele>
        <time>2023-06-29T14:36:27.000Z</time>
      </trkpt>
      <trkpt lat="45.83268" lon="4.76161">
        <ele>390.1217</ele>
        <time>2023-06-29T14:36:28.000Z</time>
      </trkpt>
      <trkpt lat="45.83269" lon="4.76165">
        <ele>390.2258</ele>
        <time>2023-06-29T14:36:29.000Z</time>
      </trkpt>
      <trkpt lat="45.8327" lon="4.7617">
        <ele>390.3511</ele>
        <time>2023-06-29T14:36:30.000Z</time>
      </trkpt>
      <trkpt lat="45.83271" lon="4.76175">
        <ele>390.47943</ele>
        <time>2023-06-29T14:36:31.000Z</time>
      </trkpt>
      <trkpt lat="45.83272" lon="4.76179">
        <ele>390.58478</ele>
        <time>2023-06-29T14:36:32.000Z</time>
      </trkpt>
      <trkpt lat="45.83272" lon="4.76184">
        <ele>390.69818</ele>
        <time>2023-06-29T14:36:33.000Z</time>
      </trkpt>
      <trkpt lat="45.83273" lon="4.76189">
        <ele>390.8436</ele>
        <time>2023-06-29T14:36:34.000Z</time>
      </trkpt>
      <trkpt lat="45.83274" lon="4.76193">
        <ele>390.97772</ele>
        <time>2023-06-29T14:36:35.000Z</time>
      </trkpt>
      <trkpt lat="45.83274" lon="4.76198">
        <ele>390.97321</ele>
        <time>2023-06-29T14:36:36.000Z</time>
      </trkpt>
      <trkpt lat="45.83275" lon="4.76202">
        <ele>391.01636</ele>
        <time>2023-06-29T14:36:37.000Z</time>
      </trkpt>
      <trkpt lat="45.83276" lon="4.76207">
        <ele>391.11127</ele>
        <time>2023-06-29T14:36:38.000Z</time>
      </trkpt>
      <trkpt lat="45.83276" lon="4.76211">
        <ele>391.21683</ele>
        <time>2023-06-29T14:36:39.000Z</time>
      </trkpt>
      <trkpt lat="45.83276" lon="4.76215">
        <ele>391.23947</ele>
        <time>2023-06-29T14:36:40.000Z</time>
      </trkpt>
      <trkpt lat="45.83276" lon="4.7622">
        <ele>391.26431</ele>
        <time>2023-06-29T14:36:41.000Z</time>
      </trkpt>
      <trkpt lat="45.83277" lon="4.76224">
        <ele>391.39493</ele>
        <time>2023-06-29T14:36:42.000Z</time>
      </trkpt>
      <trkpt lat="45.83277" lon="4.76229">
        <ele>391.53357</ele>
        <time>2023-06-29T14:36:43.000Z</time>
      </trkpt>
      <trkpt lat="45.83277" lon="4.76234">
        <ele>391.66522</ele>
        <time>2023-06-29T14:36:44.000Z</time>
      </trkpt>
      <trkpt lat="45.83276" lon="4.76238">
        <ele>391.81467</ele>
        <time>2023-06-29T14:36:45.000Z</time>
      </trkpt>
      <trkpt lat="45.83276" lon="4.76242">
        <ele>391.95786</ele>
        <time>2023-06-29T14:36:46.000Z</time>
      </trkpt>
      <trkpt lat="45.83277" lon="4.76247">
        <ele>392.09613</ele>
        <time>2023-06-29T14:36:47.000Z</time>
      </trkpt>
      <trkpt lat="45.83277" lon="4.76251">
        <ele>392.21954</ele>
        <time>2023-06-29T14:36:48.000Z</time>
      </trkpt>
      <trkpt lat="45.83277" lon="4.76255">
        <ele>392.2431</ele>
        <time>2023-06-29T14:36:49.000Z</time>
      </trkpt>
      <trkpt lat="45.83277" lon="4.76259">
        <ele>392.21875</ele>
        <time>2023-06-29T14:36:50.000Z</time>
      </trkpt>
      <trkpt lat="45.83278" lon="4.76263">
        <ele>392.18866</ele>
        <time>2023-06-29T14:36:51.000Z</time>
      </trkpt>
      <trkpt lat="45.83277" lon="4.76267">
        <ele>392.17352</ele>
        <time>2023-06-29T14:36:52.000Z</time>
      </trkpt>
      <trkpt lat="45.83277" lon="4.76272">
        <ele>392.18716</ele>
        <time>2023-06-29T14:36:53.000Z</time>
      </trkpt>
      <trkpt lat="45.83277" lon="4.76276">
        <ele>392.21545</ele>
        <time>2023-06-29T14:36:54.000Z</time>
      </trkpt>
      <trkpt lat="45.83277" lon="4.7628">
        <ele>392.26343</ele>
        <time>2023-06-29T14:36:55.000Z</time>
      </trkpt>
      <trkpt lat="45.83278" lon="4.76284">
        <ele>392.45123</ele>
        <time>2023-06-29T14:36:56.000Z</time>
      </trkpt>
      <trkpt lat="45.83278" lon="4.76288">
        <ele>392.59869</ele>
        <time>2023-06-29T14:36:57.000Z</time>
      </trkpt>
      <trkpt lat="45.83279" lon="4.76292">
        <ele>392.72083</ele>
        <time>2023-06-29T14:36:58.000Z</time>
      </trkpt>
      <trkpt lat="45.83279" lon="4.76296">
        <ele>392.85428</ele>
        <time>2023-06-29T14:36:59.000Z</time>
      </trkpt>
      <trkpt lat="45.8328" lon="4.76301">
        <ele>393.00275</ele>
        <time>2023-06-29T14:37:00.000Z</time>
      </trkpt>
      <trkpt lat="45.8328" lon="4.76304">
        <ele>393.18237</ele>
        <time>2023-06-29T14:37:01.000Z</time>
      </trkpt>
      <trkpt lat="45.8328" lon="4.76308">
        <ele>393.3494</ele>
        <time>2023-06-29T14:37:02.000Z</time>
      </trkpt>
      <trkpt lat="45.83281" lon="4.76312">
        <ele>393.53464</ele>
        <time>2023-06-29T14:37:03.000Z</time>
      </trkpt>
      <trkpt lat="45.83282" lon="4.76316">
        <ele>393.75635</ele>
        <time>2023-06-29T14:37:04.000Z</time>
      </trkpt>
      <trkpt lat="45.83282" lon="4.7632">
        <ele>393.97433</ele>
        <time>2023-06-29T14:37:05.000Z</time>
      </trkpt>
      <trkpt lat="45.83282" lon="4.76324">
        <ele>394.20154</ele>
        <time>2023-06-29T14:37:06.000Z</time>
      </trkpt>
      <trkpt lat="45.83283" lon="4.76328">
        <ele>394.43234</ele>
        <time>2023-06-29T14:37:07.000Z</time>
      </trkpt>
      <trkpt lat="45.83282" lon="4.76332">
        <ele>394.66162</ele>
        <time>2023-06-29T14:37:08.000Z</time>
      </trkpt>
      <trkpt lat="45.83283" lon="4.76336">
        <ele>394.89917</ele>
        <time>2023-06-29T14:37:09.000Z</time>
      </trkpt>
      <trkpt lat="45.83283" lon="4.76339">
        <ele>395.17468</ele>
        <time>2023-06-29T14:37:10.000Z</time>
      </trkpt>
      <trkpt lat="45.83283" lon="4.76343">
        <ele>395.46246</ele>
        <time>2023-06-29T14:37:11.000Z</time>
      </trkpt>
      <trkpt lat="45.83283" lon="4.76346">
        <ele>395.63544</ele>
        <time>2023-06-29T14:37:12.000Z</time>
      </trkpt>
      <trkpt lat="45.83283" lon="4.7635">
        <ele>395.7883</ele>
        <time>2023-06-29T14:37:13.000Z</time>
      </trkpt>
      <trkpt lat="45.83283" lon="4.76353">
        <ele>395.91068</ele>
        <time>2023-06-29T14:37:14.000Z</time>
      </trkpt>
      <trkpt lat="45.83283" lon="4.76356">
        <ele>396.02441</ele>
        <time>2023-06-29T14:37:15.000Z</time>
      </trkpt>
      <trkpt lat="45.83283" lon="4.7636">
        <ele>396.1474</ele>
        <time>2023-06-29T14:37:16.000Z</time>
      </trkpt>
      <trkpt lat="45.83284" lon="4.76363">
        <ele>396.27151</ele>
        <time>2023-06-29T14:37:17.000Z</time>
      </trkpt>
      <trkpt lat="45.83285" lon="4.76365">
        <ele>396.31445</ele>
        <time>2023-06-29T14:37:18.000Z</time>
      </trkpt>
      <trkpt lat="45.83287" lon="4.76368">
        <ele>396.74905</ele>
        <time>2023-06-29T14:37:19.000Z</time>
      </trkpt>
      <trkpt lat="45.83289" lon="4.7637">
        <ele>396.78592</ele>
        <time>2023-06-29T14:37:20.000Z</time>
      </trkpt>
      <trkpt lat="45.83291" lon="4.76372">
        <ele>396.86395</ele>
        <time>2023-06-29T14:37:21.000Z</time>
      </trkpt>
      <trkpt lat="45.83294" lon="4.76374">
        <ele>396.9433</ele>
        <time>2023-06-29T14:37:22.000Z</time>
      </trkpt>
      <trkpt lat="45.83296" lon="4.76376">
        <ele>397.05646</ele>
        <time>2023-06-29T14:37:23.000Z</time>
      </trkpt>
      <trkpt lat="45.83298" lon="4.76378">
        <ele>397.15863</ele>
        <time>2023-06-29T14:37:24.000Z</time>
      </trkpt>
      <trkpt lat="45.833" lon="4.76379">
        <ele>397.25436</ele>
        <time>2023-06-29T14:37:25.000Z</time>
      </trkpt>
      <trkpt lat="45.83303" lon="4.76379">
        <ele>397.24643</ele>
        <time>2023-06-29T14:37:26.000Z</time>
      </trkpt>
      <trkpt lat="45.83306" lon="4.76379">
        <ele>397.23749</ele>
        <time>2023-06-29T14:37:27.000Z</time>
      </trkpt>
      <trkpt lat="45.83308" lon="4.76378">
        <ele>397.52496</ele>
        <time>2023-06-29T14:37:28.000Z</time>
      </trkpt>
      <trkpt lat="45.83311" lon="4.76378">
        <ele>397.73615</ele>
        <time>2023-06-29T14:37:29.000Z</time>
      </trkpt>
      <trkpt lat="45.83314" lon="4.76377">
        <ele>397.92267</ele>
        <time>2023-06-29T14:37:30.000Z</time>
      </trkpt>
      <trkpt lat="45.83317" lon="4.76376">
        <ele>398.08246</ele>
        <time>2023-06-29T14:37:31.000Z</time>
      </trkpt>
      <trkpt lat="45.8332" lon="4.76374">
        <ele>398.35748</ele>
        <time>2023-06-29T14:37:32.000Z</time>
      </trkpt>
      <trkpt lat="45.83323" lon="4.76373">
        <ele>398.62308</ele>
        <time>2023-06-29T14:37:33.000Z</time>
      </trkpt>
      <trkpt lat="45.83325" lon="4.76371">
        <ele>398.89142</ele>
        <time>2023-06-29T14:37:34.000Z</time>
      </trkpt>
      <trkpt lat="45.83328" lon="4.76368">
        <ele>399.16641</ele>
        <time>2023-06-29T14:37:35.000Z</time>
      </trkpt>
      <trkpt lat="45.8333" lon="4.76366">
        <ele>399.46051</ele>
        <time>2023-06-29T14:37:36.000Z</time>
      </trkpt>
      <trkpt lat="45.83332" lon="4.76363">
        <ele>399.74869</ele>
        <time>2023-06-29T14:37:37.000Z</time>
      </trkpt>
      <trkpt lat="45.83335" lon="4.76361">
        <ele>400.13138</ele>
        <time>2023-06-29T14:37:38.000Z</time>
      </trkpt>
      <trkpt lat="45.83337" lon="4.76359">
        <ele>399.98444</ele>
        <time>2023-06-29T14:37:39.000Z</time>
      </trkpt>
      <trkpt lat="45.8334" lon="4.76357">
        <ele>400.24316</ele>
        <time>2023-06-29T14:37:40.000Z</time>
      </trkpt>
      <trkpt lat="45.83343" lon="4.76354">
        <ele>400.46759</ele>
        <time>2023-06-29T14:37:41.000Z</time>
      </trkpt>
      <trkpt lat="45.83345" lon="4.76352">
        <ele>400.67389</ele>
        <time>2023-06-29T14:37:42.000Z</time>
      </trkpt>
      <trkpt lat="45.83347" lon="4.7635">
        <ele>400.8432</ele>
        <time>2023-06-29T14:37:43.000Z</time>
      </trkpt>
      <trkpt lat="45.8335" lon="4.76348">
        <ele>401.00677</ele>
        <time>2023-06-29T14:37:44.000Z</time>
      </trkpt>
      <trkpt lat="45.83353" lon="4.76346">
        <ele>401.17529</ele>
        <time>2023-06-29T14:37:45.000Z</time>
      </trkpt>
      <trkpt lat="45.83355" lon="4.76344">
        <ele>401.53021</ele>
        <time>2023-06-29T14:37:46.000Z</time>
      </trkpt>
      <trkpt lat="45.83358" lon="4.76342">
        <ele>401.87634</ele>
        <time>2023-06-29T14:37:47.000Z</time>
      </trkpt>
      <trkpt lat="45.83361" lon="4.7634">
        <ele>401.97476</ele>
        <time>2023-06-29T14:37:48.000Z</time>
      </trkpt>
      <trkpt lat="45.83363" lon="4.76338">
        <ele>402.14233</ele>
        <time>2023-06-29T14:37:49.000Z</time>
      </trkpt>
      <trkpt lat="45.83367" lon="4.76337">
        <ele>402.29166</ele>
        <time>2023-06-29T14:37:50.000Z</time>
      </trkpt>
      <trkpt lat="45.83369" lon="4.76336">
        <ele>402.44904</ele>
        <time>2023-06-29T14:37:51.000Z</time>
      </trkpt>
      <trkpt lat="45.83372" lon="4.76336">
        <ele>402.60583</ele>
        <time>2023-06-29T14:37:52.000Z</time>
      </trkpt>
      <trkpt lat="45.83375" lon="4.76335">
        <ele>402.78091</ele>
        <time>2023-06-29T14:37:53.000Z</time>
      </trkpt>
      <trkpt lat="45.83378" lon="4.76335">
        <ele>402.9556</ele>
        <time>2023-06-29T14:37:54.000Z</time>
      </trkpt>
      <trkpt lat="45.83381" lon="4.76335">
        <ele>403.12152</ele>
        <time>2023-06-29T14:37:55.000Z</time>
      </trkpt>
      <trkpt lat="45.83384" lon="4.76335">
        <ele>403.28815</ele>
        <time>2023-06-29T14:37:56.000Z</time>
      </trkpt>
      <trkpt lat="45.83387" lon="4.76335">
        <ele>403.44116</ele>
        <time>2023-06-29T14:37:57.000Z</time>
      </trkpt>
      <trkpt lat="45.8339" lon="4.76335">
        <ele>403.5932</ele>
        <time>2023-06-29T14:37:58.000Z</time>
      </trkpt>
      <trkpt lat="45.83393" lon="4.76336">
        <ele>403.87286</ele>
        <time>2023-06-29T14:37:59.000Z</time>
      </trkpt>
      <trkpt lat="45.83396" lon="4.76337">
        <ele>404.14349</ele>
        <time>2023-06-29T14:38:00.000Z</time>
      </trkpt>
      <trkpt lat="45.83399" lon="4.76337">
        <ele>404.3985</ele>
        <time>2023-06-29T14:38:01.000Z</time>
      </trkpt>
      <trkpt lat="45.83402" lon="4.76338">
        <ele>404.70001</ele>
        <time>2023-06-29T14:38:02.000Z</time>
      </trkpt>
      <trkpt lat="45.83404" lon="4.76338">
        <ele>404.98383</ele>
        <time>2023-06-29T14:38:03.000Z</time>
      </trkpt>
      <trkpt lat="45.83407" lon="4.76339">
        <ele>405.24527</ele>
        <time>2023-06-29T14:38:04.000Z</time>
      </trkpt>
      <trkpt lat="45.8341" lon="4.76339">
        <ele>405.39496</ele>
        <time>2023-06-29T14:38:05.000Z</time>
      </trkpt>
      <trkpt lat="45.83414" lon="4.7634">
        <ele>405.45493</ele>
        <time>2023-06-29T14:38:06.000Z</time>
      </trkpt>
      <trkpt lat="45.83417" lon="4.76341">
        <ele>405.50974</ele>
        <time>2023-06-29T14:38:07.000Z</time>
      </trkpt>
      <trkpt lat="45.8342" lon="4.76343">
        <ele>405.50479</ele>
        <time>2023-06-29T14:38:08.000Z</time>
      </trkpt>
      <trkpt lat="45.83422" lon="4.76344">
        <ele>405.48315</ele>
        <time>2023-06-29T14:38:09.000Z</time>
      </trkpt>
      <trkpt lat="45.83424" lon="4.76347">
        <ele>405.49548</ele>
        <time>2023-06-29T14:38:10.000Z</time>
      </trkpt>
      <trkpt lat="45.83427" lon="4.7635">
        <ele>405.50229</ele>
        <time>2023-06-29T14:38:11.000Z</time>
      </trkpt>
      <trkpt lat="45.83428" lon="4.76353">
        <ele>405.4776</ele>
        <time>2023-06-29T14:38:12.000Z</time>
      </trkpt>
      <trkpt lat="45.8343" lon="4.76357">
        <ele>405.43854</ele>
        <time>2023-06-29T14:38:13.000Z</time>
      </trkpt>
      <trkpt lat="45.83432" lon="4.76362">
        <ele>405.43143</ele>
        <time>2023-06-29T14:38:14.000Z</time>
      </trkpt>
      <trkpt lat="45.83434" lon="4.76367">
        <ele>405.42438</ele>
        <time>2023-06-29T14:38:15.000Z</time>
      </trkpt>
      <trkpt lat="45.83435" lon="4.76371">
        <ele>405.23331</ele>
        <time>2023-06-29T14:38:16.000Z</time>
      </trkpt>
      <trkpt lat="45.83436" lon="4.76376">
        <ele>404.95145</ele>
        <time>2023-06-29T14:38:17.000Z</time>
      </trkpt>
      <trkpt lat="45.83436" lon="4.76381">
        <ele>404.99725</ele>
        <time>2023-06-29T14:38:18.000Z</time>
      </trkpt>
      <trkpt lat="45.83436" lon="4.76385">
        <ele>405.00043</ele>
        <time>2023-06-29T14:38:19.000Z</time>
      </trkpt>
      <trkpt lat="45.83437" lon="4.7639">
        <ele>404.97922</ele>
        <time>2023-06-29T14:38:20.000Z</time>
      </trkpt>
      <trkpt lat="45.83437" lon="4.76394">
        <ele>404.92734</ele>
        <time>2023-06-29T14:38:21.000Z</time>
      </trkpt>
      <trkpt lat="45.83437" lon="4.76398">
        <ele>404.85809</ele>
        <time>2023-06-29T14:38:22.000Z</time>
      </trkpt>
      <trkpt lat="45.83437" lon="4.76403">
        <ele>404.76938</ele>
        <time>2023-06-29T14:38:23.000Z</time>
      </trkpt>
      <trkpt lat="45.83437" lon="4.76407">
        <ele>404.71219</ele>
        <time>2023-06-29T14:38:24.000Z</time>
      </trkpt>
      <trkpt lat="45.83437" lon="4.76413">
        <ele>404.73444</ele>
        <time>2023-06-29T14:38:25.000Z</time>
      </trkpt>
      <trkpt lat="45.83437" lon="4.76418">
        <ele>404.7485</ele>
        <time>2023-06-29T14:38:26.000Z</time>
      </trkpt>
      <trkpt lat="45.83437" lon="4.76424">
        <ele>404.74353</ele>
        <time>2023-06-29T14:38:27.000Z</time>
      </trkpt>
      <trkpt lat="45.83437" lon="4.7643">
        <ele>404.75137</ele>
        <time>2023-06-29T14:38:28.000Z</time>
      </trkpt>
      <trkpt lat="45.83437" lon="4.76437">
        <ele>404.78256</ele>
        <time>2023-06-29T14:38:29.000Z</time>
      </trkpt>
      <trkpt lat="45.83438" lon="4.76445">
        <ele>404.7572</ele>
        <time>2023-06-29T14:38:30.000Z</time>
      </trkpt>
      <trkpt lat="45.83438" lon="4.76452">
        <ele>404.73495</ele>
        <time>2023-06-29T14:38:31.000Z</time>
      </trkpt>
      <trkpt lat="45.83438" lon="4.76459">
        <ele>404.74158</ele>
        <time>2023-06-29T14:38:32.000Z</time>
      </trkpt>
      <trkpt lat="45.83439" lon="4.76467">
        <ele>404.73608</ele>
        <time>2023-06-29T14:38:33.000Z</time>
      </trkpt>
      <trkpt lat="45.8344" lon="4.76474">
        <ele>404.69659</ele>
        <time>2023-06-29T14:38:34.000Z</time>
      </trkpt>
      <trkpt lat="45.83442" lon="4.76482">
        <ele>404.66742</ele>
        <time>2023-06-29T14:38:35.000Z</time>
      </trkpt>
      <trkpt lat="45.83444" lon="4.7649">
        <ele>404.7919</ele>
        <time>2023-06-29T14:38:36.000Z</time>
      </trkpt>
      <trkpt lat="45.83445" lon="4.76497">
        <ele>405.03033</ele>
        <time>2023-06-29T14:38:37.000Z</time>
      </trkpt>
      <trkpt lat="45.83447" lon="4.76504">
        <ele>404.79883</ele>
        <time>2023-06-29T14:38:38.000Z</time>
      </trkpt>
      <trkpt lat="45.83448" lon="4.76511">
        <ele>404.47842</ele>
        <time>2023-06-29T14:38:39.000Z</time>
      </trkpt>
      <trkpt lat="45.83451" lon="4.76518">
        <ele>404.49506</ele>
        <time>2023-06-29T14:38:40.000Z</time>
      </trkpt>
      <trkpt lat="45.83454" lon="4.76524">
        <ele>404.50201</ele>
        <time>2023-06-29T14:38:41.000Z</time>
      </trkpt>
      <trkpt lat="45.83456" lon="4.7653">
        <ele>404.53784</ele>
        <time>2023-06-29T14:38:42.000Z</time>
      </trkpt>
      <trkpt lat="45.83459" lon="4.76535">
        <ele>404.60767</ele>
        <time>2023-06-29T14:38:43.000Z</time>
      </trkpt>
      <trkpt lat="45.83461" lon="4.76539">
        <ele>404.6778</ele>
        <time>2023-06-29T14:38:44.000Z</time>
      </trkpt>
      <trkpt lat="45.83464" lon="4.76544">
        <ele>404.7684</ele>
        <time>2023-06-29T14:38:45.000Z</time>
      </trkpt>
      <trkpt lat="45.83466" lon="4.76548">
        <ele>404.84915</ele>
        <time>2023-06-29T14:38:46.000Z</time>
      </trkpt>
      <trkpt lat="45.83469" lon="4.76551">
        <ele>404.95682</ele>
        <time>2023-06-29T14:38:47.000Z</time>
      </trkpt>
      <trkpt lat="45.83472" lon="4.76554">
        <ele>405.06488</ele>
        <time>2023-06-29T14:38:48.000Z</time>
      </trkpt>
      <trkpt lat="45.83475" lon="4.76557">
        <ele>404.98798</ele>
        <time>2023-06-29T14:38:49.000Z</time>
      </trkpt>
      <trkpt lat="45.83478" lon="4.7656">
        <ele>404.94788</ele>
        <time>2023-06-29T14:38:50.000Z</time>
      </trkpt>
      <trkpt lat="45.83481" lon="4.76563">
        <ele>404.89508</ele>
        <time>2023-06-29T14:38:51.000Z</time>
      </trkpt>
      <trkpt lat="45.83484" lon="4.76567">
        <ele>404.83707</ele>
        <time>2023-06-29T14:38:52.000Z</time>
      </trkpt>
      <trkpt lat="45.83487" lon="4.7657">
        <ele>404.79977</ele>
        <time>2023-06-29T14:38:53.000Z</time>
      </trkpt>
      <trkpt lat="45.8349" lon="4.76573">
        <ele>404.76105</ele>
        <time>2023-06-29T14:38:54.000Z</time>
      </trkpt>
      <trkpt lat="45.83493" lon="4.76576">
        <ele>404.71118</ele>
        <time>2023-06-29T14:38:55.000Z</time>
      </trkpt>
      <trkpt lat="45.83495" lon="4.7658">
        <ele>404.66473</ele>
        <time>2023-06-29T14:38:56.000Z</time>
      </trkpt>
      <trkpt lat="45.83497" lon="4.76583">
        <ele>404.48248</ele>
        <time>2023-06-29T14:38:57.000Z</time>
      </trkpt>
      <trkpt lat="45.83499" lon="4.76586">
        <ele>404.77249</ele>
        <time>2023-06-29T14:38:58.000Z</time>
      </trkpt>
      <trkpt lat="45.83501" lon="4.7659">
        <ele>405.13901</ele>
        <time>2023-06-29T14:38:59.000Z</time>
      </trkpt>
      <trkpt lat="45.83502" lon="4.76595">
        <ele>405.22021</ele>
        <time>2023-06-29T14:39:00.000Z</time>
      </trkpt>
      <trkpt lat="45.83504" lon="4.76599">
        <ele>405.72867</ele>
        <time>2023-06-29T14:39:01.000Z</time>
      </trkpt>
      <trkpt lat="45.83505" lon="4.76603">
        <ele>405.80005</ele>
        <time>2023-06-29T14:39:02.000Z</time>
      </trkpt>
      <trkpt lat="45.83507" lon="4.76607">
        <ele>405.86176</ele>
        <time>2023-06-29T14:39:03.000Z</time>
      </trkpt>
      <trkpt lat="45.83508" lon="4.76612">
        <ele>405.93585</ele>
        <time>2023-06-29T14:39:04.000Z</time>
      </trkpt>
      <trkpt lat="45.8351" lon="4.76616">
        <ele>406.02261</ele>
        <time>2023-06-29T14:39:05.000Z</time>
      </trkpt>
      <trkpt lat="45.83511" lon="4.7662">
        <ele>406.12576</ele>
        <time>2023-06-29T14:39:06.000Z</time>
      </trkpt>
      <trkpt lat="45.83513" lon="4.76624">
        <ele>406.25006</ele>
        <time>2023-06-29T14:39:07.000Z</time>
      </trkpt>
      <trkpt lat="45.83514" lon="4.76628">
        <ele>406.37869</ele>
        <time>2023-06-29T14:39:08.000Z</time>
      </trkpt>
      <trkpt lat="45.83516" lon="4.76633">
        <ele>406.68164</ele>
        <time>2023-06-29T14:39:09.000Z</time>
      </trkpt>
      <trkpt lat="45.83517" lon="4.76637">
        <ele>407.01944</ele>
        <time>2023-06-29T14:39:10.000Z</time>
      </trkpt>
      <trkpt lat="45.83519" lon="4.76642">
        <ele>407.37534</ele>
        <time>2023-06-29T14:39:11.000Z</time>
      </trkpt>
      <trkpt lat="45.83521" lon="4.76646">
        <ele>407.75684</ele>
        <time>2023-06-29T14:39:12.000Z</time>
      </trkpt>
      <trkpt lat="45.83523" lon="4.7665">
        <ele>408.12442</ele>
        <time>2023-06-29T14:39:13.000Z</time>
      </trkpt>
      <trkpt lat="45.83524" lon="4.76654">
        <ele>408.47876</ele>
        <time>2023-06-29T14:39:14.000Z</time>
      </trkpt>
      <trkpt lat="45.83526" lon="4.76657">
        <ele>408.83295</ele>
        <time>2023-06-29T14:39:15.000Z</time>
      </trkpt>
      <trkpt lat="45.83529" lon="4.76661">
        <ele>409.18329</ele>
        <time>2023-06-29T14:39:16.000Z</time>
      </trkpt>
      <trkpt lat="45.83531" lon="4.76666">
        <ele>409.66855</ele>
        <time>2023-06-29T14:39:17.000Z</time>
      </trkpt>
      <trkpt lat="45.83533" lon="4.76671">
        <ele>409.81085</ele>
        <time>2023-06-29T14:39:18.000Z</time>
      </trkpt>
      <trkpt lat="45.83535" lon="4.76675">
        <ele>409.99982</ele>
        <time>2023-06-29T14:39:19.000Z</time>
      </trkpt>
      <trkpt lat="45.83537" lon="4.76678">
        <ele>410.15366</ele>
        <time>2023-06-29T14:39:20.000Z</time>
      </trkpt>
      <trkpt lat="45.8354" lon="4.76682">
        <ele>409.92017</ele>
        <time>2023-06-29T14:39:21.000Z</time>
      </trkpt>
      <trkpt lat="45.83543" lon="4.76686">
        <ele>410.10229</ele>
        <time>2023-06-29T14:39:22.000Z</time>
      </trkpt>
      <trkpt lat="45.83546" lon="4.7669">
        <ele>410.26889</ele>
        <time>2023-06-29T14:39:23.000Z</time>
      </trkpt>
      <trkpt lat="45.83549" lon="4.76694">
        <ele>410.42645</ele>
        <time>2023-06-29T14:39:24.000Z</time>
      </trkpt>
      <trkpt lat="45.83552" lon="4.76698">
        <ele>410.56143</ele>
        <time>2023-06-29T14:39:25.000Z</time>
      </trkpt>
      <trkpt lat="45.83555" lon="4.76701">
        <ele>410.69305</ele>
        <time>2023-06-29T14:39:26.000Z</time>
      </trkpt>
      <trkpt lat="45.83559" lon="4.76704">
        <ele>410.79947</ele>
        <time>2023-06-29T14:39:27.000Z</time>
      </trkpt>
      <trkpt lat="45.83563" lon="4.76707">
        <ele>410.92178</ele>
        <time>2023-06-29T14:39:28.000Z</time>
      </trkpt>
      <trkpt lat="45.83566" lon="4.76709">
        <ele>411.04785</ele>
        <time>2023-06-29T14:39:29.000Z</time>
      </trkpt>
      <trkpt lat="45.8357" lon="4.76712">
        <ele>411.15811</ele>
        <time>2023-06-29T14:39:30.000Z</time>
      </trkpt>
      <trkpt lat="45.83573" lon="4.76714">
        <ele>411.27457</ele>
        <time>2023-06-29T14:39:31.000Z</time>
      </trkpt>
      <trkpt lat="45.83576" lon="4.76716">
        <ele>411.39014</ele>
        <time>2023-06-29T14:39:32.000Z</time>
      </trkpt>
      <trkpt lat="45.83579" lon="4.76718">
        <ele>411.5285</ele>
        <time>2023-06-29T14:39:33.000Z</time>
      </trkpt>
      <trkpt lat="45.83583" lon="4.76719">
        <ele>411.68921</ele>
        <time>2023-06-29T14:39:34.000Z</time>
      </trkpt>
      <trkpt lat="45.83587" lon="4.76721">
        <ele>411.86188</ele>
        <time>2023-06-29T14:39:35.000Z</time>
      </trkpt>
      <trkpt lat="45.83591" lon="4.76723">
        <ele>412.03467</ele>
        <time>2023-06-29T14:39:36.000Z</time>
      </trkpt>
      <trkpt lat="45.83595" lon="4.76725">
        <ele>412.19824</ele>
        <time>2023-06-29T14:39:37.000Z</time>
      </trkpt>
      <trkpt lat="45.83599" lon="4.76727">
        <ele>412.40607</ele>
        <time>2023-06-29T14:39:38.000Z</time>
      </trkpt>
      <trkpt lat="45.83602" lon="4.76728">
        <ele>412.64923</ele>
        <time>2023-06-29T14:39:39.000Z</time>
      </trkpt>
      <trkpt lat="45.83606" lon="4.7673">
        <ele>412.8602</ele>
        <time>2023-06-29T14:39:40.000Z</time>
      </trkpt>
      <trkpt lat="45.8361" lon="4.76732">
        <ele>413.05865</ele>
        <time>2023-06-29T14:39:41.000Z</time>
      </trkpt>
      <trkpt lat="45.83614" lon="4.76735">
        <ele>413.23672</ele>
        <time>2023-06-29T14:39:42.000Z</time>
      </trkpt>
      <trkpt lat="45.83618" lon="4.76737">
        <ele>413.40829</ele>
        <time>2023-06-29T14:39:43.000Z</time>
      </trkpt>
      <trkpt lat="45.83622" lon="4.7674">
        <ele>413.58041</ele>
        <time>2023-06-29T14:39:44.000Z</time>
      </trkpt>
      <trkpt lat="45.83626" lon="4.76743">
        <ele>413.78696</ele>
        <time>2023-06-29T14:39:45.000Z</time>
      </trkpt>
      <trkpt lat="45.83629" lon="4.76746">
        <ele>413.99945</ele>
        <time>2023-06-29T14:39:46.000Z</time>
      </trkpt>
      <trkpt lat="45.83633" lon="4.76749">
        <ele>414.2164</ele>
        <time>2023-06-29T14:39:47.000Z</time>
      </trkpt>
      <trkpt lat="45.83636" lon="4.76753">
        <ele>414.42105</ele>
        <time>2023-06-29T14:39:48.000Z</time>
      </trkpt>
      <trkpt lat="45.83638" lon="4.76757">
        <ele>414.5943</ele>
        <time>2023-06-29T14:39:49.000Z</time>
      </trkpt>
      <trkpt lat="45.83641" lon="4.76762">
        <ele>414.76572</ele>
        <time>2023-06-29T14:39:50.000Z</time>
      </trkpt>
      <trkpt lat="45.83643" lon="4.76767">
        <ele>414.94507</ele>
        <time>2023-06-29T14:39:51.000Z</time>
      </trkpt>
      <trkpt lat="45.83646" lon="4.76772">
        <ele>415.125</ele>
        <time>2023-06-29T14:39:52.000Z</time>
      </trkpt>
      <trkpt lat="45.83648" lon="4.76777">
        <ele>415.28912</ele>
        <time>2023-06-29T14:39:53.000Z</time>
      </trkpt>
      <trkpt lat="45.83651" lon="4.76782">
        <ele>415.44727</ele>
        <time>2023-06-29T14:39:54.000Z</time>
      </trkpt>
      <trkpt lat="45.83653" lon="4.76787">
        <ele>415.59854</ele>
        <time>2023-06-29T14:39:55.000Z</time>
      </trkpt>
      <trkpt lat="45.83655" lon="4.76792">
        <ele>415.75406</ele>
        <time>2023-06-29T14:39:56.000Z</time>
      </trkpt>
      <trkpt lat="45.83657" lon="4.76798">
        <ele>415.90997</ele>
        <time>2023-06-29T14:39:57.000Z</time>
      </trkpt>
      <trkpt lat="45.83659" lon="4.76803">
        <ele>416.0249</ele>
        <time>2023-06-29T14:39:58.000Z</time>
      </trkpt>
      <trkpt lat="45.83661" lon="4.76808">
        <ele>416.13223</ele>
        <time>2023-06-29T14:39:59.000Z</time>
      </trkpt>
      <trkpt lat="45.83663" lon="4.76813">
        <ele>416.27521</ele>
        <time>2023-06-29T14:40:00.000Z</time>
      </trkpt>
      <trkpt lat="45.83665" lon="4.76819">
        <ele>416.44077</ele>
        <time>2023-06-29T14:40:01.000Z</time>
      </trkpt>
      <trkpt lat="45.83668" lon="4.76824">
        <ele>416.62607</ele>
        <time>2023-06-29T14:40:02.000Z</time>
      </trkpt>
      <trkpt lat="45.8367" lon="4.76829">
        <ele>416.85294</ele>
        <time>2023-06-29T14:40:03.000Z</time>
      </trkpt>
      <trkpt lat="45.83672" lon="4.76834">
        <ele>417.08032</ele>
        <time>2023-06-29T14:40:04.000Z</time>
      </trkpt>
      <trkpt lat="45.83674" lon="4.7684">
        <ele>417.29404</ele>
        <time>2023-06-29T14:40:05.000Z</time>
      </trkpt>
      <trkpt lat="45.83676" lon="4.76845">
        <ele>417.50064</ele>
        <time>2023-06-29T14:40:06.000Z</time>
      </trkpt>
      <trkpt lat="45.83678" lon="4.7685">
        <ele>417.70996</ele>
        <time>2023-06-29T14:40:07.000Z</time>
      </trkpt>
      <trkpt lat="45.8368" lon="4.76856">
        <ele>417.9375</ele>
        <time>2023-06-29T14:40:08.000Z</time>
      </trkpt>
      <trkpt lat="45.83682" lon="4.7686">
        <ele>418.1972</ele>
        <time>2023-06-29T14:40:09.000Z</time>
      </trkpt>
      <trkpt lat="45.83684" lon="4.76865">
        <ele>418.44312</ele>
        <time>2023-06-29T14:40:10.000Z</time>
      </trkpt>
      <trkpt lat="45.83686" lon="4.7687">
        <ele>418.64786</ele>
        <time>2023-06-29T14:40:11.000Z</time>
      </trkpt>
      <trkpt lat="45.83688" lon="4.76875">
        <ele>418.83612</ele>
        <time>2023-06-29T14:40:12.000Z</time>
      </trkpt>
      <trkpt lat="45.8369" lon="4.76881">
        <ele>419.02301</ele>
        <time>2023-06-29T14:40:13.000Z</time>
      </trkpt>
      <trkpt lat="45.83692" lon="4.76886">
        <ele>419.18716</ele>
        <time>2023-06-29T14:40:14.000Z</time>
      </trkpt>
      <trkpt lat="45.83694" lon="4.76892">
        <ele>419.32642</ele>
        <time>2023-06-29T14:40:15.000Z</time>
      </trkpt>
      <trkpt lat="45.83696" lon="4.76897">
        <ele>419.49542</ele>
        <time>2023-06-29T14:40:16.000Z</time>
      </trkpt>
      <trkpt lat="45.83699" lon="4.76903">
        <ele>419.66113</ele>
        <time>2023-06-29T14:40:17.000Z</time>
      </trkpt>
      <trkpt lat="45.83701" lon="4.76908">
        <ele>419.82739</ele>
        <time>2023-06-29T14:40:18.000Z</time>
      </trkpt>
      <trkpt lat="45.83703" lon="4.76913">
        <ele>419.98688</ele>
        <time>2023-06-29T14:40:19.000Z</time>
      </trkpt>
      <trkpt lat="45.83705" lon="4.76919">
        <ele>420.15372</ele>
        <time>2023-06-29T14:40:20.000Z</time>
      </trkpt>
      <trkpt lat="45.83707" lon="4.76924">
        <ele>420.31348</ele>
        <time>2023-06-29T14:40:21.000Z</time>
      </trkpt>
      <trkpt lat="45.83709" lon="4.7693">
        <ele>420.46616</ele>
        <time>2023-06-29T14:40:22.000Z</time>
      </trkpt>
      <trkpt lat="45.83711" lon="4.76935">
        <ele>420.59482</ele>
        <time>2023-06-29T14:40:23.000Z</time>
      </trkpt>
      <trkpt lat="45.83713" lon="4.76941">
        <ele>420.71158</ele>
        <time>2023-06-29T14:40:24.000Z</time>
      </trkpt>
      <trkpt lat="45.83716" lon="4.76947">
        <ele>420.8558</ele>
        <time>2023-06-29T14:40:25.000Z</time>
      </trkpt>
      <trkpt lat="45.83717" lon="4.76952">
        <ele>420.99503</ele>
        <time>2023-06-29T14:40:26.000Z</time>
      </trkpt>
      <trkpt lat="45.83719" lon="4.76956">
        <ele>421.13525</ele>
        <time>2023-06-29T14:40:27.000Z</time>
      </trkpt>
      <trkpt lat="45.83721" lon="4.76962">
        <ele>421.26807</ele>
        <time>2023-06-29T14:40:28.000Z</time>
      </trkpt>
      <trkpt lat="45.83723" lon="4.76967">
        <ele>421.40567</ele>
        <time>2023-06-29T14:40:29.000Z</time>
      </trkpt>
      <trkpt lat="45.83725" lon="4.76971">
        <ele>421.3038</ele>
        <time>2023-06-29T14:40:30.000Z</time>
      </trkpt>
      <trkpt lat="45.83727" lon="4.76977">
        <ele>421.23251</ele>
        <time>2023-06-29T14:40:31.000Z</time>
      </trkpt>
      <trkpt lat="45.83729" lon="4.76982">
        <ele>420.98788</ele>
        <time>2023-06-29T14:40:32.000Z</time>
      </trkpt>
      <trkpt lat="45.83731" lon="4.76987">
        <ele>421.31256</ele>
        <time>2023-06-29T14:40:33.000Z</time>
      </trkpt>
      <trkpt lat="45.83734" lon="4.76993">
        <ele>421.57065</ele>
        <time>2023-06-29T14:40:34.000Z</time>
      </trkpt>
      <trkpt lat="45.83736" lon="4.76999">
        <ele>421.85718</ele>
        <time>2023-06-29T14:40:35.000Z</time>
      </trkpt>
      <trkpt lat="45.83739" lon="4.77004">
        <ele>422.11737</ele>
        <time>2023-06-29T14:40:36.000Z</time>
      </trkpt>
      <trkpt lat="45.8374" lon="4.77009">
        <ele>422.35922</ele>
        <time>2023-06-29T14:40:37.000Z</time>
      </trkpt>
      <trkpt lat="45.83741" lon="4.77013">
        <ele>422.61456</ele>
        <time>2023-06-29T14:40:38.000Z</time>
      </trkpt>
      <trkpt lat="45.83742" lon="4.77019">
        <ele>422.8479</ele>
        <time>2023-06-29T14:40:39.000Z</time>
      </trkpt>
      <trkpt lat="45.83744" lon="4.77023">
        <ele>423.10114</ele>
        <time>2023-06-29T14:40:40.000Z</time>
      </trkpt>
      <trkpt lat="45.83745" lon="4.77028">
        <ele>423.336</ele>
        <time>2023-06-29T14:40:41.000Z</time>
      </trkpt>
      <trkpt lat="45.83747" lon="4.77034">
        <ele>423.58398</ele>
        <time>2023-06-29T14:40:42.000Z</time>
      </trkpt>
      <trkpt lat="45.83749" lon="4.77039">
        <ele>423.85678</ele>
        <time>2023-06-29T14:40:43.000Z</time>
      </trkpt>
      <trkpt lat="45.8375" lon="4.77044">
        <ele>424.13882</ele>
        <time>2023-06-29T14:40:44.000Z</time>
      </trkpt>
      <trkpt lat="45.83752" lon="4.77049">
        <ele>424.41461</ele>
        <time>2023-06-29T14:40:45.000Z</time>
      </trkpt>
      <trkpt lat="45.83753" lon="4.77054">
        <ele>424.70001</ele>
        <time>2023-06-29T14:40:46.000Z</time>
      </trkpt>
      <trkpt lat="45.83755" lon="4.77059">
        <ele>424.97705</ele>
        <time>2023-06-29T14:40:47.000Z</time>
      </trkpt>
      <trkpt lat="45.83755" lon="4.77065">
        <ele>425.25018</ele>
        <time>2023-06-29T14:40:48.000Z</time>
      </trkpt>
      <trkpt lat="45.83756" lon="4.7707">
        <ele>425.53473</ele>
        <time>2023-06-29T14:40:49.000Z</time>
      </trkpt>
      <trkpt lat="45.83756" lon="4.77075">
        <ele>426.11603</ele>
        <time>2023-06-29T14:40:50.000Z</time>
      </trkpt>
      <trkpt lat="45.83757" lon="4.77081">
        <ele>427.34613</ele>
        <time>2023-06-29T14:40:51.000Z</time>
      </trkpt>
      <trkpt lat="45.83757" lon="4.77086">
        <ele>427.83209</ele>
        <time>2023-06-29T14:40:52.000Z</time>
      </trkpt>
      <trkpt lat="45.83758" lon="4.77091">
        <ele>427.75165</ele>
        <time>2023-06-29T14:40:53.000Z</time>
      </trkpt>
      <trkpt lat="45.83758" lon="4.77096">
        <ele>427.76178</ele>
        <time>2023-06-29T14:40:54.000Z</time>
      </trkpt>
      <trkpt lat="45.83759" lon="4.77101">
        <ele>428.61923</ele>
        <time>2023-06-29T14:40:55.000Z</time>
      </trkpt>
      <trkpt lat="45.83759" lon="4.77106">
        <ele>429.79706</ele>
        <time>2023-06-29T14:40:56.000Z</time>
      </trkpt>
      <trkpt lat="45.83759" lon="4.77111">
        <ele>431.10321</ele>
        <time>2023-06-29T14:40:57.000Z</time>
      </trkpt>
      <trkpt lat="45.8376" lon="4.77115">
        <ele>432.40298</ele>
        <time>2023-06-29T14:40:58.000Z</time>
      </trkpt>
      <trkpt lat="45.8376" lon="4.77121">
        <ele>433.74112</ele>
        <time>2023-06-29T14:40:59.000Z</time>
      </trkpt>
      <trkpt lat="45.8376" lon="4.77125">
        <ele>435.07513</ele>
        <time>2023-06-29T14:41:00.000Z</time>
      </trkpt>
      <trkpt lat="45.8376" lon="4.77131">
        <ele>436.31464</ele>
        <time>2023-06-29T14:41:01.000Z</time>
      </trkpt>
      <trkpt lat="45.83761" lon="4.77136">
        <ele>437.5563</ele>
        <time>2023-06-29T14:41:02.000Z</time>
      </trkpt>
      <trkpt lat="45.83762" lon="4.77142">
        <ele>438.79669</ele>
        <time>2023-06-29T14:41:03.000Z</time>
      </trkpt>
      <trkpt lat="45.83762" lon="4.77147">
        <ele>440.34579</ele>
        <time>2023-06-29T14:41:04.000Z</time>
      </trkpt>
      <trkpt lat="45.83762" lon="4.77152">
        <ele>441.87637</ele>
        <time>2023-06-29T14:41:05.000Z</time>
      </trkpt>
      <trkpt lat="45.83762" lon="4.77156">
        <ele>443.40265</ele>
        <time>2023-06-29T14:41:06.000Z</time>
      </trkpt>
      <trkpt lat="45.83762" lon="4.77159">
        <ele>444.94174</ele>
        <time>2023-06-29T14:41:07.000Z</time>
      </trkpt>
      <trkpt lat="45.83764" lon="4.77164">
        <ele>446.49683</ele>
        <time>2023-06-29T14:41:09.000Z</time>
      </trkpt>
      <trkpt lat="45.83766" lon="4.77165">
        <ele>448.02817</ele>
        <time>2023-06-29T14:41:10.000Z</time>
      </trkpt>
      <trkpt lat="45.83768" lon="4.77167">
        <ele>449.5202</ele>
        <time>2023-06-29T14:41:11.000Z</time>
      </trkpt>
      <trkpt lat="45.83769" lon="4.7717">
        <ele>450.34528</ele>
        <time>2023-06-29T14:41:12.000Z</time>
      </trkpt>
      <trkpt lat="45.83769" lon="4.77174">
        <ele>452.11459</ele>
        <time>2023-06-29T14:41:13.000Z</time>
      </trkpt>
      <trkpt lat="45.83769" lon="4.77179">
        <ele>453.88452</ele>
        <time>2023-06-29T14:41:14.000Z</time>
      </trkpt>
      <trkpt lat="45.83769" lon="4.77184">
        <ele>455.63647</ele>
        <time>2023-06-29T14:41:15.000Z</time>
      </trkpt>
      <trkpt lat="45.83769" lon="4.77189">
        <ele>456.5314</ele>
        <time>2023-06-29T14:41:16.000Z</time>
      </trkpt>
      <trkpt lat="45.83768" lon="4.77194">
        <ele>457.12061</ele>
        <time>2023-06-29T14:41:17.000Z</time>
      </trkpt>
      <trkpt lat="45.83767" lon="4.77198">
        <ele>456.48529</ele>
        <time>2023-06-29T14:41:18.000Z</time>
      </trkpt>
      <trkpt lat="45.83767" lon="4.77203">
        <ele>455.83545</ele>
        <time>2023-06-29T14:41:19.000Z</time>
      </trkpt>
      <trkpt lat="45.83768" lon="4.77208">
        <ele>455.16708</ele>
        <time>2023-06-29T14:41:20.000Z</time>
      </trkpt>
      <trkpt lat="45.83769" lon="4.77212">
        <ele>454.48642</ele>
        <time>2023-06-29T14:41:21.000Z</time>
      </trkpt>
      <trkpt lat="45.8377" lon="4.77217">
        <ele>453.92178</ele>
        <time>2023-06-29T14:41:22.000Z</time>
      </trkpt>
      <trkpt lat="45.83771" lon="4.77221">
        <ele>453.33807</ele>
        <time>2023-06-29T14:41:23.000Z</time>
      </trkpt>
      <trkpt lat="45.83771" lon="4.77226">
        <ele>452.7338</ele>
        <time>2023-06-29T14:41:24.000Z</time>
      </trkpt>
      <trkpt lat="45.83772" lon="4.7723">
        <ele>451.8161</ele>
        <time>2023-06-29T14:41:25.000Z</time>
      </trkpt>
      <trkpt lat="45.83772" lon="4.77235">
        <ele>450.88477</ele>
        <time>2023-06-29T14:41:26.000Z</time>
      </trkpt>
      <trkpt lat="45.83773" lon="4.7724">
        <ele>449.95596</ele>
        <time>2023-06-29T14:41:27.000Z</time>
      </trkpt>
      <trkpt lat="45.83774" lon="4.77244">
        <ele>449.03036</ele>
        <time>2023-06-29T14:41:28.000Z</time>
      </trkpt>
      <trkpt lat="45.83775" lon="4.77248">
        <ele>448.08698</ele>
        <time>2023-06-29T14:41:29.000Z</time>
      </trkpt>
      <trkpt lat="45.83777" lon="4.77252">
        <ele>447.16351</ele>
        <time>2023-06-29T14:41:30.000Z</time>
      </trkpt>
      <trkpt lat="45.83779" lon="4.77256">
        <ele>446.23984</ele>
        <time>2023-06-29T14:41:31.000Z</time>
      </trkpt>
      <trkpt lat="45.83781" lon="4.7726">
        <ele>445.32568</ele>
        <time>2023-06-29T14:41:32.000Z</time>
      </trkpt>
      <trkpt lat="45.83783" lon="4.77263">
        <ele>444.37637</ele>
        <time>2023-06-29T14:41:33.000Z</time>
      </trkpt>
      <trkpt lat="45.83784" lon="4.77267">
        <ele>444.52505</ele>
        <time>2023-06-29T14:41:34.000Z</time>
      </trkpt>
      <trkpt lat="45.83786" lon="4.77272">
        <ele>444.68671</ele>
        <time>2023-06-29T14:41:35.000Z</time>
      </trkpt>
      <trkpt lat="45.83787" lon="4.77276">
        <ele>444.82684</ele>
        <time>2023-06-29T14:41:36.000Z</time>
      </trkpt>
      <trkpt lat="45.83788" lon="4.7728">
        <ele>444.93573</ele>
        <time>2023-06-29T14:41:37.000Z</time>
      </trkpt>
      <trkpt lat="45.8379" lon="4.77284">
        <ele>446.15625</ele>
        <time>2023-06-29T14:41:38.000Z</time>
      </trkpt>
      <trkpt lat="45.83791" lon="4.77289">
        <ele>447.37973</ele>
        <time>2023-06-29T14:41:39.000Z</time>
      </trkpt>
      <trkpt lat="45.83793" lon="4.77294">
        <ele>448.61456</ele>
        <time>2023-06-29T14:41:40.000Z</time>
      </trkpt>
      <trkpt lat="45.83794" lon="4.77298">
        <ele>449.91876</ele>
        <time>2023-06-29T14:41:41.000Z</time>
      </trkpt>
      <trkpt lat="45.83796" lon="4.77302">
        <ele>449.33502</ele>
        <time>2023-06-29T14:41:42.000Z</time>
      </trkpt>
      <trkpt lat="45.83798" lon="4.77305">
        <ele>449.55597</ele>
        <time>2023-06-29T14:41:43.000Z</time>
      </trkpt>
      <trkpt lat="45.838" lon="4.77309">
        <ele>449.75839</ele>
        <time>2023-06-29T14:41:44.000Z</time>
      </trkpt>
      <trkpt lat="45.83802" lon="4.77313">
        <ele>449.99097</ele>
        <time>2023-06-29T14:41:45.000Z</time>
      </trkpt>
      <trkpt lat="45.83805" lon="4.77316">
        <ele>450.24521</ele>
        <time>2023-06-29T14:41:46.000Z</time>
      </trkpt>
      <trkpt lat="45.83807" lon="4.77319">
        <ele>450.51324</ele>
        <time>2023-06-29T14:41:47.000Z</time>
      </trkpt>
      <trkpt lat="45.8381" lon="4.77322">
        <ele>450.80649</ele>
        <time>2023-06-29T14:41:48.000Z</time>
      </trkpt>
      <trkpt lat="45.83813" lon="4.77326">
        <ele>450.70639</ele>
        <time>2023-06-29T14:41:49.000Z</time>
      </trkpt>
      <trkpt lat="45.83815" lon="4.7733">
        <ele>450.59302</ele>
        <time>2023-06-29T14:41:50.000Z</time>
      </trkpt>
      <trkpt lat="45.83816" lon="4.77334">
        <ele>450.44565</ele>
        <time>2023-06-29T14:41:51.000Z</time>
      </trkpt>
      <trkpt lat="45.83816" lon="4.77339">
        <ele>450.30615</ele>
        <time>2023-06-29T14:41:52.000Z</time>
      </trkpt>
      <trkpt lat="45.83815" lon="4.77343">
        <ele>450.18243</ele>
        <time>2023-06-29T14:41:53.000Z</time>
      </trkpt>
      <trkpt lat="45.83814" lon="4.77347">
        <ele>448.96826</ele>
        <time>2023-06-29T14:41:54.000Z</time>
      </trkpt>
      <trkpt lat="45.83812" lon="4.77351">
        <ele>447.77139</ele>
        <time>2023-06-29T14:41:55.000Z</time>
      </trkpt>
      <trkpt lat="45.83809" lon="4.77354">
        <ele>447.99176</ele>
        <time>2023-06-29T14:41:56.000Z</time>
      </trkpt>
      <trkpt lat="45.83806" lon="4.77358">
        <ele>448.22784</ele>
        <time>2023-06-29T14:41:57.000Z</time>
      </trkpt>
      <trkpt lat="45.83804" lon="4.77361">
        <ele>447.46606</ele>
        <time>2023-06-29T14:41:58.000Z</time>
      </trkpt>
      <trkpt lat="45.83801" lon="4.77364">
        <ele>446.6712</ele>
        <time>2023-06-29T14:41:59.000Z</time>
      </trkpt>
      <trkpt lat="45.83798" lon="4.77368">
        <ele>445.81573</ele>
        <time>2023-06-29T14:42:00.000Z</time>
      </trkpt>
      <trkpt lat="45.83796" lon="4.77371">
        <ele>444.84155</ele>
        <time>2023-06-29T14:42:01.000Z</time>
      </trkpt>
      <trkpt lat="45.83793" lon="4.77375">
        <ele>445.69101</ele>
        <time>2023-06-29T14:42:02.000Z</time>
      </trkpt>
      <trkpt lat="45.8379" lon="4.77378">
        <ele>445.21686</ele>
        <time>2023-06-29T14:42:03.000Z</time>
      </trkpt>
      <trkpt lat="45.83787" lon="4.77382">
        <ele>444.49683</ele>
        <time>2023-06-29T14:42:04.000Z</time>
      </trkpt>
      <trkpt lat="45.83785" lon="4.77385">
        <ele>443.74707</ele>
        <time>2023-06-29T14:42:05.000Z</time>
      </trkpt>
      <trkpt lat="45.83782" lon="4.77389">
        <ele>442.98785</ele>
        <time>2023-06-29T14:42:06.000Z</time>
      </trkpt>
      <trkpt lat="45.83779" lon="4.77393">
        <ele>442.20572</ele>
        <time>2023-06-29T14:42:07.000Z</time>
      </trkpt>
      <trkpt lat="45.83777" lon="4.77396">
        <ele>443.38971</ele>
        <time>2023-06-29T14:42:08.000Z</time>
      </trkpt>
      <trkpt lat="45.83774" lon="4.774">
        <ele>444.98309</ele>
        <time>2023-06-29T14:42:09.000Z</time>
      </trkpt>
      <trkpt lat="45.83771" lon="4.77403">
        <ele>446.58121</ele>
        <time>2023-06-29T14:42:10.000Z</time>
      </trkpt>
      <trkpt lat="45.83769" lon="4.77407">
        <ele>448.18936</ele>
        <time>2023-06-29T14:42:11.000Z</time>
      </trkpt>
      <trkpt lat="45.83767" lon="4.77411">
        <ele>449.77948</ele>
        <time>2023-06-29T14:42:12.000Z</time>
      </trkpt>
      <trkpt lat="45.83764" lon="4.77415">
        <ele>451.36377</ele>
        <time>2023-06-29T14:42:13.000Z</time>
      </trkpt>
      <trkpt lat="45.83762" lon="4.77418">
        <ele>452.94525</ele>
        <time>2023-06-29T14:42:14.000Z</time>
      </trkpt>
      <trkpt lat="45.8376" lon="4.77422">
        <ele>454.50595</ele>
        <time>2023-06-29T14:42:15.000Z</time>
      </trkpt>
      <trkpt lat="45.83758" lon="4.77426">
        <ele>454.66708</ele>
        <time>2023-06-29T14:42:16.000Z</time>
      </trkpt>
      <trkpt lat="45.83756" lon="4.77431">
        <ele>454.83447</ele>
        <time>2023-06-29T14:42:17.000Z</time>
      </trkpt>
      <trkpt lat="45.83754" lon="4.77435">
        <ele>455.97818</ele>
        <time>2023-06-29T14:42:18.000Z</time>
      </trkpt>
      <trkpt lat="45.83752" lon="4.7744">
        <ele>457.17706</ele>
        <time>2023-06-29T14:42:19.000Z</time>
      </trkpt>
      <trkpt lat="45.83751" lon="4.77444">
        <ele>458.43906</ele>
        <time>2023-06-29T14:42:20.000Z</time>
      </trkpt>
      <trkpt lat="45.83751" lon="4.77449">
        <ele>459.75275</ele>
        <time>2023-06-29T14:42:21.000Z</time>
      </trkpt>
      <trkpt lat="45.83751" lon="4.77454">
        <ele>461.11514</ele>
        <time>2023-06-29T14:42:22.000Z</time>
      </trkpt>
      <trkpt lat="45.83751" lon="4.77458">
        <ele>463.00146</ele>
        <time>2023-06-29T14:42:23.000Z</time>
      </trkpt>
      <trkpt lat="45.83751" lon="4.77463">
        <ele>465.16693</ele>
        <time>2023-06-29T14:42:24.000Z</time>
      </trkpt>
      <trkpt lat="45.83751" lon="4.77467">
        <ele>467.25015</ele>
        <time>2023-06-29T14:42:25.000Z</time>
      </trkpt>
      <trkpt lat="45.83752" lon="4.77472">
        <ele>469.32846</ele>
        <time>2023-06-29T14:42:26.000Z</time>
      </trkpt>
      <trkpt lat="45.83753" lon="4.77476">
        <ele>471.41397</ele>
        <time>2023-06-29T14:42:27.000Z</time>
      </trkpt>
      <trkpt lat="45.83755" lon="4.77481">
        <ele>471.49405</ele>
        <time>2023-06-29T14:42:28.000Z</time>
      </trkpt>
      <trkpt lat="45.83756" lon="4.77485">
        <ele>471.49088</ele>
        <time>2023-06-29T14:42:29.000Z</time>
      </trkpt>
      <trkpt lat="45.83758" lon="4.7749">
        <ele>471.46808</ele>
        <time>2023-06-29T14:42:30.000Z</time>
      </trkpt>
      <trkpt lat="45.8376" lon="4.77494">
        <ele>471.62241</ele>
        <time>2023-06-29T14:42:31.000Z</time>
      </trkpt>
      <trkpt lat="45.83763" lon="4.77498">
        <ele>471.73495</ele>
        <time>2023-06-29T14:42:32.000Z</time>
      </trkpt>
      <trkpt lat="45.83765" lon="4.77502">
        <ele>471.85126</ele>
        <time>2023-06-29T14:42:33.000Z</time>
      </trkpt>
      <trkpt lat="45.83768" lon="4.77506">
        <ele>471.97363</ele>
        <time>2023-06-29T14:42:34.000Z</time>
      </trkpt>
      <trkpt lat="45.83769" lon="4.7751">
        <ele>472.09467</ele>
        <time>2023-06-29T14:42:35.000Z</time>
      </trkpt>
      <trkpt lat="45.83771" lon="4.77515">
        <ele>472.22787</ele>
        <time>2023-06-29T14:42:36.000Z</time>
      </trkpt>
      <trkpt lat="45.83772" lon="4.7752">
        <ele>472.35464</ele>
        <time>2023-06-29T14:42:37.000Z</time>
      </trkpt>
      <trkpt lat="45.83772" lon="4.77525">
        <ele>472.49725</ele>
        <time>2023-06-29T14:42:38.000Z</time>
      </trkpt>
      <trkpt lat="45.83773" lon="4.7753">
        <ele>472.58893</ele>
        <time>2023-06-29T14:42:39.000Z</time>
      </trkpt>
      <trkpt lat="45.83773" lon="4.77535">
        <ele>472.66397</ele>
        <time>2023-06-29T14:42:40.000Z</time>
      </trkpt>
      <trkpt lat="45.83774" lon="4.7754">
        <ele>472.72363</ele>
        <time>2023-06-29T14:42:41.000Z</time>
      </trkpt>
      <trkpt lat="45.83774" lon="4.77545">
        <ele>472.77988</ele>
        <time>2023-06-29T14:42:42.000Z</time>
      </trkpt>
      <trkpt lat="45.83774" lon="4.7755">
        <ele>472.83636</ele>
        <time>2023-06-29T14:42:43.000Z</time>
      </trkpt>
      <trkpt lat="45.83775" lon="4.77555">
        <ele>472.89288</ele>
        <time>2023-06-29T14:42:44.000Z</time>
      </trkpt>
      <trkpt lat="45.83775" lon="4.7756">
        <ele>473.04388</ele>
        <time>2023-06-29T14:42:45.000Z</time>
      </trkpt>
      <trkpt lat="45.83775" lon="4.77565">
        <ele>473.19107</ele>
        <time>2023-06-29T14:42:46.000Z</time>
      </trkpt>
      <trkpt lat="45.83775" lon="4.77569">
        <ele>473.35425</ele>
        <time>2023-06-29T14:42:47.000Z</time>
      </trkpt>
      <trkpt lat="45.83776" lon="4.77574">
        <ele>473.53363</ele>
        <time>2023-06-29T14:42:48.000Z</time>
      </trkpt>
      <trkpt lat="45.83777" lon="4.77579">
        <ele>473.77353</ele>
        <time>2023-06-29T14:42:49.000Z</time>
      </trkpt>
      <trkpt lat="45.83778" lon="4.77583">
        <ele>474.03549</ele>
        <time>2023-06-29T14:42:50.000Z</time>
      </trkpt>
      <trkpt lat="45.83778" lon="4.77588">
        <ele>474.14136</ele>
        <time>2023-06-29T14:42:51.000Z</time>
      </trkpt>
      <trkpt lat="45.8378" lon="4.77593">
        <ele>474.29257</ele>
        <time>2023-06-29T14:42:52.000Z</time>
      </trkpt>
      <trkpt lat="45.83781" lon="4.77597">
        <ele>474.42862</ele>
        <time>2023-06-29T14:42:53.000Z</time>
      </trkpt>
      <trkpt lat="45.83782" lon="4.77601">
        <ele>474.55493</ele>
        <time>2023-06-29T14:42:54.000Z</time>
      </trkpt>
      <trkpt lat="45.83783" lon="4.77606">
        <ele>474.69269</ele>
        <time>2023-06-29T14:42:55.000Z</time>
      </trkpt>
      <trkpt lat="45.83785" lon="4.7761">
        <ele>474.83417</ele>
        <time>2023-06-29T14:42:56.000Z</time>
      </trkpt>
      <trkpt lat="45.83786" lon="4.77615">
        <ele>474.97305</ele>
        <time>2023-06-29T14:42:57.000Z</time>
      </trkpt>
      <trkpt lat="45.83788" lon="4.77619">
        <ele>475.11371</ele>
        <time>2023-06-29T14:42:58.000Z</time>
      </trkpt>
      <trkpt lat="45.83789" lon="4.77624">
        <ele>475.31445</ele>
        <time>2023-06-29T14:42:59.000Z</time>
      </trkpt>
      <trkpt lat="45.8379" lon="4.77628">
        <ele>475.52353</ele>
        <time>2023-06-29T14:43:00.000Z</time>
      </trkpt>
      <trkpt lat="45.83791" lon="4.77632">
        <ele>475.74088</ele>
        <time>2023-06-29T14:43:01.000Z</time>
      </trkpt>
      <trkpt lat="45.83792" lon="4.77636">
        <ele>476.00058</ele>
        <time>2023-06-29T14:43:02.000Z</time>
      </trkpt>
      <trkpt lat="45.83793" lon="4.7764">
        <ele>476.24438</ele>
        <time>2023-06-29T14:43:03.000Z</time>
      </trkpt>
      <trkpt lat="45.83794" lon="4.77644">
        <ele>476.46417</ele>
        <time>2023-06-29T14:43:04.000Z</time>
      </trkpt>
      <trkpt lat="45.83795" lon="4.77649">
        <ele>476.68549</ele>
        <time>2023-06-29T14:43:05.000Z</time>
      </trkpt>
      <trkpt lat="45.83797" lon="4.77653">
        <ele>476.92499</ele>
        <time>2023-06-29T14:43:06.000Z</time>
      </trkpt>
      <trkpt lat="45.83798" lon="4.77658">
        <ele>477.15723</ele>
        <time>2023-06-29T14:43:07.000Z</time>
      </trkpt>
      <trkpt lat="45.83799" lon="4.77662">
        <ele>477.39435</ele>
        <time>2023-06-29T14:43:08.000Z</time>
      </trkpt>
      <trkpt lat="45.838" lon="4.77666">
        <ele>477.64185</ele>
        <time>2023-06-29T14:43:09.000Z</time>
      </trkpt>
      <trkpt lat="45.83801" lon="4.77671">
        <ele>477.88184</ele>
        <time>2023-06-29T14:43:10.000Z</time>
      </trkpt>
      <trkpt lat="45.83802" lon="4.77675">
        <ele>478.10834</ele>
        <time>2023-06-29T14:43:11.000Z</time>
      </trkpt>
      <trkpt lat="45.83803" lon="4.77679">
        <ele>478.33081</ele>
        <time>2023-06-29T14:43:12.000Z</time>
      </trkpt>
      <trkpt lat="45.83804" lon="4.77684">
        <ele>478.58209</ele>
        <time>2023-06-29T14:43:13.000Z</time>
      </trkpt>
      <trkpt lat="45.83805" lon="4.77688">
        <ele>478.8291</ele>
        <time>2023-06-29T14:43:14.000Z</time>
      </trkpt>
      <trkpt lat="45.83806" lon="4.77693">
        <ele>479.06348</ele>
        <time>2023-06-29T14:43:15.000Z</time>
      </trkpt>
      <trkpt lat="45.83807" lon="4.77697">
        <ele>479.25049</ele>
        <time>2023-06-29T14:43:16.000Z</time>
      </trkpt>
      <trkpt lat="45.83808" lon="4.77701">
        <ele>479.31552</ele>
        <time>2023-06-29T14:43:17.000Z</time>
      </trkpt>
      <trkpt lat="45.83809" lon="4.77706">
        <ele>479.38672</ele>
        <time>2023-06-29T14:43:18.000Z</time>
      </trkpt>
      <trkpt lat="45.8381" lon="4.77711">
        <ele>479.34967</ele>
        <time>2023-06-29T14:43:19.000Z</time>
      </trkpt>
      <trkpt lat="45.83811" lon="4.77716">
        <ele>479.31967</ele>
        <time>2023-06-29T14:43:20.000Z</time>
      </trkpt>
      <trkpt lat="45.83812" lon="4.7772">
        <ele>479.60822</ele>
        <time>2023-06-29T14:43:21.000Z</time>
      </trkpt>
      <trkpt lat="45.83813" lon="4.77725">
        <ele>479.82391</ele>
        <time>2023-06-29T14:43:22.000Z</time>
      </trkpt>
      <trkpt lat="45.83815" lon="4.7773">
        <ele>480.05273</ele>
        <time>2023-06-29T14:43:23.000Z</time>
      </trkpt>
      <trkpt lat="45.83815" lon="4.77735">
        <ele>480.26154</ele>
        <time>2023-06-29T14:43:24.000Z</time>
      </trkpt>
      <trkpt lat="45.83817" lon="4.77739">
        <ele>480.20712</ele>
        <time>2023-06-29T14:43:25.000Z</time>
      </trkpt>
      <trkpt lat="45.83818" lon="4.77744">
        <ele>480.62646</ele>
        <time>2023-06-29T14:43:26.000Z</time>
      </trkpt>
      <trkpt lat="45.83819" lon="4.77749">
        <ele>481.04279</ele>
        <time>2023-06-29T14:43:27.000Z</time>
      </trkpt>
      <trkpt lat="45.8382" lon="4.77753">
        <ele>481.41919</ele>
        <time>2023-06-29T14:43:28.000Z</time>
      </trkpt>
      <trkpt lat="45.83822" lon="4.77756">
        <ele>481.78882</ele>
        <time>2023-06-29T14:43:29.000Z</time>
      </trkpt>
      <trkpt lat="45.83824" lon="4.7776">
        <ele>482.08856</ele>
        <time>2023-06-29T14:43:30.000Z</time>
      </trkpt>
      <trkpt lat="45.83826" lon="4.77764">
        <ele>482.41098</ele>
        <time>2023-06-29T14:43:31.000Z</time>
      </trkpt>
      <trkpt lat="45.83828" lon="4.77768">
        <ele>482.70859</ele>
        <time>2023-06-29T14:43:32.000Z</time>
      </trkpt>
      <trkpt lat="45.8383" lon="4.77771">
        <ele>482.99911</ele>
        <time>2023-06-29T14:43:33.000Z</time>
      </trkpt>
      <trkpt lat="45.83832" lon="4.77775">
        <ele>483.29257</ele>
        <time>2023-06-29T14:43:34.000Z</time>
      </trkpt>
      <trkpt lat="45.83835" lon="4.77778">
        <ele>483.58539</ele>
        <time>2023-06-29T14:43:35.000Z</time>
      </trkpt>
      <trkpt lat="45.83838" lon="4.77782">
        <ele>483.94745</ele>
        <time>2023-06-29T14:43:36.000Z</time>
      </trkpt>
      <trkpt lat="45.8384" lon="4.77785">
        <ele>484.43024</ele>
        <time>2023-06-29T14:43:37.000Z</time>
      </trkpt>
      <trkpt lat="45.83843" lon="4.77788">
        <ele>484.92148</ele>
        <time>2023-06-29T14:43:38.000Z</time>
      </trkpt>
      <trkpt lat="45.83846" lon="4.7779">
        <ele>485.12296</ele>
        <time>2023-06-29T14:43:39.000Z</time>
      </trkpt>
      <trkpt lat="45.83849" lon="4.77791">
        <ele>485.39288</ele>
        <time>2023-06-29T14:43:40.000Z</time>
      </trkpt>
      <trkpt lat="45.83852" lon="4.77793">
        <ele>485.7005</ele>
        <time>2023-06-29T14:43:41.000Z</time>
      </trkpt>
      <trkpt lat="45.83855" lon="4.77795">
        <ele>486.05292</ele>
        <time>2023-06-29T14:43:42.000Z</time>
      </trkpt>
      <trkpt lat="45.83859" lon="4.77796">
        <ele>486.44043</ele>
        <time>2023-06-29T14:43:43.000Z</time>
      </trkpt>
      <trkpt lat="45.83863" lon="4.77797">
        <ele>486.83356</ele>
        <time>2023-06-29T14:43:44.000Z</time>
      </trkpt>
      <trkpt lat="45.83867" lon="4.77798">
        <ele>487.87003</ele>
        <time>2023-06-29T14:43:45.000Z</time>
      </trkpt>
      <trkpt lat="45.83871" lon="4.77799">
        <ele>488.4415</ele>
        <time>2023-06-29T14:43:46.000Z</time>
      </trkpt>
      <trkpt lat="45.83875" lon="4.778">
        <ele>489.00156</ele>
        <time>2023-06-29T14:43:47.000Z</time>
      </trkpt>
      <trkpt lat="45.83879" lon="4.778">
        <ele>489.63995</ele>
        <time>2023-06-29T14:43:48.000Z</time>
      </trkpt>
      <trkpt lat="45.83883" lon="4.778">
        <ele>490.27084</ele>
        <time>2023-06-29T14:43:49.000Z</time>
      </trkpt>
      <trkpt lat="45.83886" lon="4.77801">
        <ele>490.95401</ele>
        <time>2023-06-29T14:43:50.000Z</time>
      </trkpt>
      <trkpt lat="45.8389" lon="4.77801">
        <ele>491.63165</ele>
        <time>2023-06-29T14:43:51.000Z</time>
      </trkpt>
      <trkpt lat="45.83894" lon="4.778">
        <ele>492.36026</ele>
        <time>2023-06-29T14:43:52.000Z</time>
      </trkpt>
      <trkpt lat="45.83898" lon="4.778">
        <ele>493.1015</ele>
        <time>2023-06-29T14:43:53.000Z</time>
      </trkpt>
      <trkpt lat="45.83902" lon="4.778">
        <ele>493.82779</ele>
        <time>2023-06-29T14:43:54.000Z</time>
      </trkpt>
      <trkpt lat="45.83906" lon="4.778">
        <ele>494.56866</ele>
        <time>2023-06-29T14:43:55.000Z</time>
      </trkpt>
      <trkpt lat="45.83909" lon="4.77801">
        <ele>495.29468</ele>
        <time>2023-06-29T14:43:56.000Z</time>
      </trkpt>
      <trkpt lat="45.83913" lon="4.77801">
        <ele>496.04132</ele>
        <time>2023-06-29T14:43:57.000Z</time>
      </trkpt>
      <trkpt lat="45.83916" lon="4.77801">
        <ele>496.74603</ele>
        <time>2023-06-29T14:43:58.000Z</time>
      </trkpt>
      <trkpt lat="45.8392" lon="4.77801">
        <ele>497.82535</ele>
        <time>2023-06-29T14:43:59.000Z</time>
      </trkpt>
      <trkpt lat="45.83923" lon="4.77802">
        <ele>498.89423</ele>
        <time>2023-06-29T14:44:00.000Z</time>
      </trkpt>
      <trkpt lat="45.83927" lon="4.77802">
        <ele>499.5993</ele>
        <time>2023-06-29T14:44:01.000Z</time>
      </trkpt>
      <trkpt lat="45.8393" lon="4.77802">
        <ele>500.28003</ele>
        <time>2023-06-29T14:44:02.000Z</time>
      </trkpt>
      <trkpt lat="45.83934" lon="4.77801">
        <ele>500.9126</ele>
        <time>2023-06-29T14:44:03.000Z</time>
      </trkpt>
      <trkpt lat="45.83938" lon="4.778">
        <ele>501.57999</ele>
        <time>2023-06-29T14:44:04.000Z</time>
      </trkpt>
      <trkpt lat="45.83941" lon="4.778">
        <ele>501.82626</ele>
        <time>2023-06-29T14:44:05.000Z</time>
      </trkpt>
      <trkpt lat="45.83945" lon="4.77799">
        <ele>502.03314</ele>
        <time>2023-06-29T14:44:06.000Z</time>
      </trkpt>
      <trkpt lat="45.83948" lon="4.77797">
        <ele>502.26456</ele>
        <time>2023-06-29T14:44:07.000Z</time>
      </trkpt>
      <trkpt lat="45.83951" lon="4.77794">
        <ele>502.44736</ele>
        <time>2023-06-29T14:44:08.000Z</time>
      </trkpt>
      <trkpt lat="45.83952" lon="4.7779">
        <ele>502.62988</ele>
        <time>2023-06-29T14:44:09.000Z</time>
      </trkpt>
      <trkpt lat="45.8395" lon="4.77786">
        <ele>502.82675</ele>
        <time>2023-06-29T14:44:10.000Z</time>
      </trkpt>
      <trkpt lat="45.83948" lon="4.77783">
        <ele>503.00531</ele>
        <time>2023-06-29T14:44:11.000Z</time>
      </trkpt>
      <trkpt lat="45.83945" lon="4.77782">
        <ele>503.15546</ele>
        <time>2023-06-29T14:44:12.000Z</time>
      </trkpt>
      <trkpt lat="45.83942" lon="4.77782">
        <ele>503.28345</ele>
        <time>2023-06-29T14:44:13.000Z</time>
      </trkpt>
      <trkpt lat="45.83939" lon="4.77781">
        <ele>503.41367</ele>
        <time>2023-06-29T14:44:14.000Z</time>
      </trkpt>
      <trkpt lat="45.83936" lon="4.77781">
        <ele>503.57928</ele>
        <time>2023-06-29T14:44:15.000Z</time>
      </trkpt>
      <trkpt lat="45.83933" lon="4.7778">
        <ele>503.72305</ele>
        <time>2023-06-29T14:44:16.000Z</time>
      </trkpt>
      <trkpt lat="45.8393" lon="4.7778">
        <ele>503.83868</ele>
        <time>2023-06-29T14:44:17.000Z</time>
      </trkpt>
      <trkpt lat="45.83928" lon="4.77779">
        <ele>504.09125</ele>
        <time>2023-06-29T14:44:18.000Z</time>
      </trkpt>
      <trkpt lat="45.83925" lon="4.77778">
        <ele>504.33099</ele>
        <time>2023-06-29T14:44:19.000Z</time>
      </trkpt>
      <trkpt lat="45.83922" lon="4.77776">
        <ele>504.43939</ele>
        <time>2023-06-29T14:44:20.000Z</time>
      </trkpt>
      <trkpt lat="45.8392" lon="4.77775">
        <ele>504.5209</ele>
        <time>2023-06-29T14:44:21.000Z</time>
      </trkpt>
      <trkpt lat="45.83918" lon="4.77773">
        <ele>504.59268</ele>
        <time>2023-06-29T14:44:22.000Z</time>
      </trkpt>
      <trkpt lat="45.83916" lon="4.77771">
        <ele>504.69806</ele>
        <time>2023-06-29T14:44:23.000Z</time>
      </trkpt>
      <trkpt lat="45.83913" lon="4.7777">
        <ele>504.79214</ele>
        <time>2023-06-29T14:44:24.000Z</time>
      </trkpt>
      <trkpt lat="45.83911" lon="4.77769">
        <ele>504.92392</ele>
        <time>2023-06-29T14:44:25.000Z</time>
      </trkpt>
      <trkpt lat="45.83909" lon="4.77768">
        <ele>505.07602</ele>
        <time>2023-06-29T14:44:26.000Z</time>
      </trkpt>
      <trkpt lat="45.83907" lon="4.77768">
        <ele>505.16168</ele>
        <time>2023-06-29T14:44:27.000Z</time>
      </trkpt>
      <trkpt lat="45.83905" lon="4.77767">
        <ele>505.20709</ele>
        <time>2023-06-29T14:44:28.000Z</time>
      </trkpt>
      <trkpt lat="45.83902" lon="4.77766">
        <ele>505.25919</ele>
        <time>2023-06-29T14:44:29.000Z</time>
      </trkpt>
      <trkpt lat="45.839" lon="4.77764">
        <ele>505.31046</ele>
        <time>2023-06-29T14:44:30.000Z</time>
      </trkpt>
      <trkpt lat="45.83898" lon="4.77761">
        <ele>505.35767</ele>
        <time>2023-06-29T14:44:31.000Z</time>
      </trkpt>
      <trkpt lat="45.83897" lon="4.77758">
        <ele>505.42407</ele>
        <time>2023-06-29T14:44:32.000Z</time>
      </trkpt>
      <trkpt lat="45.83898" lon="4.77755">
        <ele>505.47916</ele>
        <time>2023-06-29T14:44:33.000Z</time>
      </trkpt>
      <trkpt lat="45.839" lon="4.77752">
        <ele>505.51837</ele>
        <time>2023-06-29T14:44:34.000Z</time>
      </trkpt>
      <trkpt lat="45.83903" lon="4.77752">
        <ele>505.49228</ele>
        <time>2023-06-29T14:44:35.000Z</time>
      </trkpt>
      <trkpt lat="45.83906" lon="4.77754">
        <ele>505.49057</ele>
        <time>2023-06-29T14:44:37.000Z</time>
      </trkpt>
      <trkpt lat="45.83909" lon="4.77757">
        <ele>505.51294</ele>
        <time>2023-06-29T14:44:38.000Z</time>
      </trkpt>
      <trkpt lat="45.83911" lon="4.77758">
        <ele>505.43317</ele>
        <time>2023-06-29T14:44:39.000Z</time>
      </trkpt>
      <trkpt lat="45.83913" lon="4.7776">
        <ele>505.39508</ele>
        <time>2023-06-29T14:44:40.000Z</time>
      </trkpt>
      <trkpt lat="45.83916" lon="4.77761">
        <ele>505.41641</ele>
        <time>2023-06-29T14:44:41.000Z</time>
      </trkpt>
      <trkpt lat="45.83919" lon="4.77762">
        <ele>505.45807</ele>
        <time>2023-06-29T14:44:42.000Z</time>
      </trkpt>
      <trkpt lat="45.83924" lon="4.77764">
        <ele>505.52393</ele>
        <time>2023-06-29T14:44:43.000Z</time>
      </trkpt>
      <trkpt lat="45.83929" lon="4.77766">
        <ele>505.56168</ele>
        <time>2023-06-29T14:44:44.000Z</time>
      </trkpt>
      <trkpt lat="45.83934" lon="4.77767">
        <ele>505.5831</ele>
        <time>2023-06-29T14:44:45.000Z</time>
      </trkpt>
      <trkpt lat="45.83938" lon="4.77768">
        <ele>505.57944</ele>
        <time>2023-06-29T14:44:46.000Z</time>
      </trkpt>
      <trkpt lat="45.83942" lon="4.7777">
        <ele>505.58246</ele>
        <time>2023-06-29T14:44:47.000Z</time>
      </trkpt>
      <trkpt lat="45.83946" lon="4.77771">
        <ele>505.62616</ele>
        <time>2023-06-29T14:44:48.000Z</time>
      </trkpt>
      <trkpt lat="45.8395" lon="4.77772">
        <ele>505.73639</ele>
        <time>2023-06-29T14:44:49.000Z</time>
      </trkpt>
      <trkpt lat="45.83954" lon="4.77773">
        <ele>505.83368</ele>
        <time>2023-06-29T14:44:50.000Z</time>
      </trkpt>
      <trkpt lat="45.83957" lon="4.77775">
        <ele>505.91998</ele>
        <time>2023-06-29T14:44:51.000Z</time>
      </trkpt>
      <trkpt lat="45.83961" lon="4.77776">
        <ele>506.04874</ele>
        <time>2023-06-29T14:44:52.000Z</time>
      </trkpt>
      <trkpt lat="45.83965" lon="4.77777">
        <ele>506.16748</ele>
        <time>2023-06-29T14:44:53.000Z</time>
      </trkpt>
      <trkpt lat="45.83968" lon="4.77778">
        <ele>506.2995</ele>
        <time>2023-06-29T14:44:54.000Z</time>
      </trkpt>
      <trkpt lat="45.83972" lon="4.77779">
        <ele>506.43423</ele>
        <time>2023-06-29T14:44:55.000Z</time>
      </trkpt>
      <trkpt lat="45.83975" lon="4.7778">
        <ele>506.60748</ele>
        <time>2023-06-29T14:44:56.000Z</time>
      </trkpt>
      <trkpt lat="45.83979" lon="4.77781">
        <ele>506.7291</ele>
        <time>2023-06-29T14:44:57.000Z</time>
      </trkpt>
      <trkpt lat="45.83981" lon="4.77782">
        <ele>506.88141</ele>
        <time>2023-06-29T14:44:58.000Z</time>
      </trkpt>
      <trkpt lat="45.83985" lon="4.77783">
        <ele>507.02472</ele>
        <time>2023-06-29T14:44:59.000Z</time>
      </trkpt>
      <trkpt lat="45.83988" lon="4.77784">
        <ele>507.12286</ele>
        <time>2023-06-29T14:45:00.000Z</time>
      </trkpt>
      <trkpt lat="45.83991" lon="4.77785">
        <ele>507.21906</ele>
        <time>2023-06-29T14:45:01.000Z</time>
      </trkpt>
      <trkpt lat="45.83993" lon="4.77785">
        <ele>507.34308</ele>
        <time>2023-06-29T14:45:02.000Z</time>
      </trkpt>
      <trkpt lat="45.83996" lon="4.77785">
        <ele>507.44711</ele>
        <time>2023-06-29T14:45:03.000Z</time>
      </trkpt>
      <trkpt lat="45.84" lon="4.77785">
        <ele>507.55981</ele>
        <time>2023-06-29T14:45:04.000Z</time>
      </trkpt>
      <trkpt lat="45.84003" lon="4.77786">
        <ele>507.71857</ele>
        <time>2023-06-29T14:45:05.000Z</time>
      </trkpt>
      <trkpt lat="45.84006" lon="4.77787">
        <ele>507.92953</ele>
        <time>2023-06-29T14:45:06.000Z</time>
      </trkpt>
      <trkpt lat="45.84009" lon="4.77787">
        <ele>508.10123</ele>
        <time>2023-06-29T14:45:07.000Z</time>
      </trkpt>
      <trkpt lat="45.84012" lon="4.77788">
        <ele>508.27515</ele>
        <time>2023-06-29T14:45:08.000Z</time>
      </trkpt>
      <trkpt lat="45.84015" lon="4.77788">
        <ele>508.45386</ele>
        <time>2023-06-29T14:45:09.000Z</time>
      </trkpt>
      <trkpt lat="45.84018" lon="4.77788">
        <ele>508.63556</ele>
        <time>2023-06-29T14:45:10.000Z</time>
      </trkpt>
      <trkpt lat="45.8402" lon="4.77789">
        <ele>508.81454</ele>
        <time>2023-06-29T14:45:11.000Z</time>
      </trkpt>
      <trkpt lat="45.84022" lon="4.77788">
        <ele>508.94672</ele>
        <time>2023-06-29T14:45:12.000Z</time>
      </trkpt>
      <trkpt lat="45.84025" lon="4.77788">
        <ele>509.07611</ele>
        <time>2023-06-29T14:45:13.000Z</time>
      </trkpt>
      <trkpt lat="45.84028" lon="4.77788">
        <ele>509.20718</ele>
        <time>2023-06-29T14:45:14.000Z</time>
      </trkpt>
      <trkpt lat="45.8403" lon="4.77788">
        <ele>509.35248</ele>
        <time>2023-06-29T14:45:15.000Z</time>
      </trkpt>
      <trkpt lat="45.84032" lon="4.77787">
        <ele>509.4873</ele>
        <time>2023-06-29T14:45:16.000Z</time>
      </trkpt>
      <trkpt lat="45.84034" lon="4.77786">
        <ele>509.71811</ele>
        <time>2023-06-29T14:45:17.000Z</time>
      </trkpt>
      <trkpt lat="45.84036" lon="4.77785">
        <ele>509.95001</ele>
        <time>2023-06-29T14:45:18.000Z</time>
      </trkpt>
      <trkpt lat="45.84039" lon="4.77783">
        <ele>510.17227</ele>
        <time>2023-06-29T14:45:20.000Z</time>
      </trkpt>
      <trkpt lat="45.84041" lon="4.77781">
        <ele>510.39166</ele>
        <time>2023-06-29T14:45:22.000Z</time>
      </trkpt>
      <trkpt lat="45.84043" lon="4.77781">
        <ele>510.57144</ele>
        <time>2023-06-29T14:45:26.000Z</time>
      </trkpt>
      <trkpt lat="45.84045" lon="4.77781">
        <ele>510.78052</ele>
        <time>2023-06-29T14:45:32.000Z</time>
      </trkpt>
      <trkpt lat="45.84047" lon="4.77782">
        <ele>510.92169</ele>
        <time>2023-06-29T14:45:35.000Z</time>
      </trkpt>
      <trkpt lat="45.84049" lon="4.77784">
        <ele>511.06415</ele>
        <time>2023-06-29T14:45:37.000Z</time>
      </trkpt>
      <trkpt lat="45.84051" lon="4.77785">
        <ele>511.17218</ele>
        <time>2023-06-29T14:45:40.000Z</time>
      </trkpt>
      <trkpt lat="45.84052" lon="4.77787">
        <ele>511.18719</ele>
        <time>2023-06-29T14:45:53.000Z</time>
      </trkpt>
      <trkpt lat="45.84054" lon="4.77789">
        <ele>511.17853</ele>
        <time>2023-06-29T14:45:59.000Z</time>
      </trkpt>
      <trkpt lat="45.84057" lon="4.77787">
        <ele>508.52679</ele>
        <time>2023-06-29T14:47:06.000Z</time>
      </trkpt>
      <trkpt lat="45.84059" lon="4.77786">
        <ele>508.41562</ele>
        <time>2023-06-29T14:47:08.000Z</time>
      </trkpt>
      <trkpt lat="45.84061" lon="4.77784">
        <ele>508.29819</ele>
        <time>2023-06-29T14:47:10.000Z</time>
      </trkpt>
      <trkpt lat="45.84064" lon="4.77784">
        <ele>505.51669</ele>
        <time>2023-06-29T14:47:12.000Z</time>
      </trkpt>
      <trkpt lat="45.84066" lon="4.77782">
        <ele>505.271</ele>
        <time>2023-06-29T14:47:14.000Z</time>
      </trkpt>
      <trkpt lat="45.84067" lon="4.7778">
        <ele>505.01709</ele>
        <time>2023-06-29T14:47:15.000Z</time>
      </trkpt>
      <trkpt lat="45.84069" lon="4.77776">
        <ele>504.74112</ele>
        <time>2023-06-29T14:47:17.000Z</time>
      </trkpt>
      <trkpt lat="45.84071" lon="4.77777">
        <ele>501.13617</ele>
        <time>2023-06-29T14:47:22.000Z</time>
      </trkpt>
      <trkpt lat="45.84072" lon="4.77775">
        <ele>500.66156</ele>
        <time>2023-06-29T14:47:25.000Z</time>
      </trkpt>
      <trkpt lat="45.84074" lon="4.77773">
        <ele>500.90274</ele>
        <time>2023-06-29T14:47:29.000Z</time>
      </trkpt>
      <trkpt lat="45.84076" lon="4.77772">
        <ele>501.11093</ele>
        <time>2023-06-29T14:47:36.000Z</time>
      </trkpt>
      <trkpt lat="45.84078" lon="4.77771">
        <ele>501.44611</ele>
        <time>2023-06-29T14:47:42.000Z</time>
      </trkpt>
      <trkpt lat="45.84079" lon="4.77768">
        <ele>501.80191</ele>
        <time>2023-06-29T14:47:43.000Z</time>
      </trkpt>
      <trkpt lat="45.84081" lon="4.77769">
        <ele>502.1478</ele>
        <time>2023-06-29T14:47:45.000Z</time>
      </trkpt>
      <trkpt lat="45.8408" lon="4.77772">
        <ele>502.39322</ele>
        <time>2023-06-29T14:47:46.000Z</time>
      </trkpt>
      <trkpt lat="45.8408" lon="4.77775">
        <ele>502.73154</ele>
        <time>2023-06-29T14:47:47.000Z</time>
      </trkpt>
      <trkpt lat="45.8408" lon="4.77779">
        <ele>503.04745</ele>
        <time>2023-06-29T14:47:48.000Z</time>
      </trkpt>
      <trkpt lat="45.84081" lon="4.77781">
        <ele>503.33994</ele>
        <time>2023-06-29T14:47:49.000Z</time>
      </trkpt>
      <trkpt lat="45.84083" lon="4.77782">
        <ele>503.63763</ele>
        <time>2023-06-29T14:47:50.000Z</time>
      </trkpt>
      <trkpt lat="45.84086" lon="4.77782">
        <ele>504.00064</ele>
        <time>2023-06-29T14:47:51.000Z</time>
      </trkpt>
      <trkpt lat="45.84087" lon="4.77782">
        <ele>507.10352</ele>
        <time>2023-06-29T14:47:52.000Z</time>
      </trkpt>
      <trkpt lat="45.8409" lon="4.77781">
        <ele>507.60028</ele>
        <time>2023-06-29T14:47:53.000Z</time>
      </trkpt>
      <trkpt lat="45.84092" lon="4.77781">
        <ele>508.1499</ele>
        <time>2023-06-29T14:47:54.000Z</time>
      </trkpt>
      <trkpt lat="45.84094" lon="4.77781">
        <ele>511.36871</ele>
        <time>2023-06-29T14:47:55.000Z</time>
      </trkpt>
      <trkpt lat="45.84096" lon="4.7778">
        <ele>512.02502</ele>
        <time>2023-06-29T14:47:56.000Z</time>
      </trkpt>
      <trkpt lat="45.84099" lon="4.77778">
        <ele>512.67163</ele>
        <time>2023-06-29T14:47:58.000Z</time>
      </trkpt>
      <trkpt lat="45.84103" lon="4.77778">
        <ele>513.33752</ele>
        <time>2023-06-29T14:48:00.000Z</time>
      </trkpt>
      <trkpt lat="45.84105" lon="4.77778">
        <ele>517.33411</ele>
        <time>2023-06-29T14:48:01.000Z</time>
      </trkpt>
      <trkpt lat="45.84107" lon="4.77778">
        <ele>518.159</ele>
        <time>2023-06-29T14:48:02.000Z</time>
      </trkpt>
      <trkpt lat="45.84109" lon="4.77777">
        <ele>518.22253</ele>
        <time>2023-06-29T14:48:03.000Z</time>
      </trkpt>
      <trkpt lat="45.84111" lon="4.77777">
        <ele>518.27826</ele>
        <time>2023-06-29T14:48:04.000Z</time>
      </trkpt>
      <trkpt lat="45.84114" lon="4.77776">
        <ele>518.27795</ele>
        <time>2023-06-29T14:48:06.000Z</time>
      </trkpt>
      <trkpt lat="45.84118" lon="4.77777">
        <ele>518.25043</ele>
        <time>2023-06-29T14:48:08.000Z</time>
      </trkpt>
      <trkpt lat="45.8412" lon="4.77779">
        <ele>518.33569</ele>
        <time>2023-06-29T14:48:10.000Z</time>
      </trkpt>
      <trkpt lat="45.84123" lon="4.7778">
        <ele>518.51575</ele>
        <time>2023-06-29T14:48:11.000Z</time>
      </trkpt>
      <trkpt lat="45.84125" lon="4.7778">
        <ele>518.75812</ele>
        <time>2023-06-29T14:48:12.000Z</time>
      </trkpt>
      <trkpt lat="45.84127" lon="4.7778">
        <ele>519.04059</ele>
        <time>2023-06-29T14:48:13.000Z</time>
      </trkpt>
      <trkpt lat="45.84129" lon="4.7778">
        <ele>519.29572</ele>
        <time>2023-06-29T14:48:14.000Z</time>
      </trkpt>
      <trkpt lat="45.84131" lon="4.7778">
        <ele>519.55591</ele>
        <time>2023-06-29T14:48:15.000Z</time>
      </trkpt>
      <trkpt lat="45.84134" lon="4.7778">
        <ele>519.79553</ele>
        <time>2023-06-29T14:48:16.000Z</time>
      </trkpt>
      <trkpt lat="45.84136" lon="4.77779">
        <ele>519.86011</ele>
        <time>2023-06-29T14:48:17.000Z</time>
      </trkpt>
      <trkpt lat="45.84138" lon="4.77778">
        <ele>520.15479</ele>
        <time>2023-06-29T14:48:18.000Z</time>
      </trkpt>
      <trkpt lat="45.84141" lon="4.77777">
        <ele>520.34711</ele>
        <time>2023-06-29T14:48:19.000Z</time>
      </trkpt>
      <trkpt lat="45.84143" lon="4.77775">
        <ele>520.56659</ele>
        <time>2023-06-29T14:48:20.000Z</time>
      </trkpt>
      <trkpt lat="45.84145" lon="4.77773">
        <ele>520.82367</ele>
        <time>2023-06-29T14:48:21.000Z</time>
      </trkpt>
      <trkpt lat="45.84147" lon="4.7777">
        <ele>521.10248</ele>
        <time>2023-06-29T14:48:22.000Z</time>
      </trkpt>
      <trkpt lat="45.84149" lon="4.77767">
        <ele>521.34973</ele>
        <time>2023-06-29T14:48:23.000Z</time>
      </trkpt>
      <trkpt lat="45.84151" lon="4.77765">
        <ele>521.60187</ele>
        <time>2023-06-29T14:48:24.000Z</time>
      </trkpt>
      <trkpt lat="45.84153" lon="4.77763">
        <ele>521.88611</ele>
        <time>2023-06-29T14:48:25.000Z</time>
      </trkpt>
      <trkpt lat="45.84156" lon="4.77762">
        <ele>522.13452</ele>
        <time>2023-06-29T14:48:26.000Z</time>
      </trkpt>
      <trkpt lat="45.84158" lon="4.7776">
        <ele>522.4032</ele>
        <time>2023-06-29T14:48:27.000Z</time>
      </trkpt>
      <trkpt lat="45.8416" lon="4.77759">
        <ele>522.58911</ele>
        <time>2023-06-29T14:48:28.000Z</time>
      </trkpt>
      <trkpt lat="45.84163" lon="4.77759">
        <ele>522.82288</ele>
        <time>2023-06-29T14:48:29.000Z</time>
      </trkpt>
      <trkpt lat="45.84166" lon="4.77758">
        <ele>523.03137</ele>
        <time>2023-06-29T14:48:30.000Z</time>
      </trkpt>
      <trkpt lat="45.84168" lon="4.77757">
        <ele>523.19873</ele>
        <time>2023-06-29T14:48:31.000Z</time>
      </trkpt>
      <trkpt lat="45.84171" lon="4.77758">
        <ele>523.25</ele>
        <time>2023-06-29T14:48:32.000Z</time>
      </trkpt>
      <trkpt lat="45.84173" lon="4.77757">
        <ele>523.29639</ele>
        <time>2023-06-29T14:48:33.000Z</time>
      </trkpt>
      <trkpt lat="45.84176" lon="4.77757">
        <ele>523.42621</ele>
        <time>2023-06-29T14:48:34.000Z</time>
      </trkpt>
      <trkpt lat="45.84179" lon="4.77756">
        <ele>523.66125</ele>
        <time>2023-06-29T14:48:35.000Z</time>
      </trkpt>
      <trkpt lat="45.84181" lon="4.77756">
        <ele>524.0014</ele>
        <time>2023-06-29T14:48:36.000Z</time>
      </trkpt>
      <trkpt lat="45.84183" lon="4.77756">
        <ele>524.37433</ele>
        <time>2023-06-29T14:48:37.000Z</time>
      </trkpt>
      <trkpt lat="45.84185" lon="4.77756">
        <ele>524.51288</ele>
        <time>2023-06-29T14:48:38.000Z</time>
      </trkpt>
      <trkpt lat="45.84188" lon="4.77755">
        <ele>524.66498</ele>
        <time>2023-06-29T14:48:39.000Z</time>
      </trkpt>
      <trkpt lat="45.8419" lon="4.77755">
        <ele>524.73761</ele>
        <time>2023-06-29T14:48:40.000Z</time>
      </trkpt>
      <trkpt lat="45.84192" lon="4.77754">
        <ele>524.87585</ele>
        <time>2023-06-29T14:48:41.000Z</time>
      </trkpt>
      <trkpt lat="45.84195" lon="4.77754">
        <ele>525.06409</ele>
        <time>2023-06-29T14:48:42.000Z</time>
      </trkpt>
      <trkpt lat="45.84197" lon="4.77753">
        <ele>525.30652</ele>
        <time>2023-06-29T14:48:43.000Z</time>
      </trkpt>
      <trkpt lat="45.842" lon="4.77752">
        <ele>525.58148</ele>
        <time>2023-06-29T14:48:44.000Z</time>
      </trkpt>
      <trkpt lat="45.84202" lon="4.77751">
        <ele>525.88312</ele>
        <time>2023-06-29T14:48:45.000Z</time>
      </trkpt>
      <trkpt lat="45.84205" lon="4.7775">
        <ele>526.24927</ele>
        <time>2023-06-29T14:48:46.000Z</time>
      </trkpt>
      <trkpt lat="45.84207" lon="4.77749">
        <ele>526.56506</ele>
        <time>2023-06-29T14:48:47.000Z</time>
      </trkpt>
      <trkpt lat="45.8421" lon="4.77749">
        <ele>526.90222</ele>
        <time>2023-06-29T14:48:48.000Z</time>
      </trkpt>
      <trkpt lat="45.84212" lon="4.77749">
        <ele>527.2616</ele>
        <time>2023-06-29T14:48:49.000Z</time>
      </trkpt>
      <trkpt lat="45.84215" lon="4.77749">
        <ele>527.55664</ele>
        <time>2023-06-29T14:48:50.000Z</time>
      </trkpt>
      <trkpt lat="45.84218" lon="4.7775">
        <ele>527.76062</ele>
        <time>2023-06-29T14:48:51.000Z</time>
      </trkpt>
      <trkpt lat="45.8422" lon="4.77751">
        <ele>528.03937</ele>
        <time>2023-06-29T14:48:52.000Z</time>
      </trkpt>
      <trkpt lat="45.84222" lon="4.77751">
        <ele>528.35327</ele>
        <time>2023-06-29T14:48:53.000Z</time>
      </trkpt>
      <trkpt lat="45.84224" lon="4.77753">
        <ele>528.64221</ele>
        <time>2023-06-29T14:48:54.000Z</time>
      </trkpt>
      <trkpt lat="45.84226" lon="4.77754">
        <ele>528.93945</ele>
        <time>2023-06-29T14:48:55.000Z</time>
      </trkpt>
      <trkpt lat="45.84229" lon="4.77754">
        <ele>529.17371</ele>
        <time>2023-06-29T14:48:56.000Z</time>
      </trkpt>
      <trkpt lat="45.84231" lon="4.77752">
        <ele>529.42615</ele>
        <time>2023-06-29T14:48:57.000Z</time>
      </trkpt>
      <trkpt lat="45.84233" lon="4.7775">
        <ele>529.7262</ele>
        <time>2023-06-29T14:48:58.000Z</time>
      </trkpt>
      <trkpt lat="45.84237" lon="4.77747">
        <ele>530.12109</ele>
        <time>2023-06-29T14:49:00.000Z</time>
      </trkpt>
      <trkpt lat="45.84239" lon="4.77746">
        <ele>530.51709</ele>
        <time>2023-06-29T14:49:01.000Z</time>
      </trkpt>
      <trkpt lat="45.84241" lon="4.77745">
        <ele>530.81885</ele>
        <time>2023-06-29T14:49:02.000Z</time>
      </trkpt>
      <trkpt lat="45.84243" lon="4.77744">
        <ele>531.07434</ele>
        <time>2023-06-29T14:49:03.000Z</time>
      </trkpt>
      <trkpt lat="45.84245" lon="4.77744">
        <ele>531.33331</ele>
        <time>2023-06-29T14:49:04.000Z</time>
      </trkpt>
      <trkpt lat="45.84247" lon="4.77743">
        <ele>531.54822</ele>
        <time>2023-06-29T14:49:05.000Z</time>
      </trkpt>
      <trkpt lat="45.84249" lon="4.77743">
        <ele>531.68506</ele>
        <time>2023-06-29T14:49:06.000Z</time>
      </trkpt>
      <trkpt lat="45.84251" lon="4.77741">
        <ele>531.664</ele>
        <time>2023-06-29T14:49:07.000Z</time>
      </trkpt>
      <trkpt lat="45.84253" lon="4.7774">
        <ele>531.72095</ele>
        <time>2023-06-29T14:49:08.000Z</time>
      </trkpt>
      <trkpt lat="45.84256" lon="4.77738">
        <ele>531.76495</ele>
        <time>2023-06-29T14:49:09.000Z</time>
      </trkpt>
      <trkpt lat="45.84258" lon="4.77738">
        <ele>531.76929</ele>
        <time>2023-06-29T14:49:10.000Z</time>
      </trkpt>
      <trkpt lat="45.8426" lon="4.77737">
        <ele>531.71887</ele>
        <time>2023-06-29T14:49:11.000Z</time>
      </trkpt>
      <trkpt lat="45.84263" lon="4.77736">
        <ele>531.75378</ele>
        <time>2023-06-29T14:49:12.000Z</time>
      </trkpt>
      <trkpt lat="45.84266" lon="4.77735">
        <ele>531.73767</ele>
        <time>2023-06-29T14:49:13.000Z</time>
      </trkpt>
      <trkpt lat="45.84268" lon="4.77734">
        <ele>531.7132</ele>
        <time>2023-06-29T14:49:14.000Z</time>
      </trkpt>
      <trkpt lat="45.8427" lon="4.77733">
        <ele>531.73987</ele>
        <time>2023-06-29T14:49:15.000Z</time>
      </trkpt>
      <trkpt lat="45.84273" lon="4.77731">
        <ele>531.78735</ele>
        <time>2023-06-29T14:49:16.000Z</time>
      </trkpt>
      <trkpt lat="45.84276" lon="4.7773">
        <ele>531.74866</ele>
        <time>2023-06-29T14:49:17.000Z</time>
      </trkpt>
      <trkpt lat="45.84278" lon="4.77729">
        <ele>531.77356</ele>
        <time>2023-06-29T14:49:18.000Z</time>
      </trkpt>
      <trkpt lat="45.84281" lon="4.77729">
        <ele>531.84973</ele>
        <time>2023-06-29T14:49:19.000Z</time>
      </trkpt>
      <trkpt lat="45.84284" lon="4.77729">
        <ele>531.89246</ele>
        <time>2023-06-29T14:49:20.000Z</time>
      </trkpt>
      <trkpt lat="45.84287" lon="4.7773">
        <ele>532.0849</ele>
        <time>2023-06-29T14:49:21.000Z</time>
      </trkpt>
      <trkpt lat="45.84289" lon="4.77729">
        <ele>532.37427</ele>
        <time>2023-06-29T14:49:22.000Z</time>
      </trkpt>
      <trkpt lat="45.84292" lon="4.77729">
        <ele>532.70483</ele>
        <time>2023-06-29T14:49:23.000Z</time>
      </trkpt>
      <trkpt lat="45.84295" lon="4.77728">
        <ele>533.04523</ele>
        <time>2023-06-29T14:49:24.000Z</time>
      </trkpt>
      <trkpt lat="45.84298" lon="4.77727">
        <ele>533.38159</ele>
        <time>2023-06-29T14:49:25.000Z</time>
      </trkpt>
      <trkpt lat="45.843" lon="4.77726">
        <ele>533.82697</ele>
        <time>2023-06-29T14:49:26.000Z</time>
      </trkpt>
      <trkpt lat="45.84303" lon="4.77724">
        <ele>534.30798</ele>
        <time>2023-06-29T14:49:27.000Z</time>
      </trkpt>
      <trkpt lat="45.84305" lon="4.77721">
        <ele>534.70386</ele>
        <time>2023-06-29T14:49:28.000Z</time>
      </trkpt>
      <trkpt lat="45.84307" lon="4.77719">
        <ele>535.51648</ele>
        <time>2023-06-29T14:49:29.000Z</time>
      </trkpt>
      <trkpt lat="45.84309" lon="4.77717">
        <ele>536.34619</ele>
        <time>2023-06-29T14:49:30.000Z</time>
      </trkpt>
      <trkpt lat="45.84311" lon="4.77715">
        <ele>537.30115</ele>
        <time>2023-06-29T14:49:31.000Z</time>
      </trkpt>
      <trkpt lat="45.84313" lon="4.77714">
        <ele>537.84576</ele>
        <time>2023-06-29T14:49:32.000Z</time>
      </trkpt>
      <trkpt lat="45.84316" lon="4.77713">
        <ele>538.44495</ele>
        <time>2023-06-29T14:49:33.000Z</time>
      </trkpt>
      <trkpt lat="45.84318" lon="4.77712">
        <ele>538.99011</ele>
        <time>2023-06-29T14:49:34.000Z</time>
      </trkpt>
      <trkpt lat="45.84321" lon="4.77711">
        <ele>539.38611</ele>
        <time>2023-06-29T14:49:35.000Z</time>
      </trkpt>
      <trkpt lat="45.84323" lon="4.77709">
        <ele>539.63489</ele>
        <time>2023-06-29T14:49:36.000Z</time>
      </trkpt>
      <trkpt lat="45.84325" lon="4.77708">
        <ele>540.01331</ele>
        <time>2023-06-29T14:49:37.000Z</time>
      </trkpt>
      <trkpt lat="45.84328" lon="4.77708">
        <ele>540.40692</ele>
        <time>2023-06-29T14:49:38.000Z</time>
      </trkpt>
      <trkpt lat="45.8433" lon="4.77707">
        <ele>540.81049</ele>
        <time>2023-06-29T14:49:39.000Z</time>
      </trkpt>
      <trkpt lat="45.84333" lon="4.77706">
        <ele>541.2713</ele>
        <time>2023-06-29T14:49:41.000Z</time>
      </trkpt>
      <trkpt lat="45.84336" lon="4.77706">
        <ele>541.62366</ele>
        <time>2023-06-29T14:49:42.000Z</time>
      </trkpt>
      <trkpt lat="45.84339" lon="4.77706">
        <ele>541.89117</ele>
        <time>2023-06-29T14:49:43.000Z</time>
      </trkpt>
      <trkpt lat="45.84341" lon="4.77705">
        <ele>542.10596</ele>
        <time>2023-06-29T14:49:44.000Z</time>
      </trkpt>
      <trkpt lat="45.84343" lon="4.77705">
        <ele>541.87872</ele>
        <time>2023-06-29T14:49:45.000Z</time>
      </trkpt>
      <trkpt lat="45.84346" lon="4.77703">
        <ele>542.29285</ele>
        <time>2023-06-29T14:49:47.000Z</time>
      </trkpt>
      <trkpt lat="45.84348" lon="4.77703">
        <ele>542.78357</ele>
        <time>2023-06-29T14:49:48.000Z</time>
      </trkpt>
      <trkpt lat="45.8435" lon="4.77702">
        <ele>543.42737</ele>
        <time>2023-06-29T14:49:49.000Z</time>
      </trkpt>
      <trkpt lat="45.84352" lon="4.77701">
        <ele>544.12976</ele>
        <time>2023-06-29T14:49:50.000Z</time>
      </trkpt>
      <trkpt lat="45.84354" lon="4.777">
        <ele>544.50818</ele>
        <time>2023-06-29T14:49:51.000Z</time>
      </trkpt>
      <trkpt lat="45.84356" lon="4.77698">
        <ele>544.90155</ele>
        <time>2023-06-29T14:49:52.000Z</time>
      </trkpt>
      <trkpt lat="45.84358" lon="4.77697">
        <ele>545.23834</ele>
        <time>2023-06-29T14:49:53.000Z</time>
      </trkpt>
      <trkpt lat="45.8436" lon="4.77695">
        <ele>546.02039</ele>
        <time>2023-06-29T14:49:54.000Z</time>
      </trkpt>
      <trkpt lat="45.84362" lon="4.77694">
        <ele>546.8078</ele>
        <time>2023-06-29T14:49:55.000Z</time>
      </trkpt>
      <trkpt lat="45.84364" lon="4.77693">
        <ele>547.58936</ele>
        <time>2023-06-29T14:49:56.000Z</time>
      </trkpt>
      <trkpt lat="45.84366" lon="4.77692">
        <ele>548.48041</ele>
        <time>2023-06-29T14:49:57.000Z</time>
      </trkpt>
      <trkpt lat="45.84368" lon="4.77691">
        <ele>549.47375</ele>
        <time>2023-06-29T14:49:58.000Z</time>
      </trkpt>
      <trkpt lat="45.8437" lon="4.77691">
        <ele>550.38721</ele>
        <time>2023-06-29T14:49:59.000Z</time>
      </trkpt>
      <trkpt lat="45.84373" lon="4.7769">
        <ele>551.26776</ele>
        <time>2023-06-29T14:50:00.000Z</time>
      </trkpt>
      <trkpt lat="45.84375" lon="4.77691">
        <ele>552.11688</ele>
        <time>2023-06-29T14:50:01.000Z</time>
      </trkpt>
      <trkpt lat="45.84377" lon="4.7769">
        <ele>552.92004</ele>
        <time>2023-06-29T14:50:02.000Z</time>
      </trkpt>
      <trkpt lat="45.84379" lon="4.7769">
        <ele>553.75891</ele>
        <time>2023-06-29T14:50:03.000Z</time>
      </trkpt>
      <trkpt lat="45.84382" lon="4.7769">
        <ele>554.63354</ele>
        <time>2023-06-29T14:50:04.000Z</time>
      </trkpt>
      <trkpt lat="45.84384" lon="4.7769">
        <ele>555.50775</ele>
        <time>2023-06-29T14:50:05.000Z</time>
      </trkpt>
      <trkpt lat="45.84387" lon="4.77689">
        <ele>555.76776</ele>
        <time>2023-06-29T14:50:06.000Z</time>
      </trkpt>
      <trkpt lat="45.84389" lon="4.77689">
        <ele>555.52942</ele>
        <time>2023-06-29T14:50:07.000Z</time>
      </trkpt>
      <trkpt lat="45.84391" lon="4.77688">
        <ele>555.1673</ele>
        <time>2023-06-29T14:50:08.000Z</time>
      </trkpt>
      <trkpt lat="45.84393" lon="4.77686">
        <ele>554.70349</ele>
        <time>2023-06-29T14:50:09.000Z</time>
      </trkpt>
      <trkpt lat="45.84395" lon="4.77685">
        <ele>554.05334</ele>
        <time>2023-06-29T14:50:10.000Z</time>
      </trkpt>
      <trkpt lat="45.84397" lon="4.77683">
        <ele>553.81049</ele>
        <time>2023-06-29T14:50:11.000Z</time>
      </trkpt>
      <trkpt lat="45.84399" lon="4.77682">
        <ele>553.45313</ele>
        <time>2023-06-29T14:50:12.000Z</time>
      </trkpt>
      <trkpt lat="45.84401" lon="4.7768">
        <ele>553.10999</ele>
        <time>2023-06-29T14:50:13.000Z</time>
      </trkpt>
      <trkpt lat="45.84404" lon="4.77677">
        <ele>552.72498</ele>
        <time>2023-06-29T14:50:15.000Z</time>
      </trkpt>
      <trkpt lat="45.84407" lon="4.77676">
        <ele>552.29315</ele>
        <time>2023-06-29T14:50:16.000Z</time>
      </trkpt>
      <trkpt lat="45.8441" lon="4.77675">
        <ele>551.91589</ele>
        <time>2023-06-29T14:50:18.000Z</time>
      </trkpt>
      <trkpt lat="45.84413" lon="4.77675">
        <ele>551.54236</ele>
        <time>2023-06-29T14:50:19.000Z</time>
      </trkpt>
      <trkpt lat="45.84415" lon="4.77674">
        <ele>551.20636</ele>
        <time>2023-06-29T14:50:20.000Z</time>
      </trkpt>
      <trkpt lat="45.84417" lon="4.77673">
        <ele>550.87402</ele>
        <time>2023-06-29T14:50:21.000Z</time>
      </trkpt>
      <trkpt lat="45.84419" lon="4.77672">
        <ele>550.42267</ele>
        <time>2023-06-29T14:50:22.000Z</time>
      </trkpt>
      <trkpt lat="45.84422" lon="4.7767">
        <ele>550.01379</ele>
        <time>2023-06-29T14:50:23.000Z</time>
      </trkpt>
      <trkpt lat="45.84425" lon="4.77668">
        <ele>550.26892</ele>
        <time>2023-06-29T14:50:24.000Z</time>
      </trkpt>
      <trkpt lat="45.84427" lon="4.77666">
        <ele>550.49561</ele>
        <time>2023-06-29T14:50:25.000Z</time>
      </trkpt>
      <trkpt lat="45.8443" lon="4.77664">
        <ele>550.73291</ele>
        <time>2023-06-29T14:50:26.000Z</time>
      </trkpt>
      <trkpt lat="45.84432" lon="4.77663">
        <ele>550.98059</ele>
        <time>2023-06-29T14:50:27.000Z</time>
      </trkpt>
      <trkpt lat="45.84435" lon="4.77661">
        <ele>552.24109</ele>
        <time>2023-06-29T14:50:28.000Z</time>
      </trkpt>
      <trkpt lat="45.84438" lon="4.7766">
        <ele>553.42755</ele>
        <time>2023-06-29T14:50:29.000Z</time>
      </trkpt>
      <trkpt lat="45.8444" lon="4.77659">
        <ele>554.81134</ele>
        <time>2023-06-29T14:50:30.000Z</time>
      </trkpt>
      <trkpt lat="45.84443" lon="4.77658">
        <ele>556.19281</ele>
        <time>2023-06-29T14:50:31.000Z</time>
      </trkpt>
      <trkpt lat="45.84445" lon="4.77657">
        <ele>557.75916</ele>
        <time>2023-06-29T14:50:32.000Z</time>
      </trkpt>
      <trkpt lat="45.84448" lon="4.77656">
        <ele>558.83337</ele>
        <time>2023-06-29T14:50:33.000Z</time>
      </trkpt>
      <trkpt lat="45.84451" lon="4.77656">
        <ele>560.00958</ele>
        <time>2023-06-29T14:50:34.000Z</time>
      </trkpt>
      <trkpt lat="45.84453" lon="4.77656">
        <ele>561.13824</ele>
        <time>2023-06-29T14:50:35.000Z</time>
      </trkpt>
      <trkpt lat="45.84456" lon="4.77654">
        <ele>562.30115</ele>
        <time>2023-06-29T14:50:37.000Z</time>
      </trkpt>
      <trkpt lat="45.84459" lon="4.77653">
        <ele>563.50916</ele>
        <time>2023-06-29T14:50:38.000Z</time>
      </trkpt>
      <trkpt lat="45.8446" lon="4.77652">
        <ele>564.69714</ele>
        <time>2023-06-29T14:50:39.000Z</time>
      </trkpt>
      <trkpt lat="45.84462" lon="4.77651">
        <ele>565.87372</ele>
        <time>2023-06-29T14:50:40.000Z</time>
      </trkpt>
      <trkpt lat="45.84465" lon="4.7765">
        <ele>566.96741</ele>
        <time>2023-06-29T14:50:41.000Z</time>
      </trkpt>
      <trkpt lat="45.84467" lon="4.77649">
        <ele>568.04724</ele>
        <time>2023-06-29T14:50:42.000Z</time>
      </trkpt>
      <trkpt lat="45.8447" lon="4.77647">
        <ele>568.97498</ele>
        <time>2023-06-29T14:50:44.000Z</time>
      </trkpt>
      <trkpt lat="45.84472" lon="4.77645">
        <ele>569.70441</ele>
        <time>2023-06-29T14:50:45.000Z</time>
      </trkpt>
      <trkpt lat="45.84474" lon="4.77645">
        <ele>569.69104</ele>
        <time>2023-06-29T14:50:46.000Z</time>
      </trkpt>
      <trkpt lat="45.84476" lon="4.77644">
        <ele>569.74463</ele>
        <time>2023-06-29T14:50:47.000Z</time>
      </trkpt>
      <trkpt lat="45.84478" lon="4.77642">
        <ele>570.06195</ele>
        <time>2023-06-29T14:50:49.000Z</time>
      </trkpt>
      <trkpt lat="45.8448" lon="4.7764">
        <ele>570.43817</ele>
        <time>2023-06-29T14:50:50.000Z</time>
      </trkpt>
      <trkpt lat="45.84482" lon="4.77638">
        <ele>570.80408</ele>
        <time>2023-06-29T14:50:51.000Z</time>
      </trkpt>
      <trkpt lat="45.84484" lon="4.77636">
        <ele>571.0769</ele>
        <time>2023-06-29T14:50:52.000Z</time>
      </trkpt>
      <trkpt lat="45.84486" lon="4.77634">
        <ele>571.11755</ele>
        <time>2023-06-29T14:50:53.000Z</time>
      </trkpt>
      <trkpt lat="45.84488" lon="4.77632">
        <ele>571.32269</ele>
        <time>2023-06-29T14:50:54.000Z</time>
      </trkpt>
      <trkpt lat="45.8449" lon="4.77631">
        <ele>571.49335</ele>
        <time>2023-06-29T14:50:55.000Z</time>
      </trkpt>
      <trkpt lat="45.84492" lon="4.77629">
        <ele>571.6759</ele>
        <time>2023-06-29T14:50:56.000Z</time>
      </trkpt>
      <trkpt lat="45.84494" lon="4.77628">
        <ele>571.6214</ele>
        <time>2023-06-29T14:50:57.000Z</time>
      </trkpt>
      <trkpt lat="45.84496" lon="4.77627">
        <ele>571.62317</ele>
        <time>2023-06-29T14:50:58.000Z</time>
      </trkpt>
      <trkpt lat="45.84498" lon="4.77626">
        <ele>571.51727</ele>
        <time>2023-06-29T14:50:59.000Z</time>
      </trkpt>
      <trkpt lat="45.845" lon="4.77625">
        <ele>571.39734</ele>
        <time>2023-06-29T14:51:00.000Z</time>
      </trkpt>
      <trkpt lat="45.84502" lon="4.77624">
        <ele>571.27252</ele>
        <time>2023-06-29T14:51:01.000Z</time>
      </trkpt>
      <trkpt lat="45.84504" lon="4.77623">
        <ele>571.14832</ele>
        <time>2023-06-29T14:51:02.000Z</time>
      </trkpt>
      <trkpt lat="45.84507" lon="4.77622">
        <ele>571.00659</ele>
        <time>2023-06-29T14:51:03.000Z</time>
      </trkpt>
      <trkpt lat="45.84509" lon="4.77622">
        <ele>570.85126</ele>
        <time>2023-06-29T14:51:04.000Z</time>
      </trkpt>
      <trkpt lat="45.84511" lon="4.77621">
        <ele>570.95294</ele>
        <time>2023-06-29T14:51:05.000Z</time>
      </trkpt>
      <trkpt lat="45.84513" lon="4.7762">
        <ele>571.15765</ele>
        <time>2023-06-29T14:51:06.000Z</time>
      </trkpt>
      <trkpt lat="45.84517" lon="4.77617">
        <ele>571.48627</ele>
        <time>2023-06-29T14:51:08.000Z</time>
      </trkpt>
      <trkpt lat="45.84519" lon="4.77616">
        <ele>571.79529</ele>
        <time>2023-06-29T14:51:09.000Z</time>
      </trkpt>
      <trkpt lat="45.84521" lon="4.77615">
        <ele>571.83496</ele>
        <time>2023-06-29T14:51:10.000Z</time>
      </trkpt>
      <trkpt lat="45.84523" lon="4.77614">
        <ele>571.84967</ele>
        <time>2023-06-29T14:51:11.000Z</time>
      </trkpt>
      <trkpt lat="45.84525" lon="4.77614">
        <ele>571.92682</ele>
        <time>2023-06-29T14:51:12.000Z</time>
      </trkpt>
      <trkpt lat="45.84527" lon="4.77613">
        <ele>572.1095</ele>
        <time>2023-06-29T14:51:13.000Z</time>
      </trkpt>
      <trkpt lat="45.8453" lon="4.77611">
        <ele>572.31628</ele>
        <time>2023-06-29T14:51:14.000Z</time>
      </trkpt>
      <trkpt lat="45.84532" lon="4.7761">
        <ele>572.39905</ele>
        <time>2023-06-29T14:51:15.000Z</time>
      </trkpt>
      <trkpt lat="45.84534" lon="4.77608">
        <ele>572.48224</ele>
        <time>2023-06-29T14:51:16.000Z</time>
      </trkpt>
      <trkpt lat="45.84536" lon="4.77606">
        <ele>572.58209</ele>
        <time>2023-06-29T14:51:17.000Z</time>
      </trkpt>
      <trkpt lat="45.84537" lon="4.77604">
        <ele>572.89948</ele>
        <time>2023-06-29T14:51:18.000Z</time>
      </trkpt>
      <trkpt lat="45.8454" lon="4.77603">
        <ele>573.17346</ele>
        <time>2023-06-29T14:51:19.000Z</time>
      </trkpt>
      <trkpt lat="45.84543" lon="4.77601">
        <ele>573.53278</ele>
        <time>2023-06-29T14:51:20.000Z</time>
      </trkpt>
      <trkpt lat="45.84544" lon="4.77599">
        <ele>573.84674</ele>
        <time>2023-06-29T14:51:21.000Z</time>
      </trkpt>
      <trkpt lat="45.84546" lon="4.77597">
        <ele>574.16046</ele>
        <time>2023-06-29T14:51:22.000Z</time>
      </trkpt>
      <trkpt lat="45.84548" lon="4.77595">
        <ele>574.47986</ele>
        <time>2023-06-29T14:51:23.000Z</time>
      </trkpt>
      <trkpt lat="45.8455" lon="4.77592">
        <ele>574.80988</ele>
        <time>2023-06-29T14:51:24.000Z</time>
      </trkpt>
      <trkpt lat="45.84553" lon="4.77591">
        <ele>575.15625</ele>
        <time>2023-06-29T14:51:25.000Z</time>
      </trkpt>
      <trkpt lat="45.84555" lon="4.7759">
        <ele>575.4787</ele>
        <time>2023-06-29T14:51:26.000Z</time>
      </trkpt>
      <trkpt lat="45.84557" lon="4.77589">
        <ele>575.83258</ele>
        <time>2023-06-29T14:51:27.000Z</time>
      </trkpt>
      <trkpt lat="45.84559" lon="4.77587">
        <ele>576.11682</ele>
        <time>2023-06-29T14:51:28.000Z</time>
      </trkpt>
      <trkpt lat="45.84561" lon="4.77586">
        <ele>576.37714</ele>
        <time>2023-06-29T14:51:29.000Z</time>
      </trkpt>
      <trkpt lat="45.84563" lon="4.77585">
        <ele>576.62646</ele>
        <time>2023-06-29T14:51:30.000Z</time>
      </trkpt>
      <trkpt lat="45.84565" lon="4.77583">
        <ele>576.84924</ele>
        <time>2023-06-29T14:51:31.000Z</time>
      </trkpt>
      <trkpt lat="45.84567" lon="4.77582">
        <ele>577.00714</ele>
        <time>2023-06-29T14:51:32.000Z</time>
      </trkpt>
      <trkpt lat="45.84569" lon="4.77581">
        <ele>577.10333</ele>
        <time>2023-06-29T14:51:33.000Z</time>
      </trkpt>
      <trkpt lat="45.84571" lon="4.77581">
        <ele>577.08112</ele>
        <time>2023-06-29T14:51:34.000Z</time>
      </trkpt>
      <trkpt lat="45.84573" lon="4.7758">
        <ele>577.40759</ele>
        <time>2023-06-29T14:51:35.000Z</time>
      </trkpt>
      <trkpt lat="45.84576" lon="4.7758">
        <ele>577.66663</ele>
        <time>2023-06-29T14:51:36.000Z</time>
      </trkpt>
      <trkpt lat="45.84578" lon="4.77579">
        <ele>577.92859</ele>
        <time>2023-06-29T14:51:37.000Z</time>
      </trkpt>
      <trkpt lat="45.8458" lon="4.77578">
        <ele>578.18292</ele>
        <time>2023-06-29T14:51:38.000Z</time>
      </trkpt>
      <trkpt lat="45.84582" lon="4.77577">
        <ele>578.4837</ele>
        <time>2023-06-29T14:51:39.000Z</time>
      </trkpt>
      <trkpt lat="45.84584" lon="4.77576">
        <ele>578.78955</ele>
        <time>2023-06-29T14:51:40.000Z</time>
      </trkpt>
      <trkpt lat="45.84586" lon="4.77575">
        <ele>579.13672</ele>
        <time>2023-06-29T14:51:41.000Z</time>
      </trkpt>
      <trkpt lat="45.84588" lon="4.77574">
        <ele>579.46387</ele>
        <time>2023-06-29T14:51:42.000Z</time>
      </trkpt>
      <trkpt lat="45.8459" lon="4.77574">
        <ele>579.78113</ele>
        <time>2023-06-29T14:51:43.000Z</time>
      </trkpt>
      <trkpt lat="45.84593" lon="4.77573">
        <ele>580.0907</ele>
        <time>2023-06-29T14:51:44.000Z</time>
      </trkpt>
      <trkpt lat="45.84595" lon="4.77573">
        <ele>580.40515</ele>
        <time>2023-06-29T14:51:45.000Z</time>
      </trkpt>
      <trkpt lat="45.84597" lon="4.77571">
        <ele>580.73779</ele>
        <time>2023-06-29T14:51:46.000Z</time>
      </trkpt>
      <trkpt lat="45.846" lon="4.7757">
        <ele>581.04517</ele>
        <time>2023-06-29T14:51:47.000Z</time>
      </trkpt>
      <trkpt lat="45.84602" lon="4.77568">
        <ele>581.34351</ele>
        <time>2023-06-29T14:51:48.000Z</time>
      </trkpt>
      <trkpt lat="45.84605" lon="4.77567">
        <ele>581.60596</ele>
        <time>2023-06-29T14:51:49.000Z</time>
      </trkpt>
      <trkpt lat="45.84607" lon="4.77565">
        <ele>581.85266</ele>
        <time>2023-06-29T14:51:50.000Z</time>
      </trkpt>
      <trkpt lat="45.8461" lon="4.77565">
        <ele>582.08862</ele>
        <time>2023-06-29T14:51:51.000Z</time>
      </trkpt>
      <trkpt lat="45.84613" lon="4.77564">
        <ele>582.33606</ele>
        <time>2023-06-29T14:51:52.000Z</time>
      </trkpt>
      <trkpt lat="45.84615" lon="4.77564">
        <ele>582.55847</ele>
        <time>2023-06-29T14:51:53.000Z</time>
      </trkpt>
      <trkpt lat="45.84617" lon="4.77563">
        <ele>582.91589</ele>
        <time>2023-06-29T14:51:54.000Z</time>
      </trkpt>
      <trkpt lat="45.8462" lon="4.77561">
        <ele>583.09308</ele>
        <time>2023-06-29T14:51:55.000Z</time>
      </trkpt>
      <trkpt lat="45.84622" lon="4.7756">
        <ele>583.32465</ele>
        <time>2023-06-29T14:51:56.000Z</time>
      </trkpt>
      <trkpt lat="45.84624" lon="4.77559">
        <ele>583.54883</ele>
        <time>2023-06-29T14:51:57.000Z</time>
      </trkpt>
      <trkpt lat="45.84627" lon="4.77558">
        <ele>583.78931</ele>
        <time>2023-06-29T14:51:58.000Z</time>
      </trkpt>
      <trkpt lat="45.84629" lon="4.77558">
        <ele>584.30042</ele>
        <time>2023-06-29T14:51:59.000Z</time>
      </trkpt>
      <trkpt lat="45.84632" lon="4.77557">
        <ele>584.82343</ele>
        <time>2023-06-29T14:52:00.000Z</time>
      </trkpt>
      <trkpt lat="45.84634" lon="4.77556">
        <ele>585.34467</ele>
        <time>2023-06-29T14:52:01.000Z</time>
      </trkpt>
      <trkpt lat="45.84636" lon="4.77556">
        <ele>585.8913</ele>
        <time>2023-06-29T14:52:02.000Z</time>
      </trkpt>
      <trkpt lat="45.84639" lon="4.77555">
        <ele>586.52802</ele>
        <time>2023-06-29T14:52:03.000Z</time>
      </trkpt>
      <trkpt lat="45.84641" lon="4.77555">
        <ele>587.15753</ele>
        <time>2023-06-29T14:52:04.000Z</time>
      </trkpt>
      <trkpt lat="45.84644" lon="4.77555">
        <ele>587.78357</ele>
        <time>2023-06-29T14:52:05.000Z</time>
      </trkpt>
      <trkpt lat="45.84646" lon="4.77555">
        <ele>588.41943</ele>
        <time>2023-06-29T14:52:06.000Z</time>
      </trkpt>
      <trkpt lat="45.84648" lon="4.77554">
        <ele>589.04816</ele>
        <time>2023-06-29T14:52:07.000Z</time>
      </trkpt>
      <trkpt lat="45.84651" lon="4.77554">
        <ele>589.68097</ele>
        <time>2023-06-29T14:52:08.000Z</time>
      </trkpt>
      <trkpt lat="45.84654" lon="4.77555">
        <ele>590.28564</ele>
        <time>2023-06-29T14:52:09.000Z</time>
      </trkpt>
      <trkpt lat="45.84656" lon="4.77555">
        <ele>590.88531</ele>
        <time>2023-06-29T14:52:10.000Z</time>
      </trkpt>
      <trkpt lat="45.84659" lon="4.77555">
        <ele>591.50104</ele>
        <time>2023-06-29T14:52:11.000Z</time>
      </trkpt>
      <trkpt lat="45.84661" lon="4.77555">
        <ele>592.22449</ele>
        <time>2023-06-29T14:52:12.000Z</time>
      </trkpt>
      <trkpt lat="45.84664" lon="4.77555">
        <ele>592.97705</ele>
        <time>2023-06-29T14:52:13.000Z</time>
      </trkpt>
      <trkpt lat="45.84666" lon="4.77556">
        <ele>593.7428</ele>
        <time>2023-06-29T14:52:14.000Z</time>
      </trkpt>
      <trkpt lat="45.84668" lon="4.77557">
        <ele>594.34082</ele>
        <time>2023-06-29T14:52:15.000Z</time>
      </trkpt>
      <trkpt lat="45.84671" lon="4.77557">
        <ele>594.94025</ele>
        <time>2023-06-29T14:52:16.000Z</time>
      </trkpt>
      <trkpt lat="45.84673" lon="4.77557">
        <ele>595.54211</ele>
        <time>2023-06-29T14:52:17.000Z</time>
      </trkpt>
      <trkpt lat="45.84675" lon="4.77557">
        <ele>596.11865</ele>
        <time>2023-06-29T14:52:18.000Z</time>
      </trkpt>
      <trkpt lat="45.84678" lon="4.77557">
        <ele>596.39642</ele>
        <time>2023-06-29T14:52:19.000Z</time>
      </trkpt>
      <trkpt lat="45.8468" lon="4.77558">
        <ele>596.67102</ele>
        <time>2023-06-29T14:52:20.000Z</time>
      </trkpt>
      <trkpt lat="45.84682" lon="4.77559">
        <ele>596.93512</ele>
        <time>2023-06-29T14:52:21.000Z</time>
      </trkpt>
      <trkpt lat="45.84685" lon="4.77559">
        <ele>596.55603</ele>
        <time>2023-06-29T14:52:23.000Z</time>
      </trkpt>
      <trkpt lat="45.84688" lon="4.77558">
        <ele>596.08136</ele>
        <time>2023-06-29T14:52:25.000Z</time>
      </trkpt>
      <trkpt lat="45.84691" lon="4.7756">
        <ele>595.63586</ele>
        <time>2023-06-29T14:52:27.000Z</time>
      </trkpt>
      <trkpt lat="45.84691" lon="4.77562">
        <ele>595.20911</ele>
        <time>2023-06-29T14:52:42.000Z</time>
      </trkpt>
      <trkpt lat="45.84692" lon="4.77564">
        <ele>594.72107</ele>
        <time>2023-06-29T14:53:49.000Z</time>
      </trkpt>
      <trkpt lat="45.84694" lon="4.77567">
        <ele>594.04315</ele>
        <time>2023-06-29T14:53:51.000Z</time>
      </trkpt>
      <trkpt lat="45.84697" lon="4.77571">
        <ele>593.37</ele>
        <time>2023-06-29T14:53:53.000Z</time>
      </trkpt>
      <trkpt lat="45.84699" lon="4.77573">
        <ele>592.72894</ele>
        <time>2023-06-29T14:53:54.000Z</time>
      </trkpt>
      <trkpt lat="45.84701" lon="4.77575">
        <ele>592.07214</ele>
        <time>2023-06-29T14:53:55.000Z</time>
      </trkpt>
      <trkpt lat="45.84704" lon="4.77578">
        <ele>591.40222</ele>
        <time>2023-06-29T14:53:56.000Z</time>
      </trkpt>
      <trkpt lat="45.84706" lon="4.77581">
        <ele>590.61646</ele>
        <time>2023-06-29T14:53:57.000Z</time>
      </trkpt>
      <trkpt lat="45.84709" lon="4.77585">
        <ele>589.73254</ele>
        <time>2023-06-29T14:53:58.000Z</time>
      </trkpt>
      <trkpt lat="45.84711" lon="4.77588">
        <ele>588.77356</ele>
        <time>2023-06-29T14:53:59.000Z</time>
      </trkpt>
      <trkpt lat="45.84713" lon="4.77592">
        <ele>588.18536</ele>
        <time>2023-06-29T14:54:00.000Z</time>
      </trkpt>
      <trkpt lat="45.84716" lon="4.77595">
        <ele>587.53864</ele>
        <time>2023-06-29T14:54:01.000Z</time>
      </trkpt>
      <trkpt lat="45.84718" lon="4.77598">
        <ele>586.85852</ele>
        <time>2023-06-29T14:54:02.000Z</time>
      </trkpt>
      <trkpt lat="45.8472" lon="4.776">
        <ele>586.19867</ele>
        <time>2023-06-29T14:54:03.000Z</time>
      </trkpt>
      <trkpt lat="45.84722" lon="4.77601">
        <ele>585.54401</ele>
        <time>2023-06-29T14:54:04.000Z</time>
      </trkpt>
      <trkpt lat="45.84724" lon="4.77603">
        <ele>584.87634</ele>
        <time>2023-06-29T14:54:05.000Z</time>
      </trkpt>
      <trkpt lat="45.84727" lon="4.77605">
        <ele>584.20142</ele>
        <time>2023-06-29T14:54:06.000Z</time>
      </trkpt>
      <trkpt lat="45.84729" lon="4.77606">
        <ele>584.14075</ele>
        <time>2023-06-29T14:54:07.000Z</time>
      </trkpt>
      <trkpt lat="45.84732" lon="4.77608">
        <ele>584.50305</ele>
        <time>2023-06-29T14:54:08.000Z</time>
      </trkpt>
      <trkpt lat="45.84734" lon="4.77609">
        <ele>584.85071</ele>
        <time>2023-06-29T14:54:09.000Z</time>
      </trkpt>
      <trkpt lat="45.84737" lon="4.7761">
        <ele>585.18042</ele>
        <time>2023-06-29T14:54:10.000Z</time>
      </trkpt>
      <trkpt lat="45.8474" lon="4.77611">
        <ele>585.56671</ele>
        <time>2023-06-29T14:54:11.000Z</time>
      </trkpt>
      <trkpt lat="45.84743" lon="4.77612">
        <ele>586.12585</ele>
        <time>2023-06-29T14:54:12.000Z</time>
      </trkpt>
      <trkpt lat="45.84746" lon="4.77613">
        <ele>586.68463</ele>
        <time>2023-06-29T14:54:13.000Z</time>
      </trkpt>
      <trkpt lat="45.84749" lon="4.77615">
        <ele>587.27014</ele>
        <time>2023-06-29T14:54:14.000Z</time>
      </trkpt>
      <trkpt lat="45.84752" lon="4.77617">
        <ele>587.84247</ele>
        <time>2023-06-29T14:54:15.000Z</time>
      </trkpt>
      <trkpt lat="45.84755" lon="4.77619">
        <ele>588.42914</ele>
        <time>2023-06-29T14:54:16.000Z</time>
      </trkpt>
      <trkpt lat="45.84758" lon="4.7762">
        <ele>589.03247</ele>
        <time>2023-06-29T14:54:17.000Z</time>
      </trkpt>
      <trkpt lat="45.84761" lon="4.77621">
        <ele>589.66376</ele>
        <time>2023-06-29T14:54:18.000Z</time>
      </trkpt>
      <trkpt lat="45.84764" lon="4.77622">
        <ele>590.45129</ele>
        <time>2023-06-29T14:54:19.000Z</time>
      </trkpt>
      <trkpt lat="45.84768" lon="4.77623">
        <ele>590.83832</ele>
        <time>2023-06-29T14:54:20.000Z</time>
      </trkpt>
      <trkpt lat="45.84771" lon="4.77623">
        <ele>591.28552</ele>
        <time>2023-06-29T14:54:21.000Z</time>
      </trkpt>
      <trkpt lat="45.84774" lon="4.77622">
        <ele>591.76984</ele>
        <time>2023-06-29T14:54:22.000Z</time>
      </trkpt>
      <trkpt lat="45.84776" lon="4.77622">
        <ele>592.2439</ele>
        <time>2023-06-29T14:54:23.000Z</time>
      </trkpt>
      <trkpt lat="45.84779" lon="4.77621">
        <ele>592.71643</ele>
        <time>2023-06-29T14:54:24.000Z</time>
      </trkpt>
      <trkpt lat="45.84782" lon="4.7762">
        <ele>593.17419</ele>
        <time>2023-06-29T14:54:25.000Z</time>
      </trkpt>
      <trkpt lat="45.84785" lon="4.7762">
        <ele>593.75281</ele>
        <time>2023-06-29T14:54:26.000Z</time>
      </trkpt>
      <trkpt lat="45.84788" lon="4.7762">
        <ele>594.30017</ele>
        <time>2023-06-29T14:54:27.000Z</time>
      </trkpt>
      <trkpt lat="45.8479" lon="4.7762">
        <ele>594.42761</ele>
        <time>2023-06-29T14:54:28.000Z</time>
      </trkpt>
      <trkpt lat="45.84794" lon="4.7762">
        <ele>594.53802</ele>
        <time>2023-06-29T14:54:29.000Z</time>
      </trkpt>
      <trkpt lat="45.84797" lon="4.77621">
        <ele>594.65363</ele>
        <time>2023-06-29T14:54:30.000Z</time>
      </trkpt>
      <trkpt lat="45.84801" lon="4.77621">
        <ele>594.74872</ele>
        <time>2023-06-29T14:54:31.000Z</time>
      </trkpt>
      <trkpt lat="45.84804" lon="4.77621">
        <ele>594.86224</ele>
        <time>2023-06-29T14:54:32.000Z</time>
      </trkpt>
      <trkpt lat="45.84808" lon="4.77621">
        <ele>594.98291</ele>
        <time>2023-06-29T14:54:33.000Z</time>
      </trkpt>
      <trkpt lat="45.84811" lon="4.7762">
        <ele>595.11444</ele>
        <time>2023-06-29T14:54:34.000Z</time>
      </trkpt>
      <trkpt lat="45.84814" lon="4.7762">
        <ele>595.31641</ele>
        <time>2023-06-29T14:54:35.000Z</time>
      </trkpt>
      <trkpt lat="45.84818" lon="4.7762">
        <ele>595.52673</ele>
        <time>2023-06-29T14:54:36.000Z</time>
      </trkpt>
      <trkpt lat="45.84821" lon="4.7762">
        <ele>595.72607</ele>
        <time>2023-06-29T14:54:37.000Z</time>
      </trkpt>
      <trkpt lat="45.84823" lon="4.77619">
        <ele>595.99335</ele>
        <time>2023-06-29T14:54:38.000Z</time>
      </trkpt>
      <trkpt lat="45.84826" lon="4.77619">
        <ele>596.18469</ele>
        <time>2023-06-29T14:54:39.000Z</time>
      </trkpt>
      <trkpt lat="45.84829" lon="4.77618">
        <ele>596.39697</ele>
        <time>2023-06-29T14:54:40.000Z</time>
      </trkpt>
      <trkpt lat="45.84832" lon="4.77617">
        <ele>596.61963</ele>
        <time>2023-06-29T14:54:41.000Z</time>
      </trkpt>
      <trkpt lat="45.84835" lon="4.77617">
        <ele>596.79773</ele>
        <time>2023-06-29T14:54:42.000Z</time>
      </trkpt>
      <trkpt lat="45.84838" lon="4.77617">
        <ele>597.00549</ele>
        <time>2023-06-29T14:54:43.000Z</time>
      </trkpt>
      <trkpt lat="45.84841" lon="4.77617">
        <ele>597.21564</ele>
        <time>2023-06-29T14:54:44.000Z</time>
      </trkpt>
      <trkpt lat="45.84844" lon="4.77616">
        <ele>597.46069</ele>
        <time>2023-06-29T14:54:45.000Z</time>
      </trkpt>
      <trkpt lat="45.84846" lon="4.77615">
        <ele>597.61414</ele>
        <time>2023-06-29T14:54:46.000Z</time>
      </trkpt>
      <trkpt lat="45.84849" lon="4.77615">
        <ele>597.77063</ele>
        <time>2023-06-29T14:54:47.000Z</time>
      </trkpt>
      <trkpt lat="45.84852" lon="4.77615">
        <ele>597.98016</ele>
        <time>2023-06-29T14:54:48.000Z</time>
      </trkpt>
      <trkpt lat="45.84854" lon="4.77615">
        <ele>598.19312</ele>
        <time>2023-06-29T14:54:49.000Z</time>
      </trkpt>
      <trkpt lat="45.84857" lon="4.77614">
        <ele>598.42932</ele>
        <time>2023-06-29T14:54:50.000Z</time>
      </trkpt>
      <trkpt lat="45.8486" lon="4.77614">
        <ele>598.68152</ele>
        <time>2023-06-29T14:54:51.000Z</time>
      </trkpt>
      <trkpt lat="45.84863" lon="4.77614">
        <ele>598.93115</ele>
        <time>2023-06-29T14:54:52.000Z</time>
      </trkpt>
      <trkpt lat="45.84866" lon="4.77614">
        <ele>599.19983</ele>
        <time>2023-06-29T14:54:53.000Z</time>
      </trkpt>
      <trkpt lat="45.84868" lon="4.77614">
        <ele>599.42188</ele>
        <time>2023-06-29T14:54:54.000Z</time>
      </trkpt>
      <trkpt lat="45.8487" lon="4.77614">
        <ele>599.60431</ele>
        <time>2023-06-29T14:54:55.000Z</time>
      </trkpt>
      <trkpt lat="45.84873" lon="4.77614">
        <ele>599.74835</ele>
        <time>2023-06-29T14:54:56.000Z</time>
      </trkpt>
      <trkpt lat="45.84876" lon="4.77614">
        <ele>599.79272</ele>
        <time>2023-06-29T14:54:57.000Z</time>
      </trkpt>
      <trkpt lat="45.84878" lon="4.77614">
        <ele>599.87061</ele>
        <time>2023-06-29T14:54:58.000Z</time>
      </trkpt>
      <trkpt lat="45.84881" lon="4.77613">
        <ele>599.9035</ele>
        <time>2023-06-29T14:54:59.000Z</time>
      </trkpt>
      <trkpt lat="45.84883" lon="4.77613">
        <ele>599.93225</ele>
        <time>2023-06-29T14:55:00.000Z</time>
      </trkpt>
      <trkpt lat="45.84886" lon="4.77613">
        <ele>599.98633</ele>
        <time>2023-06-29T14:55:01.000Z</time>
      </trkpt>
      <trkpt lat="45.84889" lon="4.77612">
        <ele>600.09052</ele>
        <time>2023-06-29T14:55:02.000Z</time>
      </trkpt>
      <trkpt lat="45.84892" lon="4.77612">
        <ele>600.16241</ele>
        <time>2023-06-29T14:55:03.000Z</time>
      </trkpt>
      <trkpt lat="45.84895" lon="4.77613">
        <ele>600.22168</ele>
        <time>2023-06-29T14:55:04.000Z</time>
      </trkpt>
      <trkpt lat="45.84898" lon="4.77613">
        <ele>600.13757</ele>
        <time>2023-06-29T14:55:05.000Z</time>
      </trkpt>
      <trkpt lat="45.84901" lon="4.77613">
        <ele>600.04395</ele>
        <time>2023-06-29T14:55:06.000Z</time>
      </trkpt>
      <trkpt lat="45.84903" lon="4.77612">
        <ele>600.09943</ele>
        <time>2023-06-29T14:55:07.000Z</time>
      </trkpt>
      <trkpt lat="45.84905" lon="4.77612">
        <ele>600.08197</ele>
        <time>2023-06-29T14:55:08.000Z</time>
      </trkpt>
      <trkpt lat="45.84908" lon="4.77611">
        <ele>600.06921</ele>
        <time>2023-06-29T14:55:09.000Z</time>
      </trkpt>
      <trkpt lat="45.8491" lon="4.77611">
        <ele>600.02118</ele>
        <time>2023-06-29T14:55:10.000Z</time>
      </trkpt>
      <trkpt lat="45.84914" lon="4.77612">
        <ele>599.9118</ele>
        <time>2023-06-29T14:55:11.000Z</time>
      </trkpt>
      <trkpt lat="45.84917" lon="4.77612">
        <ele>599.80396</ele>
        <time>2023-06-29T14:55:12.000Z</time>
      </trkpt>
      <trkpt lat="45.8492" lon="4.77613">
        <ele>599.66028</ele>
        <time>2023-06-29T14:55:13.000Z</time>
      </trkpt>
      <trkpt lat="45.84922" lon="4.77613">
        <ele>599.58289</ele>
        <time>2023-06-29T14:55:14.000Z</time>
      </trkpt>
      <trkpt lat="45.84924" lon="4.77613">
        <ele>599.50891</ele>
        <time>2023-06-29T14:55:15.000Z</time>
      </trkpt>
      <trkpt lat="45.84928" lon="4.77613">
        <ele>599.42987</ele>
        <time>2023-06-29T14:55:16.000Z</time>
      </trkpt>
      <trkpt lat="45.84932" lon="4.77613">
        <ele>599.43341</ele>
        <time>2023-06-29T14:55:17.000Z</time>
      </trkpt>
      <trkpt lat="45.84935" lon="4.77614">
        <ele>599.41541</ele>
        <time>2023-06-29T14:55:18.000Z</time>
      </trkpt>
      <trkpt lat="45.84939" lon="4.77614">
        <ele>599.40979</ele>
        <time>2023-06-29T14:55:19.000Z</time>
      </trkpt>
      <trkpt lat="45.84942" lon="4.77614">
        <ele>599.39978</ele>
        <time>2023-06-29T14:55:20.000Z</time>
      </trkpt>
      <trkpt lat="45.84946" lon="4.77615">
        <ele>599.34351</ele>
        <time>2023-06-29T14:55:21.000Z</time>
      </trkpt>
      <trkpt lat="45.8495" lon="4.77616">
        <ele>599.25305</ele>
        <time>2023-06-29T14:55:22.000Z</time>
      </trkpt>
      <trkpt lat="45.84953" lon="4.77617">
        <ele>599.17126</ele>
        <time>2023-06-29T14:55:23.000Z</time>
      </trkpt>
      <trkpt lat="45.84956" lon="4.77617">
        <ele>599.08545</ele>
        <time>2023-06-29T14:55:24.000Z</time>
      </trkpt>
      <trkpt lat="45.84959" lon="4.77618">
        <ele>599.09375</ele>
        <time>2023-06-29T14:55:25.000Z</time>
      </trkpt>
      <trkpt lat="45.84963" lon="4.77619">
        <ele>599.18066</ele>
        <time>2023-06-29T14:55:26.000Z</time>
      </trkpt>
      <trkpt lat="45.84966" lon="4.77619">
        <ele>599.11249</ele>
        <time>2023-06-29T14:55:27.000Z</time>
      </trkpt>
      <trkpt lat="45.84969" lon="4.77619">
        <ele>599.05164</ele>
        <time>2023-06-29T14:55:28.000Z</time>
      </trkpt>
      <trkpt lat="45.84973" lon="4.77619">
        <ele>599.06952</ele>
        <time>2023-06-29T14:55:29.000Z</time>
      </trkpt>
      <trkpt lat="45.84976" lon="4.77619">
        <ele>599.09412</ele>
        <time>2023-06-29T14:55:30.000Z</time>
      </trkpt>
      <trkpt lat="45.8498" lon="4.7762">
        <ele>599.15247</ele>
        <time>2023-06-29T14:55:31.000Z</time>
      </trkpt>
      <trkpt lat="45.84984" lon="4.77621">
        <ele>599.2356</ele>
        <time>2023-06-29T14:55:32.000Z</time>
      </trkpt>
      <trkpt lat="45.84988" lon="4.77622">
        <ele>599.34747</ele>
        <time>2023-06-29T14:55:33.000Z</time>
      </trkpt>
      <trkpt lat="45.84991" lon="4.77623">
        <ele>599.4071</ele>
        <time>2023-06-29T14:55:34.000Z</time>
      </trkpt>
      <trkpt lat="45.84995" lon="4.77624">
        <ele>599.49506</ele>
        <time>2023-06-29T14:55:35.000Z</time>
      </trkpt>
      <trkpt lat="45.84999" lon="4.77626">
        <ele>599.57483</ele>
        <time>2023-06-29T14:55:36.000Z</time>
      </trkpt>
      <trkpt lat="45.85002" lon="4.77627">
        <ele>599.6825</ele>
        <time>2023-06-29T14:55:37.000Z</time>
      </trkpt>
      <trkpt lat="45.85005" lon="4.77628">
        <ele>599.77814</ele>
        <time>2023-06-29T14:55:38.000Z</time>
      </trkpt>
      <trkpt lat="45.85009" lon="4.77629">
        <ele>599.90051</ele>
        <time>2023-06-29T14:55:39.000Z</time>
      </trkpt>
      <trkpt lat="45.85013" lon="4.77629">
        <ele>600.02075</ele>
        <time>2023-06-29T14:55:40.000Z</time>
      </trkpt>
      <trkpt lat="45.85017" lon="4.7763">
        <ele>600.17139</ele>
        <time>2023-06-29T14:55:41.000Z</time>
      </trkpt>
      <trkpt lat="45.85021" lon="4.77632">
        <ele>600.28668</ele>
        <time>2023-06-29T14:55:42.000Z</time>
      </trkpt>
      <trkpt lat="45.85025" lon="4.77633">
        <ele>600.41321</ele>
        <time>2023-06-29T14:55:43.000Z</time>
      </trkpt>
      <trkpt lat="45.85028" lon="4.77635">
        <ele>600.33728</ele>
        <time>2023-06-29T14:55:44.000Z</time>
      </trkpt>
      <trkpt lat="45.85032" lon="4.77636">
        <ele>600.27197</ele>
        <time>2023-06-29T14:55:45.000Z</time>
      </trkpt>
      <trkpt lat="45.85036" lon="4.77638">
        <ele>600.11493</ele>
        <time>2023-06-29T14:55:46.000Z</time>
      </trkpt>
      <trkpt lat="45.8504" lon="4.7764">
        <ele>600.24121</ele>
        <time>2023-06-29T14:55:47.000Z</time>
      </trkpt>
      <trkpt lat="45.85043" lon="4.77642">
        <ele>600.41699</ele>
        <time>2023-06-29T14:55:48.000Z</time>
      </trkpt>
      <trkpt lat="45.85046" lon="4.77645">
        <ele>600.49823</ele>
        <time>2023-06-29T14:55:49.000Z</time>
      </trkpt>
      <trkpt lat="45.85049" lon="4.77649">
        <ele>600.55762</ele>
        <time>2023-06-29T14:55:50.000Z</time>
      </trkpt>
      <trkpt lat="45.85052" lon="4.77652">
        <ele>600.67596</ele>
        <time>2023-06-29T14:55:51.000Z</time>
      </trkpt>
      <trkpt lat="45.85055" lon="4.77655">
        <ele>600.78809</ele>
        <time>2023-06-29T14:55:52.000Z</time>
      </trkpt>
      <trkpt lat="45.85057" lon="4.77657">
        <ele>600.9502</ele>
        <time>2023-06-29T14:55:53.000Z</time>
      </trkpt>
      <trkpt lat="45.85059" lon="4.7766">
        <ele>601.13953</ele>
        <time>2023-06-29T14:55:54.000Z</time>
      </trkpt>
      <trkpt lat="45.8506" lon="4.77663">
        <ele>601.3136</ele>
        <time>2023-06-29T14:55:55.000Z</time>
      </trkpt>
      <trkpt lat="45.85062" lon="4.77667">
        <ele>601.62488</ele>
        <time>2023-06-29T14:55:56.000Z</time>
      </trkpt>
      <trkpt lat="45.85064" lon="4.7767">
        <ele>601.95361</ele>
        <time>2023-06-29T14:55:57.000Z</time>
      </trkpt>
      <trkpt lat="45.85066" lon="4.77673">
        <ele>602.26331</ele>
        <time>2023-06-29T14:55:58.000Z</time>
      </trkpt>
      <trkpt lat="45.85068" lon="4.77676">
        <ele>602.54669</ele>
        <time>2023-06-29T14:55:59.000Z</time>
      </trkpt>
      <trkpt lat="45.8507" lon="4.77681">
        <ele>602.83557</ele>
        <time>2023-06-29T14:56:00.000Z</time>
      </trkpt>
      <trkpt lat="45.85071" lon="4.77685">
        <ele>603.12598</ele>
        <time>2023-06-29T14:56:01.000Z</time>
      </trkpt>
      <trkpt lat="45.85073" lon="4.77688">
        <ele>603.46979</ele>
        <time>2023-06-29T14:56:02.000Z</time>
      </trkpt>
      <trkpt lat="45.85074" lon="4.77691">
        <ele>603.80042</ele>
        <time>2023-06-29T14:56:03.000Z</time>
      </trkpt>
      <trkpt lat="45.85075" lon="4.77694">
        <ele>604.34094</ele>
        <time>2023-06-29T14:56:04.000Z</time>
      </trkpt>
      <trkpt lat="45.85077" lon="4.77699">
        <ele>604.90863</ele>
        <time>2023-06-29T14:56:05.000Z</time>
      </trkpt>
      <trkpt lat="45.85079" lon="4.77703">
        <ele>605.53845</ele>
        <time>2023-06-29T14:56:06.000Z</time>
      </trkpt>
      <trkpt lat="45.85081" lon="4.77707">
        <ele>605.91193</ele>
        <time>2023-06-29T14:56:07.000Z</time>
      </trkpt>
      <trkpt lat="45.85083" lon="4.77711">
        <ele>606.24988</ele>
        <time>2023-06-29T14:56:08.000Z</time>
      </trkpt>
      <trkpt lat="45.85085" lon="4.77714">
        <ele>606.64832</ele>
        <time>2023-06-29T14:56:09.000Z</time>
      </trkpt>
      <trkpt lat="45.85087" lon="4.77718">
        <ele>607.07489</ele>
        <time>2023-06-29T14:56:10.000Z</time>
      </trkpt>
      <trkpt lat="45.85089" lon="4.77723">
        <ele>607.45239</ele>
        <time>2023-06-29T14:56:11.000Z</time>
      </trkpt>
      <trkpt lat="45.8509" lon="4.77727">
        <ele>607.81329</ele>
        <time>2023-06-29T14:56:12.000Z</time>
      </trkpt>
      <trkpt lat="45.85091" lon="4.77731">
        <ele>608.12042</ele>
        <time>2023-06-29T14:56:13.000Z</time>
      </trkpt>
      <trkpt lat="45.85093" lon="4.77735">
        <ele>608.44568</ele>
        <time>2023-06-29T14:56:14.000Z</time>
      </trkpt>
      <trkpt lat="45.85094" lon="4.77739">
        <ele>608.76904</ele>
        <time>2023-06-29T14:56:15.000Z</time>
      </trkpt>
      <trkpt lat="45.85095" lon="4.77744">
        <ele>609.00427</ele>
        <time>2023-06-29T14:56:16.000Z</time>
      </trkpt>
      <trkpt lat="45.85096" lon="4.77747">
        <ele>609.21008</ele>
        <time>2023-06-29T14:56:17.000Z</time>
      </trkpt>
      <trkpt lat="45.85098" lon="4.7775">
        <ele>609.43024</ele>
        <time>2023-06-29T14:56:18.000Z</time>
      </trkpt>
      <trkpt lat="45.85099" lon="4.77754">
        <ele>609.67761</ele>
        <time>2023-06-29T14:56:19.000Z</time>
      </trkpt>
      <trkpt lat="45.851" lon="4.77759">
        <ele>609.92151</ele>
        <time>2023-06-29T14:56:20.000Z</time>
      </trkpt>
      <trkpt lat="45.85102" lon="4.77763">
        <ele>610.19</ele>
        <time>2023-06-29T14:56:21.000Z</time>
      </trkpt>
      <trkpt lat="45.85102" lon="4.77767">
        <ele>610.48529</ele>
        <time>2023-06-29T14:56:22.000Z</time>
      </trkpt>
      <trkpt lat="45.85103" lon="4.77772">
        <ele>610.7746</ele>
        <time>2023-06-29T14:56:23.000Z</time>
      </trkpt>
      <trkpt lat="45.85104" lon="4.77778">
        <ele>611.0827</ele>
        <time>2023-06-29T14:56:24.000Z</time>
      </trkpt>
      <trkpt lat="45.85104" lon="4.77783">
        <ele>611.38916</ele>
        <time>2023-06-29T14:56:25.000Z</time>
      </trkpt>
      <trkpt lat="45.85105" lon="4.77787">
        <ele>611.61212</ele>
        <time>2023-06-29T14:56:26.000Z</time>
      </trkpt>
      <trkpt lat="45.85105" lon="4.77792">
        <ele>611.99011</ele>
        <time>2023-06-29T14:56:27.000Z</time>
      </trkpt>
      <trkpt lat="45.85106" lon="4.77796">
        <ele>612.349</ele>
        <time>2023-06-29T14:56:28.000Z</time>
      </trkpt>
      <trkpt lat="45.85106" lon="4.778">
        <ele>612.64465</ele>
        <time>2023-06-29T14:56:29.000Z</time>
      </trkpt>
      <trkpt lat="45.85106" lon="4.77804">
        <ele>612.96399</ele>
        <time>2023-06-29T14:56:30.000Z</time>
      </trkpt>
      <trkpt lat="45.85106" lon="4.77807">
        <ele>613.3092</ele>
        <time>2023-06-29T14:56:31.000Z</time>
      </trkpt>
      <trkpt lat="45.85106" lon="4.77811">
        <ele>613.66248</ele>
        <time>2023-06-29T14:56:32.000Z</time>
      </trkpt>
      <trkpt lat="45.85106" lon="4.77816">
        <ele>614.02905</ele>
        <time>2023-06-29T14:56:33.000Z</time>
      </trkpt>
      <trkpt lat="45.85105" lon="4.77821">
        <ele>614.36829</ele>
        <time>2023-06-29T14:56:34.000Z</time>
      </trkpt>
      <trkpt lat="45.85105" lon="4.77828">
        <ele>614.67267</ele>
        <time>2023-06-29T14:56:35.000Z</time>
      </trkpt>
      <trkpt lat="45.85105" lon="4.77833">
        <ele>614.66272</ele>
        <time>2023-06-29T14:56:36.000Z</time>
      </trkpt>
      <trkpt lat="45.85105" lon="4.77838">
        <ele>614.72382</ele>
        <time>2023-06-29T14:56:37.000Z</time>
      </trkpt>
      <trkpt lat="45.85105" lon="4.77844">
        <ele>614.89325</ele>
        <time>2023-06-29T14:56:38.000Z</time>
      </trkpt>
      <trkpt lat="45.85104" lon="4.7785">
        <ele>615.06812</ele>
        <time>2023-06-29T14:56:39.000Z</time>
      </trkpt>
      <trkpt lat="45.85103" lon="4.77854">
        <ele>615.28247</ele>
        <time>2023-06-29T14:56:40.000Z</time>
      </trkpt>
      <trkpt lat="45.85102" lon="4.77858">
        <ele>615.49915</ele>
        <time>2023-06-29T14:56:41.000Z</time>
      </trkpt>
      <trkpt lat="45.851" lon="4.77862">
        <ele>615.66864</ele>
        <time>2023-06-29T14:56:42.000Z</time>
      </trkpt>
      <trkpt lat="45.85099" lon="4.77866">
        <ele>615.8302</ele>
        <time>2023-06-29T14:56:43.000Z</time>
      </trkpt>
      <trkpt lat="45.85097" lon="4.7787">
        <ele>616.00647</ele>
        <time>2023-06-29T14:56:44.000Z</time>
      </trkpt>
      <trkpt lat="45.85096" lon="4.77873">
        <ele>616.19202</ele>
        <time>2023-06-29T14:56:45.000Z</time>
      </trkpt>
      <trkpt lat="45.85096" lon="4.77877">
        <ele>616.37109</ele>
        <time>2023-06-29T14:56:46.000Z</time>
      </trkpt>
      <trkpt lat="45.85096" lon="4.77881">
        <ele>616.42072</ele>
        <time>2023-06-29T14:56:47.000Z</time>
      </trkpt>
      <trkpt lat="45.85098" lon="4.77885">
        <ele>616.5719</ele>
        <time>2023-06-29T14:56:48.000Z</time>
      </trkpt>
      <trkpt lat="45.851" lon="4.7789">
        <ele>616.75366</ele>
        <time>2023-06-29T14:56:49.000Z</time>
      </trkpt>
      <trkpt lat="45.85102" lon="4.77894">
        <ele>617.01465</ele>
        <time>2023-06-29T14:56:50.000Z</time>
      </trkpt>
      <trkpt lat="45.85105" lon="4.77898">
        <ele>617.27087</ele>
        <time>2023-06-29T14:56:51.000Z</time>
      </trkpt>
      <trkpt lat="45.85107" lon="4.77903">
        <ele>617.52087</ele>
        <time>2023-06-29T14:56:52.000Z</time>
      </trkpt>
      <trkpt lat="45.85108" lon="4.77907">
        <ele>617.73108</ele>
        <time>2023-06-29T14:56:53.000Z</time>
      </trkpt>
      <trkpt lat="45.8511" lon="4.77912">
        <ele>617.87842</ele>
        <time>2023-06-29T14:56:54.000Z</time>
      </trkpt>
      <trkpt lat="45.85113" lon="4.77918">
        <ele>618.09064</ele>
        <time>2023-06-29T14:56:55.000Z</time>
      </trkpt>
      <trkpt lat="45.85116" lon="4.77924">
        <ele>618.59296</ele>
        <time>2023-06-29T14:56:56.000Z</time>
      </trkpt>
      <trkpt lat="45.85119" lon="4.77931">
        <ele>618.98853</ele>
        <time>2023-06-29T14:56:57.000Z</time>
      </trkpt>
      <trkpt lat="45.85122" lon="4.77939">
        <ele>619.2702</ele>
        <time>2023-06-29T14:56:58.000Z</time>
      </trkpt>
      <trkpt lat="45.85124" lon="4.77949">
        <ele>619.51917</ele>
        <time>2023-06-29T14:56:59.000Z</time>
      </trkpt>
      <trkpt lat="45.85126" lon="4.7796">
        <ele>619.72009</ele>
        <time>2023-06-29T14:57:00.000Z</time>
      </trkpt>
      <trkpt lat="45.85127" lon="4.7797">
        <ele>619.8963</ele>
        <time>2023-06-29T14:57:01.000Z</time>
      </trkpt>
      <trkpt lat="45.85128" lon="4.7798">
        <ele>620.03693</ele>
        <time>2023-06-29T14:57:02.000Z</time>
      </trkpt>
      <trkpt lat="45.85129" lon="4.77989">
        <ele>620.20221</ele>
        <time>2023-06-29T14:57:03.000Z</time>
      </trkpt>
      <trkpt lat="45.85136" lon="4.78006">
        <ele>620.30823</ele>
        <time>2023-06-29T14:57:04.000Z</time>
      </trkpt>
      <trkpt lat="45.85137" lon="4.78014">
        <ele>620.39539</ele>
        <time>2023-06-29T14:57:05.000Z</time>
      </trkpt>
      <trkpt lat="45.85138" lon="4.78023">
        <ele>620.46881</ele>
        <time>2023-06-29T14:57:06.000Z</time>
      </trkpt>
      <trkpt lat="45.8514" lon="4.78029">
        <ele>620.50647</ele>
        <time>2023-06-29T14:57:07.000Z</time>
      </trkpt>
      <trkpt lat="45.85143" lon="4.78036">
        <ele>620.35925</ele>
        <time>2023-06-29T14:57:08.000Z</time>
      </trkpt>
      <trkpt lat="45.85147" lon="4.78043">
        <ele>620.19421</ele>
        <time>2023-06-29T14:57:09.000Z</time>
      </trkpt>
      <trkpt lat="45.85148" lon="4.7805">
        <ele>619.89368</ele>
        <time>2023-06-29T14:57:10.000Z</time>
      </trkpt>
      <trkpt lat="45.85151" lon="4.78059">
        <ele>619.61047</ele>
        <time>2023-06-29T14:57:11.000Z</time>
      </trkpt>
      <trkpt lat="45.85156" lon="4.78071">
        <ele>619.25879</ele>
        <time>2023-06-29T14:57:12.000Z</time>
      </trkpt>
      <trkpt lat="45.8516" lon="4.7808">
        <ele>618.95471</ele>
        <time>2023-06-29T14:57:13.000Z</time>
      </trkpt>
      <trkpt lat="45.85163" lon="4.78089">
        <ele>618.70056</ele>
        <time>2023-06-29T14:57:14.000Z</time>
      </trkpt>
      <trkpt lat="45.85169" lon="4.781">
        <ele>618.40076</ele>
        <time>2023-06-29T14:57:15.000Z</time>
      </trkpt>
      <trkpt lat="45.85173" lon="4.7811">
        <ele>618.09052</ele>
        <time>2023-06-29T14:57:16.000Z</time>
      </trkpt>
      <trkpt lat="45.8518" lon="4.78119">
        <ele>617.87</ele>
        <time>2023-06-29T14:57:17.000Z</time>
      </trkpt>
      <trkpt lat="45.85183" lon="4.78126">
        <ele>617.63934</ele>
        <time>2023-06-29T14:57:18.000Z</time>
      </trkpt>
      <trkpt lat="45.85188" lon="4.78135">
        <ele>617.4234</ele>
        <time>2023-06-29T14:57:19.000Z</time>
      </trkpt>
      <trkpt lat="45.85192" lon="4.78143">
        <ele>617.18231</ele>
        <time>2023-06-29T14:57:20.000Z</time>
      </trkpt>
      <trkpt lat="45.85195" lon="4.78149">
        <ele>616.89722</ele>
        <time>2023-06-29T14:57:21.000Z</time>
      </trkpt>
      <trkpt lat="45.852" lon="4.78157">
        <ele>616.67487</ele>
        <time>2023-06-29T14:57:22.000Z</time>
      </trkpt>
      <trkpt lat="45.85206" lon="4.78167">
        <ele>616.36853</ele>
        <time>2023-06-29T14:57:23.000Z</time>
      </trkpt>
      <trkpt lat="45.85212" lon="4.78175">
        <ele>616.19666</ele>
        <time>2023-06-29T14:57:24.000Z</time>
      </trkpt>
      <trkpt lat="45.85219" lon="4.78186">
        <ele>616.00012</ele>
        <time>2023-06-29T14:57:25.000Z</time>
      </trkpt>
      <trkpt lat="45.85224" lon="4.78193">
        <ele>615.67755</ele>
        <time>2023-06-29T14:57:26.000Z</time>
      </trkpt>
      <trkpt lat="45.85228" lon="4.78201">
        <ele>615.35809</ele>
        <time>2023-06-29T14:57:27.000Z</time>
      </trkpt>
      <trkpt lat="45.85234" lon="4.78209">
        <ele>615.1601</ele>
        <time>2023-06-29T14:57:28.000Z</time>
      </trkpt>
      <trkpt lat="45.8524" lon="4.78217">
        <ele>614.98816</ele>
        <time>2023-06-29T14:57:29.000Z</time>
      </trkpt>
      <trkpt lat="45.85245" lon="4.78225">
        <ele>614.94043</ele>
        <time>2023-06-29T14:57:30.000Z</time>
      </trkpt>
      <trkpt lat="45.85249" lon="4.78232">
        <ele>614.89752</ele>
        <time>2023-06-29T14:57:31.000Z</time>
      </trkpt>
      <trkpt lat="45.85255" lon="4.78239">
        <ele>614.89771</ele>
        <time>2023-06-29T14:57:32.000Z</time>
      </trkpt>
      <trkpt lat="45.85259" lon="4.78246">
        <ele>614.85345</ele>
        <time>2023-06-29T14:57:33.000Z</time>
      </trkpt>
      <trkpt lat="45.85264" lon="4.78252">
        <ele>614.83826</ele>
        <time>2023-06-29T14:57:34.000Z</time>
      </trkpt>
      <trkpt lat="45.85268" lon="4.78258">
        <ele>614.82269</ele>
        <time>2023-06-29T14:57:35.000Z</time>
      </trkpt>
      <trkpt lat="45.85274" lon="4.78267">
        <ele>614.82361</ele>
        <time>2023-06-29T14:57:36.000Z</time>
      </trkpt>
      <trkpt lat="45.85279" lon="4.78274">
        <ele>614.7406</ele>
        <time>2023-06-29T14:57:37.000Z</time>
      </trkpt>
      <trkpt lat="45.85284" lon="4.78282">
        <ele>614.66467</ele>
        <time>2023-06-29T14:57:38.000Z</time>
      </trkpt>
      <trkpt lat="45.8529" lon="4.78291">
        <ele>614.53552</ele>
        <time>2023-06-29T14:57:39.000Z</time>
      </trkpt>
      <trkpt lat="45.85294" lon="4.78298">
        <ele>614.41412</ele>
        <time>2023-06-29T14:57:40.000Z</time>
      </trkpt>
      <trkpt lat="45.85297" lon="4.78303">
        <ele>614.29675</ele>
        <time>2023-06-29T14:57:41.000Z</time>
      </trkpt>
      <trkpt lat="45.85301" lon="4.78308">
        <ele>614.19739</ele>
        <time>2023-06-29T14:57:42.000Z</time>
      </trkpt>
      <trkpt lat="45.85306" lon="4.78316">
        <ele>614.18829</ele>
        <time>2023-06-29T14:57:43.000Z</time>
      </trkpt>
      <trkpt lat="45.85311" lon="4.78322">
        <ele>614.08405</ele>
        <time>2023-06-29T14:57:44.000Z</time>
      </trkpt>
      <trkpt lat="45.85315" lon="4.78328">
        <ele>614.0199</ele>
        <time>2023-06-29T14:57:45.000Z</time>
      </trkpt>
      <trkpt lat="45.85318" lon="4.78333">
        <ele>614.13239</ele>
        <time>2023-06-29T14:57:46.000Z</time>
      </trkpt>
      <trkpt lat="45.85323" lon="4.7834">
        <ele>614.16199</ele>
        <time>2023-06-29T14:57:47.000Z</time>
      </trkpt>
      <trkpt lat="45.85326" lon="4.78345">
        <ele>614.13</ele>
        <time>2023-06-29T14:57:48.000Z</time>
      </trkpt>
      <trkpt lat="45.85331" lon="4.78348">
        <ele>614.09631</ele>
        <time>2023-06-29T14:57:49.000Z</time>
      </trkpt>
      <trkpt lat="45.85336" lon="4.78353">
        <ele>613.9306</ele>
        <time>2023-06-29T14:57:50.000Z</time>
      </trkpt>
      <trkpt lat="45.85342" lon="4.7836">
        <ele>613.72205</ele>
        <time>2023-06-29T14:57:51.000Z</time>
      </trkpt>
      <trkpt lat="45.85346" lon="4.78365">
        <ele>613.53821</ele>
        <time>2023-06-29T14:57:52.000Z</time>
      </trkpt>
      <trkpt lat="45.85351" lon="4.78373">
        <ele>613.33459</ele>
        <time>2023-06-29T14:57:53.000Z</time>
      </trkpt>
      <trkpt lat="45.85354" lon="4.78379">
        <ele>613.11218</ele>
        <time>2023-06-29T14:57:54.000Z</time>
      </trkpt>
      <trkpt lat="45.85358" lon="4.78386">
        <ele>612.8783</ele>
        <time>2023-06-29T14:57:55.000Z</time>
      </trkpt>
      <trkpt lat="45.85362" lon="4.78392">
        <ele>612.60022</ele>
        <time>2023-06-29T14:57:56.000Z</time>
      </trkpt>
      <trkpt lat="45.85367" lon="4.78399">
        <ele>612.36615</ele>
        <time>2023-06-29T14:57:57.000Z</time>
      </trkpt>
      <trkpt lat="45.85373" lon="4.78406">
        <ele>612.09631</ele>
        <time>2023-06-29T14:57:58.000Z</time>
      </trkpt>
      <trkpt lat="45.85378" lon="4.78413">
        <ele>611.87402</ele>
        <time>2023-06-29T14:57:59.000Z</time>
      </trkpt>
      <trkpt lat="45.85382" lon="4.78419">
        <ele>611.69202</ele>
        <time>2023-06-29T14:58:00.000Z</time>
      </trkpt>
      <trkpt lat="45.85386" lon="4.78426">
        <ele>611.52374</ele>
        <time>2023-06-29T14:58:01.000Z</time>
      </trkpt>
      <trkpt lat="45.85391" lon="4.78431">
        <ele>611.29382</ele>
        <time>2023-06-29T14:58:02.000Z</time>
      </trkpt>
      <trkpt lat="45.85397" lon="4.78438">
        <ele>611.04547</ele>
        <time>2023-06-29T14:58:03.000Z</time>
      </trkpt>
      <trkpt lat="45.85402" lon="4.78444">
        <ele>610.79846</ele>
        <time>2023-06-29T14:58:04.000Z</time>
      </trkpt>
      <trkpt lat="45.85407" lon="4.78451">
        <ele>610.46857</ele>
        <time>2023-06-29T14:58:05.000Z</time>
      </trkpt>
      <trkpt lat="45.85412" lon="4.78458">
        <ele>610.08966</ele>
        <time>2023-06-29T14:58:06.000Z</time>
      </trkpt>
      <trkpt lat="45.85418" lon="4.78464">
        <ele>609.78522</ele>
        <time>2023-06-29T14:58:07.000Z</time>
      </trkpt>
      <trkpt lat="45.85423" lon="4.7847">
        <ele>609.53131</ele>
        <time>2023-06-29T14:58:08.000Z</time>
      </trkpt>
      <trkpt lat="45.85429" lon="4.78476">
        <ele>609.25708</ele>
        <time>2023-06-29T14:58:09.000Z</time>
      </trkpt>
      <trkpt lat="45.85435" lon="4.78483">
        <ele>608.97369</ele>
        <time>2023-06-29T14:58:10.000Z</time>
      </trkpt>
      <trkpt lat="45.85441" lon="4.78491">
        <ele>608.67395</ele>
        <time>2023-06-29T14:58:11.000Z</time>
      </trkpt>
      <trkpt lat="45.85448" lon="4.78498">
        <ele>608.35077</ele>
        <time>2023-06-29T14:58:12.000Z</time>
      </trkpt>
      <trkpt lat="45.85453" lon="4.78505">
        <ele>608.04315</ele>
        <time>2023-06-29T14:58:13.000Z</time>
      </trkpt>
      <trkpt lat="45.85459" lon="4.78511">
        <ele>607.65741</ele>
        <time>2023-06-29T14:58:14.000Z</time>
      </trkpt>
      <trkpt lat="45.85464" lon="4.78518">
        <ele>607.27637</ele>
        <time>2023-06-29T14:58:15.000Z</time>
      </trkpt>
      <trkpt lat="45.85471" lon="4.78526">
        <ele>606.8924</ele>
        <time>2023-06-29T14:58:16.000Z</time>
      </trkpt>
      <trkpt lat="45.85477" lon="4.78533">
        <ele>606.50775</ele>
        <time>2023-06-29T14:58:17.000Z</time>
      </trkpt>
      <trkpt lat="45.85483" lon="4.78541">
        <ele>606.12891</ele>
        <time>2023-06-29T14:58:18.000Z</time>
      </trkpt>
      <trkpt lat="45.85489" lon="4.78547">
        <ele>605.73126</ele>
        <time>2023-06-29T14:58:19.000Z</time>
      </trkpt>
      <trkpt lat="45.85495" lon="4.78553">
        <ele>605.34467</ele>
        <time>2023-06-29T14:58:20.000Z</time>
      </trkpt>
      <trkpt lat="45.85501" lon="4.78558">
        <ele>604.88074</ele>
        <time>2023-06-29T14:58:21.000Z</time>
      </trkpt>
      <trkpt lat="45.85507" lon="4.78564">
        <ele>604.3988</ele>
        <time>2023-06-29T14:58:22.000Z</time>
      </trkpt>
      <trkpt lat="45.85514" lon="4.78569">
        <ele>603.91943</ele>
        <time>2023-06-29T14:58:23.000Z</time>
      </trkpt>
      <trkpt lat="45.8552" lon="4.78575">
        <ele>603.40247</ele>
        <time>2023-06-29T14:58:24.000Z</time>
      </trkpt>
      <trkpt lat="45.85526" lon="4.78582">
        <ele>602.92346</ele>
        <time>2023-06-29T14:58:25.000Z</time>
      </trkpt>
      <trkpt lat="45.85532" lon="4.78587">
        <ele>602.48907</ele>
        <time>2023-06-29T14:58:26.000Z</time>
      </trkpt>
      <trkpt lat="45.85539" lon="4.78592">
        <ele>602.04803</ele>
        <time>2023-06-29T14:58:27.000Z</time>
      </trkpt>
      <trkpt lat="45.85547" lon="4.78596">
        <ele>601.5531</ele>
        <time>2023-06-29T14:58:28.000Z</time>
      </trkpt>
      <trkpt lat="45.85554" lon="4.78598">
        <ele>601.06549</ele>
        <time>2023-06-29T14:58:29.000Z</time>
      </trkpt>
      <trkpt lat="45.85559" lon="4.786">
        <ele>600.63989</ele>
        <time>2023-06-29T14:58:30.000Z</time>
      </trkpt>
      <trkpt lat="45.85566" lon="4.78602">
        <ele>600.25238</ele>
        <time>2023-06-29T14:58:31.000Z</time>
      </trkpt>
      <trkpt lat="45.85571" lon="4.78607">
        <ele>599.90057</ele>
        <time>2023-06-29T14:58:32.000Z</time>
      </trkpt>
      <trkpt lat="45.85577" lon="4.78612">
        <ele>599.52399</ele>
        <time>2023-06-29T14:58:33.000Z</time>
      </trkpt>
      <trkpt lat="45.85582" lon="4.78616">
        <ele>599.24091</ele>
        <time>2023-06-29T14:58:34.000Z</time>
      </trkpt>
      <trkpt lat="45.85588" lon="4.78621">
        <ele>598.94427</ele>
        <time>2023-06-29T14:58:35.000Z</time>
      </trkpt>
      <trkpt lat="45.85594" lon="4.78624">
        <ele>598.6814</ele>
        <time>2023-06-29T14:58:36.000Z</time>
      </trkpt>
      <trkpt lat="45.85599" lon="4.78628">
        <ele>598.42102</ele>
        <time>2023-06-29T14:58:37.000Z</time>
      </trkpt>
      <trkpt lat="45.85605" lon="4.78629">
        <ele>598.19952</ele>
        <time>2023-06-29T14:58:38.000Z</time>
      </trkpt>
      <trkpt lat="45.8561" lon="4.78632">
        <ele>597.9621</ele>
        <time>2023-06-29T14:58:39.000Z</time>
      </trkpt>
      <trkpt lat="45.85615" lon="4.78634">
        <ele>597.67834</ele>
        <time>2023-06-29T14:58:40.000Z</time>
      </trkpt>
      <trkpt lat="45.8562" lon="4.78637">
        <ele>597.44592</ele>
        <time>2023-06-29T14:58:41.000Z</time>
      </trkpt>
      <trkpt lat="45.85624" lon="4.78642">
        <ele>597.29016</ele>
        <time>2023-06-29T14:58:42.000Z</time>
      </trkpt>
      <trkpt lat="45.85628" lon="4.78646">
        <ele>597.15027</ele>
        <time>2023-06-29T14:58:43.000Z</time>
      </trkpt>
      <trkpt lat="45.85633" lon="4.78651">
        <ele>597.02264</ele>
        <time>2023-06-29T14:58:44.000Z</time>
      </trkpt>
      <trkpt lat="45.85638" lon="4.78654">
        <ele>596.94202</ele>
        <time>2023-06-29T14:58:45.000Z</time>
      </trkpt>
      <trkpt lat="45.85644" lon="4.78656">
        <ele>596.84558</ele>
        <time>2023-06-29T14:58:46.000Z</time>
      </trkpt>
      <trkpt lat="45.85649" lon="4.78659">
        <ele>596.79773</ele>
        <time>2023-06-29T14:58:47.000Z</time>
      </trkpt>
      <trkpt lat="45.85655" lon="4.78664">
        <ele>596.78711</ele>
        <time>2023-06-29T14:58:48.000Z</time>
      </trkpt>
      <trkpt lat="45.8566" lon="4.78666">
        <ele>596.77051</ele>
        <time>2023-06-29T14:58:49.000Z</time>
      </trkpt>
      <trkpt lat="45.85665" lon="4.78669">
        <ele>596.72571</ele>
        <time>2023-06-29T14:58:50.000Z</time>
      </trkpt>
      <trkpt lat="45.85669" lon="4.78673">
        <ele>596.65448</ele>
        <time>2023-06-29T14:58:51.000Z</time>
      </trkpt>
      <trkpt lat="45.85673" lon="4.78678">
        <ele>596.57367</ele>
        <time>2023-06-29T14:58:52.000Z</time>
      </trkpt>
      <trkpt lat="45.85679" lon="4.78683">
        <ele>596.55383</ele>
        <time>2023-06-29T14:58:53.000Z</time>
      </trkpt>
      <trkpt lat="45.85683" lon="4.78687">
        <ele>596.52661</ele>
        <time>2023-06-29T14:58:54.000Z</time>
      </trkpt>
      <trkpt lat="45.85687" lon="4.78693">
        <ele>596.53717</ele>
        <time>2023-06-29T14:58:55.000Z</time>
      </trkpt>
      <trkpt lat="45.85691" lon="4.78699">
        <ele>596.55542</ele>
        <time>2023-06-29T14:58:56.000Z</time>
      </trkpt>
      <trkpt lat="45.85694" lon="4.78705">
        <ele>596.56378</ele>
        <time>2023-06-29T14:58:57.000Z</time>
      </trkpt>
      <trkpt lat="45.85698" lon="4.7871">
        <ele>596.58771</ele>
        <time>2023-06-29T14:58:58.000Z</time>
      </trkpt>
      <trkpt lat="45.85701" lon="4.78716">
        <ele>596.62317</ele>
        <time>2023-06-29T14:58:59.000Z</time>
      </trkpt>
      <trkpt lat="45.85706" lon="4.78723">
        <ele>596.62555</ele>
        <time>2023-06-29T14:59:00.000Z</time>
      </trkpt>
      <trkpt lat="45.8571" lon="4.78729">
        <ele>596.65381</ele>
        <time>2023-06-29T14:59:01.000Z</time>
      </trkpt>
      <trkpt lat="45.85714" lon="4.78736">
        <ele>596.61139</ele>
        <time>2023-06-29T14:59:02.000Z</time>
      </trkpt>
      <trkpt lat="45.85721" lon="4.78741">
        <ele>596.52722</ele>
        <time>2023-06-29T14:59:03.000Z</time>
      </trkpt>
      <trkpt lat="45.85726" lon="4.78748">
        <ele>596.4516</ele>
        <time>2023-06-29T14:59:04.000Z</time>
      </trkpt>
      <trkpt lat="45.85732" lon="4.78754">
        <ele>596.37683</ele>
        <time>2023-06-29T14:59:05.000Z</time>
      </trkpt>
      <trkpt lat="45.85737" lon="4.78759">
        <ele>596.33557</ele>
        <time>2023-06-29T14:59:06.000Z</time>
      </trkpt>
      <trkpt lat="45.85741" lon="4.7876">
        <ele>596.24921</ele>
        <time>2023-06-29T14:59:07.000Z</time>
      </trkpt>
      <trkpt lat="45.85745" lon="4.78764">
        <ele>596.12042</ele>
        <time>2023-06-29T14:59:08.000Z</time>
      </trkpt>
      <trkpt lat="45.85749" lon="4.78768">
        <ele>595.98694</ele>
        <time>2023-06-29T14:59:09.000Z</time>
      </trkpt>
      <trkpt lat="45.85753" lon="4.78773">
        <ele>595.83313</ele>
        <time>2023-06-29T14:59:10.000Z</time>
      </trkpt>
      <trkpt lat="45.85755" lon="4.78777">
        <ele>595.70514</ele>
        <time>2023-06-29T14:59:11.000Z</time>
      </trkpt>
      <trkpt lat="45.85758" lon="4.78777">
        <ele>595.55792</ele>
        <time>2023-06-29T14:59:12.000Z</time>
      </trkpt>
      <trkpt lat="45.85762" lon="4.78779">
        <ele>595.35931</ele>
        <time>2023-06-29T14:59:13.000Z</time>
      </trkpt>
      <trkpt lat="45.85766" lon="4.78779">
        <ele>595.12036</ele>
        <time>2023-06-29T14:59:14.000Z</time>
      </trkpt>
      <trkpt lat="45.85771" lon="4.78781">
        <ele>594.85968</ele>
        <time>2023-06-29T14:59:15.000Z</time>
      </trkpt>
      <trkpt lat="45.85776" lon="4.78785">
        <ele>594.57532</ele>
        <time>2023-06-29T14:59:16.000Z</time>
      </trkpt>
      <trkpt lat="45.8578" lon="4.78786">
        <ele>594.26282</ele>
        <time>2023-06-29T14:59:17.000Z</time>
      </trkpt>
      <trkpt lat="45.85786" lon="4.7879">
        <ele>593.92957</ele>
        <time>2023-06-29T14:59:18.000Z</time>
      </trkpt>
      <trkpt lat="45.85791" lon="4.78792">
        <ele>593.6051</ele>
        <time>2023-06-29T14:59:19.000Z</time>
      </trkpt>
      <trkpt lat="45.85797" lon="4.78794">
        <ele>593.31012</ele>
        <time>2023-06-29T14:59:20.000Z</time>
      </trkpt>
      <trkpt lat="45.85802" lon="4.78796">
        <ele>593.01685</ele>
        <time>2023-06-29T14:59:21.000Z</time>
      </trkpt>
      <trkpt lat="45.85807" lon="4.78799">
        <ele>592.72119</ele>
        <time>2023-06-29T14:59:22.000Z</time>
      </trkpt>
      <trkpt lat="45.85812" lon="4.78804">
        <ele>592.43317</ele>
        <time>2023-06-29T14:59:23.000Z</time>
      </trkpt>
      <trkpt lat="45.85815" lon="4.78807">
        <ele>592.17334</ele>
        <time>2023-06-29T14:59:24.000Z</time>
      </trkpt>
      <trkpt lat="45.85817" lon="4.78808">
        <ele>591.88104</ele>
        <time>2023-06-29T14:59:25.000Z</time>
      </trkpt>
      <trkpt lat="45.8582" lon="4.78808">
        <ele>591.59436</ele>
        <time>2023-06-29T14:59:26.000Z</time>
      </trkpt>
      <trkpt lat="45.85823" lon="4.78808">
        <ele>591.2218</ele>
        <time>2023-06-29T14:59:27.000Z</time>
      </trkpt>
      <trkpt lat="45.85825" lon="4.78807">
        <ele>590.9978</ele>
        <time>2023-06-29T14:59:28.000Z</time>
      </trkpt>
      <trkpt lat="45.85827" lon="4.78806">
        <ele>590.54987</ele>
        <time>2023-06-29T14:59:29.000Z</time>
      </trkpt>
      <trkpt lat="45.8583" lon="4.78807">
        <ele>590.07977</ele>
        <time>2023-06-29T14:59:30.000Z</time>
      </trkpt>
      <trkpt lat="45.85832" lon="4.78808">
        <ele>590.0564</ele>
        <time>2023-06-29T14:59:31.000Z</time>
      </trkpt>
      <trkpt lat="45.85834" lon="4.78811">
        <ele>590.08313</ele>
        <time>2023-06-29T14:59:32.000Z</time>
      </trkpt>
      <trkpt lat="45.85835" lon="4.78813">
        <ele>590.12109</ele>
        <time>2023-06-29T14:59:33.000Z</time>
      </trkpt>
      <trkpt lat="45.85836" lon="4.78816">
        <ele>590.18689</ele>
        <time>2023-06-29T14:59:34.000Z</time>
      </trkpt>
      <trkpt lat="45.85837" lon="4.78819">
        <ele>590.2876</ele>
        <time>2023-06-29T14:59:35.000Z</time>
      </trkpt>
      <trkpt lat="45.85838" lon="4.78821">
        <ele>590.20715</ele>
        <time>2023-06-29T14:59:36.000Z</time>
      </trkpt>
      <trkpt lat="45.8584" lon="4.78823">
        <ele>590.1864</ele>
        <time>2023-06-29T14:59:37.000Z</time>
      </trkpt>
      <trkpt lat="45.85841" lon="4.78827">
        <ele>590.11853</ele>
        <time>2023-06-29T14:59:39.000Z</time>
      </trkpt>
      <trkpt lat="45.85842" lon="4.7883">
        <ele>590.10754</ele>
        <time>2023-06-29T14:59:41.000Z</time>
      </trkpt>
      <trkpt lat="45.85845" lon="4.78828">
        <ele>590.18945</ele>
        <time>2023-06-29T14:59:43.000Z</time>
      </trkpt>
      <trkpt lat="45.85846" lon="4.78826">
        <ele>590.31354</ele>
        <time>2023-06-29T14:59:44.000Z</time>
      </trkpt>
      <trkpt lat="45.85848" lon="4.78824">
        <ele>590.48792</ele>
        <time>2023-06-29T14:59:46.000Z</time>
      </trkpt>
      <trkpt lat="45.85852" lon="4.78821">
        <ele>590.66174</ele>
        <time>2023-06-29T14:59:48.000Z</time>
      </trkpt>
      <trkpt lat="45.85855" lon="4.78819">
        <ele>590.80933</ele>
        <time>2023-06-29T14:59:49.000Z</time>
      </trkpt>
      <trkpt lat="45.85859" lon="4.78817">
        <ele>590.94073</ele>
        <time>2023-06-29T14:59:50.000Z</time>
      </trkpt>
      <trkpt lat="45.85863" lon="4.78815">
        <ele>591.03729</ele>
        <time>2023-06-29T14:59:51.000Z</time>
      </trkpt>
      <trkpt lat="45.85866" lon="4.78814">
        <ele>591.23816</ele>
        <time>2023-06-29T14:59:52.000Z</time>
      </trkpt>
      <trkpt lat="45.85869" lon="4.78814">
        <ele>591.36957</ele>
        <time>2023-06-29T14:59:53.000Z</time>
      </trkpt>
      <trkpt lat="45.85874" lon="4.78813">
        <ele>591.71124</ele>
        <time>2023-06-29T14:59:54.000Z</time>
      </trkpt>
      <trkpt lat="45.85878" lon="4.78813">
        <ele>592.08966</ele>
        <time>2023-06-29T14:59:55.000Z</time>
      </trkpt>
      <trkpt lat="45.85885" lon="4.78815">
        <ele>592.11212</ele>
        <time>2023-06-29T14:59:56.000Z</time>
      </trkpt>
      <trkpt lat="45.85889" lon="4.78815">
        <ele>592.08289</ele>
        <time>2023-06-29T14:59:57.000Z</time>
      </trkpt>
      <trkpt lat="45.85893" lon="4.78818">
        <ele>592.10736</ele>
        <time>2023-06-29T14:59:58.000Z</time>
      </trkpt>
      <trkpt lat="45.85899" lon="4.78818">
        <ele>592.19495</ele>
        <time>2023-06-29T14:59:59.000Z</time>
      </trkpt>
      <trkpt lat="45.85902" lon="4.78819">
        <ele>592.25366</ele>
        <time>2023-06-29T15:00:00.000Z</time>
      </trkpt>
      <trkpt lat="45.85906" lon="4.78822">
        <ele>592.31738</ele>
        <time>2023-06-29T15:00:01.000Z</time>
      </trkpt>
      <trkpt lat="45.8591" lon="4.78824">
        <ele>592.3667</ele>
        <time>2023-06-29T15:00:02.000Z</time>
      </trkpt>
      <trkpt lat="45.85914" lon="4.78825">
        <ele>592.41449</ele>
        <time>2023-06-29T15:00:03.000Z</time>
      </trkpt>
      <trkpt lat="45.85916" lon="4.78827">
        <ele>592.43927</ele>
        <time>2023-06-29T15:00:04.000Z</time>
      </trkpt>
      <trkpt lat="45.85918" lon="4.78829">
        <ele>592.30872</ele>
        <time>2023-06-29T15:00:06.000Z</time>
      </trkpt>
      <trkpt lat="45.85921" lon="4.78829">
        <ele>592.16467</ele>
        <time>2023-06-29T15:00:11.000Z</time>
      </trkpt>
      <trkpt lat="45.85922" lon="4.78828">
        <ele>591.99597</ele>
        <time>2023-06-29T15:00:12.000Z</time>
      </trkpt>
      <trkpt lat="45.85925" lon="4.78827">
        <ele>591.94885</ele>
        <time>2023-06-29T15:00:13.000Z</time>
      </trkpt>
      <trkpt lat="45.85929" lon="4.78827">
        <ele>591.87097</ele>
        <time>2023-06-29T15:00:14.000Z</time>
      </trkpt>
      <trkpt lat="45.85934" lon="4.78826">
        <ele>591.90454</ele>
        <time>2023-06-29T15:00:15.000Z</time>
      </trkpt>
      <trkpt lat="45.85941" lon="4.78828">
        <ele>591.6792</ele>
        <time>2023-06-29T15:00:16.000Z</time>
      </trkpt>
      <trkpt lat="45.85948" lon="4.78831">
        <ele>591.47034</ele>
        <time>2023-06-29T15:00:17.000Z</time>
      </trkpt>
      <trkpt lat="45.85954" lon="4.78832">
        <ele>591.20276</ele>
        <time>2023-06-29T15:00:18.000Z</time>
      </trkpt>
      <trkpt lat="45.85962" lon="4.78836">
        <ele>590.90198</ele>
        <time>2023-06-29T15:00:19.000Z</time>
      </trkpt>
      <trkpt lat="45.8597" lon="4.78839">
        <ele>590.6156</ele>
        <time>2023-06-29T15:00:20.000Z</time>
      </trkpt>
      <trkpt lat="45.85976" lon="4.78842">
        <ele>590.18927</ele>
        <time>2023-06-29T15:00:21.000Z</time>
      </trkpt>
      <trkpt lat="45.85984" lon="4.78848">
        <ele>589.7511</ele>
        <time>2023-06-29T15:00:22.000Z</time>
      </trkpt>
      <trkpt lat="45.85993" lon="4.78854">
        <ele>589.26556</ele>
        <time>2023-06-29T15:00:23.000Z</time>
      </trkpt>
      <trkpt lat="45.86001" lon="4.78857">
        <ele>588.66132</ele>
        <time>2023-06-29T15:00:24.000Z</time>
      </trkpt>
      <trkpt lat="45.86009" lon="4.78862">
        <ele>588.05438</ele>
        <time>2023-06-29T15:00:25.000Z</time>
      </trkpt>
      <trkpt lat="45.86014" lon="4.78865">
        <ele>587.83356</ele>
        <time>2023-06-29T15:00:26.000Z</time>
      </trkpt>
      <trkpt lat="45.8602" lon="4.78868">
        <ele>587.58063</ele>
        <time>2023-06-29T15:00:27.000Z</time>
      </trkpt>
      <trkpt lat="45.86028" lon="4.78873">
        <ele>587.36481</ele>
        <time>2023-06-29T15:00:28.000Z</time>
      </trkpt>
      <trkpt lat="45.86034" lon="4.78876">
        <ele>587.18396</ele>
        <time>2023-06-29T15:00:29.000Z</time>
      </trkpt>
      <trkpt lat="45.86041" lon="4.7888">
        <ele>587.08496</ele>
        <time>2023-06-29T15:00:30.000Z</time>
      </trkpt>
      <trkpt lat="45.86048" lon="4.78882">
        <ele>586.79059</ele>
        <time>2023-06-29T15:00:31.000Z</time>
      </trkpt>
      <trkpt lat="45.86054" lon="4.78885">
        <ele>586.58783</ele>
        <time>2023-06-29T15:00:32.000Z</time>
      </trkpt>
      <trkpt lat="45.86062" lon="4.78888">
        <ele>586.33508</ele>
        <time>2023-06-29T15:00:33.000Z</time>
      </trkpt>
      <trkpt lat="45.86069" lon="4.78892">
        <ele>586.10822</ele>
        <time>2023-06-29T15:00:34.000Z</time>
      </trkpt>
      <trkpt lat="45.86075" lon="4.78896">
        <ele>585.74744</ele>
        <time>2023-06-29T15:00:35.000Z</time>
      </trkpt>
      <trkpt lat="45.86081" lon="4.789">
        <ele>585.72083</ele>
        <time>2023-06-29T15:00:36.000Z</time>
      </trkpt>
      <trkpt lat="45.86088" lon="4.78905">
        <ele>585.69012</ele>
        <time>2023-06-29T15:00:37.000Z</time>
      </trkpt>
      <trkpt lat="45.86095" lon="4.78908">
        <ele>585.70435</ele>
        <time>2023-06-29T15:00:38.000Z</time>
      </trkpt>
      <trkpt lat="45.86102" lon="4.78915">
        <ele>585.7522</ele>
        <time>2023-06-29T15:00:39.000Z</time>
      </trkpt>
      <trkpt lat="45.86108" lon="4.78923">
        <ele>585.77179</ele>
        <time>2023-06-29T15:00:40.000Z</time>
      </trkpt>
      <trkpt lat="45.86114" lon="4.78932">
        <ele>585.42218</ele>
        <time>2023-06-29T15:00:41.000Z</time>
      </trkpt>
      <trkpt lat="45.86119" lon="4.78939">
        <ele>584.95728</ele>
        <time>2023-06-29T15:00:42.000Z</time>
      </trkpt>
      <trkpt lat="45.86123" lon="4.78943">
        <ele>584.52203</ele>
        <time>2023-06-29T15:00:43.000Z</time>
      </trkpt>
      <trkpt lat="45.86126" lon="4.7895">
        <ele>584.12634</ele>
        <time>2023-06-29T15:00:44.000Z</time>
      </trkpt>
      <trkpt lat="45.86128" lon="4.78957">
        <ele>583.74976</ele>
        <time>2023-06-29T15:00:45.000Z</time>
      </trkpt>
      <trkpt lat="45.86132" lon="4.78964">
        <ele>583.24329</ele>
        <time>2023-06-29T15:00:46.000Z</time>
      </trkpt>
      <trkpt lat="45.86133" lon="4.78967">
        <ele>583.32648</ele>
        <time>2023-06-29T15:00:47.000Z</time>
      </trkpt>
      <trkpt lat="45.86137" lon="4.78973">
        <ele>583.47668</ele>
        <time>2023-06-29T15:00:48.000Z</time>
      </trkpt>
      <trkpt lat="45.86139" lon="4.78975">
        <ele>583.67279</ele>
        <time>2023-06-29T15:00:49.000Z</time>
      </trkpt>
      <trkpt lat="45.86143" lon="4.78981">
        <ele>583.37866</ele>
        <time>2023-06-29T15:00:50.000Z</time>
      </trkpt>
      <trkpt lat="45.86147" lon="4.78986">
        <ele>583.01172</ele>
        <time>2023-06-29T15:00:51.000Z</time>
      </trkpt>
      <trkpt lat="45.86152" lon="4.78993">
        <ele>582.54932</ele>
        <time>2023-06-29T15:00:52.000Z</time>
      </trkpt>
      <trkpt lat="45.86153" lon="4.78995">
        <ele>582.06213</ele>
        <time>2023-06-29T15:00:53.000Z</time>
      </trkpt>
      <trkpt lat="45.86156" lon="4.78999">
        <ele>581.5575</ele>
        <time>2023-06-29T15:00:54.000Z</time>
      </trkpt>
      <trkpt lat="45.86161" lon="4.79006">
        <ele>581.0636</ele>
        <time>2023-06-29T15:00:55.000Z</time>
      </trkpt>
      <trkpt lat="45.86164" lon="4.79011">
        <ele>580.49261</ele>
        <time>2023-06-29T15:00:56.000Z</time>
      </trkpt>
      <trkpt lat="45.86168" lon="4.79016">
        <ele>579.87909</ele>
        <time>2023-06-29T15:00:57.000Z</time>
      </trkpt>
      <trkpt lat="45.86173" lon="4.79023">
        <ele>579.16882</ele>
        <time>2023-06-29T15:00:58.000Z</time>
      </trkpt>
      <trkpt lat="45.86175" lon="4.79028">
        <ele>578.4552</ele>
        <time>2023-06-29T15:00:59.000Z</time>
      </trkpt>
      <trkpt lat="45.86178" lon="4.79032">
        <ele>577.79742</ele>
        <time>2023-06-29T15:01:00.000Z</time>
      </trkpt>
      <trkpt lat="45.86181" lon="4.79036">
        <ele>577.56812</ele>
        <time>2023-06-29T15:01:01.000Z</time>
      </trkpt>
      <trkpt lat="45.86184" lon="4.79041">
        <ele>577.51111</ele>
        <time>2023-06-29T15:01:02.000Z</time>
      </trkpt>
      <trkpt lat="45.8619" lon="4.79046">
        <ele>577.44031</ele>
        <time>2023-06-29T15:01:03.000Z</time>
      </trkpt>
      <trkpt lat="45.86196" lon="4.79054">
        <ele>577.28802</ele>
        <time>2023-06-29T15:01:04.000Z</time>
      </trkpt>
      <trkpt lat="45.86199" lon="4.79059">
        <ele>577.12311</ele>
        <time>2023-06-29T15:01:05.000Z</time>
      </trkpt>
      <trkpt lat="45.86202" lon="4.79063">
        <ele>576.89703</ele>
        <time>2023-06-29T15:01:06.000Z</time>
      </trkpt>
      <trkpt lat="45.86205" lon="4.79067">
        <ele>576.09113</ele>
        <time>2023-06-29T15:01:07.000Z</time>
      </trkpt>
      <trkpt lat="45.86211" lon="4.79071">
        <ele>575.23328</ele>
        <time>2023-06-29T15:01:08.000Z</time>
      </trkpt>
      <trkpt lat="45.86216" lon="4.79077">
        <ele>574.21765</ele>
        <time>2023-06-29T15:01:09.000Z</time>
      </trkpt>
      <trkpt lat="45.86223" lon="4.79083">
        <ele>573.66992</ele>
        <time>2023-06-29T15:01:10.000Z</time>
      </trkpt>
      <trkpt lat="45.86228" lon="4.7909">
        <ele>573.35608</ele>
        <time>2023-06-29T15:01:11.000Z</time>
      </trkpt>
      <trkpt lat="45.86237" lon="4.79099">
        <ele>573.04297</ele>
        <time>2023-06-29T15:01:12.000Z</time>
      </trkpt>
      <trkpt lat="45.86244" lon="4.79109">
        <ele>572.73602</ele>
        <time>2023-06-29T15:01:13.000Z</time>
      </trkpt>
      <trkpt lat="45.86253" lon="4.79121">
        <ele>572.46667</ele>
        <time>2023-06-29T15:01:14.000Z</time>
      </trkpt>
      <trkpt lat="45.86256" lon="4.79125">
        <ele>572.25183</ele>
        <time>2023-06-29T15:01:15.000Z</time>
      </trkpt>
      <trkpt lat="45.8626" lon="4.79133">
        <ele>572.06073</ele>
        <time>2023-06-29T15:01:16.000Z</time>
      </trkpt>
      <trkpt lat="45.86265" lon="4.79143">
        <ele>571.96228</ele>
        <time>2023-06-29T15:01:17.000Z</time>
      </trkpt>
      <trkpt lat="45.86271" lon="4.79153">
        <ele>571.93573</ele>
        <time>2023-06-29T15:01:18.000Z</time>
      </trkpt>
      <trkpt lat="45.86272" lon="4.79156">
        <ele>571.74072</ele>
        <time>2023-06-29T15:01:19.000Z</time>
      </trkpt>
      <trkpt lat="45.86277" lon="4.79163">
        <ele>571.5484</ele>
        <time>2023-06-29T15:01:20.000Z</time>
      </trkpt>
      <trkpt lat="45.86281" lon="4.79166">
        <ele>571.34491</ele>
        <time>2023-06-29T15:01:21.000Z</time>
      </trkpt>
      <trkpt lat="45.86288" lon="4.79172">
        <ele>571.0448</ele>
        <time>2023-06-29T15:01:22.000Z</time>
      </trkpt>
      <trkpt lat="45.86294" lon="4.79178">
        <ele>570.72168</ele>
        <time>2023-06-29T15:01:23.000Z</time>
      </trkpt>
      <trkpt lat="45.86299" lon="4.79183">
        <ele>570.51648</ele>
        <time>2023-06-29T15:01:24.000Z</time>
      </trkpt>
      <trkpt lat="45.86305" lon="4.79189">
        <ele>570.32977</ele>
        <time>2023-06-29T15:01:25.000Z</time>
      </trkpt>
      <trkpt lat="45.86312" lon="4.79196">
        <ele>570.14673</ele>
        <time>2023-06-29T15:01:26.000Z</time>
      </trkpt>
      <trkpt lat="45.86317" lon="4.79202">
        <ele>570.00183</ele>
        <time>2023-06-29T15:01:27.000Z</time>
      </trkpt>
      <trkpt lat="45.86325" lon="4.7921">
        <ele>569.87067</ele>
        <time>2023-06-29T15:01:28.000Z</time>
      </trkpt>
      <trkpt lat="45.86329" lon="4.79217">
        <ele>569.75922</ele>
        <time>2023-06-29T15:01:29.000Z</time>
      </trkpt>
      <trkpt lat="45.86335" lon="4.79224">
        <ele>569.66461</ele>
        <time>2023-06-29T15:01:30.000Z</time>
      </trkpt>
      <trkpt lat="45.86344" lon="4.79231">
        <ele>569.65674</ele>
        <time>2023-06-29T15:01:31.000Z</time>
      </trkpt>
      <trkpt lat="45.86352" lon="4.7924">
        <ele>569.62177</ele>
        <time>2023-06-29T15:01:32.000Z</time>
      </trkpt>
      <trkpt lat="45.86357" lon="4.79244">
        <ele>569.58978</ele>
        <time>2023-06-29T15:01:33.000Z</time>
      </trkpt>
      <trkpt lat="45.86365" lon="4.79252">
        <ele>569.50433</ele>
        <time>2023-06-29T15:01:34.000Z</time>
      </trkpt>
      <trkpt lat="45.86373" lon="4.79261">
        <ele>569.38879</ele>
        <time>2023-06-29T15:01:35.000Z</time>
      </trkpt>
      <trkpt lat="45.86381" lon="4.79269">
        <ele>569.18243</ele>
        <time>2023-06-29T15:01:36.000Z</time>
      </trkpt>
      <trkpt lat="45.86389" lon="4.79276">
        <ele>568.90015</ele>
        <time>2023-06-29T15:01:37.000Z</time>
      </trkpt>
      <trkpt lat="45.86397" lon="4.79287">
        <ele>568.58771</ele>
        <time>2023-06-29T15:01:38.000Z</time>
      </trkpt>
      <trkpt lat="45.86405" lon="4.79297">
        <ele>568.5484</ele>
        <time>2023-06-29T15:01:39.000Z</time>
      </trkpt>
      <trkpt lat="45.86413" lon="4.79305">
        <ele>568.43469</ele>
        <time>2023-06-29T15:01:40.000Z</time>
      </trkpt>
      <trkpt lat="45.86426" lon="4.79318">
        <ele>568.08942</ele>
        <time>2023-06-29T15:01:41.000Z</time>
      </trkpt>
      <trkpt lat="45.86434" lon="4.79329">
        <ele>567.84045</ele>
        <time>2023-06-29T15:01:42.000Z</time>
      </trkpt>
      <trkpt lat="45.86442" lon="4.79341">
        <ele>567.53979</ele>
        <time>2023-06-29T15:01:43.000Z</time>
      </trkpt>
      <trkpt lat="45.86449" lon="4.7935">
        <ele>567.22412</ele>
        <time>2023-06-29T15:01:44.000Z</time>
      </trkpt>
      <trkpt lat="45.86455" lon="4.79359">
        <ele>566.81879</ele>
        <time>2023-06-29T15:01:45.000Z</time>
      </trkpt>
      <trkpt lat="45.86462" lon="4.79366">
        <ele>566.32269</ele>
        <time>2023-06-29T15:01:46.000Z</time>
      </trkpt>
      <trkpt lat="45.8647" lon="4.79377">
        <ele>565.64105</ele>
        <time>2023-06-29T15:01:47.000Z</time>
      </trkpt>
      <trkpt lat="45.86478" lon="4.79387">
        <ele>564.85388</ele>
        <time>2023-06-29T15:01:48.000Z</time>
      </trkpt>
      <trkpt lat="45.86486" lon="4.79396">
        <ele>564.07825</ele>
        <time>2023-06-29T15:01:49.000Z</time>
      </trkpt>
      <trkpt lat="45.86494" lon="4.79405">
        <ele>563.29144</ele>
        <time>2023-06-29T15:01:50.000Z</time>
      </trkpt>
      <trkpt lat="45.86502" lon="4.79414">
        <ele>562.3634</ele>
        <time>2023-06-29T15:01:51.000Z</time>
      </trkpt>
      <trkpt lat="45.86513" lon="4.79424">
        <ele>561.68402</ele>
        <time>2023-06-29T15:01:52.000Z</time>
      </trkpt>
      <trkpt lat="45.86519" lon="4.79432">
        <ele>561.0011</ele>
        <time>2023-06-29T15:01:53.000Z</time>
      </trkpt>
      <trkpt lat="45.86528" lon="4.7944">
        <ele>559.82318</ele>
        <time>2023-06-29T15:01:54.000Z</time>
      </trkpt>
      <trkpt lat="45.86536" lon="4.79447">
        <ele>558.85138</ele>
        <time>2023-06-29T15:01:55.000Z</time>
      </trkpt>
      <trkpt lat="45.86542" lon="4.79455">
        <ele>557.88196</ele>
        <time>2023-06-29T15:01:56.000Z</time>
      </trkpt>
      <trkpt lat="45.8655" lon="4.79462">
        <ele>556.94415</ele>
        <time>2023-06-29T15:01:57.000Z</time>
      </trkpt>
      <trkpt lat="45.86558" lon="4.79472">
        <ele>556.16565</ele>
        <time>2023-06-29T15:01:58.000Z</time>
      </trkpt>
      <trkpt lat="45.86566" lon="4.79481">
        <ele>555.35687</ele>
        <time>2023-06-29T15:01:59.000Z</time>
      </trkpt>
      <trkpt lat="45.86574" lon="4.79491">
        <ele>554.61609</ele>
        <time>2023-06-29T15:02:00.000Z</time>
      </trkpt>
      <trkpt lat="45.86585" lon="4.79504">
        <ele>553.95667</ele>
        <time>2023-06-29T15:02:01.000Z</time>
      </trkpt>
      <trkpt lat="45.86595" lon="4.79516">
        <ele>553.32117</ele>
        <time>2023-06-29T15:02:02.000Z</time>
      </trkpt>
      <trkpt lat="45.86603" lon="4.79529">
        <ele>552.74756</ele>
        <time>2023-06-29T15:02:03.000Z</time>
      </trkpt>
      <trkpt lat="45.86611" lon="4.7954">
        <ele>552.07288</ele>
        <time>2023-06-29T15:02:04.000Z</time>
      </trkpt>
      <trkpt lat="45.86617" lon="4.79548">
        <ele>551.45233</ele>
        <time>2023-06-29T15:02:05.000Z</time>
      </trkpt>
      <trkpt lat="45.86621" lon="4.79557">
        <ele>550.76581</ele>
        <time>2023-06-29T15:02:06.000Z</time>
      </trkpt>
      <trkpt lat="45.86623" lon="4.79563">
        <ele>550.23694</ele>
        <time>2023-06-29T15:02:07.000Z</time>
      </trkpt>
      <trkpt lat="45.86625" lon="4.79567">
        <ele>549.72949</ele>
        <time>2023-06-29T15:02:08.000Z</time>
      </trkpt>
      <trkpt lat="45.86628" lon="4.79572">
        <ele>549.0929</ele>
        <time>2023-06-29T15:02:09.000Z</time>
      </trkpt>
      <trkpt lat="45.86631" lon="4.79577">
        <ele>548.44434</ele>
        <time>2023-06-29T15:02:10.000Z</time>
      </trkpt>
      <trkpt lat="45.86633" lon="4.79585">
        <ele>546.98993</ele>
        <time>2023-06-29T15:02:11.000Z</time>
      </trkpt>
      <trkpt lat="45.86636" lon="4.79593">
        <ele>545.05884</ele>
        <time>2023-06-29T15:02:12.000Z</time>
      </trkpt>
      <trkpt lat="45.8664" lon="4.79602">
        <ele>544.48755</ele>
        <time>2023-06-29T15:02:13.000Z</time>
      </trkpt>
      <trkpt lat="45.86644" lon="4.7961">
        <ele>544.43195</ele>
        <time>2023-06-29T15:02:14.000Z</time>
      </trkpt>
      <trkpt lat="45.86647" lon="4.79617">
        <ele>544.18994</ele>
        <time>2023-06-29T15:02:15.000Z</time>
      </trkpt>
      <trkpt lat="45.86651" lon="4.79625">
        <ele>544.00519</ele>
        <time>2023-06-29T15:02:16.000Z</time>
      </trkpt>
      <trkpt lat="45.86654" lon="4.79633">
        <ele>543.80011</ele>
        <time>2023-06-29T15:02:17.000Z</time>
      </trkpt>
      <trkpt lat="45.86654" lon="4.79637">
        <ele>541.85474</ele>
        <time>2023-06-29T15:02:18.000Z</time>
      </trkpt>
      <trkpt lat="45.86658" lon="4.79642">
        <ele>539.91034</ele>
        <time>2023-06-29T15:02:19.000Z</time>
      </trkpt>
      <trkpt lat="45.86663" lon="4.79648">
        <ele>539.23773</ele>
        <time>2023-06-29T15:02:20.000Z</time>
      </trkpt>
      <trkpt lat="45.86667" lon="4.79656">
        <ele>537.32208</ele>
        <time>2023-06-29T15:02:21.000Z</time>
      </trkpt>
      <trkpt lat="45.86669" lon="4.79666">
        <ele>535.3266</ele>
        <time>2023-06-29T15:02:22.000Z</time>
      </trkpt>
      <trkpt lat="45.86672" lon="4.79677">
        <ele>533.33289</ele>
        <time>2023-06-29T15:02:23.000Z</time>
      </trkpt>
      <trkpt lat="45.86673" lon="4.79687">
        <ele>531.42029</ele>
        <time>2023-06-29T15:02:24.000Z</time>
      </trkpt>
      <trkpt lat="45.86675" lon="4.79699">
        <ele>529.49756</ele>
        <time>2023-06-29T15:02:25.000Z</time>
      </trkpt>
      <trkpt lat="45.86674" lon="4.79711">
        <ele>527.54889</ele>
        <time>2023-06-29T15:02:26.000Z</time>
      </trkpt>
      <trkpt lat="45.86673" lon="4.79723">
        <ele>525.41663</ele>
        <time>2023-06-29T15:02:27.000Z</time>
      </trkpt>
      <trkpt lat="45.8667" lon="4.79735">
        <ele>523.49884</ele>
        <time>2023-06-29T15:02:28.000Z</time>
      </trkpt>
      <trkpt lat="45.86667" lon="4.79746">
        <ele>521.65936</ele>
        <time>2023-06-29T15:02:29.000Z</time>
      </trkpt>
      <trkpt lat="45.86663" lon="4.79752">
        <ele>519.89685</ele>
        <time>2023-06-29T15:02:30.000Z</time>
      </trkpt>
      <trkpt lat="45.86659" lon="4.7976">
        <ele>518.99481</ele>
        <time>2023-06-29T15:02:31.000Z</time>
      </trkpt>
      <trkpt lat="45.86655" lon="4.79766">
        <ele>518.35455</ele>
        <time>2023-06-29T15:02:32.000Z</time>
      </trkpt>
      <trkpt lat="45.86654" lon="4.79773">
        <ele>516.18048</ele>
        <time>2023-06-29T15:02:33.000Z</time>
      </trkpt>
      <trkpt lat="45.86653" lon="4.79779">
        <ele>513.97638</ele>
        <time>2023-06-29T15:02:34.000Z</time>
      </trkpt>
      <trkpt lat="45.86651" lon="4.79787">
        <ele>511.7652</ele>
        <time>2023-06-29T15:02:35.000Z</time>
      </trkpt>
      <trkpt lat="45.86648" lon="4.79791">
        <ele>509.54916</ele>
        <time>2023-06-29T15:02:36.000Z</time>
      </trkpt>
      <trkpt lat="45.86647" lon="4.79797">
        <ele>507.54605</ele>
        <time>2023-06-29T15:02:37.000Z</time>
      </trkpt>
      <trkpt lat="45.86643" lon="4.79801">
        <ele>507.14688</ele>
        <time>2023-06-29T15:02:38.000Z</time>
      </trkpt>
      <trkpt lat="45.86642" lon="4.79802">
        <ele>506.65811</ele>
        <time>2023-06-29T15:02:39.000Z</time>
      </trkpt>
      <trkpt lat="45.86641" lon="4.79808">
        <ele>504.83432</ele>
        <time>2023-06-29T15:02:40.000Z</time>
      </trkpt>
      <trkpt lat="45.8664" lon="4.79811">
        <ele>504.53067</ele>
        <time>2023-06-29T15:02:41.000Z</time>
      </trkpt>
      <trkpt lat="45.8664" lon="4.79814">
        <ele>504.28256</ele>
        <time>2023-06-29T15:02:42.000Z</time>
      </trkpt>
      <trkpt lat="45.86639" lon="4.79818">
        <ele>504.11725</ele>
        <time>2023-06-29T15:02:43.000Z</time>
      </trkpt>
      <trkpt lat="45.86637" lon="4.79822">
        <ele>503.80243</ele>
        <time>2023-06-29T15:02:44.000Z</time>
      </trkpt>
      <trkpt lat="45.86636" lon="4.79825">
        <ele>503.61017</ele>
        <time>2023-06-29T15:02:45.000Z</time>
      </trkpt>
      <trkpt lat="45.86634" lon="4.79829">
        <ele>503.59863</ele>
        <time>2023-06-29T15:02:46.000Z</time>
      </trkpt>
      <trkpt lat="45.86633" lon="4.79832">
        <ele>503.7399</ele>
        <time>2023-06-29T15:02:47.000Z</time>
      </trkpt>
      <trkpt lat="45.86631" lon="4.79836">
        <ele>503.78989</ele>
        <time>2023-06-29T15:02:48.000Z</time>
      </trkpt>
      <trkpt lat="45.86629" lon="4.7984">
        <ele>503.90118</ele>
        <time>2023-06-29T15:02:49.000Z</time>
      </trkpt>
      <trkpt lat="45.86627" lon="4.79844">
        <ele>503.95053</ele>
        <time>2023-06-29T15:02:50.000Z</time>
      </trkpt>
      <trkpt lat="45.86625" lon="4.79848">
        <ele>504.04379</ele>
        <time>2023-06-29T15:02:51.000Z</time>
      </trkpt>
      <trkpt lat="45.86623" lon="4.79853">
        <ele>504.11484</ele>
        <time>2023-06-29T15:02:52.000Z</time>
      </trkpt>
      <trkpt lat="45.8662" lon="4.79856">
        <ele>504.31631</ele>
        <time>2023-06-29T15:02:53.000Z</time>
      </trkpt>
      <trkpt lat="45.86618" lon="4.79859">
        <ele>504.57129</ele>
        <time>2023-06-29T15:02:54.000Z</time>
      </trkpt>
      <trkpt lat="45.86616" lon="4.79862">
        <ele>504.60214</ele>
        <time>2023-06-29T15:02:55.000Z</time>
      </trkpt>
      <trkpt lat="45.86613" lon="4.79866">
        <ele>504.57391</ele>
        <time>2023-06-29T15:02:56.000Z</time>
      </trkpt>
      <trkpt lat="45.8661" lon="4.7987">
        <ele>504.32974</ele>
        <time>2023-06-29T15:02:57.000Z</time>
      </trkpt>
      <trkpt lat="45.86606" lon="4.79873">
        <ele>504.11298</ele>
        <time>2023-06-29T15:02:58.000Z</time>
      </trkpt>
      <trkpt lat="45.86603" lon="4.79876">
        <ele>503.97208</ele>
        <time>2023-06-29T15:02:59.000Z</time>
      </trkpt>
      <trkpt lat="45.866" lon="4.79879">
        <ele>503.87189</ele>
        <time>2023-06-29T15:03:00.000Z</time>
      </trkpt>
      <trkpt lat="45.86598" lon="4.79882">
        <ele>503.66513</ele>
        <time>2023-06-29T15:03:01.000Z</time>
      </trkpt>
      <trkpt lat="45.86595" lon="4.79885">
        <ele>503.47891</ele>
        <time>2023-06-29T15:03:02.000Z</time>
      </trkpt>
      <trkpt lat="45.86592" lon="4.79887">
        <ele>503.21069</ele>
        <time>2023-06-29T15:03:03.000Z</time>
      </trkpt>
      <trkpt lat="45.8659" lon="4.7989">
        <ele>503.07993</ele>
        <time>2023-06-29T15:03:04.000Z</time>
      </trkpt>
      <trkpt lat="45.86587" lon="4.79892">
        <ele>502.83282</ele>
        <time>2023-06-29T15:03:05.000Z</time>
      </trkpt>
      <trkpt lat="45.86584" lon="4.79894">
        <ele>502.58194</ele>
        <time>2023-06-29T15:03:06.000Z</time>
      </trkpt>
      <trkpt lat="45.86582" lon="4.79896">
        <ele>502.36337</ele>
        <time>2023-06-29T15:03:07.000Z</time>
      </trkpt>
      <trkpt lat="45.86579" lon="4.79899">
        <ele>502.0878</ele>
        <time>2023-06-29T15:03:08.000Z</time>
      </trkpt>
      <trkpt lat="45.86578" lon="4.79903">
        <ele>501.82086</ele>
        <time>2023-06-29T15:03:09.000Z</time>
      </trkpt>
      <trkpt lat="45.86578" lon="4.79907">
        <ele>501.55884</ele>
        <time>2023-06-29T15:03:10.000Z</time>
      </trkpt>
      <trkpt lat="45.86579" lon="4.79911">
        <ele>501.27557</ele>
        <time>2023-06-29T15:03:11.000Z</time>
      </trkpt>
      <trkpt lat="45.86581" lon="4.79913">
        <ele>501.04291</ele>
        <time>2023-06-29T15:03:12.000Z</time>
      </trkpt>
      <trkpt lat="45.86584" lon="4.79915">
        <ele>500.81876</ele>
        <time>2023-06-29T15:03:13.000Z</time>
      </trkpt>
      <trkpt lat="45.86587" lon="4.79916">
        <ele>500.6109</ele>
        <time>2023-06-29T15:03:14.000Z</time>
      </trkpt>
      <trkpt lat="45.86591" lon="4.79917">
        <ele>500.63663</ele>
        <time>2023-06-29T15:03:15.000Z</time>
      </trkpt>
      <trkpt lat="45.86596" lon="4.79919">
        <ele>500.71893</ele>
        <time>2023-06-29T15:03:16.000Z</time>
      </trkpt>
      <trkpt lat="45.866" lon="4.79921">
        <ele>500.79828</ele>
        <time>2023-06-29T15:03:17.000Z</time>
      </trkpt>
      <trkpt lat="45.86605" lon="4.79923">
        <ele>500.83759</ele>
        <time>2023-06-29T15:03:18.000Z</time>
      </trkpt>
      <trkpt lat="45.86609" lon="4.79926">
        <ele>500.84088</ele>
        <time>2023-06-29T15:03:19.000Z</time>
      </trkpt>
      <trkpt lat="45.86614" lon="4.79929">
        <ele>500.82208</ele>
        <time>2023-06-29T15:03:20.000Z</time>
      </trkpt>
      <trkpt lat="45.86618" lon="4.79931">
        <ele>500.78253</ele>
        <time>2023-06-29T15:03:21.000Z</time>
      </trkpt>
      <trkpt lat="45.86623" lon="4.79933">
        <ele>500.67755</ele>
        <time>2023-06-29T15:03:22.000Z</time>
      </trkpt>
      <trkpt lat="45.86627" lon="4.79936">
        <ele>500.55972</ele>
        <time>2023-06-29T15:03:23.000Z</time>
      </trkpt>
      <trkpt lat="45.86632" lon="4.79939">
        <ele>500.45273</ele>
        <time>2023-06-29T15:03:24.000Z</time>
      </trkpt>
      <trkpt lat="45.86637" lon="4.79942">
        <ele>500.36856</ele>
        <time>2023-06-29T15:03:25.000Z</time>
      </trkpt>
      <trkpt lat="45.86642" lon="4.79946">
        <ele>500.26718</ele>
        <time>2023-06-29T15:03:26.000Z</time>
      </trkpt>
      <trkpt lat="45.86646" lon="4.79949">
        <ele>500.15958</ele>
        <time>2023-06-29T15:03:27.000Z</time>
      </trkpt>
      <trkpt lat="45.86651" lon="4.79953">
        <ele>500.04874</ele>
        <time>2023-06-29T15:03:28.000Z</time>
      </trkpt>
      <trkpt lat="45.86655" lon="4.79957">
        <ele>499.93915</ele>
        <time>2023-06-29T15:03:29.000Z</time>
      </trkpt>
      <trkpt lat="45.8666" lon="4.79961">
        <ele>499.84326</ele>
        <time>2023-06-29T15:03:30.000Z</time>
      </trkpt>
      <trkpt lat="45.86664" lon="4.79965">
        <ele>499.74457</ele>
        <time>2023-06-29T15:03:31.000Z</time>
      </trkpt>
      <trkpt lat="45.86667" lon="4.7997">
        <ele>499.63272</ele>
        <time>2023-06-29T15:03:32.000Z</time>
      </trkpt>
      <trkpt lat="45.8667" lon="4.79973">
        <ele>499.50211</ele>
        <time>2023-06-29T15:03:33.000Z</time>
      </trkpt>
      <trkpt lat="45.86673" lon="4.79979">
        <ele>499.37823</ele>
        <time>2023-06-29T15:03:34.000Z</time>
      </trkpt>
      <trkpt lat="45.86675" lon="4.79983">
        <ele>499.23663</ele>
        <time>2023-06-29T15:03:35.000Z</time>
      </trkpt>
      <trkpt lat="45.86678" lon="4.79987">
        <ele>499.11554</ele>
        <time>2023-06-29T15:03:36.000Z</time>
      </trkpt>
      <trkpt lat="45.86681" lon="4.79992">
        <ele>499.00186</ele>
        <time>2023-06-29T15:03:37.000Z</time>
      </trkpt>
      <trkpt lat="45.86683" lon="4.79997">
        <ele>498.91772</ele>
        <time>2023-06-29T15:03:38.000Z</time>
      </trkpt>
      <trkpt lat="45.86687" lon="4.80001">
        <ele>498.8349</ele>
        <time>2023-06-29T15:03:39.000Z</time>
      </trkpt>
      <trkpt lat="45.86691" lon="4.80004">
        <ele>498.7623</ele>
        <time>2023-06-29T15:03:40.000Z</time>
      </trkpt>
      <trkpt lat="45.86695" lon="4.80006">
        <ele>498.68051</ele>
        <time>2023-06-29T15:03:41.000Z</time>
      </trkpt>
      <trkpt lat="45.86698" lon="4.80008">
        <ele>498.62115</ele>
        <time>2023-06-29T15:03:42.000Z</time>
      </trkpt>
      <trkpt lat="45.86702" lon="4.80011">
        <ele>498.5751</ele>
        <time>2023-06-29T15:03:44.000Z</time>
      </trkpt>
      <trkpt lat="45.86705" lon="4.80013">
        <ele>498.54169</ele>
        <time>2023-06-29T15:03:45.000Z</time>
      </trkpt>
      <trkpt lat="45.86706" lon="4.80015">
        <ele>498.53265</ele>
        <time>2023-06-29T15:03:46.000Z</time>
      </trkpt>
      <trkpt lat="45.86708" lon="4.80017">
        <ele>498.54062</ele>
        <time>2023-06-29T15:03:47.000Z</time>
      </trkpt>
      <trkpt lat="45.86711" lon="4.80021">
        <ele>498.58896</ele>
        <time>2023-06-29T15:03:48.000Z</time>
      </trkpt>
      <trkpt lat="45.86714" lon="4.80025">
        <ele>498.63947</ele>
        <time>2023-06-29T15:03:49.000Z</time>
      </trkpt>
      <trkpt lat="45.86716" lon="4.80029">
        <ele>498.69913</ele>
        <time>2023-06-29T15:03:50.000Z</time>
      </trkpt>
      <trkpt lat="45.86718" lon="4.80033">
        <ele>498.75</ele>
        <time>2023-06-29T15:03:51.000Z</time>
      </trkpt>
      <trkpt lat="45.86718" lon="4.80036">
        <ele>498.79532</ele>
        <time>2023-06-29T15:03:52.000Z</time>
      </trkpt>
      <trkpt lat="45.86718" lon="4.80039">
        <ele>498.84262</ele>
        <time>2023-06-29T15:03:53.000Z</time>
      </trkpt>
      <trkpt lat="45.86718" lon="4.80042">
        <ele>498.93439</ele>
        <time>2023-06-29T15:03:54.000Z</time>
      </trkpt>
      <trkpt lat="45.86718" lon="4.80045">
        <ele>499.01376</ele>
        <time>2023-06-29T15:03:55.000Z</time>
      </trkpt>
      <trkpt lat="45.86718" lon="4.8005">
        <ele>499.12256</ele>
        <time>2023-06-29T15:03:56.000Z</time>
      </trkpt>
      <trkpt lat="45.86719" lon="4.80055">
        <ele>499.26065</ele>
        <time>2023-06-29T15:03:57.000Z</time>
      </trkpt>
      <trkpt lat="45.8672" lon="4.80059">
        <ele>499.45685</ele>
        <time>2023-06-29T15:03:58.000Z</time>
      </trkpt>
      <trkpt lat="45.86721" lon="4.80063">
        <ele>499.65567</ele>
        <time>2023-06-29T15:03:59.000Z</time>
      </trkpt>
      <trkpt lat="45.86722" lon="4.80067">
        <ele>499.9064</ele>
        <time>2023-06-29T15:04:00.000Z</time>
      </trkpt>
      <trkpt lat="45.86723" lon="4.80071">
        <ele>500.21844</ele>
        <time>2023-06-29T15:04:01.000Z</time>
      </trkpt>
      <trkpt lat="45.86724" lon="4.80075">
        <ele>500.56265</ele>
        <time>2023-06-29T15:04:02.000Z</time>
      </trkpt>
      <trkpt lat="45.86724" lon="4.80078">
        <ele>500.88507</ele>
        <time>2023-06-29T15:04:03.000Z</time>
      </trkpt>
      <trkpt lat="45.86724" lon="4.80081">
        <ele>501.19354</ele>
        <time>2023-06-29T15:04:04.000Z</time>
      </trkpt>
      <trkpt lat="45.86724" lon="4.80084">
        <ele>501.53262</ele>
        <time>2023-06-29T15:04:05.000Z</time>
      </trkpt>
      <trkpt lat="45.86725" lon="4.80088">
        <ele>501.8165</ele>
        <time>2023-06-29T15:04:06.000Z</time>
      </trkpt>
      <trkpt lat="45.86726" lon="4.80091">
        <ele>502.13028</ele>
        <time>2023-06-29T15:04:07.000Z</time>
      </trkpt>
      <trkpt lat="45.86727" lon="4.80095">
        <ele>502.40152</ele>
        <time>2023-06-29T15:04:08.000Z</time>
      </trkpt>
      <trkpt lat="45.86728" lon="4.80099">
        <ele>502.67682</ele>
        <time>2023-06-29T15:04:09.000Z</time>
      </trkpt>
      <trkpt lat="45.86729" lon="4.80104">
        <ele>502.95905</ele>
        <time>2023-06-29T15:04:10.000Z</time>
      </trkpt>
      <trkpt lat="45.8673" lon="4.80109">
        <ele>503.25449</ele>
        <time>2023-06-29T15:04:11.000Z</time>
      </trkpt>
      <trkpt lat="45.86731" lon="4.80113">
        <ele>503.57626</ele>
        <time>2023-06-29T15:04:12.000Z</time>
      </trkpt>
      <trkpt lat="45.86732" lon="4.80118">
        <ele>503.88647</ele>
        <time>2023-06-29T15:04:13.000Z</time>
      </trkpt>
      <trkpt lat="45.86733" lon="4.80123">
        <ele>504.18683</ele>
        <time>2023-06-29T15:04:14.000Z</time>
      </trkpt>
      <trkpt lat="45.86735" lon="4.80128">
        <ele>504.49908</ele>
        <time>2023-06-29T15:04:15.000Z</time>
      </trkpt>
      <trkpt lat="45.86737" lon="4.80132">
        <ele>504.81354</ele>
        <time>2023-06-29T15:04:16.000Z</time>
      </trkpt>
      <trkpt lat="45.86739" lon="4.80135">
        <ele>505.11142</ele>
        <time>2023-06-29T15:04:17.000Z</time>
      </trkpt>
      <trkpt lat="45.86742" lon="4.80138">
        <ele>505.34164</ele>
        <time>2023-06-29T15:04:18.000Z</time>
      </trkpt>
      <trkpt lat="45.86745" lon="4.8014">
        <ele>505.59009</ele>
        <time>2023-06-29T15:04:19.000Z</time>
      </trkpt>
      <trkpt lat="45.86749" lon="4.80142">
        <ele>505.80273</ele>
        <time>2023-06-29T15:04:20.000Z</time>
      </trkpt>
      <trkpt lat="45.86752" lon="4.80143">
        <ele>506.12778</ele>
        <time>2023-06-29T15:04:21.000Z</time>
      </trkpt>
      <trkpt lat="45.86755" lon="4.80144">
        <ele>506.54614</ele>
        <time>2023-06-29T15:04:22.000Z</time>
      </trkpt>
      <trkpt lat="45.86758" lon="4.80143">
        <ele>507.0499</ele>
        <time>2023-06-29T15:04:23.000Z</time>
      </trkpt>
      <trkpt lat="45.8676" lon="4.80142">
        <ele>507.1749</ele>
        <time>2023-06-29T15:04:24.000Z</time>
      </trkpt>
      <trkpt lat="45.86762" lon="4.8014">
        <ele>507.27719</ele>
        <time>2023-06-29T15:04:25.000Z</time>
      </trkpt>
      <trkpt lat="45.86764" lon="4.80137">
        <ele>507.41235</ele>
        <time>2023-06-29T15:04:26.000Z</time>
      </trkpt>
      <trkpt lat="45.86765" lon="4.80134">
        <ele>507.53387</ele>
        <time>2023-06-29T15:04:27.000Z</time>
      </trkpt>
      <trkpt lat="45.86766" lon="4.8013">
        <ele>507.66309</ele>
        <time>2023-06-29T15:04:28.000Z</time>
      </trkpt>
      <trkpt lat="45.86765" lon="4.80128">
        <ele>509.44962</ele>
        <time>2023-06-29T15:04:29.000Z</time>
      </trkpt>
      <trkpt lat="45.86765" lon="4.80125">
        <ele>509.65192</ele>
        <time>2023-06-29T15:04:30.000Z</time>
      </trkpt>
      <trkpt lat="45.86765" lon="4.8012">
        <ele>510.39471</ele>
        <time>2023-06-29T15:04:32.000Z</time>
      </trkpt>
      <trkpt lat="45.86769" lon="4.8012">
        <ele>511.10776</ele>
        <time>2023-06-29T15:04:34.000Z</time>
      </trkpt>
      <trkpt lat="45.86771" lon="4.80122">
        <ele>511.81256</ele>
        <time>2023-06-29T15:04:35.000Z</time>
      </trkpt>
      <trkpt lat="45.86772" lon="4.80124">
        <ele>512.71387</ele>
        <time>2023-06-29T15:04:36.000Z</time>
      </trkpt>
      <trkpt lat="45.86772" lon="4.80128">
        <ele>513.23932</ele>
        <time>2023-06-29T15:04:37.000Z</time>
      </trkpt>
      <trkpt lat="45.86772" lon="4.80131">
        <ele>514.11194</ele>
        <time>2023-06-29T15:04:38.000Z</time>
      </trkpt>
      <trkpt lat="45.86771" lon="4.80134">
        <ele>514.73047</ele>
        <time>2023-06-29T15:04:39.000Z</time>
      </trkpt>
      <trkpt lat="45.8677" lon="4.80137">
        <ele>515.1347</ele>
        <time>2023-06-29T15:04:40.000Z</time>
      </trkpt>
      <trkpt lat="45.86768" lon="4.80139">
        <ele>515.51398</ele>
        <time>2023-06-29T15:04:41.000Z</time>
      </trkpt>
      <trkpt lat="45.86766" lon="4.80141">
        <ele>515.89288</ele>
        <time>2023-06-29T15:04:42.000Z</time>
      </trkpt>
      <trkpt lat="45.86765" lon="4.80143">
        <ele>516.1142</ele>
        <time>2023-06-29T15:04:43.000Z</time>
      </trkpt>
      <trkpt lat="45.86763" lon="4.80145">
        <ele>516.22095</ele>
        <time>2023-06-29T15:04:44.000Z</time>
      </trkpt>
      <trkpt lat="45.86761" lon="4.80146">
        <ele>516.22083</ele>
        <time>2023-06-29T15:04:45.000Z</time>
      </trkpt>
      <trkpt lat="45.86759" lon="4.80146">
        <ele>516.59943</ele>
        <time>2023-06-29T15:04:46.000Z</time>
      </trkpt>
      <trkpt lat="45.86757" lon="4.80146">
        <ele>516.97467</ele>
        <time>2023-06-29T15:04:47.000Z</time>
      </trkpt>
      <trkpt lat="45.86754" lon="4.80147">
        <ele>517.33875</ele>
        <time>2023-06-29T15:04:48.000Z</time>
      </trkpt>
      <trkpt lat="45.8675" lon="4.80146">
        <ele>517.67957</ele>
        <time>2023-06-29T15:04:49.000Z</time>
      </trkpt>
      <trkpt lat="45.86746" lon="4.80144">
        <ele>518.01129</ele>
        <time>2023-06-29T15:04:50.000Z</time>
      </trkpt>
      <trkpt lat="45.86742" lon="4.80136">
        <ele>516.67175</ele>
        <time>2023-06-29T15:04:51.000Z</time>
      </trkpt>
      <trkpt lat="45.86738" lon="4.8013">
        <ele>516.8479</ele>
        <time>2023-06-29T15:04:52.000Z</time>
      </trkpt>
      <trkpt lat="45.86736" lon="4.80125">
        <ele>516.44464</ele>
        <time>2023-06-29T15:04:53.000Z</time>
      </trkpt>
      <trkpt lat="45.86734" lon="4.80118">
        <ele>516.01324</ele>
        <time>2023-06-29T15:04:54.000Z</time>
      </trkpt>
      <trkpt lat="45.86731" lon="4.80108">
        <ele>515.57458</ele>
        <time>2023-06-29T15:04:55.000Z</time>
      </trkpt>
      <trkpt lat="45.86728" lon="4.80101">
        <ele>514.93201</ele>
        <time>2023-06-29T15:04:56.000Z</time>
      </trkpt>
      <trkpt lat="45.86726" lon="4.80093">
        <ele>514.64331</ele>
        <time>2023-06-29T15:04:57.000Z</time>
      </trkpt>
      <trkpt lat="45.86723" lon="4.80085">
        <ele>514.00177</ele>
        <time>2023-06-29T15:04:58.000Z</time>
      </trkpt>
      <trkpt lat="45.86722" lon="4.80079">
        <ele>513.50684</ele>
        <time>2023-06-29T15:04:59.000Z</time>
      </trkpt>
      <trkpt lat="45.8672" lon="4.80072">
        <ele>513.25525</ele>
        <time>2023-06-29T15:05:00.000Z</time>
      </trkpt>
      <trkpt lat="45.86719" lon="4.80062">
        <ele>513.00415</ele>
        <time>2023-06-29T15:05:01.000Z</time>
      </trkpt>
      <trkpt lat="45.86719" lon="4.80054">
        <ele>512.69629</ele>
        <time>2023-06-29T15:05:02.000Z</time>
      </trkpt>
      <trkpt lat="45.86718" lon="4.80048">
        <ele>512.38788</ele>
        <time>2023-06-29T15:05:03.000Z</time>
      </trkpt>
      <trkpt lat="45.86718" lon="4.80044">
        <ele>512.06567</ele>
        <time>2023-06-29T15:05:04.000Z</time>
      </trkpt>
      <trkpt lat="45.86718" lon="4.80041">
        <ele>511.74658</ele>
        <time>2023-06-29T15:05:05.000Z</time>
      </trkpt>
      <trkpt lat="45.86717" lon="4.80037">
        <ele>511.45865</ele>
        <time>2023-06-29T15:05:06.000Z</time>
      </trkpt>
      <trkpt lat="45.86716" lon="4.80033">
        <ele>511.15765</ele>
        <time>2023-06-29T15:05:07.000Z</time>
      </trkpt>
      <trkpt lat="45.86714" lon="4.80028">
        <ele>510.84805</ele>
        <time>2023-06-29T15:05:08.000Z</time>
      </trkpt>
      <trkpt lat="45.86711" lon="4.80024">
        <ele>510.54633</ele>
        <time>2023-06-29T15:05:09.000Z</time>
      </trkpt>
      <trkpt lat="45.86708" lon="4.80019">
        <ele>510.2547</ele>
        <time>2023-06-29T15:05:10.000Z</time>
      </trkpt>
      <trkpt lat="45.86706" lon="4.80015">
        <ele>510.00629</ele>
        <time>2023-06-29T15:05:11.000Z</time>
      </trkpt>
      <trkpt lat="45.86701" lon="4.8001">
        <ele>509.50693</ele>
        <time>2023-06-29T15:05:12.000Z</time>
      </trkpt>
      <trkpt lat="45.86698" lon="4.80005">
        <ele>509.04825</ele>
        <time>2023-06-29T15:05:13.000Z</time>
      </trkpt>
      <trkpt lat="45.86693" lon="4.80002">
        <ele>508.61069</ele>
        <time>2023-06-29T15:05:14.000Z</time>
      </trkpt>
      <trkpt lat="45.86687" lon="4.80003">
        <ele>508.13165</ele>
        <time>2023-06-29T15:05:16.000Z</time>
      </trkpt>
      <trkpt lat="45.86685" lon="4.8">
        <ele>507.6084</ele>
        <time>2023-06-29T15:05:17.000Z</time>
      </trkpt>
      <trkpt lat="45.86683" lon="4.79997">
        <ele>507.07608</ele>
        <time>2023-06-29T15:05:18.000Z</time>
      </trkpt>
      <trkpt lat="45.86682" lon="4.79994">
        <ele>506.54291</ele>
        <time>2023-06-29T15:05:19.000Z</time>
      </trkpt>
      <trkpt lat="45.86679" lon="4.79992">
        <ele>506.0809</ele>
        <time>2023-06-29T15:05:20.000Z</time>
      </trkpt>
      <trkpt lat="45.86678" lon="4.79989">
        <ele>505.59344</ele>
        <time>2023-06-29T15:05:21.000Z</time>
      </trkpt>
      <trkpt lat="45.86678" lon="4.79986">
        <ele>505.10773</ele>
        <time>2023-06-29T15:05:22.000Z</time>
      </trkpt>
      <trkpt lat="45.86677" lon="4.79983">
        <ele>504.65771</ele>
        <time>2023-06-29T15:05:23.000Z</time>
      </trkpt>
      <trkpt lat="45.86677" lon="4.79979">
        <ele>504.22598</ele>
        <time>2023-06-29T15:05:24.000Z</time>
      </trkpt>
      <trkpt lat="45.86679" lon="4.79977">
        <ele>503.78558</ele>
        <time>2023-06-29T15:05:25.000Z</time>
      </trkpt>
      <trkpt lat="45.86681" lon="4.79976">
        <ele>503.38315</ele>
        <time>2023-06-29T15:05:26.000Z</time>
      </trkpt>
      <trkpt lat="45.86684" lon="4.79976">
        <ele>502.9523</ele>
        <time>2023-06-29T15:05:27.000Z</time>
      </trkpt>
      <trkpt lat="45.86687" lon="4.79976">
        <ele>502.51791</ele>
        <time>2023-06-29T15:05:28.000Z</time>
      </trkpt>
      <trkpt lat="45.86691" lon="4.79977">
        <ele>502.10831</ele>
        <time>2023-06-29T15:05:29.000Z</time>
      </trkpt>
      <trkpt lat="45.86694" lon="4.79977">
        <ele>501.73203</ele>
        <time>2023-06-29T15:05:30.000Z</time>
      </trkpt>
      <trkpt lat="45.86696" lon="4.79978">
        <ele>501.32501</ele>
        <time>2023-06-29T15:05:31.000Z</time>
      </trkpt>
      <trkpt lat="45.86699" lon="4.7998">
        <ele>500.85004</ele>
        <time>2023-06-29T15:05:32.000Z</time>
      </trkpt>
      <trkpt lat="45.86703" lon="4.79982">
        <ele>500.64658</ele>
        <time>2023-06-29T15:05:33.000Z</time>
      </trkpt>
      <trkpt lat="45.86706" lon="4.79985">
        <ele>500.42969</ele>
        <time>2023-06-29T15:05:34.000Z</time>
      </trkpt>
      <trkpt lat="45.86708" lon="4.79986">
        <ele>500.2579</ele>
        <time>2023-06-29T15:05:35.000Z</time>
      </trkpt>
      <trkpt lat="45.86712" lon="4.79987">
        <ele>500.11041</ele>
        <time>2023-06-29T15:05:37.000Z</time>
      </trkpt>
      <trkpt lat="45.86714" lon="4.79988">
        <ele>499.9527</ele>
        <time>2023-06-29T15:05:38.000Z</time>
      </trkpt>
      <trkpt lat="45.86716" lon="4.79987">
        <ele>499.89154</ele>
        <time>2023-06-29T15:06:06.000Z</time>
      </trkpt>
      <trkpt lat="45.86718" lon="4.79988">
        <ele>499.82242</ele>
        <time>2023-06-29T15:06:13.000Z</time>
      </trkpt>
      <trkpt lat="45.86722" lon="4.7999">
        <ele>499.74448</ele>
        <time>2023-06-29T15:06:15.000Z</time>
      </trkpt>
      <trkpt lat="45.86725" lon="4.79991">
        <ele>499.67197</ele>
        <time>2023-06-29T15:06:16.000Z</time>
      </trkpt>
      <trkpt lat="45.86728" lon="4.79991">
        <ele>499.57819</ele>
        <time>2023-06-29T15:06:17.000Z</time>
      </trkpt>
      <trkpt lat="45.86731" lon="4.79992">
        <ele>499.5274</ele>
        <time>2023-06-29T15:06:18.000Z</time>
      </trkpt>
      <trkpt lat="45.86735" lon="4.79993">
        <ele>499.42218</ele>
        <time>2023-06-29T15:06:19.000Z</time>
      </trkpt>
      <trkpt lat="45.86744" lon="4.79999">
        <ele>499.32123</ele>
        <time>2023-06-29T15:06:20.000Z</time>
      </trkpt>
      <trkpt lat="45.86748" lon="4.80001">
        <ele>499.15625</ele>
        <time>2023-06-29T15:06:21.000Z</time>
      </trkpt>
      <trkpt lat="45.86752" lon="4.80002">
        <ele>499.02524</ele>
        <time>2023-06-29T15:06:22.000Z</time>
      </trkpt>
      <trkpt lat="45.86756" lon="4.80003">
        <ele>498.85092</ele>
        <time>2023-06-29T15:06:23.000Z</time>
      </trkpt>
      <trkpt lat="45.86762" lon="4.80007">
        <ele>498.64023</ele>
        <time>2023-06-29T15:06:24.000Z</time>
      </trkpt>
      <trkpt lat="45.86766" lon="4.80008">
        <ele>498.37524</ele>
        <time>2023-06-29T15:06:25.000Z</time>
      </trkpt>
      <trkpt lat="45.86771" lon="4.80009">
        <ele>498.13403</ele>
        <time>2023-06-29T15:06:26.000Z</time>
      </trkpt>
      <trkpt lat="45.86775" lon="4.80011">
        <ele>497.87558</ele>
        <time>2023-06-29T15:06:27.000Z</time>
      </trkpt>
      <trkpt lat="45.86781" lon="4.80016">
        <ele>497.63608</ele>
        <time>2023-06-29T15:06:28.000Z</time>
      </trkpt>
      <trkpt lat="45.86785" lon="4.80021">
        <ele>497.34171</ele>
        <time>2023-06-29T15:06:29.000Z</time>
      </trkpt>
      <trkpt lat="45.86789" lon="4.80026">
        <ele>496.99854</ele>
        <time>2023-06-29T15:06:30.000Z</time>
      </trkpt>
      <trkpt lat="45.86793" lon="4.8003">
        <ele>496.70599</ele>
        <time>2023-06-29T15:06:31.000Z</time>
      </trkpt>
      <trkpt lat="45.86797" lon="4.80034">
        <ele>496.43521</ele>
        <time>2023-06-29T15:06:32.000Z</time>
      </trkpt>
      <trkpt lat="45.868" lon="4.80039">
        <ele>496.05902</ele>
        <time>2023-06-29T15:06:33.000Z</time>
      </trkpt>
      <trkpt lat="45.86804" lon="4.80042">
        <ele>495.68817</ele>
        <time>2023-06-29T15:06:34.000Z</time>
      </trkpt>
      <trkpt lat="45.86809" lon="4.80047">
        <ele>495.37808</ele>
        <time>2023-06-29T15:06:35.000Z</time>
      </trkpt>
      <trkpt lat="45.86813" lon="4.80051">
        <ele>495.12979</ele>
        <time>2023-06-29T15:06:36.000Z</time>
      </trkpt>
      <trkpt lat="45.86817" lon="4.80055">
        <ele>494.86484</ele>
        <time>2023-06-29T15:06:37.000Z</time>
      </trkpt>
      <trkpt lat="45.86822" lon="4.80058">
        <ele>494.59555</ele>
        <time>2023-06-29T15:06:38.000Z</time>
      </trkpt>
      <trkpt lat="45.86825" lon="4.80064">
        <ele>494.34488</ele>
        <time>2023-06-29T15:06:39.000Z</time>
      </trkpt>
      <trkpt lat="45.86827" lon="4.80067">
        <ele>494.08887</ele>
        <time>2023-06-29T15:06:40.000Z</time>
      </trkpt>
      <trkpt lat="45.8683" lon="4.80073">
        <ele>493.88751</ele>
        <time>2023-06-29T15:06:41.000Z</time>
      </trkpt>
      <trkpt lat="45.86833" lon="4.80078">
        <ele>493.47833</ele>
        <time>2023-06-29T15:06:42.000Z</time>
      </trkpt>
      <trkpt lat="45.86836" lon="4.80083">
        <ele>493.13412</ele>
        <time>2023-06-29T15:06:43.000Z</time>
      </trkpt>
      <trkpt lat="45.86839" lon="4.80088">
        <ele>492.82892</ele>
        <time>2023-06-29T15:06:44.000Z</time>
      </trkpt>
      <trkpt lat="45.86842" lon="4.80091">
        <ele>492.53027</ele>
        <time>2023-06-29T15:06:45.000Z</time>
      </trkpt>
      <trkpt lat="45.86844" lon="4.80092">
        <ele>492.17206</ele>
        <time>2023-06-29T15:06:46.000Z</time>
      </trkpt>
      <trkpt lat="45.86847" lon="4.80094">
        <ele>491.83749</ele>
        <time>2023-06-29T15:06:47.000Z</time>
      </trkpt>
      <trkpt lat="45.8685" lon="4.80096">
        <ele>491.58173</ele>
        <time>2023-06-29T15:06:48.000Z</time>
      </trkpt>
      <trkpt lat="45.86852" lon="4.80099">
        <ele>491.36929</ele>
        <time>2023-06-29T15:06:49.000Z</time>
      </trkpt>
      <trkpt lat="45.86855" lon="4.80103">
        <ele>491.14703</ele>
        <time>2023-06-29T15:06:50.000Z</time>
      </trkpt>
      <trkpt lat="45.86858" lon="4.80106">
        <ele>490.87531</ele>
        <time>2023-06-29T15:06:51.000Z</time>
      </trkpt>
      <trkpt lat="45.8686" lon="4.8011">
        <ele>490.56915</ele>
        <time>2023-06-29T15:06:52.000Z</time>
      </trkpt>
      <trkpt lat="45.86862" lon="4.80114">
        <ele>490.30624</ele>
        <time>2023-06-29T15:06:53.000Z</time>
      </trkpt>
      <trkpt lat="45.86864" lon="4.80117">
        <ele>490.01105</ele>
        <time>2023-06-29T15:06:54.000Z</time>
      </trkpt>
      <trkpt lat="45.86867" lon="4.80121">
        <ele>489.69159</ele>
        <time>2023-06-29T15:06:55.000Z</time>
      </trkpt>
      <trkpt lat="45.86869" lon="4.80124">
        <ele>489.38998</ele>
        <time>2023-06-29T15:06:56.000Z</time>
      </trkpt>
      <trkpt lat="45.86872" lon="4.80126">
        <ele>489.12323</ele>
        <time>2023-06-29T15:06:57.000Z</time>
      </trkpt>
      <trkpt lat="45.86875" lon="4.8013">
        <ele>488.76825</ele>
        <time>2023-06-29T15:06:58.000Z</time>
      </trkpt>
      <trkpt lat="45.86877" lon="4.80132">
        <ele>488.39902</ele>
        <time>2023-06-29T15:06:59.000Z</time>
      </trkpt>
      <trkpt lat="45.86878" lon="4.80134">
        <ele>488.02206</ele>
        <time>2023-06-29T15:07:00.000Z</time>
      </trkpt>
      <trkpt lat="45.86881" lon="4.80139">
        <ele>487.66815</ele>
        <time>2023-06-29T15:07:01.000Z</time>
      </trkpt>
      <trkpt lat="45.86883" lon="4.80146">
        <ele>487.52426</ele>
        <time>2023-06-29T15:07:02.000Z</time>
      </trkpt>
      <trkpt lat="45.86886" lon="4.80153">
        <ele>487.34293</ele>
        <time>2023-06-29T15:07:03.000Z</time>
      </trkpt>
      <trkpt lat="45.86888" lon="4.8016">
        <ele>487.09863</ele>
        <time>2023-06-29T15:07:04.000Z</time>
      </trkpt>
      <trkpt lat="45.86891" lon="4.80168">
        <ele>486.8829</ele>
        <time>2023-06-29T15:07:05.000Z</time>
      </trkpt>
      <trkpt lat="45.86892" lon="4.80174">
        <ele>486.71796</ele>
        <time>2023-06-29T15:07:06.000Z</time>
      </trkpt>
      <trkpt lat="45.86894" lon="4.80179">
        <ele>486.59491</ele>
        <time>2023-06-29T15:07:07.000Z</time>
      </trkpt>
      <trkpt lat="45.86897" lon="4.80184">
        <ele>486.45721</ele>
        <time>2023-06-29T15:07:08.000Z</time>
      </trkpt>
      <trkpt lat="45.86906" lon="4.80189">
        <ele>486.30981</ele>
        <time>2023-06-29T15:07:09.000Z</time>
      </trkpt>
      <trkpt lat="45.8691" lon="4.80193">
        <ele>486.23486</ele>
        <time>2023-06-29T15:07:10.000Z</time>
      </trkpt>
      <trkpt lat="45.86912" lon="4.80195">
        <ele>486.2215</ele>
        <time>2023-06-29T15:07:11.000Z</time>
      </trkpt>
      <trkpt lat="45.86914" lon="4.80201">
        <ele>486.11923</ele>
        <time>2023-06-29T15:07:12.000Z</time>
      </trkpt>
      <trkpt lat="45.86915" lon="4.80205">
        <ele>485.92554</ele>
        <time>2023-06-29T15:07:13.000Z</time>
      </trkpt>
      <trkpt lat="45.86918" lon="4.80211">
        <ele>485.77606</ele>
        <time>2023-06-29T15:07:14.000Z</time>
      </trkpt>
      <trkpt lat="45.86921" lon="4.80217">
        <ele>485.54987</ele>
        <time>2023-06-29T15:07:15.000Z</time>
      </trkpt>
      <trkpt lat="45.86924" lon="4.80223">
        <ele>485.22296</ele>
        <time>2023-06-29T15:07:16.000Z</time>
      </trkpt>
      <trkpt lat="45.86926" lon="4.80225">
        <ele>485.11749</ele>
        <time>2023-06-29T15:07:17.000Z</time>
      </trkpt>
      <trkpt lat="45.86928" lon="4.80229">
        <ele>485.04706</ele>
        <time>2023-06-29T15:07:18.000Z</time>
      </trkpt>
      <trkpt lat="45.8693" lon="4.80234">
        <ele>484.92285</ele>
        <time>2023-06-29T15:07:19.000Z</time>
      </trkpt>
      <trkpt lat="45.86933" lon="4.8024">
        <ele>484.85492</ele>
        <time>2023-06-29T15:07:20.000Z</time>
      </trkpt>
      <trkpt lat="45.86935" lon="4.80245">
        <ele>484.45865</ele>
        <time>2023-06-29T15:07:21.000Z</time>
      </trkpt>
      <trkpt lat="45.86938" lon="4.80251">
        <ele>484.05762</ele>
        <time>2023-06-29T15:07:22.000Z</time>
      </trkpt>
      <trkpt lat="45.86942" lon="4.80258">
        <ele>483.65509</ele>
        <time>2023-06-29T15:07:23.000Z</time>
      </trkpt>
      <trkpt lat="45.86945" lon="4.80265">
        <ele>483.1915</ele>
        <time>2023-06-29T15:07:24.000Z</time>
      </trkpt>
      <trkpt lat="45.86948" lon="4.80271">
        <ele>482.68793</ele>
        <time>2023-06-29T15:07:25.000Z</time>
      </trkpt>
      <trkpt lat="45.86951" lon="4.80278">
        <ele>481.9812</ele>
        <time>2023-06-29T15:07:26.000Z</time>
      </trkpt>
      <trkpt lat="45.86953" lon="4.80284">
        <ele>481.15887</ele>
        <time>2023-06-29T15:07:27.000Z</time>
      </trkpt>
      <trkpt lat="45.86955" lon="4.8029">
        <ele>480.30249</ele>
        <time>2023-06-29T15:07:28.000Z</time>
      </trkpt>
      <trkpt lat="45.86958" lon="4.80296">
        <ele>479.43817</ele>
        <time>2023-06-29T15:07:29.000Z</time>
      </trkpt>
      <trkpt lat="45.8696" lon="4.80302">
        <ele>478.45087</ele>
        <time>2023-06-29T15:07:30.000Z</time>
      </trkpt>
      <trkpt lat="45.86962" lon="4.80306">
        <ele>477.35669</ele>
        <time>2023-06-29T15:07:31.000Z</time>
      </trkpt>
      <trkpt lat="45.86964" lon="4.80311">
        <ele>476.40497</ele>
        <time>2023-06-29T15:07:32.000Z</time>
      </trkpt>
      <trkpt lat="45.86966" lon="4.80316">
        <ele>475.57553</ele>
        <time>2023-06-29T15:07:33.000Z</time>
      </trkpt>
      <trkpt lat="45.86967" lon="4.80321">
        <ele>474.70972</ele>
        <time>2023-06-29T15:07:34.000Z</time>
      </trkpt>
      <trkpt lat="45.86969" lon="4.80326">
        <ele>473.90781</ele>
        <time>2023-06-29T15:07:35.000Z</time>
      </trkpt>
      <trkpt lat="45.86971" lon="4.80332">
        <ele>473.06772</ele>
        <time>2023-06-29T15:07:36.000Z</time>
      </trkpt>
      <trkpt lat="45.86973" lon="4.80337">
        <ele>471.95087</ele>
        <time>2023-06-29T15:07:37.000Z</time>
      </trkpt>
      <trkpt lat="45.86975" lon="4.80342">
        <ele>470.79639</ele>
        <time>2023-06-29T15:07:38.000Z</time>
      </trkpt>
      <trkpt lat="45.86977" lon="4.80346">
        <ele>470.11835</ele>
        <time>2023-06-29T15:07:39.000Z</time>
      </trkpt>
      <trkpt lat="45.86978" lon="4.80351">
        <ele>469.4577</ele>
        <time>2023-06-29T15:07:40.000Z</time>
      </trkpt>
      <trkpt lat="45.8698" lon="4.80355">
        <ele>469.22281</ele>
        <time>2023-06-29T15:07:41.000Z</time>
      </trkpt>
      <trkpt lat="45.86981" lon="4.80359">
        <ele>469.01895</ele>
        <time>2023-06-29T15:07:42.000Z</time>
      </trkpt>
      <trkpt lat="45.86982" lon="4.80363">
        <ele>468.9957</ele>
        <time>2023-06-29T15:07:43.000Z</time>
      </trkpt>
      <trkpt lat="45.86984" lon="4.80368">
        <ele>468.47906</ele>
        <time>2023-06-29T15:07:44.000Z</time>
      </trkpt>
      <trkpt lat="45.86986" lon="4.80373">
        <ele>468.02863</ele>
        <time>2023-06-29T15:07:45.000Z</time>
      </trkpt>
      <trkpt lat="45.86989" lon="4.80378">
        <ele>467.72012</ele>
        <time>2023-06-29T15:07:46.000Z</time>
      </trkpt>
      <trkpt lat="45.86993" lon="4.80382">
        <ele>467.53891</ele>
        <time>2023-06-29T15:07:47.000Z</time>
      </trkpt>
      <trkpt lat="45.86997" lon="4.80389">
        <ele>467.35938</ele>
        <time>2023-06-29T15:07:48.000Z</time>
      </trkpt>
      <trkpt lat="45.87002" lon="4.80398">
        <ele>465.80231</ele>
        <time>2023-06-29T15:07:49.000Z</time>
      </trkpt>
      <trkpt lat="45.87007" lon="4.80405">
        <ele>464.25235</ele>
        <time>2023-06-29T15:07:50.000Z</time>
      </trkpt>
      <trkpt lat="45.87012" lon="4.80414">
        <ele>464.34735</ele>
        <time>2023-06-29T15:07:51.000Z</time>
      </trkpt>
      <trkpt lat="45.87017" lon="4.8042">
        <ele>464.31122</ele>
        <time>2023-06-29T15:07:52.000Z</time>
      </trkpt>
      <trkpt lat="45.8702" lon="4.80425">
        <ele>464.21924</ele>
        <time>2023-06-29T15:07:53.000Z</time>
      </trkpt>
      <trkpt lat="45.87024" lon="4.80431">
        <ele>464.19989</ele>
        <time>2023-06-29T15:07:54.000Z</time>
      </trkpt>
      <trkpt lat="45.87028" lon="4.80437">
        <ele>464.18408</ele>
        <time>2023-06-29T15:07:55.000Z</time>
      </trkpt>
      <trkpt lat="45.87032" lon="4.80443">
        <ele>464.53384</ele>
        <time>2023-06-29T15:07:56.000Z</time>
      </trkpt>
      <trkpt lat="45.87037" lon="4.80452">
        <ele>464.95685</ele>
        <time>2023-06-29T15:07:57.000Z</time>
      </trkpt>
      <trkpt lat="45.87041" lon="4.80458">
        <ele>465.72748</ele>
        <time>2023-06-29T15:07:58.000Z</time>
      </trkpt>
      <trkpt lat="45.87043" lon="4.80465">
        <ele>466.00824</ele>
        <time>2023-06-29T15:07:59.000Z</time>
      </trkpt>
      <trkpt lat="45.87045" lon="4.8047">
        <ele>466.20932</ele>
        <time>2023-06-29T15:08:00.000Z</time>
      </trkpt>
      <trkpt lat="45.87047" lon="4.80473">
        <ele>465.45883</ele>
        <time>2023-06-29T15:08:01.000Z</time>
      </trkpt>
      <trkpt lat="45.87049" lon="4.80474">
        <ele>464.75226</ele>
        <time>2023-06-29T15:08:02.000Z</time>
      </trkpt>
      <trkpt lat="45.87051" lon="4.80476">
        <ele>463.71075</ele>
        <time>2023-06-29T15:08:03.000Z</time>
      </trkpt>
      <trkpt lat="45.87053" lon="4.80475">
        <ele>462.27646</ele>
        <time>2023-06-29T15:08:06.000Z</time>
      </trkpt>
      <trkpt lat="45.87057" lon="4.80475">
        <ele>460.09464</ele>
        <time>2023-06-29T15:08:33.000Z</time>
      </trkpt>
      <trkpt lat="45.87057" lon="4.8047">
        <ele>459.38092</ele>
        <time>2023-06-29T15:08:34.000Z</time>
      </trkpt>
      <trkpt lat="45.87057" lon="4.80465">
        <ele>459.43268</ele>
        <time>2023-06-29T15:08:35.000Z</time>
      </trkpt>
      <trkpt lat="45.87056" lon="4.80459">
        <ele>459.12738</ele>
        <time>2023-06-29T15:08:36.000Z</time>
      </trkpt>
      <trkpt lat="45.87057" lon="4.80454">
        <ele>460.21338</ele>
        <time>2023-06-29T15:08:37.000Z</time>
      </trkpt>
      <trkpt lat="45.87058" lon="4.80448">
        <ele>461.42969</ele>
        <time>2023-06-29T15:08:38.000Z</time>
      </trkpt>
      <trkpt lat="45.87058" lon="4.80444">
        <ele>461.14053</ele>
        <time>2023-06-29T15:08:39.000Z</time>
      </trkpt>
      <trkpt lat="45.87058" lon="4.80439">
        <ele>460.96933</ele>
        <time>2023-06-29T15:08:40.000Z</time>
      </trkpt>
      <trkpt lat="45.87059" lon="4.80433">
        <ele>458.66422</ele>
        <time>2023-06-29T15:08:41.000Z</time>
      </trkpt>
      <trkpt lat="45.8706" lon="4.80428">
        <ele>458.854</ele>
        <time>2023-06-29T15:08:42.000Z</time>
      </trkpt>
      <trkpt lat="45.8706" lon="4.80422">
        <ele>458.84854</ele>
        <time>2023-06-29T15:08:43.000Z</time>
      </trkpt>
      <trkpt lat="45.87062" lon="4.80416">
        <ele>457.49554</ele>
        <time>2023-06-29T15:08:44.000Z</time>
      </trkpt>
      <trkpt lat="45.87064" lon="4.80411">
        <ele>456.05914</ele>
        <time>2023-06-29T15:08:45.000Z</time>
      </trkpt>
      <trkpt lat="45.87071" lon="4.80411">
        <ele>454.43195</ele>
        <time>2023-06-29T15:08:46.000Z</time>
      </trkpt>
      <trkpt lat="45.87077" lon="4.80409">
        <ele>452.89981</ele>
        <time>2023-06-29T15:08:47.000Z</time>
      </trkpt>
      <trkpt lat="45.87082" lon="4.80406">
        <ele>451.78799</ele>
        <time>2023-06-29T15:08:48.000Z</time>
      </trkpt>
      <trkpt lat="45.87089" lon="4.80403">
        <ele>451.45807</ele>
        <time>2023-06-29T15:08:49.000Z</time>
      </trkpt>
      <trkpt lat="45.87095" lon="4.80402">
        <ele>451.01425</ele>
        <time>2023-06-29T15:08:50.000Z</time>
      </trkpt>
      <trkpt lat="45.871" lon="4.80399">
        <ele>450.73349</ele>
        <time>2023-06-29T15:08:51.000Z</time>
      </trkpt>
      <trkpt lat="45.87108" lon="4.80398">
        <ele>451.43613</ele>
        <time>2023-06-29T15:08:52.000Z</time>
      </trkpt>
      <trkpt lat="45.87113" lon="4.8039">
        <ele>450.72168</ele>
        <time>2023-06-29T15:08:53.000Z</time>
      </trkpt>
      <trkpt lat="45.87119" lon="4.80387">
        <ele>450.7413</ele>
        <time>2023-06-29T15:08:54.000Z</time>
      </trkpt>
      <trkpt lat="45.87122" lon="4.80382">
        <ele>449.97437</ele>
        <time>2023-06-29T15:08:55.000Z</time>
      </trkpt>
      <trkpt lat="45.87126" lon="4.80378">
        <ele>449.50146</ele>
        <time>2023-06-29T15:08:56.000Z</time>
      </trkpt>
      <trkpt lat="45.8713" lon="4.80376">
        <ele>449.0202</ele>
        <time>2023-06-29T15:08:57.000Z</time>
      </trkpt>
      <trkpt lat="45.87139" lon="4.80375">
        <ele>448.4606</ele>
        <time>2023-06-29T15:08:58.000Z</time>
      </trkpt>
      <trkpt lat="45.87147" lon="4.80372">
        <ele>445.57266</ele>
        <time>2023-06-29T15:08:59.000Z</time>
      </trkpt>
      <trkpt lat="45.87155" lon="4.80368">
        <ele>444.79425</ele>
        <time>2023-06-29T15:09:00.000Z</time>
      </trkpt>
      <trkpt lat="45.87164" lon="4.80365">
        <ele>446.11481</ele>
        <time>2023-06-29T15:09:01.000Z</time>
      </trkpt>
      <trkpt lat="45.87171" lon="4.80363">
        <ele>444.95404</ele>
        <time>2023-06-29T15:09:02.000Z</time>
      </trkpt>
      <trkpt lat="45.87178" lon="4.8036">
        <ele>443.93448</ele>
        <time>2023-06-29T15:09:03.000Z</time>
      </trkpt>
      <trkpt lat="45.87188" lon="4.80364">
        <ele>443.91364</ele>
        <time>2023-06-29T15:09:04.000Z</time>
      </trkpt>
      <trkpt lat="45.87197" lon="4.80366">
        <ele>441.40762</ele>
        <time>2023-06-29T15:09:05.000Z</time>
      </trkpt>
      <trkpt lat="45.87206" lon="4.80366">
        <ele>441.22543</ele>
        <time>2023-06-29T15:09:06.000Z</time>
      </trkpt>
      <trkpt lat="45.87215" lon="4.80366">
        <ele>441.03165</ele>
        <time>2023-06-29T15:09:07.000Z</time>
      </trkpt>
      <trkpt lat="45.87225" lon="4.80368">
        <ele>440.43823</ele>
        <time>2023-06-29T15:09:08.000Z</time>
      </trkpt>
      <trkpt lat="45.87233" lon="4.80369">
        <ele>439.87076</ele>
        <time>2023-06-29T15:09:09.000Z</time>
      </trkpt>
      <trkpt lat="45.87243" lon="4.8037">
        <ele>439.29141</ele>
        <time>2023-06-29T15:09:10.000Z</time>
      </trkpt>
      <trkpt lat="45.87253" lon="4.80372">
        <ele>436.14142</ele>
        <time>2023-06-29T15:09:11.000Z</time>
      </trkpt>
      <trkpt lat="45.8726" lon="4.80374">
        <ele>435.4118</ele>
        <time>2023-06-29T15:09:12.000Z</time>
      </trkpt>
      <trkpt lat="45.87266" lon="4.80374">
        <ele>436.77863</ele>
        <time>2023-06-29T15:09:13.000Z</time>
      </trkpt>
      <trkpt lat="45.87271" lon="4.80376">
        <ele>436.08145</ele>
        <time>2023-06-29T15:09:14.000Z</time>
      </trkpt>
      <trkpt lat="45.87276" lon="4.80379">
        <ele>435.34845</ele>
        <time>2023-06-29T15:09:15.000Z</time>
      </trkpt>
      <trkpt lat="45.87278" lon="4.80383">
        <ele>434.61713</ele>
        <time>2023-06-29T15:09:16.000Z</time>
      </trkpt>
      <trkpt lat="45.87281" lon="4.80389">
        <ele>431.76117</ele>
        <time>2023-06-29T15:09:17.000Z</time>
      </trkpt>
      <trkpt lat="45.87283" lon="4.80395">
        <ele>430.89825</ele>
        <time>2023-06-29T15:09:18.000Z</time>
      </trkpt>
      <trkpt lat="45.87285" lon="4.80401">
        <ele>432.25961</ele>
        <time>2023-06-29T15:09:19.000Z</time>
      </trkpt>
      <trkpt lat="45.87288" lon="4.80407">
        <ele>431.59399</ele>
        <time>2023-06-29T15:09:20.000Z</time>
      </trkpt>
      <trkpt lat="45.8729" lon="4.80416">
        <ele>430.93399</ele>
        <time>2023-06-29T15:09:21.000Z</time>
      </trkpt>
      <trkpt lat="45.87293" lon="4.80423">
        <ele>430.17496</ele>
        <time>2023-06-29T15:09:22.000Z</time>
      </trkpt>
      <trkpt lat="45.87296" lon="4.80432">
        <ele>427.60806</ele>
        <time>2023-06-29T15:09:23.000Z</time>
      </trkpt>
      <trkpt lat="45.87299" lon="4.8044">
        <ele>426.79175</ele>
        <time>2023-06-29T15:09:24.000Z</time>
      </trkpt>
      <trkpt lat="45.87302" lon="4.80449">
        <ele>428.48041</ele>
        <time>2023-06-29T15:09:25.000Z</time>
      </trkpt>
      <trkpt lat="45.87304" lon="4.80457">
        <ele>427.83405</ele>
        <time>2023-06-29T15:09:26.000Z</time>
      </trkpt>
      <trkpt lat="45.87306" lon="4.80463">
        <ele>427.16446</ele>
        <time>2023-06-29T15:09:27.000Z</time>
      </trkpt>
      <trkpt lat="45.87309" lon="4.80471">
        <ele>426.4711</ele>
        <time>2023-06-29T15:09:28.000Z</time>
      </trkpt>
      <trkpt lat="45.87313" lon="4.80478">
        <ele>423.77921</ele>
        <time>2023-06-29T15:09:29.000Z</time>
      </trkpt>
      <trkpt lat="45.87316" lon="4.80484">
        <ele>422.97461</ele>
        <time>2023-06-29T15:09:30.000Z</time>
      </trkpt>
      <trkpt lat="45.87322" lon="4.80493">
        <ele>424.72266</ele>
        <time>2023-06-29T15:09:31.000Z</time>
      </trkpt>
      <trkpt lat="45.87326" lon="4.805">
        <ele>424.1517</ele>
        <time>2023-06-29T15:09:32.000Z</time>
      </trkpt>
      <trkpt lat="45.8733" lon="4.80502">
        <ele>423.58871</ele>
        <time>2023-06-29T15:09:33.000Z</time>
      </trkpt>
      <trkpt lat="45.87334" lon="4.80506">
        <ele>422.9292</ele>
        <time>2023-06-29T15:09:34.000Z</time>
      </trkpt>
      <trkpt lat="45.87341" lon="4.8051">
        <ele>419.84332</ele>
        <time>2023-06-29T15:09:35.000Z</time>
      </trkpt>
      <trkpt lat="45.87345" lon="4.80514">
        <ele>419.06805</ele>
        <time>2023-06-29T15:09:36.000Z</time>
      </trkpt>
      <trkpt lat="45.8735" lon="4.80517">
        <ele>420.4024</ele>
        <time>2023-06-29T15:09:37.000Z</time>
      </trkpt>
      <trkpt lat="45.87353" lon="4.8052">
        <ele>419.83447</ele>
        <time>2023-06-29T15:09:38.000Z</time>
      </trkpt>
      <trkpt lat="45.87359" lon="4.80528">
        <ele>419.28125</ele>
        <time>2023-06-29T15:09:39.000Z</time>
      </trkpt>
      <trkpt lat="45.87363" lon="4.80532">
        <ele>418.63232</ele>
        <time>2023-06-29T15:09:40.000Z</time>
      </trkpt>
      <trkpt lat="45.8737" lon="4.80535">
        <ele>415.37827</ele>
        <time>2023-06-29T15:09:41.000Z</time>
      </trkpt>
      <trkpt lat="45.87377" lon="4.80538">
        <ele>414.60049</ele>
        <time>2023-06-29T15:09:42.000Z</time>
      </trkpt>
      <trkpt lat="45.87382" lon="4.80541">
        <ele>415.64972</ele>
        <time>2023-06-29T15:09:43.000Z</time>
      </trkpt>
      <trkpt lat="45.8739" lon="4.80542">
        <ele>415.05182</ele>
        <time>2023-06-29T15:09:44.000Z</time>
      </trkpt>
      <trkpt lat="45.87397" lon="4.80542">
        <ele>414.46478</ele>
        <time>2023-06-29T15:09:45.000Z</time>
      </trkpt>
      <trkpt lat="45.87404" lon="4.80543">
        <ele>413.76401</ele>
        <time>2023-06-29T15:09:46.000Z</time>
      </trkpt>
      <trkpt lat="45.87412" lon="4.80545">
        <ele>410.39789</ele>
        <time>2023-06-29T15:09:47.000Z</time>
      </trkpt>
      <trkpt lat="45.87422" lon="4.80546">
        <ele>409.55957</ele>
        <time>2023-06-29T15:09:48.000Z</time>
      </trkpt>
      <trkpt lat="45.8743" lon="4.80549">
        <ele>410.70752</ele>
        <time>2023-06-29T15:09:49.000Z</time>
      </trkpt>
      <trkpt lat="45.87437" lon="4.80548">
        <ele>410.05389</ele>
        <time>2023-06-29T15:09:50.000Z</time>
      </trkpt>
      <trkpt lat="45.87446" lon="4.80549">
        <ele>409.40787</ele>
        <time>2023-06-29T15:09:51.000Z</time>
      </trkpt>
      <trkpt lat="45.87454" lon="4.80548">
        <ele>408.64212</ele>
        <time>2023-06-29T15:09:52.000Z</time>
      </trkpt>
      <trkpt lat="45.87462" lon="4.8055">
        <ele>405.2359</ele>
        <time>2023-06-29T15:09:53.000Z</time>
      </trkpt>
      <trkpt lat="45.87467" lon="4.80553">
        <ele>404.31824</ele>
        <time>2023-06-29T15:09:54.000Z</time>
      </trkpt>
      <trkpt lat="45.87473" lon="4.80556">
        <ele>405.81598</ele>
        <time>2023-06-29T15:09:55.000Z</time>
      </trkpt>
      <trkpt lat="45.87479" lon="4.8056">
        <ele>405.11459</ele>
        <time>2023-06-29T15:09:56.000Z</time>
      </trkpt>
      <trkpt lat="45.87483" lon="4.80564">
        <ele>404.41693</ele>
        <time>2023-06-29T15:09:57.000Z</time>
      </trkpt>
      <trkpt lat="45.87488" lon="4.8057">
        <ele>403.61768</ele>
        <time>2023-06-29T15:09:58.000Z</time>
      </trkpt>
      <trkpt lat="45.87489" lon="4.80573">
        <ele>399.85187</ele>
        <time>2023-06-29T15:09:59.000Z</time>
      </trkpt>
      <trkpt lat="45.87492" lon="4.80574">
        <ele>399.12076</ele>
        <time>2023-06-29T15:11:20.000Z</time>
      </trkpt>
      <trkpt lat="45.87495" lon="4.80577">
        <ele>400.9411</ele>
        <time>2023-06-29T15:11:22.000Z</time>
      </trkpt>
      <trkpt lat="45.875" lon="4.80581">
        <ele>400.92773</ele>
        <time>2023-06-29T15:11:23.000Z</time>
      </trkpt>
      <trkpt lat="45.87505" lon="4.80585">
        <ele>400.92007</ele>
        <time>2023-06-29T15:11:24.000Z</time>
      </trkpt>
      <trkpt lat="45.8751" lon="4.80589">
        <ele>400.18356</ele>
        <time>2023-06-29T15:11:25.000Z</time>
      </trkpt>
      <trkpt lat="45.87516" lon="4.80591">
        <ele>399.44016</ele>
        <time>2023-06-29T15:11:26.000Z</time>
      </trkpt>
      <trkpt lat="45.87524" lon="4.80593">
        <ele>398.6889</ele>
        <time>2023-06-29T15:11:27.000Z</time>
      </trkpt>
      <trkpt lat="45.87531" lon="4.80593">
        <ele>400.59775</ele>
        <time>2023-06-29T15:11:28.000Z</time>
      </trkpt>
      <trkpt lat="45.8754" lon="4.80594">
        <ele>400.10773</ele>
        <time>2023-06-29T15:11:29.000Z</time>
      </trkpt>
      <trkpt lat="45.87548" lon="4.80594">
        <ele>397.0462</ele>
        <time>2023-06-29T15:11:30.000Z</time>
      </trkpt>
      <trkpt lat="45.87558" lon="4.80594">
        <ele>396.36313</ele>
        <time>2023-06-29T15:11:31.000Z</time>
      </trkpt>
      <trkpt lat="45.87566" lon="4.80595">
        <ele>394.33734</ele>
        <time>2023-06-29T15:11:32.000Z</time>
      </trkpt>
      <trkpt lat="45.87574" lon="4.80596">
        <ele>392.38556</ele>
        <time>2023-06-29T15:11:33.000Z</time>
      </trkpt>
      <trkpt lat="45.87581" lon="4.80597">
        <ele>393.12729</ele>
        <time>2023-06-29T15:11:34.000Z</time>
      </trkpt>
      <trkpt lat="45.87589" lon="4.80596">
        <ele>391.33383</ele>
        <time>2023-06-29T15:11:35.000Z</time>
      </trkpt>
      <trkpt lat="45.87595" lon="4.80596">
        <ele>389.52628</ele>
        <time>2023-06-29T15:11:36.000Z</time>
      </trkpt>
      <trkpt lat="45.87599" lon="4.80596">
        <ele>387.77518</ele>
        <time>2023-06-29T15:11:37.000Z</time>
      </trkpt>
      <trkpt lat="45.87605" lon="4.80596">
        <ele>386.15097</ele>
        <time>2023-06-29T15:11:38.000Z</time>
      </trkpt>
      <trkpt lat="45.8761" lon="4.80599">
        <ele>384.51385</ele>
        <time>2023-06-29T15:11:39.000Z</time>
      </trkpt>
      <trkpt lat="45.87613" lon="4.80599">
        <ele>385.82712</ele>
        <time>2023-06-29T15:11:40.000Z</time>
      </trkpt>
      <trkpt lat="45.87616" lon="4.80598">
        <ele>383.99234</ele>
        <time>2023-06-29T15:11:41.000Z</time>
      </trkpt>
      <trkpt lat="45.87619" lon="4.80598">
        <ele>382.10751</ele>
        <time>2023-06-29T15:11:42.000Z</time>
      </trkpt>
      <trkpt lat="45.87621" lon="4.80597">
        <ele>380.45734</ele>
        <time>2023-06-29T15:11:43.000Z</time>
      </trkpt>
      <trkpt lat="45.87624" lon="4.80597">
        <ele>378.75784</ele>
        <time>2023-06-29T15:11:44.000Z</time>
      </trkpt>
      <trkpt lat="45.87628" lon="4.80598">
        <ele>377.64972</ele>
        <time>2023-06-29T15:11:45.000Z</time>
      </trkpt>
      <trkpt lat="45.87631" lon="4.80597">
        <ele>376.52304</ele>
        <time>2023-06-29T15:11:46.000Z</time>
      </trkpt>
      <trkpt lat="45.87635" lon="4.80598">
        <ele>375.3772</ele>
        <time>2023-06-29T15:11:47.000Z</time>
      </trkpt>
      <trkpt lat="45.87638" lon="4.80598">
        <ele>372.09097</ele>
        <time>2023-06-29T15:11:48.000Z</time>
      </trkpt>
      <trkpt lat="45.87641" lon="4.80598">
        <ele>370.66562</ele>
        <time>2023-06-29T15:11:49.000Z</time>
      </trkpt>
      <trkpt lat="45.87644" lon="4.80598">
        <ele>371.78247</ele>
        <time>2023-06-29T15:11:50.000Z</time>
      </trkpt>
      <trkpt lat="45.87647" lon="4.80598">
        <ele>370.51929</ele>
        <time>2023-06-29T15:11:51.000Z</time>
      </trkpt>
      <trkpt lat="45.87651" lon="4.80598">
        <ele>370.56836</ele>
        <time>2023-06-29T15:11:52.000Z</time>
      </trkpt>
      <trkpt lat="45.87654" lon="4.80598">
        <ele>370.57819</ele>
        <time>2023-06-29T15:11:53.000Z</time>
      </trkpt>
      <trkpt lat="45.87658" lon="4.80597">
        <ele>368.85342</ele>
        <time>2023-06-29T15:11:54.000Z</time>
      </trkpt>
      <trkpt lat="45.87662" lon="4.80597">
        <ele>368.82779</ele>
        <time>2023-06-29T15:11:55.000Z</time>
      </trkpt>
      <trkpt lat="45.87665" lon="4.80598">
        <ele>368.86081</ele>
        <time>2023-06-29T15:11:56.000Z</time>
      </trkpt>
      <trkpt lat="45.87669" lon="4.80598">
        <ele>368.76416</ele>
        <time>2023-06-29T15:11:57.000Z</time>
      </trkpt>
      <trkpt lat="45.87672" lon="4.80598">
        <ele>368.57083</ele>
        <time>2023-06-29T15:11:58.000Z</time>
      </trkpt>
      <trkpt lat="45.87675" lon="4.80599">
        <ele>368.41562</ele>
        <time>2023-06-29T15:11:59.000Z</time>
      </trkpt>
      <trkpt lat="45.87678" lon="4.80599">
        <ele>366.41272</ele>
        <time>2023-06-29T15:12:00.000Z</time>
      </trkpt>
      <trkpt lat="45.87681" lon="4.80599">
        <ele>366.33524</ele>
        <time>2023-06-29T15:12:01.000Z</time>
      </trkpt>
      <trkpt lat="45.87683" lon="4.80598">
        <ele>366.39084</ele>
        <time>2023-06-29T15:12:02.000Z</time>
      </trkpt>
      <trkpt lat="45.87685" lon="4.80595">
        <ele>365.60501</ele>
        <time>2023-06-29T15:12:03.000Z</time>
      </trkpt>
      <trkpt lat="45.87687" lon="4.80589">
        <ele>364.86237</ele>
        <time>2023-06-29T15:12:04.000Z</time>
      </trkpt>
      <trkpt lat="45.87687" lon="4.80579">
        <ele>364.1676</ele>
        <time>2023-06-29T15:12:05.000Z</time>
      </trkpt>
      <trkpt lat="45.87688" lon="4.80571">
        <ele>361.70294</ele>
        <time>2023-06-29T15:12:06.000Z</time>
      </trkpt>
      <trkpt lat="45.87689" lon="4.80562">
        <ele>360.96198</ele>
        <time>2023-06-29T15:12:07.000Z</time>
      </trkpt>
      <trkpt lat="45.8769" lon="4.80553">
        <ele>362.36182</ele>
        <time>2023-06-29T15:12:08.000Z</time>
      </trkpt>
      <trkpt lat="45.87691" lon="4.80544">
        <ele>361.87537</ele>
        <time>2023-06-29T15:12:09.000Z</time>
      </trkpt>
      <trkpt lat="45.87692" lon="4.80534">
        <ele>361.43585</ele>
        <time>2023-06-29T15:12:10.000Z</time>
      </trkpt>
      <trkpt lat="45.87694" lon="4.80526">
        <ele>360.91852</ele>
        <time>2023-06-29T15:12:11.000Z</time>
      </trkpt>
      <trkpt lat="45.87695" lon="4.80517">
        <ele>358.67929</ele>
        <time>2023-06-29T15:12:12.000Z</time>
      </trkpt>
      <trkpt lat="45.87697" lon="4.80509">
        <ele>358.08484</ele>
        <time>2023-06-29T15:12:13.000Z</time>
      </trkpt>
      <trkpt lat="45.87699" lon="4.80502">
        <ele>359.17072</ele>
        <time>2023-06-29T15:12:14.000Z</time>
      </trkpt>
      <trkpt lat="45.877" lon="4.80497">
        <ele>358.68658</ele>
        <time>2023-06-29T15:12:15.000Z</time>
      </trkpt>
      <trkpt lat="45.87703" lon="4.80491">
        <ele>358.1795</ele>
        <time>2023-06-29T15:12:16.000Z</time>
      </trkpt>
      <trkpt lat="45.87703" lon="4.80488">
        <ele>357.64545</ele>
        <time>2023-06-29T15:12:17.000Z</time>
      </trkpt>
      <trkpt lat="45.87702" lon="4.80485">
        <ele>355.38101</ele>
        <time>2023-06-29T15:12:18.000Z</time>
      </trkpt>
      <trkpt lat="45.87698" lon="4.80483">
        <ele>353.32599</ele>
        <time>2023-06-29T15:12:34.000Z</time>
      </trkpt>
      <trkpt lat="45.87695" lon="4.80483">
        <ele>353.15475</ele>
        <time>2023-06-29T15:12:35.000Z</time>
      </trkpt>
      <trkpt lat="45.87693" lon="4.80483">
        <ele>351.20148</ele>
        <time>2023-06-29T15:12:36.000Z</time>
      </trkpt>
      <trkpt lat="45.87691" lon="4.80482">
        <ele>349.30402</ele>
        <time>2023-06-29T15:12:37.000Z</time>
      </trkpt>
      <trkpt lat="45.87689" lon="4.80482">
        <ele>347.42947</ele>
        <time>2023-06-29T15:12:38.000Z</time>
      </trkpt>
      <trkpt lat="45.87686" lon="4.80481">
        <ele>345.59796</ele>
        <time>2023-06-29T15:12:39.000Z</time>
      </trkpt>
      <trkpt lat="45.87684" lon="4.80481">
        <ele>343.77893</ele>
        <time>2023-06-29T15:12:40.000Z</time>
      </trkpt>
      <trkpt lat="45.87681" lon="4.8048">
        <ele>343.76938</ele>
        <time>2023-06-29T15:12:41.000Z</time>
      </trkpt>
      <trkpt lat="45.87679" lon="4.8048">
        <ele>342.10547</ele>
        <time>2023-06-29T15:12:42.000Z</time>
      </trkpt>
      <trkpt lat="45.87676" lon="4.80479">
        <ele>341.38092</ele>
        <time>2023-06-29T15:12:43.000Z</time>
      </trkpt>
      <trkpt lat="45.87674" lon="4.80477">
        <ele>339.82379</ele>
        <time>2023-06-29T15:12:44.000Z</time>
      </trkpt>
      <trkpt lat="45.87671" lon="4.80476">
        <ele>338.83978</ele>
        <time>2023-06-29T15:12:45.000Z</time>
      </trkpt>
      <trkpt lat="45.87668" lon="4.80474">
        <ele>336.7081</ele>
        <time>2023-06-29T15:12:46.000Z</time>
      </trkpt>
      <trkpt lat="45.87666" lon="4.80472">
        <ele>336.49512</ele>
        <time>2023-06-29T15:12:47.000Z</time>
      </trkpt>
      <trkpt lat="45.87664" lon="4.8047">
        <ele>334.66382</ele>
        <time>2023-06-29T15:12:48.000Z</time>
      </trkpt>
      <trkpt lat="45.87661" lon="4.80469">
        <ele>332.84644</ele>
        <time>2023-06-29T15:12:49.000Z</time>
      </trkpt>
      <trkpt lat="45.87659" lon="4.80467">
        <ele>330.99124</ele>
        <time>2023-06-29T15:12:50.000Z</time>
      </trkpt>
      <trkpt lat="45.87657" lon="4.80466">
        <ele>329.14935</ele>
        <time>2023-06-29T15:12:51.000Z</time>
      </trkpt>
      <trkpt lat="45.87654" lon="4.80464">
        <ele>327.383</ele>
        <time>2023-06-29T15:12:52.000Z</time>
      </trkpt>
      <trkpt lat="45.87652" lon="4.80462">
        <ele>327.34842</ele>
        <time>2023-06-29T15:12:53.000Z</time>
      </trkpt>
      <trkpt lat="45.87649" lon="4.80459">
        <ele>327.20325</ele>
        <time>2023-06-29T15:12:54.000Z</time>
      </trkpt>
      <trkpt lat="45.87646" lon="4.80457">
        <ele>326.83047</ele>
        <time>2023-06-29T15:12:55.000Z</time>
      </trkpt>
      <trkpt lat="45.87644" lon="4.80455">
        <ele>326.51041</ele>
        <time>2023-06-29T15:12:56.000Z</time>
      </trkpt>
      <trkpt lat="45.87641" lon="4.80454">
        <ele>326.13058</ele>
        <time>2023-06-29T15:12:57.000Z</time>
      </trkpt>
      <trkpt lat="45.87638" lon="4.80452">
        <ele>325.77017</ele>
        <time>2023-06-29T15:12:58.000Z</time>
      </trkpt>
      <trkpt lat="45.87635" lon="4.8045">
        <ele>325.39951</ele>
        <time>2023-06-29T15:12:59.000Z</time>
      </trkpt>
      <trkpt lat="45.87633" lon="4.80447">
        <ele>325.06888</ele>
        <time>2023-06-29T15:13:00.000Z</time>
      </trkpt>
      <trkpt lat="45.8763" lon="4.80445">
        <ele>324.76822</ele>
        <time>2023-06-29T15:13:01.000Z</time>
      </trkpt>
      <trkpt lat="45.87628" lon="4.80443">
        <ele>324.47745</ele>
        <time>2023-06-29T15:13:02.000Z</time>
      </trkpt>
      <trkpt lat="45.87625" lon="4.8044">
        <ele>323.31601</ele>
        <time>2023-06-29T15:13:03.000Z</time>
      </trkpt>
      <trkpt lat="45.87623" lon="4.80438">
        <ele>322.89639</ele>
        <time>2023-06-29T15:13:04.000Z</time>
      </trkpt>
      <trkpt lat="45.87621" lon="4.80436">
        <ele>321.95013</ele>
        <time>2023-06-29T15:13:05.000Z</time>
      </trkpt>
      <trkpt lat="45.87618" lon="4.80435">
        <ele>322.2081</ele>
        <time>2023-06-29T15:13:06.000Z</time>
      </trkpt>
      <trkpt lat="45.87616" lon="4.80434">
        <ele>322.24478</ele>
        <time>2023-06-29T15:13:07.000Z</time>
      </trkpt>
      <trkpt lat="45.87614" lon="4.80433">
        <ele>320.84891</ele>
        <time>2023-06-29T15:13:08.000Z</time>
      </trkpt>
      <trkpt lat="45.87611" lon="4.80432">
        <ele>319.44092</ele>
        <time>2023-06-29T15:13:09.000Z</time>
      </trkpt>
      <trkpt lat="45.87609" lon="4.80431">
        <ele>318.04895</ele>
        <time>2023-06-29T15:13:10.000Z</time>
      </trkpt>
      <trkpt lat="45.87606" lon="4.8043">
        <ele>316.67584</ele>
        <time>2023-06-29T15:13:11.000Z</time>
      </trkpt>
      <trkpt lat="45.87603" lon="4.80429">
        <ele>315.23944</ele>
        <time>2023-06-29T15:13:12.000Z</time>
      </trkpt>
      <trkpt lat="45.87601" lon="4.80429">
        <ele>313.78308</ele>
        <time>2023-06-29T15:13:13.000Z</time>
      </trkpt>
      <trkpt lat="45.87598" lon="4.80429">
        <ele>312.10278</ele>
        <time>2023-06-29T15:13:14.000Z</time>
      </trkpt>
      <trkpt lat="45.87594" lon="4.80429">
        <ele>312.46536</ele>
        <time>2023-06-29T15:13:15.000Z</time>
      </trkpt>
      <trkpt lat="45.87591" lon="4.80429">
        <ele>312.81277</ele>
        <time>2023-06-29T15:13:16.000Z</time>
      </trkpt>
      <trkpt lat="45.87588" lon="4.80429">
        <ele>313.19379</ele>
        <time>2023-06-29T15:13:17.000Z</time>
      </trkpt>
      <trkpt lat="45.87585" lon="4.80429">
        <ele>312.76892</ele>
        <time>2023-06-29T15:13:18.000Z</time>
      </trkpt>
      <trkpt lat="45.87582" lon="4.80429">
        <ele>311.55157</ele>
        <time>2023-06-29T15:13:19.000Z</time>
      </trkpt>
      <trkpt lat="45.87579" lon="4.8043">
        <ele>310.29999</ele>
        <time>2023-06-29T15:13:20.000Z</time>
      </trkpt>
      <trkpt lat="45.87575" lon="4.8043">
        <ele>308.98862</ele>
        <time>2023-06-29T15:13:21.000Z</time>
      </trkpt>
      <trkpt lat="45.87572" lon="4.8043">
        <ele>307.6712</ele>
        <time>2023-06-29T15:13:22.000Z</time>
      </trkpt>
      <trkpt lat="45.87569" lon="4.80431">
        <ele>306.33508</ele>
        <time>2023-06-29T15:13:23.000Z</time>
      </trkpt>
      <trkpt lat="45.87566" lon="4.80431">
        <ele>305.04889</ele>
        <time>2023-06-29T15:13:24.000Z</time>
      </trkpt>
      <trkpt lat="45.87563" lon="4.80431">
        <ele>303.75836</ele>
        <time>2023-06-29T15:13:25.000Z</time>
      </trkpt>
      <trkpt lat="45.8756" lon="4.8043">
        <ele>302.45578</ele>
        <time>2023-06-29T15:13:26.000Z</time>
      </trkpt>
      <trkpt lat="45.87557" lon="4.8043">
        <ele>301.24493</ele>
        <time>2023-06-29T15:13:27.000Z</time>
      </trkpt>
      <trkpt lat="45.87554" lon="4.80429">
        <ele>301.46942</ele>
        <time>2023-06-29T15:13:28.000Z</time>
      </trkpt>
      <trkpt lat="45.87551" lon="4.80429">
        <ele>301.72128</ele>
        <time>2023-06-29T15:13:29.000Z</time>
      </trkpt>
      <trkpt lat="45.87548" lon="4.80429">
        <ele>301.96649</ele>
        <time>2023-06-29T15:13:30.000Z</time>
      </trkpt>
      <trkpt lat="45.87545" lon="4.80429">
        <ele>302.20636</ele>
        <time>2023-06-29T15:13:31.000Z</time>
      </trkpt>
      <trkpt lat="45.87542" lon="4.80429">
        <ele>302.47836</ele>
        <time>2023-06-29T15:13:32.000Z</time>
      </trkpt>
      <trkpt lat="45.87539" lon="4.8043">
        <ele>302.79413</ele>
        <time>2023-06-29T15:13:33.000Z</time>
      </trkpt>
      <trkpt lat="45.87536" lon="4.8043">
        <ele>303.26447</ele>
        <time>2023-06-29T15:13:34.000Z</time>
      </trkpt>
      <trkpt lat="45.87533" lon="4.80431">
        <ele>301.93646</ele>
        <time>2023-06-29T15:13:35.000Z</time>
      </trkpt>
      <trkpt lat="45.8753" lon="4.80431">
        <ele>300.54913</ele>
        <time>2023-06-29T15:13:36.000Z</time>
      </trkpt>
      <trkpt lat="45.87527" lon="4.80431">
        <ele>299.1561</ele>
        <time>2023-06-29T15:13:37.000Z</time>
      </trkpt>
      <trkpt lat="45.87525" lon="4.8043">
        <ele>298.45422</ele>
        <time>2023-06-29T15:13:38.000Z</time>
      </trkpt>
      <trkpt lat="45.87522" lon="4.8043">
        <ele>298.51617</ele>
        <time>2023-06-29T15:13:39.000Z</time>
      </trkpt>
      <trkpt lat="45.8752" lon="4.80429">
        <ele>298.60013</ele>
        <time>2023-06-29T15:13:40.000Z</time>
      </trkpt>
      <trkpt lat="45.87518" lon="4.80429">
        <ele>298.73386</ele>
        <time>2023-06-29T15:13:41.000Z</time>
      </trkpt>
      <trkpt lat="45.87515" lon="4.80428">
        <ele>300.62991</ele>
        <time>2023-06-29T15:13:42.000Z</time>
      </trkpt>
      <trkpt lat="45.87512" lon="4.80427">
        <ele>300.83539</ele>
        <time>2023-06-29T15:13:43.000Z</time>
      </trkpt>
      <trkpt lat="45.87509" lon="4.80426">
        <ele>301.022</ele>
        <time>2023-06-29T15:13:44.000Z</time>
      </trkpt>
      <trkpt lat="45.87506" lon="4.80425">
        <ele>301.2001</ele>
        <time>2023-06-29T15:13:45.000Z</time>
      </trkpt>
      <trkpt lat="45.87504" lon="4.80423">
        <ele>301.36459</ele>
        <time>2023-06-29T15:13:46.000Z</time>
      </trkpt>
      <trkpt lat="45.87501" lon="4.80421">
        <ele>301.53326</ele>
        <time>2023-06-29T15:13:47.000Z</time>
      </trkpt>
      <trkpt lat="45.87499" lon="4.8042">
        <ele>303.36905</ele>
        <time>2023-06-29T15:13:48.000Z</time>
      </trkpt>
      <trkpt lat="45.87496" lon="4.80418">
        <ele>303.60678</ele>
        <time>2023-06-29T15:13:49.000Z</time>
      </trkpt>
      <trkpt lat="45.87494" lon="4.80416">
        <ele>303.83054</ele>
        <time>2023-06-29T15:13:50.000Z</time>
      </trkpt>
      <trkpt lat="45.87492" lon="4.80413">
        <ele>304.06293</ele>
        <time>2023-06-29T15:13:51.000Z</time>
      </trkpt>
      <trkpt lat="45.8749" lon="4.80411">
        <ele>304.28778</ele>
        <time>2023-06-29T15:13:52.000Z</time>
      </trkpt>
      <trkpt lat="45.87488" lon="4.80409">
        <ele>304.5036</ele>
        <time>2023-06-29T15:13:53.000Z</time>
      </trkpt>
      <trkpt lat="45.87485" lon="4.80407">
        <ele>306.30823</ele>
        <time>2023-06-29T15:13:54.000Z</time>
      </trkpt>
      <trkpt lat="45.87483" lon="4.80405">
        <ele>306.59677</ele>
        <time>2023-06-29T15:13:55.000Z</time>
      </trkpt>
      <trkpt lat="45.8748" lon="4.80402">
        <ele>306.91925</ele>
        <time>2023-06-29T15:13:56.000Z</time>
      </trkpt>
      <trkpt lat="45.87478" lon="4.80399">
        <ele>308.65985</ele>
        <time>2023-06-29T15:13:57.000Z</time>
      </trkpt>
      <trkpt lat="45.87476" lon="4.80397">
        <ele>310.49789</ele>
        <time>2023-06-29T15:13:58.000Z</time>
      </trkpt>
      <trkpt lat="45.87474" lon="4.80395">
        <ele>312.40115</ele>
        <time>2023-06-29T15:13:59.000Z</time>
      </trkpt>
      <trkpt lat="45.87471" lon="4.80393">
        <ele>314.30957</ele>
        <time>2023-06-29T15:14:00.000Z</time>
      </trkpt>
      <trkpt lat="45.87468" lon="4.80391">
        <ele>316.23691</ele>
        <time>2023-06-29T15:14:01.000Z</time>
      </trkpt>
      <trkpt lat="45.87466" lon="4.80389">
        <ele>316.38477</ele>
        <time>2023-06-29T15:14:02.000Z</time>
      </trkpt>
      <trkpt lat="45.87464" lon="4.80387">
        <ele>318.33173</ele>
        <time>2023-06-29T15:14:03.000Z</time>
      </trkpt>
      <trkpt lat="45.87462" lon="4.80384">
        <ele>320.25946</ele>
        <time>2023-06-29T15:14:04.000Z</time>
      </trkpt>
      <trkpt lat="45.8746" lon="4.80382">
        <ele>322.19412</ele>
        <time>2023-06-29T15:14:05.000Z</time>
      </trkpt>
      <trkpt lat="45.87458" lon="4.8038">
        <ele>324.1442</ele>
        <time>2023-06-29T15:14:06.000Z</time>
      </trkpt>
      <trkpt lat="45.87455" lon="4.80378">
        <ele>326.10101</ele>
        <time>2023-06-29T15:14:07.000Z</time>
      </trkpt>
      <trkpt lat="45.87453" lon="4.80376">
        <ele>326.36642</ele>
        <time>2023-06-29T15:14:08.000Z</time>
      </trkpt>
      <trkpt lat="45.8745" lon="4.80374">
        <ele>328.26495</ele>
        <time>2023-06-29T15:14:09.000Z</time>
      </trkpt>
      <trkpt lat="45.87448" lon="4.80373">
        <ele>330.1076</ele>
        <time>2023-06-29T15:14:10.000Z</time>
      </trkpt>
      <trkpt lat="45.87446" lon="4.8037">
        <ele>331.96637</ele>
        <time>2023-06-29T15:14:11.000Z</time>
      </trkpt>
      <trkpt lat="45.87443" lon="4.80368">
        <ele>333.84122</ele>
        <time>2023-06-29T15:14:12.000Z</time>
      </trkpt>
      <trkpt lat="45.87441" lon="4.80366">
        <ele>335.74567</ele>
        <time>2023-06-29T15:14:13.000Z</time>
      </trkpt>
      <trkpt lat="45.87439" lon="4.80364">
        <ele>336.07632</ele>
        <time>2023-06-29T15:14:14.000Z</time>
      </trkpt>
      <trkpt lat="45.87436" lon="4.80361">
        <ele>337.92801</ele>
        <time>2023-06-29T15:14:15.000Z</time>
      </trkpt>
      <trkpt lat="45.87434" lon="4.80359">
        <ele>339.80664</ele>
        <time>2023-06-29T15:14:16.000Z</time>
      </trkpt>
      <trkpt lat="45.87432" lon="4.80356">
        <ele>340.26108</ele>
        <time>2023-06-29T15:14:17.000Z</time>
      </trkpt>
      <trkpt lat="45.8743" lon="4.80354">
        <ele>340.6958</ele>
        <time>2023-06-29T15:14:18.000Z</time>
      </trkpt>
      <trkpt lat="45.87428" lon="4.80352">
        <ele>341.1106</ele>
        <time>2023-06-29T15:14:19.000Z</time>
      </trkpt>
      <trkpt lat="45.87426" lon="4.8035">
        <ele>341.52167</ele>
        <time>2023-06-29T15:14:20.000Z</time>
      </trkpt>
      <trkpt lat="45.87424" lon="4.80348">
        <ele>341.9292</ele>
        <time>2023-06-29T15:14:21.000Z</time>
      </trkpt>
      <trkpt lat="45.87422" lon="4.80346">
        <ele>342.36749</ele>
        <time>2023-06-29T15:14:22.000Z</time>
      </trkpt>
      <trkpt lat="45.8742" lon="4.80344">
        <ele>342.69812</ele>
        <time>2023-06-29T15:14:23.000Z</time>
      </trkpt>
      <trkpt lat="45.87418" lon="4.80342">
        <ele>342.86353</ele>
        <time>2023-06-29T15:14:24.000Z</time>
      </trkpt>
      <trkpt lat="45.87416" lon="4.8034">
        <ele>343.02094</ele>
        <time>2023-06-29T15:14:25.000Z</time>
      </trkpt>
      <trkpt lat="45.87414" lon="4.80338">
        <ele>343.16193</ele>
        <time>2023-06-29T15:14:26.000Z</time>
      </trkpt>
      <trkpt lat="45.87413" lon="4.80336">
        <ele>343.29498</ele>
        <time>2023-06-29T15:14:27.000Z</time>
      </trkpt>
      <trkpt lat="45.87411" lon="4.80334">
        <ele>343.63022</ele>
        <time>2023-06-29T15:14:28.000Z</time>
      </trkpt>
      <trkpt lat="45.8741" lon="4.80331">
        <ele>343.95309</ele>
        <time>2023-06-29T15:14:29.000Z</time>
      </trkpt>
      <trkpt lat="45.87408" lon="4.80328">
        <ele>344.3309</ele>
        <time>2023-06-29T15:14:30.000Z</time>
      </trkpt>
      <trkpt lat="45.87407" lon="4.80325">
        <ele>344.68051</ele>
        <time>2023-06-29T15:14:31.000Z</time>
      </trkpt>
      <trkpt lat="45.87406" lon="4.80322">
        <ele>344.83658</ele>
        <time>2023-06-29T15:14:32.000Z</time>
      </trkpt>
      <trkpt lat="45.87406" lon="4.80318">
        <ele>344.95956</ele>
        <time>2023-06-29T15:14:33.000Z</time>
      </trkpt>
      <trkpt lat="45.87405" lon="4.80315">
        <ele>345.05389</ele>
        <time>2023-06-29T15:14:34.000Z</time>
      </trkpt>
      <trkpt lat="45.87406" lon="4.80312">
        <ele>345.13947</ele>
        <time>2023-06-29T15:14:35.000Z</time>
      </trkpt>
      <trkpt lat="45.87406" lon="4.80309">
        <ele>345.18799</ele>
        <time>2023-06-29T15:14:36.000Z</time>
      </trkpt>
      <trkpt lat="45.87408" lon="4.80306">
        <ele>348.34137</ele>
        <time>2023-06-29T15:14:37.000Z</time>
      </trkpt>
      <trkpt lat="45.87409" lon="4.80303">
        <ele>348.52789</ele>
        <time>2023-06-29T15:14:38.000Z</time>
      </trkpt>
      <trkpt lat="45.87411" lon="4.803">
        <ele>348.71353</ele>
        <time>2023-06-29T15:14:39.000Z</time>
      </trkpt>
      <trkpt lat="45.87413" lon="4.80298">
        <ele>348.9039</ele>
        <time>2023-06-29T15:14:40.000Z</time>
      </trkpt>
      <trkpt lat="45.87416" lon="4.80295">
        <ele>349.0842</ele>
        <time>2023-06-29T15:14:41.000Z</time>
      </trkpt>
      <trkpt lat="45.87418" lon="4.80294">
        <ele>349.24319</ele>
        <time>2023-06-29T15:14:42.000Z</time>
      </trkpt>
      <trkpt lat="45.87421" lon="4.80293">
        <ele>352.48276</ele>
        <time>2023-06-29T15:14:43.000Z</time>
      </trkpt>
      <trkpt lat="45.87424" lon="4.80291">
        <ele>352.97198</ele>
        <time>2023-06-29T15:14:44.000Z</time>
      </trkpt>
      <trkpt lat="45.87426" lon="4.8029">
        <ele>353.47742</ele>
        <time>2023-06-29T15:14:45.000Z</time>
      </trkpt>
      <trkpt lat="45.87429" lon="4.80288">
        <ele>354.00024</ele>
        <time>2023-06-29T15:14:46.000Z</time>
      </trkpt>
      <trkpt lat="45.87431" lon="4.80286">
        <ele>354.54214</ele>
        <time>2023-06-29T15:14:47.000Z</time>
      </trkpt>
      <trkpt lat="45.87433" lon="4.80284">
        <ele>354.90155</ele>
        <time>2023-06-29T15:14:48.000Z</time>
      </trkpt>
      <trkpt lat="45.87435" lon="4.80282">
        <ele>358.091</ele>
        <time>2023-06-29T15:14:49.000Z</time>
      </trkpt>
      <trkpt lat="45.87437" lon="4.8028">
        <ele>358.59476</ele>
        <time>2023-06-29T15:14:50.000Z</time>
      </trkpt>
      <trkpt lat="45.87439" lon="4.80277">
        <ele>359.12457</ele>
        <time>2023-06-29T15:14:51.000Z</time>
      </trkpt>
      <trkpt lat="45.87441" lon="4.80274">
        <ele>359.84674</ele>
        <time>2023-06-29T15:14:52.000Z</time>
      </trkpt>
      <trkpt lat="45.87444" lon="4.80271">
        <ele>360.59726</ele>
        <time>2023-06-29T15:14:53.000Z</time>
      </trkpt>
      <trkpt lat="45.87446" lon="4.80269">
        <ele>361.37915</ele>
        <time>2023-06-29T15:14:54.000Z</time>
      </trkpt>
      <trkpt lat="45.87449" lon="4.80266">
        <ele>364.77518</ele>
        <time>2023-06-29T15:14:55.000Z</time>
      </trkpt>
      <trkpt lat="45.87451" lon="4.80264">
        <ele>365.75696</ele>
        <time>2023-06-29T15:14:56.000Z</time>
      </trkpt>
      <trkpt lat="45.87453" lon="4.80262">
        <ele>363.66888</ele>
        <time>2023-06-29T15:14:57.000Z</time>
      </trkpt>
      <trkpt lat="45.87456" lon="4.8026">
        <ele>364.43524</ele>
        <time>2023-06-29T15:14:58.000Z</time>
      </trkpt>
      <trkpt lat="45.87458" lon="4.80257">
        <ele>366.63324</ele>
        <time>2023-06-29T15:14:59.000Z</time>
      </trkpt>
      <trkpt lat="45.87461" lon="4.80255">
        <ele>367.52924</ele>
        <time>2023-06-29T15:15:00.000Z</time>
      </trkpt>
      <trkpt lat="45.87463" lon="4.80253">
        <ele>368.46051</ele>
        <time>2023-06-29T15:15:01.000Z</time>
      </trkpt>
      <trkpt lat="45.87466" lon="4.80252">
        <ele>369.42932</ele>
        <time>2023-06-29T15:15:02.000Z</time>
      </trkpt>
      <trkpt lat="45.87468" lon="4.8025">
        <ele>367.35211</ele>
        <time>2023-06-29T15:15:03.000Z</time>
      </trkpt>
      <trkpt lat="45.87471" lon="4.80248">
        <ele>368.09555</ele>
        <time>2023-06-29T15:15:04.000Z</time>
      </trkpt>
      <trkpt lat="45.87473" lon="4.80246">
        <ele>370.47128</ele>
        <time>2023-06-29T15:15:05.000Z</time>
      </trkpt>
      <trkpt lat="45.87476" lon="4.80244">
        <ele>372.79108</ele>
        <time>2023-06-29T15:15:06.000Z</time>
      </trkpt>
      <trkpt lat="45.87478" lon="4.80242">
        <ele>375.10617</ele>
        <time>2023-06-29T15:15:07.000Z</time>
      </trkpt>
      <trkpt lat="45.8748" lon="4.8024">
        <ele>377.40036</ele>
        <time>2023-06-29T15:15:08.000Z</time>
      </trkpt>
      <trkpt lat="45.87483" lon="4.80238">
        <ele>376.8703</ele>
        <time>2023-06-29T15:15:09.000Z</time>
      </trkpt>
      <trkpt lat="45.87485" lon="4.80237">
        <ele>377.80927</ele>
        <time>2023-06-29T15:15:10.000Z</time>
      </trkpt>
      <trkpt lat="45.87488" lon="4.80235">
        <ele>378.76999</ele>
        <time>2023-06-29T15:15:11.000Z</time>
      </trkpt>
      <trkpt lat="45.8749" lon="4.80233">
        <ele>379.75226</ele>
        <time>2023-06-29T15:15:12.000Z</time>
      </trkpt>
      <trkpt lat="45.87493" lon="4.80232">
        <ele>380.74756</ele>
        <time>2023-06-29T15:15:13.000Z</time>
      </trkpt>
      <trkpt lat="45.87495" lon="4.8023">
        <ele>381.75507</ele>
        <time>2023-06-29T15:15:14.000Z</time>
      </trkpt>
      <trkpt lat="45.87497" lon="4.80228">
        <ele>377.8288</ele>
        <time>2023-06-29T15:15:15.000Z</time>
      </trkpt>
      <trkpt lat="45.87499" lon="4.80226">
        <ele>378.48145</ele>
        <time>2023-06-29T15:15:16.000Z</time>
      </trkpt>
      <trkpt lat="45.87501" lon="4.80224">
        <ele>379.11768</ele>
        <time>2023-06-29T15:15:17.000Z</time>
      </trkpt>
      <trkpt lat="45.87503" lon="4.80221">
        <ele>379.89011</ele>
        <time>2023-06-29T15:15:18.000Z</time>
      </trkpt>
      <trkpt lat="45.87505" lon="4.80218">
        <ele>379.26025</ele>
        <time>2023-06-29T15:15:19.000Z</time>
      </trkpt>
      <trkpt lat="45.87506" lon="4.80215">
        <ele>379.8916</ele>
        <time>2023-06-29T15:15:20.000Z</time>
      </trkpt>
      <trkpt lat="45.87506" lon="4.80211">
        <ele>378.30127</ele>
        <time>2023-06-29T15:15:21.000Z</time>
      </trkpt>
      <trkpt lat="45.87506" lon="4.80208">
        <ele>378.7933</ele>
        <time>2023-06-29T15:15:22.000Z</time>
      </trkpt>
      <trkpt lat="45.87505" lon="4.80204">
        <ele>379.26154</ele>
        <time>2023-06-29T15:15:23.000Z</time>
      </trkpt>
      <trkpt lat="45.87505" lon="4.80202">
        <ele>379.85699</ele>
        <time>2023-06-29T15:15:24.000Z</time>
      </trkpt>
      <trkpt lat="45.87506" lon="4.80196">
        <ele>378.8255</ele>
        <time>2023-06-29T15:15:26.000Z</time>
      </trkpt>
      <trkpt lat="45.87507" lon="4.80192">
        <ele>375.61163</ele>
        <time>2023-06-29T15:15:27.000Z</time>
      </trkpt>
      <trkpt lat="45.87508" lon="4.80188">
        <ele>374.37711</ele>
        <time>2023-06-29T15:15:28.000Z</time>
      </trkpt>
      <trkpt lat="45.87508" lon="4.80184">
        <ele>373.07465</ele>
        <time>2023-06-29T15:15:29.000Z</time>
      </trkpt>
      <trkpt lat="45.87508" lon="4.80181">
        <ele>370.77573</ele>
        <time>2023-06-29T15:15:30.000Z</time>
      </trkpt>
      <trkpt lat="45.87509" lon="4.80177">
        <ele>369.69086</ele>
        <time>2023-06-29T15:15:31.000Z</time>
      </trkpt>
      <trkpt lat="45.87509" lon="4.80173">
        <ele>368.92892</ele>
        <time>2023-06-29T15:15:32.000Z</time>
      </trkpt>
      <trkpt lat="45.87509" lon="4.80169">
        <ele>368.88013</ele>
        <time>2023-06-29T15:15:33.000Z</time>
      </trkpt>
      <trkpt lat="45.87509" lon="4.80165">
        <ele>368.55121</ele>
        <time>2023-06-29T15:15:34.000Z</time>
      </trkpt>
      <trkpt lat="45.87509" lon="4.80161">
        <ele>368.23557</ele>
        <time>2023-06-29T15:15:35.000Z</time>
      </trkpt>
      <trkpt lat="45.87509" lon="4.80157">
        <ele>370.22598</ele>
        <time>2023-06-29T15:15:36.000Z</time>
      </trkpt>
      <trkpt lat="45.87509" lon="4.80153">
        <ele>370.41306</ele>
        <time>2023-06-29T15:15:37.000Z</time>
      </trkpt>
      <trkpt lat="45.87508" lon="4.80149">
        <ele>370.54013</ele>
        <time>2023-06-29T15:15:38.000Z</time>
      </trkpt>
      <trkpt lat="45.87508" lon="4.80145">
        <ele>370.63757</ele>
        <time>2023-06-29T15:15:39.000Z</time>
      </trkpt>
      <trkpt lat="45.87507" lon="4.80141">
        <ele>370.70084</ele>
        <time>2023-06-29T15:15:40.000Z</time>
      </trkpt>
      <trkpt lat="45.87505" lon="4.80137">
        <ele>371.0231</ele>
        <time>2023-06-29T15:15:41.000Z</time>
      </trkpt>
      <trkpt lat="45.87504" lon="4.80133">
        <ele>373.6673</ele>
        <time>2023-06-29T15:15:42.000Z</time>
      </trkpt>
      <trkpt lat="45.87502" lon="4.8013">
        <ele>374.19623</ele>
        <time>2023-06-29T15:15:43.000Z</time>
      </trkpt>
      <trkpt lat="45.875" lon="4.80127">
        <ele>374.2457</ele>
        <time>2023-06-29T15:15:44.000Z</time>
      </trkpt>
      <trkpt lat="45.87498" lon="4.80124">
        <ele>374.36053</ele>
        <time>2023-06-29T15:15:45.000Z</time>
      </trkpt>
      <trkpt lat="45.87496" lon="4.80121">
        <ele>374.4458</ele>
        <time>2023-06-29T15:15:46.000Z</time>
      </trkpt>
      <trkpt lat="45.87494" lon="4.80118">
        <ele>376.74237</ele>
        <time>2023-06-29T15:15:47.000Z</time>
      </trkpt>
      <trkpt lat="45.87492" lon="4.80115">
        <ele>377.03751</ele>
        <time>2023-06-29T15:15:48.000Z</time>
      </trkpt>
      <trkpt lat="45.8749" lon="4.80111">
        <ele>377.40964</ele>
        <time>2023-06-29T15:15:49.000Z</time>
      </trkpt>
      <trkpt lat="45.87488" lon="4.80108">
        <ele>379.80826</ele>
        <time>2023-06-29T15:15:50.000Z</time>
      </trkpt>
      <trkpt lat="45.87487" lon="4.80105">
        <ele>381.13818</ele>
        <time>2023-06-29T15:15:51.000Z</time>
      </trkpt>
      <trkpt lat="45.87485" lon="4.80102">
        <ele>382.06656</ele>
        <time>2023-06-29T15:15:52.000Z</time>
      </trkpt>
      <trkpt lat="45.87483" lon="4.80098">
        <ele>382.28018</ele>
        <time>2023-06-29T15:15:53.000Z</time>
      </trkpt>
      <trkpt lat="45.87481" lon="4.80095">
        <ele>382.7355</ele>
        <time>2023-06-29T15:15:54.000Z</time>
      </trkpt>
      <trkpt lat="45.87479" lon="4.80092">
        <ele>383.15051</ele>
        <time>2023-06-29T15:15:55.000Z</time>
      </trkpt>
      <trkpt lat="45.87477" lon="4.80088">
        <ele>383.59521</ele>
        <time>2023-06-29T15:15:56.000Z</time>
      </trkpt>
      <trkpt lat="45.87476" lon="4.80085">
        <ele>384.72626</ele>
        <time>2023-06-29T15:15:57.000Z</time>
      </trkpt>
      <trkpt lat="45.87474" lon="4.80082">
        <ele>386.09186</ele>
        <time>2023-06-29T15:15:58.000Z</time>
      </trkpt>
      <trkpt lat="45.87472" lon="4.80078">
        <ele>387.44595</ele>
        <time>2023-06-29T15:15:59.000Z</time>
      </trkpt>
      <trkpt lat="45.87471" lon="4.80074">
        <ele>388.80142</ele>
        <time>2023-06-29T15:16:00.000Z</time>
      </trkpt>
      <trkpt lat="45.87469" lon="4.8007">
        <ele>388.95618</ele>
        <time>2023-06-29T15:16:01.000Z</time>
      </trkpt>
      <trkpt lat="45.87468" lon="4.80067">
        <ele>388.97363</ele>
        <time>2023-06-29T15:16:02.000Z</time>
      </trkpt>
      <trkpt lat="45.87467" lon="4.80063">
        <ele>388.97833</ele>
        <time>2023-06-29T15:16:03.000Z</time>
      </trkpt>
      <trkpt lat="45.87465" lon="4.8006">
        <ele>389.43811</ele>
        <time>2023-06-29T15:16:04.000Z</time>
      </trkpt>
      <trkpt lat="45.87464" lon="4.80056">
        <ele>389.83209</ele>
        <time>2023-06-29T15:16:05.000Z</time>
      </trkpt>
      <trkpt lat="45.87462" lon="4.80052">
        <ele>391.22357</ele>
        <time>2023-06-29T15:16:06.000Z</time>
      </trkpt>
      <trkpt lat="45.87462" lon="4.80047">
        <ele>392.66431</ele>
        <time>2023-06-29T15:16:07.000Z</time>
      </trkpt>
      <trkpt lat="45.87461" lon="4.80043">
        <ele>393.22183</ele>
        <time>2023-06-29T15:16:08.000Z</time>
      </trkpt>
      <trkpt lat="45.87461" lon="4.80039">
        <ele>393.79193</ele>
        <time>2023-06-29T15:16:09.000Z</time>
      </trkpt>
      <trkpt lat="45.8746" lon="4.80035">
        <ele>393.33258</ele>
        <time>2023-06-29T15:16:10.000Z</time>
      </trkpt>
      <trkpt lat="45.87459" lon="4.80031">
        <ele>393.91064</ele>
        <time>2023-06-29T15:16:11.000Z</time>
      </trkpt>
      <trkpt lat="45.87459" lon="4.80027">
        <ele>394.54926</ele>
        <time>2023-06-29T15:16:12.000Z</time>
      </trkpt>
      <trkpt lat="45.87458" lon="4.80023">
        <ele>392.23138</ele>
        <time>2023-06-29T15:16:13.000Z</time>
      </trkpt>
      <trkpt lat="45.87457" lon="4.80018">
        <ele>391.3316</ele>
        <time>2023-06-29T15:16:14.000Z</time>
      </trkpt>
      <trkpt lat="45.87457" lon="4.80014">
        <ele>390.4252</ele>
        <time>2023-06-29T15:16:15.000Z</time>
      </trkpt>
      <trkpt lat="45.87456" lon="4.8001">
        <ele>389.53119</ele>
        <time>2023-06-29T15:16:16.000Z</time>
      </trkpt>
      <trkpt lat="45.87456" lon="4.80006">
        <ele>387.6015</ele>
        <time>2023-06-29T15:16:17.000Z</time>
      </trkpt>
      <trkpt lat="45.87455" lon="4.80002">
        <ele>385.47861</ele>
        <time>2023-06-29T15:16:18.000Z</time>
      </trkpt>
      <trkpt lat="45.87455" lon="4.79998">
        <ele>385.56543</ele>
        <time>2023-06-29T15:16:19.000Z</time>
      </trkpt>
      <trkpt lat="45.87455" lon="4.79994">
        <ele>385.66025</ele>
        <time>2023-06-29T15:16:20.000Z</time>
      </trkpt>
      <trkpt lat="45.87455" lon="4.7999">
        <ele>386.74911</ele>
        <time>2023-06-29T15:16:21.000Z</time>
      </trkpt>
      <trkpt lat="45.87455" lon="4.79986">
        <ele>387.84219</ele>
        <time>2023-06-29T15:16:22.000Z</time>
      </trkpt>
      <trkpt lat="45.87455" lon="4.79982">
        <ele>388.93924</ele>
        <time>2023-06-29T15:16:23.000Z</time>
      </trkpt>
      <trkpt lat="45.87455" lon="4.79978">
        <ele>388.93729</ele>
        <time>2023-06-29T15:16:24.000Z</time>
      </trkpt>
      <trkpt lat="45.87454" lon="4.79975">
        <ele>388.91226</ele>
        <time>2023-06-29T15:16:25.000Z</time>
      </trkpt>
      <trkpt lat="45.87454" lon="4.79971">
        <ele>387.88828</ele>
        <time>2023-06-29T15:16:26.000Z</time>
      </trkpt>
      <trkpt lat="45.87453" lon="4.79967">
        <ele>386.76559</ele>
        <time>2023-06-29T15:16:27.000Z</time>
      </trkpt>
      <trkpt lat="45.87452" lon="4.79963">
        <ele>386.47064</ele>
        <time>2023-06-29T15:16:28.000Z</time>
      </trkpt>
      <trkpt lat="45.87451" lon="4.7996">
        <ele>387.93915</ele>
        <time>2023-06-29T15:16:29.000Z</time>
      </trkpt>
      <trkpt lat="45.87449" lon="4.79956">
        <ele>387.64651</ele>
        <time>2023-06-29T15:16:30.000Z</time>
      </trkpt>
      <trkpt lat="45.87447" lon="4.79953">
        <ele>387.36221</ele>
        <time>2023-06-29T15:16:31.000Z</time>
      </trkpt>
      <trkpt lat="45.87446" lon="4.79951">
        <ele>387.03479</ele>
        <time>2023-06-29T15:16:32.000Z</time>
      </trkpt>
      <trkpt lat="45.87443" lon="4.79948">
        <ele>389.60104</ele>
        <time>2023-06-29T15:16:33.000Z</time>
      </trkpt>
      <trkpt lat="45.87441" lon="4.79946">
        <ele>390.86688</ele>
        <time>2023-06-29T15:16:34.000Z</time>
      </trkpt>
      <trkpt lat="45.87439" lon="4.79943">
        <ele>394.06146</ele>
        <time>2023-06-29T15:16:35.000Z</time>
      </trkpt>
      <trkpt lat="45.87437" lon="4.7994">
        <ele>395.50104</ele>
        <time>2023-06-29T15:16:36.000Z</time>
      </trkpt>
      <trkpt lat="45.87435" lon="4.79937">
        <ele>396.99622</ele>
        <time>2023-06-29T15:16:37.000Z</time>
      </trkpt>
      <trkpt lat="45.87433" lon="4.79933">
        <ele>398.55215</ele>
        <time>2023-06-29T15:16:38.000Z</time>
      </trkpt>
      <trkpt lat="45.87431" lon="4.7993">
        <ele>397.98553</ele>
        <time>2023-06-29T15:16:39.000Z</time>
      </trkpt>
      <trkpt lat="45.87429" lon="4.79928">
        <ele>397.37674</ele>
        <time>2023-06-29T15:16:40.000Z</time>
      </trkpt>
      <trkpt lat="45.87427" lon="4.79925">
        <ele>393.41037</ele>
        <time>2023-06-29T15:16:41.000Z</time>
      </trkpt>
      <trkpt lat="45.87425" lon="4.79922">
        <ele>392.54001</ele>
        <time>2023-06-29T15:16:42.000Z</time>
      </trkpt>
      <trkpt lat="45.87424" lon="4.79919">
        <ele>391.62128</ele>
        <time>2023-06-29T15:16:43.000Z</time>
      </trkpt>
      <trkpt lat="45.87422" lon="4.79916">
        <ele>391.75537</ele>
        <time>2023-06-29T15:16:44.000Z</time>
      </trkpt>
      <trkpt lat="45.8742" lon="4.79913">
        <ele>391.89627</ele>
        <time>2023-06-29T15:16:45.000Z</time>
      </trkpt>
      <trkpt lat="45.87418" lon="4.7991">
        <ele>392.04547</ele>
        <time>2023-06-29T15:16:46.000Z</time>
      </trkpt>
      <trkpt lat="45.87416" lon="4.79907">
        <ele>394.2829</ele>
        <time>2023-06-29T15:16:47.000Z</time>
      </trkpt>
      <trkpt lat="45.87414" lon="4.79905">
        <ele>394.65875</ele>
        <time>2023-06-29T15:16:48.000Z</time>
      </trkpt>
      <trkpt lat="45.87412" lon="4.79903">
        <ele>393.26208</ele>
        <time>2023-06-29T15:16:49.000Z</time>
      </trkpt>
      <trkpt lat="45.8741" lon="4.799">
        <ele>394.81717</ele>
        <time>2023-06-29T15:16:50.000Z</time>
      </trkpt>
      <trkpt lat="45.87408" lon="4.79898">
        <ele>396.57623</ele>
        <time>2023-06-29T15:16:51.000Z</time>
      </trkpt>
      <trkpt lat="45.87406" lon="4.79895">
        <ele>398.36938</ele>
        <time>2023-06-29T15:16:52.000Z</time>
      </trkpt>
      <trkpt lat="45.87405" lon="4.79893">
        <ele>400.17282</ele>
        <time>2023-06-29T15:16:53.000Z</time>
      </trkpt>
      <trkpt lat="45.87403" lon="4.7989">
        <ele>401.86801</ele>
        <time>2023-06-29T15:16:54.000Z</time>
      </trkpt>
      <trkpt lat="45.87401" lon="4.79888">
        <ele>401.63541</ele>
        <time>2023-06-29T15:16:55.000Z</time>
      </trkpt>
      <trkpt lat="45.87399" lon="4.79885">
        <ele>403.1105</ele>
        <time>2023-06-29T15:16:56.000Z</time>
      </trkpt>
      <trkpt lat="45.87397" lon="4.79883">
        <ele>404.50928</ele>
        <time>2023-06-29T15:16:57.000Z</time>
      </trkpt>
      <trkpt lat="45.87396" lon="4.7988">
        <ele>404.63583</ele>
        <time>2023-06-29T15:16:58.000Z</time>
      </trkpt>
      <trkpt lat="45.87394" lon="4.79878">
        <ele>404.69794</ele>
        <time>2023-06-29T15:16:59.000Z</time>
      </trkpt>
      <trkpt lat="45.87392" lon="4.79877">
        <ele>404.80893</ele>
        <time>2023-06-29T15:17:00.000Z</time>
      </trkpt>
      <trkpt lat="45.87389" lon="4.79876">
        <ele>408.26923</ele>
        <time>2023-06-29T15:17:01.000Z</time>
      </trkpt>
      <trkpt lat="45.87387" lon="4.79874">
        <ele>409.01218</ele>
        <time>2023-06-29T15:17:02.000Z</time>
      </trkpt>
      <trkpt lat="45.87385" lon="4.79873">
        <ele>409.83578</ele>
        <time>2023-06-29T15:17:03.000Z</time>
      </trkpt>
      <trkpt lat="45.87383" lon="4.79871">
        <ele>410.74652</ele>
        <time>2023-06-29T15:17:04.000Z</time>
      </trkpt>
      <trkpt lat="45.8738" lon="4.7987">
        <ele>411.69611</ele>
        <time>2023-06-29T15:17:05.000Z</time>
      </trkpt>
      <trkpt lat="45.87378" lon="4.79869">
        <ele>412.6861</ele>
        <time>2023-06-29T15:17:06.000Z</time>
      </trkpt>
      <trkpt lat="45.87376" lon="4.79868">
        <ele>408.54962</ele>
        <time>2023-06-29T15:17:07.000Z</time>
      </trkpt>
      <trkpt lat="45.87373" lon="4.79867">
        <ele>409.263</ele>
        <time>2023-06-29T15:17:08.000Z</time>
      </trkpt>
      <trkpt lat="45.87371" lon="4.79866">
        <ele>409.99323</ele>
        <time>2023-06-29T15:17:09.000Z</time>
      </trkpt>
      <trkpt lat="45.87369" lon="4.79865">
        <ele>409.54083</ele>
        <time>2023-06-29T15:17:10.000Z</time>
      </trkpt>
      <trkpt lat="45.87366" lon="4.79864">
        <ele>409.5535</ele>
        <time>2023-06-29T15:17:11.000Z</time>
      </trkpt>
      <trkpt lat="45.87363" lon="4.79864">
        <ele>409.56351</ele>
        <time>2023-06-29T15:17:12.000Z</time>
      </trkpt>
      <trkpt lat="45.87361" lon="4.79863">
        <ele>410.00937</ele>
        <time>2023-06-29T15:17:13.000Z</time>
      </trkpt>
      <trkpt lat="45.87358" lon="4.79863">
        <ele>410.65347</ele>
        <time>2023-06-29T15:17:14.000Z</time>
      </trkpt>
      <trkpt lat="45.87356" lon="4.79863">
        <ele>411.38666</ele>
        <time>2023-06-29T15:17:15.000Z</time>
      </trkpt>
      <trkpt lat="45.87353" lon="4.79862">
        <ele>412.15033</ele>
        <time>2023-06-29T15:17:16.000Z</time>
      </trkpt>
      <trkpt lat="45.87351" lon="4.79862">
        <ele>412.01617</ele>
        <time>2023-06-29T15:17:17.000Z</time>
      </trkpt>
      <trkpt lat="45.87348" lon="4.79862">
        <ele>413.27338</ele>
        <time>2023-06-29T15:17:18.000Z</time>
      </trkpt>
      <trkpt lat="45.87346" lon="4.79861">
        <ele>414.54037</ele>
        <time>2023-06-29T15:17:19.000Z</time>
      </trkpt>
      <trkpt lat="45.87343" lon="4.7986">
        <ele>415.77344</ele>
        <time>2023-06-29T15:17:20.000Z</time>
      </trkpt>
      <trkpt lat="45.87341" lon="4.79859">
        <ele>417.00342</ele>
        <time>2023-06-29T15:17:21.000Z</time>
      </trkpt>
      <trkpt lat="45.87338" lon="4.79858">
        <ele>417.81851</ele>
        <time>2023-06-29T15:17:22.000Z</time>
      </trkpt>
      <trkpt lat="45.87336" lon="4.79857">
        <ele>418.63876</ele>
        <time>2023-06-29T15:17:23.000Z</time>
      </trkpt>
      <trkpt lat="45.87333" lon="4.79856">
        <ele>419.37711</ele>
        <time>2023-06-29T15:17:24.000Z</time>
      </trkpt>
      <trkpt lat="45.87331" lon="4.79856">
        <ele>420.07773</ele>
        <time>2023-06-29T15:17:25.000Z</time>
      </trkpt>
      <trkpt lat="45.87329" lon="4.79855">
        <ele>420.72723</ele>
        <time>2023-06-29T15:17:26.000Z</time>
      </trkpt>
      <trkpt lat="45.87325" lon="4.79854">
        <ele>424.4808</ele>
        <time>2023-06-29T15:17:28.000Z</time>
      </trkpt>
      <trkpt lat="45.87323" lon="4.79853">
        <ele>425.32593</ele>
        <time>2023-06-29T15:17:30.000Z</time>
      </trkpt>
      <trkpt lat="45.87322" lon="4.79852">
        <ele>426.25668</ele>
        <time>2023-06-29T15:19:54.000Z</time>
      </trkpt>
      <trkpt lat="45.8732" lon="4.79849">
        <ele>427.1236</ele>
        <time>2023-06-29T15:19:56.000Z</time>
      </trkpt>
      <trkpt lat="45.87318" lon="4.79848">
        <ele>427.33868</ele>
        <time>2023-06-29T15:19:57.000Z</time>
      </trkpt>
      <trkpt lat="45.87316" lon="4.79846">
        <ele>427.53305</ele>
        <time>2023-06-29T15:19:58.000Z</time>
      </trkpt>
      <trkpt lat="45.87314" lon="4.79845">
        <ele>427.29913</ele>
        <time>2023-06-29T15:19:59.000Z</time>
      </trkpt>
      <trkpt lat="45.87311" lon="4.79842">
        <ele>427.27426</ele>
        <time>2023-06-29T15:20:01.000Z</time>
      </trkpt>
      <trkpt lat="45.87309" lon="4.7984">
        <ele>427.42667</ele>
        <time>2023-06-29T15:20:02.000Z</time>
      </trkpt>
      <trkpt lat="45.87307" lon="4.79837">
        <ele>426.6683</ele>
        <time>2023-06-29T15:20:03.000Z</time>
      </trkpt>
      <trkpt lat="45.87305" lon="4.79834">
        <ele>426.95859</ele>
        <time>2023-06-29T15:20:04.000Z</time>
      </trkpt>
      <trkpt lat="45.87303" lon="4.79829">
        <ele>427.01993</ele>
        <time>2023-06-29T15:20:05.000Z</time>
      </trkpt>
      <trkpt lat="45.873" lon="4.79822">
        <ele>427.06769</ele>
        <time>2023-06-29T15:20:06.000Z</time>
      </trkpt>
      <trkpt lat="45.87298" lon="4.79817">
        <ele>427.11508</ele>
        <time>2023-06-29T15:20:07.000Z</time>
      </trkpt>
      <trkpt lat="45.87296" lon="4.79811">
        <ele>427.17441</ele>
        <time>2023-06-29T15:20:08.000Z</time>
      </trkpt>
      <trkpt lat="45.87295" lon="4.79804">
        <ele>427.25961</ele>
        <time>2023-06-29T15:20:09.000Z</time>
      </trkpt>
      <trkpt lat="45.87293" lon="4.79796">
        <ele>427.67383</ele>
        <time>2023-06-29T15:20:10.000Z</time>
      </trkpt>
      <trkpt lat="45.87291" lon="4.7979">
        <ele>426.98495</ele>
        <time>2023-06-29T15:20:11.000Z</time>
      </trkpt>
      <trkpt lat="45.87289" lon="4.79784">
        <ele>425.89932</ele>
        <time>2023-06-29T15:20:12.000Z</time>
      </trkpt>
      <trkpt lat="45.87287" lon="4.79777">
        <ele>424.78809</ele>
        <time>2023-06-29T15:20:13.000Z</time>
      </trkpt>
      <trkpt lat="45.87285" lon="4.79771">
        <ele>423.6828</ele>
        <time>2023-06-29T15:20:14.000Z</time>
      </trkpt>
      <trkpt lat="45.87283" lon="4.79767">
        <ele>422.53815</ele>
        <time>2023-06-29T15:20:15.000Z</time>
      </trkpt>
      <trkpt lat="45.87282" lon="4.79762">
        <ele>421.25391</ele>
        <time>2023-06-29T15:20:16.000Z</time>
      </trkpt>
      <trkpt lat="45.8728" lon="4.79757">
        <ele>419.79321</ele>
        <time>2023-06-29T15:20:17.000Z</time>
      </trkpt>
      <trkpt lat="45.87278" lon="4.79752">
        <ele>418.32089</ele>
        <time>2023-06-29T15:20:18.000Z</time>
      </trkpt>
      <trkpt lat="45.87278" lon="4.79749">
        <ele>416.81464</ele>
        <time>2023-06-29T15:20:19.000Z</time>
      </trkpt>
      <trkpt lat="45.87276" lon="4.79744">
        <ele>415.33392</ele>
        <time>2023-06-29T15:20:20.000Z</time>
      </trkpt>
      <trkpt lat="45.87276" lon="4.7974">
        <ele>413.39438</ele>
        <time>2023-06-29T15:20:21.000Z</time>
      </trkpt>
      <trkpt lat="45.87273" lon="4.79736">
        <ele>411.14185</ele>
        <time>2023-06-29T15:20:22.000Z</time>
      </trkpt>
      <trkpt lat="45.87271" lon="4.79731">
        <ele>409.76328</ele>
        <time>2023-06-29T15:20:23.000Z</time>
      </trkpt>
      <trkpt lat="45.8727" lon="4.79727">
        <ele>408.25726</ele>
        <time>2023-06-29T15:20:24.000Z</time>
      </trkpt>
      <trkpt lat="45.87269" lon="4.79722">
        <ele>406.79425</ele>
        <time>2023-06-29T15:20:25.000Z</time>
      </trkpt>
      <trkpt lat="45.87268" lon="4.79716">
        <ele>405.3504</ele>
        <time>2023-06-29T15:20:26.000Z</time>
      </trkpt>
      <trkpt lat="45.87268" lon="4.79712">
        <ele>403.87451</ele>
        <time>2023-06-29T15:20:27.000Z</time>
      </trkpt>
      <trkpt lat="45.87267" lon="4.79707">
        <ele>402.40494</ele>
        <time>2023-06-29T15:20:28.000Z</time>
      </trkpt>
      <trkpt lat="45.87266" lon="4.79702">
        <ele>401.21146</ele>
        <time>2023-06-29T15:20:29.000Z</time>
      </trkpt>
      <trkpt lat="45.87264" lon="4.79697">
        <ele>399.58698</ele>
        <time>2023-06-29T15:20:30.000Z</time>
      </trkpt>
      <trkpt lat="45.87263" lon="4.79691">
        <ele>399.02509</ele>
        <time>2023-06-29T15:20:31.000Z</time>
      </trkpt>
      <trkpt lat="45.87261" lon="4.79686">
        <ele>398.82404</ele>
        <time>2023-06-29T15:20:32.000Z</time>
      </trkpt>
      <trkpt lat="45.8726" lon="4.7968">
        <ele>398.64215</ele>
        <time>2023-06-29T15:20:33.000Z</time>
      </trkpt>
      <trkpt lat="45.87256" lon="4.79671">
        <ele>401.08936</ele>
        <time>2023-06-29T15:20:34.000Z</time>
      </trkpt>
      <trkpt lat="45.87255" lon="4.79666">
        <ele>401.0159</ele>
        <time>2023-06-29T15:20:35.000Z</time>
      </trkpt>
      <trkpt lat="45.87253" lon="4.79659">
        <ele>400.95697</ele>
        <time>2023-06-29T15:20:36.000Z</time>
      </trkpt>
      <trkpt lat="45.8725" lon="4.79653">
        <ele>401.09894</ele>
        <time>2023-06-29T15:20:37.000Z</time>
      </trkpt>
      <trkpt lat="45.87249" lon="4.79648">
        <ele>401.25702</ele>
        <time>2023-06-29T15:20:38.000Z</time>
      </trkpt>
      <trkpt lat="45.87248" lon="4.79641">
        <ele>401.46048</ele>
        <time>2023-06-29T15:20:39.000Z</time>
      </trkpt>
      <trkpt lat="45.87247" lon="4.79634">
        <ele>403.32684</ele>
        <time>2023-06-29T15:20:40.000Z</time>
      </trkpt>
      <trkpt lat="45.87247" lon="4.79628">
        <ele>404.99023</ele>
        <time>2023-06-29T15:20:41.000Z</time>
      </trkpt>
      <trkpt lat="45.87246" lon="4.79622">
        <ele>406.67941</ele>
        <time>2023-06-29T15:20:42.000Z</time>
      </trkpt>
      <trkpt lat="45.87246" lon="4.79617">
        <ele>408.42911</ele>
        <time>2023-06-29T15:20:43.000Z</time>
      </trkpt>
      <trkpt lat="45.87245" lon="4.79611">
        <ele>410.1683</ele>
        <time>2023-06-29T15:20:44.000Z</time>
      </trkpt>
      <trkpt lat="45.87244" lon="4.79605">
        <ele>411.90381</ele>
        <time>2023-06-29T15:20:45.000Z</time>
      </trkpt>
      <trkpt lat="45.87244" lon="4.79599">
        <ele>413.62622</ele>
        <time>2023-06-29T15:20:46.000Z</time>
      </trkpt>
      <trkpt lat="45.87243" lon="4.79593">
        <ele>415.39584</ele>
        <time>2023-06-29T15:20:47.000Z</time>
      </trkpt>
      <trkpt lat="45.87243" lon="4.79588">
        <ele>417.17511</ele>
        <time>2023-06-29T15:20:48.000Z</time>
      </trkpt>
      <trkpt lat="45.87243" lon="4.79583">
        <ele>418.70508</ele>
        <time>2023-06-29T15:20:49.000Z</time>
      </trkpt>
      <trkpt lat="45.87244" lon="4.79579">
        <ele>420.35556</ele>
        <time>2023-06-29T15:20:50.000Z</time>
      </trkpt>
      <trkpt lat="45.87244" lon="4.79573">
        <ele>422.01416</ele>
        <time>2023-06-29T15:20:51.000Z</time>
      </trkpt>
      <trkpt lat="45.87244" lon="4.79568">
        <ele>423.78726</ele>
        <time>2023-06-29T15:20:52.000Z</time>
      </trkpt>
      <trkpt lat="45.87244" lon="4.79563">
        <ele>425.88974</ele>
        <time>2023-06-29T15:20:53.000Z</time>
      </trkpt>
      <trkpt lat="45.87244" lon="4.7956">
        <ele>425.5163</ele>
        <time>2023-06-29T15:20:54.000Z</time>
      </trkpt>
      <trkpt lat="45.87244" lon="4.79556">
        <ele>426.73764</ele>
        <time>2023-06-29T15:20:55.000Z</time>
      </trkpt>
      <trkpt lat="45.87244" lon="4.79551">
        <ele>428.02374</ele>
        <time>2023-06-29T15:20:56.000Z</time>
      </trkpt>
      <trkpt lat="45.87243" lon="4.79547">
        <ele>429.37704</ele>
        <time>2023-06-29T15:20:57.000Z</time>
      </trkpt>
      <trkpt lat="45.87243" lon="4.79542">
        <ele>430.79095</ele>
        <time>2023-06-29T15:20:58.000Z</time>
      </trkpt>
      <trkpt lat="45.87243" lon="4.79537">
        <ele>432.26767</ele>
        <time>2023-06-29T15:20:59.000Z</time>
      </trkpt>
      <trkpt lat="45.87243" lon="4.79532">
        <ele>426.93475</ele>
        <time>2023-06-29T15:21:00.000Z</time>
      </trkpt>
      <trkpt lat="45.87242" lon="4.79527">
        <ele>426.76324</ele>
        <time>2023-06-29T15:21:01.000Z</time>
      </trkpt>
      <trkpt lat="45.87241" lon="4.79521">
        <ele>426.58682</ele>
        <time>2023-06-29T15:21:02.000Z</time>
      </trkpt>
      <trkpt lat="45.8724" lon="4.79516">
        <ele>426.36151</ele>
        <time>2023-06-29T15:21:03.000Z</time>
      </trkpt>
      <trkpt lat="45.8724" lon="4.7951">
        <ele>426.87994</ele>
        <time>2023-06-29T15:21:04.000Z</time>
      </trkpt>
      <trkpt lat="45.8724" lon="4.79504">
        <ele>427.35043</ele>
        <time>2023-06-29T15:21:05.000Z</time>
      </trkpt>
      <trkpt lat="45.8724" lon="4.79499">
        <ele>427.90039</ele>
        <time>2023-06-29T15:21:06.000Z</time>
      </trkpt>
      <trkpt lat="45.8724" lon="4.79495">
        <ele>428.72437</ele>
        <time>2023-06-29T15:21:07.000Z</time>
      </trkpt>
      <trkpt lat="45.8724" lon="4.7949">
        <ele>429.36938</ele>
        <time>2023-06-29T15:21:08.000Z</time>
      </trkpt>
      <trkpt lat="45.8724" lon="4.79485">
        <ele>430.08237</ele>
        <time>2023-06-29T15:21:09.000Z</time>
      </trkpt>
      <trkpt lat="45.87241" lon="4.79481">
        <ele>430.56616</ele>
        <time>2023-06-29T15:21:10.000Z</time>
      </trkpt>
      <trkpt lat="45.87241" lon="4.79476">
        <ele>431.84601</ele>
        <time>2023-06-29T15:21:11.000Z</time>
      </trkpt>
      <trkpt lat="45.87241" lon="4.79471">
        <ele>432.10797</ele>
        <time>2023-06-29T15:21:12.000Z</time>
      </trkpt>
      <trkpt lat="45.87241" lon="4.79465">
        <ele>432.03555</ele>
        <time>2023-06-29T15:21:13.000Z</time>
      </trkpt>
      <trkpt lat="45.8724" lon="4.7946">
        <ele>431.41983</ele>
        <time>2023-06-29T15:21:14.000Z</time>
      </trkpt>
      <trkpt lat="45.8724" lon="4.79454">
        <ele>431.715</ele>
        <time>2023-06-29T15:21:15.000Z</time>
      </trkpt>
      <trkpt lat="45.87239" lon="4.79449">
        <ele>431.96387</ele>
        <time>2023-06-29T15:21:16.000Z</time>
      </trkpt>
      <trkpt lat="45.87239" lon="4.79443">
        <ele>432.16089</ele>
        <time>2023-06-29T15:21:17.000Z</time>
      </trkpt>
      <trkpt lat="45.87238" lon="4.79439">
        <ele>432.30011</ele>
        <time>2023-06-29T15:21:18.000Z</time>
      </trkpt>
      <trkpt lat="45.87237" lon="4.79434">
        <ele>430.90088</ele>
        <time>2023-06-29T15:21:19.000Z</time>
      </trkpt>
      <trkpt lat="45.87236" lon="4.7943">
        <ele>434.64551</ele>
        <time>2023-06-29T15:21:20.000Z</time>
      </trkpt>
      <trkpt lat="45.87235" lon="4.79425">
        <ele>435.03107</ele>
        <time>2023-06-29T15:21:21.000Z</time>
      </trkpt>
      <trkpt lat="45.87234" lon="4.79418">
        <ele>435.44443</ele>
        <time>2023-06-29T15:21:22.000Z</time>
      </trkpt>
      <trkpt lat="45.87234" lon="4.79409">
        <ele>435.8873</ele>
        <time>2023-06-29T15:21:23.000Z</time>
      </trkpt>
      <trkpt lat="45.87233" lon="4.79402">
        <ele>435.60025</ele>
        <time>2023-06-29T15:21:24.000Z</time>
      </trkpt>
      <trkpt lat="45.87232" lon="4.79395">
        <ele>435.34229</ele>
        <time>2023-06-29T15:21:25.000Z</time>
      </trkpt>
      <trkpt lat="45.87232" lon="4.7939">
        <ele>437.87881</ele>
        <time>2023-06-29T15:21:26.000Z</time>
      </trkpt>
      <trkpt lat="45.87232" lon="4.79384">
        <ele>438.27017</ele>
        <time>2023-06-29T15:21:27.000Z</time>
      </trkpt>
      <trkpt lat="45.87231" lon="4.79379">
        <ele>439.11884</ele>
        <time>2023-06-29T15:21:28.000Z</time>
      </trkpt>
      <trkpt lat="45.87232" lon="4.79375">
        <ele>439.81549</ele>
        <time>2023-06-29T15:21:29.000Z</time>
      </trkpt>
      <trkpt lat="45.87231" lon="4.79368">
        <ele>440.68158</ele>
        <time>2023-06-29T15:21:30.000Z</time>
      </trkpt>
      <trkpt lat="45.87231" lon="4.79361">
        <ele>440.82306</ele>
        <time>2023-06-29T15:21:31.000Z</time>
      </trkpt>
      <trkpt lat="45.8723" lon="4.79355">
        <ele>441.93051</ele>
        <time>2023-06-29T15:21:32.000Z</time>
      </trkpt>
      <trkpt lat="45.87228" lon="4.79347">
        <ele>443.07965</ele>
        <time>2023-06-29T15:21:33.000Z</time>
      </trkpt>
      <trkpt lat="45.87225" lon="4.79344">
        <ele>444.57721</ele>
        <time>2023-06-29T15:21:34.000Z</time>
      </trkpt>
      <trkpt lat="45.87223" lon="4.79343">
        <ele>446.06207</ele>
        <time>2023-06-29T15:21:35.000Z</time>
      </trkpt>
      <trkpt lat="45.87218" lon="4.79341">
        <ele>447.47809</ele>
        <time>2023-06-29T15:21:36.000Z</time>
      </trkpt>
      <trkpt lat="45.87214" lon="4.79342">
        <ele>448.88614</ele>
        <time>2023-06-29T15:21:37.000Z</time>
      </trkpt>
      <trkpt lat="45.8721" lon="4.79342">
        <ele>450.28336</ele>
        <time>2023-06-29T15:21:38.000Z</time>
      </trkpt>
      <trkpt lat="45.87207" lon="4.79342">
        <ele>453.14273</ele>
        <time>2023-06-29T15:21:39.000Z</time>
      </trkpt>
      <trkpt lat="45.87203" lon="4.79342">
        <ele>455.95697</ele>
        <time>2023-06-29T15:21:40.000Z</time>
      </trkpt>
      <trkpt lat="45.87199" lon="4.79341">
        <ele>457.22607</ele>
        <time>2023-06-29T15:21:41.000Z</time>
      </trkpt>
      <trkpt lat="45.87196" lon="4.79341">
        <ele>458.46606</ele>
        <time>2023-06-29T15:21:42.000Z</time>
      </trkpt>
      <trkpt lat="45.87193" lon="4.7934">
        <ele>459.65054</ele>
        <time>2023-06-29T15:21:43.000Z</time>
      </trkpt>
      <trkpt lat="45.87189" lon="4.7934">
        <ele>460.81879</ele>
        <time>2023-06-29T15:21:44.000Z</time>
      </trkpt>
      <trkpt lat="45.87186" lon="4.79339">
        <ele>461.98456</ele>
        <time>2023-06-29T15:21:45.000Z</time>
      </trkpt>
      <trkpt lat="45.87183" lon="4.79339">
        <ele>460.24307</ele>
        <time>2023-06-29T15:21:46.000Z</time>
      </trkpt>
      <trkpt lat="45.8718" lon="4.79339">
        <ele>460.37433</ele>
        <time>2023-06-29T15:21:47.000Z</time>
      </trkpt>
      <trkpt lat="45.87177" lon="4.79337">
        <ele>460.13678</ele>
        <time>2023-06-29T15:21:48.000Z</time>
      </trkpt>
      <trkpt lat="45.87174" lon="4.79335">
        <ele>460.86484</ele>
        <time>2023-06-29T15:21:49.000Z</time>
      </trkpt>
      <trkpt lat="45.87172" lon="4.79331">
        <ele>461.77484</ele>
        <time>2023-06-29T15:21:50.000Z</time>
      </trkpt>
      <trkpt lat="45.8717" lon="4.79328">
        <ele>461.80435</ele>
        <time>2023-06-29T15:21:51.000Z</time>
      </trkpt>
      <trkpt lat="45.87169" lon="4.79323">
        <ele>460.76416</ele>
        <time>2023-06-29T15:21:52.000Z</time>
      </trkpt>
      <trkpt lat="45.87169" lon="4.79319">
        <ele>460.0246</ele>
        <time>2023-06-29T15:21:53.000Z</time>
      </trkpt>
      <trkpt lat="45.87169" lon="4.79315">
        <ele>459.35498</ele>
        <time>2023-06-29T15:21:54.000Z</time>
      </trkpt>
      <trkpt lat="45.87169" lon="4.79311">
        <ele>458.08472</ele>
        <time>2023-06-29T15:21:55.000Z</time>
      </trkpt>
      <trkpt lat="45.8717" lon="4.79308">
        <ele>457.06451</ele>
        <time>2023-06-29T15:21:56.000Z</time>
      </trkpt>
      <trkpt lat="45.8717" lon="4.79305">
        <ele>456.26154</ele>
        <time>2023-06-29T15:21:57.000Z</time>
      </trkpt>
      <trkpt lat="45.87169" lon="4.79301">
        <ele>455.27252</ele>
        <time>2023-06-29T15:21:58.000Z</time>
      </trkpt>
      <trkpt lat="45.87169" lon="4.79298">
        <ele>454.42755</ele>
        <time>2023-06-29T15:21:59.000Z</time>
      </trkpt>
      <trkpt lat="45.87168" lon="4.79291">
        <ele>453.41641</ele>
        <time>2023-06-29T15:22:01.000Z</time>
      </trkpt>
      <trkpt lat="45.87167" lon="4.79287">
        <ele>452.35342</ele>
        <time>2023-06-29T15:22:02.000Z</time>
      </trkpt>
      <trkpt lat="45.87166" lon="4.79283">
        <ele>451.18668</ele>
        <time>2023-06-29T15:22:03.000Z</time>
      </trkpt>
      <trkpt lat="45.87165" lon="4.79279">
        <ele>450.03067</ele>
        <time>2023-06-29T15:22:04.000Z</time>
      </trkpt>
      <trkpt lat="45.87164" lon="4.79276">
        <ele>449.02753</ele>
        <time>2023-06-29T15:22:05.000Z</time>
      </trkpt>
      <trkpt lat="45.87162" lon="4.79273">
        <ele>447.92316</ele>
        <time>2023-06-29T15:22:06.000Z</time>
      </trkpt>
      <trkpt lat="45.87161" lon="4.7927">
        <ele>446.84946</ele>
        <time>2023-06-29T15:22:07.000Z</time>
      </trkpt>
      <trkpt lat="45.8716" lon="4.79267">
        <ele>445.93008</ele>
        <time>2023-06-29T15:22:08.000Z</time>
      </trkpt>
      <trkpt lat="45.87159" lon="4.79264">
        <ele>444.93048</ele>
        <time>2023-06-29T15:22:09.000Z</time>
      </trkpt>
      <trkpt lat="45.87157" lon="4.7926">
        <ele>443.04486</ele>
        <time>2023-06-29T15:22:10.000Z</time>
      </trkpt>
      <trkpt lat="45.87156" lon="4.79256">
        <ele>441.03925</ele>
        <time>2023-06-29T15:22:11.000Z</time>
      </trkpt>
      <trkpt lat="45.87154" lon="4.79253">
        <ele>439.86078</ele>
        <time>2023-06-29T15:22:12.000Z</time>
      </trkpt>
      <trkpt lat="45.87152" lon="4.7925">
        <ele>439.8244</ele>
        <time>2023-06-29T15:22:13.000Z</time>
      </trkpt>
      <trkpt lat="45.8715" lon="4.79248">
        <ele>439.42862</ele>
        <time>2023-06-29T15:22:14.000Z</time>
      </trkpt>
      <trkpt lat="45.87148" lon="4.79245">
        <ele>439.20563</ele>
        <time>2023-06-29T15:22:15.000Z</time>
      </trkpt>
      <trkpt lat="45.87147" lon="4.79242">
        <ele>439.48163</ele>
        <time>2023-06-29T15:22:16.000Z</time>
      </trkpt>
      <trkpt lat="45.87145" lon="4.79239">
        <ele>439.66968</ele>
        <time>2023-06-29T15:22:17.000Z</time>
      </trkpt>
      <trkpt lat="45.87144" lon="4.79236">
        <ele>439.59189</ele>
        <time>2023-06-29T15:22:18.000Z</time>
      </trkpt>
      <trkpt lat="45.87142" lon="4.79232">
        <ele>439.50293</ele>
        <time>2023-06-29T15:22:19.000Z</time>
      </trkpt>
      <trkpt lat="45.8714" lon="4.79229">
        <ele>439.26093</ele>
        <time>2023-06-29T15:22:20.000Z</time>
      </trkpt>
      <trkpt lat="45.87138" lon="4.79226">
        <ele>439.18741</ele>
        <time>2023-06-29T15:22:21.000Z</time>
      </trkpt>
      <trkpt lat="45.87136" lon="4.79224">
        <ele>439.27936</ele>
        <time>2023-06-29T15:22:22.000Z</time>
      </trkpt>
      <trkpt lat="45.87134" lon="4.79222">
        <ele>439.55283</ele>
        <time>2023-06-29T15:22:23.000Z</time>
      </trkpt>
      <trkpt lat="45.87132" lon="4.79219">
        <ele>439.88458</ele>
        <time>2023-06-29T15:22:24.000Z</time>
      </trkpt>
      <trkpt lat="45.8713" lon="4.79217">
        <ele>440.00977</ele>
        <time>2023-06-29T15:22:25.000Z</time>
      </trkpt>
      <trkpt lat="45.87127" lon="4.79215">
        <ele>440.27856</ele>
        <time>2023-06-29T15:22:26.000Z</time>
      </trkpt>
      <trkpt lat="45.87125" lon="4.79213">
        <ele>440.6459</ele>
        <time>2023-06-29T15:22:27.000Z</time>
      </trkpt>
      <trkpt lat="45.87122" lon="4.79212">
        <ele>440.73901</ele>
        <time>2023-06-29T15:22:28.000Z</time>
      </trkpt>
      <trkpt lat="45.87119" lon="4.79211">
        <ele>441.00113</ele>
        <time>2023-06-29T15:22:29.000Z</time>
      </trkpt>
      <trkpt lat="45.87116" lon="4.79212">
        <ele>441.23468</ele>
        <time>2023-06-29T15:22:30.000Z</time>
      </trkpt>
      <trkpt lat="45.87113" lon="4.79212">
        <ele>441.54816</ele>
        <time>2023-06-29T15:22:31.000Z</time>
      </trkpt>
      <trkpt lat="45.8711" lon="4.79213">
        <ele>441.97662</ele>
        <time>2023-06-29T15:22:32.000Z</time>
      </trkpt>
      <trkpt lat="45.87107" lon="4.79213">
        <ele>442.2482</ele>
        <time>2023-06-29T15:22:33.000Z</time>
      </trkpt>
      <trkpt lat="45.87104" lon="4.79214">
        <ele>442.52863</ele>
        <time>2023-06-29T15:22:34.000Z</time>
      </trkpt>
      <trkpt lat="45.87101" lon="4.79214">
        <ele>442.66641</ele>
        <time>2023-06-29T15:22:35.000Z</time>
      </trkpt>
      <trkpt lat="45.87099" lon="4.79215">
        <ele>443.01773</ele>
        <time>2023-06-29T15:22:36.000Z</time>
      </trkpt>
      <trkpt lat="45.87096" lon="4.79215">
        <ele>443.3327</ele>
        <time>2023-06-29T15:22:37.000Z</time>
      </trkpt>
      <trkpt lat="45.87092" lon="4.79215">
        <ele>443.55673</ele>
        <time>2023-06-29T15:22:38.000Z</time>
      </trkpt>
      <trkpt lat="45.87089" lon="4.79216">
        <ele>444.00595</ele>
        <time>2023-06-29T15:22:39.000Z</time>
      </trkpt>
      <trkpt lat="45.87086" lon="4.79217">
        <ele>444.47174</ele>
        <time>2023-06-29T15:22:40.000Z</time>
      </trkpt>
      <trkpt lat="45.87083" lon="4.79218">
        <ele>444.91528</ele>
        <time>2023-06-29T15:22:41.000Z</time>
      </trkpt>
      <trkpt lat="45.8708" lon="4.79219">
        <ele>445.21283</ele>
        <time>2023-06-29T15:22:42.000Z</time>
      </trkpt>
      <trkpt lat="45.87078" lon="4.79221">
        <ele>445.53668</ele>
        <time>2023-06-29T15:22:43.000Z</time>
      </trkpt>
      <trkpt lat="45.87075" lon="4.79222">
        <ele>445.77139</ele>
        <time>2023-06-29T15:22:44.000Z</time>
      </trkpt>
      <trkpt lat="45.87072" lon="4.79222">
        <ele>446.27545</ele>
        <time>2023-06-29T15:22:45.000Z</time>
      </trkpt>
      <trkpt lat="45.87069" lon="4.79223">
        <ele>446.86597</ele>
        <time>2023-06-29T15:22:46.000Z</time>
      </trkpt>
      <trkpt lat="45.87067" lon="4.79223">
        <ele>447.34784</ele>
        <time>2023-06-29T15:22:47.000Z</time>
      </trkpt>
      <trkpt lat="45.87064" lon="4.79223">
        <ele>448.00366</ele>
        <time>2023-06-29T15:22:48.000Z</time>
      </trkpt>
      <trkpt lat="45.8706" lon="4.79222">
        <ele>449.1149</ele>
        <time>2023-06-29T15:22:49.000Z</time>
      </trkpt>
      <trkpt lat="45.87057" lon="4.7922">
        <ele>450.28223</ele>
        <time>2023-06-29T15:22:50.000Z</time>
      </trkpt>
      <trkpt lat="45.87054" lon="4.79219">
        <ele>451.5788</ele>
        <time>2023-06-29T15:22:51.000Z</time>
      </trkpt>
      <trkpt lat="45.87051" lon="4.79217">
        <ele>452.63858</ele>
        <time>2023-06-29T15:22:52.000Z</time>
      </trkpt>
      <trkpt lat="45.87048" lon="4.79214">
        <ele>452.87726</ele>
        <time>2023-06-29T15:22:53.000Z</time>
      </trkpt>
      <trkpt lat="45.87043" lon="4.79209">
        <ele>453.44244</ele>
        <time>2023-06-29T15:22:54.000Z</time>
      </trkpt>
      <trkpt lat="45.87039" lon="4.79205">
        <ele>453.97641</ele>
        <time>2023-06-29T15:22:55.000Z</time>
      </trkpt>
      <trkpt lat="45.87034" lon="4.792">
        <ele>454.5271</ele>
        <time>2023-06-29T15:22:56.000Z</time>
      </trkpt>
      <trkpt lat="45.8703" lon="4.79194">
        <ele>455.08847</ele>
        <time>2023-06-29T15:22:57.000Z</time>
      </trkpt>
      <trkpt lat="45.87027" lon="4.79189">
        <ele>455.87979</ele>
        <time>2023-06-29T15:22:58.000Z</time>
      </trkpt>
      <trkpt lat="45.87023" lon="4.79184">
        <ele>456.6669</ele>
        <time>2023-06-29T15:22:59.000Z</time>
      </trkpt>
      <trkpt lat="45.87021" lon="4.79177">
        <ele>457.52286</ele>
        <time>2023-06-29T15:23:00.000Z</time>
      </trkpt>
      <trkpt lat="45.87018" lon="4.79172">
        <ele>458.24786</ele>
        <time>2023-06-29T15:23:01.000Z</time>
      </trkpt>
      <trkpt lat="45.87015" lon="4.79167">
        <ele>459.04459</ele>
        <time>2023-06-29T15:23:02.000Z</time>
      </trkpt>
      <trkpt lat="45.87013" lon="4.79162">
        <ele>459.68866</ele>
        <time>2023-06-29T15:23:03.000Z</time>
      </trkpt>
      <trkpt lat="45.87011" lon="4.79157">
        <ele>460.28653</ele>
        <time>2023-06-29T15:23:04.000Z</time>
      </trkpt>
      <trkpt lat="45.87006" lon="4.7915">
        <ele>460.86639</ele>
        <time>2023-06-29T15:23:05.000Z</time>
      </trkpt>
      <trkpt lat="45.87004" lon="4.79143">
        <ele>461.14761</ele>
        <time>2023-06-29T15:23:06.000Z</time>
      </trkpt>
      <trkpt lat="45.86998" lon="4.79133">
        <ele>461.51642</ele>
        <time>2023-06-29T15:23:07.000Z</time>
      </trkpt>
      <trkpt lat="45.86991" lon="4.79126">
        <ele>462.0451</ele>
        <time>2023-06-29T15:23:08.000Z</time>
      </trkpt>
      <trkpt lat="45.86986" lon="4.79118">
        <ele>462.32285</ele>
        <time>2023-06-29T15:23:09.000Z</time>
      </trkpt>
      <trkpt lat="45.86979" lon="4.79109">
        <ele>462.49936</ele>
        <time>2023-06-29T15:23:10.000Z</time>
      </trkpt>
      <trkpt lat="45.86972" lon="4.791">
        <ele>462.6102</ele>
        <time>2023-06-29T15:23:11.000Z</time>
      </trkpt>
      <trkpt lat="45.86968" lon="4.79094">
        <ele>462.1687</ele>
        <time>2023-06-29T15:23:12.000Z</time>
      </trkpt>
      <trkpt lat="45.86964" lon="4.79087">
        <ele>463.04614</ele>
        <time>2023-06-29T15:23:13.000Z</time>
      </trkpt>
      <trkpt lat="45.86961" lon="4.79084">
        <ele>463.53375</ele>
        <time>2023-06-29T15:23:14.000Z</time>
      </trkpt>
      <trkpt lat="45.86958" lon="4.79082">
        <ele>463.92798</ele>
        <time>2023-06-29T15:23:15.000Z</time>
      </trkpt>
      <trkpt lat="45.86955" lon="4.79081">
        <ele>464.27988</ele>
        <time>2023-06-29T15:23:16.000Z</time>
      </trkpt>
      <trkpt lat="45.86953" lon="4.79082">
        <ele>464.42514</ele>
        <time>2023-06-29T15:23:17.000Z</time>
      </trkpt>
      <trkpt lat="45.86955" lon="4.79084">
        <ele>463.15274</ele>
        <time>2023-06-29T15:23:31.000Z</time>
      </trkpt>
      <trkpt lat="45.86952" lon="4.79085">
        <ele>461.48819</ele>
        <time>2023-06-29T15:23:43.000Z</time>
      </trkpt>
      <trkpt lat="45.86949" lon="4.79087">
        <ele>459.83185</ele>
        <time>2023-06-29T15:23:45.000Z</time>
      </trkpt>
      <trkpt lat="45.86946" lon="4.79088">
        <ele>458.3649</ele>
        <time>2023-06-29T15:23:47.000Z</time>
      </trkpt>
      <trkpt lat="45.86943" lon="4.79089">
        <ele>457.44147</ele>
        <time>2023-06-29T15:23:49.000Z</time>
      </trkpt>
      <trkpt lat="45.86942" lon="4.79091">
        <ele>456.16235</ele>
        <time>2023-06-29T15:23:51.000Z</time>
      </trkpt>
      <trkpt lat="45.86939" lon="4.79092">
        <ele>454.97186</ele>
        <time>2023-06-29T15:23:53.000Z</time>
      </trkpt>
      <trkpt lat="45.86937" lon="4.79093">
        <ele>453.63007</ele>
        <time>2023-06-29T15:23:55.000Z</time>
      </trkpt>
      <trkpt lat="45.86934" lon="4.79094">
        <ele>453.36426</ele>
        <time>2023-06-29T15:23:57.000Z</time>
      </trkpt>
      <trkpt lat="45.8693" lon="4.79096">
        <ele>452.61417</ele>
        <time>2023-06-29T15:23:59.000Z</time>
      </trkpt>
      <trkpt lat="45.86928" lon="4.79096">
        <ele>451.9501</ele>
        <time>2023-06-29T15:24:00.000Z</time>
      </trkpt>
      <trkpt lat="45.86926" lon="4.79095">
        <ele>451.25287</ele>
        <time>2023-06-29T15:24:02.000Z</time>
      </trkpt>
      <trkpt lat="45.86923" lon="4.79097">
        <ele>450.7226</ele>
        <time>2023-06-29T15:24:04.000Z</time>
      </trkpt>
      <trkpt lat="45.86921" lon="4.79098">
        <ele>450.04175</ele>
        <time>2023-06-29T15:24:05.000Z</time>
      </trkpt>
      <trkpt lat="45.86918" lon="4.79099">
        <ele>450.04135</ele>
        <time>2023-06-29T15:24:06.000Z</time>
      </trkpt>
      <trkpt lat="45.86916" lon="4.791">
        <ele>449.57617</ele>
        <time>2023-06-29T15:24:07.000Z</time>
      </trkpt>
      <trkpt lat="45.86914" lon="4.79101">
        <ele>449.1832</ele>
        <time>2023-06-29T15:24:08.000Z</time>
      </trkpt>
      <trkpt lat="45.86913" lon="4.79102">
        <ele>448.89078</ele>
        <time>2023-06-29T15:24:09.000Z</time>
      </trkpt>
      <trkpt lat="45.86911" lon="4.79102">
        <ele>448.5957</ele>
        <time>2023-06-29T15:24:10.000Z</time>
      </trkpt>
      <trkpt lat="45.86908" lon="4.791">
        <ele>448.43182</ele>
        <time>2023-06-29T15:24:12.000Z</time>
      </trkpt>
      <trkpt lat="45.86905" lon="4.79096">
        <ele>449.92252</ele>
        <time>2023-06-29T15:24:14.000Z</time>
      </trkpt>
      <trkpt lat="45.86904" lon="4.79095">
        <ele>451.59448</ele>
        <time>2023-06-29T15:24:21.000Z</time>
      </trkpt>
      <trkpt lat="45.86905" lon="4.79096">
        <ele>453.14215</ele>
        <time>2023-06-29T15:24:35.000Z</time>
      </trkpt>
      <trkpt lat="45.86907" lon="4.79096">
        <ele>454.97989</ele>
        <time>2023-06-29T15:24:37.000Z</time>
      </trkpt>
      <trkpt lat="45.86905" lon="4.79095">
        <ele>459.9621</ele>
        <time>2023-06-29T15:24:50.000Z</time>
      </trkpt>
      <trkpt lat="45.86902" lon="4.79093">
        <ele>461.1731</ele>
        <time>2023-06-29T15:24:52.000Z</time>
      </trkpt>
      <trkpt lat="45.869" lon="4.7909">
        <ele>462.45728</ele>
        <time>2023-06-29T15:24:54.000Z</time>
      </trkpt>
      <trkpt lat="45.86898" lon="4.79088">
        <ele>466.46198</ele>
        <time>2023-06-29T15:24:56.000Z</time>
      </trkpt>
      <trkpt lat="45.86898" lon="4.79084">
        <ele>467.06894</ele>
        <time>2023-06-29T15:24:58.000Z</time>
      </trkpt>
      <trkpt lat="45.86897" lon="4.79081">
        <ele>468.1001</ele>
        <time>2023-06-29T15:25:01.000Z</time>
      </trkpt>
      <trkpt lat="45.86896" lon="4.79078">
        <ele>470.76166</ele>
        <time>2023-06-29T15:25:04.000Z</time>
      </trkpt>
      <trkpt lat="45.86896" lon="4.79076">
        <ele>471.41934</ele>
        <time>2023-06-29T15:25:14.000Z</time>
      </trkpt>
      <trkpt lat="45.86895" lon="4.79074">
        <ele>468.32013</ele>
        <time>2023-06-29T15:25:24.000Z</time>
      </trkpt>
      <trkpt lat="45.86895" lon="4.79071">
        <ele>468.73077</ele>
        <time>2023-06-29T15:25:28.000Z</time>
      </trkpt>
      <trkpt lat="45.86895" lon="4.79066">
        <ele>466.03604</ele>
        <time>2023-06-29T15:25:30.000Z</time>
      </trkpt>
      <trkpt lat="45.86896" lon="4.79062">
        <ele>466.39813</ele>
        <time>2023-06-29T15:25:32.000Z</time>
      </trkpt>
      <trkpt lat="45.86898" lon="4.7906">
        <ele>466.79279</ele>
        <time>2023-06-29T15:25:34.000Z</time>
      </trkpt>
      <trkpt lat="45.86898" lon="4.79056">
        <ele>461.13672</ele>
        <time>2023-06-29T15:25:36.000Z</time>
      </trkpt>
      <trkpt lat="45.86899" lon="4.79054">
        <ele>461.17303</ele>
        <time>2023-06-29T15:25:37.000Z</time>
      </trkpt>
      <trkpt lat="45.869" lon="4.79049">
        <ele>461.20435</ele>
        <time>2023-06-29T15:25:39.000Z</time>
      </trkpt>
      <trkpt lat="45.869" lon="4.79044">
        <ele>460.90546</ele>
        <time>2023-06-29T15:25:41.000Z</time>
      </trkpt>
      <trkpt lat="45.86899" lon="4.79041">
        <ele>454.22052</ele>
        <time>2023-06-29T15:25:42.000Z</time>
      </trkpt>
      <trkpt lat="45.869" lon="4.79038">
        <ele>453.80582</ele>
        <time>2023-06-29T15:25:43.000Z</time>
      </trkpt>
      <trkpt lat="45.869" lon="4.79036">
        <ele>453.06259</ele>
        <time>2023-06-29T15:25:44.000Z</time>
      </trkpt>
      <trkpt lat="45.86901" lon="4.79032">
        <ele>448.53232</ele>
        <time>2023-06-29T15:25:46.000Z</time>
      </trkpt>
      <trkpt lat="45.86901" lon="4.79029">
        <ele>441.23105</ele>
        <time>2023-06-29T15:25:48.000Z</time>
      </trkpt>
      <trkpt lat="45.86902" lon="4.79025">
        <ele>440.23398</ele>
        <time>2023-06-29T15:25:50.000Z</time>
      </trkpt>
      <trkpt lat="45.86902" lon="4.79021">
        <ele>436.41422</ele>
        <time>2023-06-29T15:25:52.000Z</time>
      </trkpt>
      <trkpt lat="45.86902" lon="4.79019">
        <ele>428.31201</ele>
        <time>2023-06-29T15:26:00.000Z</time>
      </trkpt>
      <trkpt lat="45.869" lon="4.79018">
        <ele>428.14203</ele>
        <time>2023-06-29T15:26:06.000Z</time>
      </trkpt>
      <trkpt lat="45.869" lon="4.79015">
        <ele>424.26236</ele>
        <time>2023-06-29T15:26:08.000Z</time>
      </trkpt>
      <trkpt lat="45.869" lon="4.79012">
        <ele>421.98553</ele>
        <time>2023-06-29T15:26:10.000Z</time>
      </trkpt>
      <trkpt lat="45.869" lon="4.79007">
        <ele>425.60382</ele>
        <time>2023-06-29T15:26:12.000Z</time>
      </trkpt>
      <trkpt lat="45.86901" lon="4.79003">
        <ele>423.46796</ele>
        <time>2023-06-29T15:26:14.000Z</time>
      </trkpt>
      <trkpt lat="45.86902" lon="4.78999">
        <ele>424.37949</ele>
        <time>2023-06-29T15:26:16.000Z</time>
      </trkpt>
      <trkpt lat="45.86902" lon="4.78996">
        <ele>422.29669</ele>
        <time>2023-06-29T15:26:17.000Z</time>
      </trkpt>
      <trkpt lat="45.86902" lon="4.78993">
        <ele>422.69385</ele>
        <time>2023-06-29T15:26:18.000Z</time>
      </trkpt>
      <trkpt lat="45.86902" lon="4.7899">
        <ele>426.5043</ele>
        <time>2023-06-29T15:26:19.000Z</time>
      </trkpt>
      <trkpt lat="45.86903" lon="4.78985">
        <ele>424.77264</ele>
        <time>2023-06-29T15:26:21.000Z</time>
      </trkpt>
      <trkpt lat="45.86903" lon="4.78982">
        <ele>422.95264</ele>
        <time>2023-06-29T15:26:22.000Z</time>
      </trkpt>
      <trkpt lat="45.86902" lon="4.78978">
        <ele>423.54541</ele>
        <time>2023-06-29T15:26:24.000Z</time>
      </trkpt>
      <trkpt lat="45.86902" lon="4.78975">
        <ele>428.23663</ele>
        <time>2023-06-29T15:26:25.000Z</time>
      </trkpt>
      <trkpt lat="45.86901" lon="4.78972">
        <ele>426.93741</ele>
        <time>2023-06-29T15:26:26.000Z</time>
      </trkpt>
      <trkpt lat="45.869" lon="4.78967">
        <ele>425.59399</ele>
        <time>2023-06-29T15:26:28.000Z</time>
      </trkpt>
      <trkpt lat="45.86898" lon="4.78964">
        <ele>424.22055</ele>
        <time>2023-06-29T15:26:29.000Z</time>
      </trkpt>
      <trkpt lat="45.86897" lon="4.78963">
        <ele>432.1788</ele>
        <time>2023-06-29T15:26:30.000Z</time>
      </trkpt>
      <trkpt lat="45.86895" lon="4.7896">
        <ele>431.72617</ele>
        <time>2023-06-29T15:26:31.000Z</time>
      </trkpt>
      <trkpt lat="45.86893" lon="4.78959">
        <ele>431.30078</ele>
        <time>2023-06-29T15:26:32.000Z</time>
      </trkpt>
      <trkpt lat="45.86891" lon="4.78955">
        <ele>437.64493</ele>
        <time>2023-06-29T15:26:34.000Z</time>
      </trkpt>
      <trkpt lat="45.86891" lon="4.78953">
        <ele>436.34366</ele>
        <time>2023-06-29T15:26:35.000Z</time>
      </trkpt>
      <trkpt lat="45.86891" lon="4.7895">
        <ele>438.52069</ele>
        <time>2023-06-29T15:26:36.000Z</time>
      </trkpt>
      <trkpt lat="45.8689" lon="4.78947">
        <ele>439.23358</ele>
        <time>2023-06-29T15:26:37.000Z</time>
      </trkpt>
      <trkpt lat="45.86889" lon="4.78945">
        <ele>437.72681</ele>
        <time>2023-06-29T15:26:38.000Z</time>
      </trkpt>
      <trkpt lat="45.86889" lon="4.78939">
        <ele>438.33295</ele>
        <time>2023-06-29T15:26:40.000Z</time>
      </trkpt>
      <trkpt lat="45.86889" lon="4.78935">
        <ele>439.07623</ele>
        <time>2023-06-29T15:26:41.000Z</time>
      </trkpt>
      <trkpt lat="45.86889" lon="4.78933">
        <ele>440.51328</ele>
        <time>2023-06-29T15:26:42.000Z</time>
      </trkpt>
      <trkpt lat="45.86889" lon="4.78929">
        <ele>438.89862</ele>
        <time>2023-06-29T15:26:43.000Z</time>
      </trkpt>
      <trkpt lat="45.86888" lon="4.78926">
        <ele>439.5235</ele>
        <time>2023-06-29T15:26:44.000Z</time>
      </trkpt>
      <trkpt lat="45.86887" lon="4.78923">
        <ele>439.73886</ele>
        <time>2023-06-29T15:26:45.000Z</time>
      </trkpt>
      <trkpt lat="45.86886" lon="4.78919">
        <ele>439.97583</ele>
        <time>2023-06-29T15:26:46.000Z</time>
      </trkpt>
      <trkpt lat="45.86885" lon="4.78916">
        <ele>437.84503</ele>
        <time>2023-06-29T15:26:47.000Z</time>
      </trkpt>
      <trkpt lat="45.86884" lon="4.78912">
        <ele>438.1983</ele>
        <time>2023-06-29T15:26:48.000Z</time>
      </trkpt>
      <trkpt lat="45.86884" lon="4.78909">
        <ele>438.34259</ele>
        <time>2023-06-29T15:26:49.000Z</time>
      </trkpt>
      <trkpt lat="45.86883" lon="4.78905">
        <ele>438.55792</ele>
        <time>2023-06-29T15:26:50.000Z</time>
      </trkpt>
      <trkpt lat="45.86882" lon="4.78901">
        <ele>438.74042</ele>
        <time>2023-06-29T15:26:51.000Z</time>
      </trkpt>
      <trkpt lat="45.86881" lon="4.78896">
        <ele>436.51163</ele>
        <time>2023-06-29T15:26:52.000Z</time>
      </trkpt>
      <trkpt lat="45.8688" lon="4.78892">
        <ele>436.32999</ele>
        <time>2023-06-29T15:26:53.000Z</time>
      </trkpt>
      <trkpt lat="45.86879" lon="4.78888">
        <ele>436.19199</ele>
        <time>2023-06-29T15:26:54.000Z</time>
      </trkpt>
      <trkpt lat="45.86877" lon="4.78884">
        <ele>436.0914</ele>
        <time>2023-06-29T15:26:55.000Z</time>
      </trkpt>
      <trkpt lat="45.86876" lon="4.78881">
        <ele>435.62891</ele>
        <time>2023-06-29T15:26:56.000Z</time>
      </trkpt>
      <trkpt lat="45.86876" lon="4.78877">
        <ele>433.44843</ele>
        <time>2023-06-29T15:26:57.000Z</time>
      </trkpt>
      <trkpt lat="45.86875" lon="4.78872">
        <ele>432.95557</ele>
        <time>2023-06-29T15:26:58.000Z</time>
      </trkpt>
      <trkpt lat="45.86875" lon="4.78868">
        <ele>432.47647</ele>
        <time>2023-06-29T15:26:59.000Z</time>
      </trkpt>
      <trkpt lat="45.86875" lon="4.78864">
        <ele>432.12012</ele>
        <time>2023-06-29T15:27:00.000Z</time>
      </trkpt>
      <trkpt lat="45.86874" lon="4.78861">
        <ele>431.75934</ele>
        <time>2023-06-29T15:27:01.000Z</time>
      </trkpt>
      <trkpt lat="45.86874" lon="4.78857">
        <ele>430.69562</ele>
        <time>2023-06-29T15:27:02.000Z</time>
      </trkpt>
      <trkpt lat="45.86873" lon="4.78854">
        <ele>430.28339</ele>
        <time>2023-06-29T15:27:03.000Z</time>
      </trkpt>
      <trkpt lat="45.86873" lon="4.78851">
        <ele>430.19336</ele>
        <time>2023-06-29T15:27:04.000Z</time>
      </trkpt>
      <trkpt lat="45.86872" lon="4.78846">
        <ele>430.29883</ele>
        <time>2023-06-29T15:27:05.000Z</time>
      </trkpt>
      <trkpt lat="45.86872" lon="4.78842">
        <ele>430.43781</ele>
        <time>2023-06-29T15:27:06.000Z</time>
      </trkpt>
      <trkpt lat="45.86871" lon="4.78838">
        <ele>430.5625</ele>
        <time>2023-06-29T15:27:07.000Z</time>
      </trkpt>
      <trkpt lat="45.8687" lon="4.78834">
        <ele>430.69473</ele>
        <time>2023-06-29T15:27:08.000Z</time>
      </trkpt>
      <trkpt lat="45.86869" lon="4.7883">
        <ele>430.82245</ele>
        <time>2023-06-29T15:27:09.000Z</time>
      </trkpt>
      <trkpt lat="45.86869" lon="4.78828">
        <ele>430.91284</ele>
        <time>2023-06-29T15:27:10.000Z</time>
      </trkpt>
      <trkpt lat="45.86867" lon="4.78823">
        <ele>431.14752</ele>
        <time>2023-06-29T15:27:12.000Z</time>
      </trkpt>
      <trkpt lat="45.86866" lon="4.7882">
        <ele>431.38599</ele>
        <time>2023-06-29T15:27:13.000Z</time>
      </trkpt>
      <trkpt lat="45.86865" lon="4.78818">
        <ele>431.64014</ele>
        <time>2023-06-29T15:27:14.000Z</time>
      </trkpt>
      <trkpt lat="45.86864" lon="4.78815">
        <ele>431.87338</ele>
        <time>2023-06-29T15:27:15.000Z</time>
      </trkpt>
      <trkpt lat="45.86863" lon="4.78812">
        <ele>432.01416</ele>
        <time>2023-06-29T15:27:16.000Z</time>
      </trkpt>
      <trkpt lat="45.86862" lon="4.78809">
        <ele>432.2186</ele>
        <time>2023-06-29T15:27:18.000Z</time>
      </trkpt>
      <trkpt lat="45.86861" lon="4.78805">
        <ele>432.60873</ele>
        <time>2023-06-29T15:27:22.000Z</time>
      </trkpt>
      <trkpt lat="45.8686" lon="4.78804">
        <ele>433.04608</ele>
        <time>2023-06-29T15:27:32.000Z</time>
      </trkpt>
      <trkpt lat="45.86858" lon="4.78802">
        <ele>433.45883</ele>
        <time>2023-06-29T15:27:38.000Z</time>
      </trkpt>
      <trkpt lat="45.86855" lon="4.78802">
        <ele>433.84732</ele>
        <time>2023-06-29T15:27:40.000Z</time>
      </trkpt>
      <trkpt lat="45.86852" lon="4.78805">
        <ele>434.25098</ele>
        <time>2023-06-29T15:27:42.000Z</time>
      </trkpt>
      <trkpt lat="45.8685" lon="4.78806">
        <ele>434.65616</ele>
        <time>2023-06-29T15:27:43.000Z</time>
      </trkpt>
      <trkpt lat="45.86847" lon="4.78806">
        <ele>434.98965</ele>
        <time>2023-06-29T15:27:44.000Z</time>
      </trkpt>
      <trkpt lat="45.86845" lon="4.78807">
        <ele>435.33978</ele>
        <time>2023-06-29T15:27:45.000Z</time>
      </trkpt>
      <trkpt lat="45.86843" lon="4.78808">
        <ele>435.70712</ele>
        <time>2023-06-29T15:27:46.000Z</time>
      </trkpt>
      <trkpt lat="45.86841" lon="4.78809">
        <ele>436.12735</ele>
        <time>2023-06-29T15:27:47.000Z</time>
      </trkpt>
      <trkpt lat="45.86839" lon="4.78809">
        <ele>436.49771</ele>
        <time>2023-06-29T15:27:48.000Z</time>
      </trkpt>
      <trkpt lat="45.86836" lon="4.7881">
        <ele>436.80624</ele>
        <time>2023-06-29T15:27:49.000Z</time>
      </trkpt>
      <trkpt lat="45.86834" lon="4.78811">
        <ele>437.09952</ele>
        <time>2023-06-29T15:27:50.000Z</time>
      </trkpt>
      <trkpt lat="45.86833" lon="4.78812">
        <ele>437.38715</ele>
        <time>2023-06-29T15:27:51.000Z</time>
      </trkpt>
      <trkpt lat="45.86831" lon="4.78814">
        <ele>437.6601</ele>
        <time>2023-06-29T15:27:52.000Z</time>
      </trkpt>
      <trkpt lat="45.86829" lon="4.78815">
        <ele>438.06696</ele>
        <time>2023-06-29T15:27:53.000Z</time>
      </trkpt>
      <trkpt lat="45.86826" lon="4.78815">
        <ele>438.43939</ele>
        <time>2023-06-29T15:27:54.000Z</time>
      </trkpt>
      <trkpt lat="45.86824" lon="4.78816">
        <ele>438.83917</ele>
        <time>2023-06-29T15:27:55.000Z</time>
      </trkpt>
      <trkpt lat="45.86822" lon="4.78816">
        <ele>439.32016</ele>
        <time>2023-06-29T15:27:56.000Z</time>
      </trkpt>
      <trkpt lat="45.8682" lon="4.78817">
        <ele>439.80151</ele>
        <time>2023-06-29T15:27:57.000Z</time>
      </trkpt>
      <trkpt lat="45.86818" lon="4.78817">
        <ele>440.0997</ele>
        <time>2023-06-29T15:27:58.000Z</time>
      </trkpt>
      <trkpt lat="45.86815" lon="4.78817">
        <ele>440.34482</ele>
        <time>2023-06-29T15:27:59.000Z</time>
      </trkpt>
      <trkpt lat="45.86812" lon="4.78818">
        <ele>440.56378</ele>
        <time>2023-06-29T15:28:00.000Z</time>
      </trkpt>
      <trkpt lat="45.8681" lon="4.78818">
        <ele>440.68344</ele>
        <time>2023-06-29T15:28:01.000Z</time>
      </trkpt>
      <trkpt lat="45.86808" lon="4.78819">
        <ele>440.78693</ele>
        <time>2023-06-29T15:28:02.000Z</time>
      </trkpt>
      <trkpt lat="45.86806" lon="4.78819">
        <ele>440.81674</ele>
        <time>2023-06-29T15:28:03.000Z</time>
      </trkpt>
      <trkpt lat="45.86802" lon="4.7882">
        <ele>440.79218</ele>
        <time>2023-06-29T15:28:05.000Z</time>
      </trkpt>
      <trkpt lat="45.868" lon="4.78821">
        <ele>440.742</ele>
        <time>2023-06-29T15:28:06.000Z</time>
      </trkpt>
      <trkpt lat="45.86798" lon="4.78822">
        <ele>440.67227</ele>
        <time>2023-06-29T15:28:07.000Z</time>
      </trkpt>
      <trkpt lat="45.86795" lon="4.78824">
        <ele>440.59515</ele>
        <time>2023-06-29T15:28:08.000Z</time>
      </trkpt>
      <trkpt lat="45.86792" lon="4.78825">
        <ele>440.57211</ele>
        <time>2023-06-29T15:28:09.000Z</time>
      </trkpt>
      <trkpt lat="45.8679" lon="4.78826">
        <ele>440.63159</ele>
        <time>2023-06-29T15:28:10.000Z</time>
      </trkpt>
      <trkpt lat="45.86788" lon="4.78827">
        <ele>440.74478</ele>
        <time>2023-06-29T15:28:11.000Z</time>
      </trkpt>
      <trkpt lat="45.86785" lon="4.78828">
        <ele>440.90326</ele>
        <time>2023-06-29T15:28:12.000Z</time>
      </trkpt>
      <trkpt lat="45.86783" lon="4.78829">
        <ele>441.06036</ele>
        <time>2023-06-29T15:28:13.000Z</time>
      </trkpt>
      <trkpt lat="45.8678" lon="4.78829">
        <ele>441.1087</ele>
        <time>2023-06-29T15:28:14.000Z</time>
      </trkpt>
      <trkpt lat="45.86778" lon="4.7883">
        <ele>441.16974</ele>
        <time>2023-06-29T15:28:15.000Z</time>
      </trkpt>
      <trkpt lat="45.86774" lon="4.78831">
        <ele>441.26596</ele>
        <time>2023-06-29T15:28:17.000Z</time>
      </trkpt>
      <trkpt lat="45.86772" lon="4.78831">
        <ele>441.36792</ele>
        <time>2023-06-29T15:28:18.000Z</time>
      </trkpt>
      <trkpt lat="45.8677" lon="4.78832">
        <ele>441.45126</ele>
        <time>2023-06-29T15:28:19.000Z</time>
      </trkpt>
      <trkpt lat="45.86768" lon="4.78835">
        <ele>441.57129</ele>
        <time>2023-06-29T15:28:20.000Z</time>
      </trkpt>
      <trkpt lat="45.86766" lon="4.78838">
        <ele>441.72516</ele>
        <time>2023-06-29T15:28:21.000Z</time>
      </trkpt>
      <trkpt lat="45.86766" lon="4.78841">
        <ele>441.87085</ele>
        <time>2023-06-29T15:28:22.000Z</time>
      </trkpt>
      <trkpt lat="45.86766" lon="4.78844">
        <ele>442.10889</ele>
        <time>2023-06-29T15:28:23.000Z</time>
      </trkpt>
      <trkpt lat="45.86767" lon="4.78847">
        <ele>442.29663</ele>
        <time>2023-06-29T15:28:24.000Z</time>
      </trkpt>
      <trkpt lat="45.86768" lon="4.7885">
        <ele>442.51929</ele>
        <time>2023-06-29T15:28:25.000Z</time>
      </trkpt>
      <trkpt lat="45.8677" lon="4.78854">
        <ele>442.79745</ele>
        <time>2023-06-29T15:28:27.000Z</time>
      </trkpt>
      <trkpt lat="45.86772" lon="4.78857">
        <ele>443.08136</ele>
        <time>2023-06-29T15:28:29.000Z</time>
      </trkpt>
      <trkpt lat="45.86773" lon="4.78861">
        <ele>443.39218</ele>
        <time>2023-06-29T15:28:31.000Z</time>
      </trkpt>
      <trkpt lat="45.86774" lon="4.78864">
        <ele>443.60416</ele>
        <time>2023-06-29T15:28:33.000Z</time>
      </trkpt>
      <trkpt lat="45.86774" lon="4.7887">
        <ele>443.79013</ele>
        <time>2023-06-29T15:28:35.000Z</time>
      </trkpt>
      <trkpt lat="45.86774" lon="4.78873">
        <ele>443.94888</ele>
        <time>2023-06-29T15:28:36.000Z</time>
      </trkpt>
      <trkpt lat="45.86773" lon="4.78877">
        <ele>446.43091</ele>
        <time>2023-06-29T15:28:37.000Z</time>
      </trkpt>
      <trkpt lat="45.86773" lon="4.78879">
        <ele>446.65372</ele>
        <time>2023-06-29T15:28:38.000Z</time>
      </trkpt>
      <trkpt lat="45.86772" lon="4.78885">
        <ele>446.85947</ele>
        <time>2023-06-29T15:28:40.000Z</time>
      </trkpt>
      <trkpt lat="45.86772" lon="4.78888">
        <ele>447.08252</ele>
        <time>2023-06-29T15:28:41.000Z</time>
      </trkpt>
      <trkpt lat="45.86772" lon="4.78892">
        <ele>448.64252</ele>
        <time>2023-06-29T15:28:42.000Z</time>
      </trkpt>
      <trkpt lat="45.86771" lon="4.78895">
        <ele>450.14566</ele>
        <time>2023-06-29T15:28:43.000Z</time>
      </trkpt>
      <trkpt lat="45.86771" lon="4.78898">
        <ele>451.60382</ele>
        <time>2023-06-29T15:28:44.000Z</time>
      </trkpt>
      <trkpt lat="45.86771" lon="4.78901">
        <ele>453.06982</ele>
        <time>2023-06-29T15:28:45.000Z</time>
      </trkpt>
      <trkpt lat="45.8677" lon="4.78905">
        <ele>454.53867</ele>
        <time>2023-06-29T15:28:47.000Z</time>
      </trkpt>
      <trkpt lat="45.8677" lon="4.78907">
        <ele>456.02408</ele>
        <time>2023-06-29T15:28:48.000Z</time>
      </trkpt>
      <trkpt lat="45.86769" lon="4.78911">
        <ele>457.82895</ele>
        <time>2023-06-29T15:28:49.000Z</time>
      </trkpt>
      <trkpt lat="45.86769" lon="4.78914">
        <ele>459.63199</ele>
        <time>2023-06-29T15:28:50.000Z</time>
      </trkpt>
      <trkpt lat="45.86768" lon="4.78917">
        <ele>461.53546</ele>
        <time>2023-06-29T15:28:51.000Z</time>
      </trkpt>
      <trkpt lat="45.86767" lon="4.7892">
        <ele>463.31598</ele>
        <time>2023-06-29T15:28:52.000Z</time>
      </trkpt>
      <trkpt lat="45.86765" lon="4.78924">
        <ele>465.14688</ele>
        <time>2023-06-29T15:28:54.000Z</time>
      </trkpt>
      <trkpt lat="45.86763" lon="4.78926">
        <ele>467.21768</ele>
        <time>2023-06-29T15:28:55.000Z</time>
      </trkpt>
      <trkpt lat="45.86762" lon="4.78929">
        <ele>468.76108</ele>
        <time>2023-06-29T15:28:56.000Z</time>
      </trkpt>
      <trkpt lat="45.86761" lon="4.78931">
        <ele>470.56317</ele>
        <time>2023-06-29T15:28:57.000Z</time>
      </trkpt>
      <trkpt lat="45.86759" lon="4.78934">
        <ele>472.25153</ele>
        <time>2023-06-29T15:28:58.000Z</time>
      </trkpt>
      <trkpt lat="45.86758" lon="4.78937">
        <ele>473.99658</ele>
        <time>2023-06-29T15:28:59.000Z</time>
      </trkpt>
      <trkpt lat="45.86757" lon="4.7894">
        <ele>473.39771</ele>
        <time>2023-06-29T15:29:01.000Z</time>
      </trkpt>
      <trkpt lat="45.86755" lon="4.78942">
        <ele>475.08783</ele>
        <time>2023-06-29T15:29:02.000Z</time>
      </trkpt>
      <trkpt lat="45.86753" lon="4.78944">
        <ele>476.62958</ele>
        <time>2023-06-29T15:29:03.000Z</time>
      </trkpt>
      <trkpt lat="45.86752" lon="4.78947">
        <ele>478.17487</ele>
        <time>2023-06-29T15:29:04.000Z</time>
      </trkpt>
      <trkpt lat="45.8675" lon="4.78949">
        <ele>478.54565</ele>
        <time>2023-06-29T15:29:05.000Z</time>
      </trkpt>
      <trkpt lat="45.86749" lon="4.78951">
        <ele>479.13019</ele>
        <time>2023-06-29T15:29:06.000Z</time>
      </trkpt>
      <trkpt lat="45.86748" lon="4.78953">
        <ele>479.78094</ele>
        <time>2023-06-29T15:29:07.000Z</time>
      </trkpt>
      <trkpt lat="45.86748" lon="4.78956">
        <ele>480.45605</ele>
        <time>2023-06-29T15:29:08.000Z</time>
      </trkpt>
      <trkpt lat="45.86747" lon="4.78959">
        <ele>481.18784</ele>
        <time>2023-06-29T15:29:09.000Z</time>
      </trkpt>
      <trkpt lat="45.86747" lon="4.78963">
        <ele>481.80597</ele>
        <time>2023-06-29T15:29:10.000Z</time>
      </trkpt>
      <trkpt lat="45.86746" lon="4.78966">
        <ele>482.1994</ele>
        <time>2023-06-29T15:29:11.000Z</time>
      </trkpt>
      <trkpt lat="45.86746" lon="4.78969">
        <ele>482.57333</ele>
        <time>2023-06-29T15:29:12.000Z</time>
      </trkpt>
      <trkpt lat="45.86746" lon="4.78972">
        <ele>482.96738</ele>
        <time>2023-06-29T15:29:13.000Z</time>
      </trkpt>
      <trkpt lat="45.86746" lon="4.78975">
        <ele>483.54697</ele>
        <time>2023-06-29T15:29:14.000Z</time>
      </trkpt>
      <trkpt lat="45.86745" lon="4.78978">
        <ele>484.00262</ele>
        <time>2023-06-29T15:29:15.000Z</time>
      </trkpt>
      <trkpt lat="45.86745" lon="4.78981">
        <ele>484.29877</ele>
        <time>2023-06-29T15:29:16.000Z</time>
      </trkpt>
      <trkpt lat="45.86744" lon="4.78987">
        <ele>485.17145</ele>
        <time>2023-06-29T15:29:18.000Z</time>
      </trkpt>
      <trkpt lat="45.86744" lon="4.7899">
        <ele>485.83398</ele>
        <time>2023-06-29T15:29:19.000Z</time>
      </trkpt>
      <trkpt lat="45.86744" lon="4.78993">
        <ele>486.67172</ele>
        <time>2023-06-29T15:29:20.000Z</time>
      </trkpt>
      <trkpt lat="45.86743" lon="4.78996">
        <ele>487.00897</ele>
        <time>2023-06-29T15:29:21.000Z</time>
      </trkpt>
      <trkpt lat="45.86743" lon="4.78999">
        <ele>487.37515</ele>
        <time>2023-06-29T15:29:22.000Z</time>
      </trkpt>
      <trkpt lat="45.86743" lon="4.79002">
        <ele>487.66104</ele>
        <time>2023-06-29T15:29:23.000Z</time>
      </trkpt>
      <trkpt lat="45.86742" lon="4.79006">
        <ele>488.14142</ele>
        <time>2023-06-29T15:29:24.000Z</time>
      </trkpt>
      <trkpt lat="45.86741" lon="4.79009">
        <ele>488.65976</ele>
        <time>2023-06-29T15:29:25.000Z</time>
      </trkpt>
      <trkpt lat="45.86741" lon="4.79012">
        <ele>488.99423</ele>
        <time>2023-06-29T15:29:26.000Z</time>
      </trkpt>
      <trkpt lat="45.86741" lon="4.79016">
        <ele>489.07745</ele>
        <time>2023-06-29T15:29:27.000Z</time>
      </trkpt>
      <trkpt lat="45.8674" lon="4.79019">
        <ele>489.10855</ele>
        <time>2023-06-29T15:29:28.000Z</time>
      </trkpt>
      <trkpt lat="45.8674" lon="4.79022">
        <ele>489.08105</ele>
        <time>2023-06-29T15:29:29.000Z</time>
      </trkpt>
      <trkpt lat="45.86738" lon="4.79025">
        <ele>488.96182</ele>
        <time>2023-06-29T15:29:30.000Z</time>
      </trkpt>
      <trkpt lat="45.86737" lon="4.79028">
        <ele>488.84552</ele>
        <time>2023-06-29T15:29:31.000Z</time>
      </trkpt>
      <trkpt lat="45.86736" lon="4.79031">
        <ele>488.70966</ele>
        <time>2023-06-29T15:29:32.000Z</time>
      </trkpt>
      <trkpt lat="45.86734" lon="4.79033">
        <ele>488.57855</ele>
        <time>2023-06-29T15:29:33.000Z</time>
      </trkpt>
      <trkpt lat="45.86733" lon="4.79036">
        <ele>488.3443</ele>
        <time>2023-06-29T15:29:34.000Z</time>
      </trkpt>
      <trkpt lat="45.86731" lon="4.79038">
        <ele>488.04541</ele>
        <time>2023-06-29T15:29:35.000Z</time>
      </trkpt>
      <trkpt lat="45.86729" lon="4.79041">
        <ele>487.80536</ele>
        <time>2023-06-29T15:29:36.000Z</time>
      </trkpt>
      <trkpt lat="45.86727" lon="4.79043">
        <ele>487.54117</ele>
        <time>2023-06-29T15:29:37.000Z</time>
      </trkpt>
      <trkpt lat="45.86725" lon="4.79046">
        <ele>487.37769</ele>
        <time>2023-06-29T15:29:38.000Z</time>
      </trkpt>
      <trkpt lat="45.86724" lon="4.79048">
        <ele>487.28613</ele>
        <time>2023-06-29T15:29:39.000Z</time>
      </trkpt>
      <trkpt lat="45.86722" lon="4.7905">
        <ele>487.14029</ele>
        <time>2023-06-29T15:29:40.000Z</time>
      </trkpt>
      <trkpt lat="45.86721" lon="4.79053">
        <ele>487.05621</ele>
        <time>2023-06-29T15:29:41.000Z</time>
      </trkpt>
      <trkpt lat="45.8672" lon="4.79056">
        <ele>486.96841</ele>
        <time>2023-06-29T15:29:42.000Z</time>
      </trkpt>
      <trkpt lat="45.86718" lon="4.79058">
        <ele>486.91528</ele>
        <time>2023-06-29T15:29:43.000Z</time>
      </trkpt>
      <trkpt lat="45.86717" lon="4.79061">
        <ele>486.81528</ele>
        <time>2023-06-29T15:29:44.000Z</time>
      </trkpt>
      <trkpt lat="45.86716" lon="4.79063">
        <ele>486.69855</ele>
        <time>2023-06-29T15:29:45.000Z</time>
      </trkpt>
      <trkpt lat="45.86715" lon="4.79066">
        <ele>486.62225</ele>
        <time>2023-06-29T15:29:46.000Z</time>
      </trkpt>
      <trkpt lat="45.86714" lon="4.79069">
        <ele>486.61295</ele>
        <time>2023-06-29T15:29:47.000Z</time>
      </trkpt>
      <trkpt lat="45.86712" lon="4.79072">
        <ele>486.64029</ele>
        <time>2023-06-29T15:29:48.000Z</time>
      </trkpt>
      <trkpt lat="45.86711" lon="4.79075">
        <ele>486.63641</ele>
        <time>2023-06-29T15:29:49.000Z</time>
      </trkpt>
      <trkpt lat="45.86709" lon="4.79077">
        <ele>486.63681</ele>
        <time>2023-06-29T15:29:50.000Z</time>
      </trkpt>
      <trkpt lat="45.86708" lon="4.7908">
        <ele>486.70514</ele>
        <time>2023-06-29T15:29:51.000Z</time>
      </trkpt>
      <trkpt lat="45.86706" lon="4.79083">
        <ele>486.69669</ele>
        <time>2023-06-29T15:29:52.000Z</time>
      </trkpt>
      <trkpt lat="45.86705" lon="4.79086">
        <ele>486.69891</ele>
        <time>2023-06-29T15:29:53.000Z</time>
      </trkpt>
      <trkpt lat="45.86703" lon="4.79088">
        <ele>486.71191</ele>
        <time>2023-06-29T15:29:54.000Z</time>
      </trkpt>
      <trkpt lat="45.86701" lon="4.79091">
        <ele>486.75229</ele>
        <time>2023-06-29T15:29:55.000Z</time>
      </trkpt>
      <trkpt lat="45.867" lon="4.79094">
        <ele>486.80719</ele>
        <time>2023-06-29T15:29:56.000Z</time>
      </trkpt>
      <trkpt lat="45.86698" lon="4.79097">
        <ele>486.83038</ele>
        <time>2023-06-29T15:29:57.000Z</time>
      </trkpt>
      <trkpt lat="45.86696" lon="4.791">
        <ele>486.70328</ele>
        <time>2023-06-29T15:29:58.000Z</time>
      </trkpt>
      <trkpt lat="45.86695" lon="4.79103">
        <ele>486.54092</ele>
        <time>2023-06-29T15:29:59.000Z</time>
      </trkpt>
      <trkpt lat="45.86693" lon="4.79106">
        <ele>486.38663</ele>
        <time>2023-06-29T15:30:00.000Z</time>
      </trkpt>
      <trkpt lat="45.86691" lon="4.79109">
        <ele>486.59921</ele>
        <time>2023-06-29T15:30:01.000Z</time>
      </trkpt>
      <trkpt lat="45.86689" lon="4.79113">
        <ele>486.9068</ele>
        <time>2023-06-29T15:30:02.000Z</time>
      </trkpt>
      <trkpt lat="45.86687" lon="4.79117">
        <ele>487.24399</ele>
        <time>2023-06-29T15:30:03.000Z</time>
      </trkpt>
      <trkpt lat="45.86685" lon="4.79121">
        <ele>487.56998</ele>
        <time>2023-06-29T15:30:04.000Z</time>
      </trkpt>
      <trkpt lat="45.86684" lon="4.79125">
        <ele>487.85547</ele>
        <time>2023-06-29T15:30:05.000Z</time>
      </trkpt>
      <trkpt lat="45.86682" lon="4.79129">
        <ele>488.22955</ele>
        <time>2023-06-29T15:30:06.000Z</time>
      </trkpt>
      <trkpt lat="45.86681" lon="4.79133">
        <ele>488.5564</ele>
        <time>2023-06-29T15:30:07.000Z</time>
      </trkpt>
      <trkpt lat="45.8668" lon="4.79138">
        <ele>488.86737</ele>
        <time>2023-06-29T15:30:08.000Z</time>
      </trkpt>
      <trkpt lat="45.86678" lon="4.79143">
        <ele>488.95142</ele>
        <time>2023-06-29T15:30:09.000Z</time>
      </trkpt>
      <trkpt lat="45.86677" lon="4.79147">
        <ele>489.07257</ele>
        <time>2023-06-29T15:30:10.000Z</time>
      </trkpt>
      <trkpt lat="45.86675" lon="4.79152">
        <ele>489.16748</ele>
        <time>2023-06-29T15:30:11.000Z</time>
      </trkpt>
      <trkpt lat="45.86674" lon="4.79156">
        <ele>489.26385</ele>
        <time>2023-06-29T15:30:12.000Z</time>
      </trkpt>
      <trkpt lat="45.86673" lon="4.7916">
        <ele>489.33926</ele>
        <time>2023-06-29T15:30:13.000Z</time>
      </trkpt>
      <trkpt lat="45.86672" lon="4.79165">
        <ele>489.4169</ele>
        <time>2023-06-29T15:30:14.000Z</time>
      </trkpt>
      <trkpt lat="45.86671" lon="4.79169">
        <ele>489.48593</ele>
        <time>2023-06-29T15:30:15.000Z</time>
      </trkpt>
      <trkpt lat="45.86669" lon="4.79174">
        <ele>489.5495</ele>
        <time>2023-06-29T15:30:16.000Z</time>
      </trkpt>
      <trkpt lat="45.86668" lon="4.79179">
        <ele>489.60141</ele>
        <time>2023-06-29T15:30:17.000Z</time>
      </trkpt>
      <trkpt lat="45.86667" lon="4.79183">
        <ele>489.68301</ele>
        <time>2023-06-29T15:30:18.000Z</time>
      </trkpt>
      <trkpt lat="45.86666" lon="4.79188">
        <ele>489.83096</ele>
        <time>2023-06-29T15:30:19.000Z</time>
      </trkpt>
      <trkpt lat="45.86664" lon="4.79193">
        <ele>490.25644</ele>
        <time>2023-06-29T15:30:20.000Z</time>
      </trkpt>
      <trkpt lat="45.86663" lon="4.79198">
        <ele>490.12021</ele>
        <time>2023-06-29T15:30:21.000Z</time>
      </trkpt>
      <trkpt lat="45.86662" lon="4.79202">
        <ele>489.84906</ele>
        <time>2023-06-29T15:30:22.000Z</time>
      </trkpt>
      <trkpt lat="45.86662" lon="4.79208">
        <ele>489.57797</ele>
        <time>2023-06-29T15:30:23.000Z</time>
      </trkpt>
      <trkpt lat="45.86661" lon="4.79213">
        <ele>488.67853</ele>
        <time>2023-06-29T15:30:24.000Z</time>
      </trkpt>
      <trkpt lat="45.8666" lon="4.79217">
        <ele>487.78979</ele>
        <time>2023-06-29T15:30:25.000Z</time>
      </trkpt>
      <trkpt lat="45.8666" lon="4.79222">
        <ele>486.81738</ele>
        <time>2023-06-29T15:30:26.000Z</time>
      </trkpt>
      <trkpt lat="45.8666" lon="4.79228">
        <ele>485.87393</ele>
        <time>2023-06-29T15:30:27.000Z</time>
      </trkpt>
      <trkpt lat="45.86659" lon="4.79233">
        <ele>484.9501</ele>
        <time>2023-06-29T15:30:28.000Z</time>
      </trkpt>
      <trkpt lat="45.86658" lon="4.79238">
        <ele>484.23804</ele>
        <time>2023-06-29T15:30:29.000Z</time>
      </trkpt>
      <trkpt lat="45.86658" lon="4.79243">
        <ele>483.39398</ele>
        <time>2023-06-29T15:30:30.000Z</time>
      </trkpt>
      <trkpt lat="45.86657" lon="4.79248">
        <ele>482.55771</ele>
        <time>2023-06-29T15:30:31.000Z</time>
      </trkpt>
      <trkpt lat="45.86657" lon="4.79252">
        <ele>481.72983</ele>
        <time>2023-06-29T15:30:32.000Z</time>
      </trkpt>
      <trkpt lat="45.86656" lon="4.79257">
        <ele>480.94669</ele>
        <time>2023-06-29T15:30:33.000Z</time>
      </trkpt>
      <trkpt lat="45.86656" lon="4.79262">
        <ele>480.15601</ele>
        <time>2023-06-29T15:30:34.000Z</time>
      </trkpt>
      <trkpt lat="45.86655" lon="4.79266">
        <ele>481.08936</ele>
        <time>2023-06-29T15:30:35.000Z</time>
      </trkpt>
      <trkpt lat="45.86655" lon="4.7927">
        <ele>480.17978</ele>
        <time>2023-06-29T15:30:36.000Z</time>
      </trkpt>
      <trkpt lat="45.86655" lon="4.79274">
        <ele>479.23395</ele>
        <time>2023-06-29T15:30:37.000Z</time>
      </trkpt>
      <trkpt lat="45.86654" lon="4.79278">
        <ele>478.51358</ele>
        <time>2023-06-29T15:30:38.000Z</time>
      </trkpt>
      <trkpt lat="45.86654" lon="4.79283">
        <ele>477.68872</ele>
        <time>2023-06-29T15:30:39.000Z</time>
      </trkpt>
      <trkpt lat="45.86654" lon="4.79288">
        <ele>476.53802</ele>
        <time>2023-06-29T15:30:40.000Z</time>
      </trkpt>
      <trkpt lat="45.86654" lon="4.79293">
        <ele>475.95215</ele>
        <time>2023-06-29T15:30:41.000Z</time>
      </trkpt>
      <trkpt lat="45.86654" lon="4.79297">
        <ele>475.33966</ele>
        <time>2023-06-29T15:30:42.000Z</time>
      </trkpt>
      <trkpt lat="45.86654" lon="4.79301">
        <ele>474.68939</ele>
        <time>2023-06-29T15:30:43.000Z</time>
      </trkpt>
      <trkpt lat="45.86654" lon="4.79305">
        <ele>474.66571</ele>
        <time>2023-06-29T15:30:44.000Z</time>
      </trkpt>
      <trkpt lat="45.86654" lon="4.7931">
        <ele>474.70499</ele>
        <time>2023-06-29T15:30:45.000Z</time>
      </trkpt>
      <trkpt lat="45.86654" lon="4.79314">
        <ele>474.73471</ele>
        <time>2023-06-29T15:30:46.000Z</time>
      </trkpt>
      <trkpt lat="45.86654" lon="4.79319">
        <ele>474.74698</ele>
        <time>2023-06-29T15:30:47.000Z</time>
      </trkpt>
      <trkpt lat="45.86654" lon="4.79324">
        <ele>474.73901</ele>
        <time>2023-06-29T15:30:48.000Z</time>
      </trkpt>
      <trkpt lat="45.86653" lon="4.79329">
        <ele>475.55136</ele>
        <time>2023-06-29T15:30:49.000Z</time>
      </trkpt>
      <trkpt lat="45.86653" lon="4.79334">
        <ele>476.45502</ele>
        <time>2023-06-29T15:30:50.000Z</time>
      </trkpt>
      <trkpt lat="45.86653" lon="4.79338">
        <ele>477.35687</ele>
        <time>2023-06-29T15:30:51.000Z</time>
      </trkpt>
      <trkpt lat="45.86653" lon="4.79343">
        <ele>478.26239</ele>
        <time>2023-06-29T15:30:52.000Z</time>
      </trkpt>
      <trkpt lat="45.86653" lon="4.79347">
        <ele>479.13779</ele>
        <time>2023-06-29T15:30:53.000Z</time>
      </trkpt>
      <trkpt lat="45.86653" lon="4.79351">
        <ele>480.03223</ele>
        <time>2023-06-29T15:30:54.000Z</time>
      </trkpt>
      <trkpt lat="45.86653" lon="4.79355">
        <ele>479.18243</ele>
        <time>2023-06-29T15:30:55.000Z</time>
      </trkpt>
      <trkpt lat="45.86653" lon="4.79358">
        <ele>479.6088</ele>
        <time>2023-06-29T15:30:56.000Z</time>
      </trkpt>
      <trkpt lat="45.86653" lon="4.79361">
        <ele>480.10391</ele>
        <time>2023-06-29T15:30:57.000Z</time>
      </trkpt>
      <trkpt lat="45.86651" lon="4.79365">
        <ele>481.34528</ele>
        <time>2023-06-29T15:30:59.000Z</time>
      </trkpt>
      <trkpt lat="45.8665" lon="4.79367">
        <ele>482.63202</ele>
        <time>2023-06-29T15:31:00.000Z</time>
      </trkpt>
      <trkpt lat="45.86649" lon="4.79371">
        <ele>483.93472</ele>
        <time>2023-06-29T15:31:01.000Z</time>
      </trkpt>
      <trkpt lat="45.8665" lon="4.79375">
        <ele>485.24692</ele>
        <time>2023-06-29T15:31:02.000Z</time>
      </trkpt>
      <trkpt lat="45.86652" lon="4.79379">
        <ele>485.25455</ele>
        <time>2023-06-29T15:31:03.000Z</time>
      </trkpt>
      <trkpt lat="45.86652" lon="4.79382">
        <ele>485.74203</ele>
        <time>2023-06-29T15:31:04.000Z</time>
      </trkpt>
      <trkpt lat="45.86653" lon="4.79386">
        <ele>486.40479</ele>
        <time>2023-06-29T15:31:05.000Z</time>
      </trkpt>
      <trkpt lat="45.86653" lon="4.7939">
        <ele>487.06918</ele>
        <time>2023-06-29T15:31:06.000Z</time>
      </trkpt>
      <trkpt lat="45.86653" lon="4.79394">
        <ele>487.68732</ele>
        <time>2023-06-29T15:31:07.000Z</time>
      </trkpt>
      <trkpt lat="45.86653" lon="4.79397">
        <ele>487.58945</ele>
        <time>2023-06-29T15:31:08.000Z</time>
      </trkpt>
      <trkpt lat="45.86653" lon="4.794">
        <ele>487.49243</ele>
        <time>2023-06-29T15:31:09.000Z</time>
      </trkpt>
      <trkpt lat="45.86653" lon="4.79403">
        <ele>486.72128</ele>
        <time>2023-06-29T15:31:10.000Z</time>
      </trkpt>
      <trkpt lat="45.86653" lon="4.79407">
        <ele>486.26984</ele>
        <time>2023-06-29T15:31:11.000Z</time>
      </trkpt>
      <trkpt lat="45.86654" lon="4.7941">
        <ele>485.77066</ele>
        <time>2023-06-29T15:31:12.000Z</time>
      </trkpt>
      <trkpt lat="45.86654" lon="4.79413">
        <ele>485.25653</ele>
        <time>2023-06-29T15:31:13.000Z</time>
      </trkpt>
      <trkpt lat="45.86655" lon="4.79416">
        <ele>484.74481</ele>
        <time>2023-06-29T15:31:14.000Z</time>
      </trkpt>
      <trkpt lat="45.86655" lon="4.79419">
        <ele>484.56552</ele>
        <time>2023-06-29T15:31:15.000Z</time>
      </trkpt>
      <trkpt lat="45.86655" lon="4.79422">
        <ele>484.41373</ele>
        <time>2023-06-29T15:31:16.000Z</time>
      </trkpt>
      <trkpt lat="45.86654" lon="4.79425">
        <ele>484.7894</ele>
        <time>2023-06-29T15:31:17.000Z</time>
      </trkpt>
      <trkpt lat="45.86654" lon="4.79428">
        <ele>485.13516</ele>
        <time>2023-06-29T15:31:18.000Z</time>
      </trkpt>
      <trkpt lat="45.86654" lon="4.79432">
        <ele>484.4765</ele>
        <time>2023-06-29T15:31:19.000Z</time>
      </trkpt>
      <trkpt lat="45.86655" lon="4.79435">
        <ele>483.7814</ele>
        <time>2023-06-29T15:31:20.000Z</time>
      </trkpt>
      <trkpt lat="45.86656" lon="4.79438">
        <ele>483.13394</ele>
        <time>2023-06-29T15:31:21.000Z</time>
      </trkpt>
      <trkpt lat="45.86656" lon="4.79442">
        <ele>482.4537</ele>
        <time>2023-06-29T15:31:22.000Z</time>
      </trkpt>
      <trkpt lat="45.86656" lon="4.79445">
        <ele>483.08994</ele>
        <time>2023-06-29T15:31:23.000Z</time>
      </trkpt>
      <trkpt lat="45.86656" lon="4.79449">
        <ele>483.24869</ele>
        <time>2023-06-29T15:31:24.000Z</time>
      </trkpt>
      <trkpt lat="45.86656" lon="4.79453">
        <ele>483.26645</ele>
        <time>2023-06-29T15:31:25.000Z</time>
      </trkpt>
      <trkpt lat="45.86656" lon="4.79458">
        <ele>483.24722</ele>
        <time>2023-06-29T15:31:26.000Z</time>
      </trkpt>
      <trkpt lat="45.86656" lon="4.79463">
        <ele>483.27783</ele>
        <time>2023-06-29T15:31:27.000Z</time>
      </trkpt>
      <trkpt lat="45.86655" lon="4.79467">
        <ele>484.01627</ele>
        <time>2023-06-29T15:31:28.000Z</time>
      </trkpt>
      <trkpt lat="45.86655" lon="4.79472">
        <ele>484.77814</ele>
        <time>2023-06-29T15:31:29.000Z</time>
      </trkpt>
      <trkpt lat="45.86654" lon="4.79477">
        <ele>485.48248</ele>
        <time>2023-06-29T15:31:30.000Z</time>
      </trkpt>
      <trkpt lat="45.86654" lon="4.79481">
        <ele>485.89276</ele>
        <time>2023-06-29T15:31:31.000Z</time>
      </trkpt>
      <trkpt lat="45.86654" lon="4.79485">
        <ele>486.32208</ele>
        <time>2023-06-29T15:31:32.000Z</time>
      </trkpt>
      <trkpt lat="45.86654" lon="4.79489">
        <ele>486.73178</ele>
        <time>2023-06-29T15:31:33.000Z</time>
      </trkpt>
      <trkpt lat="45.86654" lon="4.79492">
        <ele>487.10907</ele>
        <time>2023-06-29T15:31:34.000Z</time>
      </trkpt>
      <trkpt lat="45.86653" lon="4.79495">
        <ele>487.10898</ele>
        <time>2023-06-29T15:31:35.000Z</time>
      </trkpt>
      <trkpt lat="45.86652" lon="4.79499">
        <ele>487.0401</ele>
        <time>2023-06-29T15:31:36.000Z</time>
      </trkpt>
      <trkpt lat="45.86652" lon="4.79502">
        <ele>486.99399</ele>
        <time>2023-06-29T15:31:37.000Z</time>
      </trkpt>
      <trkpt lat="45.86651" lon="4.79506">
        <ele>487.10727</ele>
        <time>2023-06-29T15:31:38.000Z</time>
      </trkpt>
      <trkpt lat="45.86651" lon="4.7951">
        <ele>487.2421</ele>
        <time>2023-06-29T15:31:39.000Z</time>
      </trkpt>
      <trkpt lat="45.86651" lon="4.79515">
        <ele>487.44244</ele>
        <time>2023-06-29T15:31:40.000Z</time>
      </trkpt>
      <trkpt lat="45.86651" lon="4.79519">
        <ele>487.76263</ele>
        <time>2023-06-29T15:31:41.000Z</time>
      </trkpt>
      <trkpt lat="45.86651" lon="4.79523">
        <ele>488.18634</ele>
        <time>2023-06-29T15:31:42.000Z</time>
      </trkpt>
      <trkpt lat="45.86651" lon="4.79528">
        <ele>487.58633</ele>
        <time>2023-06-29T15:31:44.000Z</time>
      </trkpt>
      <trkpt lat="45.86651" lon="4.79531">
        <ele>487.06836</ele>
        <time>2023-06-29T15:31:45.000Z</time>
      </trkpt>
      <trkpt lat="45.86651" lon="4.79533">
        <ele>488.19598</ele>
        <time>2023-06-29T15:31:46.000Z</time>
      </trkpt>
      <trkpt lat="45.8665" lon="4.79536">
        <ele>489.19794</ele>
        <time>2023-06-29T15:31:47.000Z</time>
      </trkpt>
      <trkpt lat="45.86649" lon="4.79539">
        <ele>490.18814</ele>
        <time>2023-06-29T15:31:48.000Z</time>
      </trkpt>
      <trkpt lat="45.86648" lon="4.79543">
        <ele>490.3222</ele>
        <time>2023-06-29T15:31:49.000Z</time>
      </trkpt>
      <trkpt lat="45.86647" lon="4.79546">
        <ele>489.51343</ele>
        <time>2023-06-29T15:31:50.000Z</time>
      </trkpt>
      <trkpt lat="45.86647" lon="4.79549">
        <ele>488.72363</ele>
        <time>2023-06-29T15:31:51.000Z</time>
      </trkpt>
      <trkpt lat="45.86647" lon="4.79553">
        <ele>487.61319</ele>
        <time>2023-06-29T15:31:52.000Z</time>
      </trkpt>
      <trkpt lat="45.86647" lon="4.79556">
        <ele>486.87735</ele>
        <time>2023-06-29T15:31:53.000Z</time>
      </trkpt>
      <trkpt lat="45.86646" lon="4.7956">
        <ele>486.09674</ele>
        <time>2023-06-29T15:31:54.000Z</time>
      </trkpt>
      <trkpt lat="45.86647" lon="4.79563">
        <ele>486.68915</ele>
        <time>2023-06-29T15:31:55.000Z</time>
      </trkpt>
      <trkpt lat="45.86647" lon="4.79567">
        <ele>487.31122</ele>
        <time>2023-06-29T15:31:56.000Z</time>
      </trkpt>
      <trkpt lat="45.86648" lon="4.7957">
        <ele>485.90268</ele>
        <time>2023-06-29T15:31:57.000Z</time>
      </trkpt>
      <trkpt lat="45.86649" lon="4.79574">
        <ele>484.57022</ele>
        <time>2023-06-29T15:31:58.000Z</time>
      </trkpt>
      <trkpt lat="45.86649" lon="4.79579">
        <ele>483.17633</ele>
        <time>2023-06-29T15:31:59.000Z</time>
      </trkpt>
      <trkpt lat="45.8665" lon="4.79584">
        <ele>481.6525</ele>
        <time>2023-06-29T15:32:00.000Z</time>
      </trkpt>
      <trkpt lat="45.8665" lon="4.79589">
        <ele>480.0683</ele>
        <time>2023-06-29T15:32:01.000Z</time>
      </trkpt>
      <trkpt lat="45.86651" lon="4.79594">
        <ele>478.41342</ele>
        <time>2023-06-29T15:32:02.000Z</time>
      </trkpt>
      <trkpt lat="45.86651" lon="4.79598">
        <ele>477.60025</ele>
        <time>2023-06-29T15:32:03.000Z</time>
      </trkpt>
      <trkpt lat="45.86651" lon="4.79602">
        <ele>477.76074</ele>
        <time>2023-06-29T15:32:04.000Z</time>
      </trkpt>
      <trkpt lat="45.86652" lon="4.79606">
        <ele>477.8602</ele>
        <time>2023-06-29T15:32:05.000Z</time>
      </trkpt>
      <trkpt lat="45.86653" lon="4.79611">
        <ele>476.28745</ele>
        <time>2023-06-29T15:32:06.000Z</time>
      </trkpt>
      <trkpt lat="45.86654" lon="4.79615">
        <ele>473.26764</ele>
        <time>2023-06-29T15:32:07.000Z</time>
      </trkpt>
      <trkpt lat="45.86655" lon="4.79618">
        <ele>471.55673</ele>
        <time>2023-06-29T15:32:08.000Z</time>
      </trkpt>
      <trkpt lat="45.86656" lon="4.79623">
        <ele>470.62515</ele>
        <time>2023-06-29T15:32:09.000Z</time>
      </trkpt>
      <trkpt lat="45.86657" lon="4.79628">
        <ele>470.56552</ele>
        <time>2023-06-29T15:32:10.000Z</time>
      </trkpt>
      <trkpt lat="45.86657" lon="4.79633">
        <ele>470.46744</ele>
        <time>2023-06-29T15:32:11.000Z</time>
      </trkpt>
      <trkpt lat="45.86658" lon="4.79638">
        <ele>470.43732</ele>
        <time>2023-06-29T15:32:12.000Z</time>
      </trkpt>
      <trkpt lat="45.86659" lon="4.79641">
        <ele>470.27939</ele>
        <time>2023-06-29T15:32:13.000Z</time>
      </trkpt>
      <trkpt lat="45.86658" lon="4.79645">
        <ele>469.25433</ele>
        <time>2023-06-29T15:32:15.000Z</time>
      </trkpt>
      <trkpt lat="45.86655" lon="4.79642">
        <ele>467.12616</ele>
        <time>2023-06-29T15:32:17.000Z</time>
      </trkpt>
      <trkpt lat="45.86653" lon="4.79639">
        <ele>465.15732</ele>
        <time>2023-06-29T15:32:18.000Z</time>
      </trkpt>
      <trkpt lat="45.86651" lon="4.79637">
        <ele>466.26987</ele>
        <time>2023-06-29T15:32:19.000Z</time>
      </trkpt>
      <trkpt lat="45.86649" lon="4.79633">
        <ele>467.80743</ele>
        <time>2023-06-29T15:32:21.000Z</time>
      </trkpt>
      <trkpt lat="45.86649" lon="4.7963">
        <ele>469.19653</ele>
        <time>2023-06-29T15:32:22.000Z</time>
      </trkpt>
      <trkpt lat="45.86648" lon="4.79627">
        <ele>470.73004</ele>
        <time>2023-06-29T15:32:23.000Z</time>
      </trkpt>
      <trkpt lat="45.86647" lon="4.79624">
        <ele>472.52252</ele>
        <time>2023-06-29T15:32:24.000Z</time>
      </trkpt>
      <trkpt lat="45.86646" lon="4.79621">
        <ele>474.35773</ele>
        <time>2023-06-29T15:32:25.000Z</time>
      </trkpt>
      <trkpt lat="45.86644" lon="4.79617">
        <ele>474.15494</ele>
        <time>2023-06-29T15:32:27.000Z</time>
      </trkpt>
      <trkpt lat="45.86642" lon="4.79614">
        <ele>473.98267</ele>
        <time>2023-06-29T15:32:28.000Z</time>
      </trkpt>
      <trkpt lat="45.86642" lon="4.7961">
        <ele>475.15204</ele>
        <time>2023-06-29T15:32:30.000Z</time>
      </trkpt>
      <trkpt lat="45.86642" lon="4.79607">
        <ele>475.01666</ele>
        <time>2023-06-29T15:32:31.000Z</time>
      </trkpt>
      <trkpt lat="45.8664" lon="4.79603">
        <ele>476.41431</ele>
        <time>2023-06-29T15:32:32.000Z</time>
      </trkpt>
      <trkpt lat="45.86639" lon="4.79601">
        <ele>476.57162</ele>
        <time>2023-06-29T15:32:33.000Z</time>
      </trkpt>
      <trkpt lat="45.86638" lon="4.79599">
        <ele>476.82236</ele>
        <time>2023-06-29T15:32:34.000Z</time>
      </trkpt>
      <trkpt lat="45.86637" lon="4.79596">
        <ele>477.13223</ele>
        <time>2023-06-29T15:32:35.000Z</time>
      </trkpt>
      <trkpt lat="45.86635" lon="4.79593">
        <ele>479.9371</ele>
        <time>2023-06-29T15:32:36.000Z</time>
      </trkpt>
      <trkpt lat="45.86633" lon="4.79591">
        <ele>480.64111</ele>
        <time>2023-06-29T15:32:37.000Z</time>
      </trkpt>
      <trkpt lat="45.86632" lon="4.79589">
        <ele>481.15128</ele>
        <time>2023-06-29T15:32:38.000Z</time>
      </trkpt>
      <trkpt lat="45.8663" lon="4.79587">
        <ele>482.6308</ele>
        <time>2023-06-29T15:32:39.000Z</time>
      </trkpt>
      <trkpt lat="45.86628" lon="4.79585">
        <ele>485.42685</ele>
        <time>2023-06-29T15:32:40.000Z</time>
      </trkpt>
      <trkpt lat="45.86627" lon="4.79582">
        <ele>488.05109</ele>
        <time>2023-06-29T15:32:41.000Z</time>
      </trkpt>
      <trkpt lat="45.86626" lon="4.79579">
        <ele>489.64575</ele>
        <time>2023-06-29T15:32:42.000Z</time>
      </trkpt>
      <trkpt lat="45.86625" lon="4.79578">
        <ele>490.83496</ele>
        <time>2023-06-29T15:32:43.000Z</time>
      </trkpt>
      <trkpt lat="45.86622" lon="4.79577">
        <ele>492.10455</ele>
        <time>2023-06-29T15:32:45.000Z</time>
      </trkpt>
      <trkpt lat="45.86623" lon="4.79575">
        <ele>493.22543</ele>
        <time>2023-06-29T15:33:54.000Z</time>
      </trkpt>
      <trkpt lat="45.86622" lon="4.79573">
        <ele>493.98495</ele>
        <time>2023-06-29T15:35:29.000Z</time>
      </trkpt>
      <trkpt lat="45.8662" lon="4.7957">
        <ele>494.51065</ele>
        <time>2023-06-29T15:35:31.000Z</time>
      </trkpt>
      <trkpt lat="45.86619" lon="4.79568">
        <ele>496.15195</ele>
        <time>2023-06-29T15:35:32.000Z</time>
      </trkpt>
      <trkpt lat="45.86618" lon="4.79565">
        <ele>497.82559</ele>
        <time>2023-06-29T15:35:34.000Z</time>
      </trkpt>
      <trkpt lat="45.86617" lon="4.79561">
        <ele>498.14478</ele>
        <time>2023-06-29T15:35:36.000Z</time>
      </trkpt>
      <trkpt lat="45.86616" lon="4.79559">
        <ele>499.77246</ele>
        <time>2023-06-29T15:35:37.000Z</time>
      </trkpt>
      <trkpt lat="45.86615" lon="4.79557">
        <ele>501.72867</ele>
        <time>2023-06-29T15:35:38.000Z</time>
      </trkpt>
      <trkpt lat="45.86614" lon="4.79554">
        <ele>503.59076</ele>
        <time>2023-06-29T15:35:39.000Z</time>
      </trkpt>
      <trkpt lat="45.86612" lon="4.79552">
        <ele>505.45883</ele>
        <time>2023-06-29T15:35:40.000Z</time>
      </trkpt>
      <trkpt lat="45.8661" lon="4.79548">
        <ele>507.37582</ele>
        <time>2023-06-29T15:35:42.000Z</time>
      </trkpt>
      <trkpt lat="45.86609" lon="4.79546">
        <ele>506.80249</ele>
        <time>2023-06-29T15:35:43.000Z</time>
      </trkpt>
      <trkpt lat="45.86608" lon="4.79544">
        <ele>508.58612</ele>
        <time>2023-06-29T15:35:44.000Z</time>
      </trkpt>
      <trkpt lat="45.86607" lon="4.79542">
        <ele>510.34869</ele>
        <time>2023-06-29T15:35:45.000Z</time>
      </trkpt>
      <trkpt lat="45.86604" lon="4.79539">
        <ele>512.0932</ele>
        <time>2023-06-29T15:35:47.000Z</time>
      </trkpt>
      <trkpt lat="45.86601" lon="4.79536">
        <ele>512.31073</ele>
        <time>2023-06-29T15:35:49.000Z</time>
      </trkpt>
      <trkpt lat="45.86599" lon="4.79532">
        <ele>512.52094</ele>
        <time>2023-06-29T15:35:51.000Z</time>
      </trkpt>
      <trkpt lat="45.86597" lon="4.79529">
        <ele>512.75568</ele>
        <time>2023-06-29T15:35:52.000Z</time>
      </trkpt>
      <trkpt lat="45.86596" lon="4.79526">
        <ele>512.92224</ele>
        <time>2023-06-29T15:35:53.000Z</time>
      </trkpt>
      <trkpt lat="45.86594" lon="4.79524">
        <ele>513.05322</ele>
        <time>2023-06-29T15:35:54.000Z</time>
      </trkpt>
      <trkpt lat="45.86591" lon="4.79521">
        <ele>513.30139</ele>
        <time>2023-06-29T15:35:55.000Z</time>
      </trkpt>
      <trkpt lat="45.86589" lon="4.79519">
        <ele>513.68408</ele>
        <time>2023-06-29T15:35:56.000Z</time>
      </trkpt>
      <trkpt lat="45.86588" lon="4.79517">
        <ele>514.17267</ele>
        <time>2023-06-29T15:35:57.000Z</time>
      </trkpt>
      <trkpt lat="45.86586" lon="4.79515">
        <ele>514.63617</ele>
        <time>2023-06-29T15:35:58.000Z</time>
      </trkpt>
      <trkpt lat="45.86584" lon="4.79514">
        <ele>515.00647</ele>
        <time>2023-06-29T15:35:59.000Z</time>
      </trkpt>
      <trkpt lat="45.86583" lon="4.79512">
        <ele>515.42303</ele>
        <time>2023-06-29T15:36:00.000Z</time>
      </trkpt>
      <trkpt lat="45.86581" lon="4.7951">
        <ele>515.82477</ele>
        <time>2023-06-29T15:36:01.000Z</time>
      </trkpt>
      <trkpt lat="45.86579" lon="4.79508">
        <ele>515.90454</ele>
        <time>2023-06-29T15:36:02.000Z</time>
      </trkpt>
      <trkpt lat="45.86578" lon="4.79506">
        <ele>515.99768</ele>
        <time>2023-06-29T15:36:03.000Z</time>
      </trkpt>
      <trkpt lat="45.86576" lon="4.79504">
        <ele>516.10388</ele>
        <time>2023-06-29T15:36:04.000Z</time>
      </trkpt>
      <trkpt lat="45.86574" lon="4.79503">
        <ele>516.15222</ele>
        <time>2023-06-29T15:36:05.000Z</time>
      </trkpt>
      <trkpt lat="45.86571" lon="4.795">
        <ele>516.20038</ele>
        <time>2023-06-29T15:36:07.000Z</time>
      </trkpt>
      <trkpt lat="45.86568" lon="4.79498">
        <ele>516.22284</ele>
        <time>2023-06-29T15:36:08.000Z</time>
      </trkpt>
      <trkpt lat="45.86567" lon="4.79496">
        <ele>516.2287</ele>
        <time>2023-06-29T15:36:09.000Z</time>
      </trkpt>
      <trkpt lat="45.86565" lon="4.79494">
        <ele>516.20764</ele>
        <time>2023-06-29T15:36:10.000Z</time>
      </trkpt>
      <trkpt lat="45.86563" lon="4.79492">
        <ele>516.1488</ele>
        <time>2023-06-29T15:36:11.000Z</time>
      </trkpt>
      <trkpt lat="45.86561" lon="4.7949">
        <ele>516.11401</ele>
        <time>2023-06-29T15:36:12.000Z</time>
      </trkpt>
      <trkpt lat="45.8656" lon="4.79488">
        <ele>516.07385</ele>
        <time>2023-06-29T15:36:13.000Z</time>
      </trkpt>
      <trkpt lat="45.86558" lon="4.79486">
        <ele>515.99225</ele>
        <time>2023-06-29T15:36:14.000Z</time>
      </trkpt>
      <trkpt lat="45.86556" lon="4.79484">
        <ele>515.95789</ele>
        <time>2023-06-29T15:36:15.000Z</time>
      </trkpt>
      <trkpt lat="45.86554" lon="4.79481">
        <ele>515.93066</ele>
        <time>2023-06-29T15:36:16.000Z</time>
      </trkpt>
      <trkpt lat="45.86552" lon="4.79479">
        <ele>515.89825</ele>
        <time>2023-06-29T15:36:17.000Z</time>
      </trkpt>
      <trkpt lat="45.8655" lon="4.79477">
        <ele>515.85852</ele>
        <time>2023-06-29T15:36:18.000Z</time>
      </trkpt>
      <trkpt lat="45.86548" lon="4.79475">
        <ele>515.86084</ele>
        <time>2023-06-29T15:36:19.000Z</time>
      </trkpt>
      <trkpt lat="45.86546" lon="4.79473">
        <ele>515.9325</ele>
        <time>2023-06-29T15:36:20.000Z</time>
      </trkpt>
      <trkpt lat="45.86544" lon="4.79472">
        <ele>515.97766</ele>
        <time>2023-06-29T15:36:21.000Z</time>
      </trkpt>
      <trkpt lat="45.86542" lon="4.7947">
        <ele>516.03503</ele>
        <time>2023-06-29T15:36:22.000Z</time>
      </trkpt>
      <trkpt lat="45.8654" lon="4.79468">
        <ele>516.08252</ele>
        <time>2023-06-29T15:36:23.000Z</time>
      </trkpt>
      <trkpt lat="45.86538" lon="4.79466">
        <ele>516.21051</ele>
        <time>2023-06-29T15:36:24.000Z</time>
      </trkpt>
      <trkpt lat="45.86535" lon="4.79464">
        <ele>516.30627</ele>
        <time>2023-06-29T15:36:25.000Z</time>
      </trkpt>
      <trkpt lat="45.86532" lon="4.79462">
        <ele>516.39966</ele>
        <time>2023-06-29T15:36:26.000Z</time>
      </trkpt>
      <trkpt lat="45.8653" lon="4.79461">
        <ele>516.50208</ele>
        <time>2023-06-29T15:36:27.000Z</time>
      </trkpt>
      <trkpt lat="45.86528" lon="4.7946">
        <ele>516.60632</ele>
        <time>2023-06-29T15:36:28.000Z</time>
      </trkpt>
      <trkpt lat="45.86527" lon="4.79458">
        <ele>516.72388</ele>
        <time>2023-06-29T15:36:29.000Z</time>
      </trkpt>
      <trkpt lat="45.86524" lon="4.79456">
        <ele>516.77905</ele>
        <time>2023-06-29T15:36:30.000Z</time>
      </trkpt>
      <trkpt lat="45.86522" lon="4.79454">
        <ele>516.84143</ele>
        <time>2023-06-29T15:36:31.000Z</time>
      </trkpt>
      <trkpt lat="45.8652" lon="4.79452">
        <ele>516.90173</ele>
        <time>2023-06-29T15:36:32.000Z</time>
      </trkpt>
      <trkpt lat="45.86518" lon="4.7945">
        <ele>516.96997</ele>
        <time>2023-06-29T15:36:33.000Z</time>
      </trkpt>
      <trkpt lat="45.86516" lon="4.79448">
        <ele>517.05048</ele>
        <time>2023-06-29T15:36:34.000Z</time>
      </trkpt>
      <trkpt lat="45.86514" lon="4.79446">
        <ele>514.09082</ele>
        <time>2023-06-29T15:36:35.000Z</time>
      </trkpt>
      <trkpt lat="45.86512" lon="4.79444">
        <ele>513.98511</ele>
        <time>2023-06-29T15:36:36.000Z</time>
      </trkpt>
      <trkpt lat="45.8651" lon="4.79442">
        <ele>513.87091</ele>
        <time>2023-06-29T15:36:37.000Z</time>
      </trkpt>
      <trkpt lat="45.86508" lon="4.79439">
        <ele>513.75317</ele>
        <time>2023-06-29T15:36:38.000Z</time>
      </trkpt>
      <trkpt lat="45.86506" lon="4.79437">
        <ele>513.61584</ele>
        <time>2023-06-29T15:36:39.000Z</time>
      </trkpt>
      <trkpt lat="45.86504" lon="4.79434">
        <ele>513.47327</ele>
        <time>2023-06-29T15:36:40.000Z</time>
      </trkpt>
      <trkpt lat="45.86503" lon="4.79431">
        <ele>510.82022</ele>
        <time>2023-06-29T15:36:41.000Z</time>
      </trkpt>
      <trkpt lat="45.86501" lon="4.79428">
        <ele>510.51685</ele>
        <time>2023-06-29T15:36:42.000Z</time>
      </trkpt>
      <trkpt lat="45.86499" lon="4.79426">
        <ele>510.2084</ele>
        <time>2023-06-29T15:36:43.000Z</time>
      </trkpt>
      <trkpt lat="45.86497" lon="4.79424">
        <ele>509.81488</ele>
        <time>2023-06-29T15:36:44.000Z</time>
      </trkpt>
      <trkpt lat="45.86495" lon="4.79422">
        <ele>509.40704</ele>
        <time>2023-06-29T15:36:45.000Z</time>
      </trkpt>
      <trkpt lat="45.86493" lon="4.7942">
        <ele>508.97754</ele>
        <time>2023-06-29T15:36:46.000Z</time>
      </trkpt>
      <trkpt lat="45.86491" lon="4.79418">
        <ele>506.27841</ele>
        <time>2023-06-29T15:36:47.000Z</time>
      </trkpt>
      <trkpt lat="45.86488" lon="4.79416">
        <ele>505.68506</ele>
        <time>2023-06-29T15:36:48.000Z</time>
      </trkpt>
      <trkpt lat="45.86485" lon="4.79414">
        <ele>505.05136</ele>
        <time>2023-06-29T15:36:49.000Z</time>
      </trkpt>
      <trkpt lat="45.86483" lon="4.79412">
        <ele>504.46777</ele>
        <time>2023-06-29T15:36:50.000Z</time>
      </trkpt>
      <trkpt lat="45.86481" lon="4.79409">
        <ele>503.8522</ele>
        <time>2023-06-29T15:36:51.000Z</time>
      </trkpt>
      <trkpt lat="45.8648" lon="4.79406">
        <ele>503.20273</ele>
        <time>2023-06-29T15:36:52.000Z</time>
      </trkpt>
      <trkpt lat="45.86478" lon="4.79404">
        <ele>500.49194</ele>
        <time>2023-06-29T15:36:53.000Z</time>
      </trkpt>
      <trkpt lat="45.86476" lon="4.79401">
        <ele>499.66806</ele>
        <time>2023-06-29T15:36:54.000Z</time>
      </trkpt>
      <trkpt lat="45.86473" lon="4.79397">
        <ele>501.81015</ele>
        <time>2023-06-29T15:36:55.000Z</time>
      </trkpt>
      <trkpt lat="45.86471" lon="4.79395">
        <ele>501.19614</ele>
        <time>2023-06-29T15:36:56.000Z</time>
      </trkpt>
      <trkpt lat="45.8647" lon="4.79393">
        <ele>500.5567</ele>
        <time>2023-06-29T15:36:57.000Z</time>
      </trkpt>
      <trkpt lat="45.86468" lon="4.7939">
        <ele>499.89096</ele>
        <time>2023-06-29T15:36:58.000Z</time>
      </trkpt>
      <trkpt lat="45.86467" lon="4.79387">
        <ele>503.6297</ele>
        <time>2023-06-29T15:36:59.000Z</time>
      </trkpt>
      <trkpt lat="45.86464" lon="4.79383">
        <ele>503.13037</ele>
        <time>2023-06-29T15:37:01.000Z</time>
      </trkpt>
      <trkpt lat="45.86462" lon="4.7938">
        <ele>505.10165</ele>
        <time>2023-06-29T15:37:02.000Z</time>
      </trkpt>
      <trkpt lat="45.8646" lon="4.79378">
        <ele>504.81573</ele>
        <time>2023-06-29T15:37:03.000Z</time>
      </trkpt>
      <trkpt lat="45.86458" lon="4.79375">
        <ele>504.53067</ele>
        <time>2023-06-29T15:37:04.000Z</time>
      </trkpt>
      <trkpt lat="45.86455" lon="4.79372">
        <ele>508.70233</ele>
        <time>2023-06-29T15:37:05.000Z</time>
      </trkpt>
      <trkpt lat="45.86452" lon="4.7937">
        <ele>508.64673</ele>
        <time>2023-06-29T15:37:06.000Z</time>
      </trkpt>
      <trkpt lat="45.8645" lon="4.79368">
        <ele>508.6087</ele>
        <time>2023-06-29T15:37:07.000Z</time>
      </trkpt>
      <trkpt lat="45.86448" lon="4.79366">
        <ele>510.82782</ele>
        <time>2023-06-29T15:37:08.000Z</time>
      </trkpt>
      <trkpt lat="45.86447" lon="4.79363">
        <ele>511.05533</ele>
        <time>2023-06-29T15:37:09.000Z</time>
      </trkpt>
      <trkpt lat="45.86444" lon="4.79359">
        <ele>511.32388</ele>
        <time>2023-06-29T15:37:10.000Z</time>
      </trkpt>
      <trkpt lat="45.86442" lon="4.79355">
        <ele>516.02002</ele>
        <time>2023-06-29T15:37:11.000Z</time>
      </trkpt>
      <trkpt lat="45.8644" lon="4.79351">
        <ele>516.59766</ele>
        <time>2023-06-29T15:37:12.000Z</time>
      </trkpt>
      <trkpt lat="45.86437" lon="4.79347">
        <ele>517.23492</ele>
        <time>2023-06-29T15:37:13.000Z</time>
      </trkpt>
      <trkpt lat="45.86434" lon="4.79343">
        <ele>519.9624</ele>
        <time>2023-06-29T15:37:14.000Z</time>
      </trkpt>
      <trkpt lat="45.86432" lon="4.7934">
        <ele>520.93591</ele>
        <time>2023-06-29T15:37:15.000Z</time>
      </trkpt>
      <trkpt lat="45.8643" lon="4.79337">
        <ele>521.99933</ele>
        <time>2023-06-29T15:37:16.000Z</time>
      </trkpt>
      <trkpt lat="45.86428" lon="4.79334">
        <ele>526.98212</ele>
        <time>2023-06-29T15:37:17.000Z</time>
      </trkpt>
      <trkpt lat="45.86426" lon="4.7933">
        <ele>528.27142</ele>
        <time>2023-06-29T15:37:18.000Z</time>
      </trkpt>
      <trkpt lat="45.86423" lon="4.79327">
        <ele>529.65717</ele>
        <time>2023-06-29T15:37:19.000Z</time>
      </trkpt>
      <trkpt lat="45.86421" lon="4.79324">
        <ele>526.71368</ele>
        <time>2023-06-29T15:37:20.000Z</time>
      </trkpt>
      <trkpt lat="45.86419" lon="4.79321">
        <ele>527.86786</ele>
        <time>2023-06-29T15:37:21.000Z</time>
      </trkpt>
      <trkpt lat="45.86416" lon="4.79317">
        <ele>529.10474</ele>
        <time>2023-06-29T15:37:22.000Z</time>
      </trkpt>
      <trkpt lat="45.86414" lon="4.79314">
        <ele>533.6496</ele>
        <time>2023-06-29T15:37:23.000Z</time>
      </trkpt>
      <trkpt lat="45.86412" lon="4.79311">
        <ele>535.09131</ele>
        <time>2023-06-29T15:37:24.000Z</time>
      </trkpt>
      <trkpt lat="45.86409" lon="4.79308">
        <ele>532.16376</ele>
        <time>2023-06-29T15:37:25.000Z</time>
      </trkpt>
      <trkpt lat="45.86407" lon="4.79305">
        <ele>533.33685</ele>
        <time>2023-06-29T15:37:26.000Z</time>
      </trkpt>
      <trkpt lat="45.86403" lon="4.79303">
        <ele>534.57141</ele>
        <time>2023-06-29T15:37:27.000Z</time>
      </trkpt>
      <trkpt lat="45.864" lon="4.79301">
        <ele>535.86951</ele>
        <time>2023-06-29T15:37:28.000Z</time>
      </trkpt>
      <trkpt lat="45.86397" lon="4.79299">
        <ele>539.92834</ele>
        <time>2023-06-29T15:37:29.000Z</time>
      </trkpt>
      <trkpt lat="45.86394" lon="4.79298">
        <ele>541.37195</ele>
        <time>2023-06-29T15:37:30.000Z</time>
      </trkpt>
      <trkpt lat="45.86391" lon="4.79296">
        <ele>538.49182</ele>
        <time>2023-06-29T15:37:31.000Z</time>
      </trkpt>
      <trkpt lat="45.86388" lon="4.79294">
        <ele>539.61542</ele>
        <time>2023-06-29T15:37:32.000Z</time>
      </trkpt>
      <trkpt lat="45.86386" lon="4.79292">
        <ele>540.7663</ele>
        <time>2023-06-29T15:37:33.000Z</time>
      </trkpt>
      <trkpt lat="45.86383" lon="4.7929">
        <ele>541.94287</ele>
        <time>2023-06-29T15:37:34.000Z</time>
      </trkpt>
      <trkpt lat="45.86381" lon="4.79289">
        <ele>545.32257</ele>
        <time>2023-06-29T15:37:35.000Z</time>
      </trkpt>
      <trkpt lat="45.86379" lon="4.79288">
        <ele>546.54187</ele>
        <time>2023-06-29T15:37:36.000Z</time>
      </trkpt>
      <trkpt lat="45.86376" lon="4.79286">
        <ele>543.79565</ele>
        <time>2023-06-29T15:37:37.000Z</time>
      </trkpt>
      <trkpt lat="45.86374" lon="4.79284">
        <ele>544.63635</ele>
        <time>2023-06-29T15:37:38.000Z</time>
      </trkpt>
      <trkpt lat="45.86371" lon="4.79281">
        <ele>545.45459</ele>
        <time>2023-06-29T15:37:39.000Z</time>
      </trkpt>
      <trkpt lat="45.86369" lon="4.79279">
        <ele>546.24445</ele>
        <time>2023-06-29T15:37:40.000Z</time>
      </trkpt>
      <trkpt lat="45.86366" lon="4.79276">
        <ele>549.34363</ele>
        <time>2023-06-29T15:37:41.000Z</time>
      </trkpt>
      <trkpt lat="45.86364" lon="4.79273">
        <ele>550.41742</ele>
        <time>2023-06-29T15:37:42.000Z</time>
      </trkpt>
      <trkpt lat="45.86362" lon="4.7927">
        <ele>548.13831</ele>
        <time>2023-06-29T15:37:43.000Z</time>
      </trkpt>
      <trkpt lat="45.86359" lon="4.79267">
        <ele>548.86279</ele>
        <time>2023-06-29T15:37:44.000Z</time>
      </trkpt>
      <trkpt lat="45.86356" lon="4.79263">
        <ele>549.55139</ele>
        <time>2023-06-29T15:37:45.000Z</time>
      </trkpt>
      <trkpt lat="45.86353" lon="4.7926">
        <ele>550.42078</ele>
        <time>2023-06-29T15:37:46.000Z</time>
      </trkpt>
      <trkpt lat="45.8635" lon="4.79257">
        <ele>553.54779</ele>
        <time>2023-06-29T15:37:47.000Z</time>
      </trkpt>
      <trkpt lat="45.86347" lon="4.79254">
        <ele>554.49664</ele>
        <time>2023-06-29T15:37:48.000Z</time>
      </trkpt>
      <trkpt lat="45.86345" lon="4.79252">
        <ele>552.62128</ele>
        <time>2023-06-29T15:37:49.000Z</time>
      </trkpt>
      <trkpt lat="45.86343" lon="4.7925">
        <ele>553.25592</ele>
        <time>2023-06-29T15:37:50.000Z</time>
      </trkpt>
      <trkpt lat="45.86341" lon="4.79248">
        <ele>553.8501</ele>
        <time>2023-06-29T15:37:51.000Z</time>
      </trkpt>
      <trkpt lat="45.86338" lon="4.79245">
        <ele>554.61798</ele>
        <time>2023-06-29T15:37:52.000Z</time>
      </trkpt>
      <trkpt lat="45.86335" lon="4.79242">
        <ele>557.30359</ele>
        <time>2023-06-29T15:37:53.000Z</time>
      </trkpt>
      <trkpt lat="45.86333" lon="4.79238">
        <ele>558.13049</ele>
        <time>2023-06-29T15:37:54.000Z</time>
      </trkpt>
      <trkpt lat="45.86331" lon="4.79234">
        <ele>556.65918</ele>
        <time>2023-06-29T15:37:55.000Z</time>
      </trkpt>
      <trkpt lat="45.86329" lon="4.79232">
        <ele>557.22601</ele>
        <time>2023-06-29T15:37:56.000Z</time>
      </trkpt>
      <trkpt lat="45.86326" lon="4.79229">
        <ele>559.25226</ele>
        <time>2023-06-29T15:37:57.000Z</time>
      </trkpt>
      <trkpt lat="45.86324" lon="4.79226">
        <ele>561.27576</ele>
        <time>2023-06-29T15:37:58.000Z</time>
      </trkpt>
      <trkpt lat="45.86322" lon="4.79223">
        <ele>563.33533</ele>
        <time>2023-06-29T15:37:59.000Z</time>
      </trkpt>
      <trkpt lat="45.86321" lon="4.7922">
        <ele>565.55713</ele>
        <time>2023-06-29T15:38:00.000Z</time>
      </trkpt>
      <trkpt lat="45.86319" lon="4.79216">
        <ele>565.50793</ele>
        <time>2023-06-29T15:38:01.000Z</time>
      </trkpt>
      <trkpt lat="45.86317" lon="4.79213">
        <ele>567.53821</ele>
        <time>2023-06-29T15:38:02.000Z</time>
      </trkpt>
      <trkpt lat="45.86314" lon="4.79209">
        <ele>569.65228</ele>
        <time>2023-06-29T15:38:03.000Z</time>
      </trkpt>
      <trkpt lat="45.86312" lon="4.79206">
        <ele>571.98602</ele>
        <time>2023-06-29T15:38:04.000Z</time>
      </trkpt>
      <trkpt lat="45.86309" lon="4.79203">
        <ele>574.30408</ele>
        <time>2023-06-29T15:38:05.000Z</time>
      </trkpt>
      <trkpt lat="45.86307" lon="4.79201">
        <ele>576.72424</ele>
        <time>2023-06-29T15:38:06.000Z</time>
      </trkpt>
      <trkpt lat="45.86305" lon="4.79198">
        <ele>576.87982</ele>
        <time>2023-06-29T15:38:07.000Z</time>
      </trkpt>
      <trkpt lat="45.86302" lon="4.79195">
        <ele>579.04553</ele>
        <time>2023-06-29T15:38:08.000Z</time>
      </trkpt>
      <trkpt lat="45.863" lon="4.79192">
        <ele>581.26855</ele>
        <time>2023-06-29T15:38:09.000Z</time>
      </trkpt>
      <trkpt lat="45.86297" lon="4.79189">
        <ele>583.64856</ele>
        <time>2023-06-29T15:38:10.000Z</time>
      </trkpt>
      <trkpt lat="45.86295" lon="4.79186">
        <ele>585.93848</ele>
        <time>2023-06-29T15:38:11.000Z</time>
      </trkpt>
      <trkpt lat="45.86293" lon="4.79183">
        <ele>588.14594</ele>
        <time>2023-06-29T15:38:12.000Z</time>
      </trkpt>
      <trkpt lat="45.8629" lon="4.79181">
        <ele>588.46191</ele>
        <time>2023-06-29T15:38:13.000Z</time>
      </trkpt>
      <trkpt lat="45.86288" lon="4.79179">
        <ele>590.57776</ele>
        <time>2023-06-29T15:38:14.000Z</time>
      </trkpt>
      <trkpt lat="45.86286" lon="4.79177">
        <ele>592.53754</ele>
        <time>2023-06-29T15:38:15.000Z</time>
      </trkpt>
      <trkpt lat="45.86283" lon="4.79174">
        <ele>594.52728</ele>
        <time>2023-06-29T15:38:16.000Z</time>
      </trkpt>
      <trkpt lat="45.86281" lon="4.79172">
        <ele>594.90906</ele>
        <time>2023-06-29T15:38:17.000Z</time>
      </trkpt>
      <trkpt lat="45.86279" lon="4.79169">
        <ele>595.58905</ele>
        <time>2023-06-29T15:38:18.000Z</time>
      </trkpt>
      <trkpt lat="45.86275" lon="4.79166">
        <ele>596.13464</ele>
        <time>2023-06-29T15:38:19.000Z</time>
      </trkpt>
      <trkpt lat="45.86272" lon="4.79162">
        <ele>596.43445</ele>
        <time>2023-06-29T15:38:20.000Z</time>
      </trkpt>
      <trkpt lat="45.8627" lon="4.79158">
        <ele>597.21991</ele>
        <time>2023-06-29T15:38:21.000Z</time>
      </trkpt>
      <trkpt lat="45.86267" lon="4.79155">
        <ele>597.80042</ele>
        <time>2023-06-29T15:38:22.000Z</time>
      </trkpt>
      <trkpt lat="45.86266" lon="4.79151">
        <ele>598.3241</ele>
        <time>2023-06-29T15:38:23.000Z</time>
      </trkpt>
      <trkpt lat="45.86264" lon="4.79147">
        <ele>598.75543</ele>
        <time>2023-06-29T15:38:24.000Z</time>
      </trkpt>
      <trkpt lat="45.86263" lon="4.79143">
        <ele>598.60706</ele>
        <time>2023-06-29T15:38:25.000Z</time>
      </trkpt>
      <trkpt lat="45.86261" lon="4.79139">
        <ele>598.56335</ele>
        <time>2023-06-29T15:38:26.000Z</time>
      </trkpt>
      <trkpt lat="45.86259" lon="4.79134">
        <ele>598.52087</ele>
        <time>2023-06-29T15:38:27.000Z</time>
      </trkpt>
      <trkpt lat="45.86257" lon="4.79131">
        <ele>598.57373</ele>
        <time>2023-06-29T15:38:28.000Z</time>
      </trkpt>
      <trkpt lat="45.86256" lon="4.79128">
        <ele>598.47528</ele>
        <time>2023-06-29T15:38:29.000Z</time>
      </trkpt>
      <trkpt lat="45.86255" lon="4.79126">
        <ele>598.41461</ele>
        <time>2023-06-29T15:38:30.000Z</time>
      </trkpt>
      <trkpt lat="45.86253" lon="4.79121">
        <ele>598.42725</ele>
        <time>2023-06-29T15:38:31.000Z</time>
      </trkpt>
      <trkpt lat="45.8625" lon="4.79116">
        <ele>598.41516</ele>
        <time>2023-06-29T15:38:32.000Z</time>
      </trkpt>
      <trkpt lat="45.86248" lon="4.79112">
        <ele>598.30505</ele>
        <time>2023-06-29T15:38:33.000Z</time>
      </trkpt>
      <trkpt lat="45.86245" lon="4.79109">
        <ele>598.14844</ele>
        <time>2023-06-29T15:38:34.000Z</time>
      </trkpt>
      <trkpt lat="45.86243" lon="4.79106">
        <ele>598.1347</ele>
        <time>2023-06-29T15:38:35.000Z</time>
      </trkpt>
      <trkpt lat="45.86241" lon="4.79104">
        <ele>598.22784</ele>
        <time>2023-06-29T15:38:36.000Z</time>
      </trkpt>
      <trkpt lat="45.86238" lon="4.79102">
        <ele>598.31451</ele>
        <time>2023-06-29T15:38:37.000Z</time>
      </trkpt>
      <trkpt lat="45.86236" lon="4.791">
        <ele>598.55975</ele>
        <time>2023-06-29T15:38:38.000Z</time>
      </trkpt>
      <trkpt lat="45.86233" lon="4.79097">
        <ele>598.9621</ele>
        <time>2023-06-29T15:38:39.000Z</time>
      </trkpt>
      <trkpt lat="45.8623" lon="4.79094">
        <ele>599.37854</ele>
        <time>2023-06-29T15:38:40.000Z</time>
      </trkpt>
      <trkpt lat="45.86228" lon="4.79092">
        <ele>599.3468</ele>
        <time>2023-06-29T15:38:41.000Z</time>
      </trkpt>
      <trkpt lat="45.86226" lon="4.79091">
        <ele>599.46838</ele>
        <time>2023-06-29T15:38:42.000Z</time>
      </trkpt>
      <trkpt lat="45.86224" lon="4.7909">
        <ele>599.53223</ele>
        <time>2023-06-29T15:38:43.000Z</time>
      </trkpt>
      <trkpt lat="45.86222" lon="4.79089">
        <ele>599.66785</ele>
        <time>2023-06-29T15:38:44.000Z</time>
      </trkpt>
      <trkpt lat="45.86219" lon="4.79086">
        <ele>600.41632</ele>
        <time>2023-06-29T15:38:46.000Z</time>
      </trkpt>
      <trkpt lat="45.86216" lon="4.79083">
        <ele>600.90082</ele>
        <time>2023-06-29T15:38:47.000Z</time>
      </trkpt>
      <trkpt lat="45.86213" lon="4.7908">
        <ele>601.35876</ele>
        <time>2023-06-29T15:38:48.000Z</time>
      </trkpt>
      <trkpt lat="45.8621" lon="4.79077">
        <ele>601.79919</ele>
        <time>2023-06-29T15:38:49.000Z</time>
      </trkpt>
      <trkpt lat="45.86208" lon="4.79074">
        <ele>602.41248</ele>
        <time>2023-06-29T15:38:50.000Z</time>
      </trkpt>
      <trkpt lat="45.86205" lon="4.79072">
        <ele>602.49915</ele>
        <time>2023-06-29T15:38:51.000Z</time>
      </trkpt>
      <trkpt lat="45.86203" lon="4.79069">
        <ele>602.77283</ele>
        <time>2023-06-29T15:38:52.000Z</time>
      </trkpt>
      <trkpt lat="45.86201" lon="4.79067">
        <ele>603.10028</ele>
        <time>2023-06-29T15:38:53.000Z</time>
      </trkpt>
      <trkpt lat="45.86199" lon="4.79065">
        <ele>603.4303</ele>
        <time>2023-06-29T15:38:54.000Z</time>
      </trkpt>
      <trkpt lat="45.86197" lon="4.79062">
        <ele>603.81677</ele>
        <time>2023-06-29T15:38:55.000Z</time>
      </trkpt>
      <trkpt lat="45.86194" lon="4.79059">
        <ele>604.16779</ele>
        <time>2023-06-29T15:38:56.000Z</time>
      </trkpt>
      <trkpt lat="45.86192" lon="4.79056">
        <ele>604.34241</ele>
        <time>2023-06-29T15:38:57.000Z</time>
      </trkpt>
      <trkpt lat="45.8619" lon="4.79053">
        <ele>604.47351</ele>
        <time>2023-06-29T15:38:58.000Z</time>
      </trkpt>
      <trkpt lat="45.86188" lon="4.7905">
        <ele>604.29785</ele>
        <time>2023-06-29T15:38:59.000Z</time>
      </trkpt>
      <trkpt lat="45.86185" lon="4.79047">
        <ele>604.05066</ele>
        <time>2023-06-29T15:39:00.000Z</time>
      </trkpt>
      <trkpt lat="45.86183" lon="4.79043">
        <ele>603.75098</ele>
        <time>2023-06-29T15:39:01.000Z</time>
      </trkpt>
      <trkpt lat="45.8618" lon="4.79039">
        <ele>603.46075</ele>
        <time>2023-06-29T15:39:02.000Z</time>
      </trkpt>
      <trkpt lat="45.86178" lon="4.79036">
        <ele>603.09698</ele>
        <time>2023-06-29T15:39:03.000Z</time>
      </trkpt>
      <trkpt lat="45.86176" lon="4.79032">
        <ele>602.76233</ele>
        <time>2023-06-29T15:39:04.000Z</time>
      </trkpt>
      <trkpt lat="45.86174" lon="4.79028">
        <ele>602.33606</ele>
        <time>2023-06-29T15:39:05.000Z</time>
      </trkpt>
      <trkpt lat="45.8617" lon="4.79019">
        <ele>601.8269</ele>
        <time>2023-06-29T15:39:06.000Z</time>
      </trkpt>
      <trkpt lat="45.86168" lon="4.79015">
        <ele>601.37921</ele>
        <time>2023-06-29T15:39:07.000Z</time>
      </trkpt>
      <trkpt lat="45.86164" lon="4.79011">
        <ele>601.00177</ele>
        <time>2023-06-29T15:39:08.000Z</time>
      </trkpt>
      <trkpt lat="45.86161" lon="4.79005">
        <ele>600.81287</ele>
        <time>2023-06-29T15:39:09.000Z</time>
      </trkpt>
      <trkpt lat="45.86158" lon="4.79002">
        <ele>600.7821</ele>
        <time>2023-06-29T15:39:10.000Z</time>
      </trkpt>
      <trkpt lat="45.86153" lon="4.78998">
        <ele>600.7619</ele>
        <time>2023-06-29T15:39:11.000Z</time>
      </trkpt>
      <trkpt lat="45.86149" lon="4.78995">
        <ele>600.58069</ele>
        <time>2023-06-29T15:39:12.000Z</time>
      </trkpt>
      <trkpt lat="45.86146" lon="4.7899">
        <ele>600.41028</ele>
        <time>2023-06-29T15:39:13.000Z</time>
      </trkpt>
      <trkpt lat="45.86143" lon="4.78983">
        <ele>600.22852</ele>
        <time>2023-06-29T15:39:14.000Z</time>
      </trkpt>
      <trkpt lat="45.8614" lon="4.78976">
        <ele>600.02905</ele>
        <time>2023-06-29T15:39:15.000Z</time>
      </trkpt>
      <trkpt lat="45.86138" lon="4.78971">
        <ele>599.82697</ele>
        <time>2023-06-29T15:39:16.000Z</time>
      </trkpt>
      <trkpt lat="45.86136" lon="4.78966">
        <ele>599.72791</ele>
        <time>2023-06-29T15:39:17.000Z</time>
      </trkpt>
      <trkpt lat="45.86133" lon="4.7896">
        <ele>599.76141</ele>
        <time>2023-06-29T15:39:18.000Z</time>
      </trkpt>
      <trkpt lat="45.8613" lon="4.78956">
        <ele>595.64636</ele>
        <time>2023-06-29T15:39:19.000Z</time>
      </trkpt>
      <trkpt lat="45.86124" lon="4.78948">
        <ele>595.43652</ele>
        <time>2023-06-29T15:39:20.000Z</time>
      </trkpt>
      <trkpt lat="45.8612" lon="4.78942">
        <ele>595.59015</ele>
        <time>2023-06-29T15:39:21.000Z</time>
      </trkpt>
      <trkpt lat="45.86115" lon="4.78937">
        <ele>595.6535</ele>
        <time>2023-06-29T15:39:22.000Z</time>
      </trkpt>
      <trkpt lat="45.8611" lon="4.78932">
        <ele>595.7804</ele>
        <time>2023-06-29T15:39:23.000Z</time>
      </trkpt>
      <trkpt lat="45.86105" lon="4.78926">
        <ele>595.82068</ele>
        <time>2023-06-29T15:39:24.000Z</time>
      </trkpt>
      <trkpt lat="45.86102" lon="4.78922">
        <ele>595.82574</ele>
        <time>2023-06-29T15:39:25.000Z</time>
      </trkpt>
      <trkpt lat="45.86098" lon="4.78919">
        <ele>595.82904</ele>
        <time>2023-06-29T15:39:26.000Z</time>
      </trkpt>
      <trkpt lat="45.86094" lon="4.78917">
        <ele>595.78503</ele>
        <time>2023-06-29T15:39:27.000Z</time>
      </trkpt>
      <trkpt lat="45.86089" lon="4.78912">
        <ele>595.57977</ele>
        <time>2023-06-29T15:39:28.000Z</time>
      </trkpt>
      <trkpt lat="45.86085" lon="4.78908">
        <ele>595.44452</ele>
        <time>2023-06-29T15:39:29.000Z</time>
      </trkpt>
      <trkpt lat="45.86081" lon="4.78905">
        <ele>595.08142</ele>
        <time>2023-06-29T15:39:30.000Z</time>
      </trkpt>
      <trkpt lat="45.86076" lon="4.78902">
        <ele>595.15704</ele>
        <time>2023-06-29T15:39:31.000Z</time>
      </trkpt>
      <trkpt lat="45.86073" lon="4.789">
        <ele>595.16095</ele>
        <time>2023-06-29T15:39:32.000Z</time>
      </trkpt>
      <trkpt lat="45.86069" lon="4.78897">
        <ele>595.29114</ele>
        <time>2023-06-29T15:39:33.000Z</time>
      </trkpt>
      <trkpt lat="45.86065" lon="4.78894">
        <ele>595.43091</ele>
        <time>2023-06-29T15:39:34.000Z</time>
      </trkpt>
      <trkpt lat="45.86062" lon="4.78893">
        <ele>595.56226</ele>
        <time>2023-06-29T15:39:35.000Z</time>
      </trkpt>
      <trkpt lat="45.86059" lon="4.78891">
        <ele>595.76581</ele>
        <time>2023-06-29T15:39:36.000Z</time>
      </trkpt>
      <trkpt lat="45.86056" lon="4.78887">
        <ele>596.0296</ele>
        <time>2023-06-29T15:39:37.000Z</time>
      </trkpt>
      <trkpt lat="45.86053" lon="4.78887">
        <ele>596.3139</ele>
        <time>2023-06-29T15:39:38.000Z</time>
      </trkpt>
      <trkpt lat="45.86049" lon="4.78885">
        <ele>600.7865</ele>
        <time>2023-06-29T15:39:39.000Z</time>
      </trkpt>
      <trkpt lat="45.86046" lon="4.78882">
        <ele>600.92603</ele>
        <time>2023-06-29T15:39:40.000Z</time>
      </trkpt>
      <trkpt lat="45.86042" lon="4.7888">
        <ele>600.95154</ele>
        <time>2023-06-29T15:39:41.000Z</time>
      </trkpt>
      <trkpt lat="45.86038" lon="4.78878">
        <ele>601.16718</ele>
        <time>2023-06-29T15:39:42.000Z</time>
      </trkpt>
      <trkpt lat="45.86033" lon="4.78876">
        <ele>601.37103</ele>
        <time>2023-06-29T15:39:43.000Z</time>
      </trkpt>
      <trkpt lat="45.86029" lon="4.78873">
        <ele>601.47864</ele>
        <time>2023-06-29T15:39:44.000Z</time>
      </trkpt>
      <trkpt lat="45.86024" lon="4.78871">
        <ele>601.66266</ele>
        <time>2023-06-29T15:39:45.000Z</time>
      </trkpt>
      <trkpt lat="45.86021" lon="4.78868">
        <ele>601.67004</ele>
        <time>2023-06-29T15:39:46.000Z</time>
      </trkpt>
      <trkpt lat="45.86016" lon="4.78865">
        <ele>601.60681</ele>
        <time>2023-06-29T15:39:47.000Z</time>
      </trkpt>
      <trkpt lat="45.86012" lon="4.78863">
        <ele>601.59991</ele>
        <time>2023-06-29T15:39:48.000Z</time>
      </trkpt>
      <trkpt lat="45.86004" lon="4.78862">
        <ele>601.38654</ele>
        <time>2023-06-29T15:39:49.000Z</time>
      </trkpt>
      <trkpt lat="45.85998" lon="4.78861">
        <ele>601.04669</ele>
        <time>2023-06-29T15:39:50.000Z</time>
      </trkpt>
      <trkpt lat="45.85994" lon="4.7886">
        <ele>600.96375</ele>
        <time>2023-06-29T15:39:51.000Z</time>
      </trkpt>
      <trkpt lat="45.85989" lon="4.78857">
        <ele>600.83075</ele>
        <time>2023-06-29T15:39:52.000Z</time>
      </trkpt>
      <trkpt lat="45.85986" lon="4.78855">
        <ele>600.60876</ele>
        <time>2023-06-29T15:39:53.000Z</time>
      </trkpt>
      <trkpt lat="45.85983" lon="4.78852">
        <ele>600.32996</ele>
        <time>2023-06-29T15:39:54.000Z</time>
      </trkpt>
      <trkpt lat="45.85979" lon="4.7885">
        <ele>600.06189</ele>
        <time>2023-06-29T15:39:55.000Z</time>
      </trkpt>
      <trkpt lat="45.85976" lon="4.78848">
        <ele>599.75897</ele>
        <time>2023-06-29T15:39:56.000Z</time>
      </trkpt>
      <trkpt lat="45.85973" lon="4.78843">
        <ele>599.37366</ele>
        <time>2023-06-29T15:39:57.000Z</time>
      </trkpt>
      <trkpt lat="45.8597" lon="4.78841">
        <ele>599.02869</ele>
        <time>2023-06-29T15:39:58.000Z</time>
      </trkpt>
      <trkpt lat="45.85966" lon="4.78838">
        <ele>598.6579</ele>
        <time>2023-06-29T15:39:59.000Z</time>
      </trkpt>
      <trkpt lat="45.85963" lon="4.78837">
        <ele>598.70081</ele>
        <time>2023-06-29T15:40:00.000Z</time>
      </trkpt>
      <trkpt lat="45.85959" lon="4.78836">
        <ele>598.47595</ele>
        <time>2023-06-29T15:40:01.000Z</time>
      </trkpt>
      <trkpt lat="45.85956" lon="4.78835">
        <ele>598.2113</ele>
        <time>2023-06-29T15:40:02.000Z</time>
      </trkpt>
      <trkpt lat="45.85953" lon="4.78835">
        <ele>597.9079</ele>
        <time>2023-06-29T15:40:03.000Z</time>
      </trkpt>
      <trkpt lat="45.8595" lon="4.78834">
        <ele>597.86017</ele>
        <time>2023-06-29T15:40:04.000Z</time>
      </trkpt>
      <trkpt lat="45.85948" lon="4.78834">
        <ele>597.73694</ele>
        <time>2023-06-29T15:40:05.000Z</time>
      </trkpt>
      <trkpt lat="45.85945" lon="4.78834">
        <ele>597.7854</ele>
        <time>2023-06-29T15:40:06.000Z</time>
      </trkpt>
      <trkpt lat="45.85942" lon="4.78833">
        <ele>597.31921</ele>
        <time>2023-06-29T15:40:07.000Z</time>
      </trkpt>
      <trkpt lat="45.85939" lon="4.78833">
        <ele>596.56958</ele>
        <time>2023-06-29T15:40:08.000Z</time>
      </trkpt>
      <trkpt lat="45.85936" lon="4.78832">
        <ele>595.79816</ele>
        <time>2023-06-29T15:40:09.000Z</time>
      </trkpt>
      <trkpt lat="45.85933" lon="4.78831">
        <ele>594.98364</ele>
        <time>2023-06-29T15:40:10.000Z</time>
      </trkpt>
      <trkpt lat="45.8593" lon="4.78831">
        <ele>593.93121</ele>
        <time>2023-06-29T15:40:11.000Z</time>
      </trkpt>
      <trkpt lat="45.85928" lon="4.78831">
        <ele>592.95709</ele>
        <time>2023-06-29T15:40:12.000Z</time>
      </trkpt>
      <trkpt lat="45.85925" lon="4.78831">
        <ele>591.99023</ele>
        <time>2023-06-29T15:40:13.000Z</time>
      </trkpt>
      <trkpt lat="45.85923" lon="4.78831">
        <ele>591.09753</ele>
        <time>2023-06-29T15:40:15.000Z</time>
      </trkpt>
      <trkpt lat="45.8592" lon="4.78831">
        <ele>590.8822</ele>
        <time>2023-06-29T15:40:28.000Z</time>
      </trkpt>
      <trkpt lat="45.85919" lon="4.78829">
        <ele>590.10181</ele>
        <time>2023-06-29T15:40:39.000Z</time>
      </trkpt>
      <trkpt lat="45.85916" lon="4.78826">
        <ele>590.00653</ele>
        <time>2023-06-29T15:40:41.000Z</time>
      </trkpt>
      <trkpt lat="45.85914" lon="4.78825">
        <ele>589.82141</ele>
        <time>2023-06-29T15:40:43.000Z</time>
      </trkpt>
      <trkpt lat="45.85912" lon="4.78824">
        <ele>589.69958</ele>
        <time>2023-06-29T15:40:44.000Z</time>
      </trkpt>
      <trkpt lat="45.8591" lon="4.78823">
        <ele>589.85236</ele>
        <time>2023-06-29T15:40:45.000Z</time>
      </trkpt>
      <trkpt lat="45.85907" lon="4.78823">
        <ele>590.15137</ele>
        <time>2023-06-29T15:40:47.000Z</time>
      </trkpt>
      <trkpt lat="45.85905" lon="4.78823">
        <ele>590.50848</ele>
        <time>2023-06-29T15:40:48.000Z</time>
      </trkpt>
      <trkpt lat="45.85903" lon="4.78823">
        <ele>590.90906</ele>
        <time>2023-06-29T15:40:49.000Z</time>
      </trkpt>
      <trkpt lat="45.859" lon="4.78821">
        <ele>591.18542</ele>
        <time>2023-06-29T15:40:50.000Z</time>
      </trkpt>
      <trkpt lat="45.85898" lon="4.7882">
        <ele>591.49628</ele>
        <time>2023-06-29T15:40:51.000Z</time>
      </trkpt>
      <trkpt lat="45.85896" lon="4.78819">
        <ele>591.80835</ele>
        <time>2023-06-29T15:40:52.000Z</time>
      </trkpt>
      <trkpt lat="45.85893" lon="4.78819">
        <ele>592.68628</ele>
        <time>2023-06-29T15:40:53.000Z</time>
      </trkpt>
      <trkpt lat="45.8589" lon="4.78819">
        <ele>593.88782</ele>
        <time>2023-06-29T15:40:54.000Z</time>
      </trkpt>
      <trkpt lat="45.85887" lon="4.78819">
        <ele>595.09863</ele>
        <time>2023-06-29T15:40:55.000Z</time>
      </trkpt>
      <trkpt lat="45.85885" lon="4.78818">
        <ele>596.43713</ele>
        <time>2023-06-29T15:40:56.000Z</time>
      </trkpt>
      <trkpt lat="45.85881" lon="4.78818">
        <ele>597.94751</ele>
        <time>2023-06-29T15:40:57.000Z</time>
      </trkpt>
      <trkpt lat="45.85878" lon="4.78818">
        <ele>599.40332</ele>
        <time>2023-06-29T15:40:58.000Z</time>
      </trkpt>
      <trkpt lat="45.85875" lon="4.78819">
        <ele>600.87823</ele>
        <time>2023-06-29T15:40:59.000Z</time>
      </trkpt>
      <trkpt lat="45.85872" lon="4.78819">
        <ele>601.99341</ele>
        <time>2023-06-29T15:41:00.000Z</time>
      </trkpt>
      <trkpt lat="45.85869" lon="4.7882">
        <ele>602.5191</ele>
        <time>2023-06-29T15:41:01.000Z</time>
      </trkpt>
      <trkpt lat="45.85865" lon="4.78821">
        <ele>603.59979</ele>
        <time>2023-06-29T15:41:02.000Z</time>
      </trkpt>
      <trkpt lat="45.85862" lon="4.78822">
        <ele>603.92969</ele>
        <time>2023-06-29T15:41:03.000Z</time>
      </trkpt>
      <trkpt lat="45.8586" lon="4.78823">
        <ele>604.32245</ele>
        <time>2023-06-29T15:41:04.000Z</time>
      </trkpt>
      <trkpt lat="45.85857" lon="4.78824">
        <ele>604.44073</ele>
        <time>2023-06-29T15:41:05.000Z</time>
      </trkpt>
      <trkpt lat="45.85855" lon="4.78825">
        <ele>604.19958</ele>
        <time>2023-06-29T15:41:06.000Z</time>
      </trkpt>
      <trkpt lat="45.85853" lon="4.78825">
        <ele>603.9574</ele>
        <time>2023-06-29T15:41:07.000Z</time>
      </trkpt>
      <trkpt lat="45.85851" lon="4.78825">
        <ele>603.68872</ele>
        <time>2023-06-29T15:41:08.000Z</time>
      </trkpt>
      <trkpt lat="45.85849" lon="4.78826">
        <ele>603.29974</ele>
        <time>2023-06-29T15:41:09.000Z</time>
      </trkpt>
      <trkpt lat="45.85847" lon="4.78826">
        <ele>602.96777</ele>
        <time>2023-06-29T15:41:10.000Z</time>
      </trkpt>
      <trkpt lat="45.85844" lon="4.78825">
        <ele>602.65381</ele>
        <time>2023-06-29T15:41:11.000Z</time>
      </trkpt>
      <trkpt lat="45.85841" lon="4.78823">
        <ele>602.05194</ele>
        <time>2023-06-29T15:41:12.000Z</time>
      </trkpt>
      <trkpt lat="45.85839" lon="4.78819">
        <ele>601.33722</ele>
        <time>2023-06-29T15:41:13.000Z</time>
      </trkpt>
      <trkpt lat="45.85837" lon="4.78816">
        <ele>600.53333</ele>
        <time>2023-06-29T15:41:14.000Z</time>
      </trkpt>
      <trkpt lat="45.85835" lon="4.78812">
        <ele>599.72058</ele>
        <time>2023-06-29T15:41:15.000Z</time>
      </trkpt>
      <trkpt lat="45.85832" lon="4.78809">
        <ele>599.45374</ele>
        <time>2023-06-29T15:41:16.000Z</time>
      </trkpt>
      <trkpt lat="45.8583" lon="4.78806">
        <ele>598.95892</ele>
        <time>2023-06-29T15:41:17.000Z</time>
      </trkpt>
      <trkpt lat="45.85827" lon="4.78804">
        <ele>598.49634</ele>
        <time>2023-06-29T15:41:18.000Z</time>
      </trkpt>
      <trkpt lat="45.85825" lon="4.78802">
        <ele>597.96014</ele>
        <time>2023-06-29T15:41:19.000Z</time>
      </trkpt>
      <trkpt lat="45.85824" lon="4.788">
        <ele>597.75421</ele>
        <time>2023-06-29T15:41:20.000Z</time>
      </trkpt>
      <trkpt lat="45.85822" lon="4.78797">
        <ele>596.87775</ele>
        <time>2023-06-29T15:41:22.000Z</time>
      </trkpt>
      <trkpt lat="45.8582" lon="4.78798">
        <ele>591.48328</ele>
        <time>2023-06-29T15:41:34.000Z</time>
      </trkpt>
      <trkpt lat="45.85819" lon="4.788">
        <ele>590.96936</ele>
        <time>2023-06-29T15:41:37.000Z</time>
      </trkpt>
      <trkpt lat="45.85817" lon="4.78804">
        <ele>590.40039</ele>
        <time>2023-06-29T15:41:39.000Z</time>
      </trkpt>
      <trkpt lat="45.85815" lon="4.78806">
        <ele>589.86877</ele>
        <time>2023-06-29T15:41:40.000Z</time>
      </trkpt>
      <trkpt lat="45.85813" lon="4.78806">
        <ele>589.40533</ele>
        <time>2023-06-29T15:41:41.000Z</time>
      </trkpt>
      <trkpt lat="45.85811" lon="4.78805">
        <ele>588.88342</ele>
        <time>2023-06-29T15:41:42.000Z</time>
      </trkpt>
      <trkpt lat="45.85809" lon="4.78803">
        <ele>588.32269</ele>
        <time>2023-06-29T15:41:43.000Z</time>
      </trkpt>
      <trkpt lat="45.85807" lon="4.788">
        <ele>587.86414</ele>
        <time>2023-06-29T15:41:44.000Z</time>
      </trkpt>
      <trkpt lat="45.85806" lon="4.78798">
        <ele>587.32501</ele>
        <time>2023-06-29T15:41:45.000Z</time>
      </trkpt>
      <trkpt lat="45.85804" lon="4.78796">
        <ele>586.74719</ele>
        <time>2023-06-29T15:41:46.000Z</time>
      </trkpt>
      <trkpt lat="45.85801" lon="4.78795">
        <ele>586.46301</ele>
        <time>2023-06-29T15:41:47.000Z</time>
      </trkpt>
      <trkpt lat="45.85799" lon="4.78794">
        <ele>586.30566</ele>
        <time>2023-06-29T15:41:48.000Z</time>
      </trkpt>
      <trkpt lat="45.85797" lon="4.78793">
        <ele>585.01379</ele>
        <time>2023-06-29T15:41:49.000Z</time>
      </trkpt>
      <trkpt lat="45.85794" lon="4.78792">
        <ele>583.72791</ele>
        <time>2023-06-29T15:41:50.000Z</time>
      </trkpt>
      <trkpt lat="45.85792" lon="4.78792">
        <ele>581.90271</ele>
        <time>2023-06-29T15:41:51.000Z</time>
      </trkpt>
      <trkpt lat="45.8579" lon="4.78792">
        <ele>580.0907</ele>
        <time>2023-06-29T15:41:52.000Z</time>
      </trkpt>
      <trkpt lat="45.85788" lon="4.78791">
        <ele>578.3053</ele>
        <time>2023-06-29T15:41:53.000Z</time>
      </trkpt>
      <trkpt lat="45.85786" lon="4.7879">
        <ele>576.03882</ele>
        <time>2023-06-29T15:41:54.000Z</time>
      </trkpt>
      <trkpt lat="45.85784" lon="4.78789">
        <ele>573.69763</ele>
        <time>2023-06-29T15:41:55.000Z</time>
      </trkpt>
      <trkpt lat="45.85782" lon="4.78787">
        <ele>572.7489</ele>
        <time>2023-06-29T15:41:56.000Z</time>
      </trkpt>
      <trkpt lat="45.8578" lon="4.78786">
        <ele>576.15289</ele>
        <time>2023-06-29T15:41:57.000Z</time>
      </trkpt>
      <trkpt lat="45.85778" lon="4.78784">
        <ele>574.76349</ele>
        <time>2023-06-29T15:41:58.000Z</time>
      </trkpt>
      <trkpt lat="45.85776" lon="4.78783">
        <ele>573.39374</ele>
        <time>2023-06-29T15:41:59.000Z</time>
      </trkpt>
      <trkpt lat="45.85773" lon="4.78781">
        <ele>572.16925</ele>
        <time>2023-06-29T15:42:00.000Z</time>
      </trkpt>
      <trkpt lat="45.85771" lon="4.7878">
        <ele>570.94446</ele>
        <time>2023-06-29T15:42:01.000Z</time>
      </trkpt>
      <trkpt lat="45.85769" lon="4.78779">
        <ele>569.72333</ele>
        <time>2023-06-29T15:42:02.000Z</time>
      </trkpt>
      <trkpt lat="45.85767" lon="4.78778">
        <ele>568.49524</ele>
        <time>2023-06-29T15:42:03.000Z</time>
      </trkpt>
      <trkpt lat="45.85765" lon="4.78778">
        <ele>567.24426</ele>
        <time>2023-06-29T15:42:04.000Z</time>
      </trkpt>
      <trkpt lat="45.85763" lon="4.78778">
        <ele>565.99628</ele>
        <time>2023-06-29T15:42:05.000Z</time>
      </trkpt>
      <trkpt lat="45.8576" lon="4.78778">
        <ele>564.76086</ele>
        <time>2023-06-29T15:42:06.000Z</time>
      </trkpt>
      <trkpt lat="45.85758" lon="4.78778">
        <ele>563.56024</ele>
        <time>2023-06-29T15:42:07.000Z</time>
      </trkpt>
      <trkpt lat="45.85755" lon="4.78777">
        <ele>562.36511</ele>
        <time>2023-06-29T15:42:08.000Z</time>
      </trkpt>
      <trkpt lat="45.85753" lon="4.78775">
        <ele>562.36737</ele>
        <time>2023-06-29T15:42:09.000Z</time>
      </trkpt>
      <trkpt lat="45.85751" lon="4.78771">
        <ele>562.37195</ele>
        <time>2023-06-29T15:42:11.000Z</time>
      </trkpt>
      <trkpt lat="45.8575" lon="4.78769">
        <ele>562.3609</ele>
        <time>2023-06-29T15:42:12.000Z</time>
      </trkpt>
      <trkpt lat="45.85748" lon="4.78768">
        <ele>562.39001</ele>
        <time>2023-06-29T15:42:13.000Z</time>
      </trkpt>
      <trkpt lat="45.85746" lon="4.78766">
        <ele>561.76532</ele>
        <time>2023-06-29T15:42:14.000Z</time>
      </trkpt>
      <trkpt lat="45.85745" lon="4.78764">
        <ele>562.98047</ele>
        <time>2023-06-29T15:42:15.000Z</time>
      </trkpt>
      <trkpt lat="45.85742" lon="4.78762">
        <ele>564.23602</ele>
        <time>2023-06-29T15:42:16.000Z</time>
      </trkpt>
      <trkpt lat="45.85741" lon="4.7876">
        <ele>564.72424</ele>
        <time>2023-06-29T15:42:17.000Z</time>
      </trkpt>
      <trkpt lat="45.85739" lon="4.78758">
        <ele>564.45862</ele>
        <time>2023-06-29T15:42:18.000Z</time>
      </trkpt>
      <trkpt lat="45.85737" lon="4.78756">
        <ele>563.86694</ele>
        <time>2023-06-29T15:42:19.000Z</time>
      </trkpt>
      <trkpt lat="45.85735" lon="4.78754">
        <ele>563.22766</ele>
        <time>2023-06-29T15:42:20.000Z</time>
      </trkpt>
      <trkpt lat="45.85733" lon="4.78752">
        <ele>562.43848</ele>
        <time>2023-06-29T15:42:21.000Z</time>
      </trkpt>
      <trkpt lat="45.85732" lon="4.78751">
        <ele>561.71368</ele>
        <time>2023-06-29T15:42:22.000Z</time>
      </trkpt>
      <trkpt lat="45.8573" lon="4.78749">
        <ele>561.24762</ele>
        <time>2023-06-29T15:42:23.000Z</time>
      </trkpt>
      <trkpt lat="45.85728" lon="4.78747">
        <ele>560.77283</ele>
        <time>2023-06-29T15:42:24.000Z</time>
      </trkpt>
      <trkpt lat="45.85726" lon="4.78746">
        <ele>560.21991</ele>
        <time>2023-06-29T15:42:25.000Z</time>
      </trkpt>
      <trkpt lat="45.85724" lon="4.78743">
        <ele>559.68677</ele>
        <time>2023-06-29T15:42:26.000Z</time>
      </trkpt>
      <trkpt lat="45.85722" lon="4.7874">
        <ele>559.29401</ele>
        <time>2023-06-29T15:42:27.000Z</time>
      </trkpt>
      <trkpt lat="45.8572" lon="4.78738">
        <ele>559.10028</ele>
        <time>2023-06-29T15:42:28.000Z</time>
      </trkpt>
      <trkpt lat="45.85719" lon="4.78735">
        <ele>558.91553</ele>
        <time>2023-06-29T15:42:29.000Z</time>
      </trkpt>
      <trkpt lat="45.85717" lon="4.78733">
        <ele>558.72736</ele>
        <time>2023-06-29T15:42:30.000Z</time>
      </trkpt>
      <trkpt lat="45.85716" lon="4.78732">
        <ele>558.50745</ele>
        <time>2023-06-29T15:42:31.000Z</time>
      </trkpt>
      <trkpt lat="45.85714" lon="4.78729">
        <ele>558.2793</ele>
        <time>2023-06-29T15:42:32.000Z</time>
      </trkpt>
      <trkpt lat="45.85712" lon="4.78727">
        <ele>557.99963</ele>
        <time>2023-06-29T15:42:33.000Z</time>
      </trkpt>
      <trkpt lat="45.8571" lon="4.78724">
        <ele>558.33728</ele>
        <time>2023-06-29T15:42:34.000Z</time>
      </trkpt>
      <trkpt lat="45.85708" lon="4.78721">
        <ele>557.34174</ele>
        <time>2023-06-29T15:42:35.000Z</time>
      </trkpt>
      <trkpt lat="45.85706" lon="4.78719">
        <ele>556.40857</ele>
        <time>2023-06-29T15:42:36.000Z</time>
      </trkpt>
      <trkpt lat="45.85705" lon="4.78716">
        <ele>555.40198</ele>
        <time>2023-06-29T15:42:37.000Z</time>
      </trkpt>
      <trkpt lat="45.85703" lon="4.78714">
        <ele>555.15314</ele>
        <time>2023-06-29T15:42:38.000Z</time>
      </trkpt>
      <trkpt lat="45.85701" lon="4.78712">
        <ele>555.27991</ele>
        <time>2023-06-29T15:42:39.000Z</time>
      </trkpt>
      <trkpt lat="45.85699" lon="4.7871">
        <ele>555.46405</ele>
        <time>2023-06-29T15:42:40.000Z</time>
      </trkpt>
      <trkpt lat="45.85697" lon="4.78708">
        <ele>555.81964</ele>
        <time>2023-06-29T15:42:41.000Z</time>
      </trkpt>
      <trkpt lat="45.85696" lon="4.78705">
        <ele>556.28235</ele>
        <time>2023-06-29T15:42:42.000Z</time>
      </trkpt>
      <trkpt lat="45.85694" lon="4.78701">
        <ele>556.52332</ele>
        <time>2023-06-29T15:42:43.000Z</time>
      </trkpt>
      <trkpt lat="45.85692" lon="4.78698">
        <ele>556.67505</ele>
        <time>2023-06-29T15:42:44.000Z</time>
      </trkpt>
      <trkpt lat="45.85691" lon="4.78696">
        <ele>557.02618</ele>
        <time>2023-06-29T15:42:45.000Z</time>
      </trkpt>
      <trkpt lat="45.85689" lon="4.78694">
        <ele>557.3938</ele>
        <time>2023-06-29T15:42:46.000Z</time>
      </trkpt>
      <trkpt lat="45.85687" lon="4.7869">
        <ele>557.63367</ele>
        <time>2023-06-29T15:42:47.000Z</time>
      </trkpt>
      <trkpt lat="45.85684" lon="4.78688">
        <ele>557.71936</ele>
        <time>2023-06-29T15:42:48.000Z</time>
      </trkpt>
      <trkpt lat="45.85682" lon="4.78685">
        <ele>557.78107</ele>
        <time>2023-06-29T15:42:49.000Z</time>
      </trkpt>
      <trkpt lat="45.8568" lon="4.78683">
        <ele>557.83783</ele>
        <time>2023-06-29T15:42:50.000Z</time>
      </trkpt>
      <trkpt lat="45.85678" lon="4.78682">
        <ele>557.90222</ele>
        <time>2023-06-29T15:42:51.000Z</time>
      </trkpt>
      <trkpt lat="45.85676" lon="4.7868">
        <ele>557.99237</ele>
        <time>2023-06-29T15:42:52.000Z</time>
      </trkpt>
      <trkpt lat="45.85674" lon="4.78678">
        <ele>558.12048</ele>
        <time>2023-06-29T15:42:53.000Z</time>
      </trkpt>
      <trkpt lat="45.85671" lon="4.78676">
        <ele>558.2749</ele>
        <time>2023-06-29T15:42:54.000Z</time>
      </trkpt>
      <trkpt lat="45.85669" lon="4.78674">
        <ele>558.45093</ele>
        <time>2023-06-29T15:42:55.000Z</time>
      </trkpt>
      <trkpt lat="45.85667" lon="4.78672">
        <ele>558.62903</ele>
        <time>2023-06-29T15:42:56.000Z</time>
      </trkpt>
      <trkpt lat="45.85664" lon="4.7867">
        <ele>558.87738</ele>
        <time>2023-06-29T15:42:57.000Z</time>
      </trkpt>
      <trkpt lat="45.85662" lon="4.78668">
        <ele>559.00629</ele>
        <time>2023-06-29T15:42:58.000Z</time>
      </trkpt>
      <trkpt lat="45.8566" lon="4.78667">
        <ele>558.97437</ele>
        <time>2023-06-29T15:42:59.000Z</time>
      </trkpt>
      <trkpt lat="45.85657" lon="4.78665">
        <ele>558.93195</ele>
        <time>2023-06-29T15:43:00.000Z</time>
      </trkpt>
      <trkpt lat="45.85654" lon="4.78663">
        <ele>558.58765</ele>
        <time>2023-06-29T15:43:01.000Z</time>
      </trkpt>
      <trkpt lat="45.85651" lon="4.78662">
        <ele>558.26721</ele>
        <time>2023-06-29T15:43:02.000Z</time>
      </trkpt>
      <trkpt lat="45.85648" lon="4.78661">
        <ele>558.08112</ele>
        <time>2023-06-29T15:43:03.000Z</time>
      </trkpt>
      <trkpt lat="45.85645" lon="4.78659">
        <ele>558.04883</ele>
        <time>2023-06-29T15:43:04.000Z</time>
      </trkpt>
      <trkpt lat="45.85641" lon="4.78657">
        <ele>559.13098</ele>
        <time>2023-06-29T15:43:05.000Z</time>
      </trkpt>
      <trkpt lat="45.85638" lon="4.78655">
        <ele>559.10773</ele>
        <time>2023-06-29T15:43:06.000Z</time>
      </trkpt>
      <trkpt lat="45.85635" lon="4.78652">
        <ele>559.08514</ele>
        <time>2023-06-29T15:43:07.000Z</time>
      </trkpt>
      <trkpt lat="45.85633" lon="4.7865">
        <ele>560.50427</ele>
        <time>2023-06-29T15:43:08.000Z</time>
      </trkpt>
      <trkpt lat="45.85631" lon="4.78647">
        <ele>561.92963</ele>
        <time>2023-06-29T15:43:09.000Z</time>
      </trkpt>
      <trkpt lat="45.85629" lon="4.78644">
        <ele>563.49292</ele>
        <time>2023-06-29T15:43:10.000Z</time>
      </trkpt>
      <trkpt lat="45.85627" lon="4.78641">
        <ele>565.05798</ele>
        <time>2023-06-29T15:43:11.000Z</time>
      </trkpt>
      <trkpt lat="45.85625" lon="4.78638">
        <ele>566.60022</ele>
        <time>2023-06-29T15:43:12.000Z</time>
      </trkpt>
      <trkpt lat="45.85622" lon="4.78636">
        <ele>568.20233</ele>
        <time>2023-06-29T15:43:13.000Z</time>
      </trkpt>
      <trkpt lat="45.8562" lon="4.78634">
        <ele>569.80652</ele>
        <time>2023-06-29T15:43:14.000Z</time>
      </trkpt>
      <trkpt lat="45.85617" lon="4.78632">
        <ele>571.36249</ele>
        <time>2023-06-29T15:43:15.000Z</time>
      </trkpt>
      <trkpt lat="45.85613" lon="4.7863">
        <ele>572.92657</ele>
        <time>2023-06-29T15:43:16.000Z</time>
      </trkpt>
      <trkpt lat="45.8561" lon="4.78629">
        <ele>574.47711</ele>
        <time>2023-06-29T15:43:17.000Z</time>
      </trkpt>
      <trkpt lat="45.85607" lon="4.78627">
        <ele>575.37457</ele>
        <time>2023-06-29T15:43:18.000Z</time>
      </trkpt>
      <trkpt lat="45.85603" lon="4.78626">
        <ele>575.60901</ele>
        <time>2023-06-29T15:43:19.000Z</time>
      </trkpt>
      <trkpt lat="45.85599" lon="4.78624">
        <ele>575.91449</ele>
        <time>2023-06-29T15:43:20.000Z</time>
      </trkpt>
      <trkpt lat="45.85595" lon="4.78622">
        <ele>576.68799</ele>
        <time>2023-06-29T15:43:21.000Z</time>
      </trkpt>
      <trkpt lat="45.85591" lon="4.7862">
        <ele>577.31348</ele>
        <time>2023-06-29T15:43:22.000Z</time>
      </trkpt>
      <trkpt lat="45.85588" lon="4.78617">
        <ele>577.71515</ele>
        <time>2023-06-29T15:43:23.000Z</time>
      </trkpt>
      <trkpt lat="45.85584" lon="4.78614">
        <ele>578.19061</ele>
        <time>2023-06-29T15:43:24.000Z</time>
      </trkpt>
      <trkpt lat="45.85581" lon="4.78611">
        <ele>577.32043</ele>
        <time>2023-06-29T15:43:25.000Z</time>
      </trkpt>
      <trkpt lat="45.85578" lon="4.78608">
        <ele>577.30634</ele>
        <time>2023-06-29T15:43:26.000Z</time>
      </trkpt>
      <trkpt lat="45.85574" lon="4.78605">
        <ele>577.29956</ele>
        <time>2023-06-29T15:43:27.000Z</time>
      </trkpt>
      <trkpt lat="45.8557" lon="4.78603">
        <ele>575.86487</ele>
        <time>2023-06-29T15:43:28.000Z</time>
      </trkpt>
      <trkpt lat="45.85566" lon="4.786">
        <ele>574.60498</ele>
        <time>2023-06-29T15:43:29.000Z</time>
      </trkpt>
      <trkpt lat="45.85562" lon="4.78599">
        <ele>573.04724</ele>
        <time>2023-06-29T15:43:30.000Z</time>
      </trkpt>
      <trkpt lat="45.85558" lon="4.78597">
        <ele>571.48981</ele>
        <time>2023-06-29T15:43:31.000Z</time>
      </trkpt>
      <trkpt lat="45.85551" lon="4.78593">
        <ele>569.97327</ele>
        <time>2023-06-29T15:43:32.000Z</time>
      </trkpt>
      <trkpt lat="45.85546" lon="4.78592">
        <ele>567.97723</ele>
        <time>2023-06-29T15:43:33.000Z</time>
      </trkpt>
      <trkpt lat="45.85541" lon="4.7859">
        <ele>566.15778</ele>
        <time>2023-06-29T15:43:34.000Z</time>
      </trkpt>
      <trkpt lat="45.85535" lon="4.78587">
        <ele>564.59088</ele>
        <time>2023-06-29T15:43:35.000Z</time>
      </trkpt>
      <trkpt lat="45.8553" lon="4.78581">
        <ele>563.02277</ele>
        <time>2023-06-29T15:43:36.000Z</time>
      </trkpt>
      <trkpt lat="45.85525" lon="4.78577">
        <ele>561.46393</ele>
        <time>2023-06-29T15:43:37.000Z</time>
      </trkpt>
      <trkpt lat="45.85521" lon="4.78573">
        <ele>560.80951</ele>
        <time>2023-06-29T15:43:38.000Z</time>
      </trkpt>
      <trkpt lat="45.85516" lon="4.78567">
        <ele>560.93134</ele>
        <time>2023-06-29T15:43:39.000Z</time>
      </trkpt>
      <trkpt lat="45.85512" lon="4.78563">
        <ele>561.01477</ele>
        <time>2023-06-29T15:43:40.000Z</time>
      </trkpt>
      <trkpt lat="45.85508" lon="4.78558">
        <ele>560.91345</ele>
        <time>2023-06-29T15:43:41.000Z</time>
      </trkpt>
      <trkpt lat="45.85503" lon="4.78553">
        <ele>560.77423</ele>
        <time>2023-06-29T15:43:42.000Z</time>
      </trkpt>
      <trkpt lat="45.85499" lon="4.78549">
        <ele>561.6759</ele>
        <time>2023-06-29T15:43:43.000Z</time>
      </trkpt>
      <trkpt lat="45.85494" lon="4.78544">
        <ele>562.45221</ele>
        <time>2023-06-29T15:43:44.000Z</time>
      </trkpt>
      <trkpt lat="45.8549" lon="4.78539">
        <ele>563.37463</ele>
        <time>2023-06-29T15:43:45.000Z</time>
      </trkpt>
      <trkpt lat="45.85485" lon="4.78533">
        <ele>564.5368</ele>
        <time>2023-06-29T15:43:46.000Z</time>
      </trkpt>
      <trkpt lat="45.85481" lon="4.78528">
        <ele>564.81506</ele>
        <time>2023-06-29T15:43:47.000Z</time>
      </trkpt>
      <trkpt lat="45.85477" lon="4.78524">
        <ele>565.04266</ele>
        <time>2023-06-29T15:43:48.000Z</time>
      </trkpt>
      <trkpt lat="45.85472" lon="4.78519">
        <ele>565.12451</ele>
        <time>2023-06-29T15:43:49.000Z</time>
      </trkpt>
      <trkpt lat="45.85468" lon="4.78514">
        <ele>564.39636</ele>
        <time>2023-06-29T15:43:50.000Z</time>
      </trkpt>
      <trkpt lat="45.85464" lon="4.7851">
        <ele>564.61987</ele>
        <time>2023-06-29T15:43:51.000Z</time>
      </trkpt>
      <trkpt lat="45.8546" lon="4.78506">
        <ele>565.37677</ele>
        <time>2023-06-29T15:43:52.000Z</time>
      </trkpt>
      <trkpt lat="45.85455" lon="4.785">
        <ele>566.55145</ele>
        <time>2023-06-29T15:43:53.000Z</time>
      </trkpt>
      <trkpt lat="45.85451" lon="4.78496">
        <ele>567.06445</ele>
        <time>2023-06-29T15:43:54.000Z</time>
      </trkpt>
      <trkpt lat="45.85447" lon="4.78491">
        <ele>567.37469</ele>
        <time>2023-06-29T15:43:55.000Z</time>
      </trkpt>
      <trkpt lat="45.85443" lon="4.78485">
        <ele>567.69031</ele>
        <time>2023-06-29T15:43:56.000Z</time>
      </trkpt>
      <trkpt lat="45.85438" lon="4.7848">
        <ele>567.99323</ele>
        <time>2023-06-29T15:43:57.000Z</time>
      </trkpt>
      <trkpt lat="45.85434" lon="4.78475">
        <ele>568.32336</ele>
        <time>2023-06-29T15:43:58.000Z</time>
      </trkpt>
      <trkpt lat="45.85429" lon="4.78471">
        <ele>570.38733</ele>
        <time>2023-06-29T15:43:59.000Z</time>
      </trkpt>
      <trkpt lat="45.85425" lon="4.78467">
        <ele>570.82068</ele>
        <time>2023-06-29T15:44:00.000Z</time>
      </trkpt>
      <trkpt lat="45.85422" lon="4.78463">
        <ele>571.27734</ele>
        <time>2023-06-29T15:44:01.000Z</time>
      </trkpt>
      <trkpt lat="45.85418" lon="4.78459">
        <ele>571.74939</ele>
        <time>2023-06-29T15:44:02.000Z</time>
      </trkpt>
      <trkpt lat="45.85413" lon="4.78456">
        <ele>571.26563</ele>
        <time>2023-06-29T15:44:03.000Z</time>
      </trkpt>
      <trkpt lat="45.8541" lon="4.78451">
        <ele>572.26111</ele>
        <time>2023-06-29T15:44:04.000Z</time>
      </trkpt>
      <trkpt lat="45.85406" lon="4.78446">
        <ele>573.21716</ele>
        <time>2023-06-29T15:44:05.000Z</time>
      </trkpt>
      <trkpt lat="45.85402" lon="4.78442">
        <ele>574.18921</ele>
        <time>2023-06-29T15:44:06.000Z</time>
      </trkpt>
      <trkpt lat="45.85398" lon="4.78439">
        <ele>576.03601</ele>
        <time>2023-06-29T15:44:07.000Z</time>
      </trkpt>
      <trkpt lat="45.85394" lon="4.78435">
        <ele>577.88806</ele>
        <time>2023-06-29T15:44:08.000Z</time>
      </trkpt>
      <trkpt lat="45.85389" lon="4.78431">
        <ele>579.75732</ele>
        <time>2023-06-29T15:44:09.000Z</time>
      </trkpt>
      <trkpt lat="45.85385" lon="4.78426">
        <ele>582.58264</ele>
        <time>2023-06-29T15:44:10.000Z</time>
      </trkpt>
      <trkpt lat="45.8538" lon="4.78421">
        <ele>584.47577</ele>
        <time>2023-06-29T15:44:11.000Z</time>
      </trkpt>
      <trkpt lat="45.85376" lon="4.78417">
        <ele>585.76477</ele>
        <time>2023-06-29T15:44:12.000Z</time>
      </trkpt>
      <trkpt lat="45.85372" lon="4.78414">
        <ele>586.98767</ele>
        <time>2023-06-29T15:44:13.000Z</time>
      </trkpt>
      <trkpt lat="45.85367" lon="4.78409">
        <ele>588.52008</ele>
        <time>2023-06-29T15:44:14.000Z</time>
      </trkpt>
      <trkpt lat="45.85364" lon="4.78403">
        <ele>590.02606</ele>
        <time>2023-06-29T15:44:15.000Z</time>
      </trkpt>
      <trkpt lat="45.8536" lon="4.78398">
        <ele>591.52917</ele>
        <time>2023-06-29T15:44:16.000Z</time>
      </trkpt>
      <trkpt lat="45.85357" lon="4.78392">
        <ele>593.04602</ele>
        <time>2023-06-29T15:44:17.000Z</time>
      </trkpt>
      <trkpt lat="45.85354" lon="4.78386">
        <ele>594.5697</ele>
        <time>2023-06-29T15:44:18.000Z</time>
      </trkpt>
      <trkpt lat="45.85351" lon="4.7838">
        <ele>594.41022</ele>
        <time>2023-06-29T15:44:19.000Z</time>
      </trkpt>
      <trkpt lat="45.85347" lon="4.78373">
        <ele>595.84729</ele>
        <time>2023-06-29T15:44:20.000Z</time>
      </trkpt>
      <trkpt lat="45.85344" lon="4.78366">
        <ele>597.27356</ele>
        <time>2023-06-29T15:44:21.000Z</time>
      </trkpt>
      <trkpt lat="45.85342" lon="4.7836">
        <ele>598.67694</ele>
        <time>2023-06-29T15:44:22.000Z</time>
      </trkpt>
      <trkpt lat="45.85339" lon="4.78356">
        <ele>600.0155</ele>
        <time>2023-06-29T15:44:23.000Z</time>
      </trkpt>
      <trkpt lat="45.85335" lon="4.78352">
        <ele>599.86328</ele>
        <time>2023-06-29T15:44:24.000Z</time>
      </trkpt>
      <trkpt lat="45.85331" lon="4.7835">
        <ele>599.69208</ele>
        <time>2023-06-29T15:44:25.000Z</time>
      </trkpt>
      <trkpt lat="45.85329" lon="4.78346">
        <ele>599.48682</ele>
        <time>2023-06-29T15:44:26.000Z</time>
      </trkpt>
      <trkpt lat="45.85326" lon="4.78341">
        <ele>599.27649</ele>
        <time>2023-06-29T15:44:27.000Z</time>
      </trkpt>
      <trkpt lat="45.85322" lon="4.78336">
        <ele>599.13147</ele>
        <time>2023-06-29T15:44:28.000Z</time>
      </trkpt>
      <trkpt lat="45.85318" lon="4.78334">
        <ele>598.92004</ele>
        <time>2023-06-29T15:44:29.000Z</time>
      </trkpt>
      <trkpt lat="45.85312" lon="4.78328">
        <ele>598.57825</ele>
        <time>2023-06-29T15:44:30.000Z</time>
      </trkpt>
      <trkpt lat="45.85309" lon="4.78323">
        <ele>597.02057</ele>
        <time>2023-06-29T15:44:31.000Z</time>
      </trkpt>
      <trkpt lat="45.85307" lon="4.78318">
        <ele>595.45404</ele>
        <time>2023-06-29T15:44:32.000Z</time>
      </trkpt>
      <trkpt lat="45.85304" lon="4.78313">
        <ele>595.4845</ele>
        <time>2023-06-29T15:44:33.000Z</time>
      </trkpt>
      <trkpt lat="45.853" lon="4.78308">
        <ele>595.69977</ele>
        <time>2023-06-29T15:44:34.000Z</time>
      </trkpt>
      <trkpt lat="45.85297" lon="4.78302">
        <ele>595.92157</ele>
        <time>2023-06-29T15:44:35.000Z</time>
      </trkpt>
      <trkpt lat="45.85294" lon="4.78296">
        <ele>596.12219</ele>
        <time>2023-06-29T15:44:36.000Z</time>
      </trkpt>
      <trkpt lat="45.85289" lon="4.7829">
        <ele>596.29395</ele>
        <time>2023-06-29T15:44:37.000Z</time>
      </trkpt>
      <trkpt lat="45.85285" lon="4.78284">
        <ele>596.18524</ele>
        <time>2023-06-29T15:44:38.000Z</time>
      </trkpt>
      <trkpt lat="45.85281" lon="4.78278">
        <ele>596.0296</ele>
        <time>2023-06-29T15:44:39.000Z</time>
      </trkpt>
      <trkpt lat="45.85277" lon="4.78272">
        <ele>594.4801</ele>
        <time>2023-06-29T15:44:40.000Z</time>
      </trkpt>
      <trkpt lat="45.85273" lon="4.78266">
        <ele>592.7373</ele>
        <time>2023-06-29T15:44:41.000Z</time>
      </trkpt>
      <trkpt lat="45.85269" lon="4.78259">
        <ele>592.40686</ele>
        <time>2023-06-29T15:44:42.000Z</time>
      </trkpt>
      <trkpt lat="45.85264" lon="4.78254">
        <ele>590.67712</ele>
        <time>2023-06-29T15:44:43.000Z</time>
      </trkpt>
      <trkpt lat="45.8526" lon="4.78249">
        <ele>589.09393</ele>
        <time>2023-06-29T15:44:44.000Z</time>
      </trkpt>
      <trkpt lat="45.85255" lon="4.78243">
        <ele>587.42395</ele>
        <time>2023-06-29T15:44:45.000Z</time>
      </trkpt>
      <trkpt lat="45.85251" lon="4.78239">
        <ele>586.92371</ele>
        <time>2023-06-29T15:44:46.000Z</time>
      </trkpt>
      <trkpt lat="45.85248" lon="4.78233">
        <ele>586.40656</ele>
        <time>2023-06-29T15:44:47.000Z</time>
      </trkpt>
      <trkpt lat="45.85244" lon="4.78225">
        <ele>584.60638</ele>
        <time>2023-06-29T15:44:48.000Z</time>
      </trkpt>
      <trkpt lat="45.85241" lon="4.78217">
        <ele>582.80511</ele>
        <time>2023-06-29T15:44:49.000Z</time>
      </trkpt>
      <trkpt lat="45.85238" lon="4.78212">
        <ele>581.30035</ele>
        <time>2023-06-29T15:44:50.000Z</time>
      </trkpt>
      <trkpt lat="45.85232" lon="4.78205">
        <ele>580.94885</ele>
        <time>2023-06-29T15:44:51.000Z</time>
      </trkpt>
      <trkpt lat="45.85229" lon="4.78198">
        <ele>581.72748</ele>
        <time>2023-06-29T15:44:52.000Z</time>
      </trkpt>
      <trkpt lat="45.85224" lon="4.78192">
        <ele>580.85236</ele>
        <time>2023-06-29T15:44:53.000Z</time>
      </trkpt>
      <trkpt lat="45.85219" lon="4.78185">
        <ele>580.0235</ele>
        <time>2023-06-29T15:44:54.000Z</time>
      </trkpt>
      <trkpt lat="45.85215" lon="4.78179">
        <ele>579.15802</ele>
        <time>2023-06-29T15:44:55.000Z</time>
      </trkpt>
      <trkpt lat="45.85212" lon="4.78173">
        <ele>578.39783</ele>
        <time>2023-06-29T15:44:56.000Z</time>
      </trkpt>
      <trkpt lat="45.85209" lon="4.78168">
        <ele>578.47327</ele>
        <time>2023-06-29T15:44:57.000Z</time>
      </trkpt>
      <trkpt lat="45.85206" lon="4.78163">
        <ele>578.8161</ele>
        <time>2023-06-29T15:44:58.000Z</time>
      </trkpt>
      <trkpt lat="45.85203" lon="4.78158">
        <ele>579.09882</ele>
        <time>2023-06-29T15:44:59.000Z</time>
      </trkpt>
      <trkpt lat="45.85198" lon="4.78152">
        <ele>580.80548</ele>
        <time>2023-06-29T15:45:00.000Z</time>
      </trkpt>
      <trkpt lat="45.85196" lon="4.78146">
        <ele>582.72034</ele>
        <time>2023-06-29T15:45:01.000Z</time>
      </trkpt>
      <trkpt lat="45.85193" lon="4.78142">
        <ele>583.24628</ele>
        <time>2023-06-29T15:45:02.000Z</time>
      </trkpt>
      <trkpt lat="45.85189" lon="4.78136">
        <ele>585.203</ele>
        <time>2023-06-29T15:45:03.000Z</time>
      </trkpt>
      <trkpt lat="45.85185" lon="4.7813">
        <ele>587.03601</ele>
        <time>2023-06-29T15:45:04.000Z</time>
      </trkpt>
      <trkpt lat="45.85183" lon="4.78125">
        <ele>588.95557</ele>
        <time>2023-06-29T15:45:05.000Z</time>
      </trkpt>
      <trkpt lat="45.8518" lon="4.78119">
        <ele>589.74164</ele>
        <time>2023-06-29T15:45:06.000Z</time>
      </trkpt>
      <trkpt lat="45.85177" lon="4.78113">
        <ele>590.57172</ele>
        <time>2023-06-29T15:45:07.000Z</time>
      </trkpt>
      <trkpt lat="45.85174" lon="4.78108">
        <ele>592.59027</ele>
        <time>2023-06-29T15:45:08.000Z</time>
      </trkpt>
      <trkpt lat="45.85172" lon="4.78102">
        <ele>594.32239</ele>
        <time>2023-06-29T15:45:09.000Z</time>
      </trkpt>
      <trkpt lat="45.85169" lon="4.78098">
        <ele>595.8996</ele>
        <time>2023-06-29T15:45:10.000Z</time>
      </trkpt>
      <trkpt lat="45.85167" lon="4.78092">
        <ele>597.56555</ele>
        <time>2023-06-29T15:45:11.000Z</time>
      </trkpt>
      <trkpt lat="45.85166" lon="4.78087">
        <ele>598.16302</ele>
        <time>2023-06-29T15:45:12.000Z</time>
      </trkpt>
      <trkpt lat="45.85162" lon="4.78083">
        <ele>598.88025</ele>
        <time>2023-06-29T15:45:13.000Z</time>
      </trkpt>
      <trkpt lat="45.85159" lon="4.78077">
        <ele>599.50616</ele>
        <time>2023-06-29T15:45:14.000Z</time>
      </trkpt>
      <trkpt lat="45.85157" lon="4.78073">
        <ele>601.07208</ele>
        <time>2023-06-29T15:45:15.000Z</time>
      </trkpt>
      <trkpt lat="45.85155" lon="4.78069">
        <ele>602.49628</ele>
        <time>2023-06-29T15:45:16.000Z</time>
      </trkpt>
      <trkpt lat="45.85154" lon="4.78064">
        <ele>603.11157</ele>
        <time>2023-06-29T15:45:17.000Z</time>
      </trkpt>
      <trkpt lat="45.85154" lon="4.78057">
        <ele>603.73688</ele>
        <time>2023-06-29T15:45:18.000Z</time>
      </trkpt>
      <trkpt lat="45.85152" lon="4.78051">
        <ele>604.43726</ele>
        <time>2023-06-29T15:45:19.000Z</time>
      </trkpt>
      <trkpt lat="45.8515" lon="4.78047">
        <ele>605.1076</ele>
        <time>2023-06-29T15:45:20.000Z</time>
      </trkpt>
      <trkpt lat="45.85148" lon="4.78042">
        <ele>605.73834</ele>
        <time>2023-06-29T15:45:21.000Z</time>
      </trkpt>
      <trkpt lat="45.85146" lon="4.78038">
        <ele>606.3385</ele>
        <time>2023-06-29T15:45:22.000Z</time>
      </trkpt>
      <trkpt lat="45.85145" lon="4.78033">
        <ele>606.97455</ele>
        <time>2023-06-29T15:45:23.000Z</time>
      </trkpt>
      <trkpt lat="45.85143" lon="4.78029">
        <ele>607.60486</ele>
        <time>2023-06-29T15:45:24.000Z</time>
      </trkpt>
      <trkpt lat="45.85142" lon="4.78024">
        <ele>608.25708</ele>
        <time>2023-06-29T15:45:25.000Z</time>
      </trkpt>
      <trkpt lat="45.85141" lon="4.78019">
        <ele>609.01007</ele>
        <time>2023-06-29T15:45:26.000Z</time>
      </trkpt>
      <trkpt lat="45.8514" lon="4.78011">
        <ele>609.70038</ele>
        <time>2023-06-29T15:45:27.000Z</time>
      </trkpt>
      <trkpt lat="45.85136" lon="4.78006">
        <ele>610.44086</ele>
        <time>2023-06-29T15:45:28.000Z</time>
      </trkpt>
      <trkpt lat="45.85134" lon="4.77999">
        <ele>611.54651</ele>
        <time>2023-06-29T15:45:29.000Z</time>
      </trkpt>
      <trkpt lat="45.85131" lon="4.77996">
        <ele>612.6488</ele>
        <time>2023-06-29T15:45:30.000Z</time>
      </trkpt>
      <trkpt lat="45.85129" lon="4.77991">
        <ele>613.72308</ele>
        <time>2023-06-29T15:45:31.000Z</time>
      </trkpt>
      <trkpt lat="45.85128" lon="4.77986">
        <ele>614.79626</ele>
        <time>2023-06-29T15:45:32.000Z</time>
      </trkpt>
      <trkpt lat="45.85126" lon="4.7798">
        <ele>615.90125</ele>
        <time>2023-06-29T15:45:33.000Z</time>
      </trkpt>
      <trkpt lat="45.85124" lon="4.77975">
        <ele>616.74933</ele>
        <time>2023-06-29T15:45:34.000Z</time>
      </trkpt>
      <trkpt lat="45.85124" lon="4.77968">
        <ele>616.71899</ele>
        <time>2023-06-29T15:45:35.000Z</time>
      </trkpt>
      <trkpt lat="45.85122" lon="4.77963">
        <ele>616.70581</ele>
        <time>2023-06-29T15:45:36.000Z</time>
      </trkpt>
      <trkpt lat="45.85122" lon="4.77957">
        <ele>616.67694</ele>
        <time>2023-06-29T15:45:37.000Z</time>
      </trkpt>
      <trkpt lat="45.85121" lon="4.77951">
        <ele>616.63391</ele>
        <time>2023-06-29T15:45:38.000Z</time>
      </trkpt>
      <trkpt lat="45.8512" lon="4.77946">
        <ele>616.62311</ele>
        <time>2023-06-29T15:45:39.000Z</time>
      </trkpt>
      <trkpt lat="45.85118" lon="4.77942">
        <ele>616.61731</ele>
        <time>2023-06-29T15:45:40.000Z</time>
      </trkpt>
      <trkpt lat="45.85117" lon="4.77937">
        <ele>616.62006</ele>
        <time>2023-06-29T15:45:41.000Z</time>
      </trkpt>
      <trkpt lat="45.85115" lon="4.77933">
        <ele>616.61536</ele>
        <time>2023-06-29T15:45:42.000Z</time>
      </trkpt>
      <trkpt lat="45.85113" lon="4.7793">
        <ele>616.6167</ele>
        <time>2023-06-29T15:45:43.000Z</time>
      </trkpt>
      <trkpt lat="45.85111" lon="4.77926">
        <ele>616.61261</ele>
        <time>2023-06-29T15:45:44.000Z</time>
      </trkpt>
      <trkpt lat="45.85109" lon="4.77922">
        <ele>616.62518</ele>
        <time>2023-06-29T15:45:45.000Z</time>
      </trkpt>
      <trkpt lat="45.85107" lon="4.77918">
        <ele>616.46234</ele>
        <time>2023-06-29T15:45:46.000Z</time>
      </trkpt>
      <trkpt lat="45.85105" lon="4.77915">
        <ele>616.35461</ele>
        <time>2023-06-29T15:45:47.000Z</time>
      </trkpt>
      <trkpt lat="45.85103" lon="4.7791">
        <ele>616.20563</ele>
        <time>2023-06-29T15:45:48.000Z</time>
      </trkpt>
      <trkpt lat="45.85102" lon="4.77906">
        <ele>615.98077</ele>
        <time>2023-06-29T15:45:49.000Z</time>
      </trkpt>
      <trkpt lat="45.851" lon="4.77902">
        <ele>615.76727</ele>
        <time>2023-06-29T15:45:50.000Z</time>
      </trkpt>
      <trkpt lat="45.85099" lon="4.77897">
        <ele>615.54205</ele>
        <time>2023-06-29T15:45:51.000Z</time>
      </trkpt>
      <trkpt lat="45.85097" lon="4.77891">
        <ele>615.29285</ele>
        <time>2023-06-29T15:45:52.000Z</time>
      </trkpt>
      <trkpt lat="45.85096" lon="4.77885">
        <ele>614.97491</ele>
        <time>2023-06-29T15:45:53.000Z</time>
      </trkpt>
      <trkpt lat="45.85096" lon="4.77879">
        <ele>614.96606</ele>
        <time>2023-06-29T15:45:54.000Z</time>
      </trkpt>
      <trkpt lat="45.85098" lon="4.77874">
        <ele>614.90759</ele>
        <time>2023-06-29T15:45:55.000Z</time>
      </trkpt>
      <trkpt lat="45.85101" lon="4.77869">
        <ele>614.87964</ele>
        <time>2023-06-29T15:45:56.000Z</time>
      </trkpt>
      <trkpt lat="45.85103" lon="4.77864">
        <ele>614.84143</ele>
        <time>2023-06-29T15:45:57.000Z</time>
      </trkpt>
      <trkpt lat="45.85102" lon="4.77852">
        <ele>614.7843</ele>
        <time>2023-06-29T15:45:58.000Z</time>
      </trkpt>
      <trkpt lat="45.85101" lon="4.77843">
        <ele>614.66382</ele>
        <time>2023-06-29T15:45:59.000Z</time>
      </trkpt>
      <trkpt lat="45.85101" lon="4.77834">
        <ele>614.55701</ele>
        <time>2023-06-29T15:46:00.000Z</time>
      </trkpt>
      <trkpt lat="45.85102" lon="4.77821">
        <ele>614.48706</ele>
        <time>2023-06-29T15:46:01.000Z</time>
      </trkpt>
      <trkpt lat="45.85104" lon="4.77812">
        <ele>614.40637</ele>
        <time>2023-06-29T15:46:02.000Z</time>
      </trkpt>
      <trkpt lat="45.85106" lon="4.77802">
        <ele>614.28223</ele>
        <time>2023-06-29T15:46:03.000Z</time>
      </trkpt>
      <trkpt lat="45.85106" lon="4.77791">
        <ele>614.14325</ele>
        <time>2023-06-29T15:46:04.000Z</time>
      </trkpt>
      <trkpt lat="45.85105" lon="4.7778">
        <ele>613.98663</ele>
        <time>2023-06-29T15:46:05.000Z</time>
      </trkpt>
      <trkpt lat="45.85103" lon="4.7777">
        <ele>613.87231</ele>
        <time>2023-06-29T15:46:06.000Z</time>
      </trkpt>
      <trkpt lat="45.85101" lon="4.77757">
        <ele>613.75085</ele>
        <time>2023-06-29T15:46:07.000Z</time>
      </trkpt>
      <trkpt lat="45.85096" lon="4.77744">
        <ele>613.64148</ele>
        <time>2023-06-29T15:46:08.000Z</time>
      </trkpt>
      <trkpt lat="45.85091" lon="4.77728">
        <ele>613.51257</ele>
        <time>2023-06-29T15:46:09.000Z</time>
      </trkpt>
      <trkpt lat="45.85089" lon="4.77712">
        <ele>613.33545</ele>
        <time>2023-06-29T15:46:10.000Z</time>
      </trkpt>
      <trkpt lat="45.85082" lon="4.77701">
        <ele>613.15015</ele>
        <time>2023-06-29T15:46:11.000Z</time>
      </trkpt>
      <trkpt lat="45.85079" lon="4.7769">
        <ele>612.97961</ele>
        <time>2023-06-29T15:46:12.000Z</time>
      </trkpt>
      <trkpt lat="45.85072" lon="4.77679">
        <ele>612.81348</ele>
        <time>2023-06-29T15:46:13.000Z</time>
      </trkpt>
      <trkpt lat="45.85068" lon="4.77668">
        <ele>612.59491</ele>
        <time>2023-06-29T15:46:14.000Z</time>
      </trkpt>
      <trkpt lat="45.85062" lon="4.77659">
        <ele>612.41394</ele>
        <time>2023-06-29T15:46:15.000Z</time>
      </trkpt>
      <trkpt lat="45.85058" lon="4.77654">
        <ele>612.1734</ele>
        <time>2023-06-29T15:46:16.000Z</time>
      </trkpt>
      <trkpt lat="45.85052" lon="4.77647">
        <ele>611.93213</ele>
        <time>2023-06-29T15:46:17.000Z</time>
      </trkpt>
      <trkpt lat="45.85046" lon="4.77642">
        <ele>611.6839</ele>
        <time>2023-06-29T15:46:18.000Z</time>
      </trkpt>
      <trkpt lat="45.85039" lon="4.77638">
        <ele>611.48914</ele>
        <time>2023-06-29T15:46:19.000Z</time>
      </trkpt>
      <trkpt lat="45.85034" lon="4.77635">
        <ele>611.302</ele>
        <time>2023-06-29T15:46:20.000Z</time>
      </trkpt>
      <trkpt lat="45.85029" lon="4.77633">
        <ele>611.05676</ele>
        <time>2023-06-29T15:46:21.000Z</time>
      </trkpt>
      <trkpt lat="45.85024" lon="4.7763">
        <ele>610.82068</ele>
        <time>2023-06-29T15:46:22.000Z</time>
      </trkpt>
      <trkpt lat="45.85017" lon="4.77629">
        <ele>610.59241</ele>
        <time>2023-06-29T15:46:23.000Z</time>
      </trkpt>
      <trkpt lat="45.85013" lon="4.77627">
        <ele>610.34119</ele>
        <time>2023-06-29T15:46:24.000Z</time>
      </trkpt>
      <trkpt lat="45.85008" lon="4.77625">
        <ele>610.1571</ele>
        <time>2023-06-29T15:46:25.000Z</time>
      </trkpt>
      <trkpt lat="45.85002" lon="4.77624">
        <ele>609.98608</ele>
        <time>2023-06-29T15:46:26.000Z</time>
      </trkpt>
      <trkpt lat="45.84996" lon="4.77624">
        <ele>609.79645</ele>
        <time>2023-06-29T15:46:27.000Z</time>
      </trkpt>
      <trkpt lat="45.8499" lon="4.77622">
        <ele>609.56659</ele>
        <time>2023-06-29T15:46:28.000Z</time>
      </trkpt>
      <trkpt lat="45.84984" lon="4.77621">
        <ele>609.45667</ele>
        <time>2023-06-29T15:46:29.000Z</time>
      </trkpt>
      <trkpt lat="45.84977" lon="4.77619">
        <ele>609.42859</ele>
        <time>2023-06-29T15:46:30.000Z</time>
      </trkpt>
      <trkpt lat="45.84971" lon="4.77617">
        <ele>609.4209</ele>
        <time>2023-06-29T15:46:31.000Z</time>
      </trkpt>
      <trkpt lat="45.84966" lon="4.77616">
        <ele>609.38037</ele>
        <time>2023-06-29T15:46:32.000Z</time>
      </trkpt>
      <trkpt lat="45.8496" lon="4.77615">
        <ele>609.39246</ele>
        <time>2023-06-29T15:46:33.000Z</time>
      </trkpt>
      <trkpt lat="45.84954" lon="4.77614">
        <ele>609.44104</ele>
        <time>2023-06-29T15:46:34.000Z</time>
      </trkpt>
      <trkpt lat="45.84948" lon="4.77614">
        <ele>609.40723</ele>
        <time>2023-06-29T15:46:35.000Z</time>
      </trkpt>
      <trkpt lat="45.84942" lon="4.77613">
        <ele>609.47229</ele>
        <time>2023-06-29T15:46:36.000Z</time>
      </trkpt>
      <trkpt lat="45.84936" lon="4.77614">
        <ele>609.52454</ele>
        <time>2023-06-29T15:46:37.000Z</time>
      </trkpt>
      <trkpt lat="45.84931" lon="4.77615">
        <ele>609.59485</ele>
        <time>2023-06-29T15:46:38.000Z</time>
      </trkpt>
      <trkpt lat="45.84925" lon="4.77614">
        <ele>609.5509</ele>
        <time>2023-06-29T15:46:39.000Z</time>
      </trkpt>
      <trkpt lat="45.8492" lon="4.77614">
        <ele>609.47491</ele>
        <time>2023-06-29T15:46:40.000Z</time>
      </trkpt>
      <trkpt lat="45.84914" lon="4.77614">
        <ele>609.44611</ele>
        <time>2023-06-29T15:46:41.000Z</time>
      </trkpt>
      <trkpt lat="45.84909" lon="4.77614">
        <ele>609.42181</ele>
        <time>2023-06-29T15:46:42.000Z</time>
      </trkpt>
      <trkpt lat="45.84903" lon="4.77616">
        <ele>609.37439</ele>
        <time>2023-06-29T15:46:43.000Z</time>
      </trkpt>
      <trkpt lat="45.84899" lon="4.77615">
        <ele>609.36847</ele>
        <time>2023-06-29T15:46:44.000Z</time>
      </trkpt>
      <trkpt lat="45.84894" lon="4.77614">
        <ele>609.30902</ele>
        <time>2023-06-29T15:46:45.000Z</time>
      </trkpt>
      <trkpt lat="45.84889" lon="4.77615">
        <ele>609.26526</ele>
        <time>2023-06-29T15:46:46.000Z</time>
      </trkpt>
      <trkpt lat="45.84885" lon="4.77615">
        <ele>609.22058</ele>
        <time>2023-06-29T15:46:47.000Z</time>
      </trkpt>
      <trkpt lat="45.84881" lon="4.77616">
        <ele>609.23383</ele>
        <time>2023-06-29T15:46:48.000Z</time>
      </trkpt>
      <trkpt lat="45.84877" lon="4.77617">
        <ele>609.19769</ele>
        <time>2023-06-29T15:46:49.000Z</time>
      </trkpt>
      <trkpt lat="45.84874" lon="4.77616">
        <ele>609.09656</ele>
        <time>2023-06-29T15:46:50.000Z</time>
      </trkpt>
      <trkpt lat="45.84872" lon="4.77616">
        <ele>609.01892</ele>
        <time>2023-06-29T15:46:51.000Z</time>
      </trkpt>
      <trkpt lat="45.84869" lon="4.77615">
        <ele>608.96936</ele>
        <time>2023-06-29T15:46:52.000Z</time>
      </trkpt>
      <trkpt lat="45.84866" lon="4.77615">
        <ele>608.87195</ele>
        <time>2023-06-29T15:46:54.000Z</time>
      </trkpt>
      <trkpt lat="45.84863" lon="4.77615">
        <ele>608.7594</ele>
        <time>2023-06-29T15:46:55.000Z</time>
      </trkpt>
      <trkpt lat="45.84859" lon="4.77616">
        <ele>608.68835</ele>
        <time>2023-06-29T15:46:56.000Z</time>
      </trkpt>
      <trkpt lat="45.84855" lon="4.77617">
        <ele>608.565</ele>
        <time>2023-06-29T15:46:57.000Z</time>
      </trkpt>
      <trkpt lat="45.8485" lon="4.77617">
        <ele>608.43634</ele>
        <time>2023-06-29T15:46:58.000Z</time>
      </trkpt>
      <trkpt lat="45.84845" lon="4.77618">
        <ele>608.27087</ele>
        <time>2023-06-29T15:46:59.000Z</time>
      </trkpt>
      <trkpt lat="45.84839" lon="4.77621">
        <ele>608.20422</ele>
        <time>2023-06-29T15:47:00.000Z</time>
      </trkpt>
      <trkpt lat="45.84834" lon="4.77622">
        <ele>608.16229</ele>
        <time>2023-06-29T15:47:01.000Z</time>
      </trkpt>
      <trkpt lat="45.84827" lon="4.77622">
        <ele>608.0835</ele>
        <time>2023-06-29T15:47:02.000Z</time>
      </trkpt>
      <trkpt lat="45.84822" lon="4.77622">
        <ele>608.02362</ele>
        <time>2023-06-29T15:47:03.000Z</time>
      </trkpt>
      <trkpt lat="45.84816" lon="4.77622">
        <ele>607.97656</ele>
        <time>2023-06-29T15:47:04.000Z</time>
      </trkpt>
      <trkpt lat="45.8481" lon="4.77622">
        <ele>607.92737</ele>
        <time>2023-06-29T15:47:05.000Z</time>
      </trkpt>
      <trkpt lat="45.84805" lon="4.77624">
        <ele>607.83447</ele>
        <time>2023-06-29T15:47:06.000Z</time>
      </trkpt>
      <trkpt lat="45.84798" lon="4.77625">
        <ele>607.73364</ele>
        <time>2023-06-29T15:47:07.000Z</time>
      </trkpt>
      <trkpt lat="45.84791" lon="4.77625">
        <ele>607.79919</ele>
        <time>2023-06-29T15:47:08.000Z</time>
      </trkpt>
      <trkpt lat="45.84787" lon="4.77624">
        <ele>607.77905</ele>
        <time>2023-06-29T15:47:09.000Z</time>
      </trkpt>
      <trkpt lat="45.8478" lon="4.77622">
        <ele>607.80481</ele>
        <time>2023-06-29T15:47:10.000Z</time>
      </trkpt>
      <trkpt lat="45.84775" lon="4.77622">
        <ele>607.90649</ele>
        <time>2023-06-29T15:47:11.000Z</time>
      </trkpt>
      <trkpt lat="45.84768" lon="4.7762">
        <ele>607.93866</ele>
        <time>2023-06-29T15:47:12.000Z</time>
      </trkpt>
      <trkpt lat="45.84762" lon="4.77618">
        <ele>607.86133</ele>
        <time>2023-06-29T15:47:13.000Z</time>
      </trkpt>
      <trkpt lat="45.84757" lon="4.77616">
        <ele>607.80139</ele>
        <time>2023-06-29T15:47:14.000Z</time>
      </trkpt>
      <trkpt lat="45.8475" lon="4.77614">
        <ele>607.67133</ele>
        <time>2023-06-29T15:47:15.000Z</time>
      </trkpt>
      <trkpt lat="45.84745" lon="4.77611">
        <ele>607.57184</ele>
        <time>2023-06-29T15:47:16.000Z</time>
      </trkpt>
      <trkpt lat="45.84738" lon="4.77609">
        <ele>607.49139</ele>
        <time>2023-06-29T15:47:17.000Z</time>
      </trkpt>
      <trkpt lat="45.84733" lon="4.77606">
        <ele>607.43457</ele>
        <time>2023-06-29T15:47:18.000Z</time>
      </trkpt>
      <trkpt lat="45.84728" lon="4.77604">
        <ele>607.37897</ele>
        <time>2023-06-29T15:47:19.000Z</time>
      </trkpt>
      <trkpt lat="45.84722" lon="4.77601">
        <ele>607.30402</ele>
        <time>2023-06-29T15:47:20.000Z</time>
      </trkpt>
      <trkpt lat="45.84718" lon="4.77597">
        <ele>607.25366</ele>
        <time>2023-06-29T15:47:21.000Z</time>
      </trkpt>
      <trkpt lat="45.84715" lon="4.77592">
        <ele>607.24097</ele>
        <time>2023-06-29T15:47:22.000Z</time>
      </trkpt>
      <trkpt lat="45.8471" lon="4.77587">
        <ele>607.2088</ele>
        <time>2023-06-29T15:47:23.000Z</time>
      </trkpt>
      <trkpt lat="45.84707" lon="4.77582">
        <ele>607.19348</ele>
        <time>2023-06-29T15:47:24.000Z</time>
      </trkpt>
      <trkpt lat="45.84703" lon="4.77576">
        <ele>607.18909</ele>
        <time>2023-06-29T15:47:25.000Z</time>
      </trkpt>
      <trkpt lat="45.84699" lon="4.77572">
        <ele>607.23224</ele>
        <time>2023-06-29T15:47:26.000Z</time>
      </trkpt>
      <trkpt lat="45.84696" lon="4.77569">
        <ele>607.2489</ele>
        <time>2023-06-29T15:47:27.000Z</time>
      </trkpt>
      <trkpt lat="45.84693" lon="4.77566">
        <ele>607.14178</ele>
        <time>2023-06-29T15:47:28.000Z</time>
      </trkpt>
      <trkpt lat="45.8469" lon="4.77565">
        <ele>607.09479</ele>
        <time>2023-06-29T15:47:29.000Z</time>
      </trkpt>
      <trkpt lat="45.84687" lon="4.77563">
        <ele>606.95844</ele>
        <time>2023-06-29T15:47:30.000Z</time>
      </trkpt>
      <trkpt lat="45.84684" lon="4.77562">
        <ele>606.77173</ele>
        <time>2023-06-29T15:47:31.000Z</time>
      </trkpt>
      <trkpt lat="45.84681" lon="4.77561">
        <ele>606.59729</ele>
        <time>2023-06-29T15:47:32.000Z</time>
      </trkpt>
      <trkpt lat="45.84677" lon="4.7756">
        <ele>606.51208</ele>
        <time>2023-06-29T15:47:33.000Z</time>
      </trkpt>
      <trkpt lat="45.84673" lon="4.7756">
        <ele>606.40143</ele>
        <time>2023-06-29T15:47:34.000Z</time>
      </trkpt>
      <trkpt lat="45.84669" lon="4.7756">
        <ele>606.36505</ele>
        <time>2023-06-29T15:47:35.000Z</time>
      </trkpt>
      <trkpt lat="45.84665" lon="4.77558">
        <ele>606.29242</ele>
        <time>2023-06-29T15:47:36.000Z</time>
      </trkpt>
      <trkpt lat="45.8466" lon="4.77559">
        <ele>606.20868</ele>
        <time>2023-06-29T15:47:37.000Z</time>
      </trkpt>
      <trkpt lat="45.84655" lon="4.77558">
        <ele>606.12354</ele>
        <time>2023-06-29T15:47:38.000Z</time>
      </trkpt>
      <trkpt lat="45.84649" lon="4.77558">
        <ele>605.53015</ele>
        <time>2023-06-29T15:47:39.000Z</time>
      </trkpt>
      <trkpt lat="45.84643" lon="4.77559">
        <ele>605.19104</ele>
        <time>2023-06-29T15:47:40.000Z</time>
      </trkpt>
      <trkpt lat="45.84637" lon="4.7756">
        <ele>604.78174</ele>
        <time>2023-06-29T15:47:41.000Z</time>
      </trkpt>
      <trkpt lat="45.8463" lon="4.77561">
        <ele>604.27051</ele>
        <time>2023-06-29T15:47:42.000Z</time>
      </trkpt>
      <trkpt lat="45.84623" lon="4.77563">
        <ele>603.71729</ele>
        <time>2023-06-29T15:47:43.000Z</time>
      </trkpt>
      <trkpt lat="45.84617" lon="4.77565">
        <ele>603.29059</ele>
        <time>2023-06-29T15:47:44.000Z</time>
      </trkpt>
      <trkpt lat="45.8461" lon="4.77567">
        <ele>602.87805</ele>
        <time>2023-06-29T15:47:45.000Z</time>
      </trkpt>
      <trkpt lat="45.84603" lon="4.7757">
        <ele>602.34814</ele>
        <time>2023-06-29T15:47:46.000Z</time>
      </trkpt>
      <trkpt lat="45.84594" lon="4.77573">
        <ele>601.82489</ele>
        <time>2023-06-29T15:47:47.000Z</time>
      </trkpt>
      <trkpt lat="45.84587" lon="4.77577">
        <ele>601.14587</ele>
        <time>2023-06-29T15:47:48.000Z</time>
      </trkpt>
      <trkpt lat="45.8458" lon="4.7758">
        <ele>600.2392</ele>
        <time>2023-06-29T15:47:49.000Z</time>
      </trkpt>
      <trkpt lat="45.84572" lon="4.77584">
        <ele>599.33313</ele>
        <time>2023-06-29T15:47:50.000Z</time>
      </trkpt>
      <trkpt lat="45.84563" lon="4.77589">
        <ele>598.37946</ele>
        <time>2023-06-29T15:47:51.000Z</time>
      </trkpt>
      <trkpt lat="45.84555" lon="4.77592">
        <ele>597.46063</ele>
        <time>2023-06-29T15:47:52.000Z</time>
      </trkpt>
      <trkpt lat="45.84548" lon="4.77596">
        <ele>596.52698</ele>
        <time>2023-06-29T15:47:53.000Z</time>
      </trkpt>
      <trkpt lat="45.84541" lon="4.77601">
        <ele>595.57697</ele>
        <time>2023-06-29T15:47:54.000Z</time>
      </trkpt>
      <trkpt lat="45.84536" lon="4.77606">
        <ele>594.42926</ele>
        <time>2023-06-29T15:47:55.000Z</time>
      </trkpt>
      <trkpt lat="45.8453" lon="4.7761">
        <ele>593.24622</ele>
        <time>2023-06-29T15:47:56.000Z</time>
      </trkpt>
      <trkpt lat="45.84524" lon="4.77612">
        <ele>592.05585</ele>
        <time>2023-06-29T15:47:57.000Z</time>
      </trkpt>
      <trkpt lat="45.84519" lon="4.77612">
        <ele>590.85706</ele>
        <time>2023-06-29T15:47:58.000Z</time>
      </trkpt>
      <trkpt lat="45.84515" lon="4.77614">
        <ele>590.20886</ele>
        <time>2023-06-29T15:47:59.000Z</time>
      </trkpt>
      <trkpt lat="45.8451" lon="4.77618">
        <ele>589.23492</ele>
        <time>2023-06-29T15:48:00.000Z</time>
      </trkpt>
      <trkpt lat="45.84505" lon="4.77621">
        <ele>588.23627</ele>
        <time>2023-06-29T15:48:01.000Z</time>
      </trkpt>
      <trkpt lat="45.84499" lon="4.77625">
        <ele>587.28516</ele>
        <time>2023-06-29T15:48:02.000Z</time>
      </trkpt>
      <trkpt lat="45.84492" lon="4.77627">
        <ele>586.20203</ele>
        <time>2023-06-29T15:48:03.000Z</time>
      </trkpt>
      <trkpt lat="45.84485" lon="4.77631">
        <ele>584.95837</ele>
        <time>2023-06-29T15:48:04.000Z</time>
      </trkpt>
      <trkpt lat="45.84479" lon="4.77634">
        <ele>583.94763</ele>
        <time>2023-06-29T15:48:05.000Z</time>
      </trkpt>
      <trkpt lat="45.84473" lon="4.77637">
        <ele>582.94775</ele>
        <time>2023-06-29T15:48:06.000Z</time>
      </trkpt>
      <trkpt lat="45.84469" lon="4.77638">
        <ele>581.9198</ele>
        <time>2023-06-29T15:48:07.000Z</time>
      </trkpt>
      <trkpt lat="45.84464" lon="4.77641">
        <ele>580.97101</ele>
        <time>2023-06-29T15:48:08.000Z</time>
      </trkpt>
      <trkpt lat="45.84458" lon="4.77643">
        <ele>580.21204</ele>
        <time>2023-06-29T15:48:09.000Z</time>
      </trkpt>
      <trkpt lat="45.84449" lon="4.77646">
        <ele>579.4342</ele>
        <time>2023-06-29T15:48:10.000Z</time>
      </trkpt>
      <trkpt lat="45.84442" lon="4.7765">
        <ele>579.02637</ele>
        <time>2023-06-29T15:48:11.000Z</time>
      </trkpt>
      <trkpt lat="45.84435" lon="4.77655">
        <ele>578.59064</ele>
        <time>2023-06-29T15:48:12.000Z</time>
      </trkpt>
      <trkpt lat="45.84429" lon="4.7766">
        <ele>578.1601</ele>
        <time>2023-06-29T15:48:13.000Z</time>
      </trkpt>
      <trkpt lat="45.84423" lon="4.77666">
        <ele>578.18091</ele>
        <time>2023-06-29T15:48:14.000Z</time>
      </trkpt>
      <trkpt lat="45.84415" lon="4.77671">
        <ele>578.25671</ele>
        <time>2023-06-29T15:48:15.000Z</time>
      </trkpt>
      <trkpt lat="45.84407" lon="4.77676">
        <ele>578.39111</ele>
        <time>2023-06-29T15:48:16.000Z</time>
      </trkpt>
      <trkpt lat="45.84399" lon="4.77681">
        <ele>578.46313</ele>
        <time>2023-06-29T15:48:17.000Z</time>
      </trkpt>
      <trkpt lat="45.84393" lon="4.77685">
        <ele>578.49237</ele>
        <time>2023-06-29T15:48:18.000Z</time>
      </trkpt>
      <trkpt lat="45.84387" lon="4.77688">
        <ele>578.48718</ele>
        <time>2023-06-29T15:48:19.000Z</time>
      </trkpt>
      <trkpt lat="45.84382" lon="4.77688">
        <ele>578.46521</ele>
        <time>2023-06-29T15:48:20.000Z</time>
      </trkpt>
      <trkpt lat="45.84378" lon="4.77689">
        <ele>578.48022</ele>
        <time>2023-06-29T15:48:21.000Z</time>
      </trkpt>
      <trkpt lat="45.84373" lon="4.77691">
        <ele>578.5036</ele>
        <time>2023-06-29T15:48:22.000Z</time>
      </trkpt>
      <trkpt lat="45.8437" lon="4.77693">
        <ele>578.70007</ele>
        <time>2023-06-29T15:48:23.000Z</time>
      </trkpt>
      <trkpt lat="45.84367" lon="4.77696">
        <ele>578.97723</ele>
        <time>2023-06-29T15:48:24.000Z</time>
      </trkpt>
      <trkpt lat="45.84364" lon="4.77696">
        <ele>579.02026</ele>
        <time>2023-06-29T15:48:25.000Z</time>
      </trkpt>
      <trkpt lat="45.84361" lon="4.77698">
        <ele>579.15399</ele>
        <time>2023-06-29T15:48:26.000Z</time>
      </trkpt>
      <trkpt lat="45.84358" lon="4.77703">
        <ele>579.19843</ele>
        <time>2023-06-29T15:48:27.000Z</time>
      </trkpt>
      <trkpt lat="45.84354" lon="4.77706">
        <ele>579.37274</ele>
        <time>2023-06-29T15:48:28.000Z</time>
      </trkpt>
      <trkpt lat="45.84349" lon="4.77709">
        <ele>579.57318</ele>
        <time>2023-06-29T15:48:29.000Z</time>
      </trkpt>
      <trkpt lat="45.84343" lon="4.7771">
        <ele>579.67017</ele>
        <time>2023-06-29T15:48:30.000Z</time>
      </trkpt>
      <trkpt lat="45.84337" lon="4.77711">
        <ele>579.35809</ele>
        <time>2023-06-29T15:48:31.000Z</time>
      </trkpt>
      <trkpt lat="45.84332" lon="4.77712">
        <ele>579.04993</ele>
        <time>2023-06-29T15:48:32.000Z</time>
      </trkpt>
      <trkpt lat="45.84327" lon="4.77711">
        <ele>578.58105</ele>
        <time>2023-06-29T15:48:33.000Z</time>
      </trkpt>
      <trkpt lat="45.84322" lon="4.77714">
        <ele>577.62366</ele>
        <time>2023-06-29T15:48:34.000Z</time>
      </trkpt>
      <trkpt lat="45.84317" lon="4.77716">
        <ele>576.72778</ele>
        <time>2023-06-29T15:48:35.000Z</time>
      </trkpt>
      <trkpt lat="45.84312" lon="4.77719">
        <ele>575.67169</ele>
        <time>2023-06-29T15:48:36.000Z</time>
      </trkpt>
      <trkpt lat="45.84306" lon="4.77721">
        <ele>575.34125</ele>
        <time>2023-06-29T15:48:37.000Z</time>
      </trkpt>
      <trkpt lat="45.84301" lon="4.77724">
        <ele>575.04065</ele>
        <time>2023-06-29T15:48:38.000Z</time>
      </trkpt>
      <trkpt lat="45.84296" lon="4.77727">
        <ele>574.75586</ele>
        <time>2023-06-29T15:48:39.000Z</time>
      </trkpt>
      <trkpt lat="45.8429" lon="4.77728">
        <ele>574.54779</ele>
        <time>2023-06-29T15:48:40.000Z</time>
      </trkpt>
      <trkpt lat="45.84284" lon="4.77728">
        <ele>574.35223</ele>
        <time>2023-06-29T15:48:41.000Z</time>
      </trkpt>
      <trkpt lat="45.84277" lon="4.77731">
        <ele>574.01367</ele>
        <time>2023-06-29T15:48:42.000Z</time>
      </trkpt>
      <trkpt lat="45.8427" lon="4.77731">
        <ele>573.6756</ele>
        <time>2023-06-29T15:48:43.000Z</time>
      </trkpt>
      <trkpt lat="45.84265" lon="4.77732">
        <ele>573.29578</ele>
        <time>2023-06-29T15:48:44.000Z</time>
      </trkpt>
      <trkpt lat="45.84261" lon="4.77733">
        <ele>572.89069</ele>
        <time>2023-06-29T15:48:45.000Z</time>
      </trkpt>
      <trkpt lat="45.84255" lon="4.77734">
        <ele>572.49695</ele>
        <time>2023-06-29T15:48:46.000Z</time>
      </trkpt>
      <trkpt lat="45.84251" lon="4.77737">
        <ele>572.20319</ele>
        <time>2023-06-29T15:48:47.000Z</time>
      </trkpt>
      <trkpt lat="45.84248" lon="4.77741">
        <ele>571.90521</ele>
        <time>2023-06-29T15:48:48.000Z</time>
      </trkpt>
      <trkpt lat="45.84244" lon="4.77745">
        <ele>570.26416</ele>
        <time>2023-06-29T15:48:49.000Z</time>
      </trkpt>
      <trkpt lat="45.84242" lon="4.77747">
        <ele>570.02844</ele>
        <time>2023-06-29T15:48:50.000Z</time>
      </trkpt>
      <trkpt lat="45.84237" lon="4.77748">
        <ele>568.49359</ele>
        <time>2023-06-29T15:48:51.000Z</time>
      </trkpt>
      <trkpt lat="45.84233" lon="4.7775">
        <ele>566.94354</ele>
        <time>2023-06-29T15:48:52.000Z</time>
      </trkpt>
      <trkpt lat="45.84229" lon="4.77751">
        <ele>565.54724</ele>
        <time>2023-06-29T15:48:53.000Z</time>
      </trkpt>
      <trkpt lat="45.84223" lon="4.77752">
        <ele>564.15564</ele>
        <time>2023-06-29T15:48:54.000Z</time>
      </trkpt>
      <trkpt lat="45.84217" lon="4.7775">
        <ele>564.06848</ele>
        <time>2023-06-29T15:48:55.000Z</time>
      </trkpt>
      <trkpt lat="45.8421" lon="4.77751">
        <ele>564.14197</ele>
        <time>2023-06-29T15:48:56.000Z</time>
      </trkpt>
      <trkpt lat="45.84204" lon="4.77751">
        <ele>563.56549</ele>
        <time>2023-06-29T15:48:57.000Z</time>
      </trkpt>
      <trkpt lat="45.84197" lon="4.77752">
        <ele>562.97668</ele>
        <time>2023-06-29T15:48:58.000Z</time>
      </trkpt>
      <trkpt lat="45.8419" lon="4.77753">
        <ele>562.37347</ele>
        <time>2023-06-29T15:48:59.000Z</time>
      </trkpt>
      <trkpt lat="45.84184" lon="4.77753">
        <ele>560.00085</ele>
        <time>2023-06-29T15:49:00.000Z</time>
      </trkpt>
      <trkpt lat="45.84178" lon="4.77757">
        <ele>559.27356</ele>
        <time>2023-06-29T15:49:01.000Z</time>
      </trkpt>
      <trkpt lat="45.84171" lon="4.77761">
        <ele>558.67737</ele>
        <time>2023-06-29T15:49:02.000Z</time>
      </trkpt>
      <trkpt lat="45.84165" lon="4.7776">
        <ele>558.06396</ele>
        <time>2023-06-29T15:49:03.000Z</time>
      </trkpt>
      <trkpt lat="45.8416" lon="4.77761">
        <ele>555.92517</ele>
        <time>2023-06-29T15:49:04.000Z</time>
      </trkpt>
      <trkpt lat="45.84154" lon="4.77765">
        <ele>553.8147</ele>
        <time>2023-06-29T15:49:05.000Z</time>
      </trkpt>
      <trkpt lat="45.84152" lon="4.77767">
        <ele>551.67291</ele>
        <time>2023-06-29T15:49:06.000Z</time>
      </trkpt>
      <trkpt lat="45.84147" lon="4.7777">
        <ele>549.56506</ele>
        <time>2023-06-29T15:49:07.000Z</time>
      </trkpt>
      <trkpt lat="45.84142" lon="4.77774">
        <ele>547.3631</ele>
        <time>2023-06-29T15:49:08.000Z</time>
      </trkpt>
      <trkpt lat="45.84138" lon="4.77776">
        <ele>546.41272</ele>
        <time>2023-06-29T15:49:09.000Z</time>
      </trkpt>
      <trkpt lat="45.84134" lon="4.77778">
        <ele>544.22595</ele>
        <time>2023-06-29T15:49:10.000Z</time>
      </trkpt>
      <trkpt lat="45.84132" lon="4.77779">
        <ele>543.46765</ele>
        <time>2023-06-29T15:49:11.000Z</time>
      </trkpt>
      <trkpt lat="45.84129" lon="4.7778">
        <ele>542.67554</ele>
        <time>2023-06-29T15:49:12.000Z</time>
      </trkpt>
      <trkpt lat="45.84126" lon="4.77779">
        <ele>541.85345</ele>
        <time>2023-06-29T15:49:13.000Z</time>
      </trkpt>
      <trkpt lat="45.84121" lon="4.77778">
        <ele>541.04309</ele>
        <time>2023-06-29T15:49:14.000Z</time>
      </trkpt>
      <trkpt lat="45.84116" lon="4.77779">
        <ele>539.06146</ele>
        <time>2023-06-29T15:49:15.000Z</time>
      </trkpt>
      <trkpt lat="45.84111" lon="4.77778">
        <ele>537.10803</ele>
        <time>2023-06-29T15:49:16.000Z</time>
      </trkpt>
      <trkpt lat="45.84106" lon="4.77778">
        <ele>535.10828</ele>
        <time>2023-06-29T15:49:17.000Z</time>
      </trkpt>
      <trkpt lat="45.84102" lon="4.77776">
        <ele>533.11115</ele>
        <time>2023-06-29T15:49:18.000Z</time>
      </trkpt>
      <trkpt lat="45.84097" lon="4.77777">
        <ele>531.06702</ele>
        <time>2023-06-29T15:49:19.000Z</time>
      </trkpt>
      <trkpt lat="45.84095" lon="4.77776">
        <ele>530.82684</ele>
        <time>2023-06-29T15:49:20.000Z</time>
      </trkpt>
      <trkpt lat="45.84092" lon="4.77777">
        <ele>528.93927</ele>
        <time>2023-06-29T15:49:21.000Z</time>
      </trkpt>
      <trkpt lat="45.84089" lon="4.77778">
        <ele>527.07288</ele>
        <time>2023-06-29T15:49:22.000Z</time>
      </trkpt>
      <trkpt lat="45.84085" lon="4.77777">
        <ele>525.26532</ele>
        <time>2023-06-29T15:49:23.000Z</time>
      </trkpt>
      <trkpt lat="45.84082" lon="4.77777">
        <ele>524.9765</ele>
        <time>2023-06-29T15:49:24.000Z</time>
      </trkpt>
      <trkpt lat="45.84078" lon="4.77776">
        <ele>524.63837</ele>
        <time>2023-06-29T15:49:25.000Z</time>
      </trkpt>
      <trkpt lat="45.84076" lon="4.77775">
        <ele>524.2962</ele>
        <time>2023-06-29T15:49:27.000Z</time>
      </trkpt>
      <trkpt lat="45.84074" lon="4.77772">
        <ele>523.89948</ele>
        <time>2023-06-29T15:49:34.000Z</time>
      </trkpt>
      <trkpt lat="45.8407" lon="4.77771">
        <ele>523.4729</ele>
        <time>2023-06-29T15:49:36.000Z</time>
      </trkpt>
      <trkpt lat="45.84069" lon="4.77773">
        <ele>523.09357</ele>
        <time>2023-06-29T15:49:37.000Z</time>
      </trkpt>
      <trkpt lat="45.84067" lon="4.77775">
        <ele>522.65106</ele>
        <time>2023-06-29T15:49:38.000Z</time>
      </trkpt>
      <trkpt lat="45.84066" lon="4.77778">
        <ele>522.14148</ele>
        <time>2023-06-29T15:49:39.000Z</time>
      </trkpt>
      <trkpt lat="45.84065" lon="4.7778">
        <ele>521.68524</ele>
        <time>2023-06-29T15:49:40.000Z</time>
      </trkpt>
      <trkpt lat="45.84062" lon="4.77781">
        <ele>521.22522</ele>
        <time>2023-06-29T15:49:41.000Z</time>
      </trkpt>
      <trkpt lat="45.84059" lon="4.77782">
        <ele>520.76624</ele>
        <time>2023-06-29T15:49:42.000Z</time>
      </trkpt>
      <trkpt lat="45.84055" lon="4.77783">
        <ele>520.34827</ele>
        <time>2023-06-29T15:49:43.000Z</time>
      </trkpt>
      <trkpt lat="45.84052" lon="4.77785">
        <ele>519.80322</ele>
        <time>2023-06-29T15:49:44.000Z</time>
      </trkpt>
      <trkpt lat="45.84049" lon="4.77787">
        <ele>519.27545</ele>
        <time>2023-06-29T15:49:45.000Z</time>
      </trkpt>
      <trkpt lat="45.84047" lon="4.77788">
        <ele>518.7312</ele>
        <time>2023-06-29T15:49:46.000Z</time>
      </trkpt>
      <trkpt lat="45.84044" lon="4.77789">
        <ele>518.24939</ele>
        <time>2023-06-29T15:49:47.000Z</time>
      </trkpt>
      <trkpt lat="45.84041" lon="4.7779">
        <ele>517.7326</ele>
        <time>2023-06-29T15:49:48.000Z</time>
      </trkpt>
      <trkpt lat="45.84039" lon="4.77791">
        <ele>517.24829</ele>
        <time>2023-06-29T15:49:49.000Z</time>
      </trkpt>
      <trkpt lat="45.84036" lon="4.77793">
        <ele>516.73657</ele>
        <time>2023-06-29T15:49:51.000Z</time>
      </trkpt>
      <trkpt lat="45.84034" lon="4.77793">
        <ele>516.12598</ele>
        <time>2023-06-29T15:49:54.000Z</time>
      </trkpt>
      <trkpt lat="45.84032" lon="4.77793">
        <ele>515.71552</ele>
        <time>2023-06-29T15:50:36.000Z</time>
      </trkpt>
      <trkpt lat="45.84029" lon="4.77792">
        <ele>515.15564</ele>
        <time>2023-06-29T15:50:38.000Z</time>
      </trkpt>
      <trkpt lat="45.84026" lon="4.77791">
        <ele>514.61926</ele>
        <time>2023-06-29T15:50:39.000Z</time>
      </trkpt>
      <trkpt lat="45.84023" lon="4.77791">
        <ele>514.13696</ele>
        <time>2023-06-29T15:50:40.000Z</time>
      </trkpt>
      <trkpt lat="45.8402" lon="4.77791">
        <ele>513.70203</ele>
        <time>2023-06-29T15:50:41.000Z</time>
      </trkpt>
      <trkpt lat="45.84016" lon="4.77791">
        <ele>513.30975</ele>
        <time>2023-06-29T15:50:42.000Z</time>
      </trkpt>
      <trkpt lat="45.8401" lon="4.77791">
        <ele>512.93738</ele>
        <time>2023-06-29T15:50:43.000Z</time>
      </trkpt>
      <trkpt lat="45.84005" lon="4.77792">
        <ele>512.57056</ele>
        <time>2023-06-29T15:50:44.000Z</time>
      </trkpt>
      <trkpt lat="45.84" lon="4.77793">
        <ele>512.19836</ele>
        <time>2023-06-29T15:50:45.000Z</time>
      </trkpt>
      <trkpt lat="45.83996" lon="4.77795">
        <ele>511.88974</ele>
        <time>2023-06-29T15:50:46.000Z</time>
      </trkpt>
      <trkpt lat="45.83992" lon="4.77795">
        <ele>511.60678</ele>
        <time>2023-06-29T15:50:47.000Z</time>
      </trkpt>
      <trkpt lat="45.83988" lon="4.77795">
        <ele>511.22443</ele>
        <time>2023-06-29T15:50:48.000Z</time>
      </trkpt>
      <trkpt lat="45.83985" lon="4.77795">
        <ele>510.94073</ele>
        <time>2023-06-29T15:50:49.000Z</time>
      </trkpt>
      <trkpt lat="45.83981" lon="4.77795">
        <ele>510.68048</ele>
        <time>2023-06-29T15:50:50.000Z</time>
      </trkpt>
      <trkpt lat="45.83978" lon="4.77794">
        <ele>510.43506</ele>
        <time>2023-06-29T15:50:51.000Z</time>
      </trkpt>
      <trkpt lat="45.83973" lon="4.77793">
        <ele>510.19867</ele>
        <time>2023-06-29T15:50:52.000Z</time>
      </trkpt>
      <trkpt lat="45.83969" lon="4.77793">
        <ele>509.95514</ele>
        <time>2023-06-29T15:50:53.000Z</time>
      </trkpt>
      <trkpt lat="45.83963" lon="4.77792">
        <ele>509.677</ele>
        <time>2023-06-29T15:50:54.000Z</time>
      </trkpt>
      <trkpt lat="45.83958" lon="4.77793">
        <ele>509.42758</ele>
        <time>2023-06-29T15:50:55.000Z</time>
      </trkpt>
      <trkpt lat="45.83951" lon="4.77793">
        <ele>509.2204</ele>
        <time>2023-06-29T15:50:56.000Z</time>
      </trkpt>
      <trkpt lat="45.83945" lon="4.77794">
        <ele>508.79449</ele>
        <time>2023-06-29T15:50:57.000Z</time>
      </trkpt>
      <trkpt lat="45.83938" lon="4.77794">
        <ele>508.51825</ele>
        <time>2023-06-29T15:50:58.000Z</time>
      </trkpt>
      <trkpt lat="45.83931" lon="4.77794">
        <ele>508.24902</ele>
        <time>2023-06-29T15:50:59.000Z</time>
      </trkpt>
      <trkpt lat="45.83923" lon="4.77795">
        <ele>507.95111</ele>
        <time>2023-06-29T15:51:00.000Z</time>
      </trkpt>
      <trkpt lat="45.83915" lon="4.77794">
        <ele>507.62201</ele>
        <time>2023-06-29T15:51:01.000Z</time>
      </trkpt>
      <trkpt lat="45.83907" lon="4.77795">
        <ele>507.26871</ele>
        <time>2023-06-29T15:51:02.000Z</time>
      </trkpt>
      <trkpt lat="45.83898" lon="4.77795">
        <ele>506.91846</ele>
        <time>2023-06-29T15:51:03.000Z</time>
      </trkpt>
      <trkpt lat="45.83889" lon="4.77796">
        <ele>506.55762</ele>
        <time>2023-06-29T15:51:04.000Z</time>
      </trkpt>
      <trkpt lat="45.83879" lon="4.77796">
        <ele>506.20752</ele>
        <time>2023-06-29T15:51:05.000Z</time>
      </trkpt>
      <trkpt lat="45.8387" lon="4.77795">
        <ele>505.72241</ele>
        <time>2023-06-29T15:51:06.000Z</time>
      </trkpt>
      <trkpt lat="45.83859" lon="4.77791">
        <ele>505.29388</ele>
        <time>2023-06-29T15:51:07.000Z</time>
      </trkpt>
      <trkpt lat="45.8385" lon="4.77786">
        <ele>504.87988</ele>
        <time>2023-06-29T15:51:08.000Z</time>
      </trkpt>
      <trkpt lat="45.83841" lon="4.77778">
        <ele>504.48544</ele>
        <time>2023-06-29T15:51:09.000Z</time>
      </trkpt>
      <trkpt lat="45.83835" lon="4.77767">
        <ele>504.03802</ele>
        <time>2023-06-29T15:51:10.000Z</time>
      </trkpt>
      <trkpt lat="45.83829" lon="4.77756">
        <ele>503.58917</ele>
        <time>2023-06-29T15:51:11.000Z</time>
      </trkpt>
      <trkpt lat="45.83823" lon="4.77743">
        <ele>503.14609</ele>
        <time>2023-06-29T15:51:12.000Z</time>
      </trkpt>
      <trkpt lat="45.83817" lon="4.77728">
        <ele>502.65421</ele>
        <time>2023-06-29T15:51:13.000Z</time>
      </trkpt>
      <trkpt lat="45.83814" lon="4.77712">
        <ele>502.1524</ele>
        <time>2023-06-29T15:51:14.000Z</time>
      </trkpt>
      <trkpt lat="45.8381" lon="4.77696">
        <ele>501.64325</ele>
        <time>2023-06-29T15:51:15.000Z</time>
      </trkpt>
      <trkpt lat="45.83806" lon="4.7768">
        <ele>501.11603</ele>
        <time>2023-06-29T15:51:16.000Z</time>
      </trkpt>
      <trkpt lat="45.83803" lon="4.77664">
        <ele>500.56387</ele>
        <time>2023-06-29T15:51:17.000Z</time>
      </trkpt>
      <trkpt lat="45.83799" lon="4.77648">
        <ele>499.99658</ele>
        <time>2023-06-29T15:51:18.000Z</time>
      </trkpt>
      <trkpt lat="45.83794" lon="4.77633">
        <ele>499.49152</ele>
        <time>2023-06-29T15:51:19.000Z</time>
      </trkpt>
      <trkpt lat="45.83788" lon="4.77617">
        <ele>498.97919</ele>
        <time>2023-06-29T15:51:20.000Z</time>
      </trkpt>
      <trkpt lat="45.83784" lon="4.77602">
        <ele>498.47528</ele>
        <time>2023-06-29T15:51:21.000Z</time>
      </trkpt>
      <trkpt lat="45.8378" lon="4.77585">
        <ele>497.93399</ele>
        <time>2023-06-29T15:51:22.000Z</time>
      </trkpt>
      <trkpt lat="45.83777" lon="4.77568">
        <ele>497.3959</ele>
        <time>2023-06-29T15:51:23.000Z</time>
      </trkpt>
      <trkpt lat="45.83775" lon="4.77551">
        <ele>496.86777</ele>
        <time>2023-06-29T15:51:24.000Z</time>
      </trkpt>
      <trkpt lat="45.83774" lon="4.77534">
        <ele>496.30768</ele>
        <time>2023-06-29T15:51:25.000Z</time>
      </trkpt>
      <trkpt lat="45.83771" lon="4.77517">
        <ele>495.83096</ele>
        <time>2023-06-29T15:51:26.000Z</time>
      </trkpt>
      <trkpt lat="45.83765" lon="4.77501">
        <ele>495.29892</ele>
        <time>2023-06-29T15:51:27.000Z</time>
      </trkpt>
      <trkpt lat="45.83759" lon="4.77486">
        <ele>494.74969</ele>
        <time>2023-06-29T15:51:28.000Z</time>
      </trkpt>
      <trkpt lat="45.83756" lon="4.77471">
        <ele>494.17279</ele>
        <time>2023-06-29T15:51:29.000Z</time>
      </trkpt>
      <trkpt lat="45.83754" lon="4.77454">
        <ele>493.61801</ele>
        <time>2023-06-29T15:51:30.000Z</time>
      </trkpt>
      <trkpt lat="45.83756" lon="4.77438">
        <ele>493.07486</ele>
        <time>2023-06-29T15:51:31.000Z</time>
      </trkpt>
      <trkpt lat="45.83762" lon="4.77423">
        <ele>492.49677</ele>
        <time>2023-06-29T15:51:32.000Z</time>
      </trkpt>
      <trkpt lat="45.83768" lon="4.77411">
        <ele>491.96616</ele>
        <time>2023-06-29T15:51:33.000Z</time>
      </trkpt>
      <trkpt lat="45.83775" lon="4.77399">
        <ele>491.43341</ele>
        <time>2023-06-29T15:51:34.000Z</time>
      </trkpt>
      <trkpt lat="45.83783" lon="4.77388">
        <ele>490.90521</ele>
        <time>2023-06-29T15:51:35.000Z</time>
      </trkpt>
      <trkpt lat="45.83789" lon="4.77377">
        <ele>490.40274</ele>
        <time>2023-06-29T15:51:36.000Z</time>
      </trkpt>
      <trkpt lat="45.83797" lon="4.77368">
        <ele>489.9314</ele>
        <time>2023-06-29T15:51:37.000Z</time>
      </trkpt>
      <trkpt lat="45.83805" lon="4.7736">
        <ele>489.50385</ele>
        <time>2023-06-29T15:51:38.000Z</time>
      </trkpt>
      <trkpt lat="45.83811" lon="4.77352">
        <ele>488.99396</ele>
        <time>2023-06-29T15:51:39.000Z</time>
      </trkpt>
      <trkpt lat="45.83816" lon="4.77344">
        <ele>488.48969</ele>
        <time>2023-06-29T15:51:40.000Z</time>
      </trkpt>
      <trkpt lat="45.83818" lon="4.77334">
        <ele>488.00497</ele>
        <time>2023-06-29T15:51:41.000Z</time>
      </trkpt>
      <trkpt lat="45.83815" lon="4.77325">
        <ele>487.76349</ele>
        <time>2023-06-29T15:51:42.000Z</time>
      </trkpt>
      <trkpt lat="45.8381" lon="4.77318">
        <ele>487.52838</ele>
        <time>2023-06-29T15:51:43.000Z</time>
      </trkpt>
      <trkpt lat="45.83806" lon="4.77311">
        <ele>486.16144</ele>
        <time>2023-06-29T15:51:44.000Z</time>
      </trkpt>
      <trkpt lat="45.83801" lon="4.77302">
        <ele>484.65057</ele>
        <time>2023-06-29T15:51:45.000Z</time>
      </trkpt>
      <trkpt lat="45.83797" lon="4.77293">
        <ele>484.37119</ele>
        <time>2023-06-29T15:51:46.000Z</time>
      </trkpt>
      <trkpt lat="45.83792" lon="4.77284">
        <ele>484.10138</ele>
        <time>2023-06-29T15:51:47.000Z</time>
      </trkpt>
      <trkpt lat="45.83788" lon="4.77274">
        <ele>483.30923</ele>
        <time>2023-06-29T15:51:48.000Z</time>
      </trkpt>
      <trkpt lat="45.83784" lon="4.77263">
        <ele>483.20474</ele>
        <time>2023-06-29T15:51:49.000Z</time>
      </trkpt>
      <trkpt lat="45.8378" lon="4.77254">
        <ele>482.79694</ele>
        <time>2023-06-29T15:51:50.000Z</time>
      </trkpt>
      <trkpt lat="45.83777" lon="4.77245">
        <ele>482.36508</ele>
        <time>2023-06-29T15:51:51.000Z</time>
      </trkpt>
      <trkpt lat="45.83774" lon="4.77236">
        <ele>481.93146</ele>
        <time>2023-06-29T15:51:52.000Z</time>
      </trkpt>
      <trkpt lat="45.83772" lon="4.77226">
        <ele>481.49033</ele>
        <time>2023-06-29T15:51:53.000Z</time>
      </trkpt>
      <trkpt lat="45.83771" lon="4.77217">
        <ele>481.02686</ele>
        <time>2023-06-29T15:51:54.000Z</time>
      </trkpt>
      <trkpt lat="45.8377" lon="4.77208">
        <ele>480.55698</ele>
        <time>2023-06-29T15:51:55.000Z</time>
      </trkpt>
      <trkpt lat="45.83769" lon="4.772">
        <ele>480.07135</ele>
        <time>2023-06-29T15:51:56.000Z</time>
      </trkpt>
      <trkpt lat="45.83769" lon="4.77194">
        <ele>479.59457</ele>
        <time>2023-06-29T15:51:57.000Z</time>
      </trkpt>
      <trkpt lat="45.8377" lon="4.77187">
        <ele>479.12256</ele>
        <time>2023-06-29T15:51:58.000Z</time>
      </trkpt>
      <trkpt lat="45.83773" lon="4.77181">
        <ele>478.64395</ele>
        <time>2023-06-29T15:51:59.000Z</time>
      </trkpt>
      <trkpt lat="45.83774" lon="4.77174">
        <ele>478.16852</ele>
        <time>2023-06-29T15:52:00.000Z</time>
      </trkpt>
      <trkpt lat="45.83771" lon="4.7717">
        <ele>477.67075</ele>
        <time>2023-06-29T15:52:01.000Z</time>
      </trkpt>
      <trkpt lat="45.83767" lon="4.77169">
        <ele>477.15323</ele>
        <time>2023-06-29T15:52:02.000Z</time>
      </trkpt>
      <trkpt lat="45.83763" lon="4.77165">
        <ele>476.63144</ele>
        <time>2023-06-29T15:52:03.000Z</time>
      </trkpt>
      <trkpt lat="45.83761" lon="4.77161">
        <ele>477.22885</ele>
        <time>2023-06-29T15:52:04.000Z</time>
      </trkpt>
      <trkpt lat="45.8376" lon="4.77152">
        <ele>478.03882</ele>
        <time>2023-06-29T15:52:05.000Z</time>
      </trkpt>
      <trkpt lat="45.8376" lon="4.77144">
        <ele>478.46759</ele>
        <time>2023-06-29T15:52:06.000Z</time>
      </trkpt>
      <trkpt lat="45.8376" lon="4.77134">
        <ele>479.09955</ele>
        <time>2023-06-29T15:52:07.000Z</time>
      </trkpt>
      <trkpt lat="45.8376" lon="4.77123">
        <ele>480.25275</ele>
        <time>2023-06-29T15:52:08.000Z</time>
      </trkpt>
      <trkpt lat="45.8376" lon="4.77109">
        <ele>480.69061</ele>
        <time>2023-06-29T15:52:09.000Z</time>
      </trkpt>
      <trkpt lat="45.83761" lon="4.77097">
        <ele>481.43597</ele>
        <time>2023-06-29T15:52:10.000Z</time>
      </trkpt>
      <trkpt lat="45.83758" lon="4.77083">
        <ele>482.16977</ele>
        <time>2023-06-29T15:52:11.000Z</time>
      </trkpt>
      <trkpt lat="45.83755" lon="4.77069">
        <ele>482.90469</ele>
        <time>2023-06-29T15:52:12.000Z</time>
      </trkpt>
      <trkpt lat="45.83753" lon="4.77056">
        <ele>483.60605</ele>
        <time>2023-06-29T15:52:13.000Z</time>
      </trkpt>
      <trkpt lat="45.83751" lon="4.77044">
        <ele>483.06488</ele>
        <time>2023-06-29T15:52:14.000Z</time>
      </trkpt>
      <trkpt lat="45.83749" lon="4.77035">
        <ele>482.5184</ele>
        <time>2023-06-29T15:52:15.000Z</time>
      </trkpt>
      <trkpt lat="45.83746" lon="4.77028">
        <ele>481.97638</ele>
        <time>2023-06-29T15:52:16.000Z</time>
      </trkpt>
      <trkpt lat="45.83744" lon="4.77019">
        <ele>481.65292</ele>
        <time>2023-06-29T15:52:17.000Z</time>
      </trkpt>
      <trkpt lat="45.83741" lon="4.77011">
        <ele>481.30377</ele>
        <time>2023-06-29T15:52:18.000Z</time>
      </trkpt>
      <trkpt lat="45.83738" lon="4.77003">
        <ele>480.95859</ele>
        <time>2023-06-29T15:52:19.000Z</time>
      </trkpt>
      <trkpt lat="45.83734" lon="4.76993">
        <ele>480.60635</ele>
        <time>2023-06-29T15:52:20.000Z</time>
      </trkpt>
      <trkpt lat="45.8373" lon="4.76983">
        <ele>480.25772</ele>
        <time>2023-06-29T15:52:21.000Z</time>
      </trkpt>
      <trkpt lat="45.83726" lon="4.76972">
        <ele>479.7316</ele>
        <time>2023-06-29T15:52:22.000Z</time>
      </trkpt>
      <trkpt lat="45.83723" lon="4.76962">
        <ele>479.19171</ele>
        <time>2023-06-29T15:52:23.000Z</time>
      </trkpt>
      <trkpt lat="45.83718" lon="4.76951">
        <ele>478.66144</ele>
        <time>2023-06-29T15:52:24.000Z</time>
      </trkpt>
      <trkpt lat="45.83714" lon="4.76941">
        <ele>478.11118</ele>
        <time>2023-06-29T15:52:25.000Z</time>
      </trkpt>
      <trkpt lat="45.8371" lon="4.7693">
        <ele>476.75204</ele>
        <time>2023-06-29T15:52:26.000Z</time>
      </trkpt>
      <trkpt lat="45.83705" lon="4.7692">
        <ele>475.14487</ele>
        <time>2023-06-29T15:52:27.000Z</time>
      </trkpt>
      <trkpt lat="45.837" lon="4.76909">
        <ele>473.54321</ele>
        <time>2023-06-29T15:52:28.000Z</time>
      </trkpt>
      <trkpt lat="45.83696" lon="4.76898">
        <ele>471.965</ele>
        <time>2023-06-29T15:52:29.000Z</time>
      </trkpt>
      <trkpt lat="45.83692" lon="4.76886">
        <ele>470.40234</ele>
        <time>2023-06-29T15:52:30.000Z</time>
      </trkpt>
      <trkpt lat="45.83687" lon="4.76875">
        <ele>468.88419</ele>
        <time>2023-06-29T15:52:31.000Z</time>
      </trkpt>
      <trkpt lat="45.83683" lon="4.76864">
        <ele>467.38892</ele>
        <time>2023-06-29T15:52:32.000Z</time>
      </trkpt>
      <trkpt lat="45.83678" lon="4.76852">
        <ele>465.92978</ele>
        <time>2023-06-29T15:52:33.000Z</time>
      </trkpt>
      <trkpt lat="45.83673" lon="4.76841">
        <ele>465.77155</ele>
        <time>2023-06-29T15:52:34.000Z</time>
      </trkpt>
      <trkpt lat="45.83668" lon="4.7683">
        <ele>465.80463</ele>
        <time>2023-06-29T15:52:35.000Z</time>
      </trkpt>
      <trkpt lat="45.83663" lon="4.76818">
        <ele>465.26733</ele>
        <time>2023-06-29T15:52:36.000Z</time>
      </trkpt>
      <trkpt lat="45.83658" lon="4.76806">
        <ele>464.60733</ele>
        <time>2023-06-29T15:52:37.000Z</time>
      </trkpt>
      <trkpt lat="45.83654" lon="4.76795">
        <ele>463.97446</ele>
        <time>2023-06-29T15:52:38.000Z</time>
      </trkpt>
      <trkpt lat="45.83649" lon="4.76783">
        <ele>463.34424</ele>
        <time>2023-06-29T15:52:39.000Z</time>
      </trkpt>
      <trkpt lat="45.83644" lon="4.76772">
        <ele>462.72308</ele>
        <time>2023-06-29T15:52:40.000Z</time>
      </trkpt>
      <trkpt lat="45.83639" lon="4.76762">
        <ele>462.09961</ele>
        <time>2023-06-29T15:52:41.000Z</time>
      </trkpt>
      <trkpt lat="45.83632" lon="4.76753">
        <ele>461.49878</ele>
        <time>2023-06-29T15:52:42.000Z</time>
      </trkpt>
      <trkpt lat="45.83625" lon="4.76744">
        <ele>460.90656</ele>
        <time>2023-06-29T15:52:43.000Z</time>
      </trkpt>
      <trkpt lat="45.83617" lon="4.76738">
        <ele>460.32465</ele>
        <time>2023-06-29T15:52:44.000Z</time>
      </trkpt>
      <trkpt lat="45.83609" lon="4.76733">
        <ele>459.733</ele>
        <time>2023-06-29T15:52:45.000Z</time>
      </trkpt>
      <trkpt lat="45.836" lon="4.76728">
        <ele>459.13028</ele>
        <time>2023-06-29T15:52:46.000Z</time>
      </trkpt>
      <trkpt lat="45.83592" lon="4.76725">
        <ele>458.55292</ele>
        <time>2023-06-29T15:52:47.000Z</time>
      </trkpt>
      <trkpt lat="45.83583" lon="4.76721">
        <ele>457.98843</ele>
        <time>2023-06-29T15:52:48.000Z</time>
      </trkpt>
      <trkpt lat="45.83574" lon="4.76715">
        <ele>457.41226</ele>
        <time>2023-06-29T15:52:49.000Z</time>
      </trkpt>
      <trkpt lat="45.83566" lon="4.7671">
        <ele>456.83221</ele>
        <time>2023-06-29T15:52:50.000Z</time>
      </trkpt>
      <trkpt lat="45.83557" lon="4.76704">
        <ele>456.25284</ele>
        <time>2023-06-29T15:52:51.000Z</time>
      </trkpt>
      <trkpt lat="45.8355" lon="4.76695">
        <ele>455.70313</ele>
        <time>2023-06-29T15:52:52.000Z</time>
      </trkpt>
      <trkpt lat="45.83542" lon="4.76685">
        <ele>455.16681</ele>
        <time>2023-06-29T15:52:53.000Z</time>
      </trkpt>
      <trkpt lat="45.83534" lon="4.76675">
        <ele>454.60995</ele>
        <time>2023-06-29T15:52:54.000Z</time>
      </trkpt>
      <trkpt lat="45.83528" lon="4.76665">
        <ele>453.8692</ele>
        <time>2023-06-29T15:52:55.000Z</time>
      </trkpt>
      <trkpt lat="45.83522" lon="4.76654">
        <ele>453.70419</ele>
        <time>2023-06-29T15:52:56.000Z</time>
      </trkpt>
      <trkpt lat="45.83518" lon="4.76641">
        <ele>453.4505</ele>
        <time>2023-06-29T15:52:57.000Z</time>
      </trkpt>
      <trkpt lat="45.83514" lon="4.76627">
        <ele>453.14389</ele>
        <time>2023-06-29T15:52:58.000Z</time>
      </trkpt>
      <trkpt lat="45.83509" lon="4.76612">
        <ele>452.81122</ele>
        <time>2023-06-29T15:52:59.000Z</time>
      </trkpt>
      <trkpt lat="45.83503" lon="4.76599">
        <ele>452.4502</ele>
        <time>2023-06-29T15:53:00.000Z</time>
      </trkpt>
      <trkpt lat="45.83498" lon="4.76585">
        <ele>451.31592</ele>
        <time>2023-06-29T15:53:01.000Z</time>
      </trkpt>
      <trkpt lat="45.83489" lon="4.76574">
        <ele>450.14462</ele>
        <time>2023-06-29T15:53:02.000Z</time>
      </trkpt>
      <trkpt lat="45.8348" lon="4.76563">
        <ele>449.28745</ele>
        <time>2023-06-29T15:53:03.000Z</time>
      </trkpt>
      <trkpt lat="45.83471" lon="4.76553">
        <ele>448.83331</ele>
        <time>2023-06-29T15:53:04.000Z</time>
      </trkpt>
      <trkpt lat="45.83462" lon="4.76543">
        <ele>448.36719</ele>
        <time>2023-06-29T15:53:05.000Z</time>
      </trkpt>
      <trkpt lat="45.83456" lon="4.7653">
        <ele>447.92383</ele>
        <time>2023-06-29T15:53:06.000Z</time>
      </trkpt>
      <trkpt lat="45.8345" lon="4.76516">
        <ele>447.49155</ele>
        <time>2023-06-29T15:53:07.000Z</time>
      </trkpt>
      <trkpt lat="45.83445" lon="4.76503">
        <ele>447.04077</ele>
        <time>2023-06-29T15:53:08.000Z</time>
      </trkpt>
      <trkpt lat="45.83442" lon="4.76489">
        <ele>446.60489</ele>
        <time>2023-06-29T15:53:09.000Z</time>
      </trkpt>
      <trkpt lat="45.8344" lon="4.76474">
        <ele>446.18256</ele>
        <time>2023-06-29T15:53:10.000Z</time>
      </trkpt>
      <trkpt lat="45.83438" lon="4.76461">
        <ele>445.82135</ele>
        <time>2023-06-29T15:53:11.000Z</time>
      </trkpt>
      <trkpt lat="45.83438" lon="4.76449">
        <ele>445.46841</ele>
        <time>2023-06-29T15:53:12.000Z</time>
      </trkpt>
      <trkpt lat="45.83437" lon="4.76438">
        <ele>445.13202</ele>
        <time>2023-06-29T15:53:13.000Z</time>
      </trkpt>
      <trkpt lat="45.83437" lon="4.76428">
        <ele>444.79193</ele>
        <time>2023-06-29T15:53:14.000Z</time>
      </trkpt>
      <trkpt lat="45.83436" lon="4.76418">
        <ele>444.47559</ele>
        <time>2023-06-29T15:53:15.000Z</time>
      </trkpt>
      <trkpt lat="45.83436" lon="4.76409">
        <ele>444.20282</ele>
        <time>2023-06-29T15:53:16.000Z</time>
      </trkpt>
      <trkpt lat="45.83436" lon="4.764">
        <ele>443.92853</ele>
        <time>2023-06-29T15:53:17.000Z</time>
      </trkpt>
      <trkpt lat="45.83435" lon="4.76391">
        <ele>443.7226</ele>
        <time>2023-06-29T15:53:18.000Z</time>
      </trkpt>
      <trkpt lat="45.83434" lon="4.76383">
        <ele>443.52286</ele>
        <time>2023-06-29T15:53:19.000Z</time>
      </trkpt>
      <trkpt lat="45.83433" lon="4.76375">
        <ele>443.38409</ele>
        <time>2023-06-29T15:53:20.000Z</time>
      </trkpt>
      <trkpt lat="45.83432" lon="4.76367">
        <ele>444.03241</ele>
        <time>2023-06-29T15:53:21.000Z</time>
      </trkpt>
      <trkpt lat="45.8343" lon="4.76359">
        <ele>444.71631</ele>
        <time>2023-06-29T15:53:22.000Z</time>
      </trkpt>
      <trkpt lat="45.83428" lon="4.76353">
        <ele>445.08139</ele>
        <time>2023-06-29T15:53:23.000Z</time>
      </trkpt>
      <trkpt lat="45.83424" lon="4.76348">
        <ele>445.06085</ele>
        <time>2023-06-29T15:53:24.000Z</time>
      </trkpt>
      <trkpt lat="45.8342" lon="4.76343">
        <ele>445.04239</ele>
        <time>2023-06-29T15:53:25.000Z</time>
      </trkpt>
      <trkpt lat="45.83416" lon="4.7634">
        <ele>445.01343</ele>
        <time>2023-06-29T15:53:26.000Z</time>
      </trkpt>
      <trkpt lat="45.83411" lon="4.76338">
        <ele>445.00064</ele>
        <time>2023-06-29T15:53:27.000Z</time>
      </trkpt>
      <trkpt lat="45.83406" lon="4.76336">
        <ele>444.98306</ele>
        <time>2023-06-29T15:53:28.000Z</time>
      </trkpt>
      <trkpt lat="45.83401" lon="4.76336">
        <ele>444.95856</ele>
        <time>2023-06-29T15:53:29.000Z</time>
      </trkpt>
      <trkpt lat="45.83396" lon="4.76335">
        <ele>444.90509</ele>
        <time>2023-06-29T15:53:30.000Z</time>
      </trkpt>
      <trkpt lat="45.8339" lon="4.76333">
        <ele>444.77618</ele>
        <time>2023-06-29T15:53:31.000Z</time>
      </trkpt>
      <trkpt lat="45.83386" lon="4.76333">
        <ele>444.59634</ele>
        <time>2023-06-29T15:53:32.000Z</time>
      </trkpt>
      <trkpt lat="45.8338" lon="4.76335">
        <ele>444.41339</ele>
        <time>2023-06-29T15:53:33.000Z</time>
      </trkpt>
      <trkpt lat="45.83374" lon="4.76335">
        <ele>444.22394</ele>
        <time>2023-06-29T15:53:34.000Z</time>
      </trkpt>
      <trkpt lat="45.83368" lon="4.76337">
        <ele>444.37482</ele>
        <time>2023-06-29T15:53:35.000Z</time>
      </trkpt>
      <trkpt lat="45.83361" lon="4.7634">
        <ele>444.51483</ele>
        <time>2023-06-29T15:53:36.000Z</time>
      </trkpt>
      <trkpt lat="45.83355" lon="4.76342">
        <ele>444.64761</ele>
        <time>2023-06-29T15:53:37.000Z</time>
      </trkpt>
      <trkpt lat="45.83349" lon="4.76346">
        <ele>445.00293</ele>
        <time>2023-06-29T15:53:38.000Z</time>
      </trkpt>
      <trkpt lat="45.83343" lon="4.76351">
        <ele>444.62369</ele>
        <time>2023-06-29T15:53:39.000Z</time>
      </trkpt>
      <trkpt lat="45.83337" lon="4.76356">
        <ele>443.91351</ele>
        <time>2023-06-29T15:53:40.000Z</time>
      </trkpt>
      <trkpt lat="45.83329" lon="4.76361">
        <ele>443.21011</ele>
        <time>2023-06-29T15:53:41.000Z</time>
      </trkpt>
      <trkpt lat="45.83322" lon="4.76366">
        <ele>442.9267</ele>
        <time>2023-06-29T15:53:42.000Z</time>
      </trkpt>
      <trkpt lat="45.83314" lon="4.7637">
        <ele>442.63101</ele>
        <time>2023-06-29T15:53:43.000Z</time>
      </trkpt>
      <trkpt lat="45.83306" lon="4.76372">
        <ele>442.29321</ele>
        <time>2023-06-29T15:53:44.000Z</time>
      </trkpt>
      <trkpt lat="45.83297" lon="4.76371">
        <ele>441.85757</ele>
        <time>2023-06-29T15:53:45.000Z</time>
      </trkpt>
      <trkpt lat="45.83289" lon="4.76365">
        <ele>441.49518</ele>
        <time>2023-06-29T15:53:46.000Z</time>
      </trkpt>
      <trkpt lat="45.83285" lon="4.7636">
        <ele>441.12543</ele>
        <time>2023-06-29T15:53:47.000Z</time>
      </trkpt>
      <trkpt lat="45.83282" lon="4.76353">
        <ele>440.76031</ele>
        <time>2023-06-29T15:53:48.000Z</time>
      </trkpt>
      <trkpt lat="45.83281" lon="4.76345">
        <ele>440.39087</ele>
        <time>2023-06-29T15:53:49.000Z</time>
      </trkpt>
      <trkpt lat="45.83281" lon="4.76335">
        <ele>440.02814</ele>
        <time>2023-06-29T15:53:50.000Z</time>
      </trkpt>
      <trkpt lat="45.8328" lon="4.76323">
        <ele>439.66901</ele>
        <time>2023-06-29T15:53:51.000Z</time>
      </trkpt>
      <trkpt lat="45.83279" lon="4.76311">
        <ele>439.56357</ele>
        <time>2023-06-29T15:53:52.000Z</time>
      </trkpt>
      <trkpt lat="45.83279" lon="4.76298">
        <ele>438.72394</ele>
        <time>2023-06-29T15:53:53.000Z</time>
      </trkpt>
      <trkpt lat="45.83278" lon="4.76285">
        <ele>437.86981</ele>
        <time>2023-06-29T15:53:54.000Z</time>
      </trkpt>
      <trkpt lat="45.83277" lon="4.76273">
        <ele>436.65952</ele>
        <time>2023-06-29T15:53:55.000Z</time>
      </trkpt>
      <trkpt lat="45.83276" lon="4.76259">
        <ele>435.68866</ele>
        <time>2023-06-29T15:53:56.000Z</time>
      </trkpt>
      <trkpt lat="45.83276" lon="4.76246">
        <ele>434.70117</ele>
        <time>2023-06-29T15:53:57.000Z</time>
      </trkpt>
      <trkpt lat="45.83276" lon="4.76233">
        <ele>433.99951</ele>
        <time>2023-06-29T15:53:58.000Z</time>
      </trkpt>
      <trkpt lat="45.83275" lon="4.7622">
        <ele>434.32779</ele>
        <time>2023-06-29T15:53:59.000Z</time>
      </trkpt>
      <trkpt lat="45.83274" lon="4.76206">
        <ele>434.98154</ele>
        <time>2023-06-29T15:54:00.000Z</time>
      </trkpt>
      <trkpt lat="45.83272" lon="4.76193">
        <ele>434.74805</ele>
        <time>2023-06-29T15:54:01.000Z</time>
      </trkpt>
      <trkpt lat="45.83271" lon="4.7618">
        <ele>434.22452</ele>
        <time>2023-06-29T15:54:02.000Z</time>
      </trkpt>
      <trkpt lat="45.83269" lon="4.76168">
        <ele>433.7355</ele>
        <time>2023-06-29T15:54:03.000Z</time>
      </trkpt>
      <trkpt lat="45.83267" lon="4.76156">
        <ele>433.98615</ele>
        <time>2023-06-29T15:54:04.000Z</time>
      </trkpt>
      <trkpt lat="45.83265" lon="4.76144">
        <ele>432.78506</ele>
        <time>2023-06-29T15:54:05.000Z</time>
      </trkpt>
      <trkpt lat="45.83265" lon="4.76132">
        <ele>431.48935</ele>
        <time>2023-06-29T15:54:06.000Z</time>
      </trkpt>
      <trkpt lat="45.83266" lon="4.76119">
        <ele>430.21606</ele>
        <time>2023-06-29T15:54:07.000Z</time>
      </trkpt>
      <trkpt lat="45.83269" lon="4.76108">
        <ele>429.78198</ele>
        <time>2023-06-29T15:54:08.000Z</time>
      </trkpt>
      <trkpt lat="45.83273" lon="4.76097">
        <ele>429.35464</ele>
        <time>2023-06-29T15:54:09.000Z</time>
      </trkpt>
      <trkpt lat="45.83277" lon="4.76085">
        <ele>428.10141</ele>
        <time>2023-06-29T15:54:10.000Z</time>
      </trkpt>
      <trkpt lat="45.83281" lon="4.76074">
        <ele>426.86368</ele>
        <time>2023-06-29T15:54:11.000Z</time>
      </trkpt>
      <trkpt lat="45.83282" lon="4.76063">
        <ele>425.38794</ele>
        <time>2023-06-29T15:54:12.000Z</time>
      </trkpt>
      <trkpt lat="45.83283" lon="4.76051">
        <ele>424.62988</ele>
        <time>2023-06-29T15:54:13.000Z</time>
      </trkpt>
      <trkpt lat="45.83282" lon="4.76039">
        <ele>423.87604</ele>
        <time>2023-06-29T15:54:14.000Z</time>
      </trkpt>
      <trkpt lat="45.8328" lon="4.76027">
        <ele>423.12305</ele>
        <time>2023-06-29T15:54:15.000Z</time>
      </trkpt>
      <trkpt lat="45.83277" lon="4.76017">
        <ele>422.43539</ele>
        <time>2023-06-29T15:54:16.000Z</time>
      </trkpt>
      <trkpt lat="45.83274" lon="4.76007">
        <ele>421.90057</ele>
        <time>2023-06-29T15:54:17.000Z</time>
      </trkpt>
      <trkpt lat="45.83271" lon="4.75996">
        <ele>420.81265</ele>
        <time>2023-06-29T15:54:18.000Z</time>
      </trkpt>
      <trkpt lat="45.83268" lon="4.75986">
        <ele>419.41461</ele>
        <time>2023-06-29T15:54:19.000Z</time>
      </trkpt>
      <trkpt lat="45.83264" lon="4.75976">
        <ele>418.03387</ele>
        <time>2023-06-29T15:54:20.000Z</time>
      </trkpt>
      <trkpt lat="45.83261" lon="4.75965">
        <ele>417.54248</ele>
        <time>2023-06-29T15:54:21.000Z</time>
      </trkpt>
      <trkpt lat="45.83258" lon="4.75955">
        <ele>417.35089</ele>
        <time>2023-06-29T15:54:22.000Z</time>
      </trkpt>
      <trkpt lat="45.83255" lon="4.75945">
        <ele>417.15741</ele>
        <time>2023-06-29T15:54:23.000Z</time>
      </trkpt>
      <trkpt lat="45.83252" lon="4.75934">
        <ele>416.44586</ele>
        <time>2023-06-29T15:54:24.000Z</time>
      </trkpt>
      <trkpt lat="45.83249" lon="4.75924">
        <ele>416.55341</ele>
        <time>2023-06-29T15:54:25.000Z</time>
      </trkpt>
      <trkpt lat="45.83247" lon="4.75914">
        <ele>416.74667</ele>
        <time>2023-06-29T15:54:26.000Z</time>
      </trkpt>
      <trkpt lat="45.83246" lon="4.75904">
        <ele>416.9249</ele>
        <time>2023-06-29T15:54:27.000Z</time>
      </trkpt>
      <trkpt lat="45.83245" lon="4.75894">
        <ele>416.28751</ele>
        <time>2023-06-29T15:54:28.000Z</time>
      </trkpt>
      <trkpt lat="45.83244" lon="4.75884">
        <ele>415.64468</ele>
        <time>2023-06-29T15:54:29.000Z</time>
      </trkpt>
      <trkpt lat="45.83244" lon="4.75874">
        <ele>415.83878</ele>
        <time>2023-06-29T15:54:30.000Z</time>
      </trkpt>
      <trkpt lat="45.83244" lon="4.75864">
        <ele>416.02753</ele>
        <time>2023-06-29T15:54:31.000Z</time>
      </trkpt>
      <trkpt lat="45.83244" lon="4.75854">
        <ele>416.22858</ele>
        <time>2023-06-29T15:54:32.000Z</time>
      </trkpt>
      <trkpt lat="45.83243" lon="4.75844">
        <ele>416.4537</ele>
        <time>2023-06-29T15:54:33.000Z</time>
      </trkpt>
      <trkpt lat="45.83242" lon="4.75836">
        <ele>416.73407</ele>
        <time>2023-06-29T15:54:34.000Z</time>
      </trkpt>
      <trkpt lat="45.83242" lon="4.7583">
        <ele>417.02728</ele>
        <time>2023-06-29T15:54:35.000Z</time>
      </trkpt>
      <trkpt lat="45.8324" lon="4.75825">
        <ele>416.9527</ele>
        <time>2023-06-29T15:54:36.000Z</time>
      </trkpt>
      <trkpt lat="45.8324" lon="4.75821">
        <ele>416.76752</ele>
        <time>2023-06-29T15:54:46.000Z</time>
      </trkpt>
      <trkpt lat="45.83239" lon="4.75818">
        <ele>416.60663</ele>
        <time>2023-06-29T15:54:47.000Z</time>
      </trkpt>
      <trkpt lat="45.83239" lon="4.75813">
        <ele>416.96515</ele>
        <time>2023-06-29T15:54:48.000Z</time>
      </trkpt>
      <trkpt lat="45.83238" lon="4.75809">
        <ele>417.37201</ele>
        <time>2023-06-29T15:54:49.000Z</time>
      </trkpt>
      <trkpt lat="45.83237" lon="4.75806">
        <ele>417.78296</ele>
        <time>2023-06-29T15:54:50.000Z</time>
      </trkpt>
      <trkpt lat="45.83235" lon="4.75802">
        <ele>417.03256</ele>
        <time>2023-06-29T15:54:51.000Z</time>
      </trkpt>
      <trkpt lat="45.83234" lon="4.75797">
        <ele>416.40216</ele>
        <time>2023-06-29T15:54:52.000Z</time>
      </trkpt>
      <trkpt lat="45.83232" lon="4.75793">
        <ele>415.59</ele>
        <time>2023-06-29T15:54:53.000Z</time>
      </trkpt>
      <trkpt lat="45.8323" lon="4.75788">
        <ele>415.11035</ele>
        <time>2023-06-29T15:54:54.000Z</time>
      </trkpt>
      <trkpt lat="45.83228" lon="4.75784">
        <ele>414.55548</ele>
        <time>2023-06-29T15:54:55.000Z</time>
      </trkpt>
      <trkpt lat="45.83226" lon="4.75779">
        <ele>414.0119</ele>
        <time>2023-06-29T15:54:56.000Z</time>
      </trkpt>
      <trkpt lat="45.83223" lon="4.75774">
        <ele>413.46289</ele>
        <time>2023-06-29T15:54:57.000Z</time>
      </trkpt>
      <trkpt lat="45.83222" lon="4.75769">
        <ele>412.95026</ele>
        <time>2023-06-29T15:54:58.000Z</time>
      </trkpt>
      <trkpt lat="45.83219" lon="4.75762">
        <ele>412.42645</ele>
        <time>2023-06-29T15:54:59.000Z</time>
      </trkpt>
      <trkpt lat="45.83216" lon="4.75756">
        <ele>411.90552</ele>
        <time>2023-06-29T15:55:00.000Z</time>
      </trkpt>
      <trkpt lat="45.83213" lon="4.7575">
        <ele>412.16617</ele>
        <time>2023-06-29T15:55:01.000Z</time>
      </trkpt>
      <trkpt lat="45.83209" lon="4.75742">
        <ele>412.04208</ele>
        <time>2023-06-29T15:55:02.000Z</time>
      </trkpt>
      <trkpt lat="45.83206" lon="4.75734">
        <ele>411.89282</ele>
        <time>2023-06-29T15:55:03.000Z</time>
      </trkpt>
      <trkpt lat="45.83203" lon="4.75727">
        <ele>411.71207</ele>
        <time>2023-06-29T15:55:04.000Z</time>
      </trkpt>
      <trkpt lat="45.83199" lon="4.75719">
        <ele>411.60336</ele>
        <time>2023-06-29T15:55:05.000Z</time>
      </trkpt>
      <trkpt lat="45.83195" lon="4.75711">
        <ele>411.44693</ele>
        <time>2023-06-29T15:55:06.000Z</time>
      </trkpt>
      <trkpt lat="45.83192" lon="4.75703">
        <ele>411.64169</ele>
        <time>2023-06-29T15:55:07.000Z</time>
      </trkpt>
      <trkpt lat="45.83188" lon="4.75695">
        <ele>411.6026</ele>
        <time>2023-06-29T15:55:08.000Z</time>
      </trkpt>
      <trkpt lat="45.83183" lon="4.75688">
        <ele>410.6933</ele>
        <time>2023-06-29T15:55:09.000Z</time>
      </trkpt>
      <trkpt lat="45.83179" lon="4.75681">
        <ele>409.90912</ele>
        <time>2023-06-29T15:55:10.000Z</time>
      </trkpt>
      <trkpt lat="45.83175" lon="4.75673">
        <ele>409.85132</ele>
        <time>2023-06-29T15:55:11.000Z</time>
      </trkpt>
      <trkpt lat="45.83171" lon="4.75667">
        <ele>409.70026</ele>
        <time>2023-06-29T15:55:12.000Z</time>
      </trkpt>
      <trkpt lat="45.83168" lon="4.75659">
        <ele>409.53391</ele>
        <time>2023-06-29T15:55:13.000Z</time>
      </trkpt>
      <trkpt lat="45.83166" lon="4.75652">
        <ele>409.77118</ele>
        <time>2023-06-29T15:55:14.000Z</time>
      </trkpt>
      <trkpt lat="45.83164" lon="4.75644">
        <ele>410.02759</ele>
        <time>2023-06-29T15:55:15.000Z</time>
      </trkpt>
      <trkpt lat="45.83163" lon="4.75636">
        <ele>410.28043</ele>
        <time>2023-06-29T15:55:16.000Z</time>
      </trkpt>
      <trkpt lat="45.83163" lon="4.75628">
        <ele>410.52301</ele>
        <time>2023-06-29T15:55:17.000Z</time>
      </trkpt>
      <trkpt lat="45.83163" lon="4.75618">
        <ele>410.7254</ele>
        <time>2023-06-29T15:55:18.000Z</time>
      </trkpt>
      <trkpt lat="45.83163" lon="4.75608">
        <ele>410.89838</ele>
        <time>2023-06-29T15:55:19.000Z</time>
      </trkpt>
      <trkpt lat="45.83162" lon="4.75599">
        <ele>411.06601</ele>
        <time>2023-06-29T15:55:20.000Z</time>
      </trkpt>
      <trkpt lat="45.8316" lon="4.7559">
        <ele>410.44342</ele>
        <time>2023-06-29T15:55:21.000Z</time>
      </trkpt>
      <trkpt lat="45.83156" lon="4.7558">
        <ele>410.19086</ele>
        <time>2023-06-29T15:55:22.000Z</time>
      </trkpt>
      <trkpt lat="45.83154" lon="4.75571">
        <ele>409.93207</ele>
        <time>2023-06-29T15:55:23.000Z</time>
      </trkpt>
      <trkpt lat="45.83154" lon="4.75561">
        <ele>409.70245</ele>
        <time>2023-06-29T15:55:24.000Z</time>
      </trkpt>
      <trkpt lat="45.83153" lon="4.75553">
        <ele>409.44531</ele>
        <time>2023-06-29T15:55:25.000Z</time>
      </trkpt>
      <trkpt lat="45.83148" lon="4.75546">
        <ele>409.16229</ele>
        <time>2023-06-29T15:55:26.000Z</time>
      </trkpt>
      <trkpt lat="45.83144" lon="4.75539">
        <ele>408.50528</ele>
        <time>2023-06-29T15:55:27.000Z</time>
      </trkpt>
      <trkpt lat="45.8314" lon="4.75532">
        <ele>407.62726</ele>
        <time>2023-06-29T15:55:28.000Z</time>
      </trkpt>
      <trkpt lat="45.83136" lon="4.75526">
        <ele>407.50153</ele>
        <time>2023-06-29T15:55:29.000Z</time>
      </trkpt>
      <trkpt lat="45.83131" lon="4.75518">
        <ele>407.24973</ele>
        <time>2023-06-29T15:55:30.000Z</time>
      </trkpt>
      <trkpt lat="45.83126" lon="4.75511">
        <ele>407.00299</ele>
        <time>2023-06-29T15:55:31.000Z</time>
      </trkpt>
      <trkpt lat="45.83122" lon="4.75503">
        <ele>406.70068</ele>
        <time>2023-06-29T15:55:32.000Z</time>
      </trkpt>
      <trkpt lat="45.83119" lon="4.75494">
        <ele>406.40491</ele>
        <time>2023-06-29T15:55:33.000Z</time>
      </trkpt>
      <trkpt lat="45.83117" lon="4.75484">
        <ele>406.05609</ele>
        <time>2023-06-29T15:55:34.000Z</time>
      </trkpt>
      <trkpt lat="45.83116" lon="4.75475">
        <ele>405.68951</ele>
        <time>2023-06-29T15:55:35.000Z</time>
      </trkpt>
      <trkpt lat="45.83115" lon="4.75467">
        <ele>405.31293</ele>
        <time>2023-06-29T15:55:36.000Z</time>
      </trkpt>
      <trkpt lat="45.83118" lon="4.75456">
        <ele>404.83047</ele>
        <time>2023-06-29T15:55:37.000Z</time>
      </trkpt>
      <trkpt lat="45.83121" lon="4.75449">
        <ele>404.45709</ele>
        <time>2023-06-29T15:55:38.000Z</time>
      </trkpt>
      <trkpt lat="45.83127" lon="4.75441">
        <ele>404.04141</ele>
        <time>2023-06-29T15:55:39.000Z</time>
      </trkpt>
      <trkpt lat="45.83133" lon="4.75433">
        <ele>403.63214</ele>
        <time>2023-06-29T15:55:40.000Z</time>
      </trkpt>
      <trkpt lat="45.83139" lon="4.75428">
        <ele>403.22089</ele>
        <time>2023-06-29T15:55:41.000Z</time>
      </trkpt>
      <trkpt lat="45.83146" lon="4.75424">
        <ele>402.81546</ele>
        <time>2023-06-29T15:55:42.000Z</time>
      </trkpt>
      <trkpt lat="45.83151" lon="4.75421">
        <ele>402.46573</ele>
        <time>2023-06-29T15:55:43.000Z</time>
      </trkpt>
      <trkpt lat="45.83157" lon="4.75419">
        <ele>402.19162</ele>
        <time>2023-06-29T15:55:44.000Z</time>
      </trkpt>
      <trkpt lat="45.83161" lon="4.75418">
        <ele>402.06671</ele>
        <time>2023-06-29T15:55:45.000Z</time>
      </trkpt>
      <trkpt lat="45.83167" lon="4.75412">
        <ele>402.02148</ele>
        <time>2023-06-29T15:55:46.000Z</time>
      </trkpt>
      <trkpt lat="45.83172" lon="4.75407">
        <ele>402.11182</ele>
        <time>2023-06-29T15:55:47.000Z</time>
      </trkpt>
      <trkpt lat="45.83177" lon="4.75402">
        <ele>402.11258</ele>
        <time>2023-06-29T15:55:48.000Z</time>
      </trkpt>
      <trkpt lat="45.83182" lon="4.75395">
        <ele>402.58344</ele>
        <time>2023-06-29T15:55:49.000Z</time>
      </trkpt>
      <trkpt lat="45.83189" lon="4.75389">
        <ele>403.14041</ele>
        <time>2023-06-29T15:55:50.000Z</time>
      </trkpt>
      <trkpt lat="45.83195" lon="4.75382">
        <ele>403.69574</ele>
        <time>2023-06-29T15:55:51.000Z</time>
      </trkpt>
      <trkpt lat="45.832" lon="4.75375">
        <ele>404.28879</ele>
        <time>2023-06-29T15:55:52.000Z</time>
      </trkpt>
      <trkpt lat="45.83206" lon="4.75371">
        <ele>405.16412</ele>
        <time>2023-06-29T15:55:53.000Z</time>
      </trkpt>
      <trkpt lat="45.83213" lon="4.75367">
        <ele>404.90732</ele>
        <time>2023-06-29T15:55:54.000Z</time>
      </trkpt>
      <trkpt lat="45.83222" lon="4.75361">
        <ele>404.8689</ele>
        <time>2023-06-29T15:55:55.000Z</time>
      </trkpt>
      <trkpt lat="45.83231" lon="4.75356">
        <ele>404.76724</ele>
        <time>2023-06-29T15:55:56.000Z</time>
      </trkpt>
      <trkpt lat="45.83241" lon="4.75353">
        <ele>404.8461</ele>
        <time>2023-06-29T15:55:57.000Z</time>
      </trkpt>
      <trkpt lat="45.8325" lon="4.7535">
        <ele>404.81055</ele>
        <time>2023-06-29T15:55:58.000Z</time>
      </trkpt>
      <trkpt lat="45.83259" lon="4.75347">
        <ele>404.80859</ele>
        <time>2023-06-29T15:55:59.000Z</time>
      </trkpt>
      <trkpt lat="45.83268" lon="4.75345">
        <ele>404.88422</ele>
        <time>2023-06-29T15:56:00.000Z</time>
      </trkpt>
      <trkpt lat="45.83275" lon="4.75341">
        <ele>405.05072</ele>
        <time>2023-06-29T15:56:01.000Z</time>
      </trkpt>
      <trkpt lat="45.83283" lon="4.75336">
        <ele>405.56097</ele>
        <time>2023-06-29T15:56:02.000Z</time>
      </trkpt>
      <trkpt lat="45.8329" lon="4.75332">
        <ele>406.73709</ele>
        <time>2023-06-29T15:56:03.000Z</time>
      </trkpt>
      <trkpt lat="45.83296" lon="4.75329">
        <ele>408.19574</ele>
        <time>2023-06-29T15:56:04.000Z</time>
      </trkpt>
      <trkpt lat="45.83304" lon="4.75323">
        <ele>409.57098</ele>
        <time>2023-06-29T15:56:05.000Z</time>
      </trkpt>
      <trkpt lat="45.83312" lon="4.75322">
        <ele>409.63535</ele>
        <time>2023-06-29T15:56:06.000Z</time>
      </trkpt>
      <trkpt lat="45.83318" lon="4.75317">
        <ele>410.08789</ele>
        <time>2023-06-29T15:56:07.000Z</time>
      </trkpt>
      <trkpt lat="45.83324" lon="4.75311">
        <ele>410.33301</ele>
        <time>2023-06-29T15:56:08.000Z</time>
      </trkpt>
      <trkpt lat="45.8333" lon="4.75306">
        <ele>410.16034</ele>
        <time>2023-06-29T15:56:09.000Z</time>
      </trkpt>
      <trkpt lat="45.83336" lon="4.75303">
        <ele>409.89151</ele>
        <time>2023-06-29T15:56:10.000Z</time>
      </trkpt>
      <trkpt lat="45.83342" lon="4.75301">
        <ele>409.61591</ele>
        <time>2023-06-29T15:56:11.000Z</time>
      </trkpt>
      <trkpt lat="45.83349" lon="4.75298">
        <ele>409.32339</ele>
        <time>2023-06-29T15:56:12.000Z</time>
      </trkpt>
      <trkpt lat="45.83355" lon="4.75303">
        <ele>405.16315</ele>
        <time>2023-06-29T15:56:13.000Z</time>
      </trkpt>
      <trkpt lat="45.8336" lon="4.75304">
        <ele>405.56348</ele>
        <time>2023-06-29T15:56:14.000Z</time>
      </trkpt>
      <trkpt lat="45.83366" lon="4.75304">
        <ele>405.78296</ele>
        <time>2023-06-29T15:56:15.000Z</time>
      </trkpt>
      <trkpt lat="45.83371" lon="4.75304">
        <ele>406.0849</ele>
        <time>2023-06-29T15:56:16.000Z</time>
      </trkpt>
      <trkpt lat="45.83377" lon="4.75303">
        <ele>406.34677</ele>
        <time>2023-06-29T15:56:17.000Z</time>
      </trkpt>
      <trkpt lat="45.83383" lon="4.753">
        <ele>406.65439</ele>
        <time>2023-06-29T15:56:18.000Z</time>
      </trkpt>
      <trkpt lat="45.83388" lon="4.75298">
        <ele>403.62241</ele>
        <time>2023-06-29T15:56:19.000Z</time>
      </trkpt>
      <trkpt lat="45.83393" lon="4.75295">
        <ele>403.78485</ele>
        <time>2023-06-29T15:56:20.000Z</time>
      </trkpt>
      <trkpt lat="45.83396" lon="4.75293">
        <ele>403.87207</ele>
        <time>2023-06-29T15:56:21.000Z</time>
      </trkpt>
      <trkpt lat="45.834" lon="4.75291">
        <ele>403.62234</ele>
        <time>2023-06-29T15:56:22.000Z</time>
      </trkpt>
      <trkpt lat="45.83403" lon="4.75287">
        <ele>402.64658</ele>
        <time>2023-06-29T15:56:23.000Z</time>
      </trkpt>
      <trkpt lat="45.83405" lon="4.75282">
        <ele>401.26556</ele>
        <time>2023-06-29T15:56:24.000Z</time>
      </trkpt>
      <trkpt lat="45.83406" lon="4.75275">
        <ele>396.51584</ele>
        <time>2023-06-29T15:56:25.000Z</time>
      </trkpt>
      <trkpt lat="45.83406" lon="4.7527">
        <ele>396.05719</ele>
        <time>2023-06-29T15:56:26.000Z</time>
      </trkpt>
      <trkpt lat="45.83408" lon="4.75264">
        <ele>395.07693</ele>
        <time>2023-06-29T15:56:27.000Z</time>
      </trkpt>
      <trkpt lat="45.8341" lon="4.75258">
        <ele>394.32639</ele>
        <time>2023-06-29T15:56:28.000Z</time>
      </trkpt>
      <trkpt lat="45.83413" lon="4.75253">
        <ele>393.52606</ele>
        <time>2023-06-29T15:56:29.000Z</time>
      </trkpt>
      <trkpt lat="45.83415" lon="4.75249">
        <ele>392.69434</ele>
        <time>2023-06-29T15:56:30.000Z</time>
      </trkpt>
      <trkpt lat="45.83419" lon="4.75246">
        <ele>389.07727</ele>
        <time>2023-06-29T15:56:31.000Z</time>
      </trkpt>
      <trkpt lat="45.83422" lon="4.75243">
        <ele>388.05035</ele>
        <time>2023-06-29T15:56:32.000Z</time>
      </trkpt>
      <trkpt lat="45.83425" lon="4.7524">
        <ele>390.56601</ele>
        <time>2023-06-29T15:56:33.000Z</time>
      </trkpt>
      <trkpt lat="45.83428" lon="4.75238">
        <ele>389.83615</ele>
        <time>2023-06-29T15:56:34.000Z</time>
      </trkpt>
      <trkpt lat="45.8343" lon="4.75236">
        <ele>389.04977</ele>
        <time>2023-06-29T15:56:35.000Z</time>
      </trkpt>
      <trkpt lat="45.83433" lon="4.75234">
        <ele>388.21313</ele>
        <time>2023-06-29T15:56:36.000Z</time>
      </trkpt>
      <trkpt lat="45.83436" lon="4.75231">
        <ele>384.80176</ele>
        <time>2023-06-29T15:56:37.000Z</time>
      </trkpt>
      <trkpt lat="45.83439" lon="4.75228">
        <ele>383.72452</ele>
        <time>2023-06-29T15:56:38.000Z</time>
      </trkpt>
      <trkpt lat="45.83443" lon="4.75225">
        <ele>385.99683</ele>
        <time>2023-06-29T15:56:39.000Z</time>
      </trkpt>
      <trkpt lat="45.83446" lon="4.75223">
        <ele>385.11554</ele>
        <time>2023-06-29T15:56:40.000Z</time>
      </trkpt>
      <trkpt lat="45.8345" lon="4.7522">
        <ele>384.18207</ele>
        <time>2023-06-29T15:56:41.000Z</time>
      </trkpt>
      <trkpt lat="45.83458" lon="4.75214">
        <ele>383.19757</ele>
        <time>2023-06-29T15:56:42.000Z</time>
      </trkpt>
      <trkpt lat="45.83464" lon="4.7521">
        <ele>379.7377</ele>
        <time>2023-06-29T15:56:43.000Z</time>
      </trkpt>
      <trkpt lat="45.8347" lon="4.75207">
        <ele>378.59225</ele>
        <time>2023-06-29T15:56:44.000Z</time>
      </trkpt>
      <trkpt lat="45.83478" lon="4.75206">
        <ele>380.70404</ele>
        <time>2023-06-29T15:56:45.000Z</time>
      </trkpt>
      <trkpt lat="45.83484" lon="4.75204">
        <ele>379.91345</ele>
        <time>2023-06-29T15:56:46.000Z</time>
      </trkpt>
      <trkpt lat="45.83491" lon="4.75203">
        <ele>379.10626</ele>
        <time>2023-06-29T15:56:47.000Z</time>
      </trkpt>
      <trkpt lat="45.83497" lon="4.75202">
        <ele>378.30774</ele>
        <time>2023-06-29T15:56:48.000Z</time>
      </trkpt>
      <trkpt lat="45.83502" lon="4.75201">
        <ele>375.28278</ele>
        <time>2023-06-29T15:56:49.000Z</time>
      </trkpt>
      <trkpt lat="45.83507" lon="4.75199">
        <ele>374.37064</ele>
        <time>2023-06-29T15:56:50.000Z</time>
      </trkpt>
      <trkpt lat="45.83513" lon="4.75193">
        <ele>376.21164</ele>
        <time>2023-06-29T15:56:51.000Z</time>
      </trkpt>
      <trkpt lat="45.83516" lon="4.75186">
        <ele>375.56836</ele>
        <time>2023-06-29T15:56:52.000Z</time>
      </trkpt>
      <trkpt lat="45.8352" lon="4.75183">
        <ele>374.94427</ele>
        <time>2023-06-29T15:56:53.000Z</time>
      </trkpt>
      <trkpt lat="45.83524" lon="4.75179">
        <ele>374.16318</ele>
        <time>2023-06-29T15:56:54.000Z</time>
      </trkpt>
      <trkpt lat="45.83527" lon="4.75173">
        <ele>371.24933</ele>
        <time>2023-06-29T15:56:55.000Z</time>
      </trkpt>
      <trkpt lat="45.83531" lon="4.75169">
        <ele>369.19214</ele>
        <time>2023-06-29T15:56:56.000Z</time>
      </trkpt>
      <trkpt lat="45.83534" lon="4.75167">
        <ele>369.65015</ele>
        <time>2023-06-29T15:56:57.000Z</time>
      </trkpt>
      <trkpt lat="45.83538" lon="4.75164">
        <ele>367.76904</ele>
        <time>2023-06-29T15:56:58.000Z</time>
      </trkpt>
      <trkpt lat="45.83541" lon="4.75162">
        <ele>365.9581</ele>
        <time>2023-06-29T15:56:59.000Z</time>
      </trkpt>
      <trkpt lat="45.83544" lon="4.75158">
        <ele>364.07623</ele>
        <time>2023-06-29T15:57:00.000Z</time>
      </trkpt>
      <trkpt lat="45.83548" lon="4.75155">
        <ele>362.34406</ele>
        <time>2023-06-29T15:57:01.000Z</time>
      </trkpt>
      <trkpt lat="45.83553" lon="4.75152">
        <ele>360.63812</ele>
        <time>2023-06-29T15:57:02.000Z</time>
      </trkpt>
      <trkpt lat="45.83556" lon="4.7515">
        <ele>361.48495</ele>
        <time>2023-06-29T15:57:03.000Z</time>
      </trkpt>
      <trkpt lat="45.83561" lon="4.75145">
        <ele>359.87766</ele>
        <time>2023-06-29T15:57:04.000Z</time>
      </trkpt>
      <trkpt lat="45.83566" lon="4.7514">
        <ele>358.36386</ele>
        <time>2023-06-29T15:57:05.000Z</time>
      </trkpt>
      <trkpt lat="45.8357" lon="4.75137">
        <ele>356.64783</ele>
        <time>2023-06-29T15:57:06.000Z</time>
      </trkpt>
      <trkpt lat="45.83575" lon="4.75132">
        <ele>355.02136</ele>
        <time>2023-06-29T15:57:07.000Z</time>
      </trkpt>
      <trkpt lat="45.83578" lon="4.75128">
        <ele>353.45432</ele>
        <time>2023-06-29T15:57:08.000Z</time>
      </trkpt>
      <trkpt lat="45.83582" lon="4.75122">
        <ele>354.21957</ele>
        <time>2023-06-29T15:57:09.000Z</time>
      </trkpt>
      <trkpt lat="45.83587" lon="4.75115">
        <ele>352.82233</ele>
        <time>2023-06-29T15:57:10.000Z</time>
      </trkpt>
      <trkpt lat="45.83591" lon="4.75109">
        <ele>351.43634</ele>
        <time>2023-06-29T15:57:11.000Z</time>
      </trkpt>
      <trkpt lat="45.83594" lon="4.75102">
        <ele>350.18561</ele>
        <time>2023-06-29T15:57:12.000Z</time>
      </trkpt>
      <trkpt lat="45.83598" lon="4.75093">
        <ele>348.09259</ele>
        <time>2023-06-29T15:57:13.000Z</time>
      </trkpt>
      <trkpt lat="45.83602" lon="4.75083">
        <ele>345.93823</ele>
        <time>2023-06-29T15:57:14.000Z</time>
      </trkpt>
      <trkpt lat="45.83606" lon="4.75073">
        <ele>345.90643</ele>
        <time>2023-06-29T15:57:15.000Z</time>
      </trkpt>
      <trkpt lat="45.8361" lon="4.75064">
        <ele>345.06137</ele>
        <time>2023-06-29T15:57:16.000Z</time>
      </trkpt>
      <trkpt lat="45.83615" lon="4.75055">
        <ele>344.25153</ele>
        <time>2023-06-29T15:57:17.000Z</time>
      </trkpt>
      <trkpt lat="45.8362" lon="4.75047">
        <ele>344.39691</ele>
        <time>2023-06-29T15:57:18.000Z</time>
      </trkpt>
      <trkpt lat="45.83625" lon="4.75038">
        <ele>344.2818</ele>
        <time>2023-06-29T15:57:19.000Z</time>
      </trkpt>
      <trkpt lat="45.83629" lon="4.75029">
        <ele>344.20517</ele>
        <time>2023-06-29T15:57:20.000Z</time>
      </trkpt>
      <trkpt lat="45.83632" lon="4.75021">
        <ele>343.97089</ele>
        <time>2023-06-29T15:57:21.000Z</time>
      </trkpt>
      <trkpt lat="45.83634" lon="4.75015">
        <ele>343.69174</ele>
        <time>2023-06-29T15:57:22.000Z</time>
      </trkpt>
      <trkpt lat="45.83635" lon="4.75009">
        <ele>343.35718</ele>
        <time>2023-06-29T15:57:23.000Z</time>
      </trkpt>
      <trkpt lat="45.83635" lon="4.75001">
        <ele>343.17447</ele>
        <time>2023-06-29T15:57:24.000Z</time>
      </trkpt>
      <trkpt lat="45.83636" lon="4.74994">
        <ele>343.00531</ele>
        <time>2023-06-29T15:57:25.000Z</time>
      </trkpt>
      <trkpt lat="45.83637" lon="4.74988">
        <ele>342.35846</ele>
        <time>2023-06-29T15:57:26.000Z</time>
      </trkpt>
      <trkpt lat="45.83638" lon="4.74981">
        <ele>341.6886</ele>
        <time>2023-06-29T15:57:27.000Z</time>
      </trkpt>
      <trkpt lat="45.83638" lon="4.74974">
        <ele>341.05859</ele>
        <time>2023-06-29T15:57:28.000Z</time>
      </trkpt>
      <trkpt lat="45.83639" lon="4.74968">
        <ele>340.33148</ele>
        <time>2023-06-29T15:57:29.000Z</time>
      </trkpt>
      <trkpt lat="45.83641" lon="4.74961">
        <ele>339.72641</ele>
        <time>2023-06-29T15:57:30.000Z</time>
      </trkpt>
      <trkpt lat="45.83643" lon="4.74956">
        <ele>339.19809</ele>
        <time>2023-06-29T15:57:31.000Z</time>
      </trkpt>
      <trkpt lat="45.83644" lon="4.74951">
        <ele>338.42331</ele>
        <time>2023-06-29T15:57:32.000Z</time>
      </trkpt>
      <trkpt lat="45.83646" lon="4.74946">
        <ele>338.50461</ele>
        <time>2023-06-29T15:57:33.000Z</time>
      </trkpt>
      <trkpt lat="45.83648" lon="4.7494">
        <ele>338.67657</ele>
        <time>2023-06-29T15:57:34.000Z</time>
      </trkpt>
      <trkpt lat="45.8365" lon="4.74933">
        <ele>338.78043</ele>
        <time>2023-06-29T15:57:35.000Z</time>
      </trkpt>
      <trkpt lat="45.83651" lon="4.74927">
        <ele>338.858</ele>
        <time>2023-06-29T15:57:36.000Z</time>
      </trkpt>
      <trkpt lat="45.83653" lon="4.7492">
        <ele>338.85397</ele>
        <time>2023-06-29T15:57:37.000Z</time>
      </trkpt>
      <trkpt lat="45.83657" lon="4.74914">
        <ele>337.85126</ele>
        <time>2023-06-29T15:57:38.000Z</time>
      </trkpt>
      <trkpt lat="45.8366" lon="4.74906">
        <ele>337.15509</ele>
        <time>2023-06-29T15:57:39.000Z</time>
      </trkpt>
      <trkpt lat="45.83664" lon="4.749">
        <ele>336.3511</ele>
        <time>2023-06-29T15:57:40.000Z</time>
      </trkpt>
      <trkpt lat="45.83668" lon="4.74893">
        <ele>335.59967</ele>
        <time>2023-06-29T15:57:41.000Z</time>
      </trkpt>
      <trkpt lat="45.83672" lon="4.74887">
        <ele>334.87589</ele>
        <time>2023-06-29T15:57:42.000Z</time>
      </trkpt>
      <trkpt lat="45.83678" lon="4.74881">
        <ele>334.09717</ele>
        <time>2023-06-29T15:57:43.000Z</time>
      </trkpt>
      <trkpt lat="45.83684" lon="4.74876">
        <ele>333.33984</ele>
        <time>2023-06-29T15:57:44.000Z</time>
      </trkpt>
      <trkpt lat="45.8369" lon="4.74871">
        <ele>332.50751</ele>
        <time>2023-06-29T15:57:45.000Z</time>
      </trkpt>
      <trkpt lat="45.83697" lon="4.74865">
        <ele>332.28937</ele>
        <time>2023-06-29T15:57:46.000Z</time>
      </trkpt>
      <trkpt lat="45.83704" lon="4.74861">
        <ele>332.02289</ele>
        <time>2023-06-29T15:57:47.000Z</time>
      </trkpt>
      <trkpt lat="45.83711" lon="4.74855">
        <ele>331.73572</ele>
        <time>2023-06-29T15:57:48.000Z</time>
      </trkpt>
      <trkpt lat="45.83718" lon="4.7485">
        <ele>331.48236</ele>
        <time>2023-06-29T15:57:49.000Z</time>
      </trkpt>
      <trkpt lat="45.83724" lon="4.74845">
        <ele>331.19644</ele>
        <time>2023-06-29T15:57:50.000Z</time>
      </trkpt>
      <trkpt lat="45.83731" lon="4.7484">
        <ele>330.87079</ele>
        <time>2023-06-29T15:57:51.000Z</time>
      </trkpt>
      <trkpt lat="45.83737" lon="4.74836">
        <ele>330.55542</ele>
        <time>2023-06-29T15:57:52.000Z</time>
      </trkpt>
      <trkpt lat="45.83743" lon="4.7483">
        <ele>330.22211</ele>
        <time>2023-06-29T15:57:53.000Z</time>
      </trkpt>
      <trkpt lat="45.83749" lon="4.74824">
        <ele>329.91455</ele>
        <time>2023-06-29T15:57:54.000Z</time>
      </trkpt>
      <trkpt lat="45.83755" lon="4.74817">
        <ele>329.7504</ele>
        <time>2023-06-29T15:57:55.000Z</time>
      </trkpt>
      <trkpt lat="45.8376" lon="4.7481">
        <ele>329.60068</ele>
        <time>2023-06-29T15:57:56.000Z</time>
      </trkpt>
      <trkpt lat="45.83763" lon="4.74802">
        <ele>329.54184</ele>
        <time>2023-06-29T15:57:57.000Z</time>
      </trkpt>
      <trkpt lat="45.83767" lon="4.74794">
        <ele>329.52997</ele>
        <time>2023-06-29T15:57:58.000Z</time>
      </trkpt>
      <trkpt lat="45.83771" lon="4.74786">
        <ele>329.45514</ele>
        <time>2023-06-29T15:57:59.000Z</time>
      </trkpt>
      <trkpt lat="45.83774" lon="4.74778">
        <ele>329.435</ele>
        <time>2023-06-29T15:58:00.000Z</time>
      </trkpt>
      <trkpt lat="45.83778" lon="4.7477">
        <ele>329.40805</ele>
        <time>2023-06-29T15:58:01.000Z</time>
      </trkpt>
      <trkpt lat="45.83782" lon="4.74763">
        <ele>329.44937</ele>
        <time>2023-06-29T15:58:02.000Z</time>
      </trkpt>
      <trkpt lat="45.83784" lon="4.74756">
        <ele>329.52344</ele>
        <time>2023-06-29T15:58:03.000Z</time>
      </trkpt>
      <trkpt lat="45.8379" lon="4.74747">
        <ele>329.60495</ele>
        <time>2023-06-29T15:58:04.000Z</time>
      </trkpt>
      <trkpt lat="45.83795" lon="4.7474">
        <ele>329.72278</ele>
        <time>2023-06-29T15:58:05.000Z</time>
      </trkpt>
      <trkpt lat="45.838" lon="4.74733">
        <ele>329.83292</ele>
        <time>2023-06-29T15:58:06.000Z</time>
      </trkpt>
      <trkpt lat="45.83807" lon="4.74727">
        <ele>329.97443</ele>
        <time>2023-06-29T15:58:07.000Z</time>
      </trkpt>
      <trkpt lat="45.83815" lon="4.74723">
        <ele>330.04092</ele>
        <time>2023-06-29T15:58:08.000Z</time>
      </trkpt>
      <trkpt lat="45.83821" lon="4.74718">
        <ele>330.08588</ele>
        <time>2023-06-29T15:58:09.000Z</time>
      </trkpt>
      <trkpt lat="45.83829" lon="4.74715">
        <ele>330.12137</ele>
        <time>2023-06-29T15:58:10.000Z</time>
      </trkpt>
      <trkpt lat="45.83836" lon="4.74712">
        <ele>330.18344</ele>
        <time>2023-06-29T15:58:11.000Z</time>
      </trkpt>
      <trkpt lat="45.83842" lon="4.74705">
        <ele>330.25751</ele>
        <time>2023-06-29T15:58:12.000Z</time>
      </trkpt>
      <trkpt lat="45.83847" lon="4.74698">
        <ele>330.34515</ele>
        <time>2023-06-29T15:58:13.000Z</time>
      </trkpt>
      <trkpt lat="45.83851" lon="4.7469">
        <ele>331.08463</ele>
        <time>2023-06-29T15:58:14.000Z</time>
      </trkpt>
      <trkpt lat="45.83856" lon="4.74681">
        <ele>331.77667</ele>
        <time>2023-06-29T15:58:15.000Z</time>
      </trkpt>
      <trkpt lat="45.83861" lon="4.74672">
        <ele>332.54144</ele>
        <time>2023-06-29T15:58:16.000Z</time>
      </trkpt>
      <trkpt lat="45.83866" lon="4.74662">
        <ele>333.31287</ele>
        <time>2023-06-29T15:58:17.000Z</time>
      </trkpt>
      <trkpt lat="45.83871" lon="4.74654">
        <ele>333.77524</ele>
        <time>2023-06-29T15:58:18.000Z</time>
      </trkpt>
      <trkpt lat="45.83878" lon="4.74647">
        <ele>334.23859</ele>
        <time>2023-06-29T15:58:19.000Z</time>
      </trkpt>
      <trkpt lat="45.83884" lon="4.7464">
        <ele>334.69031</ele>
        <time>2023-06-29T15:58:20.000Z</time>
      </trkpt>
      <trkpt lat="45.8389" lon="4.74632">
        <ele>335.11896</ele>
        <time>2023-06-29T15:58:21.000Z</time>
      </trkpt>
      <trkpt lat="45.83894" lon="4.7462">
        <ele>335.47977</ele>
        <time>2023-06-29T15:58:22.000Z</time>
      </trkpt>
      <trkpt lat="45.83898" lon="4.7461">
        <ele>335.83905</ele>
        <time>2023-06-29T15:58:23.000Z</time>
      </trkpt>
      <trkpt lat="45.83901" lon="4.746">
        <ele>336.22308</ele>
        <time>2023-06-29T15:58:24.000Z</time>
      </trkpt>
      <trkpt lat="45.83903" lon="4.74589">
        <ele>336.59094</ele>
        <time>2023-06-29T15:58:25.000Z</time>
      </trkpt>
      <trkpt lat="45.83903" lon="4.7458">
        <ele>336.90582</ele>
        <time>2023-06-29T15:58:26.000Z</time>
      </trkpt>
      <trkpt lat="45.83902" lon="4.74571">
        <ele>337.17935</ele>
        <time>2023-06-29T15:58:27.000Z</time>
      </trkpt>
      <trkpt lat="45.839" lon="4.74563">
        <ele>337.4942</ele>
        <time>2023-06-29T15:58:28.000Z</time>
      </trkpt>
      <trkpt lat="45.83897" lon="4.74554">
        <ele>337.84729</ele>
        <time>2023-06-29T15:58:29.000Z</time>
      </trkpt>
      <trkpt lat="45.83896" lon="4.74546">
        <ele>338.17676</ele>
        <time>2023-06-29T15:58:30.000Z</time>
      </trkpt>
      <trkpt lat="45.83895" lon="4.74537">
        <ele>338.47192</ele>
        <time>2023-06-29T15:58:31.000Z</time>
      </trkpt>
      <trkpt lat="45.83896" lon="4.74527">
        <ele>338.75262</ele>
        <time>2023-06-29T15:58:32.000Z</time>
      </trkpt>
      <trkpt lat="45.83897" lon="4.74516">
        <ele>339.05557</ele>
        <time>2023-06-29T15:58:33.000Z</time>
      </trkpt>
      <trkpt lat="45.83899" lon="4.74507">
        <ele>338.68832</ele>
        <time>2023-06-29T15:58:34.000Z</time>
      </trkpt>
      <trkpt lat="45.83901" lon="4.74497">
        <ele>338.33563</ele>
        <time>2023-06-29T15:58:35.000Z</time>
      </trkpt>
      <trkpt lat="45.83904" lon="4.74487">
        <ele>337.9035</ele>
        <time>2023-06-29T15:58:36.000Z</time>
      </trkpt>
      <trkpt lat="45.83907" lon="4.74477">
        <ele>337.47955</ele>
        <time>2023-06-29T15:58:37.000Z</time>
      </trkpt>
      <trkpt lat="45.83912" lon="4.74468">
        <ele>337.37332</ele>
        <time>2023-06-29T15:58:38.000Z</time>
      </trkpt>
      <trkpt lat="45.83916" lon="4.74459">
        <ele>337.26834</ele>
        <time>2023-06-29T15:58:39.000Z</time>
      </trkpt>
      <trkpt lat="45.8392" lon="4.7445">
        <ele>337.14066</ele>
        <time>2023-06-29T15:58:40.000Z</time>
      </trkpt>
      <trkpt lat="45.83923" lon="4.74441">
        <ele>337.05707</ele>
        <time>2023-06-29T15:58:41.000Z</time>
      </trkpt>
      <trkpt lat="45.83927" lon="4.74432">
        <ele>337.03976</ele>
        <time>2023-06-29T15:58:42.000Z</time>
      </trkpt>
      <trkpt lat="45.8393" lon="4.74423">
        <ele>337.0528</ele>
        <time>2023-06-29T15:58:43.000Z</time>
      </trkpt>
      <trkpt lat="45.83933" lon="4.74415">
        <ele>337.02283</ele>
        <time>2023-06-29T15:58:44.000Z</time>
      </trkpt>
      <trkpt lat="45.83936" lon="4.74405">
        <ele>337.0029</ele>
        <time>2023-06-29T15:58:45.000Z</time>
      </trkpt>
      <trkpt lat="45.83938" lon="4.74396">
        <ele>337.01074</ele>
        <time>2023-06-29T15:58:46.000Z</time>
      </trkpt>
      <trkpt lat="45.8394" lon="4.74387">
        <ele>337.04865</ele>
        <time>2023-06-29T15:58:47.000Z</time>
      </trkpt>
      <trkpt lat="45.83943" lon="4.74379">
        <ele>337.08273</ele>
        <time>2023-06-29T15:58:48.000Z</time>
      </trkpt>
      <trkpt lat="45.83945" lon="4.74372">
        <ele>337.08646</ele>
        <time>2023-06-29T15:58:49.000Z</time>
      </trkpt>
      <trkpt lat="45.83945" lon="4.74366">
        <ele>337.10922</ele>
        <time>2023-06-29T15:58:50.000Z</time>
      </trkpt>
      <trkpt lat="45.83946" lon="4.74359">
        <ele>337.25815</ele>
        <time>2023-06-29T15:58:51.000Z</time>
      </trkpt>
      <trkpt lat="45.83946" lon="4.74351">
        <ele>337.49298</ele>
        <time>2023-06-29T15:58:52.000Z</time>
      </trkpt>
      <trkpt lat="45.83945" lon="4.74343">
        <ele>337.7063</ele>
        <time>2023-06-29T15:58:53.000Z</time>
      </trkpt>
      <trkpt lat="45.83945" lon="4.74333">
        <ele>337.59494</ele>
        <time>2023-06-29T15:58:54.000Z</time>
      </trkpt>
      <trkpt lat="45.83945" lon="4.74323">
        <ele>337.54498</ele>
        <time>2023-06-29T15:58:55.000Z</time>
      </trkpt>
      <trkpt lat="45.83945" lon="4.74313">
        <ele>337.4917</ele>
        <time>2023-06-29T15:58:56.000Z</time>
      </trkpt>
      <trkpt lat="45.83945" lon="4.74304">
        <ele>337.41422</ele>
        <time>2023-06-29T15:58:57.000Z</time>
      </trkpt>
      <trkpt lat="45.83947" lon="4.74299">
        <ele>337.31155</ele>
        <time>2023-06-29T15:58:58.000Z</time>
      </trkpt>
      <trkpt lat="45.83949" lon="4.74295">
        <ele>337.22693</ele>
        <time>2023-06-29T15:58:59.000Z</time>
      </trkpt>
      <trkpt lat="45.83952" lon="4.74292">
        <ele>337.11523</ele>
        <time>2023-06-29T15:59:00.000Z</time>
      </trkpt>
      <trkpt lat="45.83955" lon="4.74289">
        <ele>337.00836</ele>
        <time>2023-06-29T15:59:01.000Z</time>
      </trkpt>
      <trkpt lat="45.83957" lon="4.74286">
        <ele>336.87051</ele>
        <time>2023-06-29T15:59:02.000Z</time>
      </trkpt>
      <trkpt lat="45.83958" lon="4.74282">
        <ele>336.70419</ele>
        <time>2023-06-29T15:59:03.000Z</time>
      </trkpt>
      <trkpt lat="45.83958" lon="4.74279">
        <ele>336.55426</ele>
        <time>2023-06-29T15:59:04.000Z</time>
      </trkpt>
      <trkpt lat="45.83958" lon="4.74274">
        <ele>336.39288</ele>
        <time>2023-06-29T15:59:05.000Z</time>
      </trkpt>
      <trkpt lat="45.83958" lon="4.74269">
        <ele>336.22891</ele>
        <time>2023-06-29T15:59:06.000Z</time>
      </trkpt>
      <trkpt lat="45.83959" lon="4.74263">
        <ele>336.07126</ele>
        <time>2023-06-29T15:59:07.000Z</time>
      </trkpt>
      <trkpt lat="45.83958" lon="4.74257">
        <ele>335.91678</ele>
        <time>2023-06-29T15:59:08.000Z</time>
      </trkpt>
      <trkpt lat="45.83959" lon="4.74251">
        <ele>335.76715</ele>
        <time>2023-06-29T15:59:09.000Z</time>
      </trkpt>
      <trkpt lat="45.8396" lon="4.74245">
        <ele>335.69061</ele>
        <time>2023-06-29T15:59:10.000Z</time>
      </trkpt>
      <trkpt lat="45.83963" lon="4.74238">
        <ele>335.48877</ele>
        <time>2023-06-29T15:59:11.000Z</time>
      </trkpt>
      <trkpt lat="45.83963" lon="4.74232">
        <ele>335.25797</ele>
        <time>2023-06-29T15:59:12.000Z</time>
      </trkpt>
      <trkpt lat="45.83965" lon="4.74225">
        <ele>335.06381</ele>
        <time>2023-06-29T15:59:13.000Z</time>
      </trkpt>
      <trkpt lat="45.83966" lon="4.7422">
        <ele>335.20685</ele>
        <time>2023-06-29T15:59:14.000Z</time>
      </trkpt>
      <trkpt lat="45.83967" lon="4.74212">
        <ele>335.33087</ele>
        <time>2023-06-29T15:59:15.000Z</time>
      </trkpt>
      <trkpt lat="45.83968" lon="4.74206">
        <ele>335.55002</ele>
        <time>2023-06-29T15:59:16.000Z</time>
      </trkpt>
      <trkpt lat="45.8397" lon="4.742">
        <ele>335.94089</ele>
        <time>2023-06-29T15:59:17.000Z</time>
      </trkpt>
      <trkpt lat="45.83971" lon="4.74191">
        <ele>336.50165</ele>
        <time>2023-06-29T15:59:18.000Z</time>
      </trkpt>
      <trkpt lat="45.83975" lon="4.74186">
        <ele>336.64914</ele>
        <time>2023-06-29T15:59:19.000Z</time>
      </trkpt>
      <trkpt lat="45.83976" lon="4.74178">
        <ele>336.85443</ele>
        <time>2023-06-29T15:59:20.000Z</time>
      </trkpt>
      <trkpt lat="45.83978" lon="4.74173">
        <ele>337.00562</ele>
        <time>2023-06-29T15:59:21.000Z</time>
      </trkpt>
      <trkpt lat="45.83979" lon="4.74167">
        <ele>337.11295</ele>
        <time>2023-06-29T15:59:22.000Z</time>
      </trkpt>
      <trkpt lat="45.8398" lon="4.74162">
        <ele>337.24335</ele>
        <time>2023-06-29T15:59:23.000Z</time>
      </trkpt>
      <trkpt lat="45.83982" lon="4.74156">
        <ele>337.39545</ele>
        <time>2023-06-29T15:59:24.000Z</time>
      </trkpt>
      <trkpt lat="45.83983" lon="4.74148">
        <ele>337.60297</ele>
        <time>2023-06-29T15:59:25.000Z</time>
      </trkpt>
      <trkpt lat="45.83985" lon="4.74141">
        <ele>337.88132</ele>
        <time>2023-06-29T15:59:26.000Z</time>
      </trkpt>
      <trkpt lat="45.83988" lon="4.74132">
        <ele>338.12683</ele>
        <time>2023-06-29T15:59:27.000Z</time>
      </trkpt>
      <trkpt lat="45.83992" lon="4.74126">
        <ele>338.32751</ele>
        <time>2023-06-29T15:59:28.000Z</time>
      </trkpt>
      <trkpt lat="45.83996" lon="4.74121">
        <ele>338.53552</ele>
        <time>2023-06-29T15:59:29.000Z</time>
      </trkpt>
      <trkpt lat="45.84001" lon="4.74115">
        <ele>338.96542</ele>
        <time>2023-06-29T15:59:30.000Z</time>
      </trkpt>
      <trkpt lat="45.84003" lon="4.7411">
        <ele>339.39322</ele>
        <time>2023-06-29T15:59:31.000Z</time>
      </trkpt>
      <trkpt lat="45.84008" lon="4.74105">
        <ele>339.88354</ele>
        <time>2023-06-29T15:59:32.000Z</time>
      </trkpt>
      <trkpt lat="45.8401" lon="4.74099">
        <ele>340.34265</ele>
        <time>2023-06-29T15:59:33.000Z</time>
      </trkpt>
      <trkpt lat="45.84014" lon="4.74094">
        <ele>340.4357</ele>
        <time>2023-06-29T15:59:34.000Z</time>
      </trkpt>
      <trkpt lat="45.84017" lon="4.7409">
        <ele>340.57397</ele>
        <time>2023-06-29T15:59:35.000Z</time>
      </trkpt>
      <trkpt lat="45.84021" lon="4.74082">
        <ele>340.67432</ele>
        <time>2023-06-29T15:59:36.000Z</time>
      </trkpt>
      <trkpt lat="45.84024" lon="4.74076">
        <ele>340.62814</ele>
        <time>2023-06-29T15:59:37.000Z</time>
      </trkpt>
      <trkpt lat="45.84026" lon="4.74069">
        <ele>340.43927</ele>
        <time>2023-06-29T15:59:38.000Z</time>
      </trkpt>
      <trkpt lat="45.8403" lon="4.74061">
        <ele>340.62714</ele>
        <time>2023-06-29T15:59:39.000Z</time>
      </trkpt>
      <trkpt lat="45.84033" lon="4.74055">
        <ele>340.77142</ele>
        <time>2023-06-29T15:59:40.000Z</time>
      </trkpt>
      <trkpt lat="45.84034" lon="4.74049">
        <ele>340.76324</ele>
        <time>2023-06-29T15:59:41.000Z</time>
      </trkpt>
      <trkpt lat="45.84036" lon="4.74043">
        <ele>340.82477</ele>
        <time>2023-06-29T15:59:42.000Z</time>
      </trkpt>
      <trkpt lat="45.84038" lon="4.74036">
        <ele>340.80472</ele>
        <time>2023-06-29T15:59:43.000Z</time>
      </trkpt>
      <trkpt lat="45.84041" lon="4.74029">
        <ele>340.7186</ele>
        <time>2023-06-29T15:59:44.000Z</time>
      </trkpt>
      <trkpt lat="45.84043" lon="4.74023">
        <ele>340.61285</ele>
        <time>2023-06-29T15:59:45.000Z</time>
      </trkpt>
      <trkpt lat="45.84046" lon="4.74017">
        <ele>340.51407</ele>
        <time>2023-06-29T15:59:46.000Z</time>
      </trkpt>
      <trkpt lat="45.84049" lon="4.74011">
        <ele>340.48596</ele>
        <time>2023-06-29T15:59:47.000Z</time>
      </trkpt>
      <trkpt lat="45.84053" lon="4.74006">
        <ele>340.6221</ele>
        <time>2023-06-29T15:59:48.000Z</time>
      </trkpt>
      <trkpt lat="45.84057" lon="4.74">
        <ele>340.67947</ele>
        <time>2023-06-29T15:59:49.000Z</time>
      </trkpt>
      <trkpt lat="45.84061" lon="4.73994">
        <ele>340.56512</ele>
        <time>2023-06-29T15:59:50.000Z</time>
      </trkpt>
      <trkpt lat="45.84066" lon="4.73987">
        <ele>340.12357</ele>
        <time>2023-06-29T15:59:51.000Z</time>
      </trkpt>
      <trkpt lat="45.8407" lon="4.73981">
        <ele>339.53763</ele>
        <time>2023-06-29T15:59:52.000Z</time>
      </trkpt>
      <trkpt lat="45.84075" lon="4.73975">
        <ele>338.93811</ele>
        <time>2023-06-29T15:59:53.000Z</time>
      </trkpt>
      <trkpt lat="45.84078" lon="4.73969">
        <ele>338.68701</ele>
        <time>2023-06-29T15:59:54.000Z</time>
      </trkpt>
      <trkpt lat="45.84082" lon="4.73962">
        <ele>337.86792</ele>
        <time>2023-06-29T15:59:55.000Z</time>
      </trkpt>
      <trkpt lat="45.84087" lon="4.73956">
        <ele>336.97607</ele>
        <time>2023-06-29T15:59:56.000Z</time>
      </trkpt>
      <trkpt lat="45.84091" lon="4.73949">
        <ele>336.07062</ele>
        <time>2023-06-29T15:59:57.000Z</time>
      </trkpt>
      <trkpt lat="45.84095" lon="4.73942">
        <ele>335.14288</ele>
        <time>2023-06-29T15:59:58.000Z</time>
      </trkpt>
      <trkpt lat="45.841" lon="4.73936">
        <ele>334.20111</ele>
        <time>2023-06-29T15:59:59.000Z</time>
      </trkpt>
      <trkpt lat="45.84104" lon="4.7393">
        <ele>333.22784</ele>
        <time>2023-06-29T16:00:00.000Z</time>
      </trkpt>
      <trkpt lat="45.84109" lon="4.73924">
        <ele>332.42105</ele>
        <time>2023-06-29T16:00:01.000Z</time>
      </trkpt>
      <trkpt lat="45.84113" lon="4.73918">
        <ele>331.56982</ele>
        <time>2023-06-29T16:00:02.000Z</time>
      </trkpt>
      <trkpt lat="45.84118" lon="4.7391">
        <ele>330.77844</ele>
        <time>2023-06-29T16:00:03.000Z</time>
      </trkpt>
      <trkpt lat="45.84122" lon="4.73904">
        <ele>330.02286</ele>
        <time>2023-06-29T16:00:04.000Z</time>
      </trkpt>
      <trkpt lat="45.84127" lon="4.73896">
        <ele>329.21954</ele>
        <time>2023-06-29T16:00:05.000Z</time>
      </trkpt>
      <trkpt lat="45.84132" lon="4.73889">
        <ele>328.29984</ele>
        <time>2023-06-29T16:00:06.000Z</time>
      </trkpt>
      <trkpt lat="45.84137" lon="4.73883">
        <ele>327.31708</ele>
        <time>2023-06-29T16:00:07.000Z</time>
      </trkpt>
      <trkpt lat="45.84141" lon="4.73875">
        <ele>326.18466</ele>
        <time>2023-06-29T16:00:08.000Z</time>
      </trkpt>
      <trkpt lat="45.84146" lon="4.73868">
        <ele>325.1441</ele>
        <time>2023-06-29T16:00:09.000Z</time>
      </trkpt>
      <trkpt lat="45.84151" lon="4.73861">
        <ele>324.01596</ele>
        <time>2023-06-29T16:00:10.000Z</time>
      </trkpt>
      <trkpt lat="45.84156" lon="4.73854">
        <ele>323.14551</ele>
        <time>2023-06-29T16:00:11.000Z</time>
      </trkpt>
      <trkpt lat="45.8416" lon="4.73848">
        <ele>322.30807</ele>
        <time>2023-06-29T16:00:12.000Z</time>
      </trkpt>
      <trkpt lat="45.84164" lon="4.73843">
        <ele>321.47894</ele>
        <time>2023-06-29T16:00:13.000Z</time>
      </trkpt>
      <trkpt lat="45.84168" lon="4.73839">
        <ele>320.62637</ele>
        <time>2023-06-29T16:00:14.000Z</time>
      </trkpt>
      <trkpt lat="45.84169" lon="4.73836">
        <ele>320.22885</ele>
        <time>2023-06-29T16:00:15.000Z</time>
      </trkpt>
      <trkpt lat="45.84169" lon="4.73833">
        <ele>319.86349</ele>
        <time>2023-06-29T16:00:16.000Z</time>
      </trkpt>
      <trkpt lat="45.84168" lon="4.73831">
        <ele>319.55182</ele>
        <time>2023-06-29T16:00:17.000Z</time>
      </trkpt>
      <trkpt lat="45.84166" lon="4.73829">
        <ele>319.28284</ele>
        <time>2023-06-29T16:00:18.000Z</time>
      </trkpt>
      <trkpt lat="45.84162" lon="4.73826">
        <ele>319.091</ele>
        <time>2023-06-29T16:00:19.000Z</time>
      </trkpt>
      <trkpt lat="45.84158" lon="4.73824">
        <ele>318.92105</ele>
        <time>2023-06-29T16:00:20.000Z</time>
      </trkpt>
      <trkpt lat="45.84154" lon="4.73821">
        <ele>318.70706</ele>
        <time>2023-06-29T16:00:21.000Z</time>
      </trkpt>
      <trkpt lat="45.8415" lon="4.73817">
        <ele>318.50323</ele>
        <time>2023-06-29T16:00:22.000Z</time>
      </trkpt>
      <trkpt lat="45.84145" lon="4.73817">
        <ele>318.29614</ele>
        <time>2023-06-29T16:00:23.000Z</time>
      </trkpt>
      <trkpt lat="45.84139" lon="4.73815">
        <ele>318.08496</ele>
        <time>2023-06-29T16:00:24.000Z</time>
      </trkpt>
      <trkpt lat="45.84134" lon="4.73814">
        <ele>317.88635</ele>
        <time>2023-06-29T16:00:25.000Z</time>
      </trkpt>
      <trkpt lat="45.84129" lon="4.73814">
        <ele>317.72372</ele>
        <time>2023-06-29T16:00:26.000Z</time>
      </trkpt>
      <trkpt lat="45.84123" lon="4.73812">
        <ele>317.4212</ele>
        <time>2023-06-29T16:00:27.000Z</time>
      </trkpt>
      <trkpt lat="45.84117" lon="4.73811">
        <ele>317.15335</ele>
        <time>2023-06-29T16:00:28.000Z</time>
      </trkpt>
      <trkpt lat="45.8411" lon="4.7381">
        <ele>316.86053</ele>
        <time>2023-06-29T16:00:29.000Z</time>
      </trkpt>
      <trkpt lat="45.84105" lon="4.73811">
        <ele>316.56775</ele>
        <time>2023-06-29T16:00:30.000Z</time>
      </trkpt>
      <trkpt lat="45.84098" lon="4.73813">
        <ele>316.36444</ele>
        <time>2023-06-29T16:00:31.000Z</time>
      </trkpt>
      <trkpt lat="45.84092" lon="4.73813">
        <ele>316.16364</ele>
        <time>2023-06-29T16:00:32.000Z</time>
      </trkpt>
      <trkpt lat="45.84085" lon="4.73815">
        <ele>316.01563</ele>
        <time>2023-06-29T16:00:33.000Z</time>
      </trkpt>
      <trkpt lat="45.84079" lon="4.73817">
        <ele>315.87381</ele>
        <time>2023-06-29T16:00:34.000Z</time>
      </trkpt>
      <trkpt lat="45.84073" lon="4.7382">
        <ele>315.72736</ele>
        <time>2023-06-29T16:00:35.000Z</time>
      </trkpt>
      <trkpt lat="45.84068" lon="4.73823">
        <ele>315.57559</ele>
        <time>2023-06-29T16:00:36.000Z</time>
      </trkpt>
      <trkpt lat="45.84063" lon="4.73827">
        <ele>315.36737</ele>
        <time>2023-06-29T16:00:37.000Z</time>
      </trkpt>
      <trkpt lat="45.84057" lon="4.73829">
        <ele>315.11343</ele>
        <time>2023-06-29T16:00:38.000Z</time>
      </trkpt>
      <trkpt lat="45.84051" lon="4.7383">
        <ele>314.80978</ele>
        <time>2023-06-29T16:00:39.000Z</time>
      </trkpt>
      <trkpt lat="45.84045" lon="4.73833">
        <ele>314.52509</ele>
        <time>2023-06-29T16:00:40.000Z</time>
      </trkpt>
      <trkpt lat="45.84039" lon="4.73835">
        <ele>314.30829</ele>
        <time>2023-06-29T16:00:41.000Z</time>
      </trkpt>
      <trkpt lat="45.84033" lon="4.73838">
        <ele>314.07147</ele>
        <time>2023-06-29T16:00:42.000Z</time>
      </trkpt>
      <trkpt lat="45.84027" lon="4.73839">
        <ele>313.82184</ele>
        <time>2023-06-29T16:00:43.000Z</time>
      </trkpt>
      <trkpt lat="45.84021" lon="4.73841">
        <ele>313.63492</ele>
        <time>2023-06-29T16:00:44.000Z</time>
      </trkpt>
      <trkpt lat="45.84015" lon="4.73843">
        <ele>313.46118</ele>
        <time>2023-06-29T16:00:45.000Z</time>
      </trkpt>
      <trkpt lat="45.84008" lon="4.73844">
        <ele>313.32645</ele>
        <time>2023-06-29T16:00:46.000Z</time>
      </trkpt>
      <trkpt lat="45.84" lon="4.73846">
        <ele>313.38422</ele>
        <time>2023-06-29T16:00:47.000Z</time>
      </trkpt>
      <trkpt lat="45.83995" lon="4.73846">
        <ele>314.16141</ele>
        <time>2023-06-29T16:00:48.000Z</time>
      </trkpt>
      <trkpt lat="45.83988" lon="4.73845">
        <ele>314.9335</ele>
        <time>2023-06-29T16:00:49.000Z</time>
      </trkpt>
      <trkpt lat="45.83984" lon="4.73844">
        <ele>315.82501</ele>
        <time>2023-06-29T16:00:50.000Z</time>
      </trkpt>
      <trkpt lat="45.8398" lon="4.73844">
        <ele>316.74832</ele>
        <time>2023-06-29T16:00:51.000Z</time>
      </trkpt>
      <trkpt lat="45.83973" lon="4.73836">
        <ele>317.85092</ele>
        <time>2023-06-29T16:00:52.000Z</time>
      </trkpt>
      <trkpt lat="45.83969" lon="4.73831">
        <ele>319.36295</ele>
        <time>2023-06-29T16:00:53.000Z</time>
      </trkpt>
      <trkpt lat="45.83964" lon="4.73823">
        <ele>320.82446</ele>
        <time>2023-06-29T16:00:54.000Z</time>
      </trkpt>
      <trkpt lat="45.83959" lon="4.73817">
        <ele>322.22748</ele>
        <time>2023-06-29T16:00:55.000Z</time>
      </trkpt>
      <trkpt lat="45.83954" lon="4.73811">
        <ele>323.09848</ele>
        <time>2023-06-29T16:00:56.000Z</time>
      </trkpt>
      <trkpt lat="45.8395" lon="4.73806">
        <ele>324.04932</ele>
        <time>2023-06-29T16:00:57.000Z</time>
      </trkpt>
      <trkpt lat="45.83946" lon="4.73799">
        <ele>325.03958</ele>
        <time>2023-06-29T16:00:58.000Z</time>
      </trkpt>
      <trkpt lat="45.83942" lon="4.73793">
        <ele>326.04193</ele>
        <time>2023-06-29T16:00:59.000Z</time>
      </trkpt>
      <trkpt lat="45.83939" lon="4.73784">
        <ele>326.98108</ele>
        <time>2023-06-29T16:01:00.000Z</time>
      </trkpt>
      <trkpt lat="45.83937" lon="4.73776">
        <ele>327.78348</ele>
        <time>2023-06-29T16:01:01.000Z</time>
      </trkpt>
      <trkpt lat="45.83936" lon="4.73767">
        <ele>328.61411</ele>
        <time>2023-06-29T16:01:02.000Z</time>
      </trkpt>
      <trkpt lat="45.83937" lon="4.73759">
        <ele>329.44351</ele>
        <time>2023-06-29T16:01:03.000Z</time>
      </trkpt>
      <trkpt lat="45.83939" lon="4.73751">
        <ele>330.23984</ele>
        <time>2023-06-29T16:01:04.000Z</time>
      </trkpt>
      <trkpt lat="45.83941" lon="4.73743">
        <ele>331.02783</ele>
        <time>2023-06-29T16:01:05.000Z</time>
      </trkpt>
      <trkpt lat="45.83943" lon="4.73735">
        <ele>331.78757</ele>
        <time>2023-06-29T16:01:06.000Z</time>
      </trkpt>
      <trkpt lat="45.83945" lon="4.73727">
        <ele>332.51492</ele>
        <time>2023-06-29T16:01:07.000Z</time>
      </trkpt>
      <trkpt lat="45.83947" lon="4.73719">
        <ele>332.55893</ele>
        <time>2023-06-29T16:01:08.000Z</time>
      </trkpt>
      <trkpt lat="45.8395" lon="4.73711">
        <ele>332.07904</ele>
        <time>2023-06-29T16:01:09.000Z</time>
      </trkpt>
      <trkpt lat="45.83952" lon="4.73703">
        <ele>331.50424</ele>
        <time>2023-06-29T16:01:10.000Z</time>
      </trkpt>
      <trkpt lat="45.83953" lon="4.73695">
        <ele>330.89053</ele>
        <time>2023-06-29T16:01:11.000Z</time>
      </trkpt>
      <trkpt lat="45.83954" lon="4.73686">
        <ele>330.09332</ele>
        <time>2023-06-29T16:01:12.000Z</time>
      </trkpt>
      <trkpt lat="45.83954" lon="4.73678">
        <ele>329.64227</ele>
        <time>2023-06-29T16:01:13.000Z</time>
      </trkpt>
      <trkpt lat="45.83953" lon="4.7367">
        <ele>329.26328</ele>
        <time>2023-06-29T16:01:14.000Z</time>
      </trkpt>
      <trkpt lat="45.83956" lon="4.73664">
        <ele>328.97565</ele>
        <time>2023-06-29T16:01:15.000Z</time>
      </trkpt>
      <trkpt lat="45.83959" lon="4.73662">
        <ele>329.23459</ele>
        <time>2023-06-29T16:01:16.000Z</time>
      </trkpt>
      <trkpt lat="45.83962" lon="4.73656">
        <ele>329.41605</ele>
        <time>2023-06-29T16:01:17.000Z</time>
      </trkpt>
      <trkpt lat="45.83965" lon="4.7365">
        <ele>329.54742</ele>
        <time>2023-06-29T16:01:18.000Z</time>
      </trkpt>
      <trkpt lat="45.83969" lon="4.73645">
        <ele>329.66855</ele>
        <time>2023-06-29T16:01:19.000Z</time>
      </trkpt>
      <trkpt lat="45.83974" lon="4.73641">
        <ele>329.62198</ele>
        <time>2023-06-29T16:01:20.000Z</time>
      </trkpt>
      <trkpt lat="45.83978" lon="4.73637">
        <ele>329.81219</ele>
        <time>2023-06-29T16:01:21.000Z</time>
      </trkpt>
      <trkpt lat="45.83983" lon="4.73634">
        <ele>330.00763</ele>
        <time>2023-06-29T16:01:22.000Z</time>
      </trkpt>
      <trkpt lat="45.83989" lon="4.73632">
        <ele>330.25055</ele>
        <time>2023-06-29T16:01:23.000Z</time>
      </trkpt>
      <trkpt lat="45.83994" lon="4.7363">
        <ele>330.48199</ele>
        <time>2023-06-29T16:01:24.000Z</time>
      </trkpt>
      <trkpt lat="45.84" lon="4.73627">
        <ele>330.69965</ele>
        <time>2023-06-29T16:01:25.000Z</time>
      </trkpt>
      <trkpt lat="45.84005" lon="4.73623">
        <ele>331.08392</ele>
        <time>2023-06-29T16:01:26.000Z</time>
      </trkpt>
      <trkpt lat="45.84009" lon="4.73617">
        <ele>331.58978</ele>
        <time>2023-06-29T16:01:27.000Z</time>
      </trkpt>
      <trkpt lat="45.84013" lon="4.73611">
        <ele>332.06232</ele>
        <time>2023-06-29T16:01:28.000Z</time>
      </trkpt>
      <trkpt lat="45.84016" lon="4.73603">
        <ele>332.79929</ele>
        <time>2023-06-29T16:01:29.000Z</time>
      </trkpt>
      <trkpt lat="45.84018" lon="4.73595">
        <ele>333.57428</ele>
        <time>2023-06-29T16:01:30.000Z</time>
      </trkpt>
      <trkpt lat="45.84019" lon="4.73588">
        <ele>334.37723</ele>
        <time>2023-06-29T16:01:31.000Z</time>
      </trkpt>
      <trkpt lat="45.8402" lon="4.73581">
        <ele>335.21979</ele>
        <time>2023-06-29T16:01:32.000Z</time>
      </trkpt>
      <trkpt lat="45.84022" lon="4.73576">
        <ele>335.25513</ele>
        <time>2023-06-29T16:01:33.000Z</time>
      </trkpt>
      <trkpt lat="45.84024" lon="4.73571">
        <ele>335.25305</ele>
        <time>2023-06-29T16:01:34.000Z</time>
      </trkpt>
      <trkpt lat="45.84025" lon="4.73567">
        <ele>335.26483</ele>
        <time>2023-06-29T16:01:35.000Z</time>
      </trkpt>
      <trkpt lat="45.84026" lon="4.73563">
        <ele>335.27924</ele>
        <time>2023-06-29T16:01:37.000Z</time>
      </trkpt>
      <trkpt lat="45.84025" lon="4.7356">
        <ele>335.29544</ele>
        <time>2023-06-29T16:01:38.000Z</time>
      </trkpt>
      <trkpt lat="45.84023" lon="4.73556">
        <ele>335.32773</ele>
        <time>2023-06-29T16:01:39.000Z</time>
      </trkpt>
      <trkpt lat="45.84021" lon="4.73552">
        <ele>335.36017</ele>
        <time>2023-06-29T16:01:40.000Z</time>
      </trkpt>
      <trkpt lat="45.84018" lon="4.73546">
        <ele>335.62976</ele>
        <time>2023-06-29T16:01:41.000Z</time>
      </trkpt>
      <trkpt lat="45.84017" lon="4.73542">
        <ele>335.80917</ele>
        <time>2023-06-29T16:01:42.000Z</time>
      </trkpt>
      <trkpt lat="45.84015" lon="4.73537">
        <ele>335.99817</ele>
        <time>2023-06-29T16:01:43.000Z</time>
      </trkpt>
      <trkpt lat="45.84014" lon="4.73533">
        <ele>336.18439</ele>
        <time>2023-06-29T16:01:44.000Z</time>
      </trkpt>
      <trkpt lat="45.84015" lon="4.73531">
        <ele>336.38242</ele>
        <time>2023-06-29T16:01:45.000Z</time>
      </trkpt>
      <trkpt lat="45.84015" lon="4.73526">
        <ele>336.79379</ele>
        <time>2023-06-29T16:01:46.000Z</time>
      </trkpt>
      <trkpt lat="45.84016" lon="4.73522">
        <ele>337.06329</ele>
        <time>2023-06-29T16:01:47.000Z</time>
      </trkpt>
      <trkpt lat="45.84016" lon="4.73519">
        <ele>337.22186</ele>
        <time>2023-06-29T16:01:48.000Z</time>
      </trkpt>
      <trkpt lat="45.84016" lon="4.73515">
        <ele>337.1145</ele>
        <time>2023-06-29T16:01:49.000Z</time>
      </trkpt>
      <trkpt lat="45.84014" lon="4.73512">
        <ele>337.35565</ele>
        <time>2023-06-29T16:01:50.000Z</time>
      </trkpt>
      <trkpt lat="45.84013" lon="4.7351">
        <ele>337.53964</ele>
        <time>2023-06-29T16:01:51.000Z</time>
      </trkpt>
      <trkpt lat="45.84011" lon="4.73507">
        <ele>337.70236</ele>
        <time>2023-06-29T16:01:52.000Z</time>
      </trkpt>
      <trkpt lat="45.84009" lon="4.73503">
        <ele>337.82959</ele>
        <time>2023-06-29T16:01:53.000Z</time>
      </trkpt>
      <trkpt lat="45.84007" lon="4.73499">
        <ele>337.97348</ele>
        <time>2023-06-29T16:01:54.000Z</time>
      </trkpt>
      <trkpt lat="45.84006" lon="4.73496">
        <ele>338.15158</ele>
        <time>2023-06-29T16:01:55.000Z</time>
      </trkpt>
      <trkpt lat="45.84004" lon="4.73491">
        <ele>338.31598</ele>
        <time>2023-06-29T16:01:56.000Z</time>
      </trkpt>
      <trkpt lat="45.84002" lon="4.73487">
        <ele>338.46402</ele>
        <time>2023-06-29T16:01:57.000Z</time>
      </trkpt>
      <trkpt lat="45.84" lon="4.73484">
        <ele>338.60107</ele>
        <time>2023-06-29T16:01:58.000Z</time>
      </trkpt>
      <trkpt lat="45.83999" lon="4.7348">
        <ele>338.74634</ele>
        <time>2023-06-29T16:01:59.000Z</time>
      </trkpt>
      <trkpt lat="45.83997" lon="4.73476">
        <ele>338.92422</ele>
        <time>2023-06-29T16:02:00.000Z</time>
      </trkpt>
      <trkpt lat="45.83995" lon="4.73473">
        <ele>339.10141</ele>
        <time>2023-06-29T16:02:01.000Z</time>
      </trkpt>
      <trkpt lat="45.83994" lon="4.73469">
        <ele>339.25668</ele>
        <time>2023-06-29T16:02:02.000Z</time>
      </trkpt>
      <trkpt lat="45.83992" lon="4.73466">
        <ele>339.40387</ele>
        <time>2023-06-29T16:02:03.000Z</time>
      </trkpt>
      <trkpt lat="45.8399" lon="4.73463">
        <ele>339.52222</ele>
        <time>2023-06-29T16:02:04.000Z</time>
      </trkpt>
      <trkpt lat="45.83988" lon="4.7346">
        <ele>339.63522</ele>
        <time>2023-06-29T16:02:05.000Z</time>
      </trkpt>
      <trkpt lat="45.83984" lon="4.73459">
        <ele>339.55112</ele>
        <time>2023-06-29T16:02:06.000Z</time>
      </trkpt>
      <trkpt lat="45.83981" lon="4.73459">
        <ele>339.43195</ele>
        <time>2023-06-29T16:02:07.000Z</time>
      </trkpt>
      <trkpt lat="45.83977" lon="4.7346">
        <ele>339.30658</ele>
        <time>2023-06-29T16:02:08.000Z</time>
      </trkpt>
      <trkpt lat="45.83974" lon="4.73462">
        <ele>339.45364</ele>
        <time>2023-06-29T16:02:09.000Z</time>
      </trkpt>
      <trkpt lat="45.8397" lon="4.73463">
        <ele>339.53519</ele>
        <time>2023-06-29T16:02:10.000Z</time>
      </trkpt>
      <trkpt lat="45.83966" lon="4.73464">
        <ele>339.61337</ele>
        <time>2023-06-29T16:02:11.000Z</time>
      </trkpt>
      <trkpt lat="45.83963" lon="4.73464">
        <ele>339.65753</ele>
        <time>2023-06-29T16:02:12.000Z</time>
      </trkpt>
      <trkpt lat="45.83959" lon="4.73464">
        <ele>339.72672</ele>
        <time>2023-06-29T16:02:13.000Z</time>
      </trkpt>
      <trkpt lat="45.83955" lon="4.73467">
        <ele>339.80518</ele>
        <time>2023-06-29T16:02:14.000Z</time>
      </trkpt>
      <trkpt lat="45.83952" lon="4.7347">
        <ele>339.88007</ele>
        <time>2023-06-29T16:02:15.000Z</time>
      </trkpt>
      <trkpt lat="45.83949" lon="4.73474">
        <ele>339.9516</ele>
        <time>2023-06-29T16:02:16.000Z</time>
      </trkpt>
      <trkpt lat="45.83946" lon="4.73477">
        <ele>340.03952</ele>
        <time>2023-06-29T16:02:17.000Z</time>
      </trkpt>
      <trkpt lat="45.83943" lon="4.73481">
        <ele>340.14645</ele>
        <time>2023-06-29T16:02:18.000Z</time>
      </trkpt>
      <trkpt lat="45.8394" lon="4.73484">
        <ele>340.23749</ele>
        <time>2023-06-29T16:02:19.000Z</time>
      </trkpt>
      <trkpt lat="45.83937" lon="4.73488">
        <ele>340.32465</ele>
        <time>2023-06-29T16:02:20.000Z</time>
      </trkpt>
      <trkpt lat="45.83935" lon="4.73491">
        <ele>340.42706</ele>
        <time>2023-06-29T16:02:21.000Z</time>
      </trkpt>
      <trkpt lat="45.83932" lon="4.73494">
        <ele>340.53323</ele>
        <time>2023-06-29T16:02:22.000Z</time>
      </trkpt>
      <trkpt lat="45.83929" lon="4.73497">
        <ele>340.63547</ele>
        <time>2023-06-29T16:02:23.000Z</time>
      </trkpt>
      <trkpt lat="45.83926" lon="4.73499">
        <ele>340.73703</ele>
        <time>2023-06-29T16:02:24.000Z</time>
      </trkpt>
      <trkpt lat="45.83922" lon="4.73502">
        <ele>340.83142</ele>
        <time>2023-06-29T16:02:25.000Z</time>
      </trkpt>
      <trkpt lat="45.83919" lon="4.73504">
        <ele>341.02789</ele>
        <time>2023-06-29T16:02:26.000Z</time>
      </trkpt>
      <trkpt lat="45.83916" lon="4.73507">
        <ele>341.29114</ele>
        <time>2023-06-29T16:02:27.000Z</time>
      </trkpt>
      <trkpt lat="45.83914" lon="4.7351">
        <ele>341.56833</ele>
        <time>2023-06-29T16:02:28.000Z</time>
      </trkpt>
      <trkpt lat="45.83911" lon="4.73514">
        <ele>341.5979</ele>
        <time>2023-06-29T16:02:29.000Z</time>
      </trkpt>
      <trkpt lat="45.83909" lon="4.73519">
        <ele>341.65314</ele>
        <time>2023-06-29T16:02:30.000Z</time>
      </trkpt>
      <trkpt lat="45.8391" lon="4.73525">
        <ele>341.70676</ele>
        <time>2023-06-29T16:02:31.000Z</time>
      </trkpt>
      <trkpt lat="45.83912" lon="4.73529">
        <ele>341.77911</ele>
        <time>2023-06-29T16:02:32.000Z</time>
      </trkpt>
      <trkpt lat="45.83916" lon="4.7353">
        <ele>341.83917</ele>
        <time>2023-06-29T16:02:33.000Z</time>
      </trkpt>
      <trkpt lat="45.8392" lon="4.73519">
        <ele>341.86819</ele>
        <time>2023-06-29T16:02:34.000Z</time>
      </trkpt>
      <trkpt lat="45.83923" lon="4.73513">
        <ele>341.88977</ele>
        <time>2023-06-29T16:02:35.000Z</time>
      </trkpt>
      <trkpt lat="45.83925" lon="4.73507">
        <ele>341.89569</ele>
        <time>2023-06-29T16:02:36.000Z</time>
      </trkpt>
      <trkpt lat="45.83928" lon="4.73501">
        <ele>341.87775</ele>
        <time>2023-06-29T16:02:37.000Z</time>
      </trkpt>
      <trkpt lat="45.83931" lon="4.73496">
        <ele>341.82986</ele>
        <time>2023-06-29T16:02:38.000Z</time>
      </trkpt>
      <trkpt lat="45.83934" lon="4.7349">
        <ele>341.79462</ele>
        <time>2023-06-29T16:02:39.000Z</time>
      </trkpt>
      <trkpt lat="45.83938" lon="4.73486">
        <ele>341.72574</ele>
        <time>2023-06-29T16:02:40.000Z</time>
      </trkpt>
      <trkpt lat="45.83942" lon="4.73481">
        <ele>341.65033</ele>
        <time>2023-06-29T16:02:41.000Z</time>
      </trkpt>
      <trkpt lat="45.83947" lon="4.73477">
        <ele>341.58328</ele>
        <time>2023-06-29T16:02:42.000Z</time>
      </trkpt>
      <trkpt lat="45.83951" lon="4.73472">
        <ele>341.53192</ele>
        <time>2023-06-29T16:02:43.000Z</time>
      </trkpt>
      <trkpt lat="45.83956" lon="4.73468">
        <ele>341.47916</ele>
        <time>2023-06-29T16:02:44.000Z</time>
      </trkpt>
      <trkpt lat="45.8396" lon="4.73465">
        <ele>341.42813</ele>
        <time>2023-06-29T16:02:45.000Z</time>
      </trkpt>
      <trkpt lat="45.83965" lon="4.73464">
        <ele>341.26636</ele>
        <time>2023-06-29T16:02:46.000Z</time>
      </trkpt>
      <trkpt lat="45.83969" lon="4.73464">
        <ele>341.04706</ele>
        <time>2023-06-29T16:02:47.000Z</time>
      </trkpt>
      <trkpt lat="45.83974" lon="4.73463">
        <ele>340.81754</ele>
        <time>2023-06-29T16:02:48.000Z</time>
      </trkpt>
      <trkpt lat="45.83978" lon="4.73459">
        <ele>340.80789</ele>
        <time>2023-06-29T16:02:49.000Z</time>
      </trkpt>
      <trkpt lat="45.83982" lon="4.73455">
        <ele>340.75708</ele>
        <time>2023-06-29T16:02:50.000Z</time>
      </trkpt>
      <trkpt lat="45.83986" lon="4.7345">
        <ele>340.80411</ele>
        <time>2023-06-29T16:02:51.000Z</time>
      </trkpt>
      <trkpt lat="45.83989" lon="4.73444">
        <ele>340.84833</ele>
        <time>2023-06-29T16:02:52.000Z</time>
      </trkpt>
      <trkpt lat="45.83992" lon="4.73438">
        <ele>340.96143</ele>
        <time>2023-06-29T16:02:53.000Z</time>
      </trkpt>
      <trkpt lat="45.83995" lon="4.73433">
        <ele>340.85614</ele>
        <time>2023-06-29T16:02:54.000Z</time>
      </trkpt>
      <trkpt lat="45.83998" lon="4.73428">
        <ele>340.7998</ele>
        <time>2023-06-29T16:02:55.000Z</time>
      </trkpt>
      <trkpt lat="45.84002" lon="4.73424">
        <ele>340.75677</ele>
        <time>2023-06-29T16:02:56.000Z</time>
      </trkpt>
      <trkpt lat="45.84006" lon="4.7342">
        <ele>340.72421</ele>
        <time>2023-06-29T16:02:57.000Z</time>
      </trkpt>
      <trkpt lat="45.8401" lon="4.73418">
        <ele>340.69638</ele>
        <time>2023-06-29T16:02:58.000Z</time>
      </trkpt>
      <trkpt lat="45.84015" lon="4.73417">
        <ele>340.65289</ele>
        <time>2023-06-29T16:02:59.000Z</time>
      </trkpt>
      <trkpt lat="45.84019" lon="4.73421">
        <ele>340.60458</ele>
        <time>2023-06-29T16:03:00.000Z</time>
      </trkpt>
      <trkpt lat="45.8402" lon="4.73426">
        <ele>340.53729</ele>
        <time>2023-06-29T16:03:01.000Z</time>
      </trkpt>
      <trkpt lat="45.84015" lon="4.73431">
        <ele>340.45609</ele>
        <time>2023-06-29T16:03:02.000Z</time>
      </trkpt>
      <trkpt lat="45.84011" lon="4.73435">
        <ele>340.36261</ele>
        <time>2023-06-29T16:03:03.000Z</time>
      </trkpt>
      <trkpt lat="45.84007" lon="4.7344">
        <ele>340.28787</ele>
        <time>2023-06-29T16:03:04.000Z</time>
      </trkpt>
      <trkpt lat="45.84002" lon="4.73444">
        <ele>340.23822</ele>
        <time>2023-06-29T16:03:05.000Z</time>
      </trkpt>
      <trkpt lat="45.83998" lon="4.73448">
        <ele>340.3121</ele>
        <time>2023-06-29T16:03:06.000Z</time>
      </trkpt>
      <trkpt lat="45.83995" lon="4.73453">
        <ele>340.36469</ele>
        <time>2023-06-29T16:03:07.000Z</time>
      </trkpt>
      <trkpt lat="45.83993" lon="4.73457">
        <ele>340.41888</ele>
        <time>2023-06-29T16:03:08.000Z</time>
      </trkpt>
      <trkpt lat="45.83992" lon="4.7346">
        <ele>340.58282</ele>
        <time>2023-06-29T16:03:09.000Z</time>
      </trkpt>
      <trkpt lat="45.83992" lon="4.73464">
        <ele>340.75519</ele>
        <time>2023-06-29T16:03:10.000Z</time>
      </trkpt>
      <trkpt lat="45.83993" lon="4.73468">
        <ele>340.5611</ele>
        <time>2023-06-29T16:03:11.000Z</time>
      </trkpt>
      <trkpt lat="45.83994" lon="4.73471">
        <ele>340.40808</ele>
        <time>2023-06-29T16:03:12.000Z</time>
      </trkpt>
      <trkpt lat="45.83997" lon="4.73477">
        <ele>340.17081</ele>
        <time>2023-06-29T16:03:13.000Z</time>
      </trkpt>
      <trkpt lat="45.84" lon="4.73484">
        <ele>340.17969</ele>
        <time>2023-06-29T16:03:14.000Z</time>
      </trkpt>
      <trkpt lat="45.84004" lon="4.7349">
        <ele>340.16711</ele>
        <time>2023-06-29T16:03:15.000Z</time>
      </trkpt>
      <trkpt lat="45.84007" lon="4.73495">
        <ele>340.14252</ele>
        <time>2023-06-29T16:03:16.000Z</time>
      </trkpt>
      <trkpt lat="45.84011" lon="4.73501">
        <ele>340.11493</ele>
        <time>2023-06-29T16:03:17.000Z</time>
      </trkpt>
      <trkpt lat="45.84014" lon="4.73508">
        <ele>340.03802</ele>
        <time>2023-06-29T16:03:18.000Z</time>
      </trkpt>
      <trkpt lat="45.84017" lon="4.73515">
        <ele>339.98315</ele>
        <time>2023-06-29T16:03:19.000Z</time>
      </trkpt>
      <trkpt lat="45.84017" lon="4.73523">
        <ele>339.92792</ele>
        <time>2023-06-29T16:03:20.000Z</time>
      </trkpt>
      <trkpt lat="45.84017" lon="4.73529">
        <ele>339.87253</ele>
        <time>2023-06-29T16:03:21.000Z</time>
      </trkpt>
      <trkpt lat="45.84017" lon="4.73533">
        <ele>339.8273</ele>
        <time>2023-06-29T16:03:22.000Z</time>
      </trkpt>
      <trkpt lat="45.84018" lon="4.73538">
        <ele>339.797</ele>
        <time>2023-06-29T16:03:23.000Z</time>
      </trkpt>
      <trkpt lat="45.84019" lon="4.73543">
        <ele>339.74591</ele>
        <time>2023-06-29T16:03:24.000Z</time>
      </trkpt>
      <trkpt lat="45.8402" lon="4.73547">
        <ele>339.81024</ele>
        <time>2023-06-29T16:03:25.000Z</time>
      </trkpt>
      <trkpt lat="45.84022" lon="4.73552">
        <ele>339.75885</ele>
        <time>2023-06-29T16:03:26.000Z</time>
      </trkpt>
      <trkpt lat="45.84027" lon="4.73555">
        <ele>339.76855</ele>
        <time>2023-06-29T16:03:27.000Z</time>
      </trkpt>
      <trkpt lat="45.84032" lon="4.73555">
        <ele>339.77066</ele>
        <time>2023-06-29T16:03:28.000Z</time>
      </trkpt>
      <trkpt lat="45.84036" lon="4.73552">
        <ele>339.37408</ele>
        <time>2023-06-29T16:03:29.000Z</time>
      </trkpt>
      <trkpt lat="45.84041" lon="4.73548">
        <ele>339.02002</ele>
        <time>2023-06-29T16:03:30.000Z</time>
      </trkpt>
      <trkpt lat="45.84048" lon="4.73546">
        <ele>339.03534</ele>
        <time>2023-06-29T16:03:31.000Z</time>
      </trkpt>
      <trkpt lat="45.84054" lon="4.73542">
        <ele>338.99933</ele>
        <time>2023-06-29T16:03:32.000Z</time>
      </trkpt>
      <trkpt lat="45.84059" lon="4.73538">
        <ele>339.05292</ele>
        <time>2023-06-29T16:03:33.000Z</time>
      </trkpt>
      <trkpt lat="45.84065" lon="4.73533">
        <ele>339.09088</ele>
        <time>2023-06-29T16:03:34.000Z</time>
      </trkpt>
      <trkpt lat="45.84071" lon="4.73527">
        <ele>339.10178</ele>
        <time>2023-06-29T16:03:35.000Z</time>
      </trkpt>
      <trkpt lat="45.84076" lon="4.7352">
        <ele>338.81741</ele>
        <time>2023-06-29T16:03:36.000Z</time>
      </trkpt>
      <trkpt lat="45.84081" lon="4.73514">
        <ele>338.57205</ele>
        <time>2023-06-29T16:03:37.000Z</time>
      </trkpt>
      <trkpt lat="45.84085" lon="4.73506">
        <ele>338.37564</ele>
        <time>2023-06-29T16:03:38.000Z</time>
      </trkpt>
      <trkpt lat="45.8409" lon="4.73499">
        <ele>338.16205</ele>
        <time>2023-06-29T16:03:39.000Z</time>
      </trkpt>
      <trkpt lat="45.84094" lon="4.73491">
        <ele>337.93579</ele>
        <time>2023-06-29T16:03:40.000Z</time>
      </trkpt>
      <trkpt lat="45.84097" lon="4.73483">
        <ele>337.70813</ele>
        <time>2023-06-29T16:03:41.000Z</time>
      </trkpt>
      <trkpt lat="45.84102" lon="4.73475">
        <ele>337.71686</ele>
        <time>2023-06-29T16:03:42.000Z</time>
      </trkpt>
      <trkpt lat="45.84107" lon="4.73469">
        <ele>336.8168</ele>
        <time>2023-06-29T16:03:43.000Z</time>
      </trkpt>
      <trkpt lat="45.84113" lon="4.73463">
        <ele>335.92252</ele>
        <time>2023-06-29T16:03:44.000Z</time>
      </trkpt>
      <trkpt lat="45.84118" lon="4.73457">
        <ele>334.89401</ele>
        <time>2023-06-29T16:03:45.000Z</time>
      </trkpt>
      <trkpt lat="45.84123" lon="4.7345">
        <ele>333.914</ele>
        <time>2023-06-29T16:03:46.000Z</time>
      </trkpt>
      <trkpt lat="45.84127" lon="4.73444">
        <ele>332.89691</ele>
        <time>2023-06-29T16:03:47.000Z</time>
      </trkpt>
      <trkpt lat="45.84132" lon="4.73439">
        <ele>331.89459</ele>
        <time>2023-06-29T16:03:48.000Z</time>
      </trkpt>
      <trkpt lat="45.84137" lon="4.73434">
        <ele>331.83807</ele>
        <time>2023-06-29T16:03:49.000Z</time>
      </trkpt>
      <trkpt lat="45.84141" lon="4.73429">
        <ele>331.75644</ele>
        <time>2023-06-29T16:03:50.000Z</time>
      </trkpt>
      <trkpt lat="45.84146" lon="4.73425">
        <ele>331.70322</ele>
        <time>2023-06-29T16:03:51.000Z</time>
      </trkpt>
      <trkpt lat="45.8415" lon="4.7342">
        <ele>331.68329</ele>
        <time>2023-06-29T16:03:52.000Z</time>
      </trkpt>
      <trkpt lat="45.84155" lon="4.73416">
        <ele>331.69464</ele>
        <time>2023-06-29T16:03:53.000Z</time>
      </trkpt>
      <trkpt lat="45.84159" lon="4.73411">
        <ele>331.7276</ele>
        <time>2023-06-29T16:03:54.000Z</time>
      </trkpt>
      <trkpt lat="45.84164" lon="4.73408">
        <ele>331.77725</ele>
        <time>2023-06-29T16:03:55.000Z</time>
      </trkpt>
      <trkpt lat="45.84168" lon="4.73404">
        <ele>331.8819</ele>
        <time>2023-06-29T16:03:56.000Z</time>
      </trkpt>
      <trkpt lat="45.84172" lon="4.734">
        <ele>332.03165</ele>
        <time>2023-06-29T16:03:57.000Z</time>
      </trkpt>
      <trkpt lat="45.84173" lon="4.73395">
        <ele>331.694</ele>
        <time>2023-06-29T16:03:58.000Z</time>
      </trkpt>
      <trkpt lat="45.84174" lon="4.7339">
        <ele>331.3786</ele>
        <time>2023-06-29T16:03:59.000Z</time>
      </trkpt>
      <trkpt lat="45.84173" lon="4.73386">
        <ele>331.09097</ele>
        <time>2023-06-29T16:04:00.000Z</time>
      </trkpt>
      <trkpt lat="45.84172" lon="4.73382">
        <ele>330.69391</ele>
        <time>2023-06-29T16:04:01.000Z</time>
      </trkpt>
      <trkpt lat="45.84169" lon="4.73379">
        <ele>329.98325</ele>
        <time>2023-06-29T16:04:02.000Z</time>
      </trkpt>
      <trkpt lat="45.84166" lon="4.73377">
        <ele>330.12057</ele>
        <time>2023-06-29T16:04:03.000Z</time>
      </trkpt>
      <trkpt lat="45.84162" lon="4.73375">
        <ele>330.42813</ele>
        <time>2023-06-29T16:04:04.000Z</time>
      </trkpt>
      <trkpt lat="45.84159" lon="4.73372">
        <ele>330.7272</ele>
        <time>2023-06-29T16:04:05.000Z</time>
      </trkpt>
      <trkpt lat="45.84156" lon="4.73368">
        <ele>330.97992</ele>
        <time>2023-06-29T16:04:06.000Z</time>
      </trkpt>
      <trkpt lat="45.84152" lon="4.73365">
        <ele>331.21811</ele>
        <time>2023-06-29T16:04:07.000Z</time>
      </trkpt>
      <trkpt lat="45.84148" lon="4.73362">
        <ele>331.43961</ele>
        <time>2023-06-29T16:04:08.000Z</time>
      </trkpt>
      <trkpt lat="45.84144" lon="4.73359">
        <ele>331.03363</ele>
        <time>2023-06-29T16:04:09.000Z</time>
      </trkpt>
      <trkpt lat="45.84139" lon="4.73356">
        <ele>330.49222</ele>
        <time>2023-06-29T16:04:10.000Z</time>
      </trkpt>
      <trkpt lat="45.84135" lon="4.73353">
        <ele>330.5452</ele>
        <time>2023-06-29T16:04:11.000Z</time>
      </trkpt>
      <trkpt lat="45.8413" lon="4.7335">
        <ele>330.57416</ele>
        <time>2023-06-29T16:04:12.000Z</time>
      </trkpt>
      <trkpt lat="45.84125" lon="4.73347">
        <ele>330.41071</ele>
        <time>2023-06-29T16:04:13.000Z</time>
      </trkpt>
      <trkpt lat="45.84121" lon="4.73344">
        <ele>330.24432</ele>
        <time>2023-06-29T16:04:14.000Z</time>
      </trkpt>
      <trkpt lat="45.84116" lon="4.73341">
        <ele>330.08038</ele>
        <time>2023-06-29T16:04:15.000Z</time>
      </trkpt>
      <trkpt lat="45.84111" lon="4.73338">
        <ele>330.17776</ele>
        <time>2023-06-29T16:04:16.000Z</time>
      </trkpt>
      <trkpt lat="45.84106" lon="4.73334">
        <ele>330.20596</ele>
        <time>2023-06-29T16:04:17.000Z</time>
      </trkpt>
      <trkpt lat="45.84101" lon="4.73331">
        <ele>330.74545</ele>
        <time>2023-06-29T16:04:18.000Z</time>
      </trkpt>
      <trkpt lat="45.84096" lon="4.73327">
        <ele>331.26099</ele>
        <time>2023-06-29T16:04:19.000Z</time>
      </trkpt>
      <trkpt lat="45.84091" lon="4.73324">
        <ele>331.76938</ele>
        <time>2023-06-29T16:04:20.000Z</time>
      </trkpt>
      <trkpt lat="45.84087" lon="4.73321">
        <ele>332.41022</ele>
        <time>2023-06-29T16:04:21.000Z</time>
      </trkpt>
      <trkpt lat="45.84082" lon="4.73318">
        <ele>333.14218</ele>
        <time>2023-06-29T16:04:22.000Z</time>
      </trkpt>
      <trkpt lat="45.84077" lon="4.73314">
        <ele>333.91571</ele>
        <time>2023-06-29T16:04:23.000Z</time>
      </trkpt>
      <trkpt lat="45.84072" lon="4.73311">
        <ele>334.53296</ele>
        <time>2023-06-29T16:04:24.000Z</time>
      </trkpt>
      <trkpt lat="45.84067" lon="4.73307">
        <ele>335.15872</ele>
        <time>2023-06-29T16:04:25.000Z</time>
      </trkpt>
      <trkpt lat="45.84062" lon="4.73303">
        <ele>335.77228</ele>
        <time>2023-06-29T16:04:26.000Z</time>
      </trkpt>
      <trkpt lat="45.84057" lon="4.73299">
        <ele>336.37866</ele>
        <time>2023-06-29T16:04:27.000Z</time>
      </trkpt>
      <trkpt lat="45.84052" lon="4.73294">
        <ele>336.97818</ele>
        <time>2023-06-29T16:04:28.000Z</time>
      </trkpt>
      <trkpt lat="45.84047" lon="4.7329">
        <ele>337.56555</ele>
        <time>2023-06-29T16:04:29.000Z</time>
      </trkpt>
      <trkpt lat="45.84042" lon="4.73285">
        <ele>338.27133</ele>
        <time>2023-06-29T16:04:30.000Z</time>
      </trkpt>
      <trkpt lat="45.84038" lon="4.73279">
        <ele>338.23721</ele>
        <time>2023-06-29T16:04:31.000Z</time>
      </trkpt>
      <trkpt lat="45.84033" lon="4.73274">
        <ele>338.2178</ele>
        <time>2023-06-29T16:04:32.000Z</time>
      </trkpt>
      <trkpt lat="45.84028" lon="4.73269">
        <ele>338.27911</ele>
        <time>2023-06-29T16:04:33.000Z</time>
      </trkpt>
      <trkpt lat="45.84024" lon="4.73264">
        <ele>338.33353</ele>
        <time>2023-06-29T16:04:34.000Z</time>
      </trkpt>
      <trkpt lat="45.84018" lon="4.73259">
        <ele>338.3476</ele>
        <time>2023-06-29T16:04:35.000Z</time>
      </trkpt>
      <trkpt lat="45.84014" lon="4.73254">
        <ele>338.37158</ele>
        <time>2023-06-29T16:04:36.000Z</time>
      </trkpt>
      <trkpt lat="45.84011" lon="4.73248">
        <ele>338.40439</ele>
        <time>2023-06-29T16:04:37.000Z</time>
      </trkpt>
      <trkpt lat="45.84008" lon="4.73242">
        <ele>338.41614</ele>
        <time>2023-06-29T16:04:38.000Z</time>
      </trkpt>
      <trkpt lat="45.84006" lon="4.73235">
        <ele>338.4444</ele>
        <time>2023-06-29T16:04:39.000Z</time>
      </trkpt>
      <trkpt lat="45.84005" lon="4.73228">
        <ele>337.96246</ele>
        <time>2023-06-29T16:04:40.000Z</time>
      </trkpt>
      <trkpt lat="45.84005" lon="4.73221">
        <ele>337.47852</ele>
        <time>2023-06-29T16:04:41.000Z</time>
      </trkpt>
      <trkpt lat="45.84004" lon="4.73213">
        <ele>336.98297</ele>
        <time>2023-06-29T16:04:42.000Z</time>
      </trkpt>
      <trkpt lat="45.84004" lon="4.73206">
        <ele>336.49628</ele>
        <time>2023-06-29T16:04:43.000Z</time>
      </trkpt>
      <trkpt lat="45.84004" lon="4.73197">
        <ele>336.009</ele>
        <time>2023-06-29T16:04:44.000Z</time>
      </trkpt>
      <trkpt lat="45.84003" lon="4.7319">
        <ele>335.51614</ele>
        <time>2023-06-29T16:04:45.000Z</time>
      </trkpt>
      <trkpt lat="45.84003" lon="4.73182">
        <ele>335.0838</ele>
        <time>2023-06-29T16:04:46.000Z</time>
      </trkpt>
      <trkpt lat="45.84003" lon="4.73175">
        <ele>334.685</ele>
        <time>2023-06-29T16:04:47.000Z</time>
      </trkpt>
      <trkpt lat="45.84002" lon="4.73167">
        <ele>334.29111</ele>
        <time>2023-06-29T16:04:48.000Z</time>
      </trkpt>
      <trkpt lat="45.84002" lon="4.7316">
        <ele>333.90097</ele>
        <time>2023-06-29T16:04:49.000Z</time>
      </trkpt>
      <trkpt lat="45.84001" lon="4.73153">
        <ele>333.52179</ele>
        <time>2023-06-29T16:04:50.000Z</time>
      </trkpt>
      <trkpt lat="45.84001" lon="4.73145">
        <ele>333.14581</ele>
        <time>2023-06-29T16:04:51.000Z</time>
      </trkpt>
      <trkpt lat="45.84" lon="4.73137">
        <ele>332.76877</ele>
        <time>2023-06-29T16:04:52.000Z</time>
      </trkpt>
      <trkpt lat="45.83999" lon="4.7313">
        <ele>332.37799</ele>
        <time>2023-06-29T16:04:53.000Z</time>
      </trkpt>
      <trkpt lat="45.83998" lon="4.73122">
        <ele>331.99979</ele>
        <time>2023-06-29T16:04:54.000Z</time>
      </trkpt>
      <trkpt lat="45.83998" lon="4.73114">
        <ele>331.65576</ele>
        <time>2023-06-29T16:04:55.000Z</time>
      </trkpt>
      <trkpt lat="45.83997" lon="4.73108">
        <ele>331.30753</ele>
        <time>2023-06-29T16:04:56.000Z</time>
      </trkpt>
      <trkpt lat="45.83997" lon="4.73101">
        <ele>330.96616</ele>
        <time>2023-06-29T16:04:57.000Z</time>
      </trkpt>
      <trkpt lat="45.83996" lon="4.73094">
        <ele>330.64474</ele>
        <time>2023-06-29T16:04:58.000Z</time>
      </trkpt>
      <trkpt lat="45.83993" lon="4.73088">
        <ele>330.11346</ele>
        <time>2023-06-29T16:04:59.000Z</time>
      </trkpt>
      <trkpt lat="45.83989" lon="4.73086">
        <ele>330.99658</ele>
        <time>2023-06-29T16:05:00.000Z</time>
      </trkpt>
      <trkpt lat="45.83984" lon="4.73087">
        <ele>331.77969</ele>
        <time>2023-06-29T16:05:01.000Z</time>
      </trkpt>
      <trkpt lat="45.8398" lon="4.73089">
        <ele>332.56952</ele>
        <time>2023-06-29T16:05:02.000Z</time>
      </trkpt>
      <trkpt lat="45.83975" lon="4.7309">
        <ele>333.35614</ele>
        <time>2023-06-29T16:05:03.000Z</time>
      </trkpt>
      <trkpt lat="45.83971" lon="4.73092">
        <ele>334.12521</ele>
        <time>2023-06-29T16:05:04.000Z</time>
      </trkpt>
      <trkpt lat="45.83966" lon="4.73095">
        <ele>334.89441</ele>
        <time>2023-06-29T16:05:05.000Z</time>
      </trkpt>
      <trkpt lat="45.83962" lon="4.73095">
        <ele>335.60004</ele>
        <time>2023-06-29T16:05:06.000Z</time>
      </trkpt>
      <trkpt lat="45.83958" lon="4.73096">
        <ele>336.28815</ele>
        <time>2023-06-29T16:05:07.000Z</time>
      </trkpt>
      <trkpt lat="45.83954" lon="4.73097">
        <ele>336.96552</ele>
        <time>2023-06-29T16:05:08.000Z</time>
      </trkpt>
      <trkpt lat="45.8395" lon="4.73098">
        <ele>337.64551</ele>
        <time>2023-06-29T16:05:09.000Z</time>
      </trkpt>
      <trkpt lat="45.83947" lon="4.73098">
        <ele>338.28067</ele>
        <time>2023-06-29T16:05:10.000Z</time>
      </trkpt>
      <trkpt lat="45.83942" lon="4.73099">
        <ele>338.91919</ele>
        <time>2023-06-29T16:05:11.000Z</time>
      </trkpt>
      <trkpt lat="45.83938" lon="4.73099">
        <ele>339.53528</ele>
        <time>2023-06-29T16:05:12.000Z</time>
      </trkpt>
      <trkpt lat="45.83934" lon="4.73099">
        <ele>340.14969</ele>
        <time>2023-06-29T16:05:13.000Z</time>
      </trkpt>
      <trkpt lat="45.83931" lon="4.731">
        <ele>340.77264</ele>
        <time>2023-06-29T16:05:14.000Z</time>
      </trkpt>
      <trkpt lat="45.83927" lon="4.73101">
        <ele>341.41544</ele>
        <time>2023-06-29T16:05:15.000Z</time>
      </trkpt>
      <trkpt lat="45.83923" lon="4.73102">
        <ele>342.0452</ele>
        <time>2023-06-29T16:05:16.000Z</time>
      </trkpt>
      <trkpt lat="45.83918" lon="4.73102">
        <ele>342.65213</ele>
        <time>2023-06-29T16:05:17.000Z</time>
      </trkpt>
      <trkpt lat="45.83914" lon="4.73103">
        <ele>343.28961</ele>
        <time>2023-06-29T16:05:18.000Z</time>
      </trkpt>
      <trkpt lat="45.83911" lon="4.73104">
        <ele>344.13123</ele>
        <time>2023-06-29T16:05:19.000Z</time>
      </trkpt>
      <trkpt lat="45.83907" lon="4.73106">
        <ele>344.05817</ele>
        <time>2023-06-29T16:05:20.000Z</time>
      </trkpt>
      <trkpt lat="45.83903" lon="4.73107">
        <ele>344.09128</ele>
        <time>2023-06-29T16:05:21.000Z</time>
      </trkpt>
      <trkpt lat="45.83899" lon="4.73108">
        <ele>344.11493</ele>
        <time>2023-06-29T16:05:22.000Z</time>
      </trkpt>
      <trkpt lat="45.83895" lon="4.73109">
        <ele>344.14307</ele>
        <time>2023-06-29T16:05:23.000Z</time>
      </trkpt>
      <trkpt lat="45.83892" lon="4.7311">
        <ele>344.19684</ele>
        <time>2023-06-29T16:05:24.000Z</time>
      </trkpt>
      <trkpt lat="45.83888" lon="4.7311">
        <ele>344.25751</ele>
        <time>2023-06-29T16:05:25.000Z</time>
      </trkpt>
      <trkpt lat="45.83884" lon="4.7311">
        <ele>344.42194</ele>
        <time>2023-06-29T16:05:26.000Z</time>
      </trkpt>
      <trkpt lat="45.83881" lon="4.7311">
        <ele>344.58652</ele>
        <time>2023-06-29T16:05:27.000Z</time>
      </trkpt>
      <trkpt lat="45.83877" lon="4.73111">
        <ele>344.82913</ele>
        <time>2023-06-29T16:05:28.000Z</time>
      </trkpt>
      <trkpt lat="45.83874" lon="4.73112">
        <ele>344.87701</ele>
        <time>2023-06-29T16:05:29.000Z</time>
      </trkpt>
      <trkpt lat="45.8387" lon="4.73115">
        <ele>344.98175</ele>
        <time>2023-06-29T16:05:30.000Z</time>
      </trkpt>
      <trkpt lat="45.83867" lon="4.73118">
        <ele>345.07001</ele>
        <time>2023-06-29T16:05:31.000Z</time>
      </trkpt>
      <trkpt lat="45.83864" lon="4.73121">
        <ele>345.17108</ele>
        <time>2023-06-29T16:05:32.000Z</time>
      </trkpt>
      <trkpt lat="45.8386" lon="4.73122">
        <ele>345.27576</ele>
        <time>2023-06-29T16:05:33.000Z</time>
      </trkpt>
      <trkpt lat="45.83857" lon="4.73123">
        <ele>345.35895</ele>
        <time>2023-06-29T16:05:34.000Z</time>
      </trkpt>
      <trkpt lat="45.83854" lon="4.73124">
        <ele>345.39728</ele>
        <time>2023-06-29T16:05:35.000Z</time>
      </trkpt>
      <trkpt lat="45.83852" lon="4.73126">
        <ele>345.41507</ele>
        <time>2023-06-29T16:05:36.000Z</time>
      </trkpt>
      <trkpt lat="45.83849" lon="4.73127">
        <ele>345.44586</ele>
        <time>2023-06-29T16:05:37.000Z</time>
      </trkpt>
      <trkpt lat="45.83847" lon="4.73129">
        <ele>345.43069</ele>
        <time>2023-06-29T16:05:38.000Z</time>
      </trkpt>
      <trkpt lat="45.83845" lon="4.73131">
        <ele>345.42334</ele>
        <time>2023-06-29T16:05:39.000Z</time>
      </trkpt>
      <trkpt lat="45.83843" lon="4.73133">
        <ele>345.44418</ele>
        <time>2023-06-29T16:05:40.000Z</time>
      </trkpt>
      <trkpt lat="45.83841" lon="4.73135">
        <ele>345.45554</ele>
        <time>2023-06-29T16:05:41.000Z</time>
      </trkpt>
      <trkpt lat="45.83839" lon="4.73137">
        <ele>345.46002</ele>
        <time>2023-06-29T16:05:42.000Z</time>
      </trkpt>
      <trkpt lat="45.83837" lon="4.73139">
        <ele>345.4538</ele>
        <time>2023-06-29T16:05:43.000Z</time>
      </trkpt>
      <trkpt lat="45.83834" lon="4.73141">
        <ele>345.44043</ele>
        <time>2023-06-29T16:05:44.000Z</time>
      </trkpt>
      <trkpt lat="45.83832" lon="4.73143">
        <ele>345.42831</ele>
        <time>2023-06-29T16:05:45.000Z</time>
      </trkpt>
      <trkpt lat="45.83829" lon="4.73145">
        <ele>345.31171</ele>
        <time>2023-06-29T16:05:46.000Z</time>
      </trkpt>
      <trkpt lat="45.83827" lon="4.73147">
        <ele>345.19681</ele>
        <time>2023-06-29T16:05:47.000Z</time>
      </trkpt>
      <trkpt lat="45.83825" lon="4.73148">
        <ele>345.01495</ele>
        <time>2023-06-29T16:05:48.000Z</time>
      </trkpt>
      <trkpt lat="45.83822" lon="4.7315">
        <ele>345.01453</ele>
        <time>2023-06-29T16:05:49.000Z</time>
      </trkpt>
      <trkpt lat="45.8382" lon="4.73152">
        <ele>344.98541</ele>
        <time>2023-06-29T16:05:50.000Z</time>
      </trkpt>
      <trkpt lat="45.83817" lon="4.73155">
        <ele>344.94022</ele>
        <time>2023-06-29T16:05:51.000Z</time>
      </trkpt>
      <trkpt lat="45.83814" lon="4.73157">
        <ele>344.89233</ele>
        <time>2023-06-29T16:05:52.000Z</time>
      </trkpt>
      <trkpt lat="45.83811" lon="4.73159">
        <ele>344.84747</ele>
        <time>2023-06-29T16:05:53.000Z</time>
      </trkpt>
      <trkpt lat="45.83808" lon="4.73161">
        <ele>344.80249</ele>
        <time>2023-06-29T16:05:54.000Z</time>
      </trkpt>
      <trkpt lat="45.83805" lon="4.73163">
        <ele>344.77704</ele>
        <time>2023-06-29T16:05:55.000Z</time>
      </trkpt>
      <trkpt lat="45.83802" lon="4.73165">
        <ele>344.79251</ele>
        <time>2023-06-29T16:05:56.000Z</time>
      </trkpt>
      <trkpt lat="45.83799" lon="4.73168">
        <ele>344.78424</ele>
        <time>2023-06-29T16:05:57.000Z</time>
      </trkpt>
      <trkpt lat="45.83796" lon="4.7317">
        <ele>344.75223</ele>
        <time>2023-06-29T16:05:58.000Z</time>
      </trkpt>
      <trkpt lat="45.83793" lon="4.73173">
        <ele>344.70572</ele>
        <time>2023-06-29T16:05:59.000Z</time>
      </trkpt>
      <trkpt lat="45.83791" lon="4.73176">
        <ele>344.64355</ele>
        <time>2023-06-29T16:06:00.000Z</time>
      </trkpt>
      <trkpt lat="45.83789" lon="4.73179">
        <ele>344.60138</ele>
        <time>2023-06-29T16:06:01.000Z</time>
      </trkpt>
      <trkpt lat="45.83786" lon="4.73181">
        <ele>344.55707</ele>
        <time>2023-06-29T16:06:02.000Z</time>
      </trkpt>
      <trkpt lat="45.83782" lon="4.7318">
        <ele>344.66165</ele>
        <time>2023-06-29T16:06:03.000Z</time>
      </trkpt>
      <trkpt lat="45.83779" lon="4.73177">
        <ele>344.79343</ele>
        <time>2023-06-29T16:06:04.000Z</time>
      </trkpt>
      <trkpt lat="45.83777" lon="4.73172">
        <ele>344.92377</ele>
        <time>2023-06-29T16:06:05.000Z</time>
      </trkpt>
      <trkpt lat="45.83777" lon="4.73162">
        <ele>344.88385</ele>
        <time>2023-06-29T16:06:06.000Z</time>
      </trkpt>
      <trkpt lat="45.83774" lon="4.73155">
        <ele>344.81732</ele>
        <time>2023-06-29T16:06:07.000Z</time>
      </trkpt>
      <trkpt lat="45.83772" lon="4.73147">
        <ele>344.73068</ele>
        <time>2023-06-29T16:06:08.000Z</time>
      </trkpt>
      <trkpt lat="45.83768" lon="4.7314">
        <ele>344.66641</ele>
        <time>2023-06-29T16:06:09.000Z</time>
      </trkpt>
      <trkpt lat="45.83765" lon="4.73132">
        <ele>344.59171</ele>
        <time>2023-06-29T16:06:10.000Z</time>
      </trkpt>
      <trkpt lat="45.8376" lon="4.73124">
        <ele>344.5451</ele>
        <time>2023-06-29T16:06:11.000Z</time>
      </trkpt>
      <trkpt lat="45.83757" lon="4.73115">
        <ele>344.4704</ele>
        <time>2023-06-29T16:06:12.000Z</time>
      </trkpt>
      <trkpt lat="45.83753" lon="4.73105">
        <ele>344.38168</ele>
        <time>2023-06-29T16:06:13.000Z</time>
      </trkpt>
      <trkpt lat="45.83749" lon="4.73096">
        <ele>344.24307</ele>
        <time>2023-06-29T16:06:14.000Z</time>
      </trkpt>
      <trkpt lat="45.83747" lon="4.73086">
        <ele>344.07092</ele>
        <time>2023-06-29T16:06:15.000Z</time>
      </trkpt>
      <trkpt lat="45.83749" lon="4.73076">
        <ele>343.82147</ele>
        <time>2023-06-29T16:06:16.000Z</time>
      </trkpt>
      <trkpt lat="45.83751" lon="4.73066">
        <ele>343.6539</ele>
        <time>2023-06-29T16:06:17.000Z</time>
      </trkpt>
      <trkpt lat="45.83752" lon="4.73057">
        <ele>343.49881</ele>
        <time>2023-06-29T16:06:18.000Z</time>
      </trkpt>
      <trkpt lat="45.83749" lon="4.73047">
        <ele>343.32446</ele>
        <time>2023-06-29T16:06:19.000Z</time>
      </trkpt>
      <trkpt lat="45.83748" lon="4.73039">
        <ele>343.19897</ele>
        <time>2023-06-29T16:06:20.000Z</time>
      </trkpt>
      <trkpt lat="45.83743" lon="4.7303">
        <ele>343.0397</ele>
        <time>2023-06-29T16:06:21.000Z</time>
      </trkpt>
      <trkpt lat="45.83739" lon="4.73024">
        <ele>342.59363</ele>
        <time>2023-06-29T16:06:22.000Z</time>
      </trkpt>
      <trkpt lat="45.83734" lon="4.7302">
        <ele>342.0744</ele>
        <time>2023-06-29T16:06:23.000Z</time>
      </trkpt>
      <trkpt lat="45.8373" lon="4.73019">
        <ele>341.54669</ele>
        <time>2023-06-29T16:06:24.000Z</time>
      </trkpt>
      <trkpt lat="45.83726" lon="4.73018">
        <ele>341.00262</ele>
        <time>2023-06-29T16:06:25.000Z</time>
      </trkpt>
      <trkpt lat="45.83722" lon="4.73021">
        <ele>340.65463</ele>
        <time>2023-06-29T16:06:26.000Z</time>
      </trkpt>
      <trkpt lat="45.83716" lon="4.73021">
        <ele>340.37503</ele>
        <time>2023-06-29T16:06:27.000Z</time>
      </trkpt>
      <trkpt lat="45.83712" lon="4.73022">
        <ele>340.11865</ele>
        <time>2023-06-29T16:06:28.000Z</time>
      </trkpt>
      <trkpt lat="45.83708" lon="4.73022">
        <ele>339.88364</ele>
        <time>2023-06-29T16:06:29.000Z</time>
      </trkpt>
      <trkpt lat="45.83702" lon="4.73021">
        <ele>339.6326</ele>
        <time>2023-06-29T16:06:30.000Z</time>
      </trkpt>
      <trkpt lat="45.83697" lon="4.7302">
        <ele>339.40143</ele>
        <time>2023-06-29T16:06:31.000Z</time>
      </trkpt>
      <trkpt lat="45.83693" lon="4.73021">
        <ele>339.33276</ele>
        <time>2023-06-29T16:06:32.000Z</time>
      </trkpt>
      <trkpt lat="45.8369" lon="4.7302">
        <ele>339.2016</ele>
        <time>2023-06-29T16:06:33.000Z</time>
      </trkpt>
      <trkpt lat="45.83684" lon="4.73019">
        <ele>339.22775</ele>
        <time>2023-06-29T16:06:34.000Z</time>
      </trkpt>
      <trkpt lat="45.83681" lon="4.7302">
        <ele>339.41312</ele>
        <time>2023-06-29T16:06:35.000Z</time>
      </trkpt>
      <trkpt lat="45.83676" lon="4.73018">
        <ele>339.2923</ele>
        <time>2023-06-29T16:06:36.000Z</time>
      </trkpt>
      <trkpt lat="45.83673" lon="4.73019">
        <ele>339.16293</ele>
        <time>2023-06-29T16:06:37.000Z</time>
      </trkpt>
      <trkpt lat="45.83669" lon="4.73021">
        <ele>339.13409</ele>
        <time>2023-06-29T16:06:38.000Z</time>
      </trkpt>
      <trkpt lat="45.83665" lon="4.73022">
        <ele>339.17822</ele>
        <time>2023-06-29T16:06:39.000Z</time>
      </trkpt>
      <trkpt lat="45.83662" lon="4.73023">
        <ele>339.11807</ele>
        <time>2023-06-29T16:06:40.000Z</time>
      </trkpt>
      <trkpt lat="45.83658" lon="4.73022">
        <ele>339.08344</ele>
        <time>2023-06-29T16:06:41.000Z</time>
      </trkpt>
      <trkpt lat="45.83654" lon="4.73022">
        <ele>339.29782</ele>
        <time>2023-06-29T16:06:42.000Z</time>
      </trkpt>
      <trkpt lat="45.83651" lon="4.73024">
        <ele>339.50937</ele>
        <time>2023-06-29T16:06:43.000Z</time>
      </trkpt>
      <trkpt lat="45.83648" lon="4.73025">
        <ele>339.66193</ele>
        <time>2023-06-29T16:06:44.000Z</time>
      </trkpt>
      <trkpt lat="45.83645" lon="4.73026">
        <ele>339.79797</ele>
        <time>2023-06-29T16:06:45.000Z</time>
      </trkpt>
      <trkpt lat="45.83642" lon="4.73027">
        <ele>339.91052</ele>
        <time>2023-06-29T16:06:46.000Z</time>
      </trkpt>
      <trkpt lat="45.83639" lon="4.73029">
        <ele>339.94843</ele>
        <time>2023-06-29T16:06:47.000Z</time>
      </trkpt>
      <trkpt lat="45.83636" lon="4.73031">
        <ele>339.98553</ele>
        <time>2023-06-29T16:06:48.000Z</time>
      </trkpt>
      <trkpt lat="45.83633" lon="4.73033">
        <ele>340.06317</ele>
        <time>2023-06-29T16:06:49.000Z</time>
      </trkpt>
      <trkpt lat="45.8363" lon="4.73035">
        <ele>340.18927</ele>
        <time>2023-06-29T16:06:50.000Z</time>
      </trkpt>
      <trkpt lat="45.83626" lon="4.73038">
        <ele>340.31226</ele>
        <time>2023-06-29T16:06:51.000Z</time>
      </trkpt>
      <trkpt lat="45.83623" lon="4.7304">
        <ele>340.3064</ele>
        <time>2023-06-29T16:06:52.000Z</time>
      </trkpt>
      <trkpt lat="45.8362" lon="4.73041">
        <ele>340.4382</ele>
        <time>2023-06-29T16:06:53.000Z</time>
      </trkpt>
      <trkpt lat="45.83617" lon="4.73042">
        <ele>340.51328</ele>
        <time>2023-06-29T16:06:54.000Z</time>
      </trkpt>
      <trkpt lat="45.83613" lon="4.73043">
        <ele>340.49985</ele>
        <time>2023-06-29T16:06:55.000Z</time>
      </trkpt>
      <trkpt lat="45.83609" lon="4.73045">
        <ele>340.89859</ele>
        <time>2023-06-29T16:06:56.000Z</time>
      </trkpt>
      <trkpt lat="45.83606" lon="4.73046">
        <ele>341.24289</ele>
        <time>2023-06-29T16:06:57.000Z</time>
      </trkpt>
      <trkpt lat="45.83602" lon="4.73048">
        <ele>341.53427</ele>
        <time>2023-06-29T16:06:58.000Z</time>
      </trkpt>
      <trkpt lat="45.83598" lon="4.7305">
        <ele>341.82968</ele>
        <time>2023-06-29T16:06:59.000Z</time>
      </trkpt>
      <trkpt lat="45.83595" lon="4.73052">
        <ele>342.34222</ele>
        <time>2023-06-29T16:07:00.000Z</time>
      </trkpt>
      <trkpt lat="45.83591" lon="4.73052">
        <ele>342.86456</ele>
        <time>2023-06-29T16:07:01.000Z</time>
      </trkpt>
      <trkpt lat="45.83587" lon="4.73053">
        <ele>343.54233</ele>
        <time>2023-06-29T16:07:02.000Z</time>
      </trkpt>
      <trkpt lat="45.83583" lon="4.73054">
        <ele>344.17905</ele>
        <time>2023-06-29T16:07:03.000Z</time>
      </trkpt>
      <trkpt lat="45.83579" lon="4.73055">
        <ele>344.68713</ele>
        <time>2023-06-29T16:07:04.000Z</time>
      </trkpt>
      <trkpt lat="45.83576" lon="4.73056">
        <ele>345.24579</ele>
        <time>2023-06-29T16:07:05.000Z</time>
      </trkpt>
      <trkpt lat="45.83573" lon="4.73057">
        <ele>345.80414</ele>
        <time>2023-06-29T16:07:06.000Z</time>
      </trkpt>
      <trkpt lat="45.83569" lon="4.73058">
        <ele>346.35492</ele>
        <time>2023-06-29T16:07:07.000Z</time>
      </trkpt>
      <trkpt lat="45.83566" lon="4.73058">
        <ele>346.81799</ele>
        <time>2023-06-29T16:07:08.000Z</time>
      </trkpt>
      <trkpt lat="45.83563" lon="4.73059">
        <ele>347.17181</ele>
        <time>2023-06-29T16:07:09.000Z</time>
      </trkpt>
      <trkpt lat="45.8356" lon="4.7306">
        <ele>347.69818</ele>
        <time>2023-06-29T16:07:10.000Z</time>
      </trkpt>
      <trkpt lat="45.83557" lon="4.7306">
        <ele>347.46613</ele>
        <time>2023-06-29T16:07:11.000Z</time>
      </trkpt>
      <trkpt lat="45.83553" lon="4.73061">
        <ele>347.25195</ele>
        <time>2023-06-29T16:07:12.000Z</time>
      </trkpt>
      <trkpt lat="45.83548" lon="4.73062">
        <ele>347.63101</ele>
        <time>2023-06-29T16:07:13.000Z</time>
      </trkpt>
      <trkpt lat="45.83541" lon="4.73064">
        <ele>347.92181</ele>
        <time>2023-06-29T16:07:14.000Z</time>
      </trkpt>
      <trkpt lat="45.83537" lon="4.73067">
        <ele>348.10861</ele>
        <time>2023-06-29T16:07:15.000Z</time>
      </trkpt>
      <trkpt lat="45.83531" lon="4.73064">
        <ele>348.10641</ele>
        <time>2023-06-29T16:07:16.000Z</time>
      </trkpt>
      <trkpt lat="45.83525" lon="4.73062">
        <ele>348.02209</ele>
        <time>2023-06-29T16:07:17.000Z</time>
      </trkpt>
      <trkpt lat="45.83518" lon="4.73057">
        <ele>347.89642</ele>
        <time>2023-06-29T16:07:18.000Z</time>
      </trkpt>
      <trkpt lat="45.83513" lon="4.73053">
        <ele>347.18277</ele>
        <time>2023-06-29T16:07:19.000Z</time>
      </trkpt>
      <trkpt lat="45.83507" lon="4.73049">
        <ele>346.30478</ele>
        <time>2023-06-29T16:07:20.000Z</time>
      </trkpt>
      <trkpt lat="45.83501" lon="4.73045">
        <ele>345.4082</ele>
        <time>2023-06-29T16:07:21.000Z</time>
      </trkpt>
      <trkpt lat="45.83496" lon="4.73039">
        <ele>344.367</ele>
        <time>2023-06-29T16:07:22.000Z</time>
      </trkpt>
      <trkpt lat="45.83491" lon="4.73033">
        <ele>343.28082</ele>
        <time>2023-06-29T16:07:23.000Z</time>
      </trkpt>
      <trkpt lat="45.83487" lon="4.73026">
        <ele>342.36386</ele>
        <time>2023-06-29T16:07:24.000Z</time>
      </trkpt>
      <trkpt lat="45.83484" lon="4.73019">
        <ele>341.44006</ele>
        <time>2023-06-29T16:07:25.000Z</time>
      </trkpt>
      <trkpt lat="45.8348" lon="4.73011">
        <ele>340.50574</ele>
        <time>2023-06-29T16:07:26.000Z</time>
      </trkpt>
      <trkpt lat="45.83479" lon="4.73004">
        <ele>339.59711</ele>
        <time>2023-06-29T16:07:27.000Z</time>
      </trkpt>
      <trkpt lat="45.83476" lon="4.72998">
        <ele>338.81049</ele>
        <time>2023-06-29T16:07:28.000Z</time>
      </trkpt>
      <trkpt lat="45.83474" lon="4.7299">
        <ele>338.06085</ele>
        <time>2023-06-29T16:07:29.000Z</time>
      </trkpt>
      <trkpt lat="45.83472" lon="4.72986">
        <ele>337.07556</ele>
        <time>2023-06-29T16:07:30.000Z</time>
      </trkpt>
      <trkpt lat="45.83467" lon="4.72977">
        <ele>336.78793</ele>
        <time>2023-06-29T16:07:31.000Z</time>
      </trkpt>
      <trkpt lat="45.83465" lon="4.72971">
        <ele>336.46887</ele>
        <time>2023-06-29T16:07:32.000Z</time>
      </trkpt>
      <trkpt lat="45.83463" lon="4.72965">
        <ele>335.3266</ele>
        <time>2023-06-29T16:07:33.000Z</time>
      </trkpt>
      <trkpt lat="45.8346" lon="4.72957">
        <ele>334.23758</ele>
        <time>2023-06-29T16:07:34.000Z</time>
      </trkpt>
      <trkpt lat="45.83456" lon="4.72949">
        <ele>333.17078</ele>
        <time>2023-06-29T16:07:35.000Z</time>
      </trkpt>
      <trkpt lat="45.83453" lon="4.72941">
        <ele>332.84521</ele>
        <time>2023-06-29T16:07:36.000Z</time>
      </trkpt>
      <trkpt lat="45.83451" lon="4.72932">
        <ele>332.63541</ele>
        <time>2023-06-29T16:07:37.000Z</time>
      </trkpt>
      <trkpt lat="45.83449" lon="4.72921">
        <ele>332.43448</ele>
        <time>2023-06-29T16:07:38.000Z</time>
      </trkpt>
      <trkpt lat="45.83446" lon="4.7291">
        <ele>332.81979</ele>
        <time>2023-06-29T16:07:39.000Z</time>
      </trkpt>
      <trkpt lat="45.83444" lon="4.729">
        <ele>333.21246</ele>
        <time>2023-06-29T16:07:40.000Z</time>
      </trkpt>
      <trkpt lat="45.83443" lon="4.7289">
        <ele>333.61768</ele>
        <time>2023-06-29T16:07:41.000Z</time>
      </trkpt>
      <trkpt lat="45.8344" lon="4.72879">
        <ele>334.01495</ele>
        <time>2023-06-29T16:07:42.000Z</time>
      </trkpt>
      <trkpt lat="45.83439" lon="4.7287">
        <ele>334.31918</ele>
        <time>2023-06-29T16:07:43.000Z</time>
      </trkpt>
      <trkpt lat="45.83437" lon="4.7286">
        <ele>334.65509</ele>
        <time>2023-06-29T16:07:44.000Z</time>
      </trkpt>
      <trkpt lat="45.83436" lon="4.72851">
        <ele>334.97296</ele>
        <time>2023-06-29T16:07:45.000Z</time>
      </trkpt>
      <trkpt lat="45.83434" lon="4.72841">
        <ele>335.28644</ele>
        <time>2023-06-29T16:07:46.000Z</time>
      </trkpt>
      <trkpt lat="45.83434" lon="4.72834">
        <ele>335.62335</ele>
        <time>2023-06-29T16:07:47.000Z</time>
      </trkpt>
      <trkpt lat="45.83432" lon="4.72826">
        <ele>335.92657</ele>
        <time>2023-06-29T16:07:48.000Z</time>
      </trkpt>
      <trkpt lat="45.83431" lon="4.72816">
        <ele>336.16266</ele>
        <time>2023-06-29T16:07:49.000Z</time>
      </trkpt>
      <trkpt lat="45.83429" lon="4.7281">
        <ele>336.52774</ele>
        <time>2023-06-29T16:07:50.000Z</time>
      </trkpt>
      <trkpt lat="45.83427" lon="4.728">
        <ele>336.86261</ele>
        <time>2023-06-29T16:07:51.000Z</time>
      </trkpt>
      <trkpt lat="45.83428" lon="4.72793">
        <ele>337.48785</ele>
        <time>2023-06-29T16:07:52.000Z</time>
      </trkpt>
      <trkpt lat="45.8343" lon="4.72788">
        <ele>338.43781</ele>
        <time>2023-06-29T16:07:53.000Z</time>
      </trkpt>
      <trkpt lat="45.83433" lon="4.72784">
        <ele>338.93411</ele>
        <time>2023-06-29T16:07:54.000Z</time>
      </trkpt>
      <trkpt lat="45.83439" lon="4.7278">
        <ele>339.51572</ele>
        <time>2023-06-29T16:07:55.000Z</time>
      </trkpt>
      <trkpt lat="45.83445" lon="4.72778">
        <ele>339.24423</ele>
        <time>2023-06-29T16:07:56.000Z</time>
      </trkpt>
      <trkpt lat="45.83449" lon="4.72776">
        <ele>338.84851</ele>
        <time>2023-06-29T16:07:57.000Z</time>
      </trkpt>
      <trkpt lat="45.83455" lon="4.72774">
        <ele>338.42953</ele>
        <time>2023-06-29T16:07:58.000Z</time>
      </trkpt>
      <trkpt lat="45.83458" lon="4.72774">
        <ele>337.79721</ele>
        <time>2023-06-29T16:07:59.000Z</time>
      </trkpt>
      <trkpt lat="45.83463" lon="4.72772">
        <ele>337.24344</ele>
        <time>2023-06-29T16:08:00.000Z</time>
      </trkpt>
      <trkpt lat="45.83468" lon="4.72771">
        <ele>336.55728</ele>
        <time>2023-06-29T16:08:01.000Z</time>
      </trkpt>
      <trkpt lat="45.83472" lon="4.7277">
        <ele>335.88705</ele>
        <time>2023-06-29T16:08:02.000Z</time>
      </trkpt>
      <trkpt lat="45.83478" lon="4.72769">
        <ele>335.4306</ele>
        <time>2023-06-29T16:08:03.000Z</time>
      </trkpt>
      <trkpt lat="45.83483" lon="4.72767">
        <ele>334.91626</ele>
        <time>2023-06-29T16:08:04.000Z</time>
      </trkpt>
      <trkpt lat="45.83489" lon="4.72764">
        <ele>334.3848</ele>
        <time>2023-06-29T16:08:05.000Z</time>
      </trkpt>
      <trkpt lat="45.83494" lon="4.72762">
        <ele>333.97565</ele>
        <time>2023-06-29T16:08:06.000Z</time>
      </trkpt>
      <trkpt lat="45.83501" lon="4.7276">
        <ele>333.47211</ele>
        <time>2023-06-29T16:08:07.000Z</time>
      </trkpt>
      <trkpt lat="45.83506" lon="4.72759">
        <ele>332.94601</ele>
        <time>2023-06-29T16:08:08.000Z</time>
      </trkpt>
      <trkpt lat="45.83512" lon="4.72757">
        <ele>332.4501</ele>
        <time>2023-06-29T16:08:09.000Z</time>
      </trkpt>
      <trkpt lat="45.83518" lon="4.72755">
        <ele>331.88403</ele>
        <time>2023-06-29T16:08:10.000Z</time>
      </trkpt>
      <trkpt lat="45.83524" lon="4.72753">
        <ele>331.55963</ele>
        <time>2023-06-29T16:08:11.000Z</time>
      </trkpt>
      <trkpt lat="45.83531" lon="4.72751">
        <ele>331.07895</ele>
        <time>2023-06-29T16:08:12.000Z</time>
      </trkpt>
      <trkpt lat="45.83538" lon="4.72748">
        <ele>330.61938</ele>
        <time>2023-06-29T16:08:13.000Z</time>
      </trkpt>
      <trkpt lat="45.83545" lon="4.72744">
        <ele>330.20221</ele>
        <time>2023-06-29T16:08:14.000Z</time>
      </trkpt>
      <trkpt lat="45.8355" lon="4.72742">
        <ele>329.88568</ele>
        <time>2023-06-29T16:08:15.000Z</time>
      </trkpt>
      <trkpt lat="45.83555" lon="4.72741">
        <ele>329.81976</ele>
        <time>2023-06-29T16:08:16.000Z</time>
      </trkpt>
      <trkpt lat="45.83561" lon="4.72737">
        <ele>329.80826</ele>
        <time>2023-06-29T16:08:17.000Z</time>
      </trkpt>
      <trkpt lat="45.83567" lon="4.72734">
        <ele>329.789</ele>
        <time>2023-06-29T16:08:18.000Z</time>
      </trkpt>
      <trkpt lat="45.83572" lon="4.72731">
        <ele>330.03787</ele>
        <time>2023-06-29T16:08:19.000Z</time>
      </trkpt>
      <trkpt lat="45.83578" lon="4.72728">
        <ele>330.17386</ele>
        <time>2023-06-29T16:08:20.000Z</time>
      </trkpt>
      <trkpt lat="45.83582" lon="4.72724">
        <ele>330.34601</ele>
        <time>2023-06-29T16:08:21.000Z</time>
      </trkpt>
      <trkpt lat="45.83587" lon="4.72722">
        <ele>329.90823</ele>
        <time>2023-06-29T16:08:22.000Z</time>
      </trkpt>
      <trkpt lat="45.83592" lon="4.72718">
        <ele>329.38782</ele>
        <time>2023-06-29T16:08:23.000Z</time>
      </trkpt>
      <trkpt lat="45.83596" lon="4.72717">
        <ele>328.87827</ele>
        <time>2023-06-29T16:08:24.000Z</time>
      </trkpt>
      <trkpt lat="45.83602" lon="4.72713">
        <ele>328.44363</ele>
        <time>2023-06-29T16:08:25.000Z</time>
      </trkpt>
      <trkpt lat="45.83609" lon="4.72708">
        <ele>327.89142</ele>
        <time>2023-06-29T16:08:26.000Z</time>
      </trkpt>
      <trkpt lat="45.83618" lon="4.727">
        <ele>327.40814</ele>
        <time>2023-06-29T16:08:27.000Z</time>
      </trkpt>
      <trkpt lat="45.83624" lon="4.72692">
        <ele>326.93546</ele>
        <time>2023-06-29T16:08:28.000Z</time>
      </trkpt>
      <trkpt lat="45.8363" lon="4.72685">
        <ele>326.42661</ele>
        <time>2023-06-29T16:08:29.000Z</time>
      </trkpt>
      <trkpt lat="45.83638" lon="4.72679">
        <ele>325.88751</ele>
        <time>2023-06-29T16:08:30.000Z</time>
      </trkpt>
      <trkpt lat="45.83645" lon="4.72676">
        <ele>325.16071</ele>
        <time>2023-06-29T16:08:31.000Z</time>
      </trkpt>
      <trkpt lat="45.83653" lon="4.72672">
        <ele>324.31168</ele>
        <time>2023-06-29T16:08:32.000Z</time>
      </trkpt>
      <trkpt lat="45.8366" lon="4.7267">
        <ele>323.30991</ele>
        <time>2023-06-29T16:08:33.000Z</time>
      </trkpt>
      <trkpt lat="45.83667" lon="4.72666">
        <ele>322.6983</ele>
        <time>2023-06-29T16:08:34.000Z</time>
      </trkpt>
      <trkpt lat="45.83676" lon="4.72663">
        <ele>321.92334</ele>
        <time>2023-06-29T16:08:35.000Z</time>
      </trkpt>
      <trkpt lat="45.83684" lon="4.72659">
        <ele>321.14337</ele>
        <time>2023-06-29T16:08:36.000Z</time>
      </trkpt>
      <trkpt lat="45.83691" lon="4.72656">
        <ele>320.39645</ele>
        <time>2023-06-29T16:08:37.000Z</time>
      </trkpt>
      <trkpt lat="45.83699" lon="4.72655">
        <ele>320.23685</ele>
        <time>2023-06-29T16:08:38.000Z</time>
      </trkpt>
      <trkpt lat="45.83708" lon="4.72651">
        <ele>319.89255</ele>
        <time>2023-06-29T16:08:39.000Z</time>
      </trkpt>
      <trkpt lat="45.83715" lon="4.72648">
        <ele>319.53058</ele>
        <time>2023-06-29T16:08:40.000Z</time>
      </trkpt>
      <trkpt lat="45.83721" lon="4.72647">
        <ele>319.20306</ele>
        <time>2023-06-29T16:08:41.000Z</time>
      </trkpt>
      <trkpt lat="45.83726" lon="4.72643">
        <ele>319.51569</ele>
        <time>2023-06-29T16:08:42.000Z</time>
      </trkpt>
      <trkpt lat="45.83735" lon="4.72641">
        <ele>319.76263</ele>
        <time>2023-06-29T16:08:43.000Z</time>
      </trkpt>
      <trkpt lat="45.83743" lon="4.72638">
        <ele>319.97253</ele>
        <time>2023-06-29T16:08:44.000Z</time>
      </trkpt>
      <trkpt lat="45.8375" lon="4.72636">
        <ele>320.07922</ele>
        <time>2023-06-29T16:08:45.000Z</time>
      </trkpt>
      <trkpt lat="45.83758" lon="4.72633">
        <ele>320.27277</ele>
        <time>2023-06-29T16:08:46.000Z</time>
      </trkpt>
      <trkpt lat="45.83765" lon="4.72631">
        <ele>320.45178</ele>
        <time>2023-06-29T16:08:47.000Z</time>
      </trkpt>
      <trkpt lat="45.83773" lon="4.72628">
        <ele>320.72235</ele>
        <time>2023-06-29T16:08:48.000Z</time>
      </trkpt>
      <trkpt lat="45.8378" lon="4.72625">
        <ele>320.99423</ele>
        <time>2023-06-29T16:08:49.000Z</time>
      </trkpt>
      <trkpt lat="45.83785" lon="4.72624">
        <ele>321.24197</ele>
        <time>2023-06-29T16:08:50.000Z</time>
      </trkpt>
      <trkpt lat="45.83793" lon="4.72621">
        <ele>321.56763</ele>
        <time>2023-06-29T16:08:51.000Z</time>
      </trkpt>
      <trkpt lat="45.838" lon="4.72619">
        <ele>321.90714</ele>
        <time>2023-06-29T16:08:52.000Z</time>
      </trkpt>
      <trkpt lat="45.83804" lon="4.72616">
        <ele>322.20752</ele>
        <time>2023-06-29T16:08:53.000Z</time>
      </trkpt>
      <trkpt lat="45.83811" lon="4.72611">
        <ele>322.56226</ele>
        <time>2023-06-29T16:08:54.000Z</time>
      </trkpt>
      <trkpt lat="45.83816" lon="4.72604">
        <ele>322.89453</ele>
        <time>2023-06-29T16:08:55.000Z</time>
      </trkpt>
      <trkpt lat="45.8382" lon="4.72598">
        <ele>323.24561</ele>
        <time>2023-06-29T16:08:56.000Z</time>
      </trkpt>
      <trkpt lat="45.83823" lon="4.72592">
        <ele>323.0213</ele>
        <time>2023-06-29T16:08:57.000Z</time>
      </trkpt>
      <trkpt lat="45.83826" lon="4.72586">
        <ele>322.22852</ele>
        <time>2023-06-29T16:08:58.000Z</time>
      </trkpt>
      <trkpt lat="45.83828" lon="4.72579">
        <ele>321.60812</ele>
        <time>2023-06-29T16:08:59.000Z</time>
      </trkpt>
      <trkpt lat="45.8383" lon="4.72572">
        <ele>320.98444</ele>
        <time>2023-06-29T16:09:00.000Z</time>
      </trkpt>
      <trkpt lat="45.83832" lon="4.72566">
        <ele>320.42679</ele>
        <time>2023-06-29T16:09:01.000Z</time>
      </trkpt>
      <trkpt lat="45.83833" lon="4.72561">
        <ele>319.94113</ele>
        <time>2023-06-29T16:09:02.000Z</time>
      </trkpt>
      <trkpt lat="45.83835" lon="4.72554">
        <ele>319.57892</ele>
        <time>2023-06-29T16:09:03.000Z</time>
      </trkpt>
      <trkpt lat="45.83838" lon="4.72545">
        <ele>319.24933</ele>
        <time>2023-06-29T16:09:04.000Z</time>
      </trkpt>
      <trkpt lat="45.83839" lon="4.72539">
        <ele>318.90497</ele>
        <time>2023-06-29T16:09:05.000Z</time>
      </trkpt>
      <trkpt lat="45.83841" lon="4.7253">
        <ele>318.52231</ele>
        <time>2023-06-29T16:09:06.000Z</time>
      </trkpt>
      <trkpt lat="45.83842" lon="4.72523">
        <ele>318.04858</ele>
        <time>2023-06-29T16:09:07.000Z</time>
      </trkpt>
      <trkpt lat="45.83842" lon="4.72515">
        <ele>317.53494</ele>
        <time>2023-06-29T16:09:08.000Z</time>
      </trkpt>
      <trkpt lat="45.83841" lon="4.72507">
        <ele>317.09708</ele>
        <time>2023-06-29T16:09:09.000Z</time>
      </trkpt>
      <trkpt lat="45.83841" lon="4.725">
        <ele>316.68204</ele>
        <time>2023-06-29T16:09:10.000Z</time>
      </trkpt>
      <trkpt lat="45.83839" lon="4.72493">
        <ele>316.19989</ele>
        <time>2023-06-29T16:09:11.000Z</time>
      </trkpt>
      <trkpt lat="45.83838" lon="4.72485">
        <ele>315.71054</ele>
        <time>2023-06-29T16:09:12.000Z</time>
      </trkpt>
      <trkpt lat="45.83837" lon="4.72476">
        <ele>315.27234</ele>
        <time>2023-06-29T16:09:13.000Z</time>
      </trkpt>
      <trkpt lat="45.83836" lon="4.72469">
        <ele>315.47931</ele>
        <time>2023-06-29T16:09:14.000Z</time>
      </trkpt>
      <trkpt lat="45.83836" lon="4.72461">
        <ele>315.71036</ele>
        <time>2023-06-29T16:09:15.000Z</time>
      </trkpt>
      <trkpt lat="45.83838" lon="4.72455">
        <ele>315.8877</ele>
        <time>2023-06-29T16:09:16.000Z</time>
      </trkpt>
      <trkpt lat="45.83839" lon="4.7245">
        <ele>316.53711</ele>
        <time>2023-06-29T16:09:17.000Z</time>
      </trkpt>
      <trkpt lat="45.83841" lon="4.72444">
        <ele>317.18515</ele>
        <time>2023-06-29T16:09:18.000Z</time>
      </trkpt>
      <trkpt lat="45.83843" lon="4.72439">
        <ele>317.77667</ele>
        <time>2023-06-29T16:09:19.000Z</time>
      </trkpt>
      <trkpt lat="45.83846" lon="4.72435">
        <ele>317.8623</ele>
        <time>2023-06-29T16:09:20.000Z</time>
      </trkpt>
      <trkpt lat="45.83851" lon="4.72429">
        <ele>317.93695</ele>
        <time>2023-06-29T16:09:21.000Z</time>
      </trkpt>
      <trkpt lat="45.83856" lon="4.72427">
        <ele>317.91382</ele>
        <time>2023-06-29T16:09:22.000Z</time>
      </trkpt>
      <trkpt lat="45.8386" lon="4.72424">
        <ele>318.57355</ele>
        <time>2023-06-29T16:09:23.000Z</time>
      </trkpt>
      <trkpt lat="45.83865" lon="4.72421">
        <ele>319.24741</ele>
        <time>2023-06-29T16:09:24.000Z</time>
      </trkpt>
      <trkpt lat="45.83871" lon="4.72418">
        <ele>319.97949</ele>
        <time>2023-06-29T16:09:25.000Z</time>
      </trkpt>
      <trkpt lat="45.83875" lon="4.72416">
        <ele>320.65991</ele>
        <time>2023-06-29T16:09:26.000Z</time>
      </trkpt>
      <trkpt lat="45.83878" lon="4.72413">
        <ele>321.3905</ele>
        <time>2023-06-29T16:09:27.000Z</time>
      </trkpt>
      <trkpt lat="45.83882" lon="4.72411">
        <ele>322.00958</ele>
        <time>2023-06-29T16:09:28.000Z</time>
      </trkpt>
      <trkpt lat="45.83888" lon="4.72409">
        <ele>322.61627</ele>
        <time>2023-06-29T16:09:29.000Z</time>
      </trkpt>
      <trkpt lat="45.83893" lon="4.72406">
        <ele>323.24573</ele>
        <time>2023-06-29T16:09:30.000Z</time>
      </trkpt>
      <trkpt lat="45.83898" lon="4.72404">
        <ele>323.91528</ele>
        <time>2023-06-29T16:09:31.000Z</time>
      </trkpt>
      <trkpt lat="45.83904" lon="4.72401">
        <ele>324.59335</ele>
        <time>2023-06-29T16:09:32.000Z</time>
      </trkpt>
      <trkpt lat="45.83908" lon="4.72399">
        <ele>325.22885</ele>
        <time>2023-06-29T16:09:33.000Z</time>
      </trkpt>
      <trkpt lat="45.83914" lon="4.72395">
        <ele>324.51276</ele>
        <time>2023-06-29T16:09:34.000Z</time>
      </trkpt>
      <trkpt lat="45.83918" lon="4.72393">
        <ele>323.83917</ele>
        <time>2023-06-29T16:09:35.000Z</time>
      </trkpt>
      <trkpt lat="45.83923" lon="4.72391">
        <ele>323.18872</ele>
        <time>2023-06-29T16:09:36.000Z</time>
      </trkpt>
      <trkpt lat="45.83929" lon="4.72388">
        <ele>322.65488</ele>
        <time>2023-06-29T16:09:37.000Z</time>
      </trkpt>
      <trkpt lat="45.83934" lon="4.72386">
        <ele>322.89078</ele>
        <time>2023-06-29T16:09:38.000Z</time>
      </trkpt>
      <trkpt lat="45.83938" lon="4.72383">
        <ele>323.11038</ele>
        <time>2023-06-29T16:09:39.000Z</time>
      </trkpt>
      <trkpt lat="45.83941" lon="4.72381">
        <ele>323.88055</ele>
        <time>2023-06-29T16:09:40.000Z</time>
      </trkpt>
      <trkpt lat="45.83944" lon="4.72379">
        <ele>324.63962</ele>
        <time>2023-06-29T16:09:41.000Z</time>
      </trkpt>
      <trkpt lat="45.83949" lon="4.72375">
        <ele>325.46396</ele>
        <time>2023-06-29T16:09:42.000Z</time>
      </trkpt>
      <trkpt lat="45.83951" lon="4.72373">
        <ele>325.50787</ele>
        <time>2023-06-29T16:09:43.000Z</time>
      </trkpt>
      <trkpt lat="45.83955" lon="4.7237">
        <ele>325.64374</ele>
        <time>2023-06-29T16:09:44.000Z</time>
      </trkpt>
      <trkpt lat="45.83958" lon="4.72367">
        <ele>324.98114</ele>
        <time>2023-06-29T16:09:45.000Z</time>
      </trkpt>
      <trkpt lat="45.83962" lon="4.72363">
        <ele>325.10553</ele>
        <time>2023-06-29T16:09:46.000Z</time>
      </trkpt>
      <trkpt lat="45.83966" lon="4.7236">
        <ele>325.32596</ele>
        <time>2023-06-29T16:09:47.000Z</time>
      </trkpt>
      <trkpt lat="45.8397" lon="4.72356">
        <ele>325.0799</ele>
        <time>2023-06-29T16:09:48.000Z</time>
      </trkpt>
      <trkpt lat="45.83974" lon="4.72354">
        <ele>324.86124</ele>
        <time>2023-06-29T16:09:49.000Z</time>
      </trkpt>
      <trkpt lat="45.83977" lon="4.72351">
        <ele>324.65829</ele>
        <time>2023-06-29T16:09:50.000Z</time>
      </trkpt>
      <trkpt lat="45.8398" lon="4.72348">
        <ele>324.41693</ele>
        <time>2023-06-29T16:09:51.000Z</time>
      </trkpt>
      <trkpt lat="45.83984" lon="4.72345">
        <ele>324.18448</ele>
        <time>2023-06-29T16:09:52.000Z</time>
      </trkpt>
      <trkpt lat="45.83988" lon="4.72342">
        <ele>324.51776</ele>
        <time>2023-06-29T16:09:53.000Z</time>
      </trkpt>
      <trkpt lat="45.83992" lon="4.72339">
        <ele>325.52545</ele>
        <time>2023-06-29T16:09:54.000Z</time>
      </trkpt>
      <trkpt lat="45.83995" lon="4.72335">
        <ele>326.55414</ele>
        <time>2023-06-29T16:09:55.000Z</time>
      </trkpt>
      <trkpt lat="45.83999" lon="4.72332">
        <ele>327.65634</ele>
        <time>2023-06-29T16:09:56.000Z</time>
      </trkpt>
      <trkpt lat="45.84002" lon="4.72328">
        <ele>328.74582</ele>
        <time>2023-06-29T16:09:57.000Z</time>
      </trkpt>
      <trkpt lat="45.84005" lon="4.72324">
        <ele>328.56659</ele>
        <time>2023-06-29T16:09:58.000Z</time>
      </trkpt>
      <trkpt lat="45.84008" lon="4.7232">
        <ele>328.37988</ele>
        <time>2023-06-29T16:09:59.000Z</time>
      </trkpt>
      <trkpt lat="45.84011" lon="4.72316">
        <ele>328.24295</ele>
        <time>2023-06-29T16:10:00.000Z</time>
      </trkpt>
      <trkpt lat="45.84012" lon="4.72312">
        <ele>328.63403</ele>
        <time>2023-06-29T16:10:01.000Z</time>
      </trkpt>
      <trkpt lat="45.84013" lon="4.72308">
        <ele>328.98969</ele>
        <time>2023-06-29T16:10:02.000Z</time>
      </trkpt>
      <trkpt lat="45.84011" lon="4.72304">
        <ele>329.38065</ele>
        <time>2023-06-29T16:10:03.000Z</time>
      </trkpt>
      <trkpt lat="45.84008" lon="4.723">
        <ele>329.69339</ele>
        <time>2023-06-29T16:10:04.000Z</time>
      </trkpt>
      <trkpt lat="45.84006" lon="4.72296">
        <ele>330.81522</ele>
        <time>2023-06-29T16:10:05.000Z</time>
      </trkpt>
      <trkpt lat="45.84004" lon="4.72291">
        <ele>331.26672</ele>
        <time>2023-06-29T16:10:06.000Z</time>
      </trkpt>
      <trkpt lat="45.84003" lon="4.72286">
        <ele>331.72409</ele>
        <time>2023-06-29T16:10:07.000Z</time>
      </trkpt>
      <trkpt lat="45.84002" lon="4.7228">
        <ele>332.72516</ele>
        <time>2023-06-29T16:10:08.000Z</time>
      </trkpt>
      <trkpt lat="45.83999" lon="4.72275">
        <ele>333.36832</ele>
        <time>2023-06-29T16:10:09.000Z</time>
      </trkpt>
      <trkpt lat="45.83996" lon="4.7227">
        <ele>334.04187</ele>
        <time>2023-06-29T16:10:10.000Z</time>
      </trkpt>
      <trkpt lat="45.83994" lon="4.72264">
        <ele>334.70938</ele>
        <time>2023-06-29T16:10:11.000Z</time>
      </trkpt>
      <trkpt lat="45.83991" lon="4.72259">
        <ele>335.35342</ele>
        <time>2023-06-29T16:10:12.000Z</time>
      </trkpt>
      <trkpt lat="45.83988" lon="4.72255">
        <ele>335.43597</ele>
        <time>2023-06-29T16:10:13.000Z</time>
      </trkpt>
      <trkpt lat="45.83985" lon="4.7225">
        <ele>335.50433</ele>
        <time>2023-06-29T16:10:14.000Z</time>
      </trkpt>
      <trkpt lat="45.83983" lon="4.72244">
        <ele>335.54181</ele>
        <time>2023-06-29T16:10:15.000Z</time>
      </trkpt>
      <trkpt lat="45.8398" lon="4.72238">
        <ele>335.53558</ele>
        <time>2023-06-29T16:10:16.000Z</time>
      </trkpt>
      <trkpt lat="45.83978" lon="4.72233">
        <ele>335.51373</ele>
        <time>2023-06-29T16:10:17.000Z</time>
      </trkpt>
      <trkpt lat="45.83975" lon="4.72227">
        <ele>336.00922</ele>
        <time>2023-06-29T16:10:18.000Z</time>
      </trkpt>
      <trkpt lat="45.83972" lon="4.72221">
        <ele>336.48929</ele>
        <time>2023-06-29T16:10:19.000Z</time>
      </trkpt>
      <trkpt lat="45.83969" lon="4.72215">
        <ele>336.94073</ele>
        <time>2023-06-29T16:10:20.000Z</time>
      </trkpt>
      <trkpt lat="45.83967" lon="4.72209">
        <ele>336.87177</ele>
        <time>2023-06-29T16:10:21.000Z</time>
      </trkpt>
      <trkpt lat="45.83964" lon="4.72204">
        <ele>336.79718</ele>
        <time>2023-06-29T16:10:22.000Z</time>
      </trkpt>
      <trkpt lat="45.83961" lon="4.72198">
        <ele>336.75681</ele>
        <time>2023-06-29T16:10:23.000Z</time>
      </trkpt>
      <trkpt lat="45.83958" lon="4.72192">
        <ele>336.70059</ele>
        <time>2023-06-29T16:10:24.000Z</time>
      </trkpt>
      <trkpt lat="45.83954" lon="4.72186">
        <ele>336.64493</ele>
        <time>2023-06-29T16:10:25.000Z</time>
      </trkpt>
      <trkpt lat="45.8395" lon="4.7218">
        <ele>336.47351</ele>
        <time>2023-06-29T16:10:26.000Z</time>
      </trkpt>
      <trkpt lat="45.83946" lon="4.72176">
        <ele>336.26544</ele>
        <time>2023-06-29T16:10:27.000Z</time>
      </trkpt>
      <trkpt lat="45.83944" lon="4.7217">
        <ele>336.05316</ele>
        <time>2023-06-29T16:10:28.000Z</time>
      </trkpt>
      <trkpt lat="45.83944" lon="4.72163">
        <ele>336.1911</ele>
        <time>2023-06-29T16:10:29.000Z</time>
      </trkpt>
      <trkpt lat="45.83947" lon="4.72159">
        <ele>336.48419</ele>
        <time>2023-06-29T16:10:30.000Z</time>
      </trkpt>
      <trkpt lat="45.83951" lon="4.72158">
        <ele>336.81528</ele>
        <time>2023-06-29T16:10:31.000Z</time>
      </trkpt>
      <trkpt lat="45.83956" lon="4.7216">
        <ele>336.81964</ele>
        <time>2023-06-29T16:10:32.000Z</time>
      </trkpt>
      <trkpt lat="45.8396" lon="4.72161">
        <ele>336.88696</ele>
        <time>2023-06-29T16:10:33.000Z</time>
      </trkpt>
      <trkpt lat="45.83965" lon="4.72163">
        <ele>337.22479</ele>
        <time>2023-06-29T16:10:34.000Z</time>
      </trkpt>
      <trkpt lat="45.83969" lon="4.72164">
        <ele>336.68463</ele>
        <time>2023-06-29T16:10:35.000Z</time>
      </trkpt>
      <trkpt lat="45.83974" lon="4.72166">
        <ele>336.10867</ele>
        <time>2023-06-29T16:10:36.000Z</time>
      </trkpt>
      <trkpt lat="45.83979" lon="4.72168">
        <ele>335.49539</ele>
        <time>2023-06-29T16:10:37.000Z</time>
      </trkpt>
      <trkpt lat="45.83984" lon="4.72168">
        <ele>334.86566</ele>
        <time>2023-06-29T16:10:38.000Z</time>
      </trkpt>
      <trkpt lat="45.83988" lon="4.7217">
        <ele>334.22549</ele>
        <time>2023-06-29T16:10:39.000Z</time>
      </trkpt>
      <trkpt lat="45.83994" lon="4.7217">
        <ele>333.57272</ele>
        <time>2023-06-29T16:10:40.000Z</time>
      </trkpt>
      <trkpt lat="45.83999" lon="4.72172">
        <ele>332.9007</ele>
        <time>2023-06-29T16:10:41.000Z</time>
      </trkpt>
      <trkpt lat="45.84004" lon="4.72171">
        <ele>332.22607</ele>
        <time>2023-06-29T16:10:42.000Z</time>
      </trkpt>
      <trkpt lat="45.84009" lon="4.72169">
        <ele>331.48096</ele>
        <time>2023-06-29T16:10:43.000Z</time>
      </trkpt>
      <trkpt lat="45.84013" lon="4.72166">
        <ele>330.74005</ele>
        <time>2023-06-29T16:10:44.000Z</time>
      </trkpt>
      <trkpt lat="45.84017" lon="4.7216">
        <ele>330.01062</ele>
        <time>2023-06-29T16:10:45.000Z</time>
      </trkpt>
      <trkpt lat="45.8402" lon="4.72154">
        <ele>329.31628</ele>
        <time>2023-06-29T16:10:46.000Z</time>
      </trkpt>
      <trkpt lat="45.84021" lon="4.72146">
        <ele>328.63617</ele>
        <time>2023-06-29T16:10:47.000Z</time>
      </trkpt>
      <trkpt lat="45.84022" lon="4.72138">
        <ele>327.96414</ele>
        <time>2023-06-29T16:10:48.000Z</time>
      </trkpt>
      <trkpt lat="45.84022" lon="4.72129">
        <ele>327.39487</ele>
        <time>2023-06-29T16:10:49.000Z</time>
      </trkpt>
      <trkpt lat="45.84021" lon="4.72119">
        <ele>326.61359</ele>
        <time>2023-06-29T16:10:50.000Z</time>
      </trkpt>
      <trkpt lat="45.8402" lon="4.7211">
        <ele>325.78635</ele>
        <time>2023-06-29T16:10:51.000Z</time>
      </trkpt>
      <trkpt lat="45.84019" lon="4.721">
        <ele>325.28156</ele>
        <time>2023-06-29T16:10:52.000Z</time>
      </trkpt>
      <trkpt lat="45.84019" lon="4.72091">
        <ele>324.74045</ele>
        <time>2023-06-29T16:10:53.000Z</time>
      </trkpt>
      <trkpt lat="45.84018" lon="4.72082">
        <ele>323.92477</ele>
        <time>2023-06-29T16:10:54.000Z</time>
      </trkpt>
      <trkpt lat="45.84017" lon="4.72073">
        <ele>323.97861</ele>
        <time>2023-06-29T16:10:55.000Z</time>
      </trkpt>
      <trkpt lat="45.84017" lon="4.72064">
        <ele>324.03821</ele>
        <time>2023-06-29T16:10:56.000Z</time>
      </trkpt>
      <trkpt lat="45.84016" lon="4.72055">
        <ele>324.16608</ele>
        <time>2023-06-29T16:10:57.000Z</time>
      </trkpt>
      <trkpt lat="45.84016" lon="4.72046">
        <ele>324.80466</ele>
        <time>2023-06-29T16:10:58.000Z</time>
      </trkpt>
      <trkpt lat="45.84015" lon="4.72038">
        <ele>325.45746</ele>
        <time>2023-06-29T16:10:59.000Z</time>
      </trkpt>
      <trkpt lat="45.84015" lon="4.72029">
        <ele>326.14716</ele>
        <time>2023-06-29T16:11:00.000Z</time>
      </trkpt>
      <trkpt lat="45.84015" lon="4.7202">
        <ele>326.84491</ele>
        <time>2023-06-29T16:11:01.000Z</time>
      </trkpt>
      <trkpt lat="45.84014" lon="4.72013">
        <ele>327.53702</ele>
        <time>2023-06-29T16:11:02.000Z</time>
      </trkpt>
      <trkpt lat="45.84014" lon="4.72004">
        <ele>328.27841</ele>
        <time>2023-06-29T16:11:03.000Z</time>
      </trkpt>
      <trkpt lat="45.84014" lon="4.71997">
        <ele>329.02173</ele>
        <time>2023-06-29T16:11:04.000Z</time>
      </trkpt>
      <trkpt lat="45.84013" lon="4.71989">
        <ele>329.75995</ele>
        <time>2023-06-29T16:11:05.000Z</time>
      </trkpt>
      <trkpt lat="45.84013" lon="4.71982">
        <ele>330.49481</ele>
        <time>2023-06-29T16:11:06.000Z</time>
      </trkpt>
      <trkpt lat="45.84012" lon="4.71975">
        <ele>331.20477</ele>
        <time>2023-06-29T16:11:07.000Z</time>
      </trkpt>
      <trkpt lat="45.84013" lon="4.71967">
        <ele>331.87796</ele>
        <time>2023-06-29T16:11:08.000Z</time>
      </trkpt>
      <trkpt lat="45.84012" lon="4.7196">
        <ele>332.43808</ele>
        <time>2023-06-29T16:11:09.000Z</time>
      </trkpt>
      <trkpt lat="45.84012" lon="4.71952">
        <ele>333.00043</ele>
        <time>2023-06-29T16:11:10.000Z</time>
      </trkpt>
      <trkpt lat="45.84011" lon="4.71945">
        <ele>333.61224</ele>
        <time>2023-06-29T16:11:11.000Z</time>
      </trkpt>
      <trkpt lat="45.8401" lon="4.71938">
        <ele>334.41196</ele>
        <time>2023-06-29T16:11:12.000Z</time>
      </trkpt>
      <trkpt lat="45.8401" lon="4.7193">
        <ele>335.27777</ele>
        <time>2023-06-29T16:11:13.000Z</time>
      </trkpt>
      <trkpt lat="45.84009" lon="4.71925">
        <ele>336.18567</ele>
        <time>2023-06-29T16:11:14.000Z</time>
      </trkpt>
      <trkpt lat="45.84009" lon="4.71918">
        <ele>337.12305</ele>
        <time>2023-06-29T16:11:15.000Z</time>
      </trkpt>
      <trkpt lat="45.84008" lon="4.71912">
        <ele>337.80869</ele>
        <time>2023-06-29T16:11:16.000Z</time>
      </trkpt>
      <trkpt lat="45.84008" lon="4.71906">
        <ele>338.53018</ele>
        <time>2023-06-29T16:11:17.000Z</time>
      </trkpt>
      <trkpt lat="45.84008" lon="4.71901">
        <ele>338.7666</ele>
        <time>2023-06-29T16:11:18.000Z</time>
      </trkpt>
      <trkpt lat="45.84007" lon="4.71894">
        <ele>338.99976</ele>
        <time>2023-06-29T16:11:19.000Z</time>
      </trkpt>
      <trkpt lat="45.84006" lon="4.71888">
        <ele>339.22647</ele>
        <time>2023-06-29T16:11:20.000Z</time>
      </trkpt>
      <trkpt lat="45.84003" lon="4.71882">
        <ele>339.45187</ele>
        <time>2023-06-29T16:11:21.000Z</time>
      </trkpt>
      <trkpt lat="45.84" lon="4.71878">
        <ele>339.81403</ele>
        <time>2023-06-29T16:11:22.000Z</time>
      </trkpt>
      <trkpt lat="45.83997" lon="4.71873">
        <ele>340.12268</ele>
        <time>2023-06-29T16:11:23.000Z</time>
      </trkpt>
      <trkpt lat="45.83994" lon="4.71868">
        <ele>340.44095</ele>
        <time>2023-06-29T16:11:24.000Z</time>
      </trkpt>
      <trkpt lat="45.83991" lon="4.71864">
        <ele>340.73602</ele>
        <time>2023-06-29T16:11:25.000Z</time>
      </trkpt>
      <trkpt lat="45.83988" lon="4.7186">
        <ele>341.02872</ele>
        <time>2023-06-29T16:11:26.000Z</time>
      </trkpt>
      <trkpt lat="45.83985" lon="4.71856">
        <ele>341.33112</ele>
        <time>2023-06-29T16:11:27.000Z</time>
      </trkpt>
      <trkpt lat="45.83981" lon="4.71852">
        <ele>341.6666</ele>
        <time>2023-06-29T16:11:28.000Z</time>
      </trkpt>
      <trkpt lat="45.83978" lon="4.71847">
        <ele>341.98526</ele>
        <time>2023-06-29T16:11:29.000Z</time>
      </trkpt>
      <trkpt lat="45.83975" lon="4.71841">
        <ele>342.2811</ele>
        <time>2023-06-29T16:11:30.000Z</time>
      </trkpt>
      <trkpt lat="45.83971" lon="4.71836">
        <ele>342.57294</ele>
        <time>2023-06-29T16:11:31.000Z</time>
      </trkpt>
      <trkpt lat="45.83968" lon="4.7183">
        <ele>342.68054</ele>
        <time>2023-06-29T16:11:32.000Z</time>
      </trkpt>
      <trkpt lat="45.83964" lon="4.71824">
        <ele>342.7009</ele>
        <time>2023-06-29T16:11:33.000Z</time>
      </trkpt>
      <trkpt lat="45.8396" lon="4.71819">
        <ele>342.66559</ele>
        <time>2023-06-29T16:11:34.000Z</time>
      </trkpt>
      <trkpt lat="45.83957" lon="4.71814">
        <ele>342.59869</ele>
        <time>2023-06-29T16:11:35.000Z</time>
      </trkpt>
      <trkpt lat="45.83954" lon="4.71807">
        <ele>342.79254</ele>
        <time>2023-06-29T16:11:36.000Z</time>
      </trkpt>
      <trkpt lat="45.83952" lon="4.718">
        <ele>342.94574</ele>
        <time>2023-06-29T16:11:37.000Z</time>
      </trkpt>
      <trkpt lat="45.8395" lon="4.71793">
        <ele>343.10785</ele>
        <time>2023-06-29T16:11:38.000Z</time>
      </trkpt>
      <trkpt lat="45.83948" lon="4.71786">
        <ele>343.2536</ele>
        <time>2023-06-29T16:11:39.000Z</time>
      </trkpt>
      <trkpt lat="45.83947" lon="4.71779">
        <ele>343.38126</ele>
        <time>2023-06-29T16:11:40.000Z</time>
      </trkpt>
      <trkpt lat="45.83944" lon="4.71771">
        <ele>343.5079</ele>
        <time>2023-06-29T16:11:41.000Z</time>
      </trkpt>
      <trkpt lat="45.83941" lon="4.71764">
        <ele>343.49527</ele>
        <time>2023-06-29T16:11:42.000Z</time>
      </trkpt>
      <trkpt lat="45.83936" lon="4.71759">
        <ele>343.49408</ele>
        <time>2023-06-29T16:11:43.000Z</time>
      </trkpt>
      <trkpt lat="45.83932" lon="4.71756">
        <ele>343.47128</ele>
        <time>2023-06-29T16:11:44.000Z</time>
      </trkpt>
      <trkpt lat="45.83927" lon="4.71753">
        <ele>343.36359</ele>
        <time>2023-06-29T16:11:45.000Z</time>
      </trkpt>
      <trkpt lat="45.83922" lon="4.71751">
        <ele>343.24173</ele>
        <time>2023-06-29T16:11:46.000Z</time>
      </trkpt>
      <trkpt lat="45.83917" lon="4.71748">
        <ele>343.11884</ele>
        <time>2023-06-29T16:11:47.000Z</time>
      </trkpt>
      <trkpt lat="45.83913" lon="4.71747">
        <ele>342.9704</ele>
        <time>2023-06-29T16:11:48.000Z</time>
      </trkpt>
      <trkpt lat="45.83908" lon="4.71745">
        <ele>342.81943</ele>
        <time>2023-06-29T16:11:49.000Z</time>
      </trkpt>
      <trkpt lat="45.83903" lon="4.71742">
        <ele>342.66583</ele>
        <time>2023-06-29T16:11:50.000Z</time>
      </trkpt>
      <trkpt lat="45.83897" lon="4.71739">
        <ele>342.46695</ele>
        <time>2023-06-29T16:11:51.000Z</time>
      </trkpt>
      <trkpt lat="45.83892" lon="4.71736">
        <ele>342.27713</ele>
        <time>2023-06-29T16:11:52.000Z</time>
      </trkpt>
      <trkpt lat="45.83886" lon="4.71734">
        <ele>342.09839</ele>
        <time>2023-06-29T16:11:53.000Z</time>
      </trkpt>
      <trkpt lat="45.8388" lon="4.71731">
        <ele>341.91019</ele>
        <time>2023-06-29T16:11:54.000Z</time>
      </trkpt>
      <trkpt lat="45.83874" lon="4.71728">
        <ele>341.70612</ele>
        <time>2023-06-29T16:11:55.000Z</time>
      </trkpt>
      <trkpt lat="45.83867" lon="4.71725">
        <ele>341.50427</ele>
        <time>2023-06-29T16:11:56.000Z</time>
      </trkpt>
      <trkpt lat="45.8386" lon="4.71722">
        <ele>341.26871</ele>
        <time>2023-06-29T16:11:57.000Z</time>
      </trkpt>
      <trkpt lat="45.83853" lon="4.7172">
        <ele>341.00253</ele>
        <time>2023-06-29T16:11:58.000Z</time>
      </trkpt>
      <trkpt lat="45.83847" lon="4.71718">
        <ele>340.73169</ele>
        <time>2023-06-29T16:11:59.000Z</time>
      </trkpt>
      <trkpt lat="45.83841" lon="4.71718">
        <ele>340.43317</ele>
        <time>2023-06-29T16:12:00.000Z</time>
      </trkpt>
      <trkpt lat="45.83833" lon="4.71718">
        <ele>340.15891</ele>
        <time>2023-06-29T16:12:01.000Z</time>
      </trkpt>
      <trkpt lat="45.83826" lon="4.71717">
        <ele>339.9151</ele>
        <time>2023-06-29T16:12:02.000Z</time>
      </trkpt>
      <trkpt lat="45.83819" lon="4.71715">
        <ele>339.64215</ele>
        <time>2023-06-29T16:12:03.000Z</time>
      </trkpt>
      <trkpt lat="45.83813" lon="4.71712">
        <ele>339.38345</ele>
        <time>2023-06-29T16:12:04.000Z</time>
      </trkpt>
      <trkpt lat="45.83807" lon="4.7171">
        <ele>339.22464</ele>
        <time>2023-06-29T16:12:05.000Z</time>
      </trkpt>
      <trkpt lat="45.838" lon="4.7171">
        <ele>339.06476</ele>
        <time>2023-06-29T16:12:06.000Z</time>
      </trkpt>
      <trkpt lat="45.83795" lon="4.71709">
        <ele>338.9151</ele>
        <time>2023-06-29T16:12:07.000Z</time>
      </trkpt>
      <trkpt lat="45.83789" lon="4.71707">
        <ele>338.77878</ele>
        <time>2023-06-29T16:12:08.000Z</time>
      </trkpt>
      <trkpt lat="45.83783" lon="4.71706">
        <ele>338.64407</ele>
        <time>2023-06-29T16:12:09.000Z</time>
      </trkpt>
      <trkpt lat="45.83776" lon="4.71702">
        <ele>338.51105</ele>
        <time>2023-06-29T16:12:10.000Z</time>
      </trkpt>
      <trkpt lat="45.83769" lon="4.71702">
        <ele>338.42624</ele>
        <time>2023-06-29T16:12:11.000Z</time>
      </trkpt>
      <trkpt lat="45.83762" lon="4.71701">
        <ele>338.34131</ele>
        <time>2023-06-29T16:12:12.000Z</time>
      </trkpt>
      <trkpt lat="45.83755" lon="4.71701">
        <ele>338.21509</ele>
        <time>2023-06-29T16:12:13.000Z</time>
      </trkpt>
      <trkpt lat="45.8375" lon="4.71698">
        <ele>338.07013</ele>
        <time>2023-06-29T16:12:14.000Z</time>
      </trkpt>
      <trkpt lat="45.83743" lon="4.71697">
        <ele>337.92737</ele>
        <time>2023-06-29T16:12:15.000Z</time>
      </trkpt>
      <trkpt lat="45.83737" lon="4.71697">
        <ele>337.75333</ele>
        <time>2023-06-29T16:12:16.000Z</time>
      </trkpt>
      <trkpt lat="45.8373" lon="4.71698">
        <ele>337.55145</ele>
        <time>2023-06-29T16:12:17.000Z</time>
      </trkpt>
      <trkpt lat="45.83725" lon="4.71694">
        <ele>337.3634</ele>
        <time>2023-06-29T16:12:18.000Z</time>
      </trkpt>
      <trkpt lat="45.83721" lon="4.71689">
        <ele>337.18884</ele>
        <time>2023-06-29T16:12:19.000Z</time>
      </trkpt>
      <trkpt lat="45.83718" lon="4.71684">
        <ele>337.02539</ele>
        <time>2023-06-29T16:12:20.000Z</time>
      </trkpt>
      <trkpt lat="45.83715" lon="4.71678">
        <ele>336.86945</ele>
        <time>2023-06-29T16:12:21.000Z</time>
      </trkpt>
      <trkpt lat="45.83713" lon="4.71673">
        <ele>336.63379</ele>
        <time>2023-06-29T16:12:22.000Z</time>
      </trkpt>
      <trkpt lat="45.83711" lon="4.71669">
        <ele>336.44931</ele>
        <time>2023-06-29T16:12:23.000Z</time>
      </trkpt>
      <trkpt lat="45.83709" lon="4.71664">
        <ele>336.28613</ele>
        <time>2023-06-29T16:12:24.000Z</time>
      </trkpt>
      <trkpt lat="45.83708" lon="4.7166">
        <ele>336.13873</ele>
        <time>2023-06-29T16:12:25.000Z</time>
      </trkpt>
      <trkpt lat="45.83707" lon="4.71658">
        <ele>336.00058</ele>
        <time>2023-06-29T16:12:26.000Z</time>
      </trkpt>
      <trkpt lat="45.83705" lon="4.71657">
        <ele>335.90756</ele>
        <time>2023-06-29T16:12:29.000Z</time>
      </trkpt>
      <trkpt lat="45.83706" lon="4.71662">
        <ele>335.44818</ele>
        <time>2023-06-29T16:13:16.000Z</time>
      </trkpt>
      <trkpt lat="45.83708" lon="4.71665">
        <ele>335.01352</ele>
        <time>2023-06-29T16:13:17.000Z</time>
      </trkpt>
      <trkpt lat="45.83709" lon="4.71668">
        <ele>334.52902</ele>
        <time>2023-06-29T16:13:18.000Z</time>
      </trkpt>
      <trkpt lat="45.8371" lon="4.71671">
        <ele>334.20743</ele>
        <time>2023-06-29T16:13:19.000Z</time>
      </trkpt>
      <trkpt lat="45.83711" lon="4.71675">
        <ele>333.89374</ele>
        <time>2023-06-29T16:13:20.000Z</time>
      </trkpt>
      <trkpt lat="45.83712" lon="4.7168">
        <ele>333.51624</ele>
        <time>2023-06-29T16:13:21.000Z</time>
      </trkpt>
      <trkpt lat="45.83714" lon="4.71685">
        <ele>333.15698</ele>
        <time>2023-06-29T16:13:22.000Z</time>
      </trkpt>
      <trkpt lat="45.83716" lon="4.71689">
        <ele>332.77948</ele>
        <time>2023-06-29T16:13:23.000Z</time>
      </trkpt>
      <trkpt lat="45.83719" lon="4.71692">
        <ele>332.45755</ele>
        <time>2023-06-29T16:13:24.000Z</time>
      </trkpt>
      <trkpt lat="45.83722" lon="4.71693">
        <ele>332.32825</ele>
        <time>2023-06-29T16:13:25.000Z</time>
      </trkpt>
      <trkpt lat="45.83724" lon="4.71693">
        <ele>331.80014</ele>
        <time>2023-06-29T16:13:26.000Z</time>
      </trkpt>
      <trkpt lat="45.83726" lon="4.71693">
        <ele>331.3327</ele>
        <time>2023-06-29T16:13:27.000Z</time>
      </trkpt>
      <trkpt lat="45.83728" lon="4.71696">
        <ele>330.90225</ele>
        <time>2023-06-29T16:13:29.000Z</time>
      </trkpt>
      <trkpt lat="45.83725" lon="4.71697">
        <ele>330.35413</ele>
        <time>2023-06-29T16:13:31.000Z</time>
      </trkpt>
      <trkpt lat="45.83723" lon="4.71696">
        <ele>329.88348</ele>
        <time>2023-06-29T16:13:32.000Z</time>
      </trkpt>
      <trkpt lat="45.8372" lon="4.71694">
        <ele>329.41388</ele>
        <time>2023-06-29T16:13:33.000Z</time>
      </trkpt>
      <trkpt lat="45.83718" lon="4.71692">
        <ele>328.91019</ele>
        <time>2023-06-29T16:13:34.000Z</time>
      </trkpt>
      <trkpt lat="45.83716" lon="4.71689">
        <ele>328.35431</ele>
        <time>2023-06-29T16:13:35.000Z</time>
      </trkpt>
      <trkpt lat="45.83714" lon="4.71684">
        <ele>327.80014</ele>
        <time>2023-06-29T16:13:36.000Z</time>
      </trkpt>
      <trkpt lat="45.83713" lon="4.7168">
        <ele>327.16772</ele>
        <time>2023-06-29T16:13:37.000Z</time>
      </trkpt>
      <trkpt lat="45.83712" lon="4.71676">
        <ele>326.88458</ele>
        <time>2023-06-29T16:13:38.000Z</time>
      </trkpt>
      <trkpt lat="45.83711" lon="4.71672">
        <ele>326.61017</ele>
        <time>2023-06-29T16:13:39.000Z</time>
      </trkpt>
      <trkpt lat="45.8371" lon="4.71668">
        <ele>326.39139</ele>
        <time>2023-06-29T16:13:40.000Z</time>
      </trkpt>
      <trkpt lat="45.83709" lon="4.71665">
        <ele>325.96274</ele>
        <time>2023-06-29T16:13:41.000Z</time>
      </trkpt>
      <trkpt lat="45.83707" lon="4.71661">
        <ele>325.50168</ele>
        <time>2023-06-29T16:13:42.000Z</time>
      </trkpt>
      <trkpt lat="45.83706" lon="4.71657">
        <ele>325.14639</ele>
        <time>2023-06-29T16:13:43.000Z</time>
      </trkpt>
      <trkpt lat="45.83704" lon="4.71653">
        <ele>324.82407</ele>
        <time>2023-06-29T16:13:44.000Z</time>
      </trkpt>
      <trkpt lat="45.83702" lon="4.71649">
        <ele>324.54907</ele>
        <time>2023-06-29T16:13:45.000Z</time>
      </trkpt>
      <trkpt lat="45.837" lon="4.71646">
        <ele>324.27307</ele>
        <time>2023-06-29T16:13:46.000Z</time>
      </trkpt>
      <trkpt lat="45.83697" lon="4.71644">
        <ele>323.8902</ele>
        <time>2023-06-29T16:13:47.000Z</time>
      </trkpt>
      <trkpt lat="45.83694" lon="4.71643">
        <ele>323.9332</ele>
        <time>2023-06-29T16:13:48.000Z</time>
      </trkpt>
      <trkpt lat="45.8369" lon="4.71643">
        <ele>323.95956</ele>
        <time>2023-06-29T16:13:49.000Z</time>
      </trkpt>
      <trkpt lat="45.83687" lon="4.71644">
        <ele>324.1983</ele>
        <time>2023-06-29T16:13:50.000Z</time>
      </trkpt>
      <trkpt lat="45.83684" lon="4.71646">
        <ele>324.49554</ele>
        <time>2023-06-29T16:13:51.000Z</time>
      </trkpt>
      <trkpt lat="45.83681" lon="4.71647">
        <ele>324.77167</ele>
        <time>2023-06-29T16:13:52.000Z</time>
      </trkpt>
      <trkpt lat="45.83677" lon="4.71649">
        <ele>324.98788</ele>
        <time>2023-06-29T16:13:53.000Z</time>
      </trkpt>
      <trkpt lat="45.83674" lon="4.7165">
        <ele>325.15906</ele>
        <time>2023-06-29T16:13:54.000Z</time>
      </trkpt>
      <trkpt lat="45.83671" lon="4.71651">
        <ele>325.36655</ele>
        <time>2023-06-29T16:13:55.000Z</time>
      </trkpt>
      <trkpt lat="45.83668" lon="4.71652">
        <ele>325.59961</ele>
        <time>2023-06-29T16:13:56.000Z</time>
      </trkpt>
      <trkpt lat="45.83665" lon="4.71651">
        <ele>325.83456</ele>
        <time>2023-06-29T16:13:57.000Z</time>
      </trkpt>
      <trkpt lat="45.83662" lon="4.71651">
        <ele>326.41028</ele>
        <time>2023-06-29T16:13:58.000Z</time>
      </trkpt>
      <trkpt lat="45.8366" lon="4.7165">
        <ele>327.01984</ele>
        <time>2023-06-29T16:13:59.000Z</time>
      </trkpt>
      <trkpt lat="45.83657" lon="4.71649">
        <ele>327.62665</ele>
        <time>2023-06-29T16:14:00.000Z</time>
      </trkpt>
      <trkpt lat="45.83654" lon="4.71649">
        <ele>328.23532</ele>
        <time>2023-06-29T16:14:01.000Z</time>
      </trkpt>
      <trkpt lat="45.83652" lon="4.71649">
        <ele>328.91541</ele>
        <time>2023-06-29T16:14:02.000Z</time>
      </trkpt>
      <trkpt lat="45.83649" lon="4.71648">
        <ele>329.59918</ele>
        <time>2023-06-29T16:14:03.000Z</time>
      </trkpt>
      <trkpt lat="45.83647" lon="4.71647">
        <ele>330.27728</ele>
        <time>2023-06-29T16:14:04.000Z</time>
      </trkpt>
      <trkpt lat="45.83644" lon="4.71645">
        <ele>330.59439</ele>
        <time>2023-06-29T16:14:05.000Z</time>
      </trkpt>
      <trkpt lat="45.83642" lon="4.71644">
        <ele>330.98419</ele>
        <time>2023-06-29T16:14:06.000Z</time>
      </trkpt>
      <trkpt lat="45.8364" lon="4.71642">
        <ele>331.35641</ele>
        <time>2023-06-29T16:14:07.000Z</time>
      </trkpt>
      <trkpt lat="45.83638" lon="4.7164">
        <ele>331.75696</ele>
        <time>2023-06-29T16:14:08.000Z</time>
      </trkpt>
      <trkpt lat="45.83637" lon="4.71638">
        <ele>332.12262</ele>
        <time>2023-06-29T16:14:09.000Z</time>
      </trkpt>
      <trkpt lat="45.83635" lon="4.71635">
        <ele>332.27914</ele>
        <time>2023-06-29T16:14:10.000Z</time>
      </trkpt>
      <trkpt lat="45.83633" lon="4.71632">
        <ele>332.51379</ele>
        <time>2023-06-29T16:14:11.000Z</time>
      </trkpt>
      <trkpt lat="45.83632" lon="4.7163">
        <ele>332.78244</ele>
        <time>2023-06-29T16:14:12.000Z</time>
      </trkpt>
      <trkpt lat="45.83631" lon="4.71627">
        <ele>333.13681</ele>
        <time>2023-06-29T16:14:13.000Z</time>
      </trkpt>
      <trkpt lat="45.8363" lon="4.71624">
        <ele>333.54211</ele>
        <time>2023-06-29T16:14:14.000Z</time>
      </trkpt>
      <trkpt lat="45.8363" lon="4.71622">
        <ele>333.97208</ele>
        <time>2023-06-29T16:14:15.000Z</time>
      </trkpt>
      <trkpt lat="45.83629" lon="4.71619">
        <ele>334.40457</ele>
        <time>2023-06-29T16:14:16.000Z</time>
      </trkpt>
      <trkpt lat="45.83628" lon="4.71616">
        <ele>334.86694</ele>
        <time>2023-06-29T16:14:17.000Z</time>
      </trkpt>
      <trkpt lat="45.83627" lon="4.71614">
        <ele>335.14069</ele>
        <time>2023-06-29T16:14:18.000Z</time>
      </trkpt>
      <trkpt lat="45.83626" lon="4.71609">
        <ele>335.43619</ele>
        <time>2023-06-29T16:14:20.000Z</time>
      </trkpt>
      <trkpt lat="45.83626" lon="4.71606">
        <ele>335.74771</ele>
        <time>2023-06-29T16:14:21.000Z</time>
      </trkpt>
      <trkpt lat="45.83625" lon="4.71603">
        <ele>335.85712</ele>
        <time>2023-06-29T16:14:22.000Z</time>
      </trkpt>
      <trkpt lat="45.83625" lon="4.71599">
        <ele>335.97675</ele>
        <time>2023-06-29T16:14:23.000Z</time>
      </trkpt>
      <trkpt lat="45.83624" lon="4.71596">
        <ele>336.12714</ele>
        <time>2023-06-29T16:14:24.000Z</time>
      </trkpt>
      <trkpt lat="45.83624" lon="4.71593">
        <ele>336.27286</ele>
        <time>2023-06-29T16:14:25.000Z</time>
      </trkpt>
      <trkpt lat="45.83624" lon="4.71591">
        <ele>336.78583</ele>
        <time>2023-06-29T16:14:26.000Z</time>
      </trkpt>
      <trkpt lat="45.83624" lon="4.71588">
        <ele>337.24243</ele>
        <time>2023-06-29T16:14:27.000Z</time>
      </trkpt>
      <trkpt lat="45.83623" lon="4.71585">
        <ele>337.68787</ele>
        <time>2023-06-29T16:14:28.000Z</time>
      </trkpt>
      <trkpt lat="45.83623" lon="4.71583">
        <ele>338.04663</ele>
        <time>2023-06-29T16:14:29.000Z</time>
      </trkpt>
      <trkpt lat="45.83622" lon="4.71579">
        <ele>338.41656</ele>
        <time>2023-06-29T16:14:30.000Z</time>
      </trkpt>
      <trkpt lat="45.83622" lon="4.71575">
        <ele>338.73657</ele>
        <time>2023-06-29T16:14:31.000Z</time>
      </trkpt>
      <trkpt lat="45.83622" lon="4.71571">
        <ele>339.00354</ele>
        <time>2023-06-29T16:14:32.000Z</time>
      </trkpt>
      <trkpt lat="45.83622" lon="4.71568">
        <ele>339.26089</ele>
        <time>2023-06-29T16:14:33.000Z</time>
      </trkpt>
      <trkpt lat="45.83623" lon="4.71564">
        <ele>339.5014</ele>
        <time>2023-06-29T16:14:34.000Z</time>
      </trkpt>
      <trkpt lat="45.83623" lon="4.71561">
        <ele>339.73569</ele>
        <time>2023-06-29T16:14:35.000Z</time>
      </trkpt>
      <trkpt lat="45.83623" lon="4.71558">
        <ele>339.99103</ele>
        <time>2023-06-29T16:14:36.000Z</time>
      </trkpt>
      <trkpt lat="45.83622" lon="4.71555">
        <ele>340.22833</ele>
        <time>2023-06-29T16:14:37.000Z</time>
      </trkpt>
      <trkpt lat="45.83622" lon="4.71551">
        <ele>340.48087</ele>
        <time>2023-06-29T16:14:38.000Z</time>
      </trkpt>
      <trkpt lat="45.83622" lon="4.71549">
        <ele>340.62372</ele>
        <time>2023-06-29T16:14:39.000Z</time>
      </trkpt>
      <trkpt lat="45.83622" lon="4.71546">
        <ele>340.77936</ele>
        <time>2023-06-29T16:14:40.000Z</time>
      </trkpt>
      <trkpt lat="45.83622" lon="4.71541">
        <ele>341.01822</ele>
        <time>2023-06-29T16:14:42.000Z</time>
      </trkpt>
      <trkpt lat="45.83622" lon="4.71539">
        <ele>341.45508</ele>
        <time>2023-06-29T16:14:43.000Z</time>
      </trkpt>
      <trkpt lat="45.83621" lon="4.71535">
        <ele>341.83023</ele>
        <time>2023-06-29T16:14:44.000Z</time>
      </trkpt>
      <trkpt lat="45.8362" lon="4.71532">
        <ele>341.98785</ele>
        <time>2023-06-29T16:14:45.000Z</time>
      </trkpt>
      <trkpt lat="45.83619" lon="4.71529">
        <ele>342.21628</ele>
        <time>2023-06-29T16:14:46.000Z</time>
      </trkpt>
      <trkpt lat="45.83618" lon="4.71526">
        <ele>342.44104</ele>
        <time>2023-06-29T16:14:47.000Z</time>
      </trkpt>
      <trkpt lat="45.83616" lon="4.71523">
        <ele>342.65088</ele>
        <time>2023-06-29T16:14:48.000Z</time>
      </trkpt>
      <trkpt lat="45.83615" lon="4.7152">
        <ele>342.84686</ele>
        <time>2023-06-29T16:14:49.000Z</time>
      </trkpt>
      <trkpt lat="45.83614" lon="4.71517">
        <ele>343.08591</ele>
        <time>2023-06-29T16:14:50.000Z</time>
      </trkpt>
      <trkpt lat="45.83613" lon="4.71515">
        <ele>343.31558</ele>
        <time>2023-06-29T16:14:51.000Z</time>
      </trkpt>
      <trkpt lat="45.83612" lon="4.71512">
        <ele>343.55154</ele>
        <time>2023-06-29T16:14:52.000Z</time>
      </trkpt>
      <trkpt lat="45.8361" lon="4.7151">
        <ele>343.80676</ele>
        <time>2023-06-29T16:14:53.000Z</time>
      </trkpt>
      <trkpt lat="45.83608" lon="4.71507">
        <ele>344.03864</ele>
        <time>2023-06-29T16:14:54.000Z</time>
      </trkpt>
      <trkpt lat="45.83607" lon="4.71504">
        <ele>344.26401</ele>
        <time>2023-06-29T16:14:55.000Z</time>
      </trkpt>
      <trkpt lat="45.83606" lon="4.71501">
        <ele>344.48721</ele>
        <time>2023-06-29T16:14:56.000Z</time>
      </trkpt>
      <trkpt lat="45.83605" lon="4.71499">
        <ele>344.65594</ele>
        <time>2023-06-29T16:14:57.000Z</time>
      </trkpt>
      <trkpt lat="45.83605" lon="4.71495">
        <ele>344.90091</ele>
        <time>2023-06-29T16:14:59.000Z</time>
      </trkpt>
      <trkpt lat="45.83606" lon="4.71492">
        <ele>345.13593</ele>
        <time>2023-06-29T16:15:00.000Z</time>
      </trkpt>
      <trkpt lat="45.83608" lon="4.7149">
        <ele>345.39081</ele>
        <time>2023-06-29T16:15:01.000Z</time>
      </trkpt>
      <trkpt lat="45.8361" lon="4.71488">
        <ele>345.57236</ele>
        <time>2023-06-29T16:15:02.000Z</time>
      </trkpt>
      <trkpt lat="45.83612" lon="4.71487">
        <ele>345.68939</ele>
        <time>2023-06-29T16:15:03.000Z</time>
      </trkpt>
      <trkpt lat="45.83614" lon="4.71485">
        <ele>345.83569</ele>
        <time>2023-06-29T16:15:04.000Z</time>
      </trkpt>
      <trkpt lat="45.83616" lon="4.71483">
        <ele>345.83722</ele>
        <time>2023-06-29T16:15:05.000Z</time>
      </trkpt>
      <trkpt lat="45.83618" lon="4.7148">
        <ele>346.04083</ele>
        <time>2023-06-29T16:15:06.000Z</time>
      </trkpt>
      <trkpt lat="45.8362" lon="4.71478">
        <ele>346.16623</ele>
        <time>2023-06-29T16:15:07.000Z</time>
      </trkpt>
      <trkpt lat="45.83622" lon="4.71476">
        <ele>346.27353</ele>
        <time>2023-06-29T16:15:08.000Z</time>
      </trkpt>
      <trkpt lat="45.83623" lon="4.71473">
        <ele>346.35574</ele>
        <time>2023-06-29T16:15:09.000Z</time>
      </trkpt>
      <trkpt lat="45.83625" lon="4.7147">
        <ele>346.47003</ele>
        <time>2023-06-29T16:15:10.000Z</time>
      </trkpt>
      <trkpt lat="45.83626" lon="4.71466">
        <ele>346.56842</ele>
        <time>2023-06-29T16:15:11.000Z</time>
      </trkpt>
      <trkpt lat="45.83628" lon="4.71464">
        <ele>346.67694</ele>
        <time>2023-06-29T16:15:12.000Z</time>
      </trkpt>
      <trkpt lat="45.8363" lon="4.7146">
        <ele>346.7764</ele>
        <time>2023-06-29T16:15:13.000Z</time>
      </trkpt>
      <trkpt lat="45.83632" lon="4.71457">
        <ele>346.85834</ele>
        <time>2023-06-29T16:15:14.000Z</time>
      </trkpt>
      <trkpt lat="45.83633" lon="4.71453">
        <ele>346.94949</ele>
        <time>2023-06-29T16:15:15.000Z</time>
      </trkpt>
      <trkpt lat="45.83635" lon="4.71448">
        <ele>347.04095</ele>
        <time>2023-06-29T16:15:16.000Z</time>
      </trkpt>
      <trkpt lat="45.83636" lon="4.71444">
        <ele>347.15012</ele>
        <time>2023-06-29T16:15:17.000Z</time>
      </trkpt>
      <trkpt lat="45.83637" lon="4.7144">
        <ele>347.28598</ele>
        <time>2023-06-29T16:15:18.000Z</time>
      </trkpt>
      <trkpt lat="45.83638" lon="4.71437">
        <ele>347.40286</ele>
        <time>2023-06-29T16:15:19.000Z</time>
      </trkpt>
      <trkpt lat="45.8364" lon="4.71433">
        <ele>347.50867</ele>
        <time>2023-06-29T16:15:20.000Z</time>
      </trkpt>
      <trkpt lat="45.83641" lon="4.7143">
        <ele>347.63034</ele>
        <time>2023-06-29T16:15:21.000Z</time>
      </trkpt>
      <trkpt lat="45.83642" lon="4.71425">
        <ele>347.59616</ele>
        <time>2023-06-29T16:15:22.000Z</time>
      </trkpt>
      <trkpt lat="45.83643" lon="4.71421">
        <ele>347.57248</ele>
        <time>2023-06-29T16:15:23.000Z</time>
      </trkpt>
      <trkpt lat="45.83643" lon="4.71417">
        <ele>347.53064</ele>
        <time>2023-06-29T16:15:24.000Z</time>
      </trkpt>
      <trkpt lat="45.83644" lon="4.71412">
        <ele>347.65094</ele>
        <time>2023-06-29T16:15:25.000Z</time>
      </trkpt>
      <trkpt lat="45.83644" lon="4.71408">
        <ele>347.75546</ele>
        <time>2023-06-29T16:15:26.000Z</time>
      </trkpt>
      <trkpt lat="45.83644" lon="4.71403">
        <ele>347.87579</ele>
        <time>2023-06-29T16:15:27.000Z</time>
      </trkpt>
      <trkpt lat="45.83645" lon="4.71399">
        <ele>348.01859</ele>
        <time>2023-06-29T16:15:28.000Z</time>
      </trkpt>
      <trkpt lat="45.83646" lon="4.71394">
        <ele>348.17325</ele>
        <time>2023-06-29T16:15:29.000Z</time>
      </trkpt>
      <trkpt lat="45.83646" lon="4.7139">
        <ele>348.30759</ele>
        <time>2023-06-29T16:15:30.000Z</time>
      </trkpt>
      <trkpt lat="45.83647" lon="4.71385">
        <ele>348.42303</ele>
        <time>2023-06-29T16:15:31.000Z</time>
      </trkpt>
      <trkpt lat="45.83648" lon="4.71381">
        <ele>348.52496</ele>
        <time>2023-06-29T16:15:32.000Z</time>
      </trkpt>
      <trkpt lat="45.83649" lon="4.71377">
        <ele>348.66318</ele>
        <time>2023-06-29T16:15:33.000Z</time>
      </trkpt>
      <trkpt lat="45.83651" lon="4.71373">
        <ele>348.82538</ele>
        <time>2023-06-29T16:15:34.000Z</time>
      </trkpt>
      <trkpt lat="45.83652" lon="4.71368">
        <ele>349.01971</ele>
        <time>2023-06-29T16:15:35.000Z</time>
      </trkpt>
      <trkpt lat="45.83653" lon="4.71363">
        <ele>349.18588</ele>
        <time>2023-06-29T16:15:36.000Z</time>
      </trkpt>
      <trkpt lat="45.83653" lon="4.71358">
        <ele>349.36093</ele>
        <time>2023-06-29T16:15:37.000Z</time>
      </trkpt>
      <trkpt lat="45.83654" lon="4.71353">
        <ele>349.60153</ele>
        <time>2023-06-29T16:15:38.000Z</time>
      </trkpt>
      <trkpt lat="45.83654" lon="4.71348">
        <ele>349.68549</ele>
        <time>2023-06-29T16:15:39.000Z</time>
      </trkpt>
      <trkpt lat="45.83655" lon="4.71343">
        <ele>349.7652</ele>
        <time>2023-06-29T16:15:40.000Z</time>
      </trkpt>
      <trkpt lat="45.83656" lon="4.71338">
        <ele>349.77609</ele>
        <time>2023-06-29T16:15:41.000Z</time>
      </trkpt>
      <trkpt lat="45.83657" lon="4.71333">
        <ele>349.89764</ele>
        <time>2023-06-29T16:15:42.000Z</time>
      </trkpt>
      <trkpt lat="45.83657" lon="4.71328">
        <ele>349.96033</ele>
        <time>2023-06-29T16:15:43.000Z</time>
      </trkpt>
      <trkpt lat="45.83656" lon="4.71323">
        <ele>350.00897</ele>
        <time>2023-06-29T16:15:44.000Z</time>
      </trkpt>
      <trkpt lat="45.83656" lon="4.71317">
        <ele>350.00128</ele>
        <time>2023-06-29T16:15:45.000Z</time>
      </trkpt>
      <trkpt lat="45.83657" lon="4.71312">
        <ele>349.97827</ele>
        <time>2023-06-29T16:15:46.000Z</time>
      </trkpt>
      <trkpt lat="45.83658" lon="4.71307">
        <ele>349.99829</ele>
        <time>2023-06-29T16:15:47.000Z</time>
      </trkpt>
      <trkpt lat="45.8366" lon="4.71302">
        <ele>349.98807</ele>
        <time>2023-06-29T16:15:48.000Z</time>
      </trkpt>
      <trkpt lat="45.83662" lon="4.71297">
        <ele>349.97961</ele>
        <time>2023-06-29T16:15:49.000Z</time>
      </trkpt>
      <trkpt lat="45.83663" lon="4.71291">
        <ele>349.99228</ele>
        <time>2023-06-29T16:15:50.000Z</time>
      </trkpt>
      <trkpt lat="45.83665" lon="4.71286">
        <ele>350.02756</ele>
        <time>2023-06-29T16:15:51.000Z</time>
      </trkpt>
      <trkpt lat="45.83666" lon="4.71282">
        <ele>349.94714</ele>
        <time>2023-06-29T16:15:52.000Z</time>
      </trkpt>
      <trkpt lat="45.83667" lon="4.71277">
        <ele>349.82465</ele>
        <time>2023-06-29T16:15:53.000Z</time>
      </trkpt>
      <trkpt lat="45.83668" lon="4.71272">
        <ele>349.67252</ele>
        <time>2023-06-29T16:15:54.000Z</time>
      </trkpt>
      <trkpt lat="45.83668" lon="4.71267">
        <ele>349.47708</ele>
        <time>2023-06-29T16:15:55.000Z</time>
      </trkpt>
      <trkpt lat="45.8367" lon="4.71263">
        <ele>349.27155</ele>
        <time>2023-06-29T16:15:56.000Z</time>
      </trkpt>
      <trkpt lat="45.83671" lon="4.71258">
        <ele>349.07965</ele>
        <time>2023-06-29T16:15:57.000Z</time>
      </trkpt>
      <trkpt lat="45.83671" lon="4.71254">
        <ele>348.78601</ele>
        <time>2023-06-29T16:15:58.000Z</time>
      </trkpt>
      <trkpt lat="45.83672" lon="4.71249">
        <ele>348.59207</ele>
        <time>2023-06-29T16:15:59.000Z</time>
      </trkpt>
      <trkpt lat="45.83673" lon="4.71245">
        <ele>348.38565</ele>
        <time>2023-06-29T16:16:00.000Z</time>
      </trkpt>
      <trkpt lat="45.83673" lon="4.71241">
        <ele>348.21405</ele>
        <time>2023-06-29T16:16:01.000Z</time>
      </trkpt>
      <trkpt lat="45.83675" lon="4.71237">
        <ele>348.06738</ele>
        <time>2023-06-29T16:16:02.000Z</time>
      </trkpt>
      <trkpt lat="45.83675" lon="4.71234">
        <ele>347.94952</ele>
        <time>2023-06-29T16:16:03.000Z</time>
      </trkpt>
      <trkpt lat="45.83676" lon="4.71231">
        <ele>347.84442</ele>
        <time>2023-06-29T16:16:04.000Z</time>
      </trkpt>
      <trkpt lat="45.83677" lon="4.71228">
        <ele>347.76443</ele>
        <time>2023-06-29T16:16:05.000Z</time>
      </trkpt>
      <trkpt lat="45.83678" lon="4.71225">
        <ele>347.75562</ele>
        <time>2023-06-29T16:16:06.000Z</time>
      </trkpt>
      <trkpt lat="45.83678" lon="4.71222">
        <ele>347.71414</ele>
        <time>2023-06-29T16:16:07.000Z</time>
      </trkpt>
      <trkpt lat="45.83677" lon="4.71219">
        <ele>347.67429</ele>
        <time>2023-06-29T16:16:08.000Z</time>
      </trkpt>
      <trkpt lat="45.83675" lon="4.71217">
        <ele>347.6369</ele>
        <time>2023-06-29T16:16:09.000Z</time>
      </trkpt>
      <trkpt lat="45.83673" lon="4.71215">
        <ele>347.59042</ele>
        <time>2023-06-29T16:16:10.000Z</time>
      </trkpt>
      <trkpt lat="45.83671" lon="4.71213">
        <ele>347.55035</ele>
        <time>2023-06-29T16:16:11.000Z</time>
      </trkpt>
      <trkpt lat="45.83669" lon="4.71212">
        <ele>347.63672</ele>
        <time>2023-06-29T16:16:12.000Z</time>
      </trkpt>
      <trkpt lat="45.83667" lon="4.71211">
        <ele>347.75848</ele>
        <time>2023-06-29T16:16:14.000Z</time>
      </trkpt>
      <trkpt lat="45.83664" lon="4.71209">
        <ele>347.95477</ele>
        <time>2023-06-29T16:16:16.000Z</time>
      </trkpt>
      <trkpt lat="45.83663" lon="4.71206">
        <ele>348.08994</ele>
        <time>2023-06-29T16:16:18.000Z</time>
      </trkpt>
      <trkpt lat="45.83661" lon="4.71204">
        <ele>348.24182</ele>
        <time>2023-06-29T16:16:19.000Z</time>
      </trkpt>
      <trkpt lat="45.83659" lon="4.71202">
        <ele>348.3653</ele>
        <time>2023-06-29T16:16:20.000Z</time>
      </trkpt>
      <trkpt lat="45.83656" lon="4.71201">
        <ele>348.51364</ele>
        <time>2023-06-29T16:16:21.000Z</time>
      </trkpt>
      <trkpt lat="45.83653" lon="4.712">
        <ele>348.66776</ele>
        <time>2023-06-29T16:16:22.000Z</time>
      </trkpt>
      <trkpt lat="45.83651" lon="4.71199">
        <ele>348.84726</ele>
        <time>2023-06-29T16:16:23.000Z</time>
      </trkpt>
      <trkpt lat="45.83649" lon="4.71199">
        <ele>349.00836</ele>
        <time>2023-06-29T16:16:24.000Z</time>
      </trkpt>
      <trkpt lat="45.83646" lon="4.71197">
        <ele>349.15753</ele>
        <time>2023-06-29T16:16:25.000Z</time>
      </trkpt>
      <trkpt lat="45.83644" lon="4.71196">
        <ele>349.31824</ele>
        <time>2023-06-29T16:16:26.000Z</time>
      </trkpt>
      <trkpt lat="45.83641" lon="4.71195">
        <ele>349.50519</ele>
        <time>2023-06-29T16:16:27.000Z</time>
      </trkpt>
      <trkpt lat="45.83639" lon="4.71193">
        <ele>349.70688</ele>
        <time>2023-06-29T16:16:28.000Z</time>
      </trkpt>
      <trkpt lat="45.83636" lon="4.71191">
        <ele>349.81647</ele>
        <time>2023-06-29T16:16:29.000Z</time>
      </trkpt>
      <trkpt lat="45.83634" lon="4.71189">
        <ele>349.94589</ele>
        <time>2023-06-29T16:16:30.000Z</time>
      </trkpt>
      <trkpt lat="45.83632" lon="4.71187">
        <ele>350.10474</ele>
        <time>2023-06-29T16:16:31.000Z</time>
      </trkpt>
      <trkpt lat="45.83629" lon="4.71185">
        <ele>350.25626</ele>
        <time>2023-06-29T16:16:32.000Z</time>
      </trkpt>
      <trkpt lat="45.83627" lon="4.71183">
        <ele>350.39746</ele>
        <time>2023-06-29T16:16:33.000Z</time>
      </trkpt>
      <trkpt lat="45.83624" lon="4.7118">
        <ele>350.57477</ele>
        <time>2023-06-29T16:16:34.000Z</time>
      </trkpt>
      <trkpt lat="45.83621" lon="4.71178">
        <ele>350.64386</ele>
        <time>2023-06-29T16:16:35.000Z</time>
      </trkpt>
      <trkpt lat="45.83618" lon="4.71176">
        <ele>350.71014</ele>
        <time>2023-06-29T16:16:36.000Z</time>
      </trkpt>
      <trkpt lat="45.83615" lon="4.71174">
        <ele>350.6991</ele>
        <time>2023-06-29T16:16:37.000Z</time>
      </trkpt>
      <trkpt lat="45.83612" lon="4.71172">
        <ele>350.74738</ele>
        <time>2023-06-29T16:16:38.000Z</time>
      </trkpt>
      <trkpt lat="45.83609" lon="4.7117">
        <ele>350.79181</ele>
        <time>2023-06-29T16:16:39.000Z</time>
      </trkpt>
      <trkpt lat="45.83606" lon="4.71169">
        <ele>350.85452</ele>
        <time>2023-06-29T16:16:40.000Z</time>
      </trkpt>
      <trkpt lat="45.83602" lon="4.71167">
        <ele>350.89676</ele>
        <time>2023-06-29T16:16:41.000Z</time>
      </trkpt>
      <trkpt lat="45.83599" lon="4.71165">
        <ele>350.92392</ele>
        <time>2023-06-29T16:16:42.000Z</time>
      </trkpt>
      <trkpt lat="45.83596" lon="4.71163">
        <ele>350.92535</ele>
        <time>2023-06-29T16:16:43.000Z</time>
      </trkpt>
      <trkpt lat="45.83592" lon="4.71161">
        <ele>350.93875</ele>
        <time>2023-06-29T16:16:44.000Z</time>
      </trkpt>
      <trkpt lat="45.83589" lon="4.71159">
        <ele>350.97708</ele>
        <time>2023-06-29T16:16:45.000Z</time>
      </trkpt>
      <trkpt lat="45.83585" lon="4.71158">
        <ele>351.02652</ele>
        <time>2023-06-29T16:16:46.000Z</time>
      </trkpt>
      <trkpt lat="45.83582" lon="4.71156">
        <ele>351.06927</ele>
        <time>2023-06-29T16:16:47.000Z</time>
      </trkpt>
      <trkpt lat="45.83579" lon="4.71153">
        <ele>351.10809</ele>
        <time>2023-06-29T16:16:48.000Z</time>
      </trkpt>
      <trkpt lat="45.83576" lon="4.7115">
        <ele>351.18091</ele>
        <time>2023-06-29T16:16:49.000Z</time>
      </trkpt>
      <trkpt lat="45.83573" lon="4.71146">
        <ele>351.2243</ele>
        <time>2023-06-29T16:16:50.000Z</time>
      </trkpt>
      <trkpt lat="45.83571" lon="4.71142">
        <ele>351.24564</ele>
        <time>2023-06-29T16:16:51.000Z</time>
      </trkpt>
      <trkpt lat="45.83571" lon="4.71136">
        <ele>351.27484</ele>
        <time>2023-06-29T16:16:52.000Z</time>
      </trkpt>
      <trkpt lat="45.83572" lon="4.7113">
        <ele>351.29913</ele>
        <time>2023-06-29T16:16:53.000Z</time>
      </trkpt>
      <trkpt lat="45.83573" lon="4.71125">
        <ele>351.28616</ele>
        <time>2023-06-29T16:16:54.000Z</time>
      </trkpt>
      <trkpt lat="45.83575" lon="4.71119">
        <ele>351.3678</ele>
        <time>2023-06-29T16:16:55.000Z</time>
      </trkpt>
      <trkpt lat="45.83577" lon="4.71114">
        <ele>351.44977</ele>
        <time>2023-06-29T16:16:56.000Z</time>
      </trkpt>
      <trkpt lat="45.83579" lon="4.71109">
        <ele>351.54355</ele>
        <time>2023-06-29T16:16:57.000Z</time>
      </trkpt>
      <trkpt lat="45.83581" lon="4.71104">
        <ele>351.69135</ele>
        <time>2023-06-29T16:16:58.000Z</time>
      </trkpt>
      <trkpt lat="45.83583" lon="4.71099">
        <ele>351.85312</ele>
        <time>2023-06-29T16:16:59.000Z</time>
      </trkpt>
      <trkpt lat="45.83584" lon="4.71094">
        <ele>351.99127</ele>
        <time>2023-06-29T16:17:00.000Z</time>
      </trkpt>
      <trkpt lat="45.83586" lon="4.71089">
        <ele>352.14545</ele>
        <time>2023-06-29T16:17:01.000Z</time>
      </trkpt>
      <trkpt lat="45.83588" lon="4.71084">
        <ele>352.30414</ele>
        <time>2023-06-29T16:17:02.000Z</time>
      </trkpt>
      <trkpt lat="45.83589" lon="4.71079">
        <ele>352.47504</ele>
        <time>2023-06-29T16:17:03.000Z</time>
      </trkpt>
      <trkpt lat="45.83591" lon="4.71074">
        <ele>352.63345</ele>
        <time>2023-06-29T16:17:04.000Z</time>
      </trkpt>
      <trkpt lat="45.83592" lon="4.71069">
        <ele>352.77356</ele>
        <time>2023-06-29T16:17:05.000Z</time>
      </trkpt>
      <trkpt lat="45.83593" lon="4.71064">
        <ele>352.90585</ele>
        <time>2023-06-29T16:17:06.000Z</time>
      </trkpt>
      <trkpt lat="45.83593" lon="4.71058">
        <ele>353.01483</ele>
        <time>2023-06-29T16:17:07.000Z</time>
      </trkpt>
      <trkpt lat="45.83593" lon="4.71053">
        <ele>353.15179</ele>
        <time>2023-06-29T16:17:08.000Z</time>
      </trkpt>
      <trkpt lat="45.83592" lon="4.71048">
        <ele>353.27521</ele>
        <time>2023-06-29T16:17:09.000Z</time>
      </trkpt>
      <trkpt lat="45.8359" lon="4.71043">
        <ele>353.33759</ele>
        <time>2023-06-29T16:17:10.000Z</time>
      </trkpt>
      <trkpt lat="45.83587" lon="4.7104">
        <ele>353.39117</ele>
        <time>2023-06-29T16:17:11.000Z</time>
      </trkpt>
      <trkpt lat="45.83583" lon="4.71038">
        <ele>353.44748</ele>
        <time>2023-06-29T16:17:12.000Z</time>
      </trkpt>
      <trkpt lat="45.83579" lon="4.71038">
        <ele>353.50726</ele>
        <time>2023-06-29T16:17:13.000Z</time>
      </trkpt>
      <trkpt lat="45.83575" lon="4.71038">
        <ele>353.56348</ele>
        <time>2023-06-29T16:17:14.000Z</time>
      </trkpt>
      <trkpt lat="45.83571" lon="4.71038">
        <ele>353.62701</ele>
        <time>2023-06-29T16:17:15.000Z</time>
      </trkpt>
      <trkpt lat="45.83567" lon="4.71037">
        <ele>353.67529</ele>
        <time>2023-06-29T16:17:16.000Z</time>
      </trkpt>
      <trkpt lat="45.83563" lon="4.71034">
        <ele>353.73663</ele>
        <time>2023-06-29T16:17:17.000Z</time>
      </trkpt>
      <trkpt lat="45.8356" lon="4.71031">
        <ele>353.75079</ele>
        <time>2023-06-29T16:17:18.000Z</time>
      </trkpt>
      <trkpt lat="45.83557" lon="4.71028">
        <ele>353.76166</ele>
        <time>2023-06-29T16:17:19.000Z</time>
      </trkpt>
      <trkpt lat="45.83553" lon="4.71026">
        <ele>353.78592</ele>
        <time>2023-06-29T16:17:20.000Z</time>
      </trkpt>
      <trkpt lat="45.8355" lon="4.71023">
        <ele>353.81372</ele>
        <time>2023-06-29T16:17:21.000Z</time>
      </trkpt>
      <trkpt lat="45.83546" lon="4.7102">
        <ele>353.83551</ele>
        <time>2023-06-29T16:17:22.000Z</time>
      </trkpt>
      <trkpt lat="45.83543" lon="4.71017">
        <ele>353.8902</ele>
        <time>2023-06-29T16:17:23.000Z</time>
      </trkpt>
      <trkpt lat="45.8354" lon="4.71014">
        <ele>353.94525</ele>
        <time>2023-06-29T16:17:24.000Z</time>
      </trkpt>
      <trkpt lat="45.83536" lon="4.71012">
        <ele>353.9975</ele>
        <time>2023-06-29T16:17:25.000Z</time>
      </trkpt>
      <trkpt lat="45.83533" lon="4.71009">
        <ele>354.04095</ele>
        <time>2023-06-29T16:17:26.000Z</time>
      </trkpt>
      <trkpt lat="45.83529" lon="4.71006">
        <ele>354.03699</ele>
        <time>2023-06-29T16:17:27.000Z</time>
      </trkpt>
      <trkpt lat="45.83526" lon="4.71003">
        <ele>354.01248</ele>
        <time>2023-06-29T16:17:28.000Z</time>
      </trkpt>
      <trkpt lat="45.83522" lon="4.70999">
        <ele>353.98901</ele>
        <time>2023-06-29T16:17:29.000Z</time>
      </trkpt>
      <trkpt lat="45.83519" lon="4.70996">
        <ele>354.01941</ele>
        <time>2023-06-29T16:17:30.000Z</time>
      </trkpt>
      <trkpt lat="45.83516" lon="4.70994">
        <ele>354.09027</ele>
        <time>2023-06-29T16:17:31.000Z</time>
      </trkpt>
      <trkpt lat="45.83512" lon="4.70992">
        <ele>354.14798</ele>
        <time>2023-06-29T16:17:32.000Z</time>
      </trkpt>
      <trkpt lat="45.83508" lon="4.7099">
        <ele>354.22394</ele>
        <time>2023-06-29T16:17:33.000Z</time>
      </trkpt>
      <trkpt lat="45.83504" lon="4.70989">
        <ele>354.29803</ele>
        <time>2023-06-29T16:17:34.000Z</time>
      </trkpt>
      <trkpt lat="45.835" lon="4.70989">
        <ele>354.33252</ele>
        <time>2023-06-29T16:17:35.000Z</time>
      </trkpt>
      <trkpt lat="45.83497" lon="4.70988">
        <ele>354.38742</ele>
        <time>2023-06-29T16:17:36.000Z</time>
      </trkpt>
      <trkpt lat="45.83492" lon="4.70988">
        <ele>354.41714</ele>
        <time>2023-06-29T16:17:37.000Z</time>
      </trkpt>
      <trkpt lat="45.83488" lon="4.70988">
        <ele>354.51166</ele>
        <time>2023-06-29T16:17:38.000Z</time>
      </trkpt>
      <trkpt lat="45.83484" lon="4.70988">
        <ele>354.59247</ele>
        <time>2023-06-29T16:17:39.000Z</time>
      </trkpt>
      <trkpt lat="45.83479" lon="4.70988">
        <ele>354.68289</ele>
        <time>2023-06-29T16:17:40.000Z</time>
      </trkpt>
      <trkpt lat="45.83475" lon="4.70989">
        <ele>354.77628</ele>
        <time>2023-06-29T16:17:41.000Z</time>
      </trkpt>
      <trkpt lat="45.83469" lon="4.70991">
        <ele>354.87402</ele>
        <time>2023-06-29T16:17:42.000Z</time>
      </trkpt>
      <trkpt lat="45.83465" lon="4.70991">
        <ele>354.94644</ele>
        <time>2023-06-29T16:17:43.000Z</time>
      </trkpt>
      <trkpt lat="45.83461" lon="4.70991">
        <ele>355.01996</ele>
        <time>2023-06-29T16:17:44.000Z</time>
      </trkpt>
      <trkpt lat="45.83457" lon="4.7099">
        <ele>355.09476</ele>
        <time>2023-06-29T16:17:45.000Z</time>
      </trkpt>
      <trkpt lat="45.83453" lon="4.70989">
        <ele>355.18719</ele>
        <time>2023-06-29T16:17:46.000Z</time>
      </trkpt>
      <trkpt lat="45.83448" lon="4.70989">
        <ele>355.36084</ele>
        <time>2023-06-29T16:17:47.000Z</time>
      </trkpt>
      <trkpt lat="45.83445" lon="4.70988">
        <ele>355.51666</ele>
        <time>2023-06-29T16:17:48.000Z</time>
      </trkpt>
      <trkpt lat="45.83441" lon="4.70989">
        <ele>355.68042</ele>
        <time>2023-06-29T16:17:49.000Z</time>
      </trkpt>
      <trkpt lat="45.83437" lon="4.70989">
        <ele>355.84088</ele>
        <time>2023-06-29T16:17:50.000Z</time>
      </trkpt>
      <trkpt lat="45.83433" lon="4.70988">
        <ele>355.94522</ele>
        <time>2023-06-29T16:17:51.000Z</time>
      </trkpt>
      <trkpt lat="45.83429" lon="4.70988">
        <ele>356.07425</ele>
        <time>2023-06-29T16:17:52.000Z</time>
      </trkpt>
      <trkpt lat="45.83424" lon="4.70989">
        <ele>356.20551</ele>
        <time>2023-06-29T16:17:53.000Z</time>
      </trkpt>
      <trkpt lat="45.8342" lon="4.70989">
        <ele>356.34235</ele>
        <time>2023-06-29T16:17:54.000Z</time>
      </trkpt>
      <trkpt lat="45.83416" lon="4.70989">
        <ele>356.52963</ele>
        <time>2023-06-29T16:17:55.000Z</time>
      </trkpt>
      <trkpt lat="45.83412" lon="4.70989">
        <ele>356.68823</ele>
        <time>2023-06-29T16:17:56.000Z</time>
      </trkpt>
      <trkpt lat="45.83407" lon="4.7099">
        <ele>356.86865</ele>
        <time>2023-06-29T16:17:57.000Z</time>
      </trkpt>
      <trkpt lat="45.83403" lon="4.7099">
        <ele>357.00073</ele>
        <time>2023-06-29T16:17:58.000Z</time>
      </trkpt>
      <trkpt lat="45.834" lon="4.7099">
        <ele>357.19598</ele>
        <time>2023-06-29T16:17:59.000Z</time>
      </trkpt>
      <trkpt lat="45.83396" lon="4.7099">
        <ele>357.35605</ele>
        <time>2023-06-29T16:18:00.000Z</time>
      </trkpt>
      <trkpt lat="45.83391" lon="4.70993">
        <ele>357.50067</ele>
        <time>2023-06-29T16:18:01.000Z</time>
      </trkpt>
      <trkpt lat="45.83386" lon="4.70993">
        <ele>357.63098</ele>
        <time>2023-06-29T16:18:02.000Z</time>
      </trkpt>
      <trkpt lat="45.83381" lon="4.70994">
        <ele>357.7453</ele>
        <time>2023-06-29T16:18:03.000Z</time>
      </trkpt>
      <trkpt lat="45.83377" lon="4.70995">
        <ele>357.85098</ele>
        <time>2023-06-29T16:18:04.000Z</time>
      </trkpt>
      <trkpt lat="45.83373" lon="4.70995">
        <ele>357.97653</ele>
        <time>2023-06-29T16:18:05.000Z</time>
      </trkpt>
      <trkpt lat="45.83368" lon="4.70996">
        <ele>358.08612</ele>
        <time>2023-06-29T16:18:06.000Z</time>
      </trkpt>
      <trkpt lat="45.83364" lon="4.70997">
        <ele>358.16626</ele>
        <time>2023-06-29T16:18:07.000Z</time>
      </trkpt>
      <trkpt lat="45.83359" lon="4.70997">
        <ele>358.26263</ele>
        <time>2023-06-29T16:18:08.000Z</time>
      </trkpt>
      <trkpt lat="45.83355" lon="4.70996">
        <ele>358.35931</ele>
        <time>2023-06-29T16:18:09.000Z</time>
      </trkpt>
      <trkpt lat="45.83351" lon="4.70997">
        <ele>358.47516</ele>
        <time>2023-06-29T16:18:10.000Z</time>
      </trkpt>
      <trkpt lat="45.83347" lon="4.70998">
        <ele>358.63409</ele>
        <time>2023-06-29T16:18:11.000Z</time>
      </trkpt>
      <trkpt lat="45.83343" lon="4.70999">
        <ele>358.78378</ele>
        <time>2023-06-29T16:18:12.000Z</time>
      </trkpt>
      <trkpt lat="45.8334" lon="4.70999">
        <ele>358.9035</ele>
        <time>2023-06-29T16:18:13.000Z</time>
      </trkpt>
      <trkpt lat="45.83336" lon="4.70999">
        <ele>359.02582</ele>
        <time>2023-06-29T16:18:14.000Z</time>
      </trkpt>
      <trkpt lat="45.83332" lon="4.71">
        <ele>359.1308</ele>
        <time>2023-06-29T16:18:15.000Z</time>
      </trkpt>
      <trkpt lat="45.83328" lon="4.71">
        <ele>359.23395</ele>
        <time>2023-06-29T16:18:16.000Z</time>
      </trkpt>
      <trkpt lat="45.83325" lon="4.71">
        <ele>359.34451</ele>
        <time>2023-06-29T16:18:17.000Z</time>
      </trkpt>
      <trkpt lat="45.8332" lon="4.70999">
        <ele>359.4408</ele>
        <time>2023-06-29T16:18:18.000Z</time>
      </trkpt>
      <trkpt lat="45.83317" lon="4.70998">
        <ele>359.46713</ele>
        <time>2023-06-29T16:18:19.000Z</time>
      </trkpt>
      <trkpt lat="45.83314" lon="4.70996">
        <ele>359.48688</ele>
        <time>2023-06-29T16:18:20.000Z</time>
      </trkpt>
      <trkpt lat="45.83312" lon="4.70992">
        <ele>359.50159</ele>
        <time>2023-06-29T16:18:21.000Z</time>
      </trkpt>
      <trkpt lat="45.83311" lon="4.70987">
        <ele>359.49316</ele>
        <time>2023-06-29T16:18:22.000Z</time>
      </trkpt>
      <trkpt lat="45.8331" lon="4.70982">
        <ele>359.48642</ele>
        <time>2023-06-29T16:18:23.000Z</time>
      </trkpt>
      <trkpt lat="45.8331" lon="4.70978">
        <ele>359.48267</ele>
        <time>2023-06-29T16:18:24.000Z</time>
      </trkpt>
      <trkpt lat="45.83312" lon="4.70974">
        <ele>359.4566</ele>
        <time>2023-06-29T16:18:25.000Z</time>
      </trkpt>
      <trkpt lat="45.83313" lon="4.7097">
        <ele>359.43866</ele>
        <time>2023-06-29T16:18:26.000Z</time>
      </trkpt>
      <trkpt lat="45.83315" lon="4.70967">
        <ele>359.42618</ele>
        <time>2023-06-29T16:18:27.000Z</time>
      </trkpt>
      <trkpt lat="45.83316" lon="4.70963">
        <ele>359.42145</ele>
        <time>2023-06-29T16:18:28.000Z</time>
      </trkpt>
      <trkpt lat="45.83317" lon="4.7096">
        <ele>359.41714</ele>
        <time>2023-06-29T16:18:29.000Z</time>
      </trkpt>
      <trkpt lat="45.83319" lon="4.70957">
        <ele>359.39606</ele>
        <time>2023-06-29T16:18:30.000Z</time>
      </trkpt>
      <trkpt lat="45.8332" lon="4.70955">
        <ele>359.36652</ele>
        <time>2023-06-29T16:18:31.000Z</time>
      </trkpt>
      <trkpt lat="45.8332" lon="4.7095">
        <ele>359.32858</ele>
        <time>2023-06-29T16:18:33.000Z</time>
      </trkpt>
    </trkseg>
  </trk>
</gpx>